<?xml version="1.0" encoding="UTF-8" standalone="no" ?>
<gpx xmlns="http://www.topografix.com/GPX/1/1" xmlns:xsi="http://www.w3.org/2001/XMLSchema-instance" xsi:schemaLocation="http://www.topografix.com/GPX/1/1 http://www.topografix.com/GPX/1/1/gpx.xsd" version="1.1" creator="VisuGPX - https://www.visugpx.com">
  <metadata>
    <name>Vence St Barnabé Bramafan Pic de Courmette</name>
    <desc><![CDATA[Départ soit de la fontaine début du col de Vence soit là où nous nous sommes garés cad au fond du lotissement départ du GR.
Montée au col de Vence par le GR puis à gauche en arrivant au col, difficile à trouver des chemin qui évitent de prendre la route pour St Barnabé. ensuite on traverse le plateau d'Est en Ouest pour arriver au départ du single.
Attention en descendant rester sur le chemin de droite qui remonte un peu avant de plonger dans le vallon. On traverse le petit vallon et on remonte en face chemin à droite qui part Nord et remonte vers le une piste puis au  pylône EDF. le départ du single est à gauche à proximité du Pylône. Magnifique single qui descend vers le loup sans toutefois aller jusqu'à Bframafan. On retombe sur une piste, la prendre à gauche et rapidement le sentier qui monte à gauche qui nous ramene sur la route qui monte à Courme. Montez jusqu'a courme puis le GR technique à la montée qu'on peut éviter en prenant la piste qui le suis sur la gauche.O remonte comme ça sur le plateau, puis à droite pour le pic de Tourette, montée technique, puis redescendre sud et prendre l'arrette pour monter au Pic de Courmette. On attaque ensuite une descente technique, encore plus vers la fin dans la partie en sous bois. Piste à Gauche jusqu'a contourner le Puy de naouri et récuperer le chemin technique par endroit pour redescendre à la voiture. GPS 36km D+1590m]]></desc>
  </metadata>
  <trk>
    <name><![CDATA[Vence Cyclisme]]></name>
    <trkseg>
      <trkpt lat="43.73512" lon="7.08893">
        <ele>562.40002441406</ele>
        <time>2021-03-04T08:20:00.000Z</time>
      </trkpt>
      <trkpt lat="43.73512" lon="7.08893">
        <ele>562.40002441406</ele>
        <time>2021-03-04T08:20:08.000Z</time>
      </trkpt>
      <trkpt lat="43.73513" lon="7.08893">
        <ele>562.59997558594</ele>
        <time>2021-03-04T08:20:17.000Z</time>
      </trkpt>
      <trkpt lat="43.73513" lon="7.08893">
        <ele>562.40002441406</ele>
        <time>2021-03-04T08:20:25.000Z</time>
      </trkpt>
      <trkpt lat="43.73513" lon="7.08892">
        <ele>562.59997558594</ele>
        <time>2021-03-04T08:20:31.000Z</time>
      </trkpt>
      <trkpt lat="43.73513" lon="7.08893">
        <ele>562.59997558594</ele>
        <time>2021-03-04T08:20:40.000Z</time>
      </trkpt>
      <trkpt lat="43.73513" lon="7.08893">
        <ele>562.59997558594</ele>
        <time>2021-03-04T08:20:51.000Z</time>
      </trkpt>
      <trkpt lat="43.73514" lon="7.08894">
        <ele>562.20001220703</ele>
        <time>2021-03-04T08:21:00.000Z</time>
      </trkpt>
      <trkpt lat="43.73512" lon="7.08895">
        <ele>562.40002441406</ele>
        <time>2021-03-04T08:21:08.000Z</time>
      </trkpt>
      <trkpt lat="43.73513" lon="7.08896">
        <ele>562.20001220703</ele>
        <time>2021-03-04T08:21:12.000Z</time>
      </trkpt>
      <trkpt lat="43.73514" lon="7.08893">
        <ele>562.59997558594</ele>
        <time>2021-03-04T08:21:19.000Z</time>
      </trkpt>
      <trkpt lat="43.73514" lon="7.08892">
        <ele>562.79998779297</ele>
        <time>2021-03-04T08:21:30.000Z</time>
      </trkpt>
      <trkpt lat="43.73515" lon="7.08891">
        <ele>563</ele>
        <time>2021-03-04T08:21:37.000Z</time>
      </trkpt>
      <trkpt lat="43.73515" lon="7.0889">
        <ele>562.79998779297</ele>
        <time>2021-03-04T08:21:49.000Z</time>
      </trkpt>
      <trkpt lat="43.73518" lon="7.08885">
        <ele>562.79998779297</ele>
        <time>2021-03-04T08:21:57.000Z</time>
      </trkpt>
      <trkpt lat="43.73521" lon="7.08879">
        <ele>563.40002441406</ele>
        <time>2021-03-04T08:22:03.000Z</time>
      </trkpt>
      <trkpt lat="43.73521" lon="7.08878">
        <ele>563.40002441406</ele>
        <time>2021-03-04T08:22:05.000Z</time>
      </trkpt>
      <trkpt lat="43.73521" lon="7.08878">
        <ele>563.59997558594</ele>
        <time>2021-03-04T08:22:11.000Z</time>
      </trkpt>
      <trkpt lat="43.73521" lon="7.08879">
        <ele>563.79998779297</ele>
        <time>2021-03-04T08:22:20.000Z</time>
      </trkpt>
      <trkpt lat="43.73521" lon="7.0888">
        <ele>563.79998779297</ele>
        <time>2021-03-04T08:22:34.000Z</time>
      </trkpt>
      <trkpt lat="43.73521" lon="7.08881">
        <ele>563.59997558594</ele>
        <time>2021-03-04T08:22:58.000Z</time>
      </trkpt>
      <trkpt lat="43.73521" lon="7.08881">
        <ele>563.59997558594</ele>
        <time>2021-03-04T08:23:11.000Z</time>
      </trkpt>
      <trkpt lat="43.73522" lon="7.08881">
        <ele>563.59997558594</ele>
        <time>2021-03-04T08:23:31.000Z</time>
      </trkpt>
      <trkpt lat="43.73522" lon="7.08882">
        <ele>563.40002441406</ele>
        <time>2021-03-04T08:23:55.000Z</time>
      </trkpt>
      <trkpt lat="43.73522" lon="7.08883">
        <ele>563.40002441406</ele>
        <time>2021-03-04T08:24:20.000Z</time>
      </trkpt>
      <trkpt lat="43.73521" lon="7.08883">
        <ele>563.40002441406</ele>
        <time>2021-03-04T08:24:40.000Z</time>
      </trkpt>
      <trkpt lat="43.73522" lon="7.08881">
        <ele>563.40002441406</ele>
        <time>2021-03-04T08:24:45.000Z</time>
      </trkpt>
      <trkpt lat="43.73524" lon="7.08879">
        <ele>563.59997558594</ele>
        <time>2021-03-04T08:24:47.000Z</time>
      </trkpt>
      <trkpt lat="43.73527" lon="7.08873">
        <ele>563.79998779297</ele>
        <time>2021-03-04T08:24:50.000Z</time>
      </trkpt>
      <trkpt lat="43.73532" lon="7.08865">
        <ele>564.40002441406</ele>
        <time>2021-03-04T08:24:54.000Z</time>
      </trkpt>
      <trkpt lat="43.73533" lon="7.08863">
        <ele>564.59997558594</ele>
        <time>2021-03-04T08:24:55.000Z</time>
      </trkpt>
      <trkpt lat="43.7354" lon="7.08854">
        <ele>565.79998779297</ele>
        <time>2021-03-04T08:25:00.000Z</time>
      </trkpt>
      <trkpt lat="43.73545" lon="7.08847">
        <ele>566.59997558594</ele>
        <time>2021-03-04T08:25:03.000Z</time>
      </trkpt>
      <trkpt lat="43.73546" lon="7.08845">
        <ele>566.79998779297</ele>
        <time>2021-03-04T08:25:04.000Z</time>
      </trkpt>
      <trkpt lat="43.73551" lon="7.08835">
        <ele>568.20001220703</ele>
        <time>2021-03-04T08:25:08.000Z</time>
      </trkpt>
      <trkpt lat="43.73553" lon="7.08832">
        <ele>568.40002441406</ele>
        <time>2021-03-04T08:25:09.000Z</time>
      </trkpt>
      <trkpt lat="43.73556" lon="7.08827">
        <ele>569.40002441406</ele>
        <time>2021-03-04T08:25:11.000Z</time>
      </trkpt>
      <trkpt lat="43.73561" lon="7.0882">
        <ele>570.79998779297</ele>
        <time>2021-03-04T08:25:14.000Z</time>
      </trkpt>
      <trkpt lat="43.73565" lon="7.08817">
        <ele>571.59997558594</ele>
        <time>2021-03-04T08:25:16.000Z</time>
      </trkpt>
      <trkpt lat="43.73566" lon="7.08815">
        <ele>571.79998779297</ele>
        <time>2021-03-04T08:25:17.000Z</time>
      </trkpt>
      <trkpt lat="43.73571" lon="7.0881">
        <ele>573.40002441406</ele>
        <time>2021-03-04T08:25:20.000Z</time>
      </trkpt>
      <trkpt lat="43.73573" lon="7.08809">
        <ele>574.20001220703</ele>
        <time>2021-03-04T08:25:21.000Z</time>
      </trkpt>
      <trkpt lat="43.73574" lon="7.08807">
        <ele>574.79998779297</ele>
        <time>2021-03-04T08:25:22.000Z</time>
      </trkpt>
      <trkpt lat="43.7358" lon="7.088">
        <ele>576</ele>
        <time>2021-03-04T08:25:26.000Z</time>
      </trkpt>
      <trkpt lat="43.73581" lon="7.08798">
        <ele>576.40002441406</ele>
        <time>2021-03-04T08:25:27.000Z</time>
      </trkpt>
      <trkpt lat="43.73583" lon="7.08794">
        <ele>577.20001220703</ele>
        <time>2021-03-04T08:25:29.000Z</time>
      </trkpt>
      <trkpt lat="43.73586" lon="7.0879">
        <ele>578.20001220703</ele>
        <time>2021-03-04T08:25:31.000Z</time>
      </trkpt>
      <trkpt lat="43.73587" lon="7.08786">
        <ele>579.20001220703</ele>
        <time>2021-03-04T08:25:33.000Z</time>
      </trkpt>
      <trkpt lat="43.73589" lon="7.08785">
        <ele>579.59997558594</ele>
        <time>2021-03-04T08:25:34.000Z</time>
      </trkpt>
      <trkpt lat="43.73592" lon="7.08778">
        <ele>580.59997558594</ele>
        <time>2021-03-04T08:25:37.000Z</time>
      </trkpt>
      <trkpt lat="43.73593" lon="7.08776">
        <ele>581</ele>
        <time>2021-03-04T08:25:38.000Z</time>
      </trkpt>
      <trkpt lat="43.73595" lon="7.0877">
        <ele>581.59997558594</ele>
        <time>2021-03-04T08:25:41.000Z</time>
      </trkpt>
      <trkpt lat="43.73596" lon="7.08767">
        <ele>582</ele>
        <time>2021-03-04T08:25:42.000Z</time>
      </trkpt>
      <trkpt lat="43.73596" lon="7.08765">
        <ele>582.20001220703</ele>
        <time>2021-03-04T08:25:43.000Z</time>
      </trkpt>
      <trkpt lat="43.73598" lon="7.08761">
        <ele>583.20001220703</ele>
        <time>2021-03-04T08:25:45.000Z</time>
      </trkpt>
      <trkpt lat="43.73599" lon="7.08759">
        <ele>583.59997558594</ele>
        <time>2021-03-04T08:25:46.000Z</time>
      </trkpt>
      <trkpt lat="43.73602" lon="7.08751">
        <ele>584.79998779297</ele>
        <time>2021-03-04T08:25:50.000Z</time>
      </trkpt>
      <trkpt lat="43.73605" lon="7.08747">
        <ele>585.40002441406</ele>
        <time>2021-03-04T08:25:52.000Z</time>
      </trkpt>
      <trkpt lat="43.73612" lon="7.08742">
        <ele>586.59997558594</ele>
        <time>2021-03-04T08:25:55.000Z</time>
      </trkpt>
      <trkpt lat="43.73617" lon="7.08737">
        <ele>587.79998779297</ele>
        <time>2021-03-04T08:25:58.000Z</time>
      </trkpt>
      <trkpt lat="43.7362" lon="7.08734">
        <ele>588.40002441406</ele>
        <time>2021-03-04T08:26:00.000Z</time>
      </trkpt>
      <trkpt lat="43.73623" lon="7.08732">
        <ele>589.20001220703</ele>
        <time>2021-03-04T08:26:02.000Z</time>
      </trkpt>
      <trkpt lat="43.73626" lon="7.08727">
        <ele>590.20001220703</ele>
        <time>2021-03-04T08:26:05.000Z</time>
      </trkpt>
      <trkpt lat="43.73627" lon="7.08725">
        <ele>590.59997558594</ele>
        <time>2021-03-04T08:26:06.000Z</time>
      </trkpt>
      <trkpt lat="43.73629" lon="7.08721">
        <ele>591.40002441406</ele>
        <time>2021-03-04T08:26:11.000Z</time>
      </trkpt>
      <trkpt lat="43.73629" lon="7.0872">
        <ele>591.40002441406</ele>
        <time>2021-03-04T08:26:12.000Z</time>
      </trkpt>
      <trkpt lat="43.73631" lon="7.0871">
        <ele>591.40002441406</ele>
        <time>2021-03-04T08:26:20.000Z</time>
      </trkpt>
      <trkpt lat="43.73637" lon="7.08685">
        <ele>590.40002441406</ele>
        <time>2021-03-04T08:26:25.000Z</time>
      </trkpt>
      <trkpt lat="43.73637" lon="7.08678">
        <ele>590</ele>
        <time>2021-03-04T08:26:26.000Z</time>
      </trkpt>
      <trkpt lat="43.73639" lon="7.08662">
        <ele>588.59997558594</ele>
        <time>2021-03-04T08:26:29.000Z</time>
      </trkpt>
      <trkpt lat="43.73642" lon="7.08651">
        <ele>587.59997558594</ele>
        <time>2021-03-04T08:26:31.000Z</time>
      </trkpt>
      <trkpt lat="43.73648" lon="7.08638">
        <ele>587.40002441406</ele>
        <time>2021-03-04T08:26:34.000Z</time>
      </trkpt>
      <trkpt lat="43.73658" lon="7.08628">
        <ele>588</ele>
        <time>2021-03-04T08:26:38.000Z</time>
      </trkpt>
      <trkpt lat="43.73663" lon="7.08625">
        <ele>588.79998779297</ele>
        <time>2021-03-04T08:26:40.000Z</time>
      </trkpt>
      <trkpt lat="43.73667" lon="7.08621">
        <ele>589.79998779297</ele>
        <time>2021-03-04T08:26:42.000Z</time>
      </trkpt>
      <trkpt lat="43.73666" lon="7.0862">
        <ele>590.79998779297</ele>
        <time>2021-03-04T08:26:44.000Z</time>
      </trkpt>
      <trkpt lat="43.73668" lon="7.08617">
        <ele>592.20001220703</ele>
        <time>2021-03-04T08:26:47.000Z</time>
      </trkpt>
      <trkpt lat="43.73669" lon="7.08615">
        <ele>592.59997558594</ele>
        <time>2021-03-04T08:26:49.000Z</time>
      </trkpt>
      <trkpt lat="43.73673" lon="7.08609">
        <ele>593.40002441406</ele>
        <time>2021-03-04T08:26:55.000Z</time>
      </trkpt>
      <trkpt lat="43.73673" lon="7.08606">
        <ele>594.40002441406</ele>
        <time>2021-03-04T08:26:59.000Z</time>
      </trkpt>
      <trkpt lat="43.73674" lon="7.08603">
        <ele>594.59997558594</ele>
        <time>2021-03-04T08:27:01.000Z</time>
      </trkpt>
      <trkpt lat="43.73676" lon="7.086">
        <ele>595</ele>
        <time>2021-03-04T08:27:03.000Z</time>
      </trkpt>
      <trkpt lat="43.7368" lon="7.08594">
        <ele>595.59997558594</ele>
        <time>2021-03-04T08:27:06.000Z</time>
      </trkpt>
      <trkpt lat="43.73686" lon="7.08585">
        <ele>596.79998779297</ele>
        <time>2021-03-04T08:27:10.000Z</time>
      </trkpt>
      <trkpt lat="43.7369" lon="7.08572">
        <ele>597.20001220703</ele>
        <time>2021-03-04T08:27:13.000Z</time>
      </trkpt>
      <trkpt lat="43.73695" lon="7.08553">
        <ele>596.40002441406</ele>
        <time>2021-03-04T08:27:18.000Z</time>
      </trkpt>
      <trkpt lat="43.73698" lon="7.08538">
        <ele>598</ele>
        <time>2021-03-04T08:27:23.000Z</time>
      </trkpt>
      <trkpt lat="43.737" lon="7.08526">
        <ele>599.20001220703</ele>
        <time>2021-03-04T08:27:27.000Z</time>
      </trkpt>
      <trkpt lat="43.73701" lon="7.0852">
        <ele>600.20001220703</ele>
        <time>2021-03-04T08:27:29.000Z</time>
      </trkpt>
      <trkpt lat="43.73701" lon="7.08519">
        <ele>600.59997558594</ele>
        <time>2021-03-04T08:27:30.000Z</time>
      </trkpt>
      <trkpt lat="43.73704" lon="7.08508">
        <ele>601.59997558594</ele>
        <time>2021-03-04T08:27:34.000Z</time>
      </trkpt>
      <trkpt lat="43.73707" lon="7.08499">
        <ele>602.79998779297</ele>
        <time>2021-03-04T08:27:37.000Z</time>
      </trkpt>
      <trkpt lat="43.73715" lon="7.08485">
        <ele>603.20001220703</ele>
        <time>2021-03-04T08:27:41.000Z</time>
      </trkpt>
      <trkpt lat="43.73723" lon="7.0848">
        <ele>602.79998779297</ele>
        <time>2021-03-04T08:27:43.000Z</time>
      </trkpt>
      <trkpt lat="43.73731" lon="7.08479">
        <ele>602</ele>
        <time>2021-03-04T08:27:45.000Z</time>
      </trkpt>
      <trkpt lat="43.73733" lon="7.08478">
        <ele>601.59997558594</ele>
        <time>2021-03-04T08:27:46.000Z</time>
      </trkpt>
      <trkpt lat="43.73739" lon="7.08474">
        <ele>601.20001220703</ele>
        <time>2021-03-04T08:27:48.000Z</time>
      </trkpt>
      <trkpt lat="43.73751" lon="7.08458">
        <ele>602</ele>
        <time>2021-03-04T08:27:52.000Z</time>
      </trkpt>
      <trkpt lat="43.73761" lon="7.08451">
        <ele>602.79998779297</ele>
        <time>2021-03-04T08:27:56.000Z</time>
      </trkpt>
      <trkpt lat="43.73775" lon="7.08441">
        <ele>602.79998779297</ele>
        <time>2021-03-04T08:28:01.000Z</time>
      </trkpt>
      <trkpt lat="43.7379" lon="7.0843">
        <ele>601.79998779297</ele>
        <time>2021-03-04T08:28:06.000Z</time>
      </trkpt>
      <trkpt lat="43.73794" lon="7.08428">
        <ele>601.40002441406</ele>
        <time>2021-03-04T08:28:07.000Z</time>
      </trkpt>
      <trkpt lat="43.73802" lon="7.08426">
        <ele>600.20001220703</ele>
        <time>2021-03-04T08:28:09.000Z</time>
      </trkpt>
      <trkpt lat="43.73804" lon="7.08425">
        <ele>599.59997558594</ele>
        <time>2021-03-04T08:28:10.000Z</time>
      </trkpt>
      <trkpt lat="43.73807" lon="7.08424">
        <ele>599.20001220703</ele>
        <time>2021-03-04T08:28:12.000Z</time>
      </trkpt>
      <trkpt lat="43.73811" lon="7.08423">
        <ele>599.79998779297</ele>
        <time>2021-03-04T08:28:14.000Z</time>
      </trkpt>
      <trkpt lat="43.73814" lon="7.0842">
        <ele>600.40002441406</ele>
        <time>2021-03-04T08:28:16.000Z</time>
      </trkpt>
      <trkpt lat="43.73819" lon="7.08413">
        <ele>601.40002441406</ele>
        <time>2021-03-04T08:28:19.000Z</time>
      </trkpt>
      <trkpt lat="43.73824" lon="7.084">
        <ele>601.59997558594</ele>
        <time>2021-03-04T08:28:23.000Z</time>
      </trkpt>
      <trkpt lat="43.73827" lon="7.08398">
        <ele>601.40002441406</ele>
        <time>2021-03-04T08:28:25.000Z</time>
      </trkpt>
      <trkpt lat="43.73827" lon="7.08398">
        <ele>601.79998779297</ele>
        <time>2021-03-04T08:28:27.000Z</time>
      </trkpt>
      <trkpt lat="43.73829" lon="7.08396">
        <ele>602.20001220703</ele>
        <time>2021-03-04T08:28:29.000Z</time>
      </trkpt>
      <trkpt lat="43.73832" lon="7.08393">
        <ele>602</ele>
        <time>2021-03-04T08:28:31.000Z</time>
      </trkpt>
      <trkpt lat="43.73835" lon="7.08391">
        <ele>602.20001220703</ele>
        <time>2021-03-04T08:28:35.000Z</time>
      </trkpt>
      <trkpt lat="43.73837" lon="7.0839">
        <ele>602.40002441406</ele>
        <time>2021-03-04T08:28:36.000Z</time>
      </trkpt>
      <trkpt lat="43.73846" lon="7.08393">
        <ele>602.79998779297</ele>
        <time>2021-03-04T08:28:39.000Z</time>
      </trkpt>
      <trkpt lat="43.73848" lon="7.08392">
        <ele>603.40002441406</ele>
        <time>2021-03-04T08:28:41.000Z</time>
      </trkpt>
      <trkpt lat="43.7385" lon="7.08392">
        <ele>603.79998779297</ele>
        <time>2021-03-04T08:28:42.000Z</time>
      </trkpt>
      <trkpt lat="43.73851" lon="7.08392">
        <ele>604.20001220703</ele>
        <time>2021-03-04T08:28:43.000Z</time>
      </trkpt>
      <trkpt lat="43.73854" lon="7.08392">
        <ele>605</ele>
        <time>2021-03-04T08:28:45.000Z</time>
      </trkpt>
      <trkpt lat="43.73863" lon="7.08389">
        <ele>605.40002441406</ele>
        <time>2021-03-04T08:28:49.000Z</time>
      </trkpt>
      <trkpt lat="43.73873" lon="7.08386">
        <ele>606.20001220703</ele>
        <time>2021-03-04T08:28:53.000Z</time>
      </trkpt>
      <trkpt lat="43.73878" lon="7.08386">
        <ele>607.59997558594</ele>
        <time>2021-03-04T08:28:57.000Z</time>
      </trkpt>
      <trkpt lat="43.73878" lon="7.08387">
        <ele>608</ele>
        <time>2021-03-04T08:28:58.000Z</time>
      </trkpt>
      <trkpt lat="43.73882" lon="7.08383">
        <ele>608.40002441406</ele>
        <time>2021-03-04T08:29:02.000Z</time>
      </trkpt>
      <trkpt lat="43.73889" lon="7.08381">
        <ele>608.59997558594</ele>
        <time>2021-03-04T08:29:05.000Z</time>
      </trkpt>
      <trkpt lat="43.73894" lon="7.08379">
        <ele>609.20001220703</ele>
        <time>2021-03-04T08:29:07.000Z</time>
      </trkpt>
      <trkpt lat="43.73901" lon="7.08374">
        <ele>609.79998779297</ele>
        <time>2021-03-04T08:29:10.000Z</time>
      </trkpt>
      <trkpt lat="43.73905" lon="7.0837">
        <ele>610.20001220703</ele>
        <time>2021-03-04T08:29:12.000Z</time>
      </trkpt>
      <trkpt lat="43.7391" lon="7.08367">
        <ele>610.79998779297</ele>
        <time>2021-03-04T08:29:14.000Z</time>
      </trkpt>
      <trkpt lat="43.73918" lon="7.0836">
        <ele>611.20001220703</ele>
        <time>2021-03-04T08:29:18.000Z</time>
      </trkpt>
      <trkpt lat="43.73927" lon="7.08358">
        <ele>611.79998779297</ele>
        <time>2021-03-04T08:29:21.000Z</time>
      </trkpt>
      <trkpt lat="43.73929" lon="7.0836">
        <ele>612.20001220703</ele>
        <time>2021-03-04T08:29:22.000Z</time>
      </trkpt>
      <trkpt lat="43.73931" lon="7.08361">
        <ele>612.20001220703</ele>
        <time>2021-03-04T08:29:23.000Z</time>
      </trkpt>
      <trkpt lat="43.73931" lon="7.0836">
        <ele>612.20001220703</ele>
        <time>2021-03-04T08:29:24.000Z</time>
      </trkpt>
      <trkpt lat="43.73936" lon="7.0836">
        <ele>613.20001220703</ele>
        <time>2021-03-04T08:29:27.000Z</time>
      </trkpt>
      <trkpt lat="43.73939" lon="7.08357">
        <ele>614.20001220703</ele>
        <time>2021-03-04T08:29:30.000Z</time>
      </trkpt>
      <trkpt lat="43.73941" lon="7.08356">
        <ele>614.59997558594</ele>
        <time>2021-03-04T08:29:31.000Z</time>
      </trkpt>
      <trkpt lat="43.73951" lon="7.08352">
        <ele>615</ele>
        <time>2021-03-04T08:29:36.000Z</time>
      </trkpt>
      <trkpt lat="43.73958" lon="7.08344">
        <ele>615.40002441406</ele>
        <time>2021-03-04T08:29:39.000Z</time>
      </trkpt>
      <trkpt lat="43.73961" lon="7.08343">
        <ele>615.40002441406</ele>
        <time>2021-03-04T08:29:40.000Z</time>
      </trkpt>
      <trkpt lat="43.73969" lon="7.08341">
        <ele>614.59997558594</ele>
        <time>2021-03-04T08:29:43.000Z</time>
      </trkpt>
      <trkpt lat="43.73971" lon="7.0834">
        <ele>614.40002441406</ele>
        <time>2021-03-04T08:29:45.000Z</time>
      </trkpt>
      <trkpt lat="43.73972" lon="7.08339">
        <ele>614.59997558594</ele>
        <time>2021-03-04T08:29:47.000Z</time>
      </trkpt>
      <trkpt lat="43.73974" lon="7.08335">
        <ele>614.59997558594</ele>
        <time>2021-03-04T08:29:49.000Z</time>
      </trkpt>
      <trkpt lat="43.73979" lon="7.08326">
        <ele>614.59997558594</ele>
        <time>2021-03-04T08:29:52.000Z</time>
      </trkpt>
      <trkpt lat="43.73982" lon="7.08319">
        <ele>614.40002441406</ele>
        <time>2021-03-04T08:29:54.000Z</time>
      </trkpt>
      <trkpt lat="43.73993" lon="7.08301">
        <ele>615</ele>
        <time>2021-03-04T08:30:00.000Z</time>
      </trkpt>
      <trkpt lat="43.74012" lon="7.08285">
        <ele>615.79998779297</ele>
        <time>2021-03-04T08:30:07.000Z</time>
      </trkpt>
      <trkpt lat="43.74018" lon="7.08278">
        <ele>616.59997558594</ele>
        <time>2021-03-04T08:30:10.000Z</time>
      </trkpt>
      <trkpt lat="43.74022" lon="7.08274">
        <ele>617.40002441406</ele>
        <time>2021-03-04T08:30:12.000Z</time>
      </trkpt>
      <trkpt lat="43.74025" lon="7.08272">
        <ele>617.79998779297</ele>
        <time>2021-03-04T08:30:13.000Z</time>
      </trkpt>
      <trkpt lat="43.74028" lon="7.08269">
        <ele>619</ele>
        <time>2021-03-04T08:30:16.000Z</time>
      </trkpt>
      <trkpt lat="43.74029" lon="7.08268">
        <ele>619.40002441406</ele>
        <time>2021-03-04T08:30:17.000Z</time>
      </trkpt>
      <trkpt lat="43.74033" lon="7.08261">
        <ele>620.20001220703</ele>
        <time>2021-03-04T08:30:20.000Z</time>
      </trkpt>
      <trkpt lat="43.74037" lon="7.08256">
        <ele>620.59997558594</ele>
        <time>2021-03-04T08:30:22.000Z</time>
      </trkpt>
      <trkpt lat="43.74049" lon="7.08245">
        <ele>621.40002441406</ele>
        <time>2021-03-04T08:30:27.000Z</time>
      </trkpt>
      <trkpt lat="43.74054" lon="7.0824">
        <ele>622.40002441406</ele>
        <time>2021-03-04T08:30:30.000Z</time>
      </trkpt>
      <trkpt lat="43.74057" lon="7.08238">
        <ele>622.79998779297</ele>
        <time>2021-03-04T08:30:31.000Z</time>
      </trkpt>
      <trkpt lat="43.74062" lon="7.08231">
        <ele>623.79998779297</ele>
        <time>2021-03-04T08:30:34.000Z</time>
      </trkpt>
      <trkpt lat="43.74068" lon="7.08225">
        <ele>624.59997558594</ele>
        <time>2021-03-04T08:30:37.000Z</time>
      </trkpt>
      <trkpt lat="43.7407" lon="7.08223">
        <ele>625</ele>
        <time>2021-03-04T08:30:38.000Z</time>
      </trkpt>
      <trkpt lat="43.74081" lon="7.08216">
        <ele>625.79998779297</ele>
        <time>2021-03-04T08:30:43.000Z</time>
      </trkpt>
      <trkpt lat="43.74083" lon="7.08214">
        <ele>626</ele>
        <time>2021-03-04T08:30:44.000Z</time>
      </trkpt>
      <trkpt lat="43.74092" lon="7.08204">
        <ele>627.40002441406</ele>
        <time>2021-03-04T08:30:48.000Z</time>
      </trkpt>
      <trkpt lat="43.74093" lon="7.08201">
        <ele>627.59997558594</ele>
        <time>2021-03-04T08:30:49.000Z</time>
      </trkpt>
      <trkpt lat="43.74101" lon="7.0819">
        <ele>628.40002441406</ele>
        <time>2021-03-04T08:30:53.000Z</time>
      </trkpt>
      <trkpt lat="43.74107" lon="7.08182">
        <ele>628.79998779297</ele>
        <time>2021-03-04T08:30:56.000Z</time>
      </trkpt>
      <trkpt lat="43.74116" lon="7.08166">
        <ele>629.40002441406</ele>
        <time>2021-03-04T08:31:02.000Z</time>
      </trkpt>
      <trkpt lat="43.7412" lon="7.0816">
        <ele>630</ele>
        <time>2021-03-04T08:31:04.000Z</time>
      </trkpt>
      <trkpt lat="43.74124" lon="7.08155">
        <ele>630.59997558594</ele>
        <time>2021-03-04T08:31:06.000Z</time>
      </trkpt>
      <trkpt lat="43.74133" lon="7.08149">
        <ele>631.20001220703</ele>
        <time>2021-03-04T08:31:10.000Z</time>
      </trkpt>
      <trkpt lat="43.74141" lon="7.08148">
        <ele>631.59997558594</ele>
        <time>2021-03-04T08:31:13.000Z</time>
      </trkpt>
      <trkpt lat="43.74148" lon="7.08148">
        <ele>632.20001220703</ele>
        <time>2021-03-04T08:31:16.000Z</time>
      </trkpt>
      <trkpt lat="43.74156" lon="7.08145">
        <ele>632.79998779297</ele>
        <time>2021-03-04T08:31:19.000Z</time>
      </trkpt>
      <trkpt lat="43.7416" lon="7.08139">
        <ele>633.20001220703</ele>
        <time>2021-03-04T08:31:21.000Z</time>
      </trkpt>
      <trkpt lat="43.74167" lon="7.0813">
        <ele>633.79998779297</ele>
        <time>2021-03-04T08:31:25.000Z</time>
      </trkpt>
      <trkpt lat="43.74168" lon="7.08128">
        <ele>634</ele>
        <time>2021-03-04T08:31:26.000Z</time>
      </trkpt>
      <trkpt lat="43.74173" lon="7.08123">
        <ele>635.20001220703</ele>
        <time>2021-03-04T08:31:29.000Z</time>
      </trkpt>
      <trkpt lat="43.74176" lon="7.08119">
        <ele>635.79998779297</ele>
        <time>2021-03-04T08:31:31.000Z</time>
      </trkpt>
      <trkpt lat="43.74178" lon="7.08113">
        <ele>636.20001220703</ele>
        <time>2021-03-04T08:31:33.000Z</time>
      </trkpt>
      <trkpt lat="43.74179" lon="7.08109">
        <ele>636.20001220703</ele>
        <time>2021-03-04T08:31:34.000Z</time>
      </trkpt>
      <trkpt lat="43.74181" lon="7.08104">
        <ele>636.20001220703</ele>
        <time>2021-03-04T08:31:35.000Z</time>
      </trkpt>
      <trkpt lat="43.7419" lon="7.08098">
        <ele>635.40002441406</ele>
        <time>2021-03-04T08:31:39.000Z</time>
      </trkpt>
      <trkpt lat="43.74192" lon="7.08097">
        <ele>635.20001220703</ele>
        <time>2021-03-04T08:31:40.000Z</time>
      </trkpt>
      <trkpt lat="43.74193" lon="7.08096">
        <ele>635.79998779297</ele>
        <time>2021-03-04T08:31:44.000Z</time>
      </trkpt>
      <trkpt lat="43.74193" lon="7.08096">
        <ele>636.20001220703</ele>
        <time>2021-03-04T08:31:47.000Z</time>
      </trkpt>
      <trkpt lat="43.74193" lon="7.08095">
        <ele>636</ele>
        <time>2021-03-04T08:31:52.000Z</time>
      </trkpt>
      <trkpt lat="43.74198" lon="7.08093">
        <ele>635.59997558594</ele>
        <time>2021-03-04T08:31:58.000Z</time>
      </trkpt>
      <trkpt lat="43.74207" lon="7.08083">
        <ele>637.20001220703</ele>
        <time>2021-03-04T08:32:03.000Z</time>
      </trkpt>
      <trkpt lat="43.74209" lon="7.08083">
        <ele>637.79998779297</ele>
        <time>2021-03-04T08:32:04.000Z</time>
      </trkpt>
      <trkpt lat="43.74213" lon="7.08079">
        <ele>638.59997558594</ele>
        <time>2021-03-04T08:32:06.000Z</time>
      </trkpt>
      <trkpt lat="43.74218" lon="7.08076">
        <ele>639.20001220703</ele>
        <time>2021-03-04T08:32:08.000Z</time>
      </trkpt>
      <trkpt lat="43.74222" lon="7.08074">
        <ele>640</ele>
        <time>2021-03-04T08:32:10.000Z</time>
      </trkpt>
      <trkpt lat="43.74227" lon="7.08072">
        <ele>641.20001220703</ele>
        <time>2021-03-04T08:32:12.000Z</time>
      </trkpt>
      <trkpt lat="43.74229" lon="7.08071">
        <ele>642.20001220703</ele>
        <time>2021-03-04T08:32:13.000Z</time>
      </trkpt>
      <trkpt lat="43.74232" lon="7.0807">
        <ele>642.79998779297</ele>
        <time>2021-03-04T08:32:14.000Z</time>
      </trkpt>
      <trkpt lat="43.74237" lon="7.08068">
        <ele>643.79998779297</ele>
        <time>2021-03-04T08:32:16.000Z</time>
      </trkpt>
      <trkpt lat="43.74244" lon="7.08064">
        <ele>645</ele>
        <time>2021-03-04T08:32:19.000Z</time>
      </trkpt>
      <trkpt lat="43.74249" lon="7.08063">
        <ele>645.79998779297</ele>
        <time>2021-03-04T08:32:21.000Z</time>
      </trkpt>
      <trkpt lat="43.74251" lon="7.08063">
        <ele>646.20001220703</ele>
        <time>2021-03-04T08:32:22.000Z</time>
      </trkpt>
      <trkpt lat="43.74259" lon="7.0806">
        <ele>647.20001220703</ele>
        <time>2021-03-04T08:32:26.000Z</time>
      </trkpt>
      <trkpt lat="43.74261" lon="7.08059">
        <ele>647.20001220703</ele>
        <time>2021-03-04T08:32:27.000Z</time>
      </trkpt>
      <trkpt lat="43.7427" lon="7.08055">
        <ele>648.40002441406</ele>
        <time>2021-03-04T08:32:31.000Z</time>
      </trkpt>
      <trkpt lat="43.74271" lon="7.08053">
        <ele>649</ele>
        <time>2021-03-04T08:32:32.000Z</time>
      </trkpt>
      <trkpt lat="43.74273" lon="7.08052">
        <ele>649.40002441406</ele>
        <time>2021-03-04T08:32:33.000Z</time>
      </trkpt>
      <trkpt lat="43.74281" lon="7.08046">
        <ele>650.59997558594</ele>
        <time>2021-03-04T08:32:37.000Z</time>
      </trkpt>
      <trkpt lat="43.74283" lon="7.08045">
        <ele>650.79998779297</ele>
        <time>2021-03-04T08:32:38.000Z</time>
      </trkpt>
      <trkpt lat="43.74288" lon="7.08039">
        <ele>651.59997558594</ele>
        <time>2021-03-04T08:32:41.000Z</time>
      </trkpt>
      <trkpt lat="43.7429" lon="7.08038">
        <ele>651.79998779297</ele>
        <time>2021-03-04T08:32:42.000Z</time>
      </trkpt>
      <trkpt lat="43.74299" lon="7.08032">
        <ele>652.79998779297</ele>
        <time>2021-03-04T08:32:47.000Z</time>
      </trkpt>
      <trkpt lat="43.74306" lon="7.08024">
        <ele>654</ele>
        <time>2021-03-04T08:32:51.000Z</time>
      </trkpt>
      <trkpt lat="43.74312" lon="7.08017">
        <ele>655</ele>
        <time>2021-03-04T08:32:54.000Z</time>
      </trkpt>
      <trkpt lat="43.74314" lon="7.08015">
        <ele>655.40002441406</ele>
        <time>2021-03-04T08:32:55.000Z</time>
      </trkpt>
      <trkpt lat="43.74317" lon="7.08011">
        <ele>656.79998779297</ele>
        <time>2021-03-04T08:32:57.000Z</time>
      </trkpt>
      <trkpt lat="43.7432" lon="7.08006">
        <ele>657.79998779297</ele>
        <time>2021-03-04T08:32:59.000Z</time>
      </trkpt>
      <trkpt lat="43.74321" lon="7.08003">
        <ele>658.59997558594</ele>
        <time>2021-03-04T08:33:00.000Z</time>
      </trkpt>
      <trkpt lat="43.74322" lon="7.08001">
        <ele>659</ele>
        <time>2021-03-04T08:33:01.000Z</time>
      </trkpt>
      <trkpt lat="43.74324" lon="7.07998">
        <ele>660.59997558594</ele>
        <time>2021-03-04T08:33:04.000Z</time>
      </trkpt>
      <trkpt lat="43.74328" lon="7.07996">
        <ele>661.59997558594</ele>
        <time>2021-03-04T08:33:06.000Z</time>
      </trkpt>
      <trkpt lat="43.74334" lon="7.07995">
        <ele>662.79998779297</ele>
        <time>2021-03-04T08:33:09.000Z</time>
      </trkpt>
      <trkpt lat="43.74335" lon="7.07995">
        <ele>664</ele>
        <time>2021-03-04T08:33:11.000Z</time>
      </trkpt>
      <trkpt lat="43.74335" lon="7.07994">
        <ele>664.79998779297</ele>
        <time>2021-03-04T08:33:13.000Z</time>
      </trkpt>
      <trkpt lat="43.74335" lon="7.07994">
        <ele>665.20001220703</ele>
        <time>2021-03-04T08:33:14.000Z</time>
      </trkpt>
      <trkpt lat="43.74336" lon="7.07994">
        <ele>665.20001220703</ele>
        <time>2021-03-04T08:33:19.000Z</time>
      </trkpt>
      <trkpt lat="43.74339" lon="7.07994">
        <ele>665.20001220703</ele>
        <time>2021-03-04T08:33:26.000Z</time>
      </trkpt>
      <trkpt lat="43.7434" lon="7.07995">
        <ele>666</ele>
        <time>2021-03-04T08:33:32.000Z</time>
      </trkpt>
      <trkpt lat="43.74341" lon="7.07995">
        <ele>666.20001220703</ele>
        <time>2021-03-04T08:33:35.000Z</time>
      </trkpt>
      <trkpt lat="43.74344" lon="7.07995">
        <ele>666.79998779297</ele>
        <time>2021-03-04T08:33:40.000Z</time>
      </trkpt>
      <trkpt lat="43.74345" lon="7.07994">
        <ele>667.20001220703</ele>
        <time>2021-03-04T08:33:42.000Z</time>
      </trkpt>
      <trkpt lat="43.74346" lon="7.07995">
        <ele>668</ele>
        <time>2021-03-04T08:33:48.000Z</time>
      </trkpt>
      <trkpt lat="43.74348" lon="7.07995">
        <ele>668</ele>
        <time>2021-03-04T08:33:56.000Z</time>
      </trkpt>
      <trkpt lat="43.74349" lon="7.07995">
        <ele>668.40002441406</ele>
        <time>2021-03-04T08:33:59.000Z</time>
      </trkpt>
      <trkpt lat="43.74351" lon="7.07996">
        <ele>669.20001220703</ele>
        <time>2021-03-04T08:34:04.000Z</time>
      </trkpt>
      <trkpt lat="43.74352" lon="7.07996">
        <ele>669.59997558594</ele>
        <time>2021-03-04T08:34:06.000Z</time>
      </trkpt>
      <trkpt lat="43.74352" lon="7.07992">
        <ele>670.20001220703</ele>
        <time>2021-03-04T08:34:10.000Z</time>
      </trkpt>
      <trkpt lat="43.74353" lon="7.0799">
        <ele>670.59997558594</ele>
        <time>2021-03-04T08:34:14.000Z</time>
      </trkpt>
      <trkpt lat="43.74353" lon="7.0799">
        <ele>671</ele>
        <time>2021-03-04T08:34:17.000Z</time>
      </trkpt>
      <trkpt lat="43.74358" lon="7.07986">
        <ele>671.20001220703</ele>
        <time>2021-03-04T08:34:22.000Z</time>
      </trkpt>
      <trkpt lat="43.74364" lon="7.07983">
        <ele>671.79998779297</ele>
        <time>2021-03-04T08:34:26.000Z</time>
      </trkpt>
      <trkpt lat="43.74365" lon="7.07983">
        <ele>672.40002441406</ele>
        <time>2021-03-04T08:34:27.000Z</time>
      </trkpt>
      <trkpt lat="43.74368" lon="7.07985">
        <ele>673.40002441406</ele>
        <time>2021-03-04T08:34:29.000Z</time>
      </trkpt>
      <trkpt lat="43.74372" lon="7.07986">
        <ele>674.40002441406</ele>
        <time>2021-03-04T08:34:32.000Z</time>
      </trkpt>
      <trkpt lat="43.74379" lon="7.07984">
        <ele>675.40002441406</ele>
        <time>2021-03-04T08:34:35.000Z</time>
      </trkpt>
      <trkpt lat="43.74383" lon="7.07983">
        <ele>676.59997558594</ele>
        <time>2021-03-04T08:34:37.000Z</time>
      </trkpt>
      <trkpt lat="43.74386" lon="7.07982">
        <ele>678</ele>
        <time>2021-03-04T08:34:39.000Z</time>
      </trkpt>
      <trkpt lat="43.74388" lon="7.07983">
        <ele>678.59997558594</ele>
        <time>2021-03-04T08:34:40.000Z</time>
      </trkpt>
      <trkpt lat="43.74389" lon="7.07986">
        <ele>679.20001220703</ele>
        <time>2021-03-04T08:34:41.000Z</time>
      </trkpt>
      <trkpt lat="43.74389" lon="7.07988">
        <ele>679.79998779297</ele>
        <time>2021-03-04T08:34:42.000Z</time>
      </trkpt>
      <trkpt lat="43.74389" lon="7.07988">
        <ele>680.40002441406</ele>
        <time>2021-03-04T08:34:43.000Z</time>
      </trkpt>
      <trkpt lat="43.74389" lon="7.0799">
        <ele>681.79998779297</ele>
        <time>2021-03-04T08:34:47.000Z</time>
      </trkpt>
      <trkpt lat="43.7439" lon="7.0799">
        <ele>682.79998779297</ele>
        <time>2021-03-04T08:34:53.000Z</time>
      </trkpt>
      <trkpt lat="43.74393" lon="7.07996">
        <ele>682.79998779297</ele>
        <time>2021-03-04T08:34:57.000Z</time>
      </trkpt>
      <trkpt lat="43.74394" lon="7.07997">
        <ele>683.20001220703</ele>
        <time>2021-03-04T08:34:59.000Z</time>
      </trkpt>
      <trkpt lat="43.74394" lon="7.07997">
        <ele>684</ele>
        <time>2021-03-04T08:35:02.000Z</time>
      </trkpt>
      <trkpt lat="43.74394" lon="7.07997">
        <ele>684.20001220703</ele>
        <time>2021-03-04T08:35:03.000Z</time>
      </trkpt>
      <trkpt lat="43.74394" lon="7.07997">
        <ele>684.40002441406</ele>
        <time>2021-03-04T08:35:09.000Z</time>
      </trkpt>
      <trkpt lat="43.74395" lon="7.07998">
        <ele>684.59997558594</ele>
        <time>2021-03-04T08:35:16.000Z</time>
      </trkpt>
      <trkpt lat="43.74397" lon="7.08001">
        <ele>685.40002441406</ele>
        <time>2021-03-04T08:35:22.000Z</time>
      </trkpt>
      <trkpt lat="43.74398" lon="7.08001">
        <ele>685.40002441406</ele>
        <time>2021-03-04T08:35:23.000Z</time>
      </trkpt>
      <trkpt lat="43.74398" lon="7.08002">
        <ele>686.40002441406</ele>
        <time>2021-03-04T08:35:28.000Z</time>
      </trkpt>
      <trkpt lat="43.74398" lon="7.08002">
        <ele>686.40002441406</ele>
        <time>2021-03-04T08:35:31.000Z</time>
      </trkpt>
      <trkpt lat="43.74398" lon="7.08003">
        <ele>686.40002441406</ele>
        <time>2021-03-04T08:35:37.000Z</time>
      </trkpt>
      <trkpt lat="43.74398" lon="7.08003">
        <ele>686.20001220703</ele>
        <time>2021-03-04T08:35:50.000Z</time>
      </trkpt>
      <trkpt lat="43.74399" lon="7.08005">
        <ele>685.79998779297</ele>
        <time>2021-03-04T08:36:03.000Z</time>
      </trkpt>
      <trkpt lat="43.74403" lon="7.08011">
        <ele>686.20001220703</ele>
        <time>2021-03-04T08:36:06.000Z</time>
      </trkpt>
      <trkpt lat="43.74406" lon="7.08011">
        <ele>686.79998779297</ele>
        <time>2021-03-04T08:36:08.000Z</time>
      </trkpt>
      <trkpt lat="43.7441" lon="7.08009">
        <ele>687.79998779297</ele>
        <time>2021-03-04T08:36:10.000Z</time>
      </trkpt>
      <trkpt lat="43.74413" lon="7.08007">
        <ele>689</ele>
        <time>2021-03-04T08:36:12.000Z</time>
      </trkpt>
      <trkpt lat="43.74414" lon="7.08006">
        <ele>689.59997558594</ele>
        <time>2021-03-04T08:36:13.000Z</time>
      </trkpt>
      <trkpt lat="43.74416" lon="7.08004">
        <ele>690.20001220703</ele>
        <time>2021-03-04T08:36:15.000Z</time>
      </trkpt>
      <trkpt lat="43.74418" lon="7.08001">
        <ele>691.20001220703</ele>
        <time>2021-03-04T08:36:18.000Z</time>
      </trkpt>
      <trkpt lat="43.74421" lon="7.07997">
        <ele>691.59997558594</ele>
        <time>2021-03-04T08:36:20.000Z</time>
      </trkpt>
      <trkpt lat="43.74426" lon="7.07995">
        <ele>692.20001220703</ele>
        <time>2021-03-04T08:36:22.000Z</time>
      </trkpt>
      <trkpt lat="43.7443" lon="7.07995">
        <ele>692.79998779297</ele>
        <time>2021-03-04T08:36:24.000Z</time>
      </trkpt>
      <trkpt lat="43.74436" lon="7.07993">
        <ele>694.20001220703</ele>
        <time>2021-03-04T08:36:27.000Z</time>
      </trkpt>
      <trkpt lat="43.74442" lon="7.0799">
        <ele>695.20001220703</ele>
        <time>2021-03-04T08:36:30.000Z</time>
      </trkpt>
      <trkpt lat="43.74446" lon="7.0799">
        <ele>695.79998779297</ele>
        <time>2021-03-04T08:36:32.000Z</time>
      </trkpt>
      <trkpt lat="43.74448" lon="7.07989">
        <ele>696.20001220703</ele>
        <time>2021-03-04T08:36:33.000Z</time>
      </trkpt>
      <trkpt lat="43.74456" lon="7.07984">
        <ele>697.59997558594</ele>
        <time>2021-03-04T08:36:38.000Z</time>
      </trkpt>
      <trkpt lat="43.74459" lon="7.07981">
        <ele>698.59997558594</ele>
        <time>2021-03-04T08:36:40.000Z</time>
      </trkpt>
      <trkpt lat="43.74461" lon="7.07979">
        <ele>699.20001220703</ele>
        <time>2021-03-04T08:36:41.000Z</time>
      </trkpt>
      <trkpt lat="43.74468" lon="7.07972">
        <ele>700.20001220703</ele>
        <time>2021-03-04T08:36:45.000Z</time>
      </trkpt>
      <trkpt lat="43.74474" lon="7.07967">
        <ele>701</ele>
        <time>2021-03-04T08:36:48.000Z</time>
      </trkpt>
      <trkpt lat="43.74477" lon="7.07966">
        <ele>701.40002441406</ele>
        <time>2021-03-04T08:36:49.000Z</time>
      </trkpt>
      <trkpt lat="43.74484" lon="7.07962">
        <ele>702.40002441406</ele>
        <time>2021-03-04T08:36:53.000Z</time>
      </trkpt>
      <trkpt lat="43.74486" lon="7.07961">
        <ele>702.59997558594</ele>
        <time>2021-03-04T08:36:54.000Z</time>
      </trkpt>
      <trkpt lat="43.74492" lon="7.07956">
        <ele>703.20001220703</ele>
        <time>2021-03-04T08:36:59.000Z</time>
      </trkpt>
      <trkpt lat="43.74502" lon="7.07946">
        <ele>703.40002441406</ele>
        <time>2021-03-04T08:37:07.000Z</time>
      </trkpt>
      <trkpt lat="43.74516" lon="7.07933">
        <ele>703.40002441406</ele>
        <time>2021-03-04T08:37:15.000Z</time>
      </trkpt>
      <trkpt lat="43.74518" lon="7.07931">
        <ele>703.59997558594</ele>
        <time>2021-03-04T08:37:16.000Z</time>
      </trkpt>
      <trkpt lat="43.74528" lon="7.07915">
        <ele>703.79998779297</ele>
        <time>2021-03-04T08:37:22.000Z</time>
      </trkpt>
      <trkpt lat="43.74541" lon="7.079">
        <ele>704</ele>
        <time>2021-03-04T08:37:28.000Z</time>
      </trkpt>
      <trkpt lat="43.74546" lon="7.07897">
        <ele>703.59997558594</ele>
        <time>2021-03-04T08:37:30.000Z</time>
      </trkpt>
      <trkpt lat="43.74551" lon="7.07897">
        <ele>703.59997558594</ele>
        <time>2021-03-04T08:37:32.000Z</time>
      </trkpt>
      <trkpt lat="43.74561" lon="7.07887">
        <ele>703.79998779297</ele>
        <time>2021-03-04T08:37:37.000Z</time>
      </trkpt>
      <trkpt lat="43.74574" lon="7.0788">
        <ele>704.59997558594</ele>
        <time>2021-03-04T08:37:42.000Z</time>
      </trkpt>
      <trkpt lat="43.74587" lon="7.0787">
        <ele>705.40002441406</ele>
        <time>2021-03-04T08:37:48.000Z</time>
      </trkpt>
      <trkpt lat="43.74592" lon="7.07872">
        <ele>706</ele>
        <time>2021-03-04T08:37:50.000Z</time>
      </trkpt>
      <trkpt lat="43.74597" lon="7.07874">
        <ele>706.40002441406</ele>
        <time>2021-03-04T08:37:52.000Z</time>
      </trkpt>
      <trkpt lat="43.74604" lon="7.07874">
        <ele>707</ele>
        <time>2021-03-04T08:37:55.000Z</time>
      </trkpt>
      <trkpt lat="43.74609" lon="7.07873">
        <ele>707.20001220703</ele>
        <time>2021-03-04T08:37:57.000Z</time>
      </trkpt>
      <trkpt lat="43.74613" lon="7.0787">
        <ele>708</ele>
        <time>2021-03-04T08:37:59.000Z</time>
      </trkpt>
      <trkpt lat="43.74621" lon="7.07869">
        <ele>709</ele>
        <time>2021-03-04T08:38:02.000Z</time>
      </trkpt>
      <trkpt lat="43.74627" lon="7.07868">
        <ele>709.40002441406</ele>
        <time>2021-03-04T08:38:04.000Z</time>
      </trkpt>
      <trkpt lat="43.74633" lon="7.07862">
        <ele>710.20001220703</ele>
        <time>2021-03-04T08:38:07.000Z</time>
      </trkpt>
      <trkpt lat="43.74637" lon="7.07858">
        <ele>711</ele>
        <time>2021-03-04T08:38:09.000Z</time>
      </trkpt>
      <trkpt lat="43.74643" lon="7.07855">
        <ele>711.40002441406</ele>
        <time>2021-03-04T08:38:11.000Z</time>
      </trkpt>
      <trkpt lat="43.74652" lon="7.07849">
        <ele>712</ele>
        <time>2021-03-04T08:38:15.000Z</time>
      </trkpt>
      <trkpt lat="43.7466" lon="7.07846">
        <ele>712.59997558594</ele>
        <time>2021-03-04T08:38:18.000Z</time>
      </trkpt>
      <trkpt lat="43.74665" lon="7.07846">
        <ele>713.20001220703</ele>
        <time>2021-03-04T08:38:20.000Z</time>
      </trkpt>
      <trkpt lat="43.74667" lon="7.07845">
        <ele>713.59997558594</ele>
        <time>2021-03-04T08:38:21.000Z</time>
      </trkpt>
      <trkpt lat="43.74678" lon="7.07843">
        <ele>714.79998779297</ele>
        <time>2021-03-04T08:38:25.000Z</time>
      </trkpt>
      <trkpt lat="43.74681" lon="7.07843">
        <ele>715</ele>
        <time>2021-03-04T08:38:26.000Z</time>
      </trkpt>
      <trkpt lat="43.74688" lon="7.07842">
        <ele>715.79998779297</ele>
        <time>2021-03-04T08:38:29.000Z</time>
      </trkpt>
      <trkpt lat="43.74696" lon="7.07842">
        <ele>716.59997558594</ele>
        <time>2021-03-04T08:38:32.000Z</time>
      </trkpt>
      <trkpt lat="43.74698" lon="7.07842">
        <ele>717</ele>
        <time>2021-03-04T08:38:33.000Z</time>
      </trkpt>
      <trkpt lat="43.74704" lon="7.07842">
        <ele>718.20001220703</ele>
        <time>2021-03-04T08:38:36.000Z</time>
      </trkpt>
      <trkpt lat="43.7471" lon="7.07841">
        <ele>719.40002441406</ele>
        <time>2021-03-04T08:38:39.000Z</time>
      </trkpt>
      <trkpt lat="43.74721" lon="7.07842">
        <ele>720.20001220703</ele>
        <time>2021-03-04T08:38:44.000Z</time>
      </trkpt>
      <trkpt lat="43.74724" lon="7.07842">
        <ele>720.40002441406</ele>
        <time>2021-03-04T08:38:45.000Z</time>
      </trkpt>
      <trkpt lat="43.74745" lon="7.07844">
        <ele>721.59997558594</ele>
        <time>2021-03-04T08:38:53.000Z</time>
      </trkpt>
      <trkpt lat="43.74747" lon="7.07844">
        <ele>721.79998779297</ele>
        <time>2021-03-04T08:38:54.000Z</time>
      </trkpt>
      <trkpt lat="43.74762" lon="7.07846">
        <ele>722.79998779297</ele>
        <time>2021-03-04T08:39:00.000Z</time>
      </trkpt>
      <trkpt lat="43.74767" lon="7.07847">
        <ele>723</ele>
        <time>2021-03-04T08:39:02.000Z</time>
      </trkpt>
      <trkpt lat="43.74779" lon="7.07847">
        <ele>724</ele>
        <time>2021-03-04T08:39:07.000Z</time>
      </trkpt>
      <trkpt lat="43.74784" lon="7.07848">
        <ele>724.40002441406</ele>
        <time>2021-03-04T08:39:09.000Z</time>
      </trkpt>
      <trkpt lat="43.74794" lon="7.07849">
        <ele>725</ele>
        <time>2021-03-04T08:39:13.000Z</time>
      </trkpt>
      <trkpt lat="43.74803" lon="7.0785">
        <ele>725.59997558594</ele>
        <time>2021-03-04T08:39:17.000Z</time>
      </trkpt>
      <trkpt lat="43.74808" lon="7.07852">
        <ele>726</ele>
        <time>2021-03-04T08:39:19.000Z</time>
      </trkpt>
      <trkpt lat="43.74817" lon="7.07855">
        <ele>727</ele>
        <time>2021-03-04T08:39:23.000Z</time>
      </trkpt>
      <trkpt lat="43.74819" lon="7.07854">
        <ele>727.20001220703</ele>
        <time>2021-03-04T08:39:24.000Z</time>
      </trkpt>
      <trkpt lat="43.74829" lon="7.07851">
        <ele>728.40002441406</ele>
        <time>2021-03-04T08:39:28.000Z</time>
      </trkpt>
      <trkpt lat="43.74835" lon="7.07846">
        <ele>729.40002441406</ele>
        <time>2021-03-04T08:39:31.000Z</time>
      </trkpt>
      <trkpt lat="43.74837" lon="7.07844">
        <ele>729.59997558594</ele>
        <time>2021-03-04T08:39:32.000Z</time>
      </trkpt>
      <trkpt lat="43.74846" lon="7.07836">
        <ele>730.79998779297</ele>
        <time>2021-03-04T08:39:36.000Z</time>
      </trkpt>
      <trkpt lat="43.7485" lon="7.07832">
        <ele>731</ele>
        <time>2021-03-04T08:39:38.000Z</time>
      </trkpt>
      <trkpt lat="43.74859" lon="7.07826">
        <ele>731.79998779297</ele>
        <time>2021-03-04T08:39:42.000Z</time>
      </trkpt>
      <trkpt lat="43.74866" lon="7.07822">
        <ele>732.59997558594</ele>
        <time>2021-03-04T08:39:45.000Z</time>
      </trkpt>
      <trkpt lat="43.74871" lon="7.0782">
        <ele>733</ele>
        <time>2021-03-04T08:39:47.000Z</time>
      </trkpt>
      <trkpt lat="43.74878" lon="7.07816">
        <ele>733.40002441406</ele>
        <time>2021-03-04T08:39:50.000Z</time>
      </trkpt>
      <trkpt lat="43.7489" lon="7.07809">
        <ele>734.20001220703</ele>
        <time>2021-03-04T08:39:54.000Z</time>
      </trkpt>
      <trkpt lat="43.74897" lon="7.07806">
        <ele>734.40002441406</ele>
        <time>2021-03-04T08:39:56.000Z</time>
      </trkpt>
      <trkpt lat="43.74915" lon="7.07796">
        <ele>735.20001220703</ele>
        <time>2021-03-04T08:40:02.000Z</time>
      </trkpt>
      <trkpt lat="43.74917" lon="7.07795">
        <ele>735.40002441406</ele>
        <time>2021-03-04T08:40:03.000Z</time>
      </trkpt>
      <trkpt lat="43.74928" lon="7.0779">
        <ele>736.40002441406</ele>
        <time>2021-03-04T08:40:07.000Z</time>
      </trkpt>
      <trkpt lat="43.74934" lon="7.07788">
        <ele>736.59997558594</ele>
        <time>2021-03-04T08:40:09.000Z</time>
      </trkpt>
      <trkpt lat="43.7495" lon="7.07781">
        <ele>737.40002441406</ele>
        <time>2021-03-04T08:40:15.000Z</time>
      </trkpt>
      <trkpt lat="43.74964" lon="7.07775">
        <ele>738.59997558594</ele>
        <time>2021-03-04T08:40:20.000Z</time>
      </trkpt>
      <trkpt lat="43.74967" lon="7.07774">
        <ele>739</ele>
        <time>2021-03-04T08:40:21.000Z</time>
      </trkpt>
      <trkpt lat="43.74973" lon="7.07775">
        <ele>739.59997558594</ele>
        <time>2021-03-04T08:40:23.000Z</time>
      </trkpt>
      <trkpt lat="43.7498" lon="7.07777">
        <ele>740.59997558594</ele>
        <time>2021-03-04T08:40:26.000Z</time>
      </trkpt>
      <trkpt lat="43.74983" lon="7.07778">
        <ele>741</ele>
        <time>2021-03-04T08:40:27.000Z</time>
      </trkpt>
      <trkpt lat="43.74992" lon="7.07781">
        <ele>742.59997558594</ele>
        <time>2021-03-04T08:40:31.000Z</time>
      </trkpt>
      <trkpt lat="43.74994" lon="7.07782">
        <ele>742.79998779297</ele>
        <time>2021-03-04T08:40:32.000Z</time>
      </trkpt>
      <trkpt lat="43.74999" lon="7.07783">
        <ele>743.79998779297</ele>
        <time>2021-03-04T08:40:34.000Z</time>
      </trkpt>
      <trkpt lat="43.75008" lon="7.07784">
        <ele>744.59997558594</ele>
        <time>2021-03-04T08:40:37.000Z</time>
      </trkpt>
      <trkpt lat="43.75011" lon="7.07785">
        <ele>745</ele>
        <time>2021-03-04T08:40:38.000Z</time>
      </trkpt>
      <trkpt lat="43.75019" lon="7.07788">
        <ele>746</ele>
        <time>2021-03-04T08:40:41.000Z</time>
      </trkpt>
      <trkpt lat="43.75028" lon="7.07791">
        <ele>747</ele>
        <time>2021-03-04T08:40:44.000Z</time>
      </trkpt>
      <trkpt lat="43.75035" lon="7.07794">
        <ele>748.40002441406</ele>
        <time>2021-03-04T08:40:47.000Z</time>
      </trkpt>
      <trkpt lat="43.75043" lon="7.07795">
        <ele>749.40002441406</ele>
        <time>2021-03-04T08:40:50.000Z</time>
      </trkpt>
      <trkpt lat="43.75059" lon="7.07793">
        <ele>750.40002441406</ele>
        <time>2021-03-04T08:40:56.000Z</time>
      </trkpt>
      <trkpt lat="43.75072" lon="7.07787">
        <ele>751.59997558594</ele>
        <time>2021-03-04T08:41:01.000Z</time>
      </trkpt>
      <trkpt lat="43.75082" lon="7.07783">
        <ele>752.79998779297</ele>
        <time>2021-03-04T08:41:05.000Z</time>
      </trkpt>
      <trkpt lat="43.75091" lon="7.07784">
        <ele>754</ele>
        <time>2021-03-04T08:41:09.000Z</time>
      </trkpt>
      <trkpt lat="43.75096" lon="7.07785">
        <ele>754.40002441406</ele>
        <time>2021-03-04T08:41:11.000Z</time>
      </trkpt>
      <trkpt lat="43.75105" lon="7.07789">
        <ele>755.20001220703</ele>
        <time>2021-03-04T08:41:15.000Z</time>
      </trkpt>
      <trkpt lat="43.75107" lon="7.07791">
        <ele>755.59997558594</ele>
        <time>2021-03-04T08:41:16.000Z</time>
      </trkpt>
      <trkpt lat="43.7511" lon="7.07795">
        <ele>756.79998779297</ele>
        <time>2021-03-04T08:41:18.000Z</time>
      </trkpt>
      <trkpt lat="43.75114" lon="7.07799">
        <ele>758.20001220703</ele>
        <time>2021-03-04T08:41:20.000Z</time>
      </trkpt>
      <trkpt lat="43.75116" lon="7.07799">
        <ele>758.40002441406</ele>
        <time>2021-03-04T08:41:21.000Z</time>
      </trkpt>
      <trkpt lat="43.7512" lon="7.078">
        <ele>759</ele>
        <time>2021-03-04T08:41:23.000Z</time>
      </trkpt>
      <trkpt lat="43.75123" lon="7.07801">
        <ele>759.59997558594</ele>
        <time>2021-03-04T08:41:24.000Z</time>
      </trkpt>
      <trkpt lat="43.75125" lon="7.07802">
        <ele>759.79998779297</ele>
        <time>2021-03-04T08:41:25.000Z</time>
      </trkpt>
      <trkpt lat="43.75129" lon="7.07803">
        <ele>760.79998779297</ele>
        <time>2021-03-04T08:41:27.000Z</time>
      </trkpt>
      <trkpt lat="43.75139" lon="7.07806">
        <ele>761.79998779297</ele>
        <time>2021-03-04T08:41:32.000Z</time>
      </trkpt>
      <trkpt lat="43.75145" lon="7.07808">
        <ele>763.20001220703</ele>
        <time>2021-03-04T08:41:35.000Z</time>
      </trkpt>
      <trkpt lat="43.7515" lon="7.07809">
        <ele>764.20001220703</ele>
        <time>2021-03-04T08:41:37.000Z</time>
      </trkpt>
      <trkpt lat="43.75152" lon="7.07809">
        <ele>764.59997558594</ele>
        <time>2021-03-04T08:41:38.000Z</time>
      </trkpt>
      <trkpt lat="43.75161" lon="7.07812">
        <ele>765.59997558594</ele>
        <time>2021-03-04T08:41:42.000Z</time>
      </trkpt>
      <trkpt lat="43.75165" lon="7.07814">
        <ele>766.20001220703</ele>
        <time>2021-03-04T08:41:44.000Z</time>
      </trkpt>
      <trkpt lat="43.75173" lon="7.07816">
        <ele>766.79998779297</ele>
        <time>2021-03-04T08:41:47.000Z</time>
      </trkpt>
      <trkpt lat="43.7518" lon="7.07817">
        <ele>768</ele>
        <time>2021-03-04T08:41:50.000Z</time>
      </trkpt>
      <trkpt lat="43.75182" lon="7.07818">
        <ele>768.40002441406</ele>
        <time>2021-03-04T08:41:51.000Z</time>
      </trkpt>
      <trkpt lat="43.75186" lon="7.07819">
        <ele>769.59997558594</ele>
        <time>2021-03-04T08:41:53.000Z</time>
      </trkpt>
      <trkpt lat="43.7519" lon="7.0782">
        <ele>770.59997558594</ele>
        <time>2021-03-04T08:41:55.000Z</time>
      </trkpt>
      <trkpt lat="43.75194" lon="7.07821">
        <ele>771.59997558594</ele>
        <time>2021-03-04T08:41:57.000Z</time>
      </trkpt>
      <trkpt lat="43.75196" lon="7.07821">
        <ele>772.20001220703</ele>
        <time>2021-03-04T08:41:58.000Z</time>
      </trkpt>
      <trkpt lat="43.75203" lon="7.07826">
        <ele>773.40002441406</ele>
        <time>2021-03-04T08:42:02.000Z</time>
      </trkpt>
      <trkpt lat="43.75205" lon="7.07827">
        <ele>773.79998779297</ele>
        <time>2021-03-04T08:42:03.000Z</time>
      </trkpt>
      <trkpt lat="43.75214" lon="7.07832">
        <ele>774.79998779297</ele>
        <time>2021-03-04T08:42:07.000Z</time>
      </trkpt>
      <trkpt lat="43.75218" lon="7.07834">
        <ele>775.79998779297</ele>
        <time>2021-03-04T08:42:09.000Z</time>
      </trkpt>
      <trkpt lat="43.7522" lon="7.07835">
        <ele>776</ele>
        <time>2021-03-04T08:42:10.000Z</time>
      </trkpt>
      <trkpt lat="43.75226" lon="7.0784">
        <ele>777.40002441406</ele>
        <time>2021-03-04T08:42:13.000Z</time>
      </trkpt>
      <trkpt lat="43.75228" lon="7.07841">
        <ele>777.59997558594</ele>
        <time>2021-03-04T08:42:14.000Z</time>
      </trkpt>
      <trkpt lat="43.75232" lon="7.07843">
        <ele>778.40002441406</ele>
        <time>2021-03-04T08:42:16.000Z</time>
      </trkpt>
      <trkpt lat="43.75239" lon="7.07847">
        <ele>779.59997558594</ele>
        <time>2021-03-04T08:42:20.000Z</time>
      </trkpt>
      <trkpt lat="43.75241" lon="7.07849">
        <ele>780.20001220703</ele>
        <time>2021-03-04T08:42:21.000Z</time>
      </trkpt>
      <trkpt lat="43.75243" lon="7.0785">
        <ele>781</ele>
        <time>2021-03-04T08:42:23.000Z</time>
      </trkpt>
      <trkpt lat="43.75245" lon="7.07854">
        <ele>782.20001220703</ele>
        <time>2021-03-04T08:42:25.000Z</time>
      </trkpt>
      <trkpt lat="43.75244" lon="7.07857">
        <ele>782.40002441406</ele>
        <time>2021-03-04T08:42:26.000Z</time>
      </trkpt>
      <trkpt lat="43.7524" lon="7.0786">
        <ele>783.40002441406</ele>
        <time>2021-03-04T08:42:28.000Z</time>
      </trkpt>
      <trkpt lat="43.75238" lon="7.07861">
        <ele>783.59997558594</ele>
        <time>2021-03-04T08:42:29.000Z</time>
      </trkpt>
      <trkpt lat="43.75235" lon="7.07864">
        <ele>784.59997558594</ele>
        <time>2021-03-04T08:42:31.000Z</time>
      </trkpt>
      <trkpt lat="43.75233" lon="7.07866">
        <ele>785.59997558594</ele>
        <time>2021-03-04T08:42:33.000Z</time>
      </trkpt>
      <trkpt lat="43.75231" lon="7.07868">
        <ele>786</ele>
        <time>2021-03-04T08:42:34.000Z</time>
      </trkpt>
      <trkpt lat="43.75229" lon="7.07871">
        <ele>786.40002441406</ele>
        <time>2021-03-04T08:42:36.000Z</time>
      </trkpt>
      <trkpt lat="43.75228" lon="7.07873">
        <ele>786.59997558594</ele>
        <time>2021-03-04T08:42:37.000Z</time>
      </trkpt>
      <trkpt lat="43.75225" lon="7.0788">
        <ele>787.20001220703</ele>
        <time>2021-03-04T08:42:40.000Z</time>
      </trkpt>
      <trkpt lat="43.75224" lon="7.07883">
        <ele>787.59997558594</ele>
        <time>2021-03-04T08:42:41.000Z</time>
      </trkpt>
      <trkpt lat="43.75223" lon="7.07885">
        <ele>788</ele>
        <time>2021-03-04T08:42:42.000Z</time>
      </trkpt>
      <trkpt lat="43.75221" lon="7.0789">
        <ele>789.20001220703</ele>
        <time>2021-03-04T08:42:44.000Z</time>
      </trkpt>
      <trkpt lat="43.75219" lon="7.07895">
        <ele>790.20001220703</ele>
        <time>2021-03-04T08:42:46.000Z</time>
      </trkpt>
      <trkpt lat="43.75218" lon="7.07898">
        <ele>790.40002441406</ele>
        <time>2021-03-04T08:42:47.000Z</time>
      </trkpt>
      <trkpt lat="43.75212" lon="7.0791">
        <ele>791.59997558594</ele>
        <time>2021-03-04T08:42:51.000Z</time>
      </trkpt>
      <trkpt lat="43.75211" lon="7.07913">
        <ele>791.79998779297</ele>
        <time>2021-03-04T08:42:52.000Z</time>
      </trkpt>
      <trkpt lat="43.75202" lon="7.07927">
        <ele>792.59997558594</ele>
        <time>2021-03-04T08:42:57.000Z</time>
      </trkpt>
      <trkpt lat="43.752" lon="7.07929">
        <ele>792.79998779297</ele>
        <time>2021-03-04T08:42:58.000Z</time>
      </trkpt>
      <trkpt lat="43.75194" lon="7.07935">
        <ele>794</ele>
        <time>2021-03-04T08:43:01.000Z</time>
      </trkpt>
      <trkpt lat="43.75189" lon="7.07942">
        <ele>795</ele>
        <time>2021-03-04T08:43:04.000Z</time>
      </trkpt>
      <trkpt lat="43.75187" lon="7.07948">
        <ele>795.40002441406</ele>
        <time>2021-03-04T08:43:06.000Z</time>
      </trkpt>
      <trkpt lat="43.75187" lon="7.07953">
        <ele>796.20001220703</ele>
        <time>2021-03-04T08:43:08.000Z</time>
      </trkpt>
      <trkpt lat="43.75188" lon="7.07955">
        <ele>796.59997558594</ele>
        <time>2021-03-04T08:43:09.000Z</time>
      </trkpt>
      <trkpt lat="43.75189" lon="7.07956">
        <ele>796.59997558594</ele>
        <time>2021-03-04T08:43:10.000Z</time>
      </trkpt>
      <trkpt lat="43.75197" lon="7.07955">
        <ele>797.40002441406</ele>
        <time>2021-03-04T08:43:14.000Z</time>
      </trkpt>
      <trkpt lat="43.752" lon="7.07955">
        <ele>797.40002441406</ele>
        <time>2021-03-04T08:43:15.000Z</time>
      </trkpt>
      <trkpt lat="43.75207" lon="7.07955">
        <ele>798.59997558594</ele>
        <time>2021-03-04T08:43:18.000Z</time>
      </trkpt>
      <trkpt lat="43.75211" lon="7.07955">
        <ele>799.59997558594</ele>
        <time>2021-03-04T08:43:20.000Z</time>
      </trkpt>
      <trkpt lat="43.75213" lon="7.07955">
        <ele>800.20001220703</ele>
        <time>2021-03-04T08:43:21.000Z</time>
      </trkpt>
      <trkpt lat="43.75217" lon="7.07955">
        <ele>801</ele>
        <time>2021-03-04T08:43:23.000Z</time>
      </trkpt>
      <trkpt lat="43.75226" lon="7.0796">
        <ele>802.20001220703</ele>
        <time>2021-03-04T08:43:27.000Z</time>
      </trkpt>
      <trkpt lat="43.75235" lon="7.07967">
        <ele>803.40002441406</ele>
        <time>2021-03-04T08:43:31.000Z</time>
      </trkpt>
      <trkpt lat="43.75238" lon="7.0797">
        <ele>804</ele>
        <time>2021-03-04T08:43:33.000Z</time>
      </trkpt>
      <trkpt lat="43.75241" lon="7.07974">
        <ele>805</ele>
        <time>2021-03-04T08:43:35.000Z</time>
      </trkpt>
      <trkpt lat="43.75245" lon="7.07979">
        <ele>806.20001220703</ele>
        <time>2021-03-04T08:43:37.000Z</time>
      </trkpt>
      <trkpt lat="43.7525" lon="7.07986">
        <ele>807.59997558594</ele>
        <time>2021-03-04T08:43:40.000Z</time>
      </trkpt>
      <trkpt lat="43.75252" lon="7.07988">
        <ele>807.79998779297</ele>
        <time>2021-03-04T08:43:41.000Z</time>
      </trkpt>
      <trkpt lat="43.75259" lon="7.07993">
        <ele>808.79998779297</ele>
        <time>2021-03-04T08:43:44.000Z</time>
      </trkpt>
      <trkpt lat="43.75266" lon="7.07997">
        <ele>809.20001220703</ele>
        <time>2021-03-04T08:43:47.000Z</time>
      </trkpt>
      <trkpt lat="43.75273" lon="7.08007">
        <ele>810</ele>
        <time>2021-03-04T08:43:51.000Z</time>
      </trkpt>
      <trkpt lat="43.75275" lon="7.0801">
        <ele>810.20001220703</ele>
        <time>2021-03-04T08:43:52.000Z</time>
      </trkpt>
      <trkpt lat="43.75277" lon="7.08016">
        <ele>811.59997558594</ele>
        <time>2021-03-04T08:43:54.000Z</time>
      </trkpt>
      <trkpt lat="43.75277" lon="7.08022">
        <ele>812.79998779297</ele>
        <time>2021-03-04T08:43:56.000Z</time>
      </trkpt>
      <trkpt lat="43.75278" lon="7.08026">
        <ele>813.59997558594</ele>
        <time>2021-03-04T08:43:57.000Z</time>
      </trkpt>
      <trkpt lat="43.75277" lon="7.08029">
        <ele>814.20001220703</ele>
        <time>2021-03-04T08:43:58.000Z</time>
      </trkpt>
      <trkpt lat="43.75276" lon="7.08038">
        <ele>815.20001220703</ele>
        <time>2021-03-04T08:44:01.000Z</time>
      </trkpt>
      <trkpt lat="43.75274" lon="7.08047">
        <ele>816.59997558594</ele>
        <time>2021-03-04T08:44:04.000Z</time>
      </trkpt>
      <trkpt lat="43.75273" lon="7.08057">
        <ele>817.59997558594</ele>
        <time>2021-03-04T08:44:08.000Z</time>
      </trkpt>
      <trkpt lat="43.75273" lon="7.08058">
        <ele>817.79998779297</ele>
        <time>2021-03-04T08:44:09.000Z</time>
      </trkpt>
      <trkpt lat="43.75273" lon="7.08057">
        <ele>818</ele>
        <time>2021-03-04T08:44:10.000Z</time>
      </trkpt>
      <trkpt lat="43.75272" lon="7.08057">
        <ele>817.79998779297</ele>
        <time>2021-03-04T08:44:23.000Z</time>
      </trkpt>
      <trkpt lat="43.75272" lon="7.08057">
        <ele>817.20001220703</ele>
        <time>2021-03-04T08:44:39.000Z</time>
      </trkpt>
      <trkpt lat="43.75273" lon="7.08058">
        <ele>817.20001220703</ele>
        <time>2021-03-04T08:44:48.000Z</time>
      </trkpt>
      <trkpt lat="43.75273" lon="7.08058">
        <ele>816.59997558594</ele>
        <time>2021-03-04T08:44:53.000Z</time>
      </trkpt>
      <trkpt lat="43.75273" lon="7.08059">
        <ele>816.20001220703</ele>
        <time>2021-03-04T08:45:07.000Z</time>
      </trkpt>
      <trkpt lat="43.75274" lon="7.08064">
        <ele>816</ele>
        <time>2021-03-04T08:45:26.000Z</time>
      </trkpt>
      <trkpt lat="43.75274" lon="7.08085">
        <ele>816.40002441406</ele>
        <time>2021-03-04T08:45:32.000Z</time>
      </trkpt>
      <trkpt lat="43.75275" lon="7.08123">
        <ele>818</ele>
        <time>2021-03-04T08:45:40.000Z</time>
      </trkpt>
      <trkpt lat="43.75275" lon="7.08133">
        <ele>819.20001220703</ele>
        <time>2021-03-04T08:45:42.000Z</time>
      </trkpt>
      <trkpt lat="43.75276" lon="7.08148">
        <ele>820.40002441406</ele>
        <time>2021-03-04T08:45:46.000Z</time>
      </trkpt>
      <trkpt lat="43.75277" lon="7.08151">
        <ele>820.40002441406</ele>
        <time>2021-03-04T08:45:47.000Z</time>
      </trkpt>
      <trkpt lat="43.75285" lon="7.08166">
        <ele>820.40002441406</ele>
        <time>2021-03-04T08:45:52.000Z</time>
      </trkpt>
      <trkpt lat="43.75294" lon="7.08181">
        <ele>820.79998779297</ele>
        <time>2021-03-04T08:45:57.000Z</time>
      </trkpt>
      <trkpt lat="43.75304" lon="7.08199">
        <ele>820.79998779297</ele>
        <time>2021-03-04T08:46:02.000Z</time>
      </trkpt>
      <trkpt lat="43.75312" lon="7.08213">
        <ele>821.40002441406</ele>
        <time>2021-03-04T08:46:06.000Z</time>
      </trkpt>
      <trkpt lat="43.75314" lon="7.08216">
        <ele>821.59997558594</ele>
        <time>2021-03-04T08:46:07.000Z</time>
      </trkpt>
      <trkpt lat="43.75324" lon="7.08226">
        <ele>822.40002441406</ele>
        <time>2021-03-04T08:46:11.000Z</time>
      </trkpt>
      <trkpt lat="43.75326" lon="7.08226">
        <ele>822.79998779297</ele>
        <time>2021-03-04T08:46:12.000Z</time>
      </trkpt>
      <trkpt lat="43.75333" lon="7.08228">
        <ele>823.79998779297</ele>
        <time>2021-03-04T08:46:15.000Z</time>
      </trkpt>
      <trkpt lat="43.7534" lon="7.08227">
        <ele>825</ele>
        <time>2021-03-04T08:46:18.000Z</time>
      </trkpt>
      <trkpt lat="43.75343" lon="7.08228">
        <ele>825.59997558594</ele>
        <time>2021-03-04T08:46:19.000Z</time>
      </trkpt>
      <trkpt lat="43.75348" lon="7.08232">
        <ele>826.20001220703</ele>
        <time>2021-03-04T08:46:21.000Z</time>
      </trkpt>
      <trkpt lat="43.7535" lon="7.08234">
        <ele>826.59997558594</ele>
        <time>2021-03-04T08:46:22.000Z</time>
      </trkpt>
      <trkpt lat="43.75355" lon="7.08235">
        <ele>827.40002441406</ele>
        <time>2021-03-04T08:46:24.000Z</time>
      </trkpt>
      <trkpt lat="43.75358" lon="7.08235">
        <ele>827.59997558594</ele>
        <time>2021-03-04T08:46:25.000Z</time>
      </trkpt>
      <trkpt lat="43.75361" lon="7.08237">
        <ele>827.79998779297</ele>
        <time>2021-03-04T08:46:26.000Z</time>
      </trkpt>
      <trkpt lat="43.75363" lon="7.08239">
        <ele>828.40002441406</ele>
        <time>2021-03-04T08:46:28.000Z</time>
      </trkpt>
      <trkpt lat="43.75362" lon="7.08238">
        <ele>828.79998779297</ele>
        <time>2021-03-04T08:46:29.000Z</time>
      </trkpt>
      <trkpt lat="43.75362" lon="7.08239">
        <ele>829.59997558594</ele>
        <time>2021-03-04T08:46:33.000Z</time>
      </trkpt>
      <trkpt lat="43.75364" lon="7.08239">
        <ele>829.40002441406</ele>
        <time>2021-03-04T08:46:38.000Z</time>
      </trkpt>
      <trkpt lat="43.75377" lon="7.08248">
        <ele>829.79998779297</ele>
        <time>2021-03-04T08:46:44.000Z</time>
      </trkpt>
      <trkpt lat="43.75394" lon="7.08263">
        <ele>830.59997558594</ele>
        <time>2021-03-04T08:46:50.000Z</time>
      </trkpt>
      <trkpt lat="43.75397" lon="7.08266">
        <ele>830.79998779297</ele>
        <time>2021-03-04T08:46:51.000Z</time>
      </trkpt>
      <trkpt lat="43.75416" lon="7.08276">
        <ele>832.20001220703</ele>
        <time>2021-03-04T08:46:57.000Z</time>
      </trkpt>
      <trkpt lat="43.75425" lon="7.08271">
        <ele>833.40002441406</ele>
        <time>2021-03-04T08:47:01.000Z</time>
      </trkpt>
      <trkpt lat="43.75431" lon="7.08256">
        <ele>834.59997558594</ele>
        <time>2021-03-04T08:47:05.000Z</time>
      </trkpt>
      <trkpt lat="43.75434" lon="7.08251">
        <ele>834.79998779297</ele>
        <time>2021-03-04T08:47:06.000Z</time>
      </trkpt>
      <trkpt lat="43.75437" lon="7.0824">
        <ele>836.20001220703</ele>
        <time>2021-03-04T08:47:09.000Z</time>
      </trkpt>
      <trkpt lat="43.75439" lon="7.08235">
        <ele>837.40002441406</ele>
        <time>2021-03-04T08:47:11.000Z</time>
      </trkpt>
      <trkpt lat="43.75441" lon="7.08228">
        <ele>839.20001220703</ele>
        <time>2021-03-04T08:47:13.000Z</time>
      </trkpt>
      <trkpt lat="43.75447" lon="7.08217">
        <ele>840.40002441406</ele>
        <time>2021-03-04T08:47:17.000Z</time>
      </trkpt>
      <trkpt lat="43.75456" lon="7.08202">
        <ele>841.40002441406</ele>
        <time>2021-03-04T08:47:22.000Z</time>
      </trkpt>
      <trkpt lat="43.75459" lon="7.08197">
        <ele>842.40002441406</ele>
        <time>2021-03-04T08:47:24.000Z</time>
      </trkpt>
      <trkpt lat="43.75461" lon="7.08196">
        <ele>843</ele>
        <time>2021-03-04T08:47:25.000Z</time>
      </trkpt>
      <trkpt lat="43.75464" lon="7.08191">
        <ele>844.59997558594</ele>
        <time>2021-03-04T08:47:27.000Z</time>
      </trkpt>
      <trkpt lat="43.7547" lon="7.08186">
        <ele>845.59997558594</ele>
        <time>2021-03-04T08:47:30.000Z</time>
      </trkpt>
      <trkpt lat="43.75472" lon="7.08185">
        <ele>845.79998779297</ele>
        <time>2021-03-04T08:47:31.000Z</time>
      </trkpt>
      <trkpt lat="43.75481" lon="7.0818">
        <ele>847</ele>
        <time>2021-03-04T08:47:35.000Z</time>
      </trkpt>
      <trkpt lat="43.75485" lon="7.08177">
        <ele>847.40002441406</ele>
        <time>2021-03-04T08:47:37.000Z</time>
      </trkpt>
      <trkpt lat="43.75492" lon="7.08174">
        <ele>848.20001220703</ele>
        <time>2021-03-04T08:47:40.000Z</time>
      </trkpt>
      <trkpt lat="43.75501" lon="7.08173">
        <ele>849.40002441406</ele>
        <time>2021-03-04T08:47:43.000Z</time>
      </trkpt>
      <trkpt lat="43.75505" lon="7.08173">
        <ele>850.40002441406</ele>
        <time>2021-03-04T08:47:45.000Z</time>
      </trkpt>
      <trkpt lat="43.75513" lon="7.08174">
        <ele>851.59997558594</ele>
        <time>2021-03-04T08:47:48.000Z</time>
      </trkpt>
      <trkpt lat="43.7552" lon="7.08176">
        <ele>852.79998779297</ele>
        <time>2021-03-04T08:47:51.000Z</time>
      </trkpt>
      <trkpt lat="43.75522" lon="7.08176">
        <ele>853</ele>
        <time>2021-03-04T08:47:52.000Z</time>
      </trkpt>
      <trkpt lat="43.75532" lon="7.08176">
        <ele>853.79998779297</ele>
        <time>2021-03-04T08:47:56.000Z</time>
      </trkpt>
      <trkpt lat="43.75542" lon="7.08174">
        <ele>855</ele>
        <time>2021-03-04T08:48:00.000Z</time>
      </trkpt>
      <trkpt lat="43.75552" lon="7.08173">
        <ele>856.40002441406</ele>
        <time>2021-03-04T08:48:04.000Z</time>
      </trkpt>
      <trkpt lat="43.75559" lon="7.08173">
        <ele>857.40002441406</ele>
        <time>2021-03-04T08:48:07.000Z</time>
      </trkpt>
      <trkpt lat="43.75574" lon="7.08172">
        <ele>858.59997558594</ele>
        <time>2021-03-04T08:48:13.000Z</time>
      </trkpt>
      <trkpt lat="43.75578" lon="7.08171">
        <ele>858.79998779297</ele>
        <time>2021-03-04T08:48:15.000Z</time>
      </trkpt>
      <trkpt lat="43.75586" lon="7.0817">
        <ele>859.59997558594</ele>
        <time>2021-03-04T08:48:18.000Z</time>
      </trkpt>
      <trkpt lat="43.75588" lon="7.0817">
        <ele>859.79998779297</ele>
        <time>2021-03-04T08:48:19.000Z</time>
      </trkpt>
      <trkpt lat="43.75593" lon="7.0817">
        <ele>860.59997558594</ele>
        <time>2021-03-04T08:48:21.000Z</time>
      </trkpt>
      <trkpt lat="43.75602" lon="7.08169">
        <ele>861.79998779297</ele>
        <time>2021-03-04T08:48:25.000Z</time>
      </trkpt>
      <trkpt lat="43.75615" lon="7.08171">
        <ele>862.79998779297</ele>
        <time>2021-03-04T08:48:30.000Z</time>
      </trkpt>
      <trkpt lat="43.7562" lon="7.0817">
        <ele>863.20001220703</ele>
        <time>2021-03-04T08:48:32.000Z</time>
      </trkpt>
      <trkpt lat="43.75624" lon="7.08169">
        <ele>863.79998779297</ele>
        <time>2021-03-04T08:48:34.000Z</time>
      </trkpt>
      <trkpt lat="43.75633" lon="7.08169">
        <ele>865.40002441406</ele>
        <time>2021-03-04T08:48:38.000Z</time>
      </trkpt>
      <trkpt lat="43.75638" lon="7.08169">
        <ele>866.40002441406</ele>
        <time>2021-03-04T08:48:40.000Z</time>
      </trkpt>
      <trkpt lat="43.75643" lon="7.08169">
        <ele>867.40002441406</ele>
        <time>2021-03-04T08:48:42.000Z</time>
      </trkpt>
      <trkpt lat="43.75647" lon="7.08169">
        <ele>868</ele>
        <time>2021-03-04T08:48:44.000Z</time>
      </trkpt>
      <trkpt lat="43.75651" lon="7.08171">
        <ele>868.59997558594</ele>
        <time>2021-03-04T08:48:46.000Z</time>
      </trkpt>
      <trkpt lat="43.75662" lon="7.08172">
        <ele>869.40002441406</ele>
        <time>2021-03-04T08:48:51.000Z</time>
      </trkpt>
      <trkpt lat="43.75664" lon="7.08171">
        <ele>869.59997558594</ele>
        <time>2021-03-04T08:48:52.000Z</time>
      </trkpt>
      <trkpt lat="43.75674" lon="7.08174">
        <ele>871.20001220703</ele>
        <time>2021-03-04T08:48:56.000Z</time>
      </trkpt>
      <trkpt lat="43.75678" lon="7.08173">
        <ele>871.79998779297</ele>
        <time>2021-03-04T08:48:58.000Z</time>
      </trkpt>
      <trkpt lat="43.75683" lon="7.08172">
        <ele>872.40002441406</ele>
        <time>2021-03-04T08:49:00.000Z</time>
      </trkpt>
      <trkpt lat="43.75692" lon="7.08171">
        <ele>873.59997558594</ele>
        <time>2021-03-04T08:49:04.000Z</time>
      </trkpt>
      <trkpt lat="43.75694" lon="7.0817">
        <ele>873.79998779297</ele>
        <time>2021-03-04T08:49:05.000Z</time>
      </trkpt>
      <trkpt lat="43.75706" lon="7.08168">
        <ele>874.59997558594</ele>
        <time>2021-03-04T08:49:10.000Z</time>
      </trkpt>
      <trkpt lat="43.75709" lon="7.08168">
        <ele>874.79998779297</ele>
        <time>2021-03-04T08:49:11.000Z</time>
      </trkpt>
      <trkpt lat="43.75714" lon="7.08167">
        <ele>875.79998779297</ele>
        <time>2021-03-04T08:49:13.000Z</time>
      </trkpt>
      <trkpt lat="43.75721" lon="7.08165">
        <ele>876.79998779297</ele>
        <time>2021-03-04T08:49:16.000Z</time>
      </trkpt>
      <trkpt lat="43.75729" lon="7.0816">
        <ele>877.59997558594</ele>
        <time>2021-03-04T08:49:20.000Z</time>
      </trkpt>
      <trkpt lat="43.7573" lon="7.08158">
        <ele>878</ele>
        <time>2021-03-04T08:49:21.000Z</time>
      </trkpt>
      <trkpt lat="43.75727" lon="7.08154">
        <ele>878.59997558594</ele>
        <time>2021-03-04T08:49:23.000Z</time>
      </trkpt>
      <trkpt lat="43.75721" lon="7.08144">
        <ele>879</ele>
        <time>2021-03-04T08:49:27.000Z</time>
      </trkpt>
      <trkpt lat="43.75718" lon="7.08137">
        <ele>879.79998779297</ele>
        <time>2021-03-04T08:49:30.000Z</time>
      </trkpt>
      <trkpt lat="43.75715" lon="7.08132">
        <ele>880.40002441406</ele>
        <time>2021-03-04T08:49:32.000Z</time>
      </trkpt>
      <trkpt lat="43.75713" lon="7.08126">
        <ele>881.20001220703</ele>
        <time>2021-03-04T08:49:35.000Z</time>
      </trkpt>
      <trkpt lat="43.75711" lon="7.08123">
        <ele>881.40002441406</ele>
        <time>2021-03-04T08:49:36.000Z</time>
      </trkpt>
      <trkpt lat="43.75706" lon="7.08113">
        <ele>882.40002441406</ele>
        <time>2021-03-04T08:49:40.000Z</time>
      </trkpt>
      <trkpt lat="43.75705" lon="7.08111">
        <ele>882.59997558594</ele>
        <time>2021-03-04T08:49:41.000Z</time>
      </trkpt>
      <trkpt lat="43.75698" lon="7.08098">
        <ele>884</ele>
        <time>2021-03-04T08:49:46.000Z</time>
      </trkpt>
      <trkpt lat="43.75696" lon="7.08094">
        <ele>884.40002441406</ele>
        <time>2021-03-04T08:49:48.000Z</time>
      </trkpt>
      <trkpt lat="43.75694" lon="7.08088">
        <ele>885</ele>
        <time>2021-03-04T08:49:50.000Z</time>
      </trkpt>
      <trkpt lat="43.75691" lon="7.08083">
        <ele>886</ele>
        <time>2021-03-04T08:49:52.000Z</time>
      </trkpt>
      <trkpt lat="43.75691" lon="7.08081">
        <ele>886.20001220703</ele>
        <time>2021-03-04T08:49:53.000Z</time>
      </trkpt>
      <trkpt lat="43.7569" lon="7.08079">
        <ele>886.59997558594</ele>
        <time>2021-03-04T08:49:54.000Z</time>
      </trkpt>
      <trkpt lat="43.75688" lon="7.08077">
        <ele>887.20001220703</ele>
        <time>2021-03-04T08:49:55.000Z</time>
      </trkpt>
      <trkpt lat="43.75683" lon="7.08072">
        <ele>887.79998779297</ele>
        <time>2021-03-04T08:49:57.000Z</time>
      </trkpt>
      <trkpt lat="43.75682" lon="7.08068">
        <ele>888.40002441406</ele>
        <time>2021-03-04T08:49:59.000Z</time>
      </trkpt>
      <trkpt lat="43.75679" lon="7.08062">
        <ele>888.40002441406</ele>
        <time>2021-03-04T08:50:01.000Z</time>
      </trkpt>
      <trkpt lat="43.75678" lon="7.08059">
        <ele>888.40002441406</ele>
        <time>2021-03-04T08:50:02.000Z</time>
      </trkpt>
      <trkpt lat="43.75674" lon="7.08052">
        <ele>889.40002441406</ele>
        <time>2021-03-04T08:50:05.000Z</time>
      </trkpt>
      <trkpt lat="43.7567" lon="7.08044">
        <ele>890.59997558594</ele>
        <time>2021-03-04T08:50:08.000Z</time>
      </trkpt>
      <trkpt lat="43.75669" lon="7.08041">
        <ele>890.79998779297</ele>
        <time>2021-03-04T08:50:09.000Z</time>
      </trkpt>
      <trkpt lat="43.75668" lon="7.08031">
        <ele>891.79998779297</ele>
        <time>2021-03-04T08:50:12.000Z</time>
      </trkpt>
      <trkpt lat="43.75666" lon="7.08019">
        <ele>893</ele>
        <time>2021-03-04T08:50:16.000Z</time>
      </trkpt>
      <trkpt lat="43.75666" lon="7.08017">
        <ele>893.20001220703</ele>
        <time>2021-03-04T08:50:17.000Z</time>
      </trkpt>
      <trkpt lat="43.75667" lon="7.08005">
        <ele>894.20001220703</ele>
        <time>2021-03-04T08:50:21.000Z</time>
      </trkpt>
      <trkpt lat="43.75666" lon="7.08001">
        <ele>895</ele>
        <time>2021-03-04T08:50:23.000Z</time>
      </trkpt>
      <trkpt lat="43.75666" lon="7.07997">
        <ele>895.40002441406</ele>
        <time>2021-03-04T08:50:24.000Z</time>
      </trkpt>
      <trkpt lat="43.75665" lon="7.07988">
        <ele>896.59997558594</ele>
        <time>2021-03-04T08:50:27.000Z</time>
      </trkpt>
      <trkpt lat="43.75664" lon="7.07985">
        <ele>896.79998779297</ele>
        <time>2021-03-04T08:50:28.000Z</time>
      </trkpt>
      <trkpt lat="43.75663" lon="7.07974">
        <ele>897.40002441406</ele>
        <time>2021-03-04T08:50:33.000Z</time>
      </trkpt>
      <trkpt lat="43.75666" lon="7.07971">
        <ele>897.59997558594</ele>
        <time>2021-03-04T08:50:37.000Z</time>
      </trkpt>
      <trkpt lat="43.75665" lon="7.0797">
        <ele>898</ele>
        <time>2021-03-04T08:50:40.000Z</time>
      </trkpt>
      <trkpt lat="43.75665" lon="7.0797">
        <ele>898.40002441406</ele>
        <time>2021-03-04T08:50:42.000Z</time>
      </trkpt>
      <trkpt lat="43.75665" lon="7.07969">
        <ele>899</ele>
        <time>2021-03-04T08:50:47.000Z</time>
      </trkpt>
      <trkpt lat="43.75665" lon="7.07969">
        <ele>899</ele>
        <time>2021-03-04T08:50:49.000Z</time>
      </trkpt>
      <trkpt lat="43.75667" lon="7.07968">
        <ele>899.59997558594</ele>
        <time>2021-03-04T08:50:55.000Z</time>
      </trkpt>
      <trkpt lat="43.75667" lon="7.07968">
        <ele>900</ele>
        <time>2021-03-04T08:50:58.000Z</time>
      </trkpt>
      <trkpt lat="43.75668" lon="7.07968">
        <ele>900.40002441406</ele>
        <time>2021-03-04T08:51:03.000Z</time>
      </trkpt>
      <trkpt lat="43.75673" lon="7.07969">
        <ele>900.79998779297</ele>
        <time>2021-03-04T08:51:10.000Z</time>
      </trkpt>
      <trkpt lat="43.75673" lon="7.0797">
        <ele>901</ele>
        <time>2021-03-04T08:51:11.000Z</time>
      </trkpt>
      <trkpt lat="43.75677" lon="7.07971">
        <ele>901.79998779297</ele>
        <time>2021-03-04T08:51:17.000Z</time>
      </trkpt>
      <trkpt lat="43.75677" lon="7.07971">
        <ele>902</ele>
        <time>2021-03-04T08:51:19.000Z</time>
      </trkpt>
      <trkpt lat="43.75678" lon="7.07969">
        <ele>902.79998779297</ele>
        <time>2021-03-04T08:51:24.000Z</time>
      </trkpt>
      <trkpt lat="43.75678" lon="7.07969">
        <ele>903</ele>
        <time>2021-03-04T08:51:27.000Z</time>
      </trkpt>
      <trkpt lat="43.75678" lon="7.07967">
        <ele>903.40002441406</ele>
        <time>2021-03-04T08:51:32.000Z</time>
      </trkpt>
      <trkpt lat="43.75678" lon="7.07967">
        <ele>903.40002441406</ele>
        <time>2021-03-04T08:51:41.000Z</time>
      </trkpt>
      <trkpt lat="43.75678" lon="7.07966">
        <ele>903.20001220703</ele>
        <time>2021-03-04T08:52:10.000Z</time>
      </trkpt>
      <trkpt lat="43.75678" lon="7.07966">
        <ele>903.40002441406</ele>
        <time>2021-03-04T08:52:24.000Z</time>
      </trkpt>
      <trkpt lat="43.75679" lon="7.07957">
        <ele>903.20001220703</ele>
        <time>2021-03-04T08:52:35.000Z</time>
      </trkpt>
      <trkpt lat="43.75681" lon="7.07938">
        <ele>904.20001220703</ele>
        <time>2021-03-04T08:52:42.000Z</time>
      </trkpt>
      <trkpt lat="43.75682" lon="7.07933">
        <ele>904.40002441406</ele>
        <time>2021-03-04T08:52:43.000Z</time>
      </trkpt>
      <trkpt lat="43.75684" lon="7.07924">
        <ele>905.20001220703</ele>
        <time>2021-03-04T08:52:46.000Z</time>
      </trkpt>
      <trkpt lat="43.75684" lon="7.0792">
        <ele>905.59997558594</ele>
        <time>2021-03-04T08:52:47.000Z</time>
      </trkpt>
      <trkpt lat="43.75686" lon="7.07909">
        <ele>906.20001220703</ele>
        <time>2021-03-04T08:52:50.000Z</time>
      </trkpt>
      <trkpt lat="43.75688" lon="7.07899">
        <ele>907.59997558594</ele>
        <time>2021-03-04T08:52:53.000Z</time>
      </trkpt>
      <trkpt lat="43.75689" lon="7.07896">
        <ele>908.20001220703</ele>
        <time>2021-03-04T08:52:54.000Z</time>
      </trkpt>
      <trkpt lat="43.75691" lon="7.07894">
        <ele>908.59997558594</ele>
        <time>2021-03-04T08:52:55.000Z</time>
      </trkpt>
      <trkpt lat="43.75693" lon="7.0789">
        <ele>909.79998779297</ele>
        <time>2021-03-04T08:52:57.000Z</time>
      </trkpt>
      <trkpt lat="43.75694" lon="7.07887">
        <ele>910.20001220703</ele>
        <time>2021-03-04T08:52:58.000Z</time>
      </trkpt>
      <trkpt lat="43.75696" lon="7.07884">
        <ele>911</ele>
        <time>2021-03-04T08:53:00.000Z</time>
      </trkpt>
      <trkpt lat="43.75697" lon="7.0788">
        <ele>912.20001220703</ele>
        <time>2021-03-04T08:53:02.000Z</time>
      </trkpt>
      <trkpt lat="43.75698" lon="7.07877">
        <ele>912.40002441406</ele>
        <time>2021-03-04T08:53:03.000Z</time>
      </trkpt>
      <trkpt lat="43.757" lon="7.07871">
        <ele>913.20001220703</ele>
        <time>2021-03-04T08:53:05.000Z</time>
      </trkpt>
      <trkpt lat="43.75701" lon="7.07865">
        <ele>914.20001220703</ele>
        <time>2021-03-04T08:53:08.000Z</time>
      </trkpt>
      <trkpt lat="43.75701" lon="7.07851">
        <ele>915.40002441406</ele>
        <time>2021-03-04T08:53:12.000Z</time>
      </trkpt>
      <trkpt lat="43.75701" lon="7.07838">
        <ele>916.40002441406</ele>
        <time>2021-03-04T08:53:16.000Z</time>
      </trkpt>
      <trkpt lat="43.75703" lon="7.07833">
        <ele>917.40002441406</ele>
        <time>2021-03-04T08:53:18.000Z</time>
      </trkpt>
      <trkpt lat="43.75704" lon="7.0783">
        <ele>917.79998779297</ele>
        <time>2021-03-04T08:53:19.000Z</time>
      </trkpt>
      <trkpt lat="43.75708" lon="7.07823">
        <ele>919</ele>
        <time>2021-03-04T08:53:22.000Z</time>
      </trkpt>
      <trkpt lat="43.75709" lon="7.07821">
        <ele>919.20001220703</ele>
        <time>2021-03-04T08:53:23.000Z</time>
      </trkpt>
      <trkpt lat="43.75717" lon="7.07804">
        <ele>920.20001220703</ele>
        <time>2021-03-04T08:53:30.000Z</time>
      </trkpt>
      <trkpt lat="43.75718" lon="7.07796">
        <ele>921.20001220703</ele>
        <time>2021-03-04T08:53:33.000Z</time>
      </trkpt>
      <trkpt lat="43.7572" lon="7.07791">
        <ele>922.40002441406</ele>
        <time>2021-03-04T08:53:35.000Z</time>
      </trkpt>
      <trkpt lat="43.75721" lon="7.07782">
        <ele>923.59997558594</ele>
        <time>2021-03-04T08:53:38.000Z</time>
      </trkpt>
      <trkpt lat="43.75725" lon="7.07771">
        <ele>924.59997558594</ele>
        <time>2021-03-04T08:53:42.000Z</time>
      </trkpt>
      <trkpt lat="43.75726" lon="7.07769">
        <ele>925</ele>
        <time>2021-03-04T08:53:43.000Z</time>
      </trkpt>
      <trkpt lat="43.75732" lon="7.07756">
        <ele>926</ele>
        <time>2021-03-04T08:53:48.000Z</time>
      </trkpt>
      <trkpt lat="43.75733" lon="7.07754">
        <ele>926.20001220703</ele>
        <time>2021-03-04T08:53:49.000Z</time>
      </trkpt>
      <trkpt lat="43.75736" lon="7.07746">
        <ele>927.40002441406</ele>
        <time>2021-03-04T08:53:52.000Z</time>
      </trkpt>
      <trkpt lat="43.75738" lon="7.07741">
        <ele>928.59997558594</ele>
        <time>2021-03-04T08:53:54.000Z</time>
      </trkpt>
      <trkpt lat="43.7574" lon="7.07737">
        <ele>929.40002441406</ele>
        <time>2021-03-04T08:53:56.000Z</time>
      </trkpt>
      <trkpt lat="43.7574" lon="7.07734">
        <ele>929.79998779297</ele>
        <time>2021-03-04T08:53:57.000Z</time>
      </trkpt>
      <trkpt lat="43.75746" lon="7.07718">
        <ele>931</ele>
        <time>2021-03-04T08:54:03.000Z</time>
      </trkpt>
      <trkpt lat="43.75751" lon="7.07705">
        <ele>932.20001220703</ele>
        <time>2021-03-04T08:54:08.000Z</time>
      </trkpt>
      <trkpt lat="43.75752" lon="7.07703">
        <ele>932.20001220703</ele>
        <time>2021-03-04T08:54:09.000Z</time>
      </trkpt>
      <trkpt lat="43.75756" lon="7.07695">
        <ele>933.40002441406</ele>
        <time>2021-03-04T08:54:12.000Z</time>
      </trkpt>
      <trkpt lat="43.75759" lon="7.07686">
        <ele>934.40002441406</ele>
        <time>2021-03-04T08:54:15.000Z</time>
      </trkpt>
      <trkpt lat="43.75763" lon="7.07672">
        <ele>935.59997558594</ele>
        <time>2021-03-04T08:54:20.000Z</time>
      </trkpt>
      <trkpt lat="43.75764" lon="7.07669">
        <ele>935.59997558594</ele>
        <time>2021-03-04T08:54:21.000Z</time>
      </trkpt>
      <trkpt lat="43.75768" lon="7.07658">
        <ele>937.20001220703</ele>
        <time>2021-03-04T08:54:25.000Z</time>
      </trkpt>
      <trkpt lat="43.75773" lon="7.07651">
        <ele>938.59997558594</ele>
        <time>2021-03-04T08:54:28.000Z</time>
      </trkpt>
      <trkpt lat="43.75778" lon="7.07642">
        <ele>939.79998779297</ele>
        <time>2021-03-04T08:54:32.000Z</time>
      </trkpt>
      <trkpt lat="43.75781" lon="7.07638">
        <ele>940.79998779297</ele>
        <time>2021-03-04T08:54:34.000Z</time>
      </trkpt>
      <trkpt lat="43.75782" lon="7.07637">
        <ele>941.20001220703</ele>
        <time>2021-03-04T08:54:35.000Z</time>
      </trkpt>
      <trkpt lat="43.75782" lon="7.07635">
        <ele>941.59997558594</ele>
        <time>2021-03-04T08:54:36.000Z</time>
      </trkpt>
      <trkpt lat="43.75783" lon="7.07631">
        <ele>942.20001220703</ele>
        <time>2021-03-04T08:54:38.000Z</time>
      </trkpt>
      <trkpt lat="43.75785" lon="7.0763">
        <ele>942.40002441406</ele>
        <time>2021-03-04T08:54:39.000Z</time>
      </trkpt>
      <trkpt lat="43.75787" lon="7.07638">
        <ele>943</ele>
        <time>2021-03-04T08:54:42.000Z</time>
      </trkpt>
      <trkpt lat="43.75786" lon="7.07642">
        <ele>943.40002441406</ele>
        <time>2021-03-04T08:54:44.000Z</time>
      </trkpt>
      <trkpt lat="43.75787" lon="7.07645">
        <ele>943.79998779297</ele>
        <time>2021-03-04T08:54:46.000Z</time>
      </trkpt>
      <trkpt lat="43.75787" lon="7.07647">
        <ele>943.79998779297</ele>
        <time>2021-03-04T08:54:47.000Z</time>
      </trkpt>
      <trkpt lat="43.75789" lon="7.07653">
        <ele>944.40002441406</ele>
        <time>2021-03-04T08:54:52.000Z</time>
      </trkpt>
      <trkpt lat="43.75789" lon="7.07654">
        <ele>944.59997558594</ele>
        <time>2021-03-04T08:54:53.000Z</time>
      </trkpt>
      <trkpt lat="43.75791" lon="7.07658">
        <ele>945</ele>
        <time>2021-03-04T08:54:57.000Z</time>
      </trkpt>
      <trkpt lat="43.75792" lon="7.07656">
        <ele>945</ele>
        <time>2021-03-04T08:54:58.000Z</time>
      </trkpt>
      <trkpt lat="43.75789" lon="7.07647">
        <ele>945</ele>
        <time>2021-03-04T08:55:01.000Z</time>
      </trkpt>
      <trkpt lat="43.75785" lon="7.07635">
        <ele>944.20001220703</ele>
        <time>2021-03-04T08:55:05.000Z</time>
      </trkpt>
      <trkpt lat="43.75787" lon="7.07634">
        <ele>944</ele>
        <time>2021-03-04T08:55:06.000Z</time>
      </trkpt>
      <trkpt lat="43.7579" lon="7.07634">
        <ele>944</ele>
        <time>2021-03-04T08:55:10.000Z</time>
      </trkpt>
      <trkpt lat="43.75789" lon="7.07635">
        <ele>944</ele>
        <time>2021-03-04T08:55:11.000Z</time>
      </trkpt>
      <trkpt lat="43.75789" lon="7.07637">
        <ele>944.20001220703</ele>
        <time>2021-03-04T08:55:14.000Z</time>
      </trkpt>
      <trkpt lat="43.75788" lon="7.07637">
        <ele>944</ele>
        <time>2021-03-04T08:55:18.000Z</time>
      </trkpt>
      <trkpt lat="43.7579" lon="7.07635">
        <ele>943.79998779297</ele>
        <time>2021-03-04T08:55:23.000Z</time>
      </trkpt>
      <trkpt lat="43.75789" lon="7.07635">
        <ele>943.59997558594</ele>
        <time>2021-03-04T08:55:28.000Z</time>
      </trkpt>
      <trkpt lat="43.75792" lon="7.07634">
        <ele>944.20001220703</ele>
        <time>2021-03-04T08:55:34.000Z</time>
      </trkpt>
      <trkpt lat="43.75793" lon="7.07634">
        <ele>945.40002441406</ele>
        <time>2021-03-04T08:55:39.000Z</time>
      </trkpt>
      <trkpt lat="43.75793" lon="7.07634">
        <ele>945.59997558594</ele>
        <time>2021-03-04T08:55:40.000Z</time>
      </trkpt>
      <trkpt lat="43.75795" lon="7.07637">
        <ele>946</ele>
        <time>2021-03-04T08:55:42.000Z</time>
      </trkpt>
      <trkpt lat="43.75798" lon="7.07642">
        <ele>946.20001220703</ele>
        <time>2021-03-04T08:55:44.000Z</time>
      </trkpt>
      <trkpt lat="43.75804" lon="7.07652">
        <ele>946.59997558594</ele>
        <time>2021-03-04T08:55:48.000Z</time>
      </trkpt>
      <trkpt lat="43.75811" lon="7.07662">
        <ele>947.59997558594</ele>
        <time>2021-03-04T08:55:52.000Z</time>
      </trkpt>
      <trkpt lat="43.75813" lon="7.07664">
        <ele>947.79998779297</ele>
        <time>2021-03-04T08:55:53.000Z</time>
      </trkpt>
      <trkpt lat="43.75822" lon="7.07672">
        <ele>949</ele>
        <time>2021-03-04T08:55:57.000Z</time>
      </trkpt>
      <trkpt lat="43.75826" lon="7.07675">
        <ele>949.40002441406</ele>
        <time>2021-03-04T08:55:59.000Z</time>
      </trkpt>
      <trkpt lat="43.75843" lon="7.07685">
        <ele>950.20001220703</ele>
        <time>2021-03-04T08:56:06.000Z</time>
      </trkpt>
      <trkpt lat="43.75846" lon="7.07686">
        <ele>950.40002441406</ele>
        <time>2021-03-04T08:56:07.000Z</time>
      </trkpt>
      <trkpt lat="43.75859" lon="7.07692">
        <ele>951.20001220703</ele>
        <time>2021-03-04T08:56:13.000Z</time>
      </trkpt>
      <trkpt lat="43.75864" lon="7.07694">
        <ele>951.40002441406</ele>
        <time>2021-03-04T08:56:15.000Z</time>
      </trkpt>
      <trkpt lat="43.7588" lon="7.07693">
        <ele>952.20001220703</ele>
        <time>2021-03-04T08:56:22.000Z</time>
      </trkpt>
      <trkpt lat="43.75882" lon="7.07692">
        <ele>952.40002441406</ele>
        <time>2021-03-04T08:56:23.000Z</time>
      </trkpt>
      <trkpt lat="43.75894" lon="7.07682">
        <ele>953.40002441406</ele>
        <time>2021-03-04T08:56:29.000Z</time>
      </trkpt>
      <trkpt lat="43.75898" lon="7.07677">
        <ele>953.79998779297</ele>
        <time>2021-03-04T08:56:31.000Z</time>
      </trkpt>
      <trkpt lat="43.75903" lon="7.07668">
        <ele>954.40002441406</ele>
        <time>2021-03-04T08:56:34.000Z</time>
      </trkpt>
      <trkpt lat="43.75914" lon="7.07652">
        <ele>955.40002441406</ele>
        <time>2021-03-04T08:56:40.000Z</time>
      </trkpt>
      <trkpt lat="43.75926" lon="7.07635">
        <ele>956.59997558594</ele>
        <time>2021-03-04T08:56:46.000Z</time>
      </trkpt>
      <trkpt lat="43.75935" lon="7.0762">
        <ele>957.59997558594</ele>
        <time>2021-03-04T08:56:51.000Z</time>
      </trkpt>
      <trkpt lat="43.75945" lon="7.07606">
        <ele>958.79998779297</ele>
        <time>2021-03-04T08:56:56.000Z</time>
      </trkpt>
      <trkpt lat="43.75958" lon="7.07587">
        <ele>959.79998779297</ele>
        <time>2021-03-04T08:57:03.000Z</time>
      </trkpt>
      <trkpt lat="43.75968" lon="7.07575">
        <ele>960.79998779297</ele>
        <time>2021-03-04T08:57:08.000Z</time>
      </trkpt>
      <trkpt lat="43.75977" lon="7.07566">
        <ele>962</ele>
        <time>2021-03-04T08:57:12.000Z</time>
      </trkpt>
      <trkpt lat="43.75979" lon="7.07565">
        <ele>962.20001220703</ele>
        <time>2021-03-04T08:57:13.000Z</time>
      </trkpt>
      <trkpt lat="43.75986" lon="7.0756">
        <ele>963</ele>
        <time>2021-03-04T08:57:16.000Z</time>
      </trkpt>
      <trkpt lat="43.75997" lon="7.07556">
        <ele>964.20001220703</ele>
        <time>2021-03-04T08:57:20.000Z</time>
      </trkpt>
      <trkpt lat="43.76005" lon="7.07553">
        <ele>965</ele>
        <time>2021-03-04T08:57:23.000Z</time>
      </trkpt>
      <trkpt lat="43.76011" lon="7.0755">
        <ele>965.59997558594</ele>
        <time>2021-03-04T08:57:25.000Z</time>
      </trkpt>
      <trkpt lat="43.76022" lon="7.07545">
        <ele>966.59997558594</ele>
        <time>2021-03-04T08:57:29.000Z</time>
      </trkpt>
      <trkpt lat="43.76033" lon="7.07538">
        <ele>967.79998779297</ele>
        <time>2021-03-04T08:57:33.000Z</time>
      </trkpt>
      <trkpt lat="43.76036" lon="7.07537">
        <ele>968</ele>
        <time>2021-03-04T08:57:34.000Z</time>
      </trkpt>
      <trkpt lat="43.76044" lon="7.07532">
        <ele>969</ele>
        <time>2021-03-04T08:57:37.000Z</time>
      </trkpt>
      <trkpt lat="43.76056" lon="7.07523">
        <ele>970.20001220703</ele>
        <time>2021-03-04T08:57:42.000Z</time>
      </trkpt>
      <trkpt lat="43.76061" lon="7.07519">
        <ele>970.40002441406</ele>
        <time>2021-03-04T08:57:44.000Z</time>
      </trkpt>
      <trkpt lat="43.76074" lon="7.07507">
        <ele>971</ele>
        <time>2021-03-04T08:57:51.000Z</time>
      </trkpt>
      <trkpt lat="43.76074" lon="7.075">
        <ele>971.40002441406</ele>
        <time>2021-03-04T08:57:53.000Z</time>
      </trkpt>
      <trkpt lat="43.7607" lon="7.07494">
        <ele>971.40002441406</ele>
        <time>2021-03-04T08:57:55.000Z</time>
      </trkpt>
      <trkpt lat="43.76062" lon="7.07474">
        <ele>971.59997558594</ele>
        <time>2021-03-04T08:58:01.000Z</time>
      </trkpt>
      <trkpt lat="43.76056" lon="7.07451">
        <ele>972.40002441406</ele>
        <time>2021-03-04T08:58:07.000Z</time>
      </trkpt>
      <trkpt lat="43.76053" lon="7.07444">
        <ele>972.40002441406</ele>
        <time>2021-03-04T08:58:09.000Z</time>
      </trkpt>
      <trkpt lat="43.76046" lon="7.07425">
        <ele>973.20001220703</ele>
        <time>2021-03-04T08:58:14.000Z</time>
      </trkpt>
      <trkpt lat="43.76044" lon="7.07422">
        <ele>973.40002441406</ele>
        <time>2021-03-04T08:58:15.000Z</time>
      </trkpt>
      <trkpt lat="43.76036" lon="7.07413">
        <ele>973.59997558594</ele>
        <time>2021-03-04T08:58:18.000Z</time>
      </trkpt>
      <trkpt lat="43.76028" lon="7.07394">
        <ele>974</ele>
        <time>2021-03-04T08:58:23.000Z</time>
      </trkpt>
      <trkpt lat="43.76022" lon="7.0737">
        <ele>974.20001220703</ele>
        <time>2021-03-04T08:58:30.000Z</time>
      </trkpt>
      <trkpt lat="43.76022" lon="7.07368">
        <ele>974.40002441406</ele>
        <time>2021-03-04T08:58:31.000Z</time>
      </trkpt>
      <trkpt lat="43.76023" lon="7.07358">
        <ele>975</ele>
        <time>2021-03-04T08:58:35.000Z</time>
      </trkpt>
      <trkpt lat="43.76024" lon="7.07356">
        <ele>975</ele>
        <time>2021-03-04T08:58:36.000Z</time>
      </trkpt>
      <trkpt lat="43.76025" lon="7.07354">
        <ele>975</ele>
        <time>2021-03-04T08:58:37.000Z</time>
      </trkpt>
      <trkpt lat="43.76025" lon="7.07346">
        <ele>974.59997558594</ele>
        <time>2021-03-04T08:58:39.000Z</time>
      </trkpt>
      <trkpt lat="43.76023" lon="7.07338">
        <ele>974</ele>
        <time>2021-03-04T08:58:41.000Z</time>
      </trkpt>
      <trkpt lat="43.76018" lon="7.07329">
        <ele>973.59997558594</ele>
        <time>2021-03-04T08:58:43.000Z</time>
      </trkpt>
      <trkpt lat="43.76007" lon="7.07307">
        <ele>974.59997558594</ele>
        <time>2021-03-04T08:58:49.000Z</time>
      </trkpt>
      <trkpt lat="43.76006" lon="7.07302">
        <ele>975</ele>
        <time>2021-03-04T08:58:51.000Z</time>
      </trkpt>
      <trkpt lat="43.76006" lon="7.073">
        <ele>975</ele>
        <time>2021-03-04T08:58:53.000Z</time>
      </trkpt>
      <trkpt lat="43.76007" lon="7.07297">
        <ele>974.40002441406</ele>
        <time>2021-03-04T08:59:16.000Z</time>
      </trkpt>
      <trkpt lat="43.76009" lon="7.07288">
        <ele>974.20001220703</ele>
        <time>2021-03-04T08:59:21.000Z</time>
      </trkpt>
      <trkpt lat="43.7601" lon="7.07282">
        <ele>973.79998779297</ele>
        <time>2021-03-04T08:59:23.000Z</time>
      </trkpt>
      <trkpt lat="43.76013" lon="7.07268">
        <ele>973.40002441406</ele>
        <time>2021-03-04T08:59:27.000Z</time>
      </trkpt>
      <trkpt lat="43.76013" lon="7.07257">
        <ele>973.20001220703</ele>
        <time>2021-03-04T08:59:30.000Z</time>
      </trkpt>
      <trkpt lat="43.76014" lon="7.07249">
        <ele>973.20001220703</ele>
        <time>2021-03-04T08:59:32.000Z</time>
      </trkpt>
      <trkpt lat="43.76012" lon="7.07226">
        <ele>972.79998779297</ele>
        <time>2021-03-04T08:59:37.000Z</time>
      </trkpt>
      <trkpt lat="43.76012" lon="7.07202">
        <ele>972.79998779297</ele>
        <time>2021-03-04T08:59:42.000Z</time>
      </trkpt>
      <trkpt lat="43.76011" lon="7.07198">
        <ele>972.59997558594</ele>
        <time>2021-03-04T08:59:43.000Z</time>
      </trkpt>
      <trkpt lat="43.76007" lon="7.07191">
        <ele>972.79998779297</ele>
        <time>2021-03-04T08:59:45.000Z</time>
      </trkpt>
      <trkpt lat="43.75998" lon="7.07184">
        <ele>973.20001220703</ele>
        <time>2021-03-04T08:59:48.000Z</time>
      </trkpt>
      <trkpt lat="43.75981" lon="7.07173">
        <ele>974.40002441406</ele>
        <time>2021-03-04T08:59:54.000Z</time>
      </trkpt>
      <trkpt lat="43.75975" lon="7.07169">
        <ele>975</ele>
        <time>2021-03-04T08:59:56.000Z</time>
      </trkpt>
      <trkpt lat="43.7597" lon="7.07167">
        <ele>975.59997558594</ele>
        <time>2021-03-04T08:59:58.000Z</time>
      </trkpt>
      <trkpt lat="43.75964" lon="7.07162">
        <ele>975.79998779297</ele>
        <time>2021-03-04T09:00:00.000Z</time>
      </trkpt>
      <trkpt lat="43.75963" lon="7.07159">
        <ele>976</ele>
        <time>2021-03-04T09:00:01.000Z</time>
      </trkpt>
      <trkpt lat="43.75952" lon="7.07138">
        <ele>976.59997558594</ele>
        <time>2021-03-04T09:00:06.000Z</time>
      </trkpt>
      <trkpt lat="43.7595" lon="7.07133">
        <ele>976.59997558594</ele>
        <time>2021-03-04T09:00:07.000Z</time>
      </trkpt>
      <trkpt lat="43.75934" lon="7.07092">
        <ele>977</ele>
        <time>2021-03-04T09:00:15.000Z</time>
      </trkpt>
      <trkpt lat="43.75927" lon="7.07077">
        <ele>977</ele>
        <time>2021-03-04T09:00:18.000Z</time>
      </trkpt>
      <trkpt lat="43.75926" lon="7.07066">
        <ele>977.40002441406</ele>
        <time>2021-03-04T09:00:20.000Z</time>
      </trkpt>
      <trkpt lat="43.75926" lon="7.0706">
        <ele>977.40002441406</ele>
        <time>2021-03-04T09:00:21.000Z</time>
      </trkpt>
      <trkpt lat="43.75929" lon="7.07046">
        <ele>977.40002441406</ele>
        <time>2021-03-04T09:00:23.000Z</time>
      </trkpt>
      <trkpt lat="43.75935" lon="7.07038">
        <ele>976.79998779297</ele>
        <time>2021-03-04T09:00:25.000Z</time>
      </trkpt>
      <trkpt lat="43.75942" lon="7.07031">
        <ele>975.59997558594</ele>
        <time>2021-03-04T09:00:28.000Z</time>
      </trkpt>
      <trkpt lat="43.75942" lon="7.07029">
        <ele>975.40002441406</ele>
        <time>2021-03-04T09:00:29.000Z</time>
      </trkpt>
      <trkpt lat="43.75939" lon="7.07025">
        <ele>975.20001220703</ele>
        <time>2021-03-04T09:00:31.000Z</time>
      </trkpt>
      <trkpt lat="43.75938" lon="7.07023">
        <ele>976.20001220703</ele>
        <time>2021-03-04T09:00:35.000Z</time>
      </trkpt>
      <trkpt lat="43.75938" lon="7.07023">
        <ele>976.59997558594</ele>
        <time>2021-03-04T09:00:36.000Z</time>
      </trkpt>
      <trkpt lat="43.75937" lon="7.07022">
        <ele>977.20001220703</ele>
        <time>2021-03-04T09:00:40.000Z</time>
      </trkpt>
      <trkpt lat="43.75936" lon="7.07022">
        <ele>977.20001220703</ele>
        <time>2021-03-04T09:00:42.000Z</time>
      </trkpt>
      <trkpt lat="43.75932" lon="7.0702">
        <ele>977</ele>
        <time>2021-03-04T09:00:45.000Z</time>
      </trkpt>
      <trkpt lat="43.75924" lon="7.07016">
        <ele>977.40002441406</ele>
        <time>2021-03-04T09:00:50.000Z</time>
      </trkpt>
      <trkpt lat="43.75923" lon="7.07016">
        <ele>977.59997558594</ele>
        <time>2021-03-04T09:00:51.000Z</time>
      </trkpt>
      <trkpt lat="43.75916" lon="7.07012">
        <ele>978.79998779297</ele>
        <time>2021-03-04T09:00:56.000Z</time>
      </trkpt>
      <trkpt lat="43.75915" lon="7.07011">
        <ele>979</ele>
        <time>2021-03-04T09:00:57.000Z</time>
      </trkpt>
      <trkpt lat="43.75913" lon="7.07013">
        <ele>979</ele>
        <time>2021-03-04T09:00:59.000Z</time>
      </trkpt>
      <trkpt lat="43.75908" lon="7.07014">
        <ele>979.20001220703</ele>
        <time>2021-03-04T09:01:02.000Z</time>
      </trkpt>
      <trkpt lat="43.75906" lon="7.07014">
        <ele>979.79998779297</ele>
        <time>2021-03-04T09:01:05.000Z</time>
      </trkpt>
      <trkpt lat="43.75906" lon="7.07014">
        <ele>980</ele>
        <time>2021-03-04T09:01:08.000Z</time>
      </trkpt>
      <trkpt lat="43.75906" lon="7.07013">
        <ele>979.40002441406</ele>
        <time>2021-03-04T09:01:35.000Z</time>
      </trkpt>
      <trkpt lat="43.75902" lon="7.07012">
        <ele>979.20001220703</ele>
        <time>2021-03-04T09:01:45.000Z</time>
      </trkpt>
      <trkpt lat="43.75898" lon="7.0701">
        <ele>979.20001220703</ele>
        <time>2021-03-04T09:01:47.000Z</time>
      </trkpt>
      <trkpt lat="43.75891" lon="7.07004">
        <ele>979.40002441406</ele>
        <time>2021-03-04T09:01:50.000Z</time>
      </trkpt>
      <trkpt lat="43.75888" lon="7.07003">
        <ele>979.59997558594</ele>
        <time>2021-03-04T09:01:51.000Z</time>
      </trkpt>
      <trkpt lat="43.75883" lon="7.07003">
        <ele>979.79998779297</ele>
        <time>2021-03-04T09:01:53.000Z</time>
      </trkpt>
      <trkpt lat="43.7588" lon="7.07008">
        <ele>979.79998779297</ele>
        <time>2021-03-04T09:01:55.000Z</time>
      </trkpt>
      <trkpt lat="43.75873" lon="7.0701">
        <ele>980.20001220703</ele>
        <time>2021-03-04T09:01:59.000Z</time>
      </trkpt>
      <trkpt lat="43.75873" lon="7.0701">
        <ele>980.79998779297</ele>
        <time>2021-03-04T09:02:04.000Z</time>
      </trkpt>
      <trkpt lat="43.75873" lon="7.07014">
        <ele>980.20001220703</ele>
        <time>2021-03-04T09:02:09.000Z</time>
      </trkpt>
      <trkpt lat="43.75872" lon="7.07019">
        <ele>980</ele>
        <time>2021-03-04T09:02:11.000Z</time>
      </trkpt>
      <trkpt lat="43.75872" lon="7.07022">
        <ele>980.20001220703</ele>
        <time>2021-03-04T09:02:13.000Z</time>
      </trkpt>
      <trkpt lat="43.75875" lon="7.07032">
        <ele>980.20001220703</ele>
        <time>2021-03-04T09:02:20.000Z</time>
      </trkpt>
      <trkpt lat="43.75876" lon="7.07036">
        <ele>980.20001220703</ele>
        <time>2021-03-04T09:02:23.000Z</time>
      </trkpt>
      <trkpt lat="43.75875" lon="7.0704">
        <ele>980.40002441406</ele>
        <time>2021-03-04T09:02:26.000Z</time>
      </trkpt>
      <trkpt lat="43.75874" lon="7.07044">
        <ele>980.59997558594</ele>
        <time>2021-03-04T09:02:30.000Z</time>
      </trkpt>
      <trkpt lat="43.75873" lon="7.07044">
        <ele>980.59997558594</ele>
        <time>2021-03-04T09:02:32.000Z</time>
      </trkpt>
      <trkpt lat="43.75872" lon="7.07044">
        <ele>980.59997558594</ele>
        <time>2021-03-04T09:02:44.000Z</time>
      </trkpt>
      <trkpt lat="43.75872" lon="7.07043">
        <ele>980.20001220703</ele>
        <time>2021-03-04T09:03:14.000Z</time>
      </trkpt>
      <trkpt lat="43.75872" lon="7.07043">
        <ele>980.59997558594</ele>
        <time>2021-03-04T09:03:30.000Z</time>
      </trkpt>
      <trkpt lat="43.75872" lon="7.07043">
        <ele>980</ele>
        <time>2021-03-04T09:03:42.000Z</time>
      </trkpt>
      <trkpt lat="43.75868" lon="7.07043">
        <ele>980</ele>
        <time>2021-03-04T09:04:00.000Z</time>
      </trkpt>
      <trkpt lat="43.75866" lon="7.07041">
        <ele>980.20001220703</ele>
        <time>2021-03-04T09:04:05.000Z</time>
      </trkpt>
      <trkpt lat="43.7586" lon="7.07039">
        <ele>980</ele>
        <time>2021-03-04T09:04:11.000Z</time>
      </trkpt>
      <trkpt lat="43.75859" lon="7.0704">
        <ele>980</ele>
        <time>2021-03-04T09:04:13.000Z</time>
      </trkpt>
      <trkpt lat="43.75856" lon="7.0704">
        <ele>980</ele>
        <time>2021-03-04T09:04:21.000Z</time>
      </trkpt>
      <trkpt lat="43.75854" lon="7.07042">
        <ele>980</ele>
        <time>2021-03-04T09:04:28.000Z</time>
      </trkpt>
      <trkpt lat="43.75855" lon="7.07045">
        <ele>980</ele>
        <time>2021-03-04T09:04:31.000Z</time>
      </trkpt>
      <trkpt lat="43.75855" lon="7.07047">
        <ele>980.20001220703</ele>
        <time>2021-03-04T09:04:33.000Z</time>
      </trkpt>
      <trkpt lat="43.75854" lon="7.07054">
        <ele>980.59997558594</ele>
        <time>2021-03-04T09:04:40.000Z</time>
      </trkpt>
      <trkpt lat="43.75852" lon="7.07059">
        <ele>980.79998779297</ele>
        <time>2021-03-04T09:04:44.000Z</time>
      </trkpt>
      <trkpt lat="43.7585" lon="7.07058">
        <ele>980.59997558594</ele>
        <time>2021-03-04T09:04:46.000Z</time>
      </trkpt>
      <trkpt lat="43.75847" lon="7.07059">
        <ele>980.20001220703</ele>
        <time>2021-03-04T09:04:53.000Z</time>
      </trkpt>
      <trkpt lat="43.75847" lon="7.07058">
        <ele>980.20001220703</ele>
        <time>2021-03-04T09:05:06.000Z</time>
      </trkpt>
      <trkpt lat="43.75849" lon="7.07058">
        <ele>980.20001220703</ele>
        <time>2021-03-04T09:05:13.000Z</time>
      </trkpt>
      <trkpt lat="43.75849" lon="7.07059">
        <ele>980.20001220703</ele>
        <time>2021-03-04T09:05:14.000Z</time>
      </trkpt>
      <trkpt lat="43.75851" lon="7.07058">
        <ele>980.40002441406</ele>
        <time>2021-03-04T09:05:21.000Z</time>
      </trkpt>
      <trkpt lat="43.75853" lon="7.07057">
        <ele>980.40002441406</ele>
        <time>2021-03-04T09:05:33.000Z</time>
      </trkpt>
      <trkpt lat="43.75855" lon="7.07059">
        <ele>980.20001220703</ele>
        <time>2021-03-04T09:05:40.000Z</time>
      </trkpt>
      <trkpt lat="43.75855" lon="7.07057">
        <ele>980.20001220703</ele>
        <time>2021-03-04T09:05:45.000Z</time>
      </trkpt>
      <trkpt lat="43.75857" lon="7.07057">
        <ele>980.20001220703</ele>
        <time>2021-03-04T09:05:46.000Z</time>
      </trkpt>
      <trkpt lat="43.75862" lon="7.07054">
        <ele>980.40002441406</ele>
        <time>2021-03-04T09:05:51.000Z</time>
      </trkpt>
      <trkpt lat="43.75862" lon="7.07054">
        <ele>980.40002441406</ele>
        <time>2021-03-04T09:05:52.000Z</time>
      </trkpt>
      <trkpt lat="43.75863" lon="7.07051">
        <ele>980.40002441406</ele>
        <time>2021-03-04T09:05:54.000Z</time>
      </trkpt>
      <trkpt lat="43.75866" lon="7.07047">
        <ele>980.20001220703</ele>
        <time>2021-03-04T09:05:59.000Z</time>
      </trkpt>
      <trkpt lat="43.7587" lon="7.07043">
        <ele>980</ele>
        <time>2021-03-04T09:06:04.000Z</time>
      </trkpt>
      <trkpt lat="43.75873" lon="7.07044">
        <ele>980.20001220703</ele>
        <time>2021-03-04T09:06:07.000Z</time>
      </trkpt>
      <trkpt lat="43.75875" lon="7.07044">
        <ele>980.20001220703</ele>
        <time>2021-03-04T09:06:09.000Z</time>
      </trkpt>
      <trkpt lat="43.75878" lon="7.07038">
        <ele>979.40002441406</ele>
        <time>2021-03-04T09:06:15.000Z</time>
      </trkpt>
      <trkpt lat="43.7588" lon="7.07036">
        <ele>979.40002441406</ele>
        <time>2021-03-04T09:06:20.000Z</time>
      </trkpt>
      <trkpt lat="43.75879" lon="7.07034">
        <ele>979.20001220703</ele>
        <time>2021-03-04T09:06:22.000Z</time>
      </trkpt>
      <trkpt lat="43.7588" lon="7.07032">
        <ele>979.20001220703</ele>
        <time>2021-03-04T09:06:25.000Z</time>
      </trkpt>
      <trkpt lat="43.75881" lon="7.07031">
        <ele>979.40002441406</ele>
        <time>2021-03-04T09:06:26.000Z</time>
      </trkpt>
      <trkpt lat="43.75884" lon="7.07032">
        <ele>978.79998779297</ele>
        <time>2021-03-04T09:06:31.000Z</time>
      </trkpt>
      <trkpt lat="43.75885" lon="7.07032">
        <ele>978.79998779297</ele>
        <time>2021-03-04T09:06:32.000Z</time>
      </trkpt>
      <trkpt lat="43.75888" lon="7.07029">
        <ele>978.79998779297</ele>
        <time>2021-03-04T09:06:37.000Z</time>
      </trkpt>
      <trkpt lat="43.75894" lon="7.07022">
        <ele>978.79998779297</ele>
        <time>2021-03-04T09:06:44.000Z</time>
      </trkpt>
      <trkpt lat="43.75899" lon="7.07014">
        <ele>978.40002441406</ele>
        <time>2021-03-04T09:06:51.000Z</time>
      </trkpt>
      <trkpt lat="43.75898" lon="7.07011">
        <ele>978.40002441406</ele>
        <time>2021-03-04T09:06:58.000Z</time>
      </trkpt>
      <trkpt lat="43.75899" lon="7.07012">
        <ele>978.40002441406</ele>
        <time>2021-03-04T09:06:59.000Z</time>
      </trkpt>
      <trkpt lat="43.75901" lon="7.07013">
        <ele>978.20001220703</ele>
        <time>2021-03-04T09:07:02.000Z</time>
      </trkpt>
      <trkpt lat="43.75902" lon="7.07014">
        <ele>978.20001220703</ele>
        <time>2021-03-04T09:07:03.000Z</time>
      </trkpt>
      <trkpt lat="43.75913" lon="7.07014">
        <ele>978</ele>
        <time>2021-03-04T09:07:08.000Z</time>
      </trkpt>
      <trkpt lat="43.75915" lon="7.07011">
        <ele>978.20001220703</ele>
        <time>2021-03-04T09:07:09.000Z</time>
      </trkpt>
      <trkpt lat="43.75921" lon="7.07">
        <ele>978</ele>
        <time>2021-03-04T09:07:12.000Z</time>
      </trkpt>
      <trkpt lat="43.75925" lon="7.06992">
        <ele>978</ele>
        <time>2021-03-04T09:07:14.000Z</time>
      </trkpt>
      <trkpt lat="43.75926" lon="7.06987">
        <ele>977.79998779297</ele>
        <time>2021-03-04T09:07:15.000Z</time>
      </trkpt>
      <trkpt lat="43.75926" lon="7.06981">
        <ele>977.79998779297</ele>
        <time>2021-03-04T09:07:16.000Z</time>
      </trkpt>
      <trkpt lat="43.75926" lon="7.06976">
        <ele>977.59997558594</ele>
        <time>2021-03-04T09:07:17.000Z</time>
      </trkpt>
      <trkpt lat="43.75927" lon="7.06965">
        <ele>976.79998779297</ele>
        <time>2021-03-04T09:07:20.000Z</time>
      </trkpt>
      <trkpt lat="43.75926" lon="7.06962">
        <ele>976.40002441406</ele>
        <time>2021-03-04T09:07:21.000Z</time>
      </trkpt>
      <trkpt lat="43.75923" lon="7.06953">
        <ele>975.20001220703</ele>
        <time>2021-03-04T09:07:24.000Z</time>
      </trkpt>
      <trkpt lat="43.7592" lon="7.06938">
        <ele>975</ele>
        <time>2021-03-04T09:07:28.000Z</time>
      </trkpt>
      <trkpt lat="43.75908" lon="7.06936">
        <ele>974.59997558594</ele>
        <time>2021-03-04T09:07:32.000Z</time>
      </trkpt>
      <trkpt lat="43.75896" lon="7.06931">
        <ele>974.59997558594</ele>
        <time>2021-03-04T09:07:36.000Z</time>
      </trkpt>
      <trkpt lat="43.75882" lon="7.06927">
        <ele>975.40002441406</ele>
        <time>2021-03-04T09:07:41.000Z</time>
      </trkpt>
      <trkpt lat="43.75868" lon="7.06922">
        <ele>975.59997558594</ele>
        <time>2021-03-04T09:07:46.000Z</time>
      </trkpt>
      <trkpt lat="43.75853" lon="7.06925">
        <ele>975.40002441406</ele>
        <time>2021-03-04T09:07:51.000Z</time>
      </trkpt>
      <trkpt lat="43.75843" lon="7.06919">
        <ele>975.59997558594</ele>
        <time>2021-03-04T09:07:55.000Z</time>
      </trkpt>
      <trkpt lat="43.75833" lon="7.06902">
        <ele>976</ele>
        <time>2021-03-04T09:08:00.000Z</time>
      </trkpt>
      <trkpt lat="43.75827" lon="7.06894">
        <ele>976</ele>
        <time>2021-03-04T09:08:02.000Z</time>
      </trkpt>
      <trkpt lat="43.7582" lon="7.06887">
        <ele>975.59997558594</ele>
        <time>2021-03-04T09:08:04.000Z</time>
      </trkpt>
      <trkpt lat="43.75812" lon="7.06877">
        <ele>975.40002441406</ele>
        <time>2021-03-04T09:08:06.000Z</time>
      </trkpt>
      <trkpt lat="43.75805" lon="7.06871">
        <ele>975.20001220703</ele>
        <time>2021-03-04T09:08:08.000Z</time>
      </trkpt>
      <trkpt lat="43.75787" lon="7.06866">
        <ele>975.20001220703</ele>
        <time>2021-03-04T09:08:13.000Z</time>
      </trkpt>
      <trkpt lat="43.75776" lon="7.06864">
        <ele>976.40002441406</ele>
        <time>2021-03-04T09:08:16.000Z</time>
      </trkpt>
      <trkpt lat="43.75772" lon="7.06862">
        <ele>976.79998779297</ele>
        <time>2021-03-04T09:08:17.000Z</time>
      </trkpt>
      <trkpt lat="43.75768" lon="7.06859">
        <ele>977</ele>
        <time>2021-03-04T09:08:18.000Z</time>
      </trkpt>
      <trkpt lat="43.7576" lon="7.06855">
        <ele>977.40002441406</ele>
        <time>2021-03-04T09:08:20.000Z</time>
      </trkpt>
      <trkpt lat="43.75751" lon="7.06852">
        <ele>977.59997558594</ele>
        <time>2021-03-04T09:08:22.000Z</time>
      </trkpt>
      <trkpt lat="43.75735" lon="7.06845">
        <ele>977.40002441406</ele>
        <time>2021-03-04T09:08:27.000Z</time>
      </trkpt>
      <trkpt lat="43.75725" lon="7.06828">
        <ele>977</ele>
        <time>2021-03-04T09:08:31.000Z</time>
      </trkpt>
      <trkpt lat="43.75722" lon="7.06822">
        <ele>976.79998779297</ele>
        <time>2021-03-04T09:08:32.000Z</time>
      </trkpt>
      <trkpt lat="43.75719" lon="7.06818">
        <ele>976</ele>
        <time>2021-03-04T09:08:33.000Z</time>
      </trkpt>
      <trkpt lat="43.7571" lon="7.06804">
        <ele>974.59997558594</ele>
        <time>2021-03-04T09:08:36.000Z</time>
      </trkpt>
      <trkpt lat="43.75701" lon="7.06793">
        <ele>973.59997558594</ele>
        <time>2021-03-04T09:08:38.000Z</time>
      </trkpt>
      <trkpt lat="43.75697" lon="7.06787">
        <ele>973.20001220703</ele>
        <time>2021-03-04T09:08:39.000Z</time>
      </trkpt>
      <trkpt lat="43.7569" lon="7.06776">
        <ele>971.79998779297</ele>
        <time>2021-03-04T09:08:41.000Z</time>
      </trkpt>
      <trkpt lat="43.75685" lon="7.06765">
        <ele>970.40002441406</ele>
        <time>2021-03-04T09:08:43.000Z</time>
      </trkpt>
      <trkpt lat="43.75679" lon="7.06755">
        <ele>970.20001220703</ele>
        <time>2021-03-04T09:08:45.000Z</time>
      </trkpt>
      <trkpt lat="43.75672" lon="7.06745">
        <ele>970</ele>
        <time>2021-03-04T09:08:47.000Z</time>
      </trkpt>
      <trkpt lat="43.75666" lon="7.06734">
        <ele>970.40002441406</ele>
        <time>2021-03-04T09:08:49.000Z</time>
      </trkpt>
      <trkpt lat="43.75666" lon="7.06729">
        <ele>970.20001220703</ele>
        <time>2021-03-04T09:08:50.000Z</time>
      </trkpt>
      <trkpt lat="43.75667" lon="7.06724">
        <ele>969.20001220703</ele>
        <time>2021-03-04T09:08:51.000Z</time>
      </trkpt>
      <trkpt lat="43.75667" lon="7.06719">
        <ele>969.20001220703</ele>
        <time>2021-03-04T09:08:52.000Z</time>
      </trkpt>
      <trkpt lat="43.75661" lon="7.0671">
        <ele>968</ele>
        <time>2021-03-04T09:08:54.000Z</time>
      </trkpt>
      <trkpt lat="43.75658" lon="7.06705">
        <ele>967.40002441406</ele>
        <time>2021-03-04T09:08:55.000Z</time>
      </trkpt>
      <trkpt lat="43.75651" lon="7.06695">
        <ele>967</ele>
        <time>2021-03-04T09:08:57.000Z</time>
      </trkpt>
      <trkpt lat="43.75636" lon="7.06663">
        <ele>966.59997558594</ele>
        <time>2021-03-04T09:09:02.000Z</time>
      </trkpt>
      <trkpt lat="43.75629" lon="7.06653">
        <ele>966.59997558594</ele>
        <time>2021-03-04T09:09:04.000Z</time>
      </trkpt>
      <trkpt lat="43.75618" lon="7.06642">
        <ele>967</ele>
        <time>2021-03-04T09:09:07.000Z</time>
      </trkpt>
      <trkpt lat="43.75608" lon="7.06629">
        <ele>968</ele>
        <time>2021-03-04T09:09:10.000Z</time>
      </trkpt>
      <trkpt lat="43.75598" lon="7.06618">
        <ele>969</ele>
        <time>2021-03-04T09:09:13.000Z</time>
      </trkpt>
      <trkpt lat="43.75595" lon="7.06613">
        <ele>969.40002441406</ele>
        <time>2021-03-04T09:09:14.000Z</time>
      </trkpt>
      <trkpt lat="43.75587" lon="7.06603">
        <ele>970.40002441406</ele>
        <time>2021-03-04T09:09:17.000Z</time>
      </trkpt>
      <trkpt lat="43.75581" lon="7.06598">
        <ele>971.40002441406</ele>
        <time>2021-03-04T09:09:19.000Z</time>
      </trkpt>
      <trkpt lat="43.75579" lon="7.06594">
        <ele>971.59997558594</ele>
        <time>2021-03-04T09:09:20.000Z</time>
      </trkpt>
      <trkpt lat="43.75573" lon="7.06587">
        <ele>972.79998779297</ele>
        <time>2021-03-04T09:09:22.000Z</time>
      </trkpt>
      <trkpt lat="43.75566" lon="7.06575">
        <ele>973.40002441406</ele>
        <time>2021-03-04T09:09:25.000Z</time>
      </trkpt>
      <trkpt lat="43.7556" lon="7.06566">
        <ele>973.79998779297</ele>
        <time>2021-03-04T09:09:27.000Z</time>
      </trkpt>
      <trkpt lat="43.7555" lon="7.06549">
        <ele>975.20001220703</ele>
        <time>2021-03-04T09:09:31.000Z</time>
      </trkpt>
      <trkpt lat="43.75544" lon="7.0654">
        <ele>975.59997558594</ele>
        <time>2021-03-04T09:09:33.000Z</time>
      </trkpt>
      <trkpt lat="43.7554" lon="7.06527">
        <ele>975.79998779297</ele>
        <time>2021-03-04T09:09:35.000Z</time>
      </trkpt>
      <trkpt lat="43.75535" lon="7.06513">
        <ele>975.79998779297</ele>
        <time>2021-03-04T09:09:37.000Z</time>
      </trkpt>
      <trkpt lat="43.75522" lon="7.06492">
        <ele>974.20001220703</ele>
        <time>2021-03-04T09:09:41.000Z</time>
      </trkpt>
      <trkpt lat="43.75518" lon="7.06488">
        <ele>974</ele>
        <time>2021-03-04T09:09:42.000Z</time>
      </trkpt>
      <trkpt lat="43.75505" lon="7.06474">
        <ele>973.40002441406</ele>
        <time>2021-03-04T09:09:47.000Z</time>
      </trkpt>
      <trkpt lat="43.75489" lon="7.06455">
        <ele>973.59997558594</ele>
        <time>2021-03-04T09:09:52.000Z</time>
      </trkpt>
      <trkpt lat="43.75478" lon="7.06443">
        <ele>974.20001220703</ele>
        <time>2021-03-04T09:09:56.000Z</time>
      </trkpt>
      <trkpt lat="43.75468" lon="7.06438">
        <ele>975.20001220703</ele>
        <time>2021-03-04T09:09:59.000Z</time>
      </trkpt>
      <trkpt lat="43.75451" lon="7.06436">
        <ele>976</ele>
        <time>2021-03-04T09:10:04.000Z</time>
      </trkpt>
      <trkpt lat="43.75445" lon="7.06437">
        <ele>976.20001220703</ele>
        <time>2021-03-04T09:10:06.000Z</time>
      </trkpt>
      <trkpt lat="43.75439" lon="7.06438">
        <ele>976.59997558594</ele>
        <time>2021-03-04T09:10:08.000Z</time>
      </trkpt>
      <trkpt lat="43.75433" lon="7.06442">
        <ele>977</ele>
        <time>2021-03-04T09:10:10.000Z</time>
      </trkpt>
      <trkpt lat="43.7542" lon="7.06444">
        <ele>976.59997558594</ele>
        <time>2021-03-04T09:10:14.000Z</time>
      </trkpt>
      <trkpt lat="43.75406" lon="7.06444">
        <ele>976</ele>
        <time>2021-03-04T09:10:19.000Z</time>
      </trkpt>
      <trkpt lat="43.75401" lon="7.06438">
        <ele>976.59997558594</ele>
        <time>2021-03-04T09:10:21.000Z</time>
      </trkpt>
      <trkpt lat="43.75395" lon="7.06436">
        <ele>976.59997558594</ele>
        <time>2021-03-04T09:10:23.000Z</time>
      </trkpt>
      <trkpt lat="43.75381" lon="7.06437">
        <ele>976.59997558594</ele>
        <time>2021-03-04T09:10:27.000Z</time>
      </trkpt>
      <trkpt lat="43.75377" lon="7.06436">
        <ele>976.59997558594</ele>
        <time>2021-03-04T09:10:28.000Z</time>
      </trkpt>
      <trkpt lat="43.7537" lon="7.06429">
        <ele>977.20001220703</ele>
        <time>2021-03-04T09:10:32.000Z</time>
      </trkpt>
      <trkpt lat="43.75369" lon="7.06426">
        <ele>977.79998779297</ele>
        <time>2021-03-04T09:10:33.000Z</time>
      </trkpt>
      <trkpt lat="43.75365" lon="7.06415">
        <ele>979.20001220703</ele>
        <time>2021-03-04T09:10:36.000Z</time>
      </trkpt>
      <trkpt lat="43.75361" lon="7.06404">
        <ele>980.20001220703</ele>
        <time>2021-03-04T09:10:39.000Z</time>
      </trkpt>
      <trkpt lat="43.75351" lon="7.06397">
        <ele>981.40002441406</ele>
        <time>2021-03-04T09:10:43.000Z</time>
      </trkpt>
      <trkpt lat="43.75342" lon="7.06393">
        <ele>982</ele>
        <time>2021-03-04T09:10:46.000Z</time>
      </trkpt>
      <trkpt lat="43.75334" lon="7.06385">
        <ele>982.59997558594</ele>
        <time>2021-03-04T09:10:49.000Z</time>
      </trkpt>
      <trkpt lat="43.7532" lon="7.06382">
        <ele>983.40002441406</ele>
        <time>2021-03-04T09:10:53.000Z</time>
      </trkpt>
      <trkpt lat="43.75317" lon="7.06382">
        <ele>983.59997558594</ele>
        <time>2021-03-04T09:10:54.000Z</time>
      </trkpt>
      <trkpt lat="43.75315" lon="7.06384">
        <ele>983.79998779297</ele>
        <time>2021-03-04T09:10:55.000Z</time>
      </trkpt>
      <trkpt lat="43.75309" lon="7.0639">
        <ele>984.40002441406</ele>
        <time>2021-03-04T09:10:57.000Z</time>
      </trkpt>
      <trkpt lat="43.75306" lon="7.06391">
        <ele>984.59997558594</ele>
        <time>2021-03-04T09:10:58.000Z</time>
      </trkpt>
      <trkpt lat="43.75302" lon="7.06388">
        <ele>984.79998779297</ele>
        <time>2021-03-04T09:11:00.000Z</time>
      </trkpt>
      <trkpt lat="43.75286" lon="7.06382">
        <ele>985.40002441406</ele>
        <time>2021-03-04T09:11:06.000Z</time>
      </trkpt>
      <trkpt lat="43.75283" lon="7.06381">
        <ele>985.59997558594</ele>
        <time>2021-03-04T09:11:07.000Z</time>
      </trkpt>
      <trkpt lat="43.7527" lon="7.06373">
        <ele>986.20001220703</ele>
        <time>2021-03-04T09:11:13.000Z</time>
      </trkpt>
      <trkpt lat="43.75269" lon="7.06372">
        <ele>985.59997558594</ele>
        <time>2021-03-04T09:11:19.000Z</time>
      </trkpt>
      <trkpt lat="43.75268" lon="7.06369">
        <ele>985</ele>
        <time>2021-03-04T09:11:36.000Z</time>
      </trkpt>
      <trkpt lat="43.75268" lon="7.06365">
        <ele>985</ele>
        <time>2021-03-04T09:11:38.000Z</time>
      </trkpt>
      <trkpt lat="43.75264" lon="7.0634">
        <ele>984.79998779297</ele>
        <time>2021-03-04T09:11:45.000Z</time>
      </trkpt>
      <trkpt lat="43.75261" lon="7.06335">
        <ele>984.79998779297</ele>
        <time>2021-03-04T09:11:47.000Z</time>
      </trkpt>
      <trkpt lat="43.75255" lon="7.06325">
        <ele>984.59997558594</ele>
        <time>2021-03-04T09:11:50.000Z</time>
      </trkpt>
      <trkpt lat="43.75256" lon="7.0632">
        <ele>984.79998779297</ele>
        <time>2021-03-04T09:11:51.000Z</time>
      </trkpt>
      <trkpt lat="43.75258" lon="7.06311">
        <ele>984.59997558594</ele>
        <time>2021-03-04T09:11:53.000Z</time>
      </trkpt>
      <trkpt lat="43.75254" lon="7.06299">
        <ele>983.79998779297</ele>
        <time>2021-03-04T09:11:56.000Z</time>
      </trkpt>
      <trkpt lat="43.75252" lon="7.06295">
        <ele>983.40002441406</ele>
        <time>2021-03-04T09:11:57.000Z</time>
      </trkpt>
      <trkpt lat="43.75242" lon="7.06278">
        <ele>983.20001220703</ele>
        <time>2021-03-04T09:12:01.000Z</time>
      </trkpt>
      <trkpt lat="43.75238" lon="7.0626">
        <ele>983.59997558594</ele>
        <time>2021-03-04T09:12:05.000Z</time>
      </trkpt>
      <trkpt lat="43.75229" lon="7.06241">
        <ele>984.59997558594</ele>
        <time>2021-03-04T09:12:10.000Z</time>
      </trkpt>
      <trkpt lat="43.75227" lon="7.06227">
        <ele>985.20001220703</ele>
        <time>2021-03-04T09:12:14.000Z</time>
      </trkpt>
      <trkpt lat="43.75227" lon="7.06211">
        <ele>984.79998779297</ele>
        <time>2021-03-04T09:12:19.000Z</time>
      </trkpt>
      <trkpt lat="43.75231" lon="7.06198">
        <ele>984.79998779297</ele>
        <time>2021-03-04T09:12:23.000Z</time>
      </trkpt>
      <trkpt lat="43.75226" lon="7.06188">
        <ele>984</ele>
        <time>2021-03-04T09:12:27.000Z</time>
      </trkpt>
      <trkpt lat="43.75223" lon="7.06184">
        <ele>983.20001220703</ele>
        <time>2021-03-04T09:12:29.000Z</time>
      </trkpt>
      <trkpt lat="43.75223" lon="7.06181">
        <ele>982.59997558594</ele>
        <time>2021-03-04T09:12:30.000Z</time>
      </trkpt>
      <trkpt lat="43.75223" lon="7.06179">
        <ele>981.79998779297</ele>
        <time>2021-03-04T09:12:31.000Z</time>
      </trkpt>
      <trkpt lat="43.75223" lon="7.0618">
        <ele>981.40002441406</ele>
        <time>2021-03-04T09:12:32.000Z</time>
      </trkpt>
      <trkpt lat="43.75223" lon="7.0618">
        <ele>980.79998779297</ele>
        <time>2021-03-04T09:12:33.000Z</time>
      </trkpt>
      <trkpt lat="43.75227" lon="7.06182">
        <ele>980.59997558594</ele>
        <time>2021-03-04T09:12:37.000Z</time>
      </trkpt>
      <trkpt lat="43.75228" lon="7.06182">
        <ele>980.59997558594</ele>
        <time>2021-03-04T09:12:38.000Z</time>
      </trkpt>
      <trkpt lat="43.75234" lon="7.06184">
        <ele>980.79998779297</ele>
        <time>2021-03-04T09:12:41.000Z</time>
      </trkpt>
      <trkpt lat="43.75238" lon="7.06184">
        <ele>981.40002441406</ele>
        <time>2021-03-04T09:12:43.000Z</time>
      </trkpt>
      <trkpt lat="43.75242" lon="7.06184">
        <ele>982</ele>
        <time>2021-03-04T09:12:45.000Z</time>
      </trkpt>
      <trkpt lat="43.75244" lon="7.06183">
        <ele>982.40002441406</ele>
        <time>2021-03-04T09:12:46.000Z</time>
      </trkpt>
      <trkpt lat="43.75244" lon="7.06182">
        <ele>983.40002441406</ele>
        <time>2021-03-04T09:12:48.000Z</time>
      </trkpt>
      <trkpt lat="43.75244" lon="7.06182">
        <ele>983.59997558594</ele>
        <time>2021-03-04T09:12:49.000Z</time>
      </trkpt>
      <trkpt lat="43.7524" lon="7.06186">
        <ele>984.40002441406</ele>
        <time>2021-03-04T09:12:54.000Z</time>
      </trkpt>
      <trkpt lat="43.75236" lon="7.06186">
        <ele>984.40002441406</ele>
        <time>2021-03-04T09:12:55.000Z</time>
      </trkpt>
      <trkpt lat="43.75228" lon="7.06183">
        <ele>984.40002441406</ele>
        <time>2021-03-04T09:12:57.000Z</time>
      </trkpt>
      <trkpt lat="43.75218" lon="7.06178">
        <ele>984</ele>
        <time>2021-03-04T09:12:59.000Z</time>
      </trkpt>
      <trkpt lat="43.75212" lon="7.06177">
        <ele>983.40002441406</ele>
        <time>2021-03-04T09:13:00.000Z</time>
      </trkpt>
      <trkpt lat="43.75205" lon="7.06178">
        <ele>982.59997558594</ele>
        <time>2021-03-04T09:13:01.000Z</time>
      </trkpt>
      <trkpt lat="43.752" lon="7.06179">
        <ele>981.79998779297</ele>
        <time>2021-03-04T09:13:02.000Z</time>
      </trkpt>
      <trkpt lat="43.75195" lon="7.06178">
        <ele>981</ele>
        <time>2021-03-04T09:13:03.000Z</time>
      </trkpt>
      <trkpt lat="43.75191" lon="7.06176">
        <ele>980</ele>
        <time>2021-03-04T09:13:04.000Z</time>
      </trkpt>
      <trkpt lat="43.75188" lon="7.0617">
        <ele>979.59997558594</ele>
        <time>2021-03-04T09:13:05.000Z</time>
      </trkpt>
      <trkpt lat="43.75182" lon="7.06162">
        <ele>979</ele>
        <time>2021-03-04T09:13:07.000Z</time>
      </trkpt>
      <trkpt lat="43.75171" lon="7.06146">
        <ele>979</ele>
        <time>2021-03-04T09:13:11.000Z</time>
      </trkpt>
      <trkpt lat="43.75164" lon="7.06137">
        <ele>978.20001220703</ele>
        <time>2021-03-04T09:13:13.000Z</time>
      </trkpt>
      <trkpt lat="43.75158" lon="7.06127">
        <ele>977.20001220703</ele>
        <time>2021-03-04T09:13:15.000Z</time>
      </trkpt>
      <trkpt lat="43.7515" lon="7.06116">
        <ele>976.20001220703</ele>
        <time>2021-03-04T09:13:18.000Z</time>
      </trkpt>
      <trkpt lat="43.75142" lon="7.06108">
        <ele>976.40002441406</ele>
        <time>2021-03-04T09:13:20.000Z</time>
      </trkpt>
      <trkpt lat="43.75138" lon="7.06105">
        <ele>976</ele>
        <time>2021-03-04T09:13:21.000Z</time>
      </trkpt>
      <trkpt lat="43.75125" lon="7.06091">
        <ele>976</ele>
        <time>2021-03-04T09:13:25.000Z</time>
      </trkpt>
      <trkpt lat="43.7511" lon="7.06077">
        <ele>976.20001220703</ele>
        <time>2021-03-04T09:13:30.000Z</time>
      </trkpt>
      <trkpt lat="43.75103" lon="7.06073">
        <ele>976.40002441406</ele>
        <time>2021-03-04T09:13:33.000Z</time>
      </trkpt>
      <trkpt lat="43.75098" lon="7.0607">
        <ele>976</ele>
        <time>2021-03-04T09:13:35.000Z</time>
      </trkpt>
      <trkpt lat="43.75092" lon="7.06065">
        <ele>975.20001220703</ele>
        <time>2021-03-04T09:13:37.000Z</time>
      </trkpt>
      <trkpt lat="43.75088" lon="7.06064">
        <ele>975</ele>
        <time>2021-03-04T09:13:38.000Z</time>
      </trkpt>
      <trkpt lat="43.75085" lon="7.06061">
        <ele>974.40002441406</ele>
        <time>2021-03-04T09:13:39.000Z</time>
      </trkpt>
      <trkpt lat="43.75083" lon="7.06056">
        <ele>973.20001220703</ele>
        <time>2021-03-04T09:13:40.000Z</time>
      </trkpt>
      <trkpt lat="43.7508" lon="7.06051">
        <ele>972.59997558594</ele>
        <time>2021-03-04T09:13:41.000Z</time>
      </trkpt>
      <trkpt lat="43.75072" lon="7.06048">
        <ele>972</ele>
        <time>2021-03-04T09:13:43.000Z</time>
      </trkpt>
      <trkpt lat="43.75068" lon="7.06048">
        <ele>971.79998779297</ele>
        <time>2021-03-04T09:13:44.000Z</time>
      </trkpt>
      <trkpt lat="43.75055" lon="7.06035">
        <ele>972</ele>
        <time>2021-03-04T09:13:48.000Z</time>
      </trkpt>
      <trkpt lat="43.75036" lon="7.06023">
        <ele>972.59997558594</ele>
        <time>2021-03-04T09:13:53.000Z</time>
      </trkpt>
      <trkpt lat="43.75032" lon="7.06007">
        <ele>972.40002441406</ele>
        <time>2021-03-04T09:13:56.000Z</time>
      </trkpt>
      <trkpt lat="43.7503" lon="7.05983">
        <ele>972.20001220703</ele>
        <time>2021-03-04T09:14:00.000Z</time>
      </trkpt>
      <trkpt lat="43.75029" lon="7.05978">
        <ele>972.40002441406</ele>
        <time>2021-03-04T09:14:01.000Z</time>
      </trkpt>
      <trkpt lat="43.75027" lon="7.05955">
        <ele>972.59997558594</ele>
        <time>2021-03-04T09:14:05.000Z</time>
      </trkpt>
      <trkpt lat="43.75026" lon="7.05944">
        <ele>972.20001220703</ele>
        <time>2021-03-04T09:14:09.000Z</time>
      </trkpt>
      <trkpt lat="43.75026" lon="7.05945">
        <ele>971.79998779297</ele>
        <time>2021-03-04T09:14:15.000Z</time>
      </trkpt>
      <trkpt lat="43.75024" lon="7.05943">
        <ele>971.59997558594</ele>
        <time>2021-03-04T09:14:21.000Z</time>
      </trkpt>
      <trkpt lat="43.75022" lon="7.05938">
        <ele>971.40002441406</ele>
        <time>2021-03-04T09:14:23.000Z</time>
      </trkpt>
      <trkpt lat="43.75015" lon="7.0592">
        <ele>970.79998779297</ele>
        <time>2021-03-04T09:14:28.000Z</time>
      </trkpt>
      <trkpt lat="43.75015" lon="7.05917">
        <ele>970.79998779297</ele>
        <time>2021-03-04T09:14:29.000Z</time>
      </trkpt>
      <trkpt lat="43.75009" lon="7.05902">
        <ele>971.40002441406</ele>
        <time>2021-03-04T09:14:34.000Z</time>
      </trkpt>
      <trkpt lat="43.75007" lon="7.05893">
        <ele>972.40002441406</ele>
        <time>2021-03-04T09:14:37.000Z</time>
      </trkpt>
      <trkpt lat="43.75006" lon="7.05885">
        <ele>973.20001220703</ele>
        <time>2021-03-04T09:14:40.000Z</time>
      </trkpt>
      <trkpt lat="43.75007" lon="7.05881">
        <ele>973.40002441406</ele>
        <time>2021-03-04T09:14:41.000Z</time>
      </trkpt>
      <trkpt lat="43.75006" lon="7.05865">
        <ele>974.59997558594</ele>
        <time>2021-03-04T09:14:45.000Z</time>
      </trkpt>
      <trkpt lat="43.75006" lon="7.05862">
        <ele>974.79998779297</ele>
        <time>2021-03-04T09:14:46.000Z</time>
      </trkpt>
      <trkpt lat="43.75003" lon="7.05851">
        <ele>975.59997558594</ele>
        <time>2021-03-04T09:14:49.000Z</time>
      </trkpt>
      <trkpt lat="43.75001" lon="7.05848">
        <ele>975.79998779297</ele>
        <time>2021-03-04T09:14:50.000Z</time>
      </trkpt>
      <trkpt lat="43.74999" lon="7.05844">
        <ele>975.79998779297</ele>
        <time>2021-03-04T09:14:51.000Z</time>
      </trkpt>
      <trkpt lat="43.74993" lon="7.05819">
        <ele>975.59997558594</ele>
        <time>2021-03-04T09:14:57.000Z</time>
      </trkpt>
      <trkpt lat="43.74983" lon="7.058">
        <ele>975.59997558594</ele>
        <time>2021-03-04T09:15:02.000Z</time>
      </trkpt>
      <trkpt lat="43.74969" lon="7.05786">
        <ele>975.59997558594</ele>
        <time>2021-03-04T09:15:07.000Z</time>
      </trkpt>
      <trkpt lat="43.74967" lon="7.05782">
        <ele>975.40002441406</ele>
        <time>2021-03-04T09:15:08.000Z</time>
      </trkpt>
      <trkpt lat="43.74962" lon="7.05772">
        <ele>975.40002441406</ele>
        <time>2021-03-04T09:15:10.000Z</time>
      </trkpt>
      <trkpt lat="43.74959" lon="7.05758">
        <ele>975.40002441406</ele>
        <time>2021-03-04T09:15:13.000Z</time>
      </trkpt>
      <trkpt lat="43.74963" lon="7.05742">
        <ele>975.40002441406</ele>
        <time>2021-03-04T09:15:17.000Z</time>
      </trkpt>
      <trkpt lat="43.74976" lon="7.05717">
        <ele>976</ele>
        <time>2021-03-04T09:15:23.000Z</time>
      </trkpt>
      <trkpt lat="43.74979" lon="7.05709">
        <ele>976.59997558594</ele>
        <time>2021-03-04T09:15:25.000Z</time>
      </trkpt>
      <trkpt lat="43.74986" lon="7.05699">
        <ele>977.79998779297</ele>
        <time>2021-03-04T09:15:28.000Z</time>
      </trkpt>
      <trkpt lat="43.7499" lon="7.05691">
        <ele>978</ele>
        <time>2021-03-04T09:15:30.000Z</time>
      </trkpt>
      <trkpt lat="43.74998" lon="7.0568">
        <ele>978.79998779297</ele>
        <time>2021-03-04T09:15:35.000Z</time>
      </trkpt>
      <trkpt lat="43.75003" lon="7.0568">
        <ele>979.59997558594</ele>
        <time>2021-03-04T09:15:38.000Z</time>
      </trkpt>
      <trkpt lat="43.75006" lon="7.05681">
        <ele>979.79998779297</ele>
        <time>2021-03-04T09:15:40.000Z</time>
      </trkpt>
      <trkpt lat="43.75014" lon="7.05681">
        <ele>979.79998779297</ele>
        <time>2021-03-04T09:15:43.000Z</time>
      </trkpt>
      <trkpt lat="43.75019" lon="7.05678">
        <ele>980</ele>
        <time>2021-03-04T09:15:45.000Z</time>
      </trkpt>
      <trkpt lat="43.75036" lon="7.05663">
        <ele>981.20001220703</ele>
        <time>2021-03-04T09:15:51.000Z</time>
      </trkpt>
      <trkpt lat="43.75042" lon="7.05654">
        <ele>982.40002441406</ele>
        <time>2021-03-04T09:15:54.000Z</time>
      </trkpt>
      <trkpt lat="43.75048" lon="7.05633">
        <ele>983.79998779297</ele>
        <time>2021-03-04T09:15:59.000Z</time>
      </trkpt>
      <trkpt lat="43.75061" lon="7.05618">
        <ele>984.20001220703</ele>
        <time>2021-03-04T09:16:03.000Z</time>
      </trkpt>
      <trkpt lat="43.75087" lon="7.05591">
        <ele>983.20001220703</ele>
        <time>2021-03-04T09:16:10.000Z</time>
      </trkpt>
      <trkpt lat="43.75096" lon="7.05581">
        <ele>983</ele>
        <time>2021-03-04T09:16:12.000Z</time>
      </trkpt>
      <trkpt lat="43.75107" lon="7.05572">
        <ele>982.40002441406</ele>
        <time>2021-03-04T09:16:14.000Z</time>
      </trkpt>
      <trkpt lat="43.75111" lon="7.05568">
        <ele>981.59997558594</ele>
        <time>2021-03-04T09:16:15.000Z</time>
      </trkpt>
      <trkpt lat="43.75117" lon="7.05563">
        <ele>981.20001220703</ele>
        <time>2021-03-04T09:16:16.000Z</time>
      </trkpt>
      <trkpt lat="43.75123" lon="7.0556">
        <ele>980.59997558594</ele>
        <time>2021-03-04T09:16:17.000Z</time>
      </trkpt>
      <trkpt lat="43.75128" lon="7.05556">
        <ele>980.20001220703</ele>
        <time>2021-03-04T09:16:18.000Z</time>
      </trkpt>
      <trkpt lat="43.75138" lon="7.05551">
        <ele>979.20001220703</ele>
        <time>2021-03-04T09:16:20.000Z</time>
      </trkpt>
      <trkpt lat="43.75143" lon="7.05548">
        <ele>978.79998779297</ele>
        <time>2021-03-04T09:16:21.000Z</time>
      </trkpt>
      <trkpt lat="43.75147" lon="7.05543">
        <ele>978.40002441406</ele>
        <time>2021-03-04T09:16:22.000Z</time>
      </trkpt>
      <trkpt lat="43.75155" lon="7.05531">
        <ele>978.59997558594</ele>
        <time>2021-03-04T09:16:24.000Z</time>
      </trkpt>
      <trkpt lat="43.75164" lon="7.0552">
        <ele>978.40002441406</ele>
        <time>2021-03-04T09:16:26.000Z</time>
      </trkpt>
      <trkpt lat="43.75172" lon="7.05509">
        <ele>977.79998779297</ele>
        <time>2021-03-04T09:16:28.000Z</time>
      </trkpt>
      <trkpt lat="43.75179" lon="7.05498">
        <ele>976.79998779297</ele>
        <time>2021-03-04T09:16:30.000Z</time>
      </trkpt>
      <trkpt lat="43.75183" lon="7.05493">
        <ele>976.40002441406</ele>
        <time>2021-03-04T09:16:31.000Z</time>
      </trkpt>
      <trkpt lat="43.75188" lon="7.05488">
        <ele>976</ele>
        <time>2021-03-04T09:16:32.000Z</time>
      </trkpt>
      <trkpt lat="43.75192" lon="7.05484">
        <ele>975.40002441406</ele>
        <time>2021-03-04T09:16:33.000Z</time>
      </trkpt>
      <trkpt lat="43.75196" lon="7.05481">
        <ele>975.40002441406</ele>
        <time>2021-03-04T09:16:34.000Z</time>
      </trkpt>
      <trkpt lat="43.75205" lon="7.05475">
        <ele>975.79998779297</ele>
        <time>2021-03-04T09:16:36.000Z</time>
      </trkpt>
      <trkpt lat="43.75222" lon="7.05463">
        <ele>976</ele>
        <time>2021-03-04T09:16:40.000Z</time>
      </trkpt>
      <trkpt lat="43.75226" lon="7.05459">
        <ele>976</ele>
        <time>2021-03-04T09:16:41.000Z</time>
      </trkpt>
      <trkpt lat="43.75237" lon="7.05449">
        <ele>976.40002441406</ele>
        <time>2021-03-04T09:16:44.000Z</time>
      </trkpt>
      <trkpt lat="43.75239" lon="7.05445">
        <ele>976.40002441406</ele>
        <time>2021-03-04T09:16:45.000Z</time>
      </trkpt>
      <trkpt lat="43.75245" lon="7.05437">
        <ele>976.79998779297</ele>
        <time>2021-03-04T09:16:47.000Z</time>
      </trkpt>
      <trkpt lat="43.75258" lon="7.05422">
        <ele>977.40002441406</ele>
        <time>2021-03-04T09:16:51.000Z</time>
      </trkpt>
      <trkpt lat="43.75261" lon="7.05419">
        <ele>977.79998779297</ele>
        <time>2021-03-04T09:16:52.000Z</time>
      </trkpt>
      <trkpt lat="43.75271" lon="7.05403">
        <ele>979.20001220703</ele>
        <time>2021-03-04T09:16:56.000Z</time>
      </trkpt>
      <trkpt lat="43.75277" lon="7.05377">
        <ele>979.79998779297</ele>
        <time>2021-03-04T09:17:01.000Z</time>
      </trkpt>
      <trkpt lat="43.75283" lon="7.05364">
        <ele>980.20001220703</ele>
        <time>2021-03-04T09:17:04.000Z</time>
      </trkpt>
      <trkpt lat="43.75288" lon="7.05353">
        <ele>980.79998779297</ele>
        <time>2021-03-04T09:17:07.000Z</time>
      </trkpt>
      <trkpt lat="43.75289" lon="7.05349">
        <ele>981.20001220703</ele>
        <time>2021-03-04T09:17:08.000Z</time>
      </trkpt>
      <trkpt lat="43.75293" lon="7.0533">
        <ele>982.40002441406</ele>
        <time>2021-03-04T09:17:12.000Z</time>
      </trkpt>
      <trkpt lat="43.75294" lon="7.05325">
        <ele>982.59997558594</ele>
        <time>2021-03-04T09:17:13.000Z</time>
      </trkpt>
      <trkpt lat="43.75302" lon="7.05302">
        <ele>982.59997558594</ele>
        <time>2021-03-04T09:17:18.000Z</time>
      </trkpt>
      <trkpt lat="43.75306" lon="7.05298">
        <ele>982.59997558594</ele>
        <time>2021-03-04T09:17:19.000Z</time>
      </trkpt>
      <trkpt lat="43.75312" lon="7.05289">
        <ele>982.40002441406</ele>
        <time>2021-03-04T09:17:21.000Z</time>
      </trkpt>
      <trkpt lat="43.75317" lon="7.05281">
        <ele>982</ele>
        <time>2021-03-04T09:17:23.000Z</time>
      </trkpt>
      <trkpt lat="43.75333" lon="7.05258">
        <ele>982.20001220703</ele>
        <time>2021-03-04T09:17:29.000Z</time>
      </trkpt>
      <trkpt lat="43.75348" lon="7.05234">
        <ele>983.20001220703</ele>
        <time>2021-03-04T09:17:35.000Z</time>
      </trkpt>
      <trkpt lat="43.75357" lon="7.05221">
        <ele>983.59997558594</ele>
        <time>2021-03-04T09:17:38.000Z</time>
      </trkpt>
      <trkpt lat="43.75368" lon="7.05205">
        <ele>984</ele>
        <time>2021-03-04T09:17:42.000Z</time>
      </trkpt>
      <trkpt lat="43.7538" lon="7.05181">
        <ele>984.79998779297</ele>
        <time>2021-03-04T09:17:48.000Z</time>
      </trkpt>
      <trkpt lat="43.75395" lon="7.05154">
        <ele>984.79998779297</ele>
        <time>2021-03-04T09:17:53.000Z</time>
      </trkpt>
      <trkpt lat="43.75408" lon="7.05144">
        <ele>983.40002441406</ele>
        <time>2021-03-04T09:17:56.000Z</time>
      </trkpt>
      <trkpt lat="43.75413" lon="7.05144">
        <ele>983</ele>
        <time>2021-03-04T09:17:57.000Z</time>
      </trkpt>
      <trkpt lat="43.7543" lon="7.05134">
        <ele>983</ele>
        <time>2021-03-04T09:18:02.000Z</time>
      </trkpt>
      <trkpt lat="43.75444" lon="7.05114">
        <ele>984</ele>
        <time>2021-03-04T09:18:07.000Z</time>
      </trkpt>
      <trkpt lat="43.75453" lon="7.05095">
        <ele>984.59997558594</ele>
        <time>2021-03-04T09:18:11.000Z</time>
      </trkpt>
      <trkpt lat="43.75454" lon="7.05089">
        <ele>984.59997558594</ele>
        <time>2021-03-04T09:18:12.000Z</time>
      </trkpt>
      <trkpt lat="43.75456" lon="7.05077">
        <ele>984.59997558594</ele>
        <time>2021-03-04T09:18:14.000Z</time>
      </trkpt>
      <trkpt lat="43.75458" lon="7.05057">
        <ele>984.20001220703</ele>
        <time>2021-03-04T09:18:17.000Z</time>
      </trkpt>
      <trkpt lat="43.75461" lon="7.05025">
        <ele>983.59997558594</ele>
        <time>2021-03-04T09:18:22.000Z</time>
      </trkpt>
      <trkpt lat="43.75463" lon="7.05007">
        <ele>983.79998779297</ele>
        <time>2021-03-04T09:18:25.000Z</time>
      </trkpt>
      <trkpt lat="43.75466" lon="7.04994">
        <ele>983.79998779297</ele>
        <time>2021-03-04T09:18:27.000Z</time>
      </trkpt>
      <trkpt lat="43.75474" lon="7.04983">
        <ele>984</ele>
        <time>2021-03-04T09:18:30.000Z</time>
      </trkpt>
      <trkpt lat="43.75476" lon="7.04979">
        <ele>984.20001220703</ele>
        <time>2021-03-04T09:18:31.000Z</time>
      </trkpt>
      <trkpt lat="43.7548" lon="7.04975">
        <ele>984.79998779297</ele>
        <time>2021-03-04T09:18:33.000Z</time>
      </trkpt>
      <trkpt lat="43.75485" lon="7.04973">
        <ele>985.40002441406</ele>
        <time>2021-03-04T09:18:35.000Z</time>
      </trkpt>
      <trkpt lat="43.7549" lon="7.0497">
        <ele>986.40002441406</ele>
        <time>2021-03-04T09:18:37.000Z</time>
      </trkpt>
      <trkpt lat="43.75498" lon="7.04957">
        <ele>987</ele>
        <time>2021-03-04T09:18:41.000Z</time>
      </trkpt>
      <trkpt lat="43.75504" lon="7.04937">
        <ele>987.20001220703</ele>
        <time>2021-03-04T09:18:45.000Z</time>
      </trkpt>
      <trkpt lat="43.75505" lon="7.04932">
        <ele>987</ele>
        <time>2021-03-04T09:18:46.000Z</time>
      </trkpt>
      <trkpt lat="43.75508" lon="7.04906">
        <ele>985.20001220703</ele>
        <time>2021-03-04T09:18:50.000Z</time>
      </trkpt>
      <trkpt lat="43.75508" lon="7.04897">
        <ele>984.40002441406</ele>
        <time>2021-03-04T09:18:51.000Z</time>
      </trkpt>
      <trkpt lat="43.75508" lon="7.04888">
        <ele>983.79998779297</ele>
        <time>2021-03-04T09:18:52.000Z</time>
      </trkpt>
      <trkpt lat="43.75509" lon="7.0487">
        <ele>982.40002441406</ele>
        <time>2021-03-04T09:18:54.000Z</time>
      </trkpt>
      <trkpt lat="43.75512" lon="7.04862">
        <ele>981.79998779297</ele>
        <time>2021-03-04T09:18:55.000Z</time>
      </trkpt>
      <trkpt lat="43.75516" lon="7.04854">
        <ele>981</ele>
        <time>2021-03-04T09:18:56.000Z</time>
      </trkpt>
      <trkpt lat="43.75524" lon="7.04832">
        <ele>979.59997558594</ele>
        <time>2021-03-04T09:18:59.000Z</time>
      </trkpt>
      <trkpt lat="43.75527" lon="7.04824">
        <ele>979.20001220703</ele>
        <time>2021-03-04T09:19:00.000Z</time>
      </trkpt>
      <trkpt lat="43.75539" lon="7.04789">
        <ele>978.59997558594</ele>
        <time>2021-03-04T09:19:05.000Z</time>
      </trkpt>
      <trkpt lat="43.75544" lon="7.04776">
        <ele>978.40002441406</ele>
        <time>2021-03-04T09:19:07.000Z</time>
      </trkpt>
      <trkpt lat="43.75547" lon="7.04771">
        <ele>977.79998779297</ele>
        <time>2021-03-04T09:19:08.000Z</time>
      </trkpt>
      <trkpt lat="43.7555" lon="7.04766">
        <ele>977.40002441406</ele>
        <time>2021-03-04T09:19:09.000Z</time>
      </trkpt>
      <trkpt lat="43.75559" lon="7.0475">
        <ele>976.79998779297</ele>
        <time>2021-03-04T09:19:12.000Z</time>
      </trkpt>
      <trkpt lat="43.75565" lon="7.04741">
        <ele>976.79998779297</ele>
        <time>2021-03-04T09:19:14.000Z</time>
      </trkpt>
      <trkpt lat="43.75579" lon="7.04725">
        <ele>977</ele>
        <time>2021-03-04T09:19:18.000Z</time>
      </trkpt>
      <trkpt lat="43.75585" lon="7.04717">
        <ele>977.40002441406</ele>
        <time>2021-03-04T09:19:20.000Z</time>
      </trkpt>
      <trkpt lat="43.75597" lon="7.04702">
        <ele>978</ele>
        <time>2021-03-04T09:19:24.000Z</time>
      </trkpt>
      <trkpt lat="43.75602" lon="7.04694">
        <ele>978.40002441406</ele>
        <time>2021-03-04T09:19:26.000Z</time>
      </trkpt>
      <trkpt lat="43.7561" lon="7.04683">
        <ele>979.59997558594</ele>
        <time>2021-03-04T09:19:29.000Z</time>
      </trkpt>
      <trkpt lat="43.75613" lon="7.04681">
        <ele>979.79998779297</ele>
        <time>2021-03-04T09:19:30.000Z</time>
      </trkpt>
      <trkpt lat="43.75633" lon="7.0466">
        <ele>980</ele>
        <time>2021-03-04T09:19:36.000Z</time>
      </trkpt>
      <trkpt lat="43.75665" lon="7.04629">
        <ele>980.20001220703</ele>
        <time>2021-03-04T09:19:45.000Z</time>
      </trkpt>
      <trkpt lat="43.75668" lon="7.04625">
        <ele>980.59997558594</ele>
        <time>2021-03-04T09:19:46.000Z</time>
      </trkpt>
      <trkpt lat="43.75674" lon="7.04619">
        <ele>982</ele>
        <time>2021-03-04T09:19:48.000Z</time>
      </trkpt>
      <trkpt lat="43.75681" lon="7.04611">
        <ele>983</ele>
        <time>2021-03-04T09:19:51.000Z</time>
      </trkpt>
      <trkpt lat="43.75686" lon="7.04606">
        <ele>983</ele>
        <time>2021-03-04T09:19:53.000Z</time>
      </trkpt>
      <trkpt lat="43.75693" lon="7.04599">
        <ele>984.20001220703</ele>
        <time>2021-03-04T09:19:56.000Z</time>
      </trkpt>
      <trkpt lat="43.75696" lon="7.04593">
        <ele>984.40002441406</ele>
        <time>2021-03-04T09:19:58.000Z</time>
      </trkpt>
      <trkpt lat="43.75696" lon="7.0459">
        <ele>984.40002441406</ele>
        <time>2021-03-04T09:19:59.000Z</time>
      </trkpt>
      <trkpt lat="43.75698" lon="7.04579">
        <ele>984.40002441406</ele>
        <time>2021-03-04T09:20:02.000Z</time>
      </trkpt>
      <trkpt lat="43.75705" lon="7.04571">
        <ele>983.59997558594</ele>
        <time>2021-03-04T09:20:06.000Z</time>
      </trkpt>
      <trkpt lat="43.75713" lon="7.04565">
        <ele>983.40002441406</ele>
        <time>2021-03-04T09:20:10.000Z</time>
      </trkpt>
      <trkpt lat="43.75718" lon="7.04564">
        <ele>983.59997558594</ele>
        <time>2021-03-04T09:20:12.000Z</time>
      </trkpt>
      <trkpt lat="43.75728" lon="7.04558">
        <ele>984</ele>
        <time>2021-03-04T09:20:18.000Z</time>
      </trkpt>
      <trkpt lat="43.75743" lon="7.04541">
        <ele>984</ele>
        <time>2021-03-04T09:20:26.000Z</time>
      </trkpt>
      <trkpt lat="43.75751" lon="7.0453">
        <ele>984.79998779297</ele>
        <time>2021-03-04T09:20:33.000Z</time>
      </trkpt>
      <trkpt lat="43.75752" lon="7.04527">
        <ele>985.20001220703</ele>
        <time>2021-03-04T09:20:39.000Z</time>
      </trkpt>
      <trkpt lat="43.75753" lon="7.04526">
        <ele>985.20001220703</ele>
        <time>2021-03-04T09:20:42.000Z</time>
      </trkpt>
      <trkpt lat="43.75755" lon="7.04528">
        <ele>985.20001220703</ele>
        <time>2021-03-04T09:20:44.000Z</time>
      </trkpt>
      <trkpt lat="43.75751" lon="7.04534">
        <ele>984.79998779297</ele>
        <time>2021-03-04T09:20:48.000Z</time>
      </trkpt>
      <trkpt lat="43.75749" lon="7.04537">
        <ele>984.59997558594</ele>
        <time>2021-03-04T09:20:50.000Z</time>
      </trkpt>
      <trkpt lat="43.75744" lon="7.04542">
        <ele>984.40002441406</ele>
        <time>2021-03-04T09:20:55.000Z</time>
      </trkpt>
      <trkpt lat="43.75736" lon="7.04551">
        <ele>983.59997558594</ele>
        <time>2021-03-04T09:21:02.000Z</time>
      </trkpt>
      <trkpt lat="43.75729" lon="7.04559">
        <ele>983.59997558594</ele>
        <time>2021-03-04T09:21:08.000Z</time>
      </trkpt>
      <trkpt lat="43.75727" lon="7.04561">
        <ele>983.40002441406</ele>
        <time>2021-03-04T09:21:10.000Z</time>
      </trkpt>
      <trkpt lat="43.75726" lon="7.04557">
        <ele>983.20001220703</ele>
        <time>2021-03-04T09:21:12.000Z</time>
      </trkpt>
      <trkpt lat="43.75726" lon="7.04554">
        <ele>983.20001220703</ele>
        <time>2021-03-04T09:21:14.000Z</time>
      </trkpt>
      <trkpt lat="43.75728" lon="7.0455">
        <ele>983.20001220703</ele>
        <time>2021-03-04T09:21:16.000Z</time>
      </trkpt>
      <trkpt lat="43.75729" lon="7.04549">
        <ele>983.20001220703</ele>
        <time>2021-03-04T09:21:17.000Z</time>
      </trkpt>
      <trkpt lat="43.75736" lon="7.04548">
        <ele>983.20001220703</ele>
        <time>2021-03-04T09:21:22.000Z</time>
      </trkpt>
      <trkpt lat="43.75744" lon="7.04539">
        <ele>983.40002441406</ele>
        <time>2021-03-04T09:21:28.000Z</time>
      </trkpt>
      <trkpt lat="43.75746" lon="7.04537">
        <ele>983.40002441406</ele>
        <time>2021-03-04T09:21:29.000Z</time>
      </trkpt>
      <trkpt lat="43.75751" lon="7.04526">
        <ele>984.20001220703</ele>
        <time>2021-03-04T09:21:34.000Z</time>
      </trkpt>
      <trkpt lat="43.7575" lon="7.04523">
        <ele>984.20001220703</ele>
        <time>2021-03-04T09:21:35.000Z</time>
      </trkpt>
      <trkpt lat="43.75747" lon="7.04508">
        <ele>984.59997558594</ele>
        <time>2021-03-04T09:21:39.000Z</time>
      </trkpt>
      <trkpt lat="43.75746" lon="7.04497">
        <ele>984.59997558594</ele>
        <time>2021-03-04T09:21:45.000Z</time>
      </trkpt>
      <trkpt lat="43.75747" lon="7.04493">
        <ele>984.20001220703</ele>
        <time>2021-03-04T09:21:52.000Z</time>
      </trkpt>
      <trkpt lat="43.75751" lon="7.04479">
        <ele>984.20001220703</ele>
        <time>2021-03-04T09:21:57.000Z</time>
      </trkpt>
      <trkpt lat="43.75756" lon="7.04469">
        <ele>984.59997558594</ele>
        <time>2021-03-04T09:22:01.000Z</time>
      </trkpt>
      <trkpt lat="43.75758" lon="7.04452">
        <ele>985.20001220703</ele>
        <time>2021-03-04T09:22:06.000Z</time>
      </trkpt>
      <trkpt lat="43.75757" lon="7.04448">
        <ele>985.40002441406</ele>
        <time>2021-03-04T09:22:07.000Z</time>
      </trkpt>
      <trkpt lat="43.75755" lon="7.04427">
        <ele>985.40002441406</ele>
        <time>2021-03-04T09:22:12.000Z</time>
      </trkpt>
      <trkpt lat="43.75753" lon="7.04416">
        <ele>985.40002441406</ele>
        <time>2021-03-04T09:22:14.000Z</time>
      </trkpt>
      <trkpt lat="43.75753" lon="7.04402">
        <ele>985.20001220703</ele>
        <time>2021-03-04T09:22:16.000Z</time>
      </trkpt>
      <trkpt lat="43.75753" lon="7.04396">
        <ele>985.20001220703</ele>
        <time>2021-03-04T09:22:17.000Z</time>
      </trkpt>
      <trkpt lat="43.75756" lon="7.0438">
        <ele>984.40002441406</ele>
        <time>2021-03-04T09:22:20.000Z</time>
      </trkpt>
      <trkpt lat="43.75757" lon="7.04373">
        <ele>983.79998779297</ele>
        <time>2021-03-04T09:22:21.000Z</time>
      </trkpt>
      <trkpt lat="43.75759" lon="7.04362">
        <ele>983.20001220703</ele>
        <time>2021-03-04T09:22:23.000Z</time>
      </trkpt>
      <trkpt lat="43.75763" lon="7.04351">
        <ele>982.79998779297</ele>
        <time>2021-03-04T09:22:25.000Z</time>
      </trkpt>
      <trkpt lat="43.75767" lon="7.04339">
        <ele>982.79998779297</ele>
        <time>2021-03-04T09:22:27.000Z</time>
      </trkpt>
      <trkpt lat="43.75768" lon="7.04326">
        <ele>983</ele>
        <time>2021-03-04T09:22:29.000Z</time>
      </trkpt>
      <trkpt lat="43.75773" lon="7.04301">
        <ele>982.59997558594</ele>
        <time>2021-03-04T09:22:33.000Z</time>
      </trkpt>
      <trkpt lat="43.75776" lon="7.04275">
        <ele>982.59997558594</ele>
        <time>2021-03-04T09:22:38.000Z</time>
      </trkpt>
      <trkpt lat="43.75775" lon="7.04263">
        <ele>981.59997558594</ele>
        <time>2021-03-04T09:22:42.000Z</time>
      </trkpt>
      <trkpt lat="43.75775" lon="7.04259">
        <ele>981.20001220703</ele>
        <time>2021-03-04T09:22:44.000Z</time>
      </trkpt>
      <trkpt lat="43.75779" lon="7.04258">
        <ele>981.20001220703</ele>
        <time>2021-03-04T09:22:46.000Z</time>
      </trkpt>
      <trkpt lat="43.75786" lon="7.04256">
        <ele>981.40002441406</ele>
        <time>2021-03-04T09:22:49.000Z</time>
      </trkpt>
      <trkpt lat="43.75792" lon="7.04251">
        <ele>981.20001220703</ele>
        <time>2021-03-04T09:22:51.000Z</time>
      </trkpt>
      <trkpt lat="43.75801" lon="7.04239">
        <ele>980.59997558594</ele>
        <time>2021-03-04T09:22:55.000Z</time>
      </trkpt>
      <trkpt lat="43.75808" lon="7.04228">
        <ele>980.59997558594</ele>
        <time>2021-03-04T09:22:58.000Z</time>
      </trkpt>
      <trkpt lat="43.75818" lon="7.04214">
        <ele>981.79998779297</ele>
        <time>2021-03-04T09:23:02.000Z</time>
      </trkpt>
      <trkpt lat="43.75826" lon="7.04204">
        <ele>982</ele>
        <time>2021-03-04T09:23:05.000Z</time>
      </trkpt>
      <trkpt lat="43.7584" lon="7.04178">
        <ele>982</ele>
        <time>2021-03-04T09:23:12.000Z</time>
      </trkpt>
      <trkpt lat="43.75846" lon="7.04161">
        <ele>982.79998779297</ele>
        <time>2021-03-04T09:23:17.000Z</time>
      </trkpt>
      <trkpt lat="43.75847" lon="7.04156">
        <ele>982.79998779297</ele>
        <time>2021-03-04T09:23:18.000Z</time>
      </trkpt>
      <trkpt lat="43.7585" lon="7.04142">
        <ele>982</ele>
        <time>2021-03-04T09:23:22.000Z</time>
      </trkpt>
      <trkpt lat="43.75849" lon="7.04137">
        <ele>981.59997558594</ele>
        <time>2021-03-04T09:23:23.000Z</time>
      </trkpt>
      <trkpt lat="43.75851" lon="7.04127">
        <ele>981.20001220703</ele>
        <time>2021-03-04T09:23:25.000Z</time>
      </trkpt>
      <trkpt lat="43.75852" lon="7.04121">
        <ele>981</ele>
        <time>2021-03-04T09:23:26.000Z</time>
      </trkpt>
      <trkpt lat="43.75856" lon="7.0411">
        <ele>980.40002441406</ele>
        <time>2021-03-04T09:23:28.000Z</time>
      </trkpt>
      <trkpt lat="43.75859" lon="7.04097">
        <ele>980.20001220703</ele>
        <time>2021-03-04T09:23:30.000Z</time>
      </trkpt>
      <trkpt lat="43.75865" lon="7.04087">
        <ele>979</ele>
        <time>2021-03-04T09:23:32.000Z</time>
      </trkpt>
      <trkpt lat="43.75866" lon="7.04081">
        <ele>978.79998779297</ele>
        <time>2021-03-04T09:23:33.000Z</time>
      </trkpt>
      <trkpt lat="43.75865" lon="7.04075">
        <ele>978.20001220703</ele>
        <time>2021-03-04T09:23:34.000Z</time>
      </trkpt>
      <trkpt lat="43.75865" lon="7.04071">
        <ele>977.79998779297</ele>
        <time>2021-03-04T09:23:35.000Z</time>
      </trkpt>
      <trkpt lat="43.75862" lon="7.04061">
        <ele>976.40002441406</ele>
        <time>2021-03-04T09:23:37.000Z</time>
      </trkpt>
      <trkpt lat="43.7586" lon="7.04055">
        <ele>976.40002441406</ele>
        <time>2021-03-04T09:23:38.000Z</time>
      </trkpt>
      <trkpt lat="43.75859" lon="7.04049">
        <ele>976.40002441406</ele>
        <time>2021-03-04T09:23:39.000Z</time>
      </trkpt>
      <trkpt lat="43.75855" lon="7.04032">
        <ele>976.20001220703</ele>
        <time>2021-03-04T09:23:42.000Z</time>
      </trkpt>
      <trkpt lat="43.75853" lon="7.04027">
        <ele>976.20001220703</ele>
        <time>2021-03-04T09:23:43.000Z</time>
      </trkpt>
      <trkpt lat="43.75846" lon="7.04007">
        <ele>976.40002441406</ele>
        <time>2021-03-04T09:23:47.000Z</time>
      </trkpt>
      <trkpt lat="43.75842" lon="7.04003">
        <ele>976</ele>
        <time>2021-03-04T09:23:48.000Z</time>
      </trkpt>
      <trkpt lat="43.75839" lon="7.03997">
        <ele>975</ele>
        <time>2021-03-04T09:23:49.000Z</time>
      </trkpt>
      <trkpt lat="43.75836" lon="7.03984">
        <ele>974.20001220703</ele>
        <time>2021-03-04T09:23:51.000Z</time>
      </trkpt>
      <trkpt lat="43.75835" lon="7.03978">
        <ele>973.79998779297</ele>
        <time>2021-03-04T09:23:52.000Z</time>
      </trkpt>
      <trkpt lat="43.75834" lon="7.03965">
        <ele>973.20001220703</ele>
        <time>2021-03-04T09:23:54.000Z</time>
      </trkpt>
      <trkpt lat="43.75836" lon="7.03952">
        <ele>973</ele>
        <time>2021-03-04T09:23:56.000Z</time>
      </trkpt>
      <trkpt lat="43.75835" lon="7.03946">
        <ele>972.40002441406</ele>
        <time>2021-03-04T09:23:57.000Z</time>
      </trkpt>
      <trkpt lat="43.75833" lon="7.03934">
        <ele>971.79998779297</ele>
        <time>2021-03-04T09:23:59.000Z</time>
      </trkpt>
      <trkpt lat="43.7583" lon="7.03928">
        <ele>971.40002441406</ele>
        <time>2021-03-04T09:24:00.000Z</time>
      </trkpt>
      <trkpt lat="43.75823" lon="7.03902">
        <ele>970.79998779297</ele>
        <time>2021-03-04T09:24:04.000Z</time>
      </trkpt>
      <trkpt lat="43.75823" lon="7.03897">
        <ele>970.59997558594</ele>
        <time>2021-03-04T09:24:05.000Z</time>
      </trkpt>
      <trkpt lat="43.75821" lon="7.03885">
        <ele>970.79998779297</ele>
        <time>2021-03-04T09:24:07.000Z</time>
      </trkpt>
      <trkpt lat="43.75816" lon="7.03875">
        <ele>971.20001220703</ele>
        <time>2021-03-04T09:24:09.000Z</time>
      </trkpt>
      <trkpt lat="43.75815" lon="7.0387">
        <ele>971.40002441406</ele>
        <time>2021-03-04T09:24:10.000Z</time>
      </trkpt>
      <trkpt lat="43.75814" lon="7.03855">
        <ele>972</ele>
        <time>2021-03-04T09:24:13.000Z</time>
      </trkpt>
      <trkpt lat="43.75816" lon="7.0384">
        <ele>972.59997558594</ele>
        <time>2021-03-04T09:24:17.000Z</time>
      </trkpt>
      <trkpt lat="43.75818" lon="7.03839">
        <ele>972.59997558594</ele>
        <time>2021-03-04T09:24:18.000Z</time>
      </trkpt>
      <trkpt lat="43.75829" lon="7.03836">
        <ele>973.40002441406</ele>
        <time>2021-03-04T09:24:22.000Z</time>
      </trkpt>
      <trkpt lat="43.7583" lon="7.03832">
        <ele>973.59997558594</ele>
        <time>2021-03-04T09:24:23.000Z</time>
      </trkpt>
      <trkpt lat="43.75831" lon="7.03827">
        <ele>973.59997558594</ele>
        <time>2021-03-04T09:24:24.000Z</time>
      </trkpt>
      <trkpt lat="43.75831" lon="7.03823">
        <ele>973.79998779297</ele>
        <time>2021-03-04T09:24:25.000Z</time>
      </trkpt>
      <trkpt lat="43.7583" lon="7.03811">
        <ele>974.20001220703</ele>
        <time>2021-03-04T09:24:27.000Z</time>
      </trkpt>
      <trkpt lat="43.75829" lon="7.03801">
        <ele>974</ele>
        <time>2021-03-04T09:24:29.000Z</time>
      </trkpt>
      <trkpt lat="43.75829" lon="7.03795">
        <ele>974.20001220703</ele>
        <time>2021-03-04T09:24:30.000Z</time>
      </trkpt>
      <trkpt lat="43.75831" lon="7.03776">
        <ele>973.79998779297</ele>
        <time>2021-03-04T09:24:34.000Z</time>
      </trkpt>
      <trkpt lat="43.7583" lon="7.03756">
        <ele>972.79998779297</ele>
        <time>2021-03-04T09:24:38.000Z</time>
      </trkpt>
      <trkpt lat="43.7583" lon="7.0375">
        <ele>972.40002441406</ele>
        <time>2021-03-04T09:24:39.000Z</time>
      </trkpt>
      <trkpt lat="43.75825" lon="7.03731">
        <ele>971</ele>
        <time>2021-03-04T09:24:42.000Z</time>
      </trkpt>
      <trkpt lat="43.75822" lon="7.03724">
        <ele>971</ele>
        <time>2021-03-04T09:24:43.000Z</time>
      </trkpt>
      <trkpt lat="43.75817" lon="7.03709">
        <ele>969.79998779297</ele>
        <time>2021-03-04T09:24:45.000Z</time>
      </trkpt>
      <trkpt lat="43.75811" lon="7.03692">
        <ele>969</ele>
        <time>2021-03-04T09:24:47.000Z</time>
      </trkpt>
      <trkpt lat="43.7581" lon="7.03682">
        <ele>968.59997558594</ele>
        <time>2021-03-04T09:24:48.000Z</time>
      </trkpt>
      <trkpt lat="43.75809" lon="7.03662">
        <ele>966.79998779297</ele>
        <time>2021-03-04T09:24:50.000Z</time>
      </trkpt>
      <trkpt lat="43.75809" lon="7.03651">
        <ele>966.59997558594</ele>
        <time>2021-03-04T09:24:51.000Z</time>
      </trkpt>
      <trkpt lat="43.75808" lon="7.03638">
        <ele>965</ele>
        <time>2021-03-04T09:24:53.000Z</time>
      </trkpt>
      <trkpt lat="43.75804" lon="7.03632">
        <ele>964</ele>
        <time>2021-03-04T09:24:54.000Z</time>
      </trkpt>
      <trkpt lat="43.75803" lon="7.03627">
        <ele>963.40002441406</ele>
        <time>2021-03-04T09:24:55.000Z</time>
      </trkpt>
      <trkpt lat="43.75803" lon="7.03614">
        <ele>962</ele>
        <time>2021-03-04T09:24:57.000Z</time>
      </trkpt>
      <trkpt lat="43.75804" lon="7.036">
        <ele>961.40002441406</ele>
        <time>2021-03-04T09:24:59.000Z</time>
      </trkpt>
      <trkpt lat="43.75805" lon="7.03593">
        <ele>960.79998779297</ele>
        <time>2021-03-04T09:25:00.000Z</time>
      </trkpt>
      <trkpt lat="43.75806" lon="7.03586">
        <ele>960.59997558594</ele>
        <time>2021-03-04T09:25:01.000Z</time>
      </trkpt>
      <trkpt lat="43.75807" lon="7.03579">
        <ele>960.40002441406</ele>
        <time>2021-03-04T09:25:02.000Z</time>
      </trkpt>
      <trkpt lat="43.75806" lon="7.03548">
        <ele>960.40002441406</ele>
        <time>2021-03-04T09:25:06.000Z</time>
      </trkpt>
      <trkpt lat="43.75803" lon="7.0352">
        <ele>959.59997558594</ele>
        <time>2021-03-04T09:25:10.000Z</time>
      </trkpt>
      <trkpt lat="43.75802" lon="7.03514">
        <ele>959.40002441406</ele>
        <time>2021-03-04T09:25:11.000Z</time>
      </trkpt>
      <trkpt lat="43.75799" lon="7.03503">
        <ele>959.20001220703</ele>
        <time>2021-03-04T09:25:13.000Z</time>
      </trkpt>
      <trkpt lat="43.75789" lon="7.03484">
        <ele>959</ele>
        <time>2021-03-04T09:25:16.000Z</time>
      </trkpt>
      <trkpt lat="43.75776" lon="7.03458">
        <ele>958.40002441406</ele>
        <time>2021-03-04T09:25:20.000Z</time>
      </trkpt>
      <trkpt lat="43.75772" lon="7.03452">
        <ele>958</ele>
        <time>2021-03-04T09:25:21.000Z</time>
      </trkpt>
      <trkpt lat="43.75762" lon="7.03433">
        <ele>957.20001220703</ele>
        <time>2021-03-04T09:25:24.000Z</time>
      </trkpt>
      <trkpt lat="43.75755" lon="7.0342">
        <ele>956.79998779297</ele>
        <time>2021-03-04T09:25:26.000Z</time>
      </trkpt>
      <trkpt lat="43.75744" lon="7.03404">
        <ele>956</ele>
        <time>2021-03-04T09:25:29.000Z</time>
      </trkpt>
      <trkpt lat="43.75737" lon="7.03392">
        <ele>955.40002441406</ele>
        <time>2021-03-04T09:25:31.000Z</time>
      </trkpt>
      <trkpt lat="43.75734" lon="7.03386">
        <ele>955</ele>
        <time>2021-03-04T09:25:32.000Z</time>
      </trkpt>
      <trkpt lat="43.75722" lon="7.03367">
        <ele>955.59997558594</ele>
        <time>2021-03-04T09:25:36.000Z</time>
      </trkpt>
      <trkpt lat="43.75718" lon="7.03361">
        <ele>956</ele>
        <time>2021-03-04T09:25:37.000Z</time>
      </trkpt>
      <trkpt lat="43.75715" lon="7.03356">
        <ele>956</ele>
        <time>2021-03-04T09:25:38.000Z</time>
      </trkpt>
      <trkpt lat="43.75698" lon="7.03327">
        <ele>956.40002441406</ele>
        <time>2021-03-04T09:25:43.000Z</time>
      </trkpt>
      <trkpt lat="43.75694" lon="7.03317">
        <ele>955.59997558594</ele>
        <time>2021-03-04T09:25:45.000Z</time>
      </trkpt>
      <trkpt lat="43.75692" lon="7.03303">
        <ele>955.59997558594</ele>
        <time>2021-03-04T09:25:47.000Z</time>
      </trkpt>
      <trkpt lat="43.7569" lon="7.03276">
        <ele>956.20001220703</ele>
        <time>2021-03-04T09:25:51.000Z</time>
      </trkpt>
      <trkpt lat="43.75681" lon="7.03263">
        <ele>956.40002441406</ele>
        <time>2021-03-04T09:25:54.000Z</time>
      </trkpt>
      <trkpt lat="43.75676" lon="7.03254">
        <ele>956.59997558594</ele>
        <time>2021-03-04T09:25:56.000Z</time>
      </trkpt>
      <trkpt lat="43.75672" lon="7.03245">
        <ele>957.20001220703</ele>
        <time>2021-03-04T09:25:58.000Z</time>
      </trkpt>
      <trkpt lat="43.75666" lon="7.03232">
        <ele>958</ele>
        <time>2021-03-04T09:26:01.000Z</time>
      </trkpt>
      <trkpt lat="43.75664" lon="7.03227">
        <ele>958.20001220703</ele>
        <time>2021-03-04T09:26:02.000Z</time>
      </trkpt>
      <trkpt lat="43.75654" lon="7.03202">
        <ele>959</ele>
        <time>2021-03-04T09:26:07.000Z</time>
      </trkpt>
      <trkpt lat="43.75652" lon="7.03191">
        <ele>959.20001220703</ele>
        <time>2021-03-04T09:26:09.000Z</time>
      </trkpt>
      <trkpt lat="43.75647" lon="7.03175">
        <ele>959.40002441406</ele>
        <time>2021-03-04T09:26:12.000Z</time>
      </trkpt>
      <trkpt lat="43.75645" lon="7.03164">
        <ele>960</ele>
        <time>2021-03-04T09:26:14.000Z</time>
      </trkpt>
      <trkpt lat="43.75645" lon="7.03153">
        <ele>960.20001220703</ele>
        <time>2021-03-04T09:26:16.000Z</time>
      </trkpt>
      <trkpt lat="43.75643" lon="7.03142">
        <ele>960.40002441406</ele>
        <time>2021-03-04T09:26:18.000Z</time>
      </trkpt>
      <trkpt lat="43.7564" lon="7.03125">
        <ele>960.59997558594</ele>
        <time>2021-03-04T09:26:21.000Z</time>
      </trkpt>
      <trkpt lat="43.75642" lon="7.03101">
        <ele>960.59997558594</ele>
        <time>2021-03-04T09:26:25.000Z</time>
      </trkpt>
      <trkpt lat="43.75639" lon="7.03059">
        <ele>959.59997558594</ele>
        <time>2021-03-04T09:26:31.000Z</time>
      </trkpt>
      <trkpt lat="43.75635" lon="7.03047">
        <ele>959.40002441406</ele>
        <time>2021-03-04T09:26:33.000Z</time>
      </trkpt>
      <trkpt lat="43.75625" lon="7.0303">
        <ele>958.79998779297</ele>
        <time>2021-03-04T09:26:36.000Z</time>
      </trkpt>
      <trkpt lat="43.75606" lon="7.02986">
        <ele>958.59997558594</ele>
        <time>2021-03-04T09:26:43.000Z</time>
      </trkpt>
      <trkpt lat="43.75604" lon="7.02981">
        <ele>958.40002441406</ele>
        <time>2021-03-04T09:26:44.000Z</time>
      </trkpt>
      <trkpt lat="43.75602" lon="7.02975">
        <ele>958.20001220703</ele>
        <time>2021-03-04T09:26:45.000Z</time>
      </trkpt>
      <trkpt lat="43.75604" lon="7.02965">
        <ele>958.20001220703</ele>
        <time>2021-03-04T09:26:47.000Z</time>
      </trkpt>
      <trkpt lat="43.75604" lon="7.0296">
        <ele>958.20001220703</ele>
        <time>2021-03-04T09:26:48.000Z</time>
      </trkpt>
      <trkpt lat="43.75609" lon="7.02942">
        <ele>957.40002441406</ele>
        <time>2021-03-04T09:26:53.000Z</time>
      </trkpt>
      <trkpt lat="43.75624" lon="7.02937">
        <ele>957.59997558594</ele>
        <time>2021-03-04T09:26:57.000Z</time>
      </trkpt>
      <trkpt lat="43.75632" lon="7.02934">
        <ele>957.40002441406</ele>
        <time>2021-03-04T09:27:00.000Z</time>
      </trkpt>
      <trkpt lat="43.75635" lon="7.02932">
        <ele>957.20001220703</ele>
        <time>2021-03-04T09:27:01.000Z</time>
      </trkpt>
      <trkpt lat="43.75637" lon="7.02929">
        <ele>957.20001220703</ele>
        <time>2021-03-04T09:27:02.000Z</time>
      </trkpt>
      <trkpt lat="43.7565" lon="7.02914">
        <ele>956.40002441406</ele>
        <time>2021-03-04T09:27:07.000Z</time>
      </trkpt>
      <trkpt lat="43.75652" lon="7.02912">
        <ele>956.20001220703</ele>
        <time>2021-03-04T09:27:08.000Z</time>
      </trkpt>
      <trkpt lat="43.75658" lon="7.02905">
        <ele>955.20001220703</ele>
        <time>2021-03-04T09:27:12.000Z</time>
      </trkpt>
      <trkpt lat="43.75659" lon="7.02904">
        <ele>955</ele>
        <time>2021-03-04T09:27:13.000Z</time>
      </trkpt>
      <trkpt lat="43.75664" lon="7.02904">
        <ele>954.59997558594</ele>
        <time>2021-03-04T09:27:15.000Z</time>
      </trkpt>
      <trkpt lat="43.75668" lon="7.02906">
        <ele>954.40002441406</ele>
        <time>2021-03-04T09:27:17.000Z</time>
      </trkpt>
      <trkpt lat="43.75674" lon="7.02906">
        <ele>953.79998779297</ele>
        <time>2021-03-04T09:27:19.000Z</time>
      </trkpt>
      <trkpt lat="43.75677" lon="7.02907">
        <ele>953.59997558594</ele>
        <time>2021-03-04T09:27:20.000Z</time>
      </trkpt>
      <trkpt lat="43.75685" lon="7.02906">
        <ele>953.40002441406</ele>
        <time>2021-03-04T09:27:22.000Z</time>
      </trkpt>
      <trkpt lat="43.75693" lon="7.02903">
        <ele>953.20001220703</ele>
        <time>2021-03-04T09:27:24.000Z</time>
      </trkpt>
      <trkpt lat="43.75703" lon="7.02901">
        <ele>952.79998779297</ele>
        <time>2021-03-04T09:27:26.000Z</time>
      </trkpt>
      <trkpt lat="43.75707" lon="7.02897">
        <ele>952.40002441406</ele>
        <time>2021-03-04T09:27:27.000Z</time>
      </trkpt>
      <trkpt lat="43.75711" lon="7.02885">
        <ele>951.20001220703</ele>
        <time>2021-03-04T09:27:29.000Z</time>
      </trkpt>
      <trkpt lat="43.75713" lon="7.0286">
        <ele>950</ele>
        <time>2021-03-04T09:27:32.000Z</time>
      </trkpt>
      <trkpt lat="43.75716" lon="7.02842">
        <ele>949.79998779297</ele>
        <time>2021-03-04T09:27:34.000Z</time>
      </trkpt>
      <trkpt lat="43.7572" lon="7.02809">
        <ele>949</ele>
        <time>2021-03-04T09:27:38.000Z</time>
      </trkpt>
      <trkpt lat="43.75717" lon="7.02771">
        <ele>949.20001220703</ele>
        <time>2021-03-04T09:27:43.000Z</time>
      </trkpt>
      <trkpt lat="43.75716" lon="7.0275">
        <ele>949.59997558594</ele>
        <time>2021-03-04T09:27:46.000Z</time>
      </trkpt>
      <trkpt lat="43.75719" lon="7.0274">
        <ele>950</ele>
        <time>2021-03-04T09:27:48.000Z</time>
      </trkpt>
      <trkpt lat="43.75726" lon="7.02723">
        <ele>951</ele>
        <time>2021-03-04T09:27:52.000Z</time>
      </trkpt>
      <trkpt lat="43.75727" lon="7.02718">
        <ele>951.40002441406</ele>
        <time>2021-03-04T09:27:53.000Z</time>
      </trkpt>
      <trkpt lat="43.7573" lon="7.027">
        <ele>952.20001220703</ele>
        <time>2021-03-04T09:27:56.000Z</time>
      </trkpt>
      <trkpt lat="43.75732" lon="7.02685">
        <ele>952.59997558594</ele>
        <time>2021-03-04T09:27:59.000Z</time>
      </trkpt>
      <trkpt lat="43.75734" lon="7.02658">
        <ele>953.59997558594</ele>
        <time>2021-03-04T09:28:04.000Z</time>
      </trkpt>
      <trkpt lat="43.75734" lon="7.02646">
        <ele>953.79998779297</ele>
        <time>2021-03-04T09:28:06.000Z</time>
      </trkpt>
      <trkpt lat="43.75724" lon="7.02623">
        <ele>954.20001220703</ele>
        <time>2021-03-04T09:28:11.000Z</time>
      </trkpt>
      <trkpt lat="43.75722" lon="7.0262">
        <ele>954</ele>
        <time>2021-03-04T09:28:12.000Z</time>
      </trkpt>
      <trkpt lat="43.75715" lon="7.0261">
        <ele>953.59997558594</ele>
        <time>2021-03-04T09:28:15.000Z</time>
      </trkpt>
      <trkpt lat="43.75706" lon="7.02599">
        <ele>953.79998779297</ele>
        <time>2021-03-04T09:28:19.000Z</time>
      </trkpt>
      <trkpt lat="43.75697" lon="7.02589">
        <ele>954.20001220703</ele>
        <time>2021-03-04T09:28:24.000Z</time>
      </trkpt>
      <trkpt lat="43.75698" lon="7.02587">
        <ele>954.40002441406</ele>
        <time>2021-03-04T09:28:25.000Z</time>
      </trkpt>
      <trkpt lat="43.757" lon="7.02579">
        <ele>954.59997558594</ele>
        <time>2021-03-04T09:28:28.000Z</time>
      </trkpt>
      <trkpt lat="43.757" lon="7.02578">
        <ele>954.59997558594</ele>
        <time>2021-03-04T09:28:29.000Z</time>
      </trkpt>
      <trkpt lat="43.75704" lon="7.02568">
        <ele>954</ele>
        <time>2021-03-04T09:28:35.000Z</time>
      </trkpt>
      <trkpt lat="43.75702" lon="7.02561">
        <ele>953.59997558594</ele>
        <time>2021-03-04T09:28:38.000Z</time>
      </trkpt>
      <trkpt lat="43.75697" lon="7.02557">
        <ele>953.20001220703</ele>
        <time>2021-03-04T09:28:41.000Z</time>
      </trkpt>
      <trkpt lat="43.75685" lon="7.02555">
        <ele>953</ele>
        <time>2021-03-04T09:28:46.000Z</time>
      </trkpt>
      <trkpt lat="43.75676" lon="7.0255">
        <ele>953.79998779297</ele>
        <time>2021-03-04T09:28:51.000Z</time>
      </trkpt>
      <trkpt lat="43.75676" lon="7.02551">
        <ele>954.40002441406</ele>
        <time>2021-03-04T09:28:55.000Z</time>
      </trkpt>
      <trkpt lat="43.75676" lon="7.0255">
        <ele>954.40002441406</ele>
        <time>2021-03-04T09:29:05.000Z</time>
      </trkpt>
      <trkpt lat="43.75677" lon="7.02548">
        <ele>954.40002441406</ele>
        <time>2021-03-04T09:29:07.000Z</time>
      </trkpt>
      <trkpt lat="43.75685" lon="7.02546">
        <ele>954.20001220703</ele>
        <time>2021-03-04T09:29:11.000Z</time>
      </trkpt>
      <trkpt lat="43.757" lon="7.02541">
        <ele>953.40002441406</ele>
        <time>2021-03-04T09:29:15.000Z</time>
      </trkpt>
      <trkpt lat="43.75702" lon="7.02537">
        <ele>953</ele>
        <time>2021-03-04T09:29:16.000Z</time>
      </trkpt>
      <trkpt lat="43.75705" lon="7.02533">
        <ele>952.59997558594</ele>
        <time>2021-03-04T09:29:17.000Z</time>
      </trkpt>
      <trkpt lat="43.75717" lon="7.02521">
        <ele>952.20001220703</ele>
        <time>2021-03-04T09:29:20.000Z</time>
      </trkpt>
      <trkpt lat="43.75725" lon="7.02513">
        <ele>951.20001220703</ele>
        <time>2021-03-04T09:29:22.000Z</time>
      </trkpt>
      <trkpt lat="43.75733" lon="7.02504">
        <ele>949.79998779297</ele>
        <time>2021-03-04T09:29:24.000Z</time>
      </trkpt>
      <trkpt lat="43.75741" lon="7.02494">
        <ele>949.40002441406</ele>
        <time>2021-03-04T09:29:26.000Z</time>
      </trkpt>
      <trkpt lat="43.75758" lon="7.02478">
        <ele>948.79998779297</ele>
        <time>2021-03-04T09:29:31.000Z</time>
      </trkpt>
      <trkpt lat="43.75761" lon="7.02476">
        <ele>948.59997558594</ele>
        <time>2021-03-04T09:29:32.000Z</time>
      </trkpt>
      <trkpt lat="43.75771" lon="7.02472">
        <ele>948</ele>
        <time>2021-03-04T09:29:35.000Z</time>
      </trkpt>
      <trkpt lat="43.75776" lon="7.02476">
        <ele>947.79998779297</ele>
        <time>2021-03-04T09:29:37.000Z</time>
      </trkpt>
      <trkpt lat="43.75783" lon="7.02474">
        <ele>947.79998779297</ele>
        <time>2021-03-04T09:29:40.000Z</time>
      </trkpt>
      <trkpt lat="43.75783" lon="7.02463">
        <ele>948</ele>
        <time>2021-03-04T09:29:43.000Z</time>
      </trkpt>
      <trkpt lat="43.75777" lon="7.02439">
        <ele>948.59997558594</ele>
        <time>2021-03-04T09:29:48.000Z</time>
      </trkpt>
      <trkpt lat="43.75775" lon="7.02435">
        <ele>948.79998779297</ele>
        <time>2021-03-04T09:29:49.000Z</time>
      </trkpt>
      <trkpt lat="43.75774" lon="7.0242">
        <ele>948.79998779297</ele>
        <time>2021-03-04T09:29:52.000Z</time>
      </trkpt>
      <trkpt lat="43.75775" lon="7.02409">
        <ele>948.59997558594</ele>
        <time>2021-03-04T09:29:54.000Z</time>
      </trkpt>
      <trkpt lat="43.75778" lon="7.02392">
        <ele>948.59997558594</ele>
        <time>2021-03-04T09:29:57.000Z</time>
      </trkpt>
      <trkpt lat="43.75783" lon="7.02359">
        <ele>949.59997558594</ele>
        <time>2021-03-04T09:30:03.000Z</time>
      </trkpt>
      <trkpt lat="43.75785" lon="7.02355">
        <ele>949.59997558594</ele>
        <time>2021-03-04T09:30:04.000Z</time>
      </trkpt>
      <trkpt lat="43.75788" lon="7.0235">
        <ele>949.79998779297</ele>
        <time>2021-03-04T09:30:05.000Z</time>
      </trkpt>
      <trkpt lat="43.7579" lon="7.02331">
        <ele>949.40002441406</ele>
        <time>2021-03-04T09:30:08.000Z</time>
      </trkpt>
      <trkpt lat="43.75791" lon="7.02306">
        <ele>949.40002441406</ele>
        <time>2021-03-04T09:30:13.000Z</time>
      </trkpt>
      <trkpt lat="43.7579" lon="7.02302">
        <ele>949.40002441406</ele>
        <time>2021-03-04T09:30:14.000Z</time>
      </trkpt>
      <trkpt lat="43.75789" lon="7.02292">
        <ele>949.59997558594</ele>
        <time>2021-03-04T09:30:16.000Z</time>
      </trkpt>
      <trkpt lat="43.7579" lon="7.02286">
        <ele>949.59997558594</ele>
        <time>2021-03-04T09:30:17.000Z</time>
      </trkpt>
      <trkpt lat="43.75787" lon="7.02273">
        <ele>949.79998779297</ele>
        <time>2021-03-04T09:30:20.000Z</time>
      </trkpt>
      <trkpt lat="43.75785" lon="7.0227">
        <ele>950</ele>
        <time>2021-03-04T09:30:21.000Z</time>
      </trkpt>
      <trkpt lat="43.75783" lon="7.02268">
        <ele>950.20001220703</ele>
        <time>2021-03-04T09:30:22.000Z</time>
      </trkpt>
      <trkpt lat="43.75779" lon="7.02263">
        <ele>951</ele>
        <time>2021-03-04T09:30:24.000Z</time>
      </trkpt>
      <trkpt lat="43.75777" lon="7.0226">
        <ele>951.40002441406</ele>
        <time>2021-03-04T09:30:25.000Z</time>
      </trkpt>
      <trkpt lat="43.75775" lon="7.02256">
        <ele>951.59997558594</ele>
        <time>2021-03-04T09:30:26.000Z</time>
      </trkpt>
      <trkpt lat="43.75775" lon="7.02249">
        <ele>952.40002441406</ele>
        <time>2021-03-04T09:30:28.000Z</time>
      </trkpt>
      <trkpt lat="43.75779" lon="7.02224">
        <ele>952.79998779297</ele>
        <time>2021-03-04T09:30:34.000Z</time>
      </trkpt>
      <trkpt lat="43.7578" lon="7.02206">
        <ele>953.40002441406</ele>
        <time>2021-03-04T09:30:38.000Z</time>
      </trkpt>
      <trkpt lat="43.75778" lon="7.02196">
        <ele>953.79998779297</ele>
        <time>2021-03-04T09:30:40.000Z</time>
      </trkpt>
      <trkpt lat="43.75776" lon="7.02179">
        <ele>953.79998779297</ele>
        <time>2021-03-04T09:30:44.000Z</time>
      </trkpt>
      <trkpt lat="43.75777" lon="7.02175">
        <ele>954.20001220703</ele>
        <time>2021-03-04T09:30:45.000Z</time>
      </trkpt>
      <trkpt lat="43.75781" lon="7.0217">
        <ele>954.59997558594</ele>
        <time>2021-03-04T09:30:47.000Z</time>
      </trkpt>
      <trkpt lat="43.75786" lon="7.02161">
        <ele>955.40002441406</ele>
        <time>2021-03-04T09:30:50.000Z</time>
      </trkpt>
      <trkpt lat="43.75789" lon="7.02151">
        <ele>955.59997558594</ele>
        <time>2021-03-04T09:30:52.000Z</time>
      </trkpt>
      <trkpt lat="43.75792" lon="7.0214">
        <ele>955.79998779297</ele>
        <time>2021-03-04T09:30:54.000Z</time>
      </trkpt>
      <trkpt lat="43.75793" lon="7.02133">
        <ele>955.59997558594</ele>
        <time>2021-03-04T09:30:55.000Z</time>
      </trkpt>
      <trkpt lat="43.75797" lon="7.02105">
        <ele>954.40002441406</ele>
        <time>2021-03-04T09:31:00.000Z</time>
      </trkpt>
      <trkpt lat="43.75801" lon="7.02083">
        <ele>954.20001220703</ele>
        <time>2021-03-04T09:31:04.000Z</time>
      </trkpt>
      <trkpt lat="43.7581" lon="7.02048">
        <ele>955.59997558594</ele>
        <time>2021-03-04T09:31:11.000Z</time>
      </trkpt>
      <trkpt lat="43.75811" lon="7.02028">
        <ele>956.40002441406</ele>
        <time>2021-03-04T09:31:15.000Z</time>
      </trkpt>
      <trkpt lat="43.75812" lon="7.02024">
        <ele>956.79998779297</ele>
        <time>2021-03-04T09:31:16.000Z</time>
      </trkpt>
      <trkpt lat="43.75813" lon="7.02014">
        <ele>957.79998779297</ele>
        <time>2021-03-04T09:31:18.000Z</time>
      </trkpt>
      <trkpt lat="43.75811" lon="7.02006">
        <ele>959.40002441406</ele>
        <time>2021-03-04T09:31:20.000Z</time>
      </trkpt>
      <trkpt lat="43.75808" lon="7.01997">
        <ele>960.59997558594</ele>
        <time>2021-03-04T09:31:22.000Z</time>
      </trkpt>
      <trkpt lat="43.75807" lon="7.01988">
        <ele>961.79998779297</ele>
        <time>2021-03-04T09:31:24.000Z</time>
      </trkpt>
      <trkpt lat="43.75807" lon="7.01978">
        <ele>962.79998779297</ele>
        <time>2021-03-04T09:31:26.000Z</time>
      </trkpt>
      <trkpt lat="43.75808" lon="7.01974">
        <ele>963.20001220703</ele>
        <time>2021-03-04T09:31:27.000Z</time>
      </trkpt>
      <trkpt lat="43.7581" lon="7.01952">
        <ele>964.40002441406</ele>
        <time>2021-03-04T09:31:32.000Z</time>
      </trkpt>
      <trkpt lat="43.7581" lon="7.01944">
        <ele>964.59997558594</ele>
        <time>2021-03-04T09:31:34.000Z</time>
      </trkpt>
      <trkpt lat="43.7581" lon="7.01925">
        <ele>965.40002441406</ele>
        <time>2021-03-04T09:31:38.000Z</time>
      </trkpt>
      <trkpt lat="43.75812" lon="7.01911">
        <ele>965.59997558594</ele>
        <time>2021-03-04T09:31:41.000Z</time>
      </trkpt>
      <trkpt lat="43.75812" lon="7.01898">
        <ele>966.59997558594</ele>
        <time>2021-03-04T09:31:45.000Z</time>
      </trkpt>
      <trkpt lat="43.75812" lon="7.01891">
        <ele>967.79998779297</ele>
        <time>2021-03-04T09:31:49.000Z</time>
      </trkpt>
      <trkpt lat="43.75811" lon="7.0189">
        <ele>968</ele>
        <time>2021-03-04T09:31:50.000Z</time>
      </trkpt>
      <trkpt lat="43.75809" lon="7.01889">
        <ele>968.20001220703</ele>
        <time>2021-03-04T09:31:53.000Z</time>
      </trkpt>
      <trkpt lat="43.75809" lon="7.01891">
        <ele>968.20001220703</ele>
        <time>2021-03-04T09:31:54.000Z</time>
      </trkpt>
      <trkpt lat="43.75812" lon="7.01899">
        <ele>968</ele>
        <time>2021-03-04T09:31:59.000Z</time>
      </trkpt>
      <trkpt lat="43.75814" lon="7.01896">
        <ele>968</ele>
        <time>2021-03-04T09:32:03.000Z</time>
      </trkpt>
      <trkpt lat="43.75812" lon="7.01893">
        <ele>967.79998779297</ele>
        <time>2021-03-04T09:32:05.000Z</time>
      </trkpt>
      <trkpt lat="43.75808" lon="7.01883">
        <ele>967.79998779297</ele>
        <time>2021-03-04T09:32:09.000Z</time>
      </trkpt>
      <trkpt lat="43.75809" lon="7.01857">
        <ele>968.20001220703</ele>
        <time>2021-03-04T09:32:16.000Z</time>
      </trkpt>
      <trkpt lat="43.75809" lon="7.01821">
        <ele>968.79998779297</ele>
        <time>2021-03-04T09:32:24.000Z</time>
      </trkpt>
      <trkpt lat="43.75809" lon="7.01817">
        <ele>969</ele>
        <time>2021-03-04T09:32:25.000Z</time>
      </trkpt>
      <trkpt lat="43.75808" lon="7.01793">
        <ele>970.20001220703</ele>
        <time>2021-03-04T09:32:30.000Z</time>
      </trkpt>
      <trkpt lat="43.75808" lon="7.01753">
        <ele>970.79998779297</ele>
        <time>2021-03-04T09:32:38.000Z</time>
      </trkpt>
      <trkpt lat="43.75815" lon="7.01728">
        <ele>970.79998779297</ele>
        <time>2021-03-04T09:32:43.000Z</time>
      </trkpt>
      <trkpt lat="43.75819" lon="7.01705">
        <ele>971.20001220703</ele>
        <time>2021-03-04T09:32:48.000Z</time>
      </trkpt>
      <trkpt lat="43.75816" lon="7.01687">
        <ele>972.20001220703</ele>
        <time>2021-03-04T09:32:52.000Z</time>
      </trkpt>
      <trkpt lat="43.75813" lon="7.01673">
        <ele>973.40002441406</ele>
        <time>2021-03-04T09:32:55.000Z</time>
      </trkpt>
      <trkpt lat="43.75812" lon="7.01668">
        <ele>973.59997558594</ele>
        <time>2021-03-04T09:32:56.000Z</time>
      </trkpt>
      <trkpt lat="43.75801" lon="7.01639">
        <ele>974.40002441406</ele>
        <time>2021-03-04T09:33:03.000Z</time>
      </trkpt>
      <trkpt lat="43.75801" lon="7.016">
        <ele>975</ele>
        <time>2021-03-04T09:33:11.000Z</time>
      </trkpt>
      <trkpt lat="43.75802" lon="7.01593">
        <ele>974.79998779297</ele>
        <time>2021-03-04T09:33:14.000Z</time>
      </trkpt>
      <trkpt lat="43.75801" lon="7.01592">
        <ele>974.79998779297</ele>
        <time>2021-03-04T09:33:16.000Z</time>
      </trkpt>
      <trkpt lat="43.75798" lon="7.01591">
        <ele>974.79998779297</ele>
        <time>2021-03-04T09:33:18.000Z</time>
      </trkpt>
      <trkpt lat="43.75796" lon="7.01584">
        <ele>975</ele>
        <time>2021-03-04T09:33:21.000Z</time>
      </trkpt>
      <trkpt lat="43.75795" lon="7.01567">
        <ele>975.20001220703</ele>
        <time>2021-03-04T09:33:27.000Z</time>
      </trkpt>
      <trkpt lat="43.75796" lon="7.01565">
        <ele>975</ele>
        <time>2021-03-04T09:33:31.000Z</time>
      </trkpt>
      <trkpt lat="43.75798" lon="7.01567">
        <ele>974.20001220703</ele>
        <time>2021-03-04T09:33:38.000Z</time>
      </trkpt>
      <trkpt lat="43.75799" lon="7.01568">
        <ele>974.40002441406</ele>
        <time>2021-03-04T09:33:45.000Z</time>
      </trkpt>
      <trkpt lat="43.75799" lon="7.01568">
        <ele>974.40002441406</ele>
        <time>2021-03-04T09:33:51.000Z</time>
      </trkpt>
      <trkpt lat="43.75799" lon="7.01568">
        <ele>974</ele>
        <time>2021-03-04T09:34:12.000Z</time>
      </trkpt>
      <trkpt lat="43.75799" lon="7.01568">
        <ele>974.20001220703</ele>
        <time>2021-03-04T09:34:20.000Z</time>
      </trkpt>
      <trkpt lat="43.75796" lon="7.01567">
        <ele>974.40002441406</ele>
        <time>2021-03-04T09:34:24.000Z</time>
      </trkpt>
      <trkpt lat="43.75795" lon="7.01565">
        <ele>974.40002441406</ele>
        <time>2021-03-04T09:34:26.000Z</time>
      </trkpt>
      <trkpt lat="43.75795" lon="7.01567">
        <ele>974.20001220703</ele>
        <time>2021-03-04T09:34:30.000Z</time>
      </trkpt>
      <trkpt lat="43.75792" lon="7.01571">
        <ele>974</ele>
        <time>2021-03-04T09:34:37.000Z</time>
      </trkpt>
      <trkpt lat="43.75791" lon="7.01571">
        <ele>973.40002441406</ele>
        <time>2021-03-04T09:34:48.000Z</time>
      </trkpt>
      <trkpt lat="43.75791" lon="7.01571">
        <ele>973.40002441406</ele>
        <time>2021-03-04T09:34:49.000Z</time>
      </trkpt>
      <trkpt lat="43.75791" lon="7.01571">
        <ele>974</ele>
        <time>2021-03-04T09:34:55.000Z</time>
      </trkpt>
      <trkpt lat="43.75791" lon="7.01569">
        <ele>973.40002441406</ele>
        <time>2021-03-04T09:35:02.000Z</time>
      </trkpt>
      <trkpt lat="43.75792" lon="7.01568">
        <ele>973.59997558594</ele>
        <time>2021-03-04T09:35:07.000Z</time>
      </trkpt>
      <trkpt lat="43.75793" lon="7.01569">
        <ele>973.20001220703</ele>
        <time>2021-03-04T09:35:12.000Z</time>
      </trkpt>
      <trkpt lat="43.75794" lon="7.01568">
        <ele>973.59997558594</ele>
        <time>2021-03-04T09:35:15.000Z</time>
      </trkpt>
      <trkpt lat="43.75795" lon="7.01567">
        <ele>973.59997558594</ele>
        <time>2021-03-04T09:35:17.000Z</time>
      </trkpt>
      <trkpt lat="43.75797" lon="7.01566">
        <ele>973.40002441406</ele>
        <time>2021-03-04T09:35:23.000Z</time>
      </trkpt>
      <trkpt lat="43.75797" lon="7.0157">
        <ele>973.59997558594</ele>
        <time>2021-03-04T09:35:29.000Z</time>
      </trkpt>
      <trkpt lat="43.75797" lon="7.0157">
        <ele>973.79998779297</ele>
        <time>2021-03-04T09:35:36.000Z</time>
      </trkpt>
      <trkpt lat="43.75796" lon="7.01567">
        <ele>973.40002441406</ele>
        <time>2021-03-04T09:35:42.000Z</time>
      </trkpt>
      <trkpt lat="43.75796" lon="7.01569">
        <ele>974</ele>
        <time>2021-03-04T09:35:48.000Z</time>
      </trkpt>
      <trkpt lat="43.75796" lon="7.01571">
        <ele>974.20001220703</ele>
        <time>2021-03-04T09:35:55.000Z</time>
      </trkpt>
      <trkpt lat="43.75796" lon="7.01571">
        <ele>974</ele>
        <time>2021-03-04T09:36:02.000Z</time>
      </trkpt>
      <trkpt lat="43.75796" lon="7.01571">
        <ele>973.79998779297</ele>
        <time>2021-03-04T09:36:14.000Z</time>
      </trkpt>
      <trkpt lat="43.75796" lon="7.0157">
        <ele>973.59997558594</ele>
        <time>2021-03-04T09:36:36.000Z</time>
      </trkpt>
      <trkpt lat="43.75797" lon="7.01569">
        <ele>973.59997558594</ele>
        <time>2021-03-04T09:36:43.000Z</time>
      </trkpt>
      <trkpt lat="43.75797" lon="7.01568">
        <ele>973.59997558594</ele>
        <time>2021-03-04T09:36:49.000Z</time>
      </trkpt>
      <trkpt lat="43.75797" lon="7.01568">
        <ele>974</ele>
        <time>2021-03-04T09:36:58.000Z</time>
      </trkpt>
      <trkpt lat="43.75798" lon="7.01569">
        <ele>973.40002441406</ele>
        <time>2021-03-04T09:37:07.000Z</time>
      </trkpt>
      <trkpt lat="43.75798" lon="7.01569">
        <ele>973.79998779297</ele>
        <time>2021-03-04T09:37:14.000Z</time>
      </trkpt>
      <trkpt lat="43.75797" lon="7.01567">
        <ele>973.79998779297</ele>
        <time>2021-03-04T09:37:21.000Z</time>
      </trkpt>
      <trkpt lat="43.75798" lon="7.01567">
        <ele>973.59997558594</ele>
        <time>2021-03-04T09:37:30.000Z</time>
      </trkpt>
      <trkpt lat="43.75798" lon="7.01566">
        <ele>973.20001220703</ele>
        <time>2021-03-04T09:37:40.000Z</time>
      </trkpt>
      <trkpt lat="43.75798" lon="7.01567">
        <ele>973.20001220703</ele>
        <time>2021-03-04T09:37:53.000Z</time>
      </trkpt>
      <trkpt lat="43.75799" lon="7.01567">
        <ele>973</ele>
        <time>2021-03-04T09:38:12.000Z</time>
      </trkpt>
      <trkpt lat="43.75797" lon="7.0157">
        <ele>973.40002441406</ele>
        <time>2021-03-04T09:38:24.000Z</time>
      </trkpt>
      <trkpt lat="43.75796" lon="7.01569">
        <ele>973.20001220703</ele>
        <time>2021-03-04T09:38:34.000Z</time>
      </trkpt>
      <trkpt lat="43.75797" lon="7.0157">
        <ele>973</ele>
        <time>2021-03-04T09:38:43.000Z</time>
      </trkpt>
      <trkpt lat="43.75797" lon="7.0157">
        <ele>973.20001220703</ele>
        <time>2021-03-04T09:38:51.000Z</time>
      </trkpt>
      <trkpt lat="43.75797" lon="7.0157">
        <ele>973.40002441406</ele>
        <time>2021-03-04T09:39:03.000Z</time>
      </trkpt>
      <trkpt lat="43.75797" lon="7.0157">
        <ele>973.40002441406</ele>
        <time>2021-03-04T09:39:12.000Z</time>
      </trkpt>
      <trkpt lat="43.75796" lon="7.0157">
        <ele>973.59997558594</ele>
        <time>2021-03-04T09:39:23.000Z</time>
      </trkpt>
      <trkpt lat="43.75797" lon="7.0157">
        <ele>973</ele>
        <time>2021-03-04T09:39:28.000Z</time>
      </trkpt>
      <trkpt lat="43.75797" lon="7.01569">
        <ele>973</ele>
        <time>2021-03-04T09:39:39.000Z</time>
      </trkpt>
      <trkpt lat="43.75796" lon="7.01569">
        <ele>973</ele>
        <time>2021-03-04T09:39:54.000Z</time>
      </trkpt>
      <trkpt lat="43.75796" lon="7.01569">
        <ele>973.40002441406</ele>
        <time>2021-03-04T09:40:02.000Z</time>
      </trkpt>
      <trkpt lat="43.75796" lon="7.01569">
        <ele>973.40002441406</ele>
        <time>2021-03-04T09:40:10.000Z</time>
      </trkpt>
      <trkpt lat="43.75796" lon="7.01568">
        <ele>974</ele>
        <time>2021-03-04T09:40:27.000Z</time>
      </trkpt>
      <trkpt lat="43.75796" lon="7.01568">
        <ele>974</ele>
        <time>2021-03-04T09:40:43.000Z</time>
      </trkpt>
      <trkpt lat="43.75796" lon="7.01568">
        <ele>973.79998779297</ele>
        <time>2021-03-04T09:41:03.000Z</time>
      </trkpt>
      <trkpt lat="43.75794" lon="7.01567">
        <ele>973.79998779297</ele>
        <time>2021-03-04T09:41:12.000Z</time>
      </trkpt>
      <trkpt lat="43.75793" lon="7.01567">
        <ele>974.40002441406</ele>
        <time>2021-03-04T09:41:19.000Z</time>
      </trkpt>
      <trkpt lat="43.75794" lon="7.01566">
        <ele>974.20001220703</ele>
        <time>2021-03-04T09:41:25.000Z</time>
      </trkpt>
      <trkpt lat="43.75795" lon="7.01566">
        <ele>974.20001220703</ele>
        <time>2021-03-04T09:41:32.000Z</time>
      </trkpt>
      <trkpt lat="43.75795" lon="7.01565">
        <ele>974.59997558594</ele>
        <time>2021-03-04T09:41:36.000Z</time>
      </trkpt>
      <trkpt lat="43.75795" lon="7.01565">
        <ele>974.40002441406</ele>
        <time>2021-03-04T09:41:38.000Z</time>
      </trkpt>
      <trkpt lat="43.75795" lon="7.01565">
        <ele>974.40002441406</ele>
        <time>2021-03-04T09:41:43.000Z</time>
      </trkpt>
      <trkpt lat="43.75795" lon="7.01564">
        <ele>974</ele>
        <time>2021-03-04T09:41:48.000Z</time>
      </trkpt>
      <trkpt lat="43.75795" lon="7.01565">
        <ele>973.79998779297</ele>
        <time>2021-03-04T09:42:06.000Z</time>
      </trkpt>
      <trkpt lat="43.75797" lon="7.01562">
        <ele>973.79998779297</ele>
        <time>2021-03-04T09:42:15.000Z</time>
      </trkpt>
      <trkpt lat="43.75798" lon="7.01559">
        <ele>973.59997558594</ele>
        <time>2021-03-04T09:42:16.000Z</time>
      </trkpt>
      <trkpt lat="43.758" lon="7.01552">
        <ele>973.59997558594</ele>
        <time>2021-03-04T09:42:18.000Z</time>
      </trkpt>
      <trkpt lat="43.75804" lon="7.01542">
        <ele>973</ele>
        <time>2021-03-04T09:42:20.000Z</time>
      </trkpt>
      <trkpt lat="43.75809" lon="7.01537">
        <ele>972.40002441406</ele>
        <time>2021-03-04T09:42:22.000Z</time>
      </trkpt>
      <trkpt lat="43.75812" lon="7.01536">
        <ele>972</ele>
        <time>2021-03-04T09:42:23.000Z</time>
      </trkpt>
      <trkpt lat="43.75823" lon="7.0153">
        <ele>971.20001220703</ele>
        <time>2021-03-04T09:42:26.000Z</time>
      </trkpt>
      <trkpt lat="43.75828" lon="7.01527">
        <ele>970.59997558594</ele>
        <time>2021-03-04T09:42:27.000Z</time>
      </trkpt>
      <trkpt lat="43.75833" lon="7.01524">
        <ele>970.20001220703</ele>
        <time>2021-03-04T09:42:28.000Z</time>
      </trkpt>
      <trkpt lat="43.75838" lon="7.0152">
        <ele>969.40002441406</ele>
        <time>2021-03-04T09:42:29.000Z</time>
      </trkpt>
      <trkpt lat="43.75844" lon="7.01516">
        <ele>968.59997558594</ele>
        <time>2021-03-04T09:42:30.000Z</time>
      </trkpt>
      <trkpt lat="43.75849" lon="7.01512">
        <ele>967.40002441406</ele>
        <time>2021-03-04T09:42:31.000Z</time>
      </trkpt>
      <trkpt lat="43.75853" lon="7.01508">
        <ele>966.79998779297</ele>
        <time>2021-03-04T09:42:32.000Z</time>
      </trkpt>
      <trkpt lat="43.75858" lon="7.01505">
        <ele>965.79998779297</ele>
        <time>2021-03-04T09:42:33.000Z</time>
      </trkpt>
      <trkpt lat="43.75867" lon="7.01498">
        <ele>964.20001220703</ele>
        <time>2021-03-04T09:42:35.000Z</time>
      </trkpt>
      <trkpt lat="43.75877" lon="7.01489">
        <ele>962.40002441406</ele>
        <time>2021-03-04T09:42:37.000Z</time>
      </trkpt>
      <trkpt lat="43.75887" lon="7.01481">
        <ele>960.79998779297</ele>
        <time>2021-03-04T09:42:39.000Z</time>
      </trkpt>
      <trkpt lat="43.75897" lon="7.01472">
        <ele>959.40002441406</ele>
        <time>2021-03-04T09:42:41.000Z</time>
      </trkpt>
      <trkpt lat="43.75906" lon="7.01465">
        <ele>958</ele>
        <time>2021-03-04T09:42:43.000Z</time>
      </trkpt>
      <trkpt lat="43.75915" lon="7.01462">
        <ele>955.40002441406</ele>
        <time>2021-03-04T09:42:45.000Z</time>
      </trkpt>
      <trkpt lat="43.75919" lon="7.01462">
        <ele>954.20001220703</ele>
        <time>2021-03-04T09:42:46.000Z</time>
      </trkpt>
      <trkpt lat="43.75923" lon="7.0146">
        <ele>953</ele>
        <time>2021-03-04T09:42:47.000Z</time>
      </trkpt>
      <trkpt lat="43.75928" lon="7.01457">
        <ele>951.59997558594</ele>
        <time>2021-03-04T09:42:48.000Z</time>
      </trkpt>
      <trkpt lat="43.75931" lon="7.01456">
        <ele>950.59997558594</ele>
        <time>2021-03-04T09:42:49.000Z</time>
      </trkpt>
      <trkpt lat="43.75938" lon="7.01452">
        <ele>948.79998779297</ele>
        <time>2021-03-04T09:42:51.000Z</time>
      </trkpt>
      <trkpt lat="43.75945" lon="7.01449">
        <ele>948</ele>
        <time>2021-03-04T09:42:53.000Z</time>
      </trkpt>
      <trkpt lat="43.7595" lon="7.01446">
        <ele>947.59997558594</ele>
        <time>2021-03-04T09:42:54.000Z</time>
      </trkpt>
      <trkpt lat="43.75959" lon="7.01442">
        <ele>946</ele>
        <time>2021-03-04T09:42:56.000Z</time>
      </trkpt>
      <trkpt lat="43.75963" lon="7.01439">
        <ele>945</ele>
        <time>2021-03-04T09:42:57.000Z</time>
      </trkpt>
      <trkpt lat="43.75968" lon="7.01436">
        <ele>944</ele>
        <time>2021-03-04T09:42:58.000Z</time>
      </trkpt>
      <trkpt lat="43.75984" lon="7.01423">
        <ele>943</ele>
        <time>2021-03-04T09:43:01.000Z</time>
      </trkpt>
      <trkpt lat="43.75988" lon="7.01421">
        <ele>942.79998779297</ele>
        <time>2021-03-04T09:43:02.000Z</time>
      </trkpt>
      <trkpt lat="43.75991" lon="7.0142">
        <ele>942.20001220703</ele>
        <time>2021-03-04T09:43:03.000Z</time>
      </trkpt>
      <trkpt lat="43.75993" lon="7.01417">
        <ele>941.40002441406</ele>
        <time>2021-03-04T09:43:04.000Z</time>
      </trkpt>
      <trkpt lat="43.76" lon="7.01409">
        <ele>940.40002441406</ele>
        <time>2021-03-04T09:43:06.000Z</time>
      </trkpt>
      <trkpt lat="43.76004" lon="7.01404">
        <ele>939.59997558594</ele>
        <time>2021-03-04T09:43:07.000Z</time>
      </trkpt>
      <trkpt lat="43.76008" lon="7.01399">
        <ele>939</ele>
        <time>2021-03-04T09:43:08.000Z</time>
      </trkpt>
      <trkpt lat="43.76012" lon="7.01393">
        <ele>938.59997558594</ele>
        <time>2021-03-04T09:43:09.000Z</time>
      </trkpt>
      <trkpt lat="43.76015" lon="7.01388">
        <ele>937.59997558594</ele>
        <time>2021-03-04T09:43:10.000Z</time>
      </trkpt>
      <trkpt lat="43.76019" lon="7.01382">
        <ele>936.20001220703</ele>
        <time>2021-03-04T09:43:11.000Z</time>
      </trkpt>
      <trkpt lat="43.76021" lon="7.01377">
        <ele>935.20001220703</ele>
        <time>2021-03-04T09:43:12.000Z</time>
      </trkpt>
      <trkpt lat="43.76023" lon="7.0137">
        <ele>933.79998779297</ele>
        <time>2021-03-04T09:43:13.000Z</time>
      </trkpt>
      <trkpt lat="43.76025" lon="7.01365">
        <ele>933</ele>
        <time>2021-03-04T09:43:14.000Z</time>
      </trkpt>
      <trkpt lat="43.76027" lon="7.01361">
        <ele>932.40002441406</ele>
        <time>2021-03-04T09:43:15.000Z</time>
      </trkpt>
      <trkpt lat="43.76034" lon="7.0135">
        <ele>930.40002441406</ele>
        <time>2021-03-04T09:43:18.000Z</time>
      </trkpt>
      <trkpt lat="43.76041" lon="7.0134">
        <ele>928.79998779297</ele>
        <time>2021-03-04T09:43:20.000Z</time>
      </trkpt>
      <trkpt lat="43.76049" lon="7.01333">
        <ele>927.20001220703</ele>
        <time>2021-03-04T09:43:22.000Z</time>
      </trkpt>
      <trkpt lat="43.76051" lon="7.01326">
        <ele>925.79998779297</ele>
        <time>2021-03-04T09:43:24.000Z</time>
      </trkpt>
      <trkpt lat="43.76051" lon="7.01322">
        <ele>925.79998779297</ele>
        <time>2021-03-04T09:43:25.000Z</time>
      </trkpt>
      <trkpt lat="43.7605" lon="7.01315">
        <ele>924.59997558594</ele>
        <time>2021-03-04T09:43:27.000Z</time>
      </trkpt>
      <trkpt lat="43.76052" lon="7.01304">
        <ele>923.79998779297</ele>
        <time>2021-03-04T09:43:29.000Z</time>
      </trkpt>
      <trkpt lat="43.76052" lon="7.01299">
        <ele>922.40002441406</ele>
        <time>2021-03-04T09:43:30.000Z</time>
      </trkpt>
      <trkpt lat="43.76054" lon="7.01292">
        <ele>921.79998779297</ele>
        <time>2021-03-04T09:43:31.000Z</time>
      </trkpt>
      <trkpt lat="43.76057" lon="7.01288">
        <ele>921</ele>
        <time>2021-03-04T09:43:32.000Z</time>
      </trkpt>
      <trkpt lat="43.7606" lon="7.01283">
        <ele>920</ele>
        <time>2021-03-04T09:43:33.000Z</time>
      </trkpt>
      <trkpt lat="43.76063" lon="7.01274">
        <ele>918.79998779297</ele>
        <time>2021-03-04T09:43:35.000Z</time>
      </trkpt>
      <trkpt lat="43.76064" lon="7.01262">
        <ele>918.20001220703</ele>
        <time>2021-03-04T09:43:37.000Z</time>
      </trkpt>
      <trkpt lat="43.76061" lon="7.01249">
        <ele>917.79998779297</ele>
        <time>2021-03-04T09:43:40.000Z</time>
      </trkpt>
      <trkpt lat="43.76059" lon="7.01242">
        <ele>917.59997558594</ele>
        <time>2021-03-04T09:43:41.000Z</time>
      </trkpt>
      <trkpt lat="43.76055" lon="7.01222">
        <ele>916</ele>
        <time>2021-03-04T09:43:44.000Z</time>
      </trkpt>
      <trkpt lat="43.76055" lon="7.01214">
        <ele>915</ele>
        <time>2021-03-04T09:43:45.000Z</time>
      </trkpt>
      <trkpt lat="43.76055" lon="7.01205">
        <ele>913.59997558594</ele>
        <time>2021-03-04T09:43:46.000Z</time>
      </trkpt>
      <trkpt lat="43.76056" lon="7.01198">
        <ele>912.20001220703</ele>
        <time>2021-03-04T09:43:47.000Z</time>
      </trkpt>
      <trkpt lat="43.76057" lon="7.0119">
        <ele>910.59997558594</ele>
        <time>2021-03-04T09:43:48.000Z</time>
      </trkpt>
      <trkpt lat="43.76058" lon="7.01183">
        <ele>909.59997558594</ele>
        <time>2021-03-04T09:43:49.000Z</time>
      </trkpt>
      <trkpt lat="43.7606" lon="7.01178">
        <ele>908.59997558594</ele>
        <time>2021-03-04T09:43:50.000Z</time>
      </trkpt>
      <trkpt lat="43.76062" lon="7.01173">
        <ele>908</ele>
        <time>2021-03-04T09:43:51.000Z</time>
      </trkpt>
      <trkpt lat="43.76067" lon="7.01161">
        <ele>907.79998779297</ele>
        <time>2021-03-04T09:43:54.000Z</time>
      </trkpt>
      <trkpt lat="43.76071" lon="7.01153">
        <ele>908.40002441406</ele>
        <time>2021-03-04T09:43:56.000Z</time>
      </trkpt>
      <trkpt lat="43.76076" lon="7.01145">
        <ele>908.79998779297</ele>
        <time>2021-03-04T09:43:59.000Z</time>
      </trkpt>
      <trkpt lat="43.76077" lon="7.0114">
        <ele>909</ele>
        <time>2021-03-04T09:44:00.000Z</time>
      </trkpt>
      <trkpt lat="43.76085" lon="7.01122">
        <ele>909.20001220703</ele>
        <time>2021-03-04T09:44:04.000Z</time>
      </trkpt>
      <trkpt lat="43.7609" lon="7.01104">
        <ele>909.59997558594</ele>
        <time>2021-03-04T09:44:09.000Z</time>
      </trkpt>
      <trkpt lat="43.7609" lon="7.01098">
        <ele>909.79998779297</ele>
        <time>2021-03-04T09:44:10.000Z</time>
      </trkpt>
      <trkpt lat="43.76093" lon="7.01079">
        <ele>909.59997558594</ele>
        <time>2021-03-04T09:44:13.000Z</time>
      </trkpt>
      <trkpt lat="43.76097" lon="7.01055">
        <ele>908.40002441406</ele>
        <time>2021-03-04T09:44:17.000Z</time>
      </trkpt>
      <trkpt lat="43.76098" lon="7.01044">
        <ele>907.79998779297</ele>
        <time>2021-03-04T09:44:19.000Z</time>
      </trkpt>
      <trkpt lat="43.76099" lon="7.01037">
        <ele>907.20001220703</ele>
        <time>2021-03-04T09:44:20.000Z</time>
      </trkpt>
      <trkpt lat="43.761" lon="7.01029">
        <ele>906.59997558594</ele>
        <time>2021-03-04T09:44:21.000Z</time>
      </trkpt>
      <trkpt lat="43.76102" lon="7.01023">
        <ele>906.20001220703</ele>
        <time>2021-03-04T09:44:22.000Z</time>
      </trkpt>
      <trkpt lat="43.76103" lon="7.01018">
        <ele>905.59997558594</ele>
        <time>2021-03-04T09:44:23.000Z</time>
      </trkpt>
      <trkpt lat="43.76105" lon="7.01013">
        <ele>905.20001220703</ele>
        <time>2021-03-04T09:44:24.000Z</time>
      </trkpt>
      <trkpt lat="43.76106" lon="7.01007">
        <ele>904.79998779297</ele>
        <time>2021-03-04T09:44:25.000Z</time>
      </trkpt>
      <trkpt lat="43.76106" lon="7.00992">
        <ele>904.20001220703</ele>
        <time>2021-03-04T09:44:27.000Z</time>
      </trkpt>
      <trkpt lat="43.76109" lon="7.00979">
        <ele>903.40002441406</ele>
        <time>2021-03-04T09:44:29.000Z</time>
      </trkpt>
      <trkpt lat="43.76111" lon="7.00974">
        <ele>902.79998779297</ele>
        <time>2021-03-04T09:44:30.000Z</time>
      </trkpt>
      <trkpt lat="43.76113" lon="7.0097">
        <ele>902.40002441406</ele>
        <time>2021-03-04T09:44:31.000Z</time>
      </trkpt>
      <trkpt lat="43.76119" lon="7.00957">
        <ele>902.40002441406</ele>
        <time>2021-03-04T09:44:35.000Z</time>
      </trkpt>
      <trkpt lat="43.76126" lon="7.0094">
        <ele>903.20001220703</ele>
        <time>2021-03-04T09:44:39.000Z</time>
      </trkpt>
      <trkpt lat="43.7613" lon="7.00925">
        <ele>903.20001220703</ele>
        <time>2021-03-04T09:44:43.000Z</time>
      </trkpt>
      <trkpt lat="43.76125" lon="7.00917">
        <ele>903.40002441406</ele>
        <time>2021-03-04T09:44:46.000Z</time>
      </trkpt>
      <trkpt lat="43.76117" lon="7.00905">
        <ele>901.40002441406</ele>
        <time>2021-03-04T09:44:50.000Z</time>
      </trkpt>
      <trkpt lat="43.76114" lon="7.00896">
        <ele>900</ele>
        <time>2021-03-04T09:44:52.000Z</time>
      </trkpt>
      <trkpt lat="43.76107" lon="7.00882">
        <ele>899.40002441406</ele>
        <time>2021-03-04T09:44:55.000Z</time>
      </trkpt>
      <trkpt lat="43.76101" lon="7.00872">
        <ele>899</ele>
        <time>2021-03-04T09:44:57.000Z</time>
      </trkpt>
      <trkpt lat="43.7609" lon="7.00848">
        <ele>896.79998779297</ele>
        <time>2021-03-04T09:45:01.000Z</time>
      </trkpt>
      <trkpt lat="43.76088" lon="7.00836">
        <ele>895.20001220703</ele>
        <time>2021-03-04T09:45:03.000Z</time>
      </trkpt>
      <trkpt lat="43.76088" lon="7.00826">
        <ele>894.59997558594</ele>
        <time>2021-03-04T09:45:05.000Z</time>
      </trkpt>
      <trkpt lat="43.76087" lon="7.00821">
        <ele>895</ele>
        <time>2021-03-04T09:45:06.000Z</time>
      </trkpt>
      <trkpt lat="43.76086" lon="7.00819">
        <ele>895.40002441406</ele>
        <time>2021-03-04T09:45:07.000Z</time>
      </trkpt>
      <trkpt lat="43.76083" lon="7.0081">
        <ele>896</ele>
        <time>2021-03-04T09:45:09.000Z</time>
      </trkpt>
      <trkpt lat="43.76082" lon="7.00794">
        <ele>896.40002441406</ele>
        <time>2021-03-04T09:45:12.000Z</time>
      </trkpt>
      <trkpt lat="43.76082" lon="7.00789">
        <ele>896.20001220703</ele>
        <time>2021-03-04T09:45:13.000Z</time>
      </trkpt>
      <trkpt lat="43.76079" lon="7.0078">
        <ele>896.59997558594</ele>
        <time>2021-03-04T09:45:15.000Z</time>
      </trkpt>
      <trkpt lat="43.76077" lon="7.00765">
        <ele>897.40002441406</ele>
        <time>2021-03-04T09:45:18.000Z</time>
      </trkpt>
      <trkpt lat="43.76076" lon="7.0076">
        <ele>897.79998779297</ele>
        <time>2021-03-04T09:45:19.000Z</time>
      </trkpt>
      <trkpt lat="43.76072" lon="7.00742">
        <ele>898.40002441406</ele>
        <time>2021-03-04T09:45:22.000Z</time>
      </trkpt>
      <trkpt lat="43.76071" lon="7.00734">
        <ele>898.40002441406</ele>
        <time>2021-03-04T09:45:24.000Z</time>
      </trkpt>
      <trkpt lat="43.76064" lon="7.00711">
        <ele>898.20001220703</ele>
        <time>2021-03-04T09:45:29.000Z</time>
      </trkpt>
      <trkpt lat="43.76056" lon="7.00688">
        <ele>898</ele>
        <time>2021-03-04T09:45:34.000Z</time>
      </trkpt>
      <trkpt lat="43.76054" lon="7.0067">
        <ele>897.20001220703</ele>
        <time>2021-03-04T09:45:38.000Z</time>
      </trkpt>
      <trkpt lat="43.76052" lon="7.00654">
        <ele>896.59997558594</ele>
        <time>2021-03-04T09:45:41.000Z</time>
      </trkpt>
      <trkpt lat="43.76053" lon="7.00648">
        <ele>896.59997558594</ele>
        <time>2021-03-04T09:45:42.000Z</time>
      </trkpt>
      <trkpt lat="43.76054" lon="7.00636">
        <ele>896.20001220703</ele>
        <time>2021-03-04T09:45:44.000Z</time>
      </trkpt>
      <trkpt lat="43.76055" lon="7.00624">
        <ele>895.79998779297</ele>
        <time>2021-03-04T09:45:46.000Z</time>
      </trkpt>
      <trkpt lat="43.76056" lon="7.00618">
        <ele>895.79998779297</ele>
        <time>2021-03-04T09:45:47.000Z</time>
      </trkpt>
      <trkpt lat="43.76061" lon="7.00603">
        <ele>895.40002441406</ele>
        <time>2021-03-04T09:45:50.000Z</time>
      </trkpt>
      <trkpt lat="43.76063" lon="7.00599">
        <ele>895.20001220703</ele>
        <time>2021-03-04T09:45:51.000Z</time>
      </trkpt>
      <trkpt lat="43.76064" lon="7.00595">
        <ele>894.79998779297</ele>
        <time>2021-03-04T09:45:52.000Z</time>
      </trkpt>
      <trkpt lat="43.76067" lon="7.00586">
        <ele>893.79998779297</ele>
        <time>2021-03-04T09:45:54.000Z</time>
      </trkpt>
      <trkpt lat="43.76073" lon="7.00576">
        <ele>893</ele>
        <time>2021-03-04T09:45:56.000Z</time>
      </trkpt>
      <trkpt lat="43.76076" lon="7.0057">
        <ele>892.79998779297</ele>
        <time>2021-03-04T09:45:57.000Z</time>
      </trkpt>
      <trkpt lat="43.7608" lon="7.00564">
        <ele>892.59997558594</ele>
        <time>2021-03-04T09:45:58.000Z</time>
      </trkpt>
      <trkpt lat="43.76088" lon="7.00552">
        <ele>891.79998779297</ele>
        <time>2021-03-04T09:46:00.000Z</time>
      </trkpt>
      <trkpt lat="43.76092" lon="7.00546">
        <ele>891.20001220703</ele>
        <time>2021-03-04T09:46:01.000Z</time>
      </trkpt>
      <trkpt lat="43.761" lon="7.00534">
        <ele>889.40002441406</ele>
        <time>2021-03-04T09:46:03.000Z</time>
      </trkpt>
      <trkpt lat="43.76109" lon="7.00523">
        <ele>888.59997558594</ele>
        <time>2021-03-04T09:46:05.000Z</time>
      </trkpt>
      <trkpt lat="43.76114" lon="7.00517">
        <ele>888.20001220703</ele>
        <time>2021-03-04T09:46:06.000Z</time>
      </trkpt>
      <trkpt lat="43.76118" lon="7.0051">
        <ele>888</ele>
        <time>2021-03-04T09:46:07.000Z</time>
      </trkpt>
      <trkpt lat="43.76127" lon="7.00498">
        <ele>886.79998779297</ele>
        <time>2021-03-04T09:46:09.000Z</time>
      </trkpt>
      <trkpt lat="43.7613" lon="7.00494">
        <ele>886.40002441406</ele>
        <time>2021-03-04T09:46:10.000Z</time>
      </trkpt>
      <trkpt lat="43.76132" lon="7.00489">
        <ele>885.79998779297</ele>
        <time>2021-03-04T09:46:11.000Z</time>
      </trkpt>
      <trkpt lat="43.76136" lon="7.00475">
        <ele>884.40002441406</ele>
        <time>2021-03-04T09:46:14.000Z</time>
      </trkpt>
      <trkpt lat="43.76139" lon="7.00467">
        <ele>882.79998779297</ele>
        <time>2021-03-04T09:46:16.000Z</time>
      </trkpt>
      <trkpt lat="43.76141" lon="7.0046">
        <ele>881.79998779297</ele>
        <time>2021-03-04T09:46:17.000Z</time>
      </trkpt>
      <trkpt lat="43.76144" lon="7.00454">
        <ele>880.59997558594</ele>
        <time>2021-03-04T09:46:18.000Z</time>
      </trkpt>
      <trkpt lat="43.76148" lon="7.00448">
        <ele>879.20001220703</ele>
        <time>2021-03-04T09:46:19.000Z</time>
      </trkpt>
      <trkpt lat="43.76153" lon="7.00443">
        <ele>877.59997558594</ele>
        <time>2021-03-04T09:46:20.000Z</time>
      </trkpt>
      <trkpt lat="43.76156" lon="7.00438">
        <ele>876.59997558594</ele>
        <time>2021-03-04T09:46:21.000Z</time>
      </trkpt>
      <trkpt lat="43.76156" lon="7.00436">
        <ele>876</ele>
        <time>2021-03-04T09:46:22.000Z</time>
      </trkpt>
      <trkpt lat="43.76152" lon="7.00434">
        <ele>875.40002441406</ele>
        <time>2021-03-04T09:46:24.000Z</time>
      </trkpt>
      <trkpt lat="43.76147" lon="7.00433">
        <ele>875</ele>
        <time>2021-03-04T09:46:25.000Z</time>
      </trkpt>
      <trkpt lat="43.76134" lon="7.00431">
        <ele>873.59997558594</ele>
        <time>2021-03-04T09:46:28.000Z</time>
      </trkpt>
      <trkpt lat="43.76131" lon="7.00428">
        <ele>873.40002441406</ele>
        <time>2021-03-04T09:46:30.000Z</time>
      </trkpt>
      <trkpt lat="43.7613" lon="7.00419">
        <ele>872.59997558594</ele>
        <time>2021-03-04T09:46:33.000Z</time>
      </trkpt>
      <trkpt lat="43.76131" lon="7.00418">
        <ele>871.20001220703</ele>
        <time>2021-03-04T09:46:34.000Z</time>
      </trkpt>
      <trkpt lat="43.76134" lon="7.00417">
        <ele>869.59997558594</ele>
        <time>2021-03-04T09:46:36.000Z</time>
      </trkpt>
      <trkpt lat="43.76135" lon="7.0041">
        <ele>869.40002441406</ele>
        <time>2021-03-04T09:46:38.000Z</time>
      </trkpt>
      <trkpt lat="43.76133" lon="7.00394">
        <ele>868.79998779297</ele>
        <time>2021-03-04T09:46:41.000Z</time>
      </trkpt>
      <trkpt lat="43.76134" lon="7.00388">
        <ele>868.59997558594</ele>
        <time>2021-03-04T09:46:42.000Z</time>
      </trkpt>
      <trkpt lat="43.76133" lon="7.00373">
        <ele>868.20001220703</ele>
        <time>2021-03-04T09:46:45.000Z</time>
      </trkpt>
      <trkpt lat="43.76134" lon="7.00352">
        <ele>868.40002441406</ele>
        <time>2021-03-04T09:46:50.000Z</time>
      </trkpt>
      <trkpt lat="43.76141" lon="7.00335">
        <ele>869.20001220703</ele>
        <time>2021-03-04T09:46:55.000Z</time>
      </trkpt>
      <trkpt lat="43.76143" lon="7.00332">
        <ele>869.40002441406</ele>
        <time>2021-03-04T09:46:56.000Z</time>
      </trkpt>
      <trkpt lat="43.76144" lon="7.00331">
        <ele>869.59997558594</ele>
        <time>2021-03-04T09:46:57.000Z</time>
      </trkpt>
      <trkpt lat="43.76147" lon="7.0033">
        <ele>869.79998779297</ele>
        <time>2021-03-04T09:46:58.000Z</time>
      </trkpt>
      <trkpt lat="43.76154" lon="7.00323">
        <ele>870</ele>
        <time>2021-03-04T09:47:01.000Z</time>
      </trkpt>
      <trkpt lat="43.76162" lon="7.00315">
        <ele>870</ele>
        <time>2021-03-04T09:47:04.000Z</time>
      </trkpt>
      <trkpt lat="43.76174" lon="7.00306">
        <ele>869.79998779297</ele>
        <time>2021-03-04T09:47:09.000Z</time>
      </trkpt>
      <trkpt lat="43.76175" lon="7.00304">
        <ele>869.79998779297</ele>
        <time>2021-03-04T09:47:13.000Z</time>
      </trkpt>
      <trkpt lat="43.76179" lon="7.00302">
        <ele>868.59997558594</ele>
        <time>2021-03-04T09:47:26.000Z</time>
      </trkpt>
      <trkpt lat="43.76181" lon="7.00301">
        <ele>868.59997558594</ele>
        <time>2021-03-04T09:47:27.000Z</time>
      </trkpt>
      <trkpt lat="43.76193" lon="7.00289">
        <ele>868</ele>
        <time>2021-03-04T09:47:32.000Z</time>
      </trkpt>
      <trkpt lat="43.76201" lon="7.0028">
        <ele>867.59997558594</ele>
        <time>2021-03-04T09:47:35.000Z</time>
      </trkpt>
      <trkpt lat="43.76207" lon="7.00273">
        <ele>867.40002441406</ele>
        <time>2021-03-04T09:47:37.000Z</time>
      </trkpt>
      <trkpt lat="43.76223" lon="7.00256">
        <ele>867.20001220703</ele>
        <time>2021-03-04T09:47:43.000Z</time>
      </trkpt>
      <trkpt lat="43.76237" lon="7.00248">
        <ele>867</ele>
        <time>2021-03-04T09:47:48.000Z</time>
      </trkpt>
      <trkpt lat="43.76245" lon="7.00242">
        <ele>866.20001220703</ele>
        <time>2021-03-04T09:47:51.000Z</time>
      </trkpt>
      <trkpt lat="43.76248" lon="7.00236">
        <ele>865.79998779297</ele>
        <time>2021-03-04T09:47:53.000Z</time>
      </trkpt>
      <trkpt lat="43.76253" lon="7.0023">
        <ele>866</ele>
        <time>2021-03-04T09:47:56.000Z</time>
      </trkpt>
      <trkpt lat="43.76257" lon="7.00227">
        <ele>866.59997558594</ele>
        <time>2021-03-04T09:47:58.000Z</time>
      </trkpt>
      <trkpt lat="43.76265" lon="7.00219">
        <ele>867.40002441406</ele>
        <time>2021-03-04T09:48:03.000Z</time>
      </trkpt>
      <trkpt lat="43.76267" lon="7.00218">
        <ele>867.40002441406</ele>
        <time>2021-03-04T09:48:04.000Z</time>
      </trkpt>
      <trkpt lat="43.76275" lon="7.00213">
        <ele>867.40002441406</ele>
        <time>2021-03-04T09:48:09.000Z</time>
      </trkpt>
      <trkpt lat="43.76277" lon="7.00212">
        <ele>867.20001220703</ele>
        <time>2021-03-04T09:48:10.000Z</time>
      </trkpt>
      <trkpt lat="43.76283" lon="7.00206">
        <ele>867</ele>
        <time>2021-03-04T09:48:14.000Z</time>
      </trkpt>
      <trkpt lat="43.76286" lon="7.00204">
        <ele>867</ele>
        <time>2021-03-04T09:48:15.000Z</time>
      </trkpt>
      <trkpt lat="43.76297" lon="7.00194">
        <ele>867.40002441406</ele>
        <time>2021-03-04T09:48:20.000Z</time>
      </trkpt>
      <trkpt lat="43.76309" lon="7.00188">
        <ele>867.59997558594</ele>
        <time>2021-03-04T09:48:25.000Z</time>
      </trkpt>
      <trkpt lat="43.76328" lon="7.00175">
        <ele>867</ele>
        <time>2021-03-04T09:48:31.000Z</time>
      </trkpt>
      <trkpt lat="43.76338" lon="7.00167">
        <ele>866.20001220703</ele>
        <time>2021-03-04T09:48:34.000Z</time>
      </trkpt>
      <trkpt lat="43.76344" lon="7.00159">
        <ele>865.79998779297</ele>
        <time>2021-03-04T09:48:37.000Z</time>
      </trkpt>
      <trkpt lat="43.76349" lon="7.00157">
        <ele>867.20001220703</ele>
        <time>2021-03-04T09:48:41.000Z</time>
      </trkpt>
      <trkpt lat="43.76351" lon="7.00157">
        <ele>867.59997558594</ele>
        <time>2021-03-04T09:48:42.000Z</time>
      </trkpt>
      <trkpt lat="43.7636" lon="7.00149">
        <ele>868</ele>
        <time>2021-03-04T09:48:47.000Z</time>
      </trkpt>
      <trkpt lat="43.76361" lon="7.00148">
        <ele>868.40002441406</ele>
        <time>2021-03-04T09:48:49.000Z</time>
      </trkpt>
      <trkpt lat="43.76365" lon="7.00146">
        <ele>868.79998779297</ele>
        <time>2021-03-04T09:48:51.000Z</time>
      </trkpt>
      <trkpt lat="43.76366" lon="7.00145">
        <ele>869</ele>
        <time>2021-03-04T09:48:52.000Z</time>
      </trkpt>
      <trkpt lat="43.76368" lon="7.00144">
        <ele>869.40002441406</ele>
        <time>2021-03-04T09:48:53.000Z</time>
      </trkpt>
      <trkpt lat="43.76376" lon="7.00133">
        <ele>869.79998779297</ele>
        <time>2021-03-04T09:48:57.000Z</time>
      </trkpt>
      <trkpt lat="43.76384" lon="7.00121">
        <ele>870.79998779297</ele>
        <time>2021-03-04T09:49:02.000Z</time>
      </trkpt>
      <trkpt lat="43.76385" lon="7.00118">
        <ele>871</ele>
        <time>2021-03-04T09:49:03.000Z</time>
      </trkpt>
      <trkpt lat="43.76392" lon="7.00111">
        <ele>871.79998779297</ele>
        <time>2021-03-04T09:49:06.000Z</time>
      </trkpt>
      <trkpt lat="43.76397" lon="7.00103">
        <ele>872.40002441406</ele>
        <time>2021-03-04T09:49:09.000Z</time>
      </trkpt>
      <trkpt lat="43.76406" lon="7.00092">
        <ele>873</ele>
        <time>2021-03-04T09:49:14.000Z</time>
      </trkpt>
      <trkpt lat="43.76407" lon="7.00088">
        <ele>873.20001220703</ele>
        <time>2021-03-04T09:49:15.000Z</time>
      </trkpt>
      <trkpt lat="43.76409" lon="7.00082">
        <ele>874</ele>
        <time>2021-03-04T09:49:17.000Z</time>
      </trkpt>
      <trkpt lat="43.76408" lon="7.00078">
        <ele>874.59997558594</ele>
        <time>2021-03-04T09:49:18.000Z</time>
      </trkpt>
      <trkpt lat="43.76409" lon="7.00074">
        <ele>875</ele>
        <time>2021-03-04T09:49:19.000Z</time>
      </trkpt>
      <trkpt lat="43.76409" lon="7.00071">
        <ele>875.59997558594</ele>
        <time>2021-03-04T09:49:20.000Z</time>
      </trkpt>
      <trkpt lat="43.7641" lon="7.00064">
        <ele>876.79998779297</ele>
        <time>2021-03-04T09:49:22.000Z</time>
      </trkpt>
      <trkpt lat="43.76411" lon="7.00058">
        <ele>877.59997558594</ele>
        <time>2021-03-04T09:49:24.000Z</time>
      </trkpt>
      <trkpt lat="43.76411" lon="7.00054">
        <ele>878</ele>
        <time>2021-03-04T09:49:25.000Z</time>
      </trkpt>
      <trkpt lat="43.76414" lon="7.00044">
        <ele>879</ele>
        <time>2021-03-04T09:49:28.000Z</time>
      </trkpt>
      <trkpt lat="43.76415" lon="7.00041">
        <ele>879.40002441406</ele>
        <time>2021-03-04T09:49:29.000Z</time>
      </trkpt>
      <trkpt lat="43.76416" lon="7.00033">
        <ele>880.40002441406</ele>
        <time>2021-03-04T09:49:31.000Z</time>
      </trkpt>
      <trkpt lat="43.76417" lon="7.00023">
        <ele>881.40002441406</ele>
        <time>2021-03-04T09:49:34.000Z</time>
      </trkpt>
      <trkpt lat="43.76418" lon="7.00016">
        <ele>882</ele>
        <time>2021-03-04T09:49:36.000Z</time>
      </trkpt>
      <trkpt lat="43.76419" lon="7.00005">
        <ele>882.59997558594</ele>
        <time>2021-03-04T09:49:39.000Z</time>
      </trkpt>
      <trkpt lat="43.76423" lon="6.9999">
        <ele>883.59997558594</ele>
        <time>2021-03-04T09:49:43.000Z</time>
      </trkpt>
      <trkpt lat="43.76426" lon="6.99983">
        <ele>883.79998779297</ele>
        <time>2021-03-04T09:49:45.000Z</time>
      </trkpt>
      <trkpt lat="43.76427" lon="6.99971">
        <ele>883.59997558594</ele>
        <time>2021-03-04T09:49:48.000Z</time>
      </trkpt>
      <trkpt lat="43.76426" lon="6.99965">
        <ele>883.79998779297</ele>
        <time>2021-03-04T09:49:50.000Z</time>
      </trkpt>
      <trkpt lat="43.76425" lon="6.99958">
        <ele>884.20001220703</ele>
        <time>2021-03-04T09:49:52.000Z</time>
      </trkpt>
      <trkpt lat="43.76429" lon="6.99954">
        <ele>885</ele>
        <time>2021-03-04T09:49:54.000Z</time>
      </trkpt>
      <trkpt lat="43.7643" lon="6.99952">
        <ele>885.40002441406</ele>
        <time>2021-03-04T09:49:55.000Z</time>
      </trkpt>
      <trkpt lat="43.76432" lon="6.9995">
        <ele>885.59997558594</ele>
        <time>2021-03-04T09:49:56.000Z</time>
      </trkpt>
      <trkpt lat="43.76439" lon="6.99942">
        <ele>886</ele>
        <time>2021-03-04T09:50:00.000Z</time>
      </trkpt>
      <trkpt lat="43.7644" lon="6.9994">
        <ele>886.20001220703</ele>
        <time>2021-03-04T09:50:01.000Z</time>
      </trkpt>
      <trkpt lat="43.76443" lon="6.99935">
        <ele>887</ele>
        <time>2021-03-04T09:50:04.000Z</time>
      </trkpt>
      <trkpt lat="43.76445" lon="6.99933">
        <ele>887.40002441406</ele>
        <time>2021-03-04T09:50:05.000Z</time>
      </trkpt>
      <trkpt lat="43.7645" lon="6.99928">
        <ele>888.59997558594</ele>
        <time>2021-03-04T09:50:08.000Z</time>
      </trkpt>
      <trkpt lat="43.76455" lon="6.99925">
        <ele>889.59997558594</ele>
        <time>2021-03-04T09:50:10.000Z</time>
      </trkpt>
      <trkpt lat="43.76461" lon="6.99922">
        <ele>891</ele>
        <time>2021-03-04T09:50:13.000Z</time>
      </trkpt>
      <trkpt lat="43.76464" lon="6.9992">
        <ele>891.59997558594</ele>
        <time>2021-03-04T09:50:15.000Z</time>
      </trkpt>
      <trkpt lat="43.76466" lon="6.99916">
        <ele>892.20001220703</ele>
        <time>2021-03-04T09:50:17.000Z</time>
      </trkpt>
      <trkpt lat="43.7647" lon="6.99911">
        <ele>892.59997558594</ele>
        <time>2021-03-04T09:50:20.000Z</time>
      </trkpt>
      <trkpt lat="43.76472" lon="6.9991">
        <ele>892.59997558594</ele>
        <time>2021-03-04T09:50:21.000Z</time>
      </trkpt>
      <trkpt lat="43.76474" lon="6.99914">
        <ele>892.40002441406</ele>
        <time>2021-03-04T09:50:23.000Z</time>
      </trkpt>
      <trkpt lat="43.76477" lon="6.99917">
        <ele>892.40002441406</ele>
        <time>2021-03-04T09:50:25.000Z</time>
      </trkpt>
      <trkpt lat="43.76483" lon="6.99923">
        <ele>892.79998779297</ele>
        <time>2021-03-04T09:50:29.000Z</time>
      </trkpt>
      <trkpt lat="43.76486" lon="6.99927">
        <ele>893.20001220703</ele>
        <time>2021-03-04T09:50:31.000Z</time>
      </trkpt>
      <trkpt lat="43.76492" lon="6.99932">
        <ele>893.40002441406</ele>
        <time>2021-03-04T09:50:35.000Z</time>
      </trkpt>
      <trkpt lat="43.765" lon="6.99941">
        <ele>893.59997558594</ele>
        <time>2021-03-04T09:50:41.000Z</time>
      </trkpt>
      <trkpt lat="43.76513" lon="6.99951">
        <ele>894.20001220703</ele>
        <time>2021-03-04T09:50:49.000Z</time>
      </trkpt>
      <trkpt lat="43.76525" lon="6.99958">
        <ele>894</ele>
        <time>2021-03-04T09:50:55.000Z</time>
      </trkpt>
      <trkpt lat="43.76533" lon="6.99956">
        <ele>894</ele>
        <time>2021-03-04T09:51:00.000Z</time>
      </trkpt>
      <trkpt lat="43.76534" lon="6.99957">
        <ele>894.40002441406</ele>
        <time>2021-03-04T09:51:01.000Z</time>
      </trkpt>
      <trkpt lat="43.76539" lon="6.99962">
        <ele>895.40002441406</ele>
        <time>2021-03-04T09:51:05.000Z</time>
      </trkpt>
      <trkpt lat="43.76543" lon="6.99964">
        <ele>895.79998779297</ele>
        <time>2021-03-04T09:51:07.000Z</time>
      </trkpt>
      <trkpt lat="43.7655" lon="6.99964">
        <ele>896.40002441406</ele>
        <time>2021-03-04T09:51:11.000Z</time>
      </trkpt>
      <trkpt lat="43.76552" lon="6.99964">
        <ele>896.59997558594</ele>
        <time>2021-03-04T09:51:12.000Z</time>
      </trkpt>
      <trkpt lat="43.76553" lon="6.99962">
        <ele>896.79998779297</ele>
        <time>2021-03-04T09:51:13.000Z</time>
      </trkpt>
      <trkpt lat="43.76555" lon="6.99958">
        <ele>897</ele>
        <time>2021-03-04T09:51:15.000Z</time>
      </trkpt>
      <trkpt lat="43.76555" lon="6.99945">
        <ele>897.59997558594</ele>
        <time>2021-03-04T09:51:20.000Z</time>
      </trkpt>
      <trkpt lat="43.76559" lon="6.99938">
        <ele>897.40002441406</ele>
        <time>2021-03-04T09:51:23.000Z</time>
      </trkpt>
      <trkpt lat="43.76561" lon="6.99937">
        <ele>897.20001220703</ele>
        <time>2021-03-04T09:51:24.000Z</time>
      </trkpt>
      <trkpt lat="43.76578" lon="6.99937">
        <ele>896.40002441406</ele>
        <time>2021-03-04T09:51:32.000Z</time>
      </trkpt>
      <trkpt lat="43.76599" lon="6.99935">
        <ele>896.59997558594</ele>
        <time>2021-03-04T09:51:41.000Z</time>
      </trkpt>
      <trkpt lat="43.76613" lon="6.99936">
        <ele>896.59997558594</ele>
        <time>2021-03-04T09:51:47.000Z</time>
      </trkpt>
      <trkpt lat="43.76627" lon="6.99933">
        <ele>896.59997558594</ele>
        <time>2021-03-04T09:51:53.000Z</time>
      </trkpt>
      <trkpt lat="43.76646" lon="6.99932">
        <ele>896.59997558594</ele>
        <time>2021-03-04T09:52:00.000Z</time>
      </trkpt>
      <trkpt lat="43.76662" lon="6.99934">
        <ele>896</ele>
        <time>2021-03-04T09:52:06.000Z</time>
      </trkpt>
      <trkpt lat="43.76686" lon="6.99928">
        <ele>895.79998779297</ele>
        <time>2021-03-04T09:52:14.000Z</time>
      </trkpt>
      <trkpt lat="43.76696" lon="6.99926">
        <ele>895.40002441406</ele>
        <time>2021-03-04T09:52:17.000Z</time>
      </trkpt>
      <trkpt lat="43.76702" lon="6.99925">
        <ele>895.20001220703</ele>
        <time>2021-03-04T09:52:19.000Z</time>
      </trkpt>
      <trkpt lat="43.76718" lon="6.99921">
        <ele>894.79998779297</ele>
        <time>2021-03-04T09:52:25.000Z</time>
      </trkpt>
      <trkpt lat="43.76742" lon="6.99917">
        <ele>895.40002441406</ele>
        <time>2021-03-04T09:52:34.000Z</time>
      </trkpt>
      <trkpt lat="43.76755" lon="6.99912">
        <ele>895.40002441406</ele>
        <time>2021-03-04T09:52:40.000Z</time>
      </trkpt>
      <trkpt lat="43.76757" lon="6.99909">
        <ele>895.40002441406</ele>
        <time>2021-03-04T09:52:41.000Z</time>
      </trkpt>
      <trkpt lat="43.7676" lon="6.99896">
        <ele>895.20001220703</ele>
        <time>2021-03-04T09:52:44.000Z</time>
      </trkpt>
      <trkpt lat="43.76771" lon="6.99886">
        <ele>894.20001220703</ele>
        <time>2021-03-04T09:52:48.000Z</time>
      </trkpt>
      <trkpt lat="43.76782" lon="6.99885">
        <ele>893.20001220703</ele>
        <time>2021-03-04T09:52:53.000Z</time>
      </trkpt>
      <trkpt lat="43.76801" lon="6.99884">
        <ele>894.59997558594</ele>
        <time>2021-03-04T09:53:01.000Z</time>
      </trkpt>
      <trkpt lat="43.76813" lon="6.99881">
        <ele>895.20001220703</ele>
        <time>2021-03-04T09:53:06.000Z</time>
      </trkpt>
      <trkpt lat="43.76822" lon="6.99878">
        <ele>895.20001220703</ele>
        <time>2021-03-04T09:53:10.000Z</time>
      </trkpt>
      <trkpt lat="43.76839" lon="6.99868">
        <ele>894.79998779297</ele>
        <time>2021-03-04T09:53:16.000Z</time>
      </trkpt>
      <trkpt lat="43.7685" lon="6.99866">
        <ele>894</ele>
        <time>2021-03-04T09:53:20.000Z</time>
      </trkpt>
      <trkpt lat="43.76856" lon="6.99865">
        <ele>893.59997558594</ele>
        <time>2021-03-04T09:53:23.000Z</time>
      </trkpt>
      <trkpt lat="43.76871" lon="6.99856">
        <ele>893</ele>
        <time>2021-03-04T09:53:30.000Z</time>
      </trkpt>
      <trkpt lat="43.76889" lon="6.99845">
        <ele>892.20001220703</ele>
        <time>2021-03-04T09:53:36.000Z</time>
      </trkpt>
      <trkpt lat="43.76892" lon="6.99843">
        <ele>892</ele>
        <time>2021-03-04T09:53:37.000Z</time>
      </trkpt>
      <trkpt lat="43.76904" lon="6.9984">
        <ele>891</ele>
        <time>2021-03-04T09:53:41.000Z</time>
      </trkpt>
      <trkpt lat="43.76908" lon="6.99836">
        <ele>891</ele>
        <time>2021-03-04T09:53:43.000Z</time>
      </trkpt>
      <trkpt lat="43.76908" lon="6.99832">
        <ele>891</ele>
        <time>2021-03-04T09:53:45.000Z</time>
      </trkpt>
      <trkpt lat="43.76905" lon="6.99829">
        <ele>890.79998779297</ele>
        <time>2021-03-04T09:53:47.000Z</time>
      </trkpt>
      <trkpt lat="43.76902" lon="6.99827">
        <ele>890.40002441406</ele>
        <time>2021-03-04T09:53:50.000Z</time>
      </trkpt>
      <trkpt lat="43.76896" lon="6.99823">
        <ele>890</ele>
        <time>2021-03-04T09:53:53.000Z</time>
      </trkpt>
      <trkpt lat="43.76893" lon="6.99821">
        <ele>889.79998779297</ele>
        <time>2021-03-04T09:53:55.000Z</time>
      </trkpt>
      <trkpt lat="43.76894" lon="6.99822">
        <ele>889.40002441406</ele>
        <time>2021-03-04T09:53:59.000Z</time>
      </trkpt>
      <trkpt lat="43.76894" lon="6.99821">
        <ele>889</ele>
        <time>2021-03-04T09:54:06.000Z</time>
      </trkpt>
      <trkpt lat="43.76893" lon="6.99821">
        <ele>888.59997558594</ele>
        <time>2021-03-04T09:54:08.000Z</time>
      </trkpt>
      <trkpt lat="43.76891" lon="6.99819">
        <ele>888.59997558594</ele>
        <time>2021-03-04T09:54:12.000Z</time>
      </trkpt>
      <trkpt lat="43.76883" lon="6.99812">
        <ele>888.59997558594</ele>
        <time>2021-03-04T09:54:15.000Z</time>
      </trkpt>
      <trkpt lat="43.76878" lon="6.99808">
        <ele>888.20001220703</ele>
        <time>2021-03-04T09:54:16.000Z</time>
      </trkpt>
      <trkpt lat="43.76862" lon="6.99799">
        <ele>887.20001220703</ele>
        <time>2021-03-04T09:54:19.000Z</time>
      </trkpt>
      <trkpt lat="43.76856" lon="6.99796">
        <ele>886.79998779297</ele>
        <time>2021-03-04T09:54:20.000Z</time>
      </trkpt>
      <trkpt lat="43.76843" lon="6.99789">
        <ele>885.20001220703</ele>
        <time>2021-03-04T09:54:22.000Z</time>
      </trkpt>
      <trkpt lat="43.76837" lon="6.99787">
        <ele>884</ele>
        <time>2021-03-04T09:54:23.000Z</time>
      </trkpt>
      <trkpt lat="43.76831" lon="6.99784">
        <ele>882.20001220703</ele>
        <time>2021-03-04T09:54:24.000Z</time>
      </trkpt>
      <trkpt lat="43.76825" lon="6.9978">
        <ele>881</ele>
        <time>2021-03-04T09:54:25.000Z</time>
      </trkpt>
      <trkpt lat="43.76818" lon="6.99777">
        <ele>879.40002441406</ele>
        <time>2021-03-04T09:54:26.000Z</time>
      </trkpt>
      <trkpt lat="43.76804" lon="6.99771">
        <ele>876.79998779297</ele>
        <time>2021-03-04T09:54:28.000Z</time>
      </trkpt>
      <trkpt lat="43.76792" lon="6.99766">
        <ele>875.20001220703</ele>
        <time>2021-03-04T09:54:30.000Z</time>
      </trkpt>
      <trkpt lat="43.76786" lon="6.99763">
        <ele>873.59997558594</ele>
        <time>2021-03-04T09:54:31.000Z</time>
      </trkpt>
      <trkpt lat="43.76781" lon="6.99759">
        <ele>872</ele>
        <time>2021-03-04T09:54:32.000Z</time>
      </trkpt>
      <trkpt lat="43.76777" lon="6.99755">
        <ele>870.59997558594</ele>
        <time>2021-03-04T09:54:33.000Z</time>
      </trkpt>
      <trkpt lat="43.76772" lon="6.9975">
        <ele>869.40002441406</ele>
        <time>2021-03-04T09:54:34.000Z</time>
      </trkpt>
      <trkpt lat="43.76769" lon="6.99746">
        <ele>868.79998779297</ele>
        <time>2021-03-04T09:54:35.000Z</time>
      </trkpt>
      <trkpt lat="43.76764" lon="6.99743">
        <ele>867.40002441406</ele>
        <time>2021-03-04T09:54:36.000Z</time>
      </trkpt>
      <trkpt lat="43.76753" lon="6.99745">
        <ele>866</ele>
        <time>2021-03-04T09:54:38.000Z</time>
      </trkpt>
      <trkpt lat="43.76747" lon="6.99745">
        <ele>865</ele>
        <time>2021-03-04T09:54:39.000Z</time>
      </trkpt>
      <trkpt lat="43.76736" lon="6.99742">
        <ele>862.79998779297</ele>
        <time>2021-03-04T09:54:41.000Z</time>
      </trkpt>
      <trkpt lat="43.76731" lon="6.9974">
        <ele>861.20001220703</ele>
        <time>2021-03-04T09:54:42.000Z</time>
      </trkpt>
      <trkpt lat="43.76726" lon="6.99738">
        <ele>859.40002441406</ele>
        <time>2021-03-04T09:54:43.000Z</time>
      </trkpt>
      <trkpt lat="43.76715" lon="6.99733">
        <ele>857</ele>
        <time>2021-03-04T09:54:45.000Z</time>
      </trkpt>
      <trkpt lat="43.76708" lon="6.99729">
        <ele>855.59997558594</ele>
        <time>2021-03-04T09:54:46.000Z</time>
      </trkpt>
      <trkpt lat="43.76702" lon="6.99726">
        <ele>854</ele>
        <time>2021-03-04T09:54:47.000Z</time>
      </trkpt>
      <trkpt lat="43.76696" lon="6.99723">
        <ele>852.79998779297</ele>
        <time>2021-03-04T09:54:48.000Z</time>
      </trkpt>
      <trkpt lat="43.7669" lon="6.9972">
        <ele>851.20001220703</ele>
        <time>2021-03-04T09:54:49.000Z</time>
      </trkpt>
      <trkpt lat="43.76684" lon="6.99718">
        <ele>849.79998779297</ele>
        <time>2021-03-04T09:54:50.000Z</time>
      </trkpt>
      <trkpt lat="43.76677" lon="6.99717">
        <ele>849</ele>
        <time>2021-03-04T09:54:51.000Z</time>
      </trkpt>
      <trkpt lat="43.7667" lon="6.99715">
        <ele>847.59997558594</ele>
        <time>2021-03-04T09:54:52.000Z</time>
      </trkpt>
      <trkpt lat="43.76664" lon="6.99713">
        <ele>846.40002441406</ele>
        <time>2021-03-04T09:54:53.000Z</time>
      </trkpt>
      <trkpt lat="43.76658" lon="6.9971">
        <ele>845.40002441406</ele>
        <time>2021-03-04T09:54:54.000Z</time>
      </trkpt>
      <trkpt lat="43.76653" lon="6.99707">
        <ele>844.40002441406</ele>
        <time>2021-03-04T09:54:55.000Z</time>
      </trkpt>
      <trkpt lat="43.76648" lon="6.99704">
        <ele>843.79998779297</ele>
        <time>2021-03-04T09:54:56.000Z</time>
      </trkpt>
      <trkpt lat="43.76644" lon="6.99701">
        <ele>843</ele>
        <time>2021-03-04T09:54:57.000Z</time>
      </trkpt>
      <trkpt lat="43.76638" lon="6.99697">
        <ele>841.59997558594</ele>
        <time>2021-03-04T09:54:59.000Z</time>
      </trkpt>
      <trkpt lat="43.76634" lon="6.99694">
        <ele>840.59997558594</ele>
        <time>2021-03-04T09:55:00.000Z</time>
      </trkpt>
      <trkpt lat="43.7663" lon="6.99691">
        <ele>839.40002441406</ele>
        <time>2021-03-04T09:55:01.000Z</time>
      </trkpt>
      <trkpt lat="43.76625" lon="6.99688">
        <ele>838.40002441406</ele>
        <time>2021-03-04T09:55:02.000Z</time>
      </trkpt>
      <trkpt lat="43.7662" lon="6.99684">
        <ele>837</ele>
        <time>2021-03-04T09:55:03.000Z</time>
      </trkpt>
      <trkpt lat="43.76617" lon="6.99682">
        <ele>835.40002441406</ele>
        <time>2021-03-04T09:55:04.000Z</time>
      </trkpt>
      <trkpt lat="43.76613" lon="6.99679">
        <ele>834.59997558594</ele>
        <time>2021-03-04T09:55:05.000Z</time>
      </trkpt>
      <trkpt lat="43.76608" lon="6.99677">
        <ele>832.79998779297</ele>
        <time>2021-03-04T09:55:06.000Z</time>
      </trkpt>
      <trkpt lat="43.76602" lon="6.99671">
        <ele>831</ele>
        <time>2021-03-04T09:55:08.000Z</time>
      </trkpt>
      <trkpt lat="43.76598" lon="6.99668">
        <ele>829.79998779297</ele>
        <time>2021-03-04T09:55:09.000Z</time>
      </trkpt>
      <trkpt lat="43.76595" lon="6.99664">
        <ele>829.20001220703</ele>
        <time>2021-03-04T09:55:10.000Z</time>
      </trkpt>
      <trkpt lat="43.76592" lon="6.9966">
        <ele>828.59997558594</ele>
        <time>2021-03-04T09:55:11.000Z</time>
      </trkpt>
      <trkpt lat="43.76587" lon="6.99656">
        <ele>826.79998779297</ele>
        <time>2021-03-04T09:55:12.000Z</time>
      </trkpt>
      <trkpt lat="43.76581" lon="6.99653">
        <ele>825.79998779297</ele>
        <time>2021-03-04T09:55:13.000Z</time>
      </trkpt>
      <trkpt lat="43.76576" lon="6.99649">
        <ele>824.79998779297</ele>
        <time>2021-03-04T09:55:14.000Z</time>
      </trkpt>
      <trkpt lat="43.76572" lon="6.99646">
        <ele>824</ele>
        <time>2021-03-04T09:55:15.000Z</time>
      </trkpt>
      <trkpt lat="43.76567" lon="6.99642">
        <ele>823</ele>
        <time>2021-03-04T09:55:16.000Z</time>
      </trkpt>
      <trkpt lat="43.76557" lon="6.99634">
        <ele>821.40002441406</ele>
        <time>2021-03-04T09:55:18.000Z</time>
      </trkpt>
      <trkpt lat="43.7655" lon="6.99627">
        <ele>819.40002441406</ele>
        <time>2021-03-04T09:55:20.000Z</time>
      </trkpt>
      <trkpt lat="43.76548" lon="6.99623">
        <ele>818.20001220703</ele>
        <time>2021-03-04T09:55:21.000Z</time>
      </trkpt>
      <trkpt lat="43.76545" lon="6.99618">
        <ele>816.79998779297</ele>
        <time>2021-03-04T09:55:22.000Z</time>
      </trkpt>
      <trkpt lat="43.76543" lon="6.99613">
        <ele>815.59997558594</ele>
        <time>2021-03-04T09:55:23.000Z</time>
      </trkpt>
      <trkpt lat="43.76539" lon="6.99609">
        <ele>815</ele>
        <time>2021-03-04T09:55:24.000Z</time>
      </trkpt>
      <trkpt lat="43.76536" lon="6.99606">
        <ele>814.40002441406</ele>
        <time>2021-03-04T09:55:25.000Z</time>
      </trkpt>
      <trkpt lat="43.7653" lon="6.99601">
        <ele>813</ele>
        <time>2021-03-04T09:55:26.000Z</time>
      </trkpt>
      <trkpt lat="43.76527" lon="6.99597">
        <ele>812.40002441406</ele>
        <time>2021-03-04T09:55:27.000Z</time>
      </trkpt>
      <trkpt lat="43.76522" lon="6.99595">
        <ele>811.59997558594</ele>
        <time>2021-03-04T09:55:28.000Z</time>
      </trkpt>
      <trkpt lat="43.76519" lon="6.99594">
        <ele>810.40002441406</ele>
        <time>2021-03-04T09:55:29.000Z</time>
      </trkpt>
      <trkpt lat="43.76517" lon="6.99588">
        <ele>809</ele>
        <time>2021-03-04T09:55:31.000Z</time>
      </trkpt>
      <trkpt lat="43.7652" lon="6.99587">
        <ele>807.40002441406</ele>
        <time>2021-03-04T09:55:33.000Z</time>
      </trkpt>
      <trkpt lat="43.76522" lon="6.99588">
        <ele>807.20001220703</ele>
        <time>2021-03-04T09:55:34.000Z</time>
      </trkpt>
      <trkpt lat="43.7653" lon="6.99586">
        <ele>806.20001220703</ele>
        <time>2021-03-04T09:55:37.000Z</time>
      </trkpt>
      <trkpt lat="43.76532" lon="6.99584">
        <ele>805.79998779297</ele>
        <time>2021-03-04T09:55:38.000Z</time>
      </trkpt>
      <trkpt lat="43.76534" lon="6.99583">
        <ele>805.20001220703</ele>
        <time>2021-03-04T09:55:39.000Z</time>
      </trkpt>
      <trkpt lat="43.76535" lon="6.99581">
        <ele>804.59997558594</ele>
        <time>2021-03-04T09:55:40.000Z</time>
      </trkpt>
      <trkpt lat="43.76534" lon="6.99579">
        <ele>803.79998779297</ele>
        <time>2021-03-04T09:55:41.000Z</time>
      </trkpt>
      <trkpt lat="43.76532" lon="6.99574">
        <ele>802.20001220703</ele>
        <time>2021-03-04T09:55:43.000Z</time>
      </trkpt>
      <trkpt lat="43.76536" lon="6.99569">
        <ele>801</ele>
        <time>2021-03-04T09:55:45.000Z</time>
      </trkpt>
      <trkpt lat="43.76541" lon="6.99566">
        <ele>799.79998779297</ele>
        <time>2021-03-04T09:55:47.000Z</time>
      </trkpt>
      <trkpt lat="43.76548" lon="6.99563">
        <ele>798.40002441406</ele>
        <time>2021-03-04T09:55:49.000Z</time>
      </trkpt>
      <trkpt lat="43.76551" lon="6.99562">
        <ele>797.79998779297</ele>
        <time>2021-03-04T09:55:50.000Z</time>
      </trkpt>
      <trkpt lat="43.76554" lon="6.9956">
        <ele>796.59997558594</ele>
        <time>2021-03-04T09:55:51.000Z</time>
      </trkpt>
      <trkpt lat="43.7656" lon="6.99555">
        <ele>795.40002441406</ele>
        <time>2021-03-04T09:55:53.000Z</time>
      </trkpt>
      <trkpt lat="43.76563" lon="6.99554">
        <ele>795</ele>
        <time>2021-03-04T09:55:54.000Z</time>
      </trkpt>
      <trkpt lat="43.76566" lon="6.99552">
        <ele>794.79998779297</ele>
        <time>2021-03-04T09:55:55.000Z</time>
      </trkpt>
      <trkpt lat="43.76568" lon="6.9955">
        <ele>794</ele>
        <time>2021-03-04T09:55:56.000Z</time>
      </trkpt>
      <trkpt lat="43.76568" lon="6.99547">
        <ele>793.59997558594</ele>
        <time>2021-03-04T09:55:57.000Z</time>
      </trkpt>
      <trkpt lat="43.76565" lon="6.99545">
        <ele>793</ele>
        <time>2021-03-04T09:55:58.000Z</time>
      </trkpt>
      <trkpt lat="43.76562" lon="6.99544">
        <ele>791.40002441406</ele>
        <time>2021-03-04T09:55:59.000Z</time>
      </trkpt>
      <trkpt lat="43.76559" lon="6.99542">
        <ele>790.59997558594</ele>
        <time>2021-03-04T09:56:00.000Z</time>
      </trkpt>
      <trkpt lat="43.76556" lon="6.99539">
        <ele>789.20001220703</ele>
        <time>2021-03-04T09:56:01.000Z</time>
      </trkpt>
      <trkpt lat="43.76549" lon="6.99532">
        <ele>788</ele>
        <time>2021-03-04T09:56:04.000Z</time>
      </trkpt>
      <trkpt lat="43.76545" lon="6.99526">
        <ele>786.40002441406</ele>
        <time>2021-03-04T09:56:07.000Z</time>
      </trkpt>
      <trkpt lat="43.76544" lon="6.99523">
        <ele>785.40002441406</ele>
        <time>2021-03-04T09:56:08.000Z</time>
      </trkpt>
      <trkpt lat="43.76545" lon="6.9952">
        <ele>784.59997558594</ele>
        <time>2021-03-04T09:56:09.000Z</time>
      </trkpt>
      <trkpt lat="43.76544" lon="6.99518">
        <ele>784</ele>
        <time>2021-03-04T09:56:10.000Z</time>
      </trkpt>
      <trkpt lat="43.7654" lon="6.99514">
        <ele>782.40002441406</ele>
        <time>2021-03-04T09:56:12.000Z</time>
      </trkpt>
      <trkpt lat="43.76539" lon="6.99511">
        <ele>781.59997558594</ele>
        <time>2021-03-04T09:56:13.000Z</time>
      </trkpt>
      <trkpt lat="43.76538" lon="6.99509">
        <ele>780.79998779297</ele>
        <time>2021-03-04T09:56:14.000Z</time>
      </trkpt>
      <trkpt lat="43.7653" lon="6.99502">
        <ele>779</ele>
        <time>2021-03-04T09:56:17.000Z</time>
      </trkpt>
      <trkpt lat="43.76527" lon="6.995">
        <ele>777.79998779297</ele>
        <time>2021-03-04T09:56:18.000Z</time>
      </trkpt>
      <trkpt lat="43.76524" lon="6.99497">
        <ele>776.79998779297</ele>
        <time>2021-03-04T09:56:19.000Z</time>
      </trkpt>
      <trkpt lat="43.76522" lon="6.99495">
        <ele>776</ele>
        <time>2021-03-04T09:56:20.000Z</time>
      </trkpt>
      <trkpt lat="43.76521" lon="6.99492">
        <ele>775</ele>
        <time>2021-03-04T09:56:21.000Z</time>
      </trkpt>
      <trkpt lat="43.76519" lon="6.99491">
        <ele>773.79998779297</ele>
        <time>2021-03-04T09:56:22.000Z</time>
      </trkpt>
      <trkpt lat="43.76516" lon="6.99486">
        <ele>772.20001220703</ele>
        <time>2021-03-04T09:56:24.000Z</time>
      </trkpt>
      <trkpt lat="43.76514" lon="6.99484">
        <ele>771.79998779297</ele>
        <time>2021-03-04T09:56:25.000Z</time>
      </trkpt>
      <trkpt lat="43.7651" lon="6.99478">
        <ele>771</ele>
        <time>2021-03-04T09:56:27.000Z</time>
      </trkpt>
      <trkpt lat="43.76507" lon="6.99474">
        <ele>769.20001220703</ele>
        <time>2021-03-04T09:56:29.000Z</time>
      </trkpt>
      <trkpt lat="43.76507" lon="6.99472">
        <ele>768.59997558594</ele>
        <time>2021-03-04T09:56:30.000Z</time>
      </trkpt>
      <trkpt lat="43.76508" lon="6.9947">
        <ele>767.59997558594</ele>
        <time>2021-03-04T09:56:31.000Z</time>
      </trkpt>
      <trkpt lat="43.7651" lon="6.99468">
        <ele>767.20001220703</ele>
        <time>2021-03-04T09:56:32.000Z</time>
      </trkpt>
      <trkpt lat="43.76513" lon="6.99466">
        <ele>766.40002441406</ele>
        <time>2021-03-04T09:56:33.000Z</time>
      </trkpt>
      <trkpt lat="43.76523" lon="6.99464">
        <ele>765</ele>
        <time>2021-03-04T09:56:36.000Z</time>
      </trkpt>
      <trkpt lat="43.76529" lon="6.99461">
        <ele>763.20001220703</ele>
        <time>2021-03-04T09:56:38.000Z</time>
      </trkpt>
      <trkpt lat="43.76536" lon="6.99457">
        <ele>761.79998779297</ele>
        <time>2021-03-04T09:56:40.000Z</time>
      </trkpt>
      <trkpt lat="43.76543" lon="6.9945">
        <ele>760.40002441406</ele>
        <time>2021-03-04T09:56:42.000Z</time>
      </trkpt>
      <trkpt lat="43.76547" lon="6.99448">
        <ele>759.59997558594</ele>
        <time>2021-03-04T09:56:43.000Z</time>
      </trkpt>
      <trkpt lat="43.7655" lon="6.99446">
        <ele>758.20001220703</ele>
        <time>2021-03-04T09:56:44.000Z</time>
      </trkpt>
      <trkpt lat="43.76552" lon="6.99443">
        <ele>757.40002441406</ele>
        <time>2021-03-04T09:56:45.000Z</time>
      </trkpt>
      <trkpt lat="43.76555" lon="6.99441">
        <ele>756.59997558594</ele>
        <time>2021-03-04T09:56:46.000Z</time>
      </trkpt>
      <trkpt lat="43.76561" lon="6.99438">
        <ele>755</ele>
        <time>2021-03-04T09:56:48.000Z</time>
      </trkpt>
      <trkpt lat="43.76564" lon="6.9944">
        <ele>753.40002441406</ele>
        <time>2021-03-04T09:56:50.000Z</time>
      </trkpt>
      <trkpt lat="43.76567" lon="6.9944">
        <ele>752.79998779297</ele>
        <time>2021-03-04T09:56:51.000Z</time>
      </trkpt>
      <trkpt lat="43.76572" lon="6.9944">
        <ele>752.20001220703</ele>
        <time>2021-03-04T09:56:53.000Z</time>
      </trkpt>
      <trkpt lat="43.76573" lon="6.99439">
        <ele>752.20001220703</ele>
        <time>2021-03-04T09:56:55.000Z</time>
      </trkpt>
      <trkpt lat="43.76573" lon="6.99436">
        <ele>751.59997558594</ele>
        <time>2021-03-04T09:56:57.000Z</time>
      </trkpt>
      <trkpt lat="43.76572" lon="6.99434">
        <ele>750.79998779297</ele>
        <time>2021-03-04T09:56:58.000Z</time>
      </trkpt>
      <trkpt lat="43.7657" lon="6.99431">
        <ele>750</ele>
        <time>2021-03-04T09:56:59.000Z</time>
      </trkpt>
      <trkpt lat="43.76566" lon="6.99429">
        <ele>749.20001220703</ele>
        <time>2021-03-04T09:57:00.000Z</time>
      </trkpt>
      <trkpt lat="43.76558" lon="6.99426">
        <ele>748</ele>
        <time>2021-03-04T09:57:02.000Z</time>
      </trkpt>
      <trkpt lat="43.76554" lon="6.99426">
        <ele>747.79998779297</ele>
        <time>2021-03-04T09:57:03.000Z</time>
      </trkpt>
      <trkpt lat="43.7655" lon="6.99425">
        <ele>747.79998779297</ele>
        <time>2021-03-04T09:57:04.000Z</time>
      </trkpt>
      <trkpt lat="43.76537" lon="6.99424">
        <ele>747</ele>
        <time>2021-03-04T09:57:08.000Z</time>
      </trkpt>
      <trkpt lat="43.76525" lon="6.99417">
        <ele>746</ele>
        <time>2021-03-04T09:57:12.000Z</time>
      </trkpt>
      <trkpt lat="43.76521" lon="6.99415">
        <ele>745.40002441406</ele>
        <time>2021-03-04T09:57:13.000Z</time>
      </trkpt>
      <trkpt lat="43.76517" lon="6.99413">
        <ele>744.79998779297</ele>
        <time>2021-03-04T09:57:14.000Z</time>
      </trkpt>
      <trkpt lat="43.76512" lon="6.99408">
        <ele>743.40002441406</ele>
        <time>2021-03-04T09:57:16.000Z</time>
      </trkpt>
      <trkpt lat="43.76509" lon="6.99405">
        <ele>742.20001220703</ele>
        <time>2021-03-04T09:57:17.000Z</time>
      </trkpt>
      <trkpt lat="43.76507" lon="6.99404">
        <ele>740.79998779297</ele>
        <time>2021-03-04T09:57:18.000Z</time>
      </trkpt>
      <trkpt lat="43.76507" lon="6.99402">
        <ele>739.40002441406</ele>
        <time>2021-03-04T09:57:19.000Z</time>
      </trkpt>
      <trkpt lat="43.76508" lon="6.99401">
        <ele>738.20001220703</ele>
        <time>2021-03-04T09:57:20.000Z</time>
      </trkpt>
      <trkpt lat="43.76512" lon="6.994">
        <ele>736.20001220703</ele>
        <time>2021-03-04T09:57:22.000Z</time>
      </trkpt>
      <trkpt lat="43.76515" lon="6.994">
        <ele>735.20001220703</ele>
        <time>2021-03-04T09:57:24.000Z</time>
      </trkpt>
      <trkpt lat="43.76515" lon="6.994">
        <ele>734.79998779297</ele>
        <time>2021-03-04T09:57:25.000Z</time>
      </trkpt>
      <trkpt lat="43.76515" lon="6.994">
        <ele>733.79998779297</ele>
        <time>2021-03-04T09:57:28.000Z</time>
      </trkpt>
      <trkpt lat="43.76517" lon="6.99398">
        <ele>733.20001220703</ele>
        <time>2021-03-04T09:57:37.000Z</time>
      </trkpt>
      <trkpt lat="43.76525" lon="6.9939">
        <ele>733</ele>
        <time>2021-03-04T09:57:41.000Z</time>
      </trkpt>
      <trkpt lat="43.76527" lon="6.99387">
        <ele>732.59997558594</ele>
        <time>2021-03-04T09:57:42.000Z</time>
      </trkpt>
      <trkpt lat="43.76533" lon="6.9938">
        <ele>731.20001220703</ele>
        <time>2021-03-04T09:57:44.000Z</time>
      </trkpt>
      <trkpt lat="43.76542" lon="6.99373">
        <ele>729.20001220703</ele>
        <time>2021-03-04T09:57:46.000Z</time>
      </trkpt>
      <trkpt lat="43.7655" lon="6.9937">
        <ele>727</ele>
        <time>2021-03-04T09:57:48.000Z</time>
      </trkpt>
      <trkpt lat="43.76552" lon="6.99367">
        <ele>725.79998779297</ele>
        <time>2021-03-04T09:57:50.000Z</time>
      </trkpt>
      <trkpt lat="43.76552" lon="6.99365">
        <ele>725</ele>
        <time>2021-03-04T09:57:51.000Z</time>
      </trkpt>
      <trkpt lat="43.7655" lon="6.99364">
        <ele>724.20001220703</ele>
        <time>2021-03-04T09:57:52.000Z</time>
      </trkpt>
      <trkpt lat="43.76548" lon="6.99362">
        <ele>723.59997558594</ele>
        <time>2021-03-04T09:57:53.000Z</time>
      </trkpt>
      <trkpt lat="43.76542" lon="6.99361">
        <ele>723</ele>
        <time>2021-03-04T09:57:55.000Z</time>
      </trkpt>
      <trkpt lat="43.76538" lon="6.99361">
        <ele>722</ele>
        <time>2021-03-04T09:57:57.000Z</time>
      </trkpt>
      <trkpt lat="43.76537" lon="6.99359">
        <ele>721.59997558594</ele>
        <time>2021-03-04T09:57:58.000Z</time>
      </trkpt>
      <trkpt lat="43.76539" lon="6.99354">
        <ele>720.79998779297</ele>
        <time>2021-03-04T09:58:00.000Z</time>
      </trkpt>
      <trkpt lat="43.76542" lon="6.99352">
        <ele>720.20001220703</ele>
        <time>2021-03-04T09:58:01.000Z</time>
      </trkpt>
      <trkpt lat="43.76552" lon="6.99347">
        <ele>718.79998779297</ele>
        <time>2021-03-04T09:58:04.000Z</time>
      </trkpt>
      <trkpt lat="43.76559" lon="6.99348">
        <ele>717.79998779297</ele>
        <time>2021-03-04T09:58:06.000Z</time>
      </trkpt>
      <trkpt lat="43.76566" lon="6.99349">
        <ele>717.20001220703</ele>
        <time>2021-03-04T09:58:08.000Z</time>
      </trkpt>
      <trkpt lat="43.76567" lon="6.99349">
        <ele>716.59997558594</ele>
        <time>2021-03-04T09:58:09.000Z</time>
      </trkpt>
      <trkpt lat="43.76568" lon="6.99347">
        <ele>715.40002441406</ele>
        <time>2021-03-04T09:58:11.000Z</time>
      </trkpt>
      <trkpt lat="43.76562" lon="6.99341">
        <ele>713.79998779297</ele>
        <time>2021-03-04T09:58:14.000Z</time>
      </trkpt>
      <trkpt lat="43.7656" lon="6.99339">
        <ele>713.40002441406</ele>
        <time>2021-03-04T09:58:15.000Z</time>
      </trkpt>
      <trkpt lat="43.76558" lon="6.99335">
        <ele>713</ele>
        <time>2021-03-04T09:58:16.000Z</time>
      </trkpt>
      <trkpt lat="43.76554" lon="6.99327">
        <ele>712.79998779297</ele>
        <time>2021-03-04T09:58:18.000Z</time>
      </trkpt>
      <trkpt lat="43.76551" lon="6.99324">
        <ele>712.20001220703</ele>
        <time>2021-03-04T09:58:19.000Z</time>
      </trkpt>
      <trkpt lat="43.76547" lon="6.99323">
        <ele>711.79998779297</ele>
        <time>2021-03-04T09:58:20.000Z</time>
      </trkpt>
      <trkpt lat="43.76544" lon="6.99321">
        <ele>711.40002441406</ele>
        <time>2021-03-04T09:58:21.000Z</time>
      </trkpt>
      <trkpt lat="43.7654" lon="6.99319">
        <ele>710</ele>
        <time>2021-03-04T09:58:22.000Z</time>
      </trkpt>
      <trkpt lat="43.76536" lon="6.99319">
        <ele>709.59997558594</ele>
        <time>2021-03-04T09:58:23.000Z</time>
      </trkpt>
      <trkpt lat="43.76531" lon="6.99318">
        <ele>708.20001220703</ele>
        <time>2021-03-04T09:58:24.000Z</time>
      </trkpt>
      <trkpt lat="43.76515" lon="6.99315">
        <ele>706.59997558594</ele>
        <time>2021-03-04T09:58:28.000Z</time>
      </trkpt>
      <trkpt lat="43.76512" lon="6.99312">
        <ele>705.59997558594</ele>
        <time>2021-03-04T09:58:29.000Z</time>
      </trkpt>
      <trkpt lat="43.7651" lon="6.99309">
        <ele>704.40002441406</ele>
        <time>2021-03-04T09:58:30.000Z</time>
      </trkpt>
      <trkpt lat="43.76504" lon="6.99304">
        <ele>702.79998779297</ele>
        <time>2021-03-04T09:58:32.000Z</time>
      </trkpt>
      <trkpt lat="43.76499" lon="6.99299">
        <ele>701.20001220703</ele>
        <time>2021-03-04T09:58:34.000Z</time>
      </trkpt>
      <trkpt lat="43.76496" lon="6.99297">
        <ele>700.20001220703</ele>
        <time>2021-03-04T09:58:35.000Z</time>
      </trkpt>
      <trkpt lat="43.76492" lon="6.99295">
        <ele>699.40002441406</ele>
        <time>2021-03-04T09:58:36.000Z</time>
      </trkpt>
      <trkpt lat="43.76489" lon="6.99294">
        <ele>698.79998779297</ele>
        <time>2021-03-04T09:58:37.000Z</time>
      </trkpt>
      <trkpt lat="43.76483" lon="6.99291">
        <ele>697.20001220703</ele>
        <time>2021-03-04T09:58:39.000Z</time>
      </trkpt>
      <trkpt lat="43.7648" lon="6.99291">
        <ele>695.79998779297</ele>
        <time>2021-03-04T09:58:40.000Z</time>
      </trkpt>
      <trkpt lat="43.76478" lon="6.99289">
        <ele>694.40002441406</ele>
        <time>2021-03-04T09:58:41.000Z</time>
      </trkpt>
      <trkpt lat="43.76475" lon="6.99287">
        <ele>692.40002441406</ele>
        <time>2021-03-04T09:58:42.000Z</time>
      </trkpt>
      <trkpt lat="43.76473" lon="6.99286">
        <ele>691</ele>
        <time>2021-03-04T09:58:43.000Z</time>
      </trkpt>
      <trkpt lat="43.76472" lon="6.99285">
        <ele>689.59997558594</ele>
        <time>2021-03-04T09:58:44.000Z</time>
      </trkpt>
      <trkpt lat="43.76472" lon="6.99283">
        <ele>688.79998779297</ele>
        <time>2021-03-04T09:58:45.000Z</time>
      </trkpt>
      <trkpt lat="43.76474" lon="6.99281">
        <ele>687.79998779297</ele>
        <time>2021-03-04T09:58:46.000Z</time>
      </trkpt>
      <trkpt lat="43.76479" lon="6.99277">
        <ele>686.40002441406</ele>
        <time>2021-03-04T09:58:48.000Z</time>
      </trkpt>
      <trkpt lat="43.76482" lon="6.99274">
        <ele>685</ele>
        <time>2021-03-04T09:58:49.000Z</time>
      </trkpt>
      <trkpt lat="43.76484" lon="6.99273">
        <ele>684.59997558594</ele>
        <time>2021-03-04T09:58:50.000Z</time>
      </trkpt>
      <trkpt lat="43.76486" lon="6.99271">
        <ele>683</ele>
        <time>2021-03-04T09:58:51.000Z</time>
      </trkpt>
      <trkpt lat="43.76483" lon="6.99264">
        <ele>681.59997558594</ele>
        <time>2021-03-04T09:58:53.000Z</time>
      </trkpt>
      <trkpt lat="43.7648" lon="6.99255">
        <ele>679.79998779297</ele>
        <time>2021-03-04T09:58:55.000Z</time>
      </trkpt>
      <trkpt lat="43.76479" lon="6.99251">
        <ele>678.59997558594</ele>
        <time>2021-03-04T09:58:56.000Z</time>
      </trkpt>
      <trkpt lat="43.76476" lon="6.99249">
        <ele>676.59997558594</ele>
        <time>2021-03-04T09:58:57.000Z</time>
      </trkpt>
      <trkpt lat="43.76472" lon="6.99245">
        <ele>674.59997558594</ele>
        <time>2021-03-04T09:58:58.000Z</time>
      </trkpt>
      <trkpt lat="43.76468" lon="6.99243">
        <ele>673.59997558594</ele>
        <time>2021-03-04T09:58:59.000Z</time>
      </trkpt>
      <trkpt lat="43.76464" lon="6.99241">
        <ele>672.59997558594</ele>
        <time>2021-03-04T09:59:00.000Z</time>
      </trkpt>
      <trkpt lat="43.76462" lon="6.99241">
        <ele>671.59997558594</ele>
        <time>2021-03-04T09:59:01.000Z</time>
      </trkpt>
      <trkpt lat="43.7646" lon="6.99239">
        <ele>670.79998779297</ele>
        <time>2021-03-04T09:59:02.000Z</time>
      </trkpt>
      <trkpt lat="43.76463" lon="6.99233">
        <ele>669.79998779297</ele>
        <time>2021-03-04T09:59:04.000Z</time>
      </trkpt>
      <trkpt lat="43.76467" lon="6.99227">
        <ele>668.79998779297</ele>
        <time>2021-03-04T09:59:06.000Z</time>
      </trkpt>
      <trkpt lat="43.76469" lon="6.99225">
        <ele>668.20001220703</ele>
        <time>2021-03-04T09:59:07.000Z</time>
      </trkpt>
      <trkpt lat="43.76474" lon="6.99223">
        <ele>665.79998779297</ele>
        <time>2021-03-04T09:59:09.000Z</time>
      </trkpt>
      <trkpt lat="43.76477" lon="6.99221">
        <ele>664.40002441406</ele>
        <time>2021-03-04T09:59:11.000Z</time>
      </trkpt>
      <trkpt lat="43.76475" lon="6.9922">
        <ele>663.40002441406</ele>
        <time>2021-03-04T09:59:13.000Z</time>
      </trkpt>
      <trkpt lat="43.76472" lon="6.99217">
        <ele>662.59997558594</ele>
        <time>2021-03-04T09:59:15.000Z</time>
      </trkpt>
      <trkpt lat="43.76473" lon="6.99215">
        <ele>662.20001220703</ele>
        <time>2021-03-04T09:59:16.000Z</time>
      </trkpt>
      <trkpt lat="43.76474" lon="6.99213">
        <ele>661.59997558594</ele>
        <time>2021-03-04T09:59:17.000Z</time>
      </trkpt>
      <trkpt lat="43.76477" lon="6.9921">
        <ele>661</ele>
        <time>2021-03-04T09:59:18.000Z</time>
      </trkpt>
      <trkpt lat="43.76482" lon="6.99204">
        <ele>659.79998779297</ele>
        <time>2021-03-04T09:59:20.000Z</time>
      </trkpt>
      <trkpt lat="43.76482" lon="6.99202">
        <ele>658.79998779297</ele>
        <time>2021-03-04T09:59:21.000Z</time>
      </trkpt>
      <trkpt lat="43.76481" lon="6.99201">
        <ele>658</ele>
        <time>2021-03-04T09:59:22.000Z</time>
      </trkpt>
      <trkpt lat="43.76475" lon="6.99199">
        <ele>656.40002441406</ele>
        <time>2021-03-04T09:59:24.000Z</time>
      </trkpt>
      <trkpt lat="43.76472" lon="6.99193">
        <ele>655.20001220703</ele>
        <time>2021-03-04T09:59:26.000Z</time>
      </trkpt>
      <trkpt lat="43.76473" lon="6.9919">
        <ele>654.40002441406</ele>
        <time>2021-03-04T09:59:27.000Z</time>
      </trkpt>
      <trkpt lat="43.76476" lon="6.99186">
        <ele>653.79998779297</ele>
        <time>2021-03-04T09:59:28.000Z</time>
      </trkpt>
      <trkpt lat="43.76482" lon="6.99182">
        <ele>652.79998779297</ele>
        <time>2021-03-04T09:59:30.000Z</time>
      </trkpt>
      <trkpt lat="43.76483" lon="6.99179">
        <ele>652.20001220703</ele>
        <time>2021-03-04T09:59:31.000Z</time>
      </trkpt>
      <trkpt lat="43.76481" lon="6.99176">
        <ele>651.59997558594</ele>
        <time>2021-03-04T09:59:32.000Z</time>
      </trkpt>
      <trkpt lat="43.76478" lon="6.99173">
        <ele>650.79998779297</ele>
        <time>2021-03-04T09:59:33.000Z</time>
      </trkpt>
      <trkpt lat="43.76471" lon="6.9917">
        <ele>649</ele>
        <time>2021-03-04T09:59:35.000Z</time>
      </trkpt>
      <trkpt lat="43.7647" lon="6.99162">
        <ele>647.20001220703</ele>
        <time>2021-03-04T09:59:37.000Z</time>
      </trkpt>
      <trkpt lat="43.76471" lon="6.99158">
        <ele>646.20001220703</ele>
        <time>2021-03-04T09:59:38.000Z</time>
      </trkpt>
      <trkpt lat="43.76473" lon="6.99155">
        <ele>644.79998779297</ele>
        <time>2021-03-04T09:59:39.000Z</time>
      </trkpt>
      <trkpt lat="43.76475" lon="6.99142">
        <ele>643</ele>
        <time>2021-03-04T09:59:41.000Z</time>
      </trkpt>
      <trkpt lat="43.76482" lon="6.99135">
        <ele>641</ele>
        <time>2021-03-04T09:59:43.000Z</time>
      </trkpt>
      <trkpt lat="43.76484" lon="6.99136">
        <ele>640.59997558594</ele>
        <time>2021-03-04T09:59:44.000Z</time>
      </trkpt>
      <trkpt lat="43.76487" lon="6.99136">
        <ele>639.79998779297</ele>
        <time>2021-03-04T09:59:46.000Z</time>
      </trkpt>
      <trkpt lat="43.76488" lon="6.9913">
        <ele>639.20001220703</ele>
        <time>2021-03-04T09:59:48.000Z</time>
      </trkpt>
      <trkpt lat="43.76483" lon="6.9912">
        <ele>638.40002441406</ele>
        <time>2021-03-04T09:59:50.000Z</time>
      </trkpt>
      <trkpt lat="43.7648" lon="6.99115">
        <ele>637.79998779297</ele>
        <time>2021-03-04T09:59:51.000Z</time>
      </trkpt>
      <trkpt lat="43.76477" lon="6.99113">
        <ele>636.79998779297</ele>
        <time>2021-03-04T09:59:52.000Z</time>
      </trkpt>
      <trkpt lat="43.76475" lon="6.99114">
        <ele>635.59997558594</ele>
        <time>2021-03-04T09:59:53.000Z</time>
      </trkpt>
      <trkpt lat="43.76471" lon="6.99115">
        <ele>634.79998779297</ele>
        <time>2021-03-04T09:59:54.000Z</time>
      </trkpt>
      <trkpt lat="43.76468" lon="6.99116">
        <ele>634</ele>
        <time>2021-03-04T09:59:55.000Z</time>
      </trkpt>
      <trkpt lat="43.76464" lon="6.99116">
        <ele>632.79998779297</ele>
        <time>2021-03-04T09:59:56.000Z</time>
      </trkpt>
      <trkpt lat="43.76458" lon="6.99115">
        <ele>632.20001220703</ele>
        <time>2021-03-04T09:59:58.000Z</time>
      </trkpt>
      <trkpt lat="43.76456" lon="6.99117">
        <ele>631.40002441406</ele>
        <time>2021-03-04T09:59:59.000Z</time>
      </trkpt>
      <trkpt lat="43.76448" lon="6.99121">
        <ele>629.79998779297</ele>
        <time>2021-03-04T10:00:01.000Z</time>
      </trkpt>
      <trkpt lat="43.76444" lon="6.99124">
        <ele>628.20001220703</ele>
        <time>2021-03-04T10:00:02.000Z</time>
      </trkpt>
      <trkpt lat="43.76438" lon="6.99126">
        <ele>626.20001220703</ele>
        <time>2021-03-04T10:00:04.000Z</time>
      </trkpt>
      <trkpt lat="43.76436" lon="6.99128">
        <ele>625.59997558594</ele>
        <time>2021-03-04T10:00:05.000Z</time>
      </trkpt>
      <trkpt lat="43.76432" lon="6.9913">
        <ele>624.59997558594</ele>
        <time>2021-03-04T10:00:06.000Z</time>
      </trkpt>
      <trkpt lat="43.7643" lon="6.99128">
        <ele>623.79998779297</ele>
        <time>2021-03-04T10:00:07.000Z</time>
      </trkpt>
      <trkpt lat="43.7643" lon="6.99124">
        <ele>623</ele>
        <time>2021-03-04T10:00:08.000Z</time>
      </trkpt>
      <trkpt lat="43.76432" lon="6.99114">
        <ele>622</ele>
        <time>2021-03-04T10:00:10.000Z</time>
      </trkpt>
      <trkpt lat="43.76434" lon="6.9911">
        <ele>621.20001220703</ele>
        <time>2021-03-04T10:00:11.000Z</time>
      </trkpt>
      <trkpt lat="43.76434" lon="6.99107">
        <ele>620</ele>
        <time>2021-03-04T10:00:12.000Z</time>
      </trkpt>
      <trkpt lat="43.76433" lon="6.99105">
        <ele>618.79998779297</ele>
        <time>2021-03-04T10:00:13.000Z</time>
      </trkpt>
      <trkpt lat="43.76431" lon="6.99105">
        <ele>617.59997558594</ele>
        <time>2021-03-04T10:00:14.000Z</time>
      </trkpt>
      <trkpt lat="43.76429" lon="6.99104">
        <ele>616.40002441406</ele>
        <time>2021-03-04T10:00:15.000Z</time>
      </trkpt>
      <trkpt lat="43.76428" lon="6.991">
        <ele>614.79998779297</ele>
        <time>2021-03-04T10:00:16.000Z</time>
      </trkpt>
      <trkpt lat="43.7643" lon="6.99097">
        <ele>614</ele>
        <time>2021-03-04T10:00:17.000Z</time>
      </trkpt>
      <trkpt lat="43.76432" lon="6.99092">
        <ele>613.20001220703</ele>
        <time>2021-03-04T10:00:18.000Z</time>
      </trkpt>
      <trkpt lat="43.76436" lon="6.99083">
        <ele>611.79998779297</ele>
        <time>2021-03-04T10:00:20.000Z</time>
      </trkpt>
      <trkpt lat="43.76438" lon="6.99079">
        <ele>611.40002441406</ele>
        <time>2021-03-04T10:00:21.000Z</time>
      </trkpt>
      <trkpt lat="43.76438" lon="6.99076">
        <ele>610.59997558594</ele>
        <time>2021-03-04T10:00:22.000Z</time>
      </trkpt>
      <trkpt lat="43.76435" lon="6.99075">
        <ele>610.20001220703</ele>
        <time>2021-03-04T10:00:23.000Z</time>
      </trkpt>
      <trkpt lat="43.76432" lon="6.99074">
        <ele>609.40002441406</ele>
        <time>2021-03-04T10:00:24.000Z</time>
      </trkpt>
      <trkpt lat="43.7643" lon="6.99066">
        <ele>608.59997558594</ele>
        <time>2021-03-04T10:00:26.000Z</time>
      </trkpt>
      <trkpt lat="43.7643" lon="6.99061">
        <ele>607.79998779297</ele>
        <time>2021-03-04T10:00:27.000Z</time>
      </trkpt>
      <trkpt lat="43.76432" lon="6.9905">
        <ele>605.79998779297</ele>
        <time>2021-03-04T10:00:29.000Z</time>
      </trkpt>
      <trkpt lat="43.76434" lon="6.99047">
        <ele>605.20001220703</ele>
        <time>2021-03-04T10:00:30.000Z</time>
      </trkpt>
      <trkpt lat="43.76437" lon="6.99043">
        <ele>603.59997558594</ele>
        <time>2021-03-04T10:00:31.000Z</time>
      </trkpt>
      <trkpt lat="43.76437" lon="6.9904">
        <ele>602.59997558594</ele>
        <time>2021-03-04T10:00:32.000Z</time>
      </trkpt>
      <trkpt lat="43.76436" lon="6.9904">
        <ele>601.40002441406</ele>
        <time>2021-03-04T10:00:33.000Z</time>
      </trkpt>
      <trkpt lat="43.76435" lon="6.9904">
        <ele>600.59997558594</ele>
        <time>2021-03-04T10:00:34.000Z</time>
      </trkpt>
      <trkpt lat="43.76433" lon="6.99041">
        <ele>600.20001220703</ele>
        <time>2021-03-04T10:00:35.000Z</time>
      </trkpt>
      <trkpt lat="43.76427" lon="6.99041">
        <ele>599</ele>
        <time>2021-03-04T10:00:37.000Z</time>
      </trkpt>
      <trkpt lat="43.76426" lon="6.99042">
        <ele>598.40002441406</ele>
        <time>2021-03-04T10:00:38.000Z</time>
      </trkpt>
      <trkpt lat="43.76425" lon="6.99043">
        <ele>597.79998779297</ele>
        <time>2021-03-04T10:00:39.000Z</time>
      </trkpt>
      <trkpt lat="43.76423" lon="6.9904">
        <ele>596.79998779297</ele>
        <time>2021-03-04T10:00:41.000Z</time>
      </trkpt>
      <trkpt lat="43.76417" lon="6.99036">
        <ele>595.20001220703</ele>
        <time>2021-03-04T10:00:44.000Z</time>
      </trkpt>
      <trkpt lat="43.76414" lon="6.99036">
        <ele>594.59997558594</ele>
        <time>2021-03-04T10:00:45.000Z</time>
      </trkpt>
      <trkpt lat="43.7641" lon="6.99035">
        <ele>593.59997558594</ele>
        <time>2021-03-04T10:00:46.000Z</time>
      </trkpt>
      <trkpt lat="43.76406" lon="6.9904">
        <ele>591.79998779297</ele>
        <time>2021-03-04T10:00:48.000Z</time>
      </trkpt>
      <trkpt lat="43.76401" lon="6.99044">
        <ele>590.20001220703</ele>
        <time>2021-03-04T10:00:50.000Z</time>
      </trkpt>
      <trkpt lat="43.76397" lon="6.9905">
        <ele>588.59997558594</ele>
        <time>2021-03-04T10:00:52.000Z</time>
      </trkpt>
      <trkpt lat="43.76393" lon="6.99055">
        <ele>586.79998779297</ele>
        <time>2021-03-04T10:00:54.000Z</time>
      </trkpt>
      <trkpt lat="43.76389" lon="6.99051">
        <ele>584.79998779297</ele>
        <time>2021-03-04T10:00:56.000Z</time>
      </trkpt>
      <trkpt lat="43.76388" lon="6.99042">
        <ele>583.20001220703</ele>
        <time>2021-03-04T10:00:58.000Z</time>
      </trkpt>
      <trkpt lat="43.76388" lon="6.99032">
        <ele>581</ele>
        <time>2021-03-04T10:01:00.000Z</time>
      </trkpt>
      <trkpt lat="43.76388" lon="6.99028">
        <ele>580.40002441406</ele>
        <time>2021-03-04T10:01:01.000Z</time>
      </trkpt>
      <trkpt lat="43.76388" lon="6.99025">
        <ele>579.40002441406</ele>
        <time>2021-03-04T10:01:02.000Z</time>
      </trkpt>
      <trkpt lat="43.76389" lon="6.99018">
        <ele>577.59997558594</ele>
        <time>2021-03-04T10:01:04.000Z</time>
      </trkpt>
      <trkpt lat="43.76389" lon="6.99011">
        <ele>576.20001220703</ele>
        <time>2021-03-04T10:01:06.000Z</time>
      </trkpt>
      <trkpt lat="43.7639" lon="6.99007">
        <ele>575.20001220703</ele>
        <time>2021-03-04T10:01:07.000Z</time>
      </trkpt>
      <trkpt lat="43.76393" lon="6.99003">
        <ele>576</ele>
        <time>2021-03-04T10:01:08.000Z</time>
      </trkpt>
      <trkpt lat="43.76394" lon="6.98999">
        <ele>574.59997558594</ele>
        <time>2021-03-04T10:01:10.000Z</time>
      </trkpt>
      <trkpt lat="43.76392" lon="6.98998">
        <ele>573.59997558594</ele>
        <time>2021-03-04T10:01:11.000Z</time>
      </trkpt>
      <trkpt lat="43.7639" lon="6.98996">
        <ele>572</ele>
        <time>2021-03-04T10:01:12.000Z</time>
      </trkpt>
      <trkpt lat="43.76384" lon="6.98997">
        <ele>570.59997558594</ele>
        <time>2021-03-04T10:01:14.000Z</time>
      </trkpt>
      <trkpt lat="43.76381" lon="6.98999">
        <ele>569.79998779297</ele>
        <time>2021-03-04T10:01:15.000Z</time>
      </trkpt>
      <trkpt lat="43.76379" lon="6.99">
        <ele>569</ele>
        <time>2021-03-04T10:01:16.000Z</time>
      </trkpt>
      <trkpt lat="43.76376" lon="6.99001">
        <ele>568</ele>
        <time>2021-03-04T10:01:18.000Z</time>
      </trkpt>
      <trkpt lat="43.76377" lon="6.98999">
        <ele>567.40002441406</ele>
        <time>2021-03-04T10:01:19.000Z</time>
      </trkpt>
      <trkpt lat="43.76378" lon="6.98997">
        <ele>566</ele>
        <time>2021-03-04T10:01:20.000Z</time>
      </trkpt>
      <trkpt lat="43.76377" lon="6.98995">
        <ele>565.20001220703</ele>
        <time>2021-03-04T10:01:21.000Z</time>
      </trkpt>
      <trkpt lat="43.76376" lon="6.98995">
        <ele>565</ele>
        <time>2021-03-04T10:01:22.000Z</time>
      </trkpt>
      <trkpt lat="43.76373" lon="6.98997">
        <ele>564</ele>
        <time>2021-03-04T10:01:25.000Z</time>
      </trkpt>
      <trkpt lat="43.76372" lon="6.98998">
        <ele>563.59997558594</ele>
        <time>2021-03-04T10:01:26.000Z</time>
      </trkpt>
      <trkpt lat="43.76364" lon="6.98997">
        <ele>562.59997558594</ele>
        <time>2021-03-04T10:01:29.000Z</time>
      </trkpt>
      <trkpt lat="43.76358" lon="6.99002">
        <ele>561</ele>
        <time>2021-03-04T10:01:31.000Z</time>
      </trkpt>
      <trkpt lat="43.76355" lon="6.99006">
        <ele>559.40002441406</ele>
        <time>2021-03-04T10:01:32.000Z</time>
      </trkpt>
      <trkpt lat="43.76351" lon="6.9901">
        <ele>557.59997558594</ele>
        <time>2021-03-04T10:01:33.000Z</time>
      </trkpt>
      <trkpt lat="43.76346" lon="6.99016">
        <ele>555.79998779297</ele>
        <time>2021-03-04T10:01:35.000Z</time>
      </trkpt>
      <trkpt lat="43.76345" lon="6.99017">
        <ele>555.20001220703</ele>
        <time>2021-03-04T10:01:36.000Z</time>
      </trkpt>
      <trkpt lat="43.76343" lon="6.99015">
        <ele>554.59997558594</ele>
        <time>2021-03-04T10:01:37.000Z</time>
      </trkpt>
      <trkpt lat="43.76342" lon="6.99009">
        <ele>552.59997558594</ele>
        <time>2021-03-04T10:01:39.000Z</time>
      </trkpt>
      <trkpt lat="43.76341" lon="6.99008">
        <ele>551.40002441406</ele>
        <time>2021-03-04T10:01:40.000Z</time>
      </trkpt>
      <trkpt lat="43.76339" lon="6.99008">
        <ele>550.79998779297</ele>
        <time>2021-03-04T10:01:41.000Z</time>
      </trkpt>
      <trkpt lat="43.76338" lon="6.9901">
        <ele>550</ele>
        <time>2021-03-04T10:01:42.000Z</time>
      </trkpt>
      <trkpt lat="43.76336" lon="6.99014">
        <ele>550</ele>
        <time>2021-03-04T10:01:45.000Z</time>
      </trkpt>
      <trkpt lat="43.76334" lon="6.99014">
        <ele>549.59997558594</ele>
        <time>2021-03-04T10:01:52.000Z</time>
      </trkpt>
      <trkpt lat="43.76334" lon="6.99014">
        <ele>549</ele>
        <time>2021-03-04T10:01:57.000Z</time>
      </trkpt>
      <trkpt lat="43.76333" lon="6.99014">
        <ele>547.79998779297</ele>
        <time>2021-03-04T10:02:04.000Z</time>
      </trkpt>
      <trkpt lat="43.76333" lon="6.99014">
        <ele>547</ele>
        <time>2021-03-04T10:02:10.000Z</time>
      </trkpt>
      <trkpt lat="43.76333" lon="6.99013">
        <ele>546.79998779297</ele>
        <time>2021-03-04T10:02:11.000Z</time>
      </trkpt>
      <trkpt lat="43.76333" lon="6.99013">
        <ele>546.20001220703</ele>
        <time>2021-03-04T10:02:17.000Z</time>
      </trkpt>
      <trkpt lat="43.76332" lon="6.99013">
        <ele>545.59997558594</ele>
        <time>2021-03-04T10:02:19.000Z</time>
      </trkpt>
      <trkpt lat="43.76333" lon="6.99014">
        <ele>545.40002441406</ele>
        <time>2021-03-04T10:02:33.000Z</time>
      </trkpt>
      <trkpt lat="43.76333" lon="6.99014">
        <ele>545.40002441406</ele>
        <time>2021-03-04T10:02:44.000Z</time>
      </trkpt>
      <trkpt lat="43.76332" lon="6.99014">
        <ele>545</ele>
        <time>2021-03-04T10:02:53.000Z</time>
      </trkpt>
      <trkpt lat="43.76332" lon="6.99015">
        <ele>544.79998779297</ele>
        <time>2021-03-04T10:03:06.000Z</time>
      </trkpt>
      <trkpt lat="43.76332" lon="6.99015">
        <ele>544.59997558594</ele>
        <time>2021-03-04T10:03:08.000Z</time>
      </trkpt>
      <trkpt lat="43.76331" lon="6.99017">
        <ele>544</ele>
        <time>2021-03-04T10:03:31.000Z</time>
      </trkpt>
      <trkpt lat="43.7633" lon="6.9902">
        <ele>543.79998779297</ele>
        <time>2021-03-04T10:03:36.000Z</time>
      </trkpt>
      <trkpt lat="43.76329" lon="6.99022">
        <ele>543.79998779297</ele>
        <time>2021-03-04T10:03:37.000Z</time>
      </trkpt>
      <trkpt lat="43.76322" lon="6.99046">
        <ele>543.79998779297</ele>
        <time>2021-03-04T10:03:42.000Z</time>
      </trkpt>
      <trkpt lat="43.7632" lon="6.99054">
        <ele>543.40002441406</ele>
        <time>2021-03-04T10:03:43.000Z</time>
      </trkpt>
      <trkpt lat="43.76312" lon="6.99069">
        <ele>542.20001220703</ele>
        <time>2021-03-04T10:03:45.000Z</time>
      </trkpt>
      <trkpt lat="43.76302" lon="6.99079">
        <ele>540.59997558594</ele>
        <time>2021-03-04T10:03:47.000Z</time>
      </trkpt>
      <trkpt lat="43.76294" lon="6.99086">
        <ele>539.20001220703</ele>
        <time>2021-03-04T10:03:49.000Z</time>
      </trkpt>
      <trkpt lat="43.76291" lon="6.99092">
        <ele>538.40002441406</ele>
        <time>2021-03-04T10:03:50.000Z</time>
      </trkpt>
      <trkpt lat="43.76287" lon="6.99097">
        <ele>537.40002441406</ele>
        <time>2021-03-04T10:03:51.000Z</time>
      </trkpt>
      <trkpt lat="43.76284" lon="6.991">
        <ele>536.59997558594</ele>
        <time>2021-03-04T10:03:52.000Z</time>
      </trkpt>
      <trkpt lat="43.76282" lon="6.99102">
        <ele>536</ele>
        <time>2021-03-04T10:03:53.000Z</time>
      </trkpt>
      <trkpt lat="43.76276" lon="6.9911">
        <ele>535.59997558594</ele>
        <time>2021-03-04T10:03:56.000Z</time>
      </trkpt>
      <trkpt lat="43.76267" lon="6.99127">
        <ele>537.20001220703</ele>
        <time>2021-03-04T10:04:01.000Z</time>
      </trkpt>
      <trkpt lat="43.76263" lon="6.99133">
        <ele>537.79998779297</ele>
        <time>2021-03-04T10:04:03.000Z</time>
      </trkpt>
      <trkpt lat="43.76259" lon="6.99137">
        <ele>538.20001220703</ele>
        <time>2021-03-04T10:04:05.000Z</time>
      </trkpt>
      <trkpt lat="43.76251" lon="6.99146">
        <ele>539.59997558594</ele>
        <time>2021-03-04T10:04:09.000Z</time>
      </trkpt>
      <trkpt lat="43.76247" lon="6.9915">
        <ele>540.20001220703</ele>
        <time>2021-03-04T10:04:11.000Z</time>
      </trkpt>
      <trkpt lat="43.76245" lon="6.99152">
        <ele>540.79998779297</ele>
        <time>2021-03-04T10:04:12.000Z</time>
      </trkpt>
      <trkpt lat="43.76239" lon="6.99159">
        <ele>541.79998779297</ele>
        <time>2021-03-04T10:04:15.000Z</time>
      </trkpt>
      <trkpt lat="43.76232" lon="6.99167">
        <ele>542.79998779297</ele>
        <time>2021-03-04T10:04:18.000Z</time>
      </trkpt>
      <trkpt lat="43.7623" lon="6.99169">
        <ele>543</ele>
        <time>2021-03-04T10:04:19.000Z</time>
      </trkpt>
      <trkpt lat="43.76217" lon="6.99184">
        <ele>544.40002441406</ele>
        <time>2021-03-04T10:04:25.000Z</time>
      </trkpt>
      <trkpt lat="43.76208" lon="6.99191">
        <ele>545</ele>
        <time>2021-03-04T10:04:28.000Z</time>
      </trkpt>
      <trkpt lat="43.76191" lon="6.99203">
        <ele>544</ele>
        <time>2021-03-04T10:04:33.000Z</time>
      </trkpt>
      <trkpt lat="43.76175" lon="6.99226">
        <ele>544.40002441406</ele>
        <time>2021-03-04T10:04:40.000Z</time>
      </trkpt>
      <trkpt lat="43.7617" lon="6.9923">
        <ele>545.40002441406</ele>
        <time>2021-03-04T10:04:42.000Z</time>
      </trkpt>
      <trkpt lat="43.76164" lon="6.9924">
        <ele>546.20001220703</ele>
        <time>2021-03-04T10:04:45.000Z</time>
      </trkpt>
      <trkpt lat="43.76162" lon="6.99243">
        <ele>546.59997558594</ele>
        <time>2021-03-04T10:04:46.000Z</time>
      </trkpt>
      <trkpt lat="43.76157" lon="6.99252">
        <ele>547.79998779297</ele>
        <time>2021-03-04T10:04:49.000Z</time>
      </trkpt>
      <trkpt lat="43.76152" lon="6.99256">
        <ele>549</ele>
        <time>2021-03-04T10:04:51.000Z</time>
      </trkpt>
      <trkpt lat="43.76149" lon="6.99261">
        <ele>550.40002441406</ele>
        <time>2021-03-04T10:04:53.000Z</time>
      </trkpt>
      <trkpt lat="43.76144" lon="6.99267">
        <ele>552</ele>
        <time>2021-03-04T10:04:56.000Z</time>
      </trkpt>
      <trkpt lat="43.7614" lon="6.9927">
        <ele>553</ele>
        <time>2021-03-04T10:04:58.000Z</time>
      </trkpt>
      <trkpt lat="43.76139" lon="6.99272">
        <ele>553.59997558594</ele>
        <time>2021-03-04T10:04:59.000Z</time>
      </trkpt>
      <trkpt lat="43.76135" lon="6.99274">
        <ele>554.59997558594</ele>
        <time>2021-03-04T10:05:01.000Z</time>
      </trkpt>
      <trkpt lat="43.76129" lon="6.99279">
        <ele>555.79998779297</ele>
        <time>2021-03-04T10:05:04.000Z</time>
      </trkpt>
      <trkpt lat="43.76122" lon="6.99284">
        <ele>557.40002441406</ele>
        <time>2021-03-04T10:05:07.000Z</time>
      </trkpt>
      <trkpt lat="43.76118" lon="6.99287">
        <ele>558.59997558594</ele>
        <time>2021-03-04T10:05:09.000Z</time>
      </trkpt>
      <trkpt lat="43.76117" lon="6.99289">
        <ele>559</ele>
        <time>2021-03-04T10:05:10.000Z</time>
      </trkpt>
      <trkpt lat="43.76114" lon="6.99291">
        <ele>559.79998779297</ele>
        <time>2021-03-04T10:05:11.000Z</time>
      </trkpt>
      <trkpt lat="43.76112" lon="6.99292">
        <ele>560</ele>
        <time>2021-03-04T10:05:12.000Z</time>
      </trkpt>
      <trkpt lat="43.76108" lon="6.99292">
        <ele>561</ele>
        <time>2021-03-04T10:05:14.000Z</time>
      </trkpt>
      <trkpt lat="43.76103" lon="6.99293">
        <ele>562.20001220703</ele>
        <time>2021-03-04T10:05:16.000Z</time>
      </trkpt>
      <trkpt lat="43.76096" lon="6.99295">
        <ele>563.20001220703</ele>
        <time>2021-03-04T10:05:19.000Z</time>
      </trkpt>
      <trkpt lat="43.76091" lon="6.99297">
        <ele>565</ele>
        <time>2021-03-04T10:05:22.000Z</time>
      </trkpt>
      <trkpt lat="43.76088" lon="6.99299">
        <ele>566.20001220703</ele>
        <time>2021-03-04T10:05:24.000Z</time>
      </trkpt>
      <trkpt lat="43.76082" lon="6.99302">
        <ele>567.59997558594</ele>
        <time>2021-03-04T10:05:27.000Z</time>
      </trkpt>
      <trkpt lat="43.76077" lon="6.99303">
        <ele>568.20001220703</ele>
        <time>2021-03-04T10:05:29.000Z</time>
      </trkpt>
      <trkpt lat="43.76075" lon="6.99304">
        <ele>568.59997558594</ele>
        <time>2021-03-04T10:05:30.000Z</time>
      </trkpt>
      <trkpt lat="43.76069" lon="6.99305">
        <ele>570</ele>
        <time>2021-03-04T10:05:34.000Z</time>
      </trkpt>
      <trkpt lat="43.76065" lon="6.99306">
        <ele>571</ele>
        <time>2021-03-04T10:05:36.000Z</time>
      </trkpt>
      <trkpt lat="43.76065" lon="6.99306">
        <ele>572</ele>
        <time>2021-03-04T10:05:38.000Z</time>
      </trkpt>
      <trkpt lat="43.76064" lon="6.99305">
        <ele>572.59997558594</ele>
        <time>2021-03-04T10:05:40.000Z</time>
      </trkpt>
      <trkpt lat="43.76062" lon="6.99305">
        <ele>573</ele>
        <time>2021-03-04T10:05:43.000Z</time>
      </trkpt>
      <trkpt lat="43.76061" lon="6.99305">
        <ele>573.59997558594</ele>
        <time>2021-03-04T10:05:51.000Z</time>
      </trkpt>
      <trkpt lat="43.76058" lon="6.99306">
        <ele>573.59997558594</ele>
        <time>2021-03-04T10:05:56.000Z</time>
      </trkpt>
      <trkpt lat="43.76056" lon="6.99307">
        <ele>574.20001220703</ele>
        <time>2021-03-04T10:06:01.000Z</time>
      </trkpt>
      <trkpt lat="43.76055" lon="6.99308">
        <ele>574.40002441406</ele>
        <time>2021-03-04T10:06:02.000Z</time>
      </trkpt>
      <trkpt lat="43.76053" lon="6.9931">
        <ele>574.79998779297</ele>
        <time>2021-03-04T10:06:08.000Z</time>
      </trkpt>
      <trkpt lat="43.76048" lon="6.99315">
        <ele>575</ele>
        <time>2021-03-04T10:06:14.000Z</time>
      </trkpt>
      <trkpt lat="43.76046" lon="6.99317">
        <ele>575.20001220703</ele>
        <time>2021-03-04T10:06:15.000Z</time>
      </trkpt>
      <trkpt lat="43.76043" lon="6.9932">
        <ele>576.79998779297</ele>
        <time>2021-03-04T10:06:20.000Z</time>
      </trkpt>
      <trkpt lat="43.76041" lon="6.99323">
        <ele>577.20001220703</ele>
        <time>2021-03-04T10:06:25.000Z</time>
      </trkpt>
      <trkpt lat="43.76039" lon="6.99323">
        <ele>577.79998779297</ele>
        <time>2021-03-04T10:06:31.000Z</time>
      </trkpt>
      <trkpt lat="43.76033" lon="6.99328">
        <ele>578.20001220703</ele>
        <time>2021-03-04T10:06:35.000Z</time>
      </trkpt>
      <trkpt lat="43.76031" lon="6.99329">
        <ele>578.40002441406</ele>
        <time>2021-03-04T10:06:36.000Z</time>
      </trkpt>
      <trkpt lat="43.76028" lon="6.99331">
        <ele>579</ele>
        <time>2021-03-04T10:06:38.000Z</time>
      </trkpt>
      <trkpt lat="43.76024" lon="6.99333">
        <ele>579.59997558594</ele>
        <time>2021-03-04T10:06:40.000Z</time>
      </trkpt>
      <trkpt lat="43.76023" lon="6.99333">
        <ele>579.79998779297</ele>
        <time>2021-03-04T10:06:41.000Z</time>
      </trkpt>
      <trkpt lat="43.76021" lon="6.99333">
        <ele>580.20001220703</ele>
        <time>2021-03-04T10:06:42.000Z</time>
      </trkpt>
      <trkpt lat="43.76014" lon="6.99333">
        <ele>581.59997558594</ele>
        <time>2021-03-04T10:06:45.000Z</time>
      </trkpt>
      <trkpt lat="43.76012" lon="6.99333">
        <ele>581.79998779297</ele>
        <time>2021-03-04T10:06:46.000Z</time>
      </trkpt>
      <trkpt lat="43.76001" lon="6.99329">
        <ele>582.79998779297</ele>
        <time>2021-03-04T10:06:52.000Z</time>
      </trkpt>
      <trkpt lat="43.75993" lon="6.99331">
        <ele>583.79998779297</ele>
        <time>2021-03-04T10:06:57.000Z</time>
      </trkpt>
      <trkpt lat="43.75991" lon="6.99331">
        <ele>584</ele>
        <time>2021-03-04T10:06:58.000Z</time>
      </trkpt>
      <trkpt lat="43.75987" lon="6.99333">
        <ele>585.20001220703</ele>
        <time>2021-03-04T10:07:01.000Z</time>
      </trkpt>
      <trkpt lat="43.75984" lon="6.99334">
        <ele>586</ele>
        <time>2021-03-04T10:07:03.000Z</time>
      </trkpt>
      <trkpt lat="43.7598" lon="6.99336">
        <ele>586.40002441406</ele>
        <time>2021-03-04T10:07:05.000Z</time>
      </trkpt>
      <trkpt lat="43.75974" lon="6.99343">
        <ele>586.20001220703</ele>
        <time>2021-03-04T10:07:08.000Z</time>
      </trkpt>
      <trkpt lat="43.75968" lon="6.99353">
        <ele>585.59997558594</ele>
        <time>2021-03-04T10:07:11.000Z</time>
      </trkpt>
      <trkpt lat="43.75965" lon="6.99356">
        <ele>585.40002441406</ele>
        <time>2021-03-04T10:07:12.000Z</time>
      </trkpt>
      <trkpt lat="43.75954" lon="6.99364">
        <ele>584.40002441406</ele>
        <time>2021-03-04T10:07:16.000Z</time>
      </trkpt>
      <trkpt lat="43.7595" lon="6.99367">
        <ele>584.20001220703</ele>
        <time>2021-03-04T10:07:17.000Z</time>
      </trkpt>
      <trkpt lat="43.75937" lon="6.99371">
        <ele>583.79998779297</ele>
        <time>2021-03-04T10:07:20.000Z</time>
      </trkpt>
      <trkpt lat="43.75928" lon="6.9937">
        <ele>584</ele>
        <time>2021-03-04T10:07:22.000Z</time>
      </trkpt>
      <trkpt lat="43.75915" lon="6.99366">
        <ele>584</ele>
        <time>2021-03-04T10:07:25.000Z</time>
      </trkpt>
      <trkpt lat="43.75902" lon="6.99353">
        <ele>585.40002441406</ele>
        <time>2021-03-04T10:07:29.000Z</time>
      </trkpt>
      <trkpt lat="43.75894" lon="6.99349">
        <ele>586.20001220703</ele>
        <time>2021-03-04T10:07:31.000Z</time>
      </trkpt>
      <trkpt lat="43.75891" lon="6.99348">
        <ele>586.79998779297</ele>
        <time>2021-03-04T10:07:32.000Z</time>
      </trkpt>
      <trkpt lat="43.75879" lon="6.99345">
        <ele>587.79998779297</ele>
        <time>2021-03-04T10:07:35.000Z</time>
      </trkpt>
      <trkpt lat="43.75873" lon="6.99346">
        <ele>588</ele>
        <time>2021-03-04T10:07:36.000Z</time>
      </trkpt>
      <trkpt lat="43.75856" lon="6.9935">
        <ele>586.59997558594</ele>
        <time>2021-03-04T10:07:39.000Z</time>
      </trkpt>
      <trkpt lat="43.75844" lon="6.99355">
        <ele>585.40002441406</ele>
        <time>2021-03-04T10:07:41.000Z</time>
      </trkpt>
      <trkpt lat="43.75833" lon="6.99359">
        <ele>584.20001220703</ele>
        <time>2021-03-04T10:07:43.000Z</time>
      </trkpt>
      <trkpt lat="43.75816" lon="6.99364">
        <ele>583</ele>
        <time>2021-03-04T10:07:46.000Z</time>
      </trkpt>
      <trkpt lat="43.75809" lon="6.99364">
        <ele>583.20001220703</ele>
        <time>2021-03-04T10:07:47.000Z</time>
      </trkpt>
      <trkpt lat="43.75798" lon="6.99366">
        <ele>583</ele>
        <time>2021-03-04T10:07:49.000Z</time>
      </trkpt>
      <trkpt lat="43.75779" lon="6.99366">
        <ele>581.79998779297</ele>
        <time>2021-03-04T10:07:52.000Z</time>
      </trkpt>
      <trkpt lat="43.75773" lon="6.99367">
        <ele>581.59997558594</ele>
        <time>2021-03-04T10:07:53.000Z</time>
      </trkpt>
      <trkpt lat="43.75757" lon="6.99374">
        <ele>581</ele>
        <time>2021-03-04T10:07:56.000Z</time>
      </trkpt>
      <trkpt lat="43.75745" lon="6.99387">
        <ele>581.40002441406</ele>
        <time>2021-03-04T10:07:59.000Z</time>
      </trkpt>
      <trkpt lat="43.75741" lon="6.99392">
        <ele>581.40002441406</ele>
        <time>2021-03-04T10:08:00.000Z</time>
      </trkpt>
      <trkpt lat="43.75722" lon="6.99416">
        <ele>583</ele>
        <time>2021-03-04T10:08:06.000Z</time>
      </trkpt>
      <trkpt lat="43.75718" lon="6.9942">
        <ele>583.20001220703</ele>
        <time>2021-03-04T10:08:07.000Z</time>
      </trkpt>
      <trkpt lat="43.75712" lon="6.99429">
        <ele>583.40002441406</ele>
        <time>2021-03-04T10:08:09.000Z</time>
      </trkpt>
      <trkpt lat="43.75698" lon="6.99448">
        <ele>583.59997558594</ele>
        <time>2021-03-04T10:08:13.000Z</time>
      </trkpt>
      <trkpt lat="43.7569" lon="6.99458">
        <ele>583.59997558594</ele>
        <time>2021-03-04T10:08:15.000Z</time>
      </trkpt>
      <trkpt lat="43.75675" lon="6.99473">
        <ele>582.79998779297</ele>
        <time>2021-03-04T10:08:18.000Z</time>
      </trkpt>
      <trkpt lat="43.75663" lon="6.99484">
        <ele>581.79998779297</ele>
        <time>2021-03-04T10:08:20.000Z</time>
      </trkpt>
      <trkpt lat="43.75652" lon="6.99494">
        <ele>580.59997558594</ele>
        <time>2021-03-04T10:08:22.000Z</time>
      </trkpt>
      <trkpt lat="43.7565" lon="6.995">
        <ele>579.20001220703</ele>
        <time>2021-03-04T10:08:23.000Z</time>
      </trkpt>
      <trkpt lat="43.75645" lon="6.99513">
        <ele>577.40002441406</ele>
        <time>2021-03-04T10:08:25.000Z</time>
      </trkpt>
      <trkpt lat="43.75641" lon="6.9953">
        <ele>575.79998779297</ele>
        <time>2021-03-04T10:08:27.000Z</time>
      </trkpt>
      <trkpt lat="43.75638" lon="6.99539">
        <ele>574.79998779297</ele>
        <time>2021-03-04T10:08:28.000Z</time>
      </trkpt>
      <trkpt lat="43.75635" lon="6.99548">
        <ele>573.59997558594</ele>
        <time>2021-03-04T10:08:29.000Z</time>
      </trkpt>
      <trkpt lat="43.75632" lon="6.99557">
        <ele>572.79998779297</ele>
        <time>2021-03-04T10:08:30.000Z</time>
      </trkpt>
      <trkpt lat="43.75628" lon="6.99564">
        <ele>572</ele>
        <time>2021-03-04T10:08:31.000Z</time>
      </trkpt>
      <trkpt lat="43.75624" lon="6.99571">
        <ele>571.20001220703</ele>
        <time>2021-03-04T10:08:32.000Z</time>
      </trkpt>
      <trkpt lat="43.75619" lon="6.99579">
        <ele>571</ele>
        <time>2021-03-04T10:08:33.000Z</time>
      </trkpt>
      <trkpt lat="43.75609" lon="6.99591">
        <ele>570.40002441406</ele>
        <time>2021-03-04T10:08:35.000Z</time>
      </trkpt>
      <trkpt lat="43.75599" lon="6.99601">
        <ele>569.79998779297</ele>
        <time>2021-03-04T10:08:37.000Z</time>
      </trkpt>
      <trkpt lat="43.75575" lon="6.99622">
        <ele>569.79998779297</ele>
        <time>2021-03-04T10:08:42.000Z</time>
      </trkpt>
      <trkpt lat="43.75563" lon="6.99635">
        <ele>569.79998779297</ele>
        <time>2021-03-04T10:08:45.000Z</time>
      </trkpt>
      <trkpt lat="43.75557" lon="6.99643">
        <ele>570.79998779297</ele>
        <time>2021-03-04T10:08:47.000Z</time>
      </trkpt>
      <trkpt lat="43.75554" lon="6.99651">
        <ele>571.79998779297</ele>
        <time>2021-03-04T10:08:49.000Z</time>
      </trkpt>
      <trkpt lat="43.75553" lon="6.99657">
        <ele>572.40002441406</ele>
        <time>2021-03-04T10:08:50.000Z</time>
      </trkpt>
      <trkpt lat="43.75551" lon="6.99662">
        <ele>572.79998779297</ele>
        <time>2021-03-04T10:08:51.000Z</time>
      </trkpt>
      <trkpt lat="43.75551" lon="6.99669">
        <ele>573</ele>
        <time>2021-03-04T10:08:52.000Z</time>
      </trkpt>
      <trkpt lat="43.75552" lon="6.9969">
        <ele>572.79998779297</ele>
        <time>2021-03-04T10:08:55.000Z</time>
      </trkpt>
      <trkpt lat="43.75554" lon="6.99697">
        <ele>572.40002441406</ele>
        <time>2021-03-04T10:08:56.000Z</time>
      </trkpt>
      <trkpt lat="43.75555" lon="6.99704">
        <ele>572.20001220703</ele>
        <time>2021-03-04T10:08:57.000Z</time>
      </trkpt>
      <trkpt lat="43.75556" lon="6.99711">
        <ele>571.79998779297</ele>
        <time>2021-03-04T10:08:58.000Z</time>
      </trkpt>
      <trkpt lat="43.75559" lon="6.99738">
        <ele>570.79998779297</ele>
        <time>2021-03-04T10:09:01.000Z</time>
      </trkpt>
      <trkpt lat="43.75558" lon="6.99757">
        <ele>569.79998779297</ele>
        <time>2021-03-04T10:09:03.000Z</time>
      </trkpt>
      <trkpt lat="43.75558" lon="6.99767">
        <ele>569.40002441406</ele>
        <time>2021-03-04T10:09:04.000Z</time>
      </trkpt>
      <trkpt lat="43.75556" lon="6.99788">
        <ele>567.79998779297</ele>
        <time>2021-03-04T10:09:06.000Z</time>
      </trkpt>
      <trkpt lat="43.75555" lon="6.99798">
        <ele>566.59997558594</ele>
        <time>2021-03-04T10:09:07.000Z</time>
      </trkpt>
      <trkpt lat="43.75554" lon="6.9981">
        <ele>565.59997558594</ele>
        <time>2021-03-04T10:09:08.000Z</time>
      </trkpt>
      <trkpt lat="43.75549" lon="6.99831">
        <ele>564</ele>
        <time>2021-03-04T10:09:10.000Z</time>
      </trkpt>
      <trkpt lat="43.75545" lon="6.99842">
        <ele>563.40002441406</ele>
        <time>2021-03-04T10:09:11.000Z</time>
      </trkpt>
      <trkpt lat="43.75535" lon="6.99858">
        <ele>562.59997558594</ele>
        <time>2021-03-04T10:09:13.000Z</time>
      </trkpt>
      <trkpt lat="43.75528" lon="6.99862">
        <ele>562</ele>
        <time>2021-03-04T10:09:14.000Z</time>
      </trkpt>
      <trkpt lat="43.75517" lon="6.99867">
        <ele>561</ele>
        <time>2021-03-04T10:09:16.000Z</time>
      </trkpt>
      <trkpt lat="43.75513" lon="6.99869">
        <ele>561.40002441406</ele>
        <time>2021-03-04T10:09:17.000Z</time>
      </trkpt>
      <trkpt lat="43.75509" lon="6.99871">
        <ele>561.79998779297</ele>
        <time>2021-03-04T10:09:18.000Z</time>
      </trkpt>
      <trkpt lat="43.75503" lon="6.99879">
        <ele>562.59997558594</ele>
        <time>2021-03-04T10:09:20.000Z</time>
      </trkpt>
      <trkpt lat="43.75499" lon="6.99886">
        <ele>564</ele>
        <time>2021-03-04T10:09:22.000Z</time>
      </trkpt>
      <trkpt lat="43.75494" lon="6.99892">
        <ele>565.40002441406</ele>
        <time>2021-03-04T10:09:24.000Z</time>
      </trkpt>
      <trkpt lat="43.75491" lon="6.99895">
        <ele>566</ele>
        <time>2021-03-04T10:09:25.000Z</time>
      </trkpt>
      <trkpt lat="43.75489" lon="6.99896">
        <ele>566.40002441406</ele>
        <time>2021-03-04T10:09:26.000Z</time>
      </trkpt>
      <trkpt lat="43.75486" lon="6.99898">
        <ele>567</ele>
        <time>2021-03-04T10:09:27.000Z</time>
      </trkpt>
      <trkpt lat="43.75477" lon="6.99905">
        <ele>568.20001220703</ele>
        <time>2021-03-04T10:09:30.000Z</time>
      </trkpt>
      <trkpt lat="43.75472" lon="6.99909">
        <ele>569.40002441406</ele>
        <time>2021-03-04T10:09:32.000Z</time>
      </trkpt>
      <trkpt lat="43.75465" lon="6.99912">
        <ele>570.79998779297</ele>
        <time>2021-03-04T10:09:35.000Z</time>
      </trkpt>
      <trkpt lat="43.75459" lon="6.99915">
        <ele>571.40002441406</ele>
        <time>2021-03-04T10:09:38.000Z</time>
      </trkpt>
      <trkpt lat="43.7545" lon="6.99923">
        <ele>571.40002441406</ele>
        <time>2021-03-04T10:09:42.000Z</time>
      </trkpt>
      <trkpt lat="43.75446" lon="6.99926">
        <ele>570.79998779297</ele>
        <time>2021-03-04T10:09:46.000Z</time>
      </trkpt>
      <trkpt lat="43.75445" lon="6.99928">
        <ele>570.59997558594</ele>
        <time>2021-03-04T10:09:56.000Z</time>
      </trkpt>
      <trkpt lat="43.75442" lon="6.99929">
        <ele>570.40002441406</ele>
        <time>2021-03-04T10:10:06.000Z</time>
      </trkpt>
      <trkpt lat="43.75438" lon="6.99935">
        <ele>570.20001220703</ele>
        <time>2021-03-04T10:10:10.000Z</time>
      </trkpt>
      <trkpt lat="43.75431" lon="6.99947">
        <ele>569.59997558594</ele>
        <time>2021-03-04T10:10:14.000Z</time>
      </trkpt>
      <trkpt lat="43.75427" lon="6.99956">
        <ele>569.59997558594</ele>
        <time>2021-03-04T10:10:16.000Z</time>
      </trkpt>
      <trkpt lat="43.75424" lon="6.99968">
        <ele>569.40002441406</ele>
        <time>2021-03-04T10:10:18.000Z</time>
      </trkpt>
      <trkpt lat="43.75419" lon="6.99982">
        <ele>568.79998779297</ele>
        <time>2021-03-04T10:10:20.000Z</time>
      </trkpt>
      <trkpt lat="43.75415" lon="6.99989">
        <ele>568.20001220703</ele>
        <time>2021-03-04T10:10:21.000Z</time>
      </trkpt>
      <trkpt lat="43.7541" lon="6.99993">
        <ele>567.59997558594</ele>
        <time>2021-03-04T10:10:22.000Z</time>
      </trkpt>
      <trkpt lat="43.75403" lon="6.99995">
        <ele>567.20001220703</ele>
        <time>2021-03-04T10:10:23.000Z</time>
      </trkpt>
      <trkpt lat="43.7539" lon="6.99995">
        <ele>565.40002441406</ele>
        <time>2021-03-04T10:10:25.000Z</time>
      </trkpt>
      <trkpt lat="43.75382" lon="6.99995">
        <ele>563.20001220703</ele>
        <time>2021-03-04T10:10:27.000Z</time>
      </trkpt>
      <trkpt lat="43.7538" lon="6.99994">
        <ele>562</ele>
        <time>2021-03-04T10:10:28.000Z</time>
      </trkpt>
      <trkpt lat="43.75377" lon="6.99995">
        <ele>560.40002441406</ele>
        <time>2021-03-04T10:10:30.000Z</time>
      </trkpt>
      <trkpt lat="43.75377" lon="7.00001">
        <ele>559.20001220703</ele>
        <time>2021-03-04T10:10:32.000Z</time>
      </trkpt>
      <trkpt lat="43.75378" lon="7.00003">
        <ele>558.79998779297</ele>
        <time>2021-03-04T10:10:33.000Z</time>
      </trkpt>
      <trkpt lat="43.75382" lon="7.00006">
        <ele>557.59997558594</ele>
        <time>2021-03-04T10:10:35.000Z</time>
      </trkpt>
      <trkpt lat="43.75392" lon="7.00018">
        <ele>556.59997558594</ele>
        <time>2021-03-04T10:10:39.000Z</time>
      </trkpt>
      <trkpt lat="43.75395" lon="7.00027">
        <ele>557.40002441406</ele>
        <time>2021-03-04T10:10:41.000Z</time>
      </trkpt>
      <trkpt lat="43.75398" lon="7.00045">
        <ele>558.20001220703</ele>
        <time>2021-03-04T10:10:45.000Z</time>
      </trkpt>
      <trkpt lat="43.75396" lon="7.00063">
        <ele>558.59997558594</ele>
        <time>2021-03-04T10:10:49.000Z</time>
      </trkpt>
      <trkpt lat="43.75396" lon="7.00069">
        <ele>559</ele>
        <time>2021-03-04T10:10:50.000Z</time>
      </trkpt>
      <trkpt lat="43.75393" lon="7.00106">
        <ele>559.59997558594</ele>
        <time>2021-03-04T10:10:58.000Z</time>
      </trkpt>
      <trkpt lat="43.75392" lon="7.00124">
        <ele>560.79998779297</ele>
        <time>2021-03-04T10:11:02.000Z</time>
      </trkpt>
      <trkpt lat="43.75394" lon="7.00146">
        <ele>562</ele>
        <time>2021-03-04T10:11:07.000Z</time>
      </trkpt>
      <trkpt lat="43.75396" lon="7.00154">
        <ele>562.40002441406</ele>
        <time>2021-03-04T10:11:09.000Z</time>
      </trkpt>
      <trkpt lat="43.75401" lon="7.00172">
        <ele>563</ele>
        <time>2021-03-04T10:11:13.000Z</time>
      </trkpt>
      <trkpt lat="43.75409" lon="7.00189">
        <ele>563.59997558594</ele>
        <time>2021-03-04T10:11:17.000Z</time>
      </trkpt>
      <trkpt lat="43.75416" lon="7.00199">
        <ele>564.20001220703</ele>
        <time>2021-03-04T10:11:20.000Z</time>
      </trkpt>
      <trkpt lat="43.75426" lon="7.00219">
        <ele>565.20001220703</ele>
        <time>2021-03-04T10:11:25.000Z</time>
      </trkpt>
      <trkpt lat="43.75428" lon="7.00223">
        <ele>565.40002441406</ele>
        <time>2021-03-04T10:11:26.000Z</time>
      </trkpt>
      <trkpt lat="43.75437" lon="7.00244">
        <ele>566.40002441406</ele>
        <time>2021-03-04T10:11:32.000Z</time>
      </trkpt>
      <trkpt lat="43.75439" lon="7.00269">
        <ele>567.20001220703</ele>
        <time>2021-03-04T10:11:38.000Z</time>
      </trkpt>
      <trkpt lat="43.75436" lon="7.00281">
        <ele>567.59997558594</ele>
        <time>2021-03-04T10:11:41.000Z</time>
      </trkpt>
      <trkpt lat="43.75431" lon="7.00293">
        <ele>568</ele>
        <time>2021-03-04T10:11:44.000Z</time>
      </trkpt>
      <trkpt lat="43.75427" lon="7.00301">
        <ele>568.59997558594</ele>
        <time>2021-03-04T10:11:46.000Z</time>
      </trkpt>
      <trkpt lat="43.75416" lon="7.00321">
        <ele>569.59997558594</ele>
        <time>2021-03-04T10:11:51.000Z</time>
      </trkpt>
      <trkpt lat="43.75413" lon="7.00329">
        <ele>570</ele>
        <time>2021-03-04T10:11:53.000Z</time>
      </trkpt>
      <trkpt lat="43.75401" lon="7.00352">
        <ele>570.79998779297</ele>
        <time>2021-03-04T10:11:59.000Z</time>
      </trkpt>
      <trkpt lat="43.75398" lon="7.0036">
        <ele>571.20001220703</ele>
        <time>2021-03-04T10:12:01.000Z</time>
      </trkpt>
      <trkpt lat="43.7539" lon="7.00374">
        <ele>572</ele>
        <time>2021-03-04T10:12:05.000Z</time>
      </trkpt>
      <trkpt lat="43.75384" lon="7.00386">
        <ele>572.40002441406</ele>
        <time>2021-03-04T10:12:08.000Z</time>
      </trkpt>
      <trkpt lat="43.75375" lon="7.00407">
        <ele>573</ele>
        <time>2021-03-04T10:12:13.000Z</time>
      </trkpt>
      <trkpt lat="43.75371" lon="7.00415">
        <ele>573.40002441406</ele>
        <time>2021-03-04T10:12:15.000Z</time>
      </trkpt>
      <trkpt lat="43.75363" lon="7.00429">
        <ele>574.20001220703</ele>
        <time>2021-03-04T10:12:19.000Z</time>
      </trkpt>
      <trkpt lat="43.75355" lon="7.00445">
        <ele>574.79998779297</ele>
        <time>2021-03-04T10:12:23.000Z</time>
      </trkpt>
      <trkpt lat="43.75351" lon="7.00453">
        <ele>575.20001220703</ele>
        <time>2021-03-04T10:12:25.000Z</time>
      </trkpt>
      <trkpt lat="43.7534" lon="7.00476">
        <ele>576.40002441406</ele>
        <time>2021-03-04T10:12:31.000Z</time>
      </trkpt>
      <trkpt lat="43.75328" lon="7.00499">
        <ele>577.40002441406</ele>
        <time>2021-03-04T10:12:37.000Z</time>
      </trkpt>
      <trkpt lat="43.75322" lon="7.0051">
        <ele>578</ele>
        <time>2021-03-04T10:12:40.000Z</time>
      </trkpt>
      <trkpt lat="43.75315" lon="7.00521">
        <ele>578.40002441406</ele>
        <time>2021-03-04T10:12:43.000Z</time>
      </trkpt>
      <trkpt lat="43.75302" lon="7.00542">
        <ele>579.59997558594</ele>
        <time>2021-03-04T10:12:49.000Z</time>
      </trkpt>
      <trkpt lat="43.75297" lon="7.00549">
        <ele>580</ele>
        <time>2021-03-04T10:12:51.000Z</time>
      </trkpt>
      <trkpt lat="43.75287" lon="7.00561">
        <ele>580.59997558594</ele>
        <time>2021-03-04T10:12:55.000Z</time>
      </trkpt>
      <trkpt lat="43.75276" lon="7.00571">
        <ele>581.40002441406</ele>
        <time>2021-03-04T10:12:59.000Z</time>
      </trkpt>
      <trkpt lat="43.75269" lon="7.00576">
        <ele>581.79998779297</ele>
        <time>2021-03-04T10:13:01.000Z</time>
      </trkpt>
      <trkpt lat="43.75251" lon="7.0059">
        <ele>582.59997558594</ele>
        <time>2021-03-04T10:13:07.000Z</time>
      </trkpt>
      <trkpt lat="43.75248" lon="7.00592">
        <ele>582.79998779297</ele>
        <time>2021-03-04T10:13:08.000Z</time>
      </trkpt>
      <trkpt lat="43.75229" lon="7.00603">
        <ele>584</ele>
        <time>2021-03-04T10:13:14.000Z</time>
      </trkpt>
      <trkpt lat="43.75223" lon="7.00607">
        <ele>584.20001220703</ele>
        <time>2021-03-04T10:13:16.000Z</time>
      </trkpt>
      <trkpt lat="43.75211" lon="7.00616">
        <ele>585.20001220703</ele>
        <time>2021-03-04T10:13:20.000Z</time>
      </trkpt>
      <trkpt lat="43.75192" lon="7.00628">
        <ele>586.40002441406</ele>
        <time>2021-03-04T10:13:26.000Z</time>
      </trkpt>
      <trkpt lat="43.75166" lon="7.00642">
        <ele>587.40002441406</ele>
        <time>2021-03-04T10:13:34.000Z</time>
      </trkpt>
      <trkpt lat="43.75147" lon="7.00652">
        <ele>588.59997558594</ele>
        <time>2021-03-04T10:13:40.000Z</time>
      </trkpt>
      <trkpt lat="43.75137" lon="7.00658">
        <ele>589</ele>
        <time>2021-03-04T10:13:43.000Z</time>
      </trkpt>
      <trkpt lat="43.75127" lon="7.00663">
        <ele>589.79998779297</ele>
        <time>2021-03-04T10:13:46.000Z</time>
      </trkpt>
      <trkpt lat="43.75107" lon="7.00674">
        <ele>590.79998779297</ele>
        <time>2021-03-04T10:13:52.000Z</time>
      </trkpt>
      <trkpt lat="43.75101" lon="7.00676">
        <ele>591.20001220703</ele>
        <time>2021-03-04T10:13:54.000Z</time>
      </trkpt>
      <trkpt lat="43.7509" lon="7.00679">
        <ele>591.79998779297</ele>
        <time>2021-03-04T10:13:57.000Z</time>
      </trkpt>
      <trkpt lat="43.75069" lon="7.00684">
        <ele>592.79998779297</ele>
        <time>2021-03-04T10:14:03.000Z</time>
      </trkpt>
      <trkpt lat="43.75066" lon="7.00684">
        <ele>592.79998779297</ele>
        <time>2021-03-04T10:14:04.000Z</time>
      </trkpt>
      <trkpt lat="43.75052" lon="7.00689">
        <ele>594</ele>
        <time>2021-03-04T10:14:09.000Z</time>
      </trkpt>
      <trkpt lat="43.75032" lon="7.00693">
        <ele>595</ele>
        <time>2021-03-04T10:14:15.000Z</time>
      </trkpt>
      <trkpt lat="43.75018" lon="7.00697">
        <ele>595.79998779297</ele>
        <time>2021-03-04T10:14:19.000Z</time>
      </trkpt>
      <trkpt lat="43.75011" lon="7.00699">
        <ele>596</ele>
        <time>2021-03-04T10:14:21.000Z</time>
      </trkpt>
      <trkpt lat="43.74987" lon="7.00704">
        <ele>597.20001220703</ele>
        <time>2021-03-04T10:14:28.000Z</time>
      </trkpt>
      <trkpt lat="43.74983" lon="7.00704">
        <ele>597.40002441406</ele>
        <time>2021-03-04T10:14:29.000Z</time>
      </trkpt>
      <trkpt lat="43.74974" lon="7.00704">
        <ele>598.20001220703</ele>
        <time>2021-03-04T10:14:32.000Z</time>
      </trkpt>
      <trkpt lat="43.74961" lon="7.00701">
        <ele>599</ele>
        <time>2021-03-04T10:14:36.000Z</time>
      </trkpt>
      <trkpt lat="43.74955" lon="7.00699">
        <ele>599.20001220703</ele>
        <time>2021-03-04T10:14:38.000Z</time>
      </trkpt>
      <trkpt lat="43.74942" lon="7.00699">
        <ele>599.79998779297</ele>
        <time>2021-03-04T10:14:42.000Z</time>
      </trkpt>
      <trkpt lat="43.7493" lon="7.00707">
        <ele>600.40002441406</ele>
        <time>2021-03-04T10:14:46.000Z</time>
      </trkpt>
      <trkpt lat="43.74924" lon="7.00712">
        <ele>600.59997558594</ele>
        <time>2021-03-04T10:14:48.000Z</time>
      </trkpt>
      <trkpt lat="43.74908" lon="7.0072">
        <ele>601.40002441406</ele>
        <time>2021-03-04T10:14:53.000Z</time>
      </trkpt>
      <trkpt lat="43.74901" lon="7.00722">
        <ele>601.79998779297</ele>
        <time>2021-03-04T10:14:55.000Z</time>
      </trkpt>
      <trkpt lat="43.74888" lon="7.00721">
        <ele>602.59997558594</ele>
        <time>2021-03-04T10:14:59.000Z</time>
      </trkpt>
      <trkpt lat="43.74881" lon="7.00722">
        <ele>602.79998779297</ele>
        <time>2021-03-04T10:15:01.000Z</time>
      </trkpt>
      <trkpt lat="43.74871" lon="7.00734">
        <ele>603.40002441406</ele>
        <time>2021-03-04T10:15:05.000Z</time>
      </trkpt>
      <trkpt lat="43.74869" lon="7.00738">
        <ele>603.59997558594</ele>
        <time>2021-03-04T10:15:06.000Z</time>
      </trkpt>
      <trkpt lat="43.74857" lon="7.00757">
        <ele>604.59997558594</ele>
        <time>2021-03-04T10:15:11.000Z</time>
      </trkpt>
      <trkpt lat="43.74856" lon="7.00762">
        <ele>604.79998779297</ele>
        <time>2021-03-04T10:15:12.000Z</time>
      </trkpt>
      <trkpt lat="43.74857" lon="7.00777">
        <ele>605.59997558594</ele>
        <time>2021-03-04T10:15:15.000Z</time>
      </trkpt>
      <trkpt lat="43.74861" lon="7.00792">
        <ele>605.79998779297</ele>
        <time>2021-03-04T10:15:18.000Z</time>
      </trkpt>
      <trkpt lat="43.74859" lon="7.00807">
        <ele>606</ele>
        <time>2021-03-04T10:15:21.000Z</time>
      </trkpt>
      <trkpt lat="43.74848" lon="7.00818">
        <ele>606.40002441406</ele>
        <time>2021-03-04T10:15:25.000Z</time>
      </trkpt>
      <trkpt lat="43.74837" lon="7.00822">
        <ele>607</ele>
        <time>2021-03-04T10:15:28.000Z</time>
      </trkpt>
      <trkpt lat="43.74811" lon="7.00831">
        <ele>608</ele>
        <time>2021-03-04T10:15:35.000Z</time>
      </trkpt>
      <trkpt lat="43.74794" lon="7.00826">
        <ele>609</ele>
        <time>2021-03-04T10:15:40.000Z</time>
      </trkpt>
      <trkpt lat="43.74768" lon="7.0082">
        <ele>609.59997558594</ele>
        <time>2021-03-04T10:15:47.000Z</time>
      </trkpt>
      <trkpt lat="43.74755" lon="7.00827">
        <ele>610.20001220703</ele>
        <time>2021-03-04T10:15:51.000Z</time>
      </trkpt>
      <trkpt lat="43.7475" lon="7.00831">
        <ele>610.40002441406</ele>
        <time>2021-03-04T10:15:53.000Z</time>
      </trkpt>
      <trkpt lat="43.7474" lon="7.00841">
        <ele>611.40002441406</ele>
        <time>2021-03-04T10:15:57.000Z</time>
      </trkpt>
      <trkpt lat="43.74724" lon="7.00854">
        <ele>612.20001220703</ele>
        <time>2021-03-04T10:16:03.000Z</time>
      </trkpt>
      <trkpt lat="43.74722" lon="7.00856">
        <ele>612.40002441406</ele>
        <time>2021-03-04T10:16:04.000Z</time>
      </trkpt>
      <trkpt lat="43.74709" lon="7.00868">
        <ele>613.40002441406</ele>
        <time>2021-03-04T10:16:09.000Z</time>
      </trkpt>
      <trkpt lat="43.74704" lon="7.00872">
        <ele>613.79998779297</ele>
        <time>2021-03-04T10:16:11.000Z</time>
      </trkpt>
      <trkpt lat="43.74694" lon="7.00882">
        <ele>614.40002441406</ele>
        <time>2021-03-04T10:16:15.000Z</time>
      </trkpt>
      <trkpt lat="43.74684" lon="7.00891">
        <ele>615.20001220703</ele>
        <time>2021-03-04T10:16:19.000Z</time>
      </trkpt>
      <trkpt lat="43.7468" lon="7.00896">
        <ele>615.59997558594</ele>
        <time>2021-03-04T10:16:21.000Z</time>
      </trkpt>
      <trkpt lat="43.74669" lon="7.00911">
        <ele>616.40002441406</ele>
        <time>2021-03-04T10:16:26.000Z</time>
      </trkpt>
      <trkpt lat="43.74667" lon="7.00914">
        <ele>616.59997558594</ele>
        <time>2021-03-04T10:16:27.000Z</time>
      </trkpt>
      <trkpt lat="43.74646" lon="7.0093">
        <ele>617.79998779297</ele>
        <time>2021-03-04T10:16:35.000Z</time>
      </trkpt>
      <trkpt lat="43.74632" lon="7.00939">
        <ele>618.79998779297</ele>
        <time>2021-03-04T10:16:40.000Z</time>
      </trkpt>
      <trkpt lat="43.74615" lon="7.00949">
        <ele>620</ele>
        <time>2021-03-04T10:16:46.000Z</time>
      </trkpt>
      <trkpt lat="43.746" lon="7.00956">
        <ele>621.20001220703</ele>
        <time>2021-03-04T10:16:51.000Z</time>
      </trkpt>
      <trkpt lat="43.7459" lon="7.00957">
        <ele>621.79998779297</ele>
        <time>2021-03-04T10:16:54.000Z</time>
      </trkpt>
      <trkpt lat="43.74581" lon="7.00957">
        <ele>622.20001220703</ele>
        <time>2021-03-04T10:16:57.000Z</time>
      </trkpt>
      <trkpt lat="43.74568" lon="7.00955">
        <ele>623.20001220703</ele>
        <time>2021-03-04T10:17:01.000Z</time>
      </trkpt>
      <trkpt lat="43.74565" lon="7.00954">
        <ele>623.40002441406</ele>
        <time>2021-03-04T10:17:02.000Z</time>
      </trkpt>
      <trkpt lat="43.74543" lon="7.00941">
        <ele>624.40002441406</ele>
        <time>2021-03-04T10:17:09.000Z</time>
      </trkpt>
      <trkpt lat="43.74526" lon="7.00926">
        <ele>625.59997558594</ele>
        <time>2021-03-04T10:17:15.000Z</time>
      </trkpt>
      <trkpt lat="43.74523" lon="7.00924">
        <ele>625.79998779297</ele>
        <time>2021-03-04T10:17:16.000Z</time>
      </trkpt>
      <trkpt lat="43.74509" lon="7.00919">
        <ele>626.79998779297</ele>
        <time>2021-03-04T10:17:21.000Z</time>
      </trkpt>
      <trkpt lat="43.74506" lon="7.00918">
        <ele>627.20001220703</ele>
        <time>2021-03-04T10:17:22.000Z</time>
      </trkpt>
      <trkpt lat="43.74497" lon="7.00918">
        <ele>628</ele>
        <time>2021-03-04T10:17:25.000Z</time>
      </trkpt>
      <trkpt lat="43.74491" lon="7.00918">
        <ele>628.40002441406</ele>
        <time>2021-03-04T10:17:27.000Z</time>
      </trkpt>
      <trkpt lat="43.74474" lon="7.00916">
        <ele>629</ele>
        <time>2021-03-04T10:17:33.000Z</time>
      </trkpt>
      <trkpt lat="43.74472" lon="7.00916">
        <ele>629.20001220703</ele>
        <time>2021-03-04T10:17:34.000Z</time>
      </trkpt>
      <trkpt lat="43.74458" lon="7.00916">
        <ele>630.20001220703</ele>
        <time>2021-03-04T10:17:39.000Z</time>
      </trkpt>
      <trkpt lat="43.7445" lon="7.00915">
        <ele>630.59997558594</ele>
        <time>2021-03-04T10:17:42.000Z</time>
      </trkpt>
      <trkpt lat="43.7444" lon="7.00913">
        <ele>631.20001220703</ele>
        <time>2021-03-04T10:17:46.000Z</time>
      </trkpt>
      <trkpt lat="43.74424" lon="7.0091">
        <ele>632.40002441406</ele>
        <time>2021-03-04T10:17:52.000Z</time>
      </trkpt>
      <trkpt lat="43.74407" lon="7.00902">
        <ele>633.40002441406</ele>
        <time>2021-03-04T10:17:59.000Z</time>
      </trkpt>
      <trkpt lat="43.74404" lon="7.00902">
        <ele>633.79998779297</ele>
        <time>2021-03-04T10:18:00.000Z</time>
      </trkpt>
      <trkpt lat="43.74393" lon="7.00904">
        <ele>634.59997558594</ele>
        <time>2021-03-04T10:18:05.000Z</time>
      </trkpt>
      <trkpt lat="43.7439" lon="7.00906">
        <ele>635</ele>
        <time>2021-03-04T10:18:07.000Z</time>
      </trkpt>
      <trkpt lat="43.74385" lon="7.0091">
        <ele>636.20001220703</ele>
        <time>2021-03-04T10:18:10.000Z</time>
      </trkpt>
      <trkpt lat="43.74382" lon="7.00913">
        <ele>637.20001220703</ele>
        <time>2021-03-04T10:18:12.000Z</time>
      </trkpt>
      <trkpt lat="43.74377" lon="7.00914">
        <ele>638</ele>
        <time>2021-03-04T10:18:15.000Z</time>
      </trkpt>
      <trkpt lat="43.74376" lon="7.00913">
        <ele>638.20001220703</ele>
        <time>2021-03-04T10:18:16.000Z</time>
      </trkpt>
      <trkpt lat="43.74375" lon="7.00911">
        <ele>638.59997558594</ele>
        <time>2021-03-04T10:18:19.000Z</time>
      </trkpt>
      <trkpt lat="43.74374" lon="7.0091">
        <ele>637.59997558594</ele>
        <time>2021-03-04T10:18:34.000Z</time>
      </trkpt>
      <trkpt lat="43.74373" lon="7.00909">
        <ele>637.20001220703</ele>
        <time>2021-03-04T10:18:43.000Z</time>
      </trkpt>
      <trkpt lat="43.74373" lon="7.00909">
        <ele>637.20001220703</ele>
        <time>2021-03-04T10:18:44.000Z</time>
      </trkpt>
      <trkpt lat="43.74371" lon="7.00906">
        <ele>636.79998779297</ele>
        <time>2021-03-04T10:19:07.000Z</time>
      </trkpt>
      <trkpt lat="43.7437" lon="7.00902">
        <ele>636.40002441406</ele>
        <time>2021-03-04T10:19:40.000Z</time>
      </trkpt>
      <trkpt lat="43.7437" lon="7.00903">
        <ele>636.40002441406</ele>
        <time>2021-03-04T10:19:53.000Z</time>
      </trkpt>
      <trkpt lat="43.74369" lon="7.00904">
        <ele>637.20001220703</ele>
        <time>2021-03-04T10:20:12.000Z</time>
      </trkpt>
      <trkpt lat="43.74369" lon="7.00904">
        <ele>637</ele>
        <time>2021-03-04T10:20:19.000Z</time>
      </trkpt>
      <trkpt lat="43.74369" lon="7.00905">
        <ele>636.59997558594</ele>
        <time>2021-03-04T10:20:30.000Z</time>
      </trkpt>
      <trkpt lat="43.7437" lon="7.00907">
        <ele>638</ele>
        <time>2021-03-04T10:20:42.000Z</time>
      </trkpt>
      <trkpt lat="43.74373" lon="7.00908">
        <ele>637.79998779297</ele>
        <time>2021-03-04T10:21:01.000Z</time>
      </trkpt>
      <trkpt lat="43.74373" lon="7.00908">
        <ele>637.20001220703</ele>
        <time>2021-03-04T10:21:12.000Z</time>
      </trkpt>
      <trkpt lat="43.74373" lon="7.00907">
        <ele>637.40002441406</ele>
        <time>2021-03-04T10:21:23.000Z</time>
      </trkpt>
      <trkpt lat="43.74369" lon="7.00905">
        <ele>637</ele>
        <time>2021-03-04T10:21:37.000Z</time>
      </trkpt>
      <trkpt lat="43.7436" lon="7.00902">
        <ele>638.20001220703</ele>
        <time>2021-03-04T10:21:44.000Z</time>
      </trkpt>
      <trkpt lat="43.74357" lon="7.00901">
        <ele>638.59997558594</ele>
        <time>2021-03-04T10:21:46.000Z</time>
      </trkpt>
      <trkpt lat="43.74356" lon="7.00902">
        <ele>638.59997558594</ele>
        <time>2021-03-04T10:21:47.000Z</time>
      </trkpt>
      <trkpt lat="43.74349" lon="7.00901">
        <ele>639</ele>
        <time>2021-03-04T10:21:50.000Z</time>
      </trkpt>
      <trkpt lat="43.74345" lon="7.00901">
        <ele>639</ele>
        <time>2021-03-04T10:21:52.000Z</time>
      </trkpt>
      <trkpt lat="43.74341" lon="7.00902">
        <ele>639.20001220703</ele>
        <time>2021-03-04T10:21:54.000Z</time>
      </trkpt>
      <trkpt lat="43.74335" lon="7.00903">
        <ele>639.59997558594</ele>
        <time>2021-03-04T10:21:57.000Z</time>
      </trkpt>
      <trkpt lat="43.74325" lon="7.00895">
        <ele>639.59997558594</ele>
        <time>2021-03-04T10:22:02.000Z</time>
      </trkpt>
      <trkpt lat="43.7431" lon="7.00881">
        <ele>639.59997558594</ele>
        <time>2021-03-04T10:22:10.000Z</time>
      </trkpt>
      <trkpt lat="43.74294" lon="7.00874">
        <ele>639.40002441406</ele>
        <time>2021-03-04T10:22:17.000Z</time>
      </trkpt>
      <trkpt lat="43.74275" lon="7.00875">
        <ele>640.40002441406</ele>
        <time>2021-03-04T10:22:24.000Z</time>
      </trkpt>
      <trkpt lat="43.74274" lon="7.00874">
        <ele>640.59997558594</ele>
        <time>2021-03-04T10:22:25.000Z</time>
      </trkpt>
      <trkpt lat="43.74271" lon="7.00867">
        <ele>641.79998779297</ele>
        <time>2021-03-04T10:22:27.000Z</time>
      </trkpt>
      <trkpt lat="43.74277" lon="7.00859">
        <ele>642.20001220703</ele>
        <time>2021-03-04T10:22:29.000Z</time>
      </trkpt>
      <trkpt lat="43.74284" lon="7.00854">
        <ele>640.40002441406</ele>
        <time>2021-03-04T10:22:33.000Z</time>
      </trkpt>
      <trkpt lat="43.74278" lon="7.0085">
        <ele>639.40002441406</ele>
        <time>2021-03-04T10:22:36.000Z</time>
      </trkpt>
      <trkpt lat="43.74269" lon="7.00844">
        <ele>639</ele>
        <time>2021-03-04T10:22:41.000Z</time>
      </trkpt>
      <trkpt lat="43.74276" lon="7.00844">
        <ele>639.20001220703</ele>
        <time>2021-03-04T10:22:44.000Z</time>
      </trkpt>
      <trkpt lat="43.74279" lon="7.00845">
        <ele>639.40002441406</ele>
        <time>2021-03-04T10:22:45.000Z</time>
      </trkpt>
      <trkpt lat="43.74283" lon="7.00847">
        <ele>638.59997558594</ele>
        <time>2021-03-04T10:22:49.000Z</time>
      </trkpt>
      <trkpt lat="43.74282" lon="7.00848">
        <ele>638.20001220703</ele>
        <time>2021-03-04T10:22:51.000Z</time>
      </trkpt>
      <trkpt lat="43.74282" lon="7.00847">
        <ele>638.20001220703</ele>
        <time>2021-03-04T10:22:53.000Z</time>
      </trkpt>
      <trkpt lat="43.74281" lon="7.00849">
        <ele>637.59997558594</ele>
        <time>2021-03-04T10:23:01.000Z</time>
      </trkpt>
      <trkpt lat="43.74279" lon="7.0085">
        <ele>638.20001220703</ele>
        <time>2021-03-04T10:23:13.000Z</time>
      </trkpt>
      <trkpt lat="43.74279" lon="7.0085">
        <ele>638.40002441406</ele>
        <time>2021-03-04T10:23:19.000Z</time>
      </trkpt>
      <trkpt lat="43.74278" lon="7.0085">
        <ele>638.40002441406</ele>
        <time>2021-03-04T10:23:25.000Z</time>
      </trkpt>
      <trkpt lat="43.7428" lon="7.0085">
        <ele>638.40002441406</ele>
        <time>2021-03-04T10:23:32.000Z</time>
      </trkpt>
      <trkpt lat="43.74278" lon="7.00852">
        <ele>637.59997558594</ele>
        <time>2021-03-04T10:23:40.000Z</time>
      </trkpt>
      <trkpt lat="43.74279" lon="7.00854">
        <ele>637.59997558594</ele>
        <time>2021-03-04T10:23:49.000Z</time>
      </trkpt>
      <trkpt lat="43.74279" lon="7.00855">
        <ele>637.59997558594</ele>
        <time>2021-03-04T10:23:54.000Z</time>
      </trkpt>
      <trkpt lat="43.74279" lon="7.00855">
        <ele>637.20001220703</ele>
        <time>2021-03-04T10:24:00.000Z</time>
      </trkpt>
      <trkpt lat="43.74279" lon="7.00855">
        <ele>637.20001220703</ele>
        <time>2021-03-04T10:24:01.000Z</time>
      </trkpt>
      <trkpt lat="43.74279" lon="7.00856">
        <ele>637.40002441406</ele>
        <time>2021-03-04T10:24:08.000Z</time>
      </trkpt>
      <trkpt lat="43.7428" lon="7.00856">
        <ele>637.40002441406</ele>
        <time>2021-03-04T10:24:17.000Z</time>
      </trkpt>
      <trkpt lat="43.74281" lon="7.00854">
        <ele>637.40002441406</ele>
        <time>2021-03-04T10:24:24.000Z</time>
      </trkpt>
      <trkpt lat="43.7428" lon="7.00855">
        <ele>637.20001220703</ele>
        <time>2021-03-04T10:24:25.000Z</time>
      </trkpt>
      <trkpt lat="43.74278" lon="7.00854">
        <ele>637.20001220703</ele>
        <time>2021-03-04T10:24:32.000Z</time>
      </trkpt>
      <trkpt lat="43.74277" lon="7.00855">
        <ele>636.79998779297</ele>
        <time>2021-03-04T10:24:37.000Z</time>
      </trkpt>
      <trkpt lat="43.74277" lon="7.00854">
        <ele>637.20001220703</ele>
        <time>2021-03-04T10:24:45.000Z</time>
      </trkpt>
      <trkpt lat="43.74277" lon="7.00855">
        <ele>636.79998779297</ele>
        <time>2021-03-04T10:24:54.000Z</time>
      </trkpt>
      <trkpt lat="43.74276" lon="7.00855">
        <ele>636.79998779297</ele>
        <time>2021-03-04T10:25:04.000Z</time>
      </trkpt>
      <trkpt lat="43.74276" lon="7.00854">
        <ele>636.59997558594</ele>
        <time>2021-03-04T10:25:15.000Z</time>
      </trkpt>
      <trkpt lat="43.74277" lon="7.00853">
        <ele>636.59997558594</ele>
        <time>2021-03-04T10:25:16.000Z</time>
      </trkpt>
      <trkpt lat="43.74278" lon="7.00853">
        <ele>636.79998779297</ele>
        <time>2021-03-04T10:25:19.000Z</time>
      </trkpt>
      <trkpt lat="43.74277" lon="7.00855">
        <ele>637.20001220703</ele>
        <time>2021-03-04T10:25:24.000Z</time>
      </trkpt>
      <trkpt lat="43.74277" lon="7.00855">
        <ele>637.20001220703</ele>
        <time>2021-03-04T10:25:29.000Z</time>
      </trkpt>
      <trkpt lat="43.74278" lon="7.00855">
        <ele>637</ele>
        <time>2021-03-04T10:25:39.000Z</time>
      </trkpt>
      <trkpt lat="43.74277" lon="7.00854">
        <ele>637</ele>
        <time>2021-03-04T10:25:50.000Z</time>
      </trkpt>
      <trkpt lat="43.74277" lon="7.00855">
        <ele>637</ele>
        <time>2021-03-04T10:26:01.000Z</time>
      </trkpt>
      <trkpt lat="43.74276" lon="7.00855">
        <ele>636.59997558594</ele>
        <time>2021-03-04T10:26:12.000Z</time>
      </trkpt>
      <trkpt lat="43.74274" lon="7.00855">
        <ele>636.59997558594</ele>
        <time>2021-03-04T10:26:33.000Z</time>
      </trkpt>
      <trkpt lat="43.74274" lon="7.00854">
        <ele>637</ele>
        <time>2021-03-04T10:26:54.000Z</time>
      </trkpt>
      <trkpt lat="43.74275" lon="7.00853">
        <ele>636.59997558594</ele>
        <time>2021-03-04T10:27:08.000Z</time>
      </trkpt>
      <trkpt lat="43.74275" lon="7.00853">
        <ele>636.20001220703</ele>
        <time>2021-03-04T10:27:11.000Z</time>
      </trkpt>
      <trkpt lat="43.74274" lon="7.00853">
        <ele>636.79998779297</ele>
        <time>2021-03-04T10:27:25.000Z</time>
      </trkpt>
      <trkpt lat="43.74275" lon="7.00853">
        <ele>637</ele>
        <time>2021-03-04T10:27:42.000Z</time>
      </trkpt>
      <trkpt lat="43.74274" lon="7.00854">
        <ele>637.20001220703</ele>
        <time>2021-03-04T10:27:59.000Z</time>
      </trkpt>
      <trkpt lat="43.74274" lon="7.00854">
        <ele>637.20001220703</ele>
        <time>2021-03-04T10:28:02.000Z</time>
      </trkpt>
      <trkpt lat="43.74275" lon="7.00853">
        <ele>637.20001220703</ele>
        <time>2021-03-04T10:28:24.000Z</time>
      </trkpt>
      <trkpt lat="43.74275" lon="7.00852">
        <ele>637.40002441406</ele>
        <time>2021-03-04T10:28:35.000Z</time>
      </trkpt>
      <trkpt lat="43.74275" lon="7.00853">
        <ele>637.20001220703</ele>
        <time>2021-03-04T10:28:48.000Z</time>
      </trkpt>
      <trkpt lat="43.74275" lon="7.00854">
        <ele>637.59997558594</ele>
        <time>2021-03-04T10:29:07.000Z</time>
      </trkpt>
      <trkpt lat="43.74275" lon="7.00854">
        <ele>637.59997558594</ele>
        <time>2021-03-04T10:29:22.000Z</time>
      </trkpt>
      <trkpt lat="43.74274" lon="7.00854">
        <ele>637.59997558594</ele>
        <time>2021-03-04T10:29:42.000Z</time>
      </trkpt>
      <trkpt lat="43.74274" lon="7.00854">
        <ele>637.59997558594</ele>
        <time>2021-03-04T10:30:00.000Z</time>
      </trkpt>
      <trkpt lat="43.74274" lon="7.00853">
        <ele>637.59997558594</ele>
        <time>2021-03-04T10:30:16.000Z</time>
      </trkpt>
      <trkpt lat="43.74273" lon="7.00852">
        <ele>637.20001220703</ele>
        <time>2021-03-04T10:30:35.000Z</time>
      </trkpt>
      <trkpt lat="43.74273" lon="7.00852">
        <ele>637.59997558594</ele>
        <time>2021-03-04T10:30:51.000Z</time>
      </trkpt>
      <trkpt lat="43.74273" lon="7.00852">
        <ele>638.20001220703</ele>
        <time>2021-03-04T10:30:57.000Z</time>
      </trkpt>
      <trkpt lat="43.74273" lon="7.00851">
        <ele>638.20001220703</ele>
        <time>2021-03-04T10:30:58.000Z</time>
      </trkpt>
      <trkpt lat="43.74273" lon="7.0085">
        <ele>638.20001220703</ele>
        <time>2021-03-04T10:31:22.000Z</time>
      </trkpt>
      <trkpt lat="43.74273" lon="7.0085">
        <ele>638.40002441406</ele>
        <time>2021-03-04T10:31:37.000Z</time>
      </trkpt>
      <trkpt lat="43.74273" lon="7.0085">
        <ele>638.20001220703</ele>
        <time>2021-03-04T10:31:52.000Z</time>
      </trkpt>
      <trkpt lat="43.74273" lon="7.00851">
        <ele>638.20001220703</ele>
        <time>2021-03-04T10:32:01.000Z</time>
      </trkpt>
      <trkpt lat="43.74273" lon="7.00852">
        <ele>638.20001220703</ele>
        <time>2021-03-04T10:32:14.000Z</time>
      </trkpt>
      <trkpt lat="43.74272" lon="7.00852">
        <ele>638.20001220703</ele>
        <time>2021-03-04T10:32:25.000Z</time>
      </trkpt>
      <trkpt lat="43.74273" lon="7.00852">
        <ele>638</ele>
        <time>2021-03-04T10:32:35.000Z</time>
      </trkpt>
      <trkpt lat="43.74273" lon="7.00853">
        <ele>638.20001220703</ele>
        <time>2021-03-04T10:32:44.000Z</time>
      </trkpt>
      <trkpt lat="43.74274" lon="7.00851">
        <ele>638</ele>
        <time>2021-03-04T10:32:57.000Z</time>
      </trkpt>
      <trkpt lat="43.74274" lon="7.00851">
        <ele>638.20001220703</ele>
        <time>2021-03-04T10:33:08.000Z</time>
      </trkpt>
      <trkpt lat="43.74275" lon="7.00851">
        <ele>638.20001220703</ele>
        <time>2021-03-04T10:33:28.000Z</time>
      </trkpt>
      <trkpt lat="43.74276" lon="7.00851">
        <ele>638.40002441406</ele>
        <time>2021-03-04T10:33:43.000Z</time>
      </trkpt>
      <trkpt lat="43.74278" lon="7.0085">
        <ele>638.20001220703</ele>
        <time>2021-03-04T10:34:06.000Z</time>
      </trkpt>
      <trkpt lat="43.74277" lon="7.00852">
        <ele>638.40002441406</ele>
        <time>2021-03-04T10:34:23.000Z</time>
      </trkpt>
      <trkpt lat="43.74278" lon="7.00851">
        <ele>638.59997558594</ele>
        <time>2021-03-04T10:34:42.000Z</time>
      </trkpt>
      <trkpt lat="43.7428" lon="7.00851">
        <ele>638.59997558594</ele>
        <time>2021-03-04T10:34:58.000Z</time>
      </trkpt>
      <trkpt lat="43.74281" lon="7.00852">
        <ele>638.59997558594</ele>
        <time>2021-03-04T10:35:15.000Z</time>
      </trkpt>
      <trkpt lat="43.74282" lon="7.00852">
        <ele>638.79998779297</ele>
        <time>2021-03-04T10:35:36.000Z</time>
      </trkpt>
      <trkpt lat="43.74283" lon="7.00851">
        <ele>638.79998779297</ele>
        <time>2021-03-04T10:35:56.000Z</time>
      </trkpt>
      <trkpt lat="43.74282" lon="7.00852">
        <ele>639</ele>
        <time>2021-03-04T10:36:16.000Z</time>
      </trkpt>
      <trkpt lat="43.74282" lon="7.00852">
        <ele>638.79998779297</ele>
        <time>2021-03-04T10:36:34.000Z</time>
      </trkpt>
      <trkpt lat="43.74281" lon="7.00853">
        <ele>638.79998779297</ele>
        <time>2021-03-04T10:36:52.000Z</time>
      </trkpt>
      <trkpt lat="43.7428" lon="7.00854">
        <ele>639</ele>
        <time>2021-03-04T10:37:08.000Z</time>
      </trkpt>
      <trkpt lat="43.74279" lon="7.00855">
        <ele>638.79998779297</ele>
        <time>2021-03-04T10:37:28.000Z</time>
      </trkpt>
      <trkpt lat="43.74279" lon="7.00855">
        <ele>639</ele>
        <time>2021-03-04T10:37:44.000Z</time>
      </trkpt>
      <trkpt lat="43.74279" lon="7.00854">
        <ele>639.20001220703</ele>
        <time>2021-03-04T10:38:00.000Z</time>
      </trkpt>
      <trkpt lat="43.74279" lon="7.00854">
        <ele>639</ele>
        <time>2021-03-04T10:38:08.000Z</time>
      </trkpt>
      <trkpt lat="43.74279" lon="7.00851">
        <ele>639.20001220703</ele>
        <time>2021-03-04T10:38:33.000Z</time>
      </trkpt>
      <trkpt lat="43.74279" lon="7.00851">
        <ele>639.20001220703</ele>
        <time>2021-03-04T10:38:55.000Z</time>
      </trkpt>
      <trkpt lat="43.74278" lon="7.00852">
        <ele>639.20001220703</ele>
        <time>2021-03-04T10:39:14.000Z</time>
      </trkpt>
      <trkpt lat="43.74279" lon="7.00851">
        <ele>639.20001220703</ele>
        <time>2021-03-04T10:39:33.000Z</time>
      </trkpt>
      <trkpt lat="43.74279" lon="7.00851">
        <ele>639.20001220703</ele>
        <time>2021-03-04T10:39:52.000Z</time>
      </trkpt>
      <trkpt lat="43.74278" lon="7.00852">
        <ele>639.40002441406</ele>
        <time>2021-03-04T10:40:00.000Z</time>
      </trkpt>
      <trkpt lat="43.74282" lon="7.00852">
        <ele>639.59997558594</ele>
        <time>2021-03-04T10:40:06.000Z</time>
      </trkpt>
      <trkpt lat="43.74283" lon="7.00849">
        <ele>639.40002441406</ele>
        <time>2021-03-04T10:40:12.000Z</time>
      </trkpt>
      <trkpt lat="43.74286" lon="7.00848">
        <ele>639.40002441406</ele>
        <time>2021-03-04T10:40:16.000Z</time>
      </trkpt>
      <trkpt lat="43.74288" lon="7.00848">
        <ele>639.59997558594</ele>
        <time>2021-03-04T10:40:17.000Z</time>
      </trkpt>
      <trkpt lat="43.74294" lon="7.00849">
        <ele>639.59997558594</ele>
        <time>2021-03-04T10:40:20.000Z</time>
      </trkpt>
      <trkpt lat="43.74294" lon="7.0085">
        <ele>639.59997558594</ele>
        <time>2021-03-04T10:40:22.000Z</time>
      </trkpt>
      <trkpt lat="43.74293" lon="7.00849">
        <ele>639.79998779297</ele>
        <time>2021-03-04T10:40:23.000Z</time>
      </trkpt>
      <trkpt lat="43.74289" lon="7.00851">
        <ele>639.79998779297</ele>
        <time>2021-03-04T10:40:24.000Z</time>
      </trkpt>
      <trkpt lat="43.74292" lon="7.00851">
        <ele>639.79998779297</ele>
        <time>2021-03-04T10:40:27.000Z</time>
      </trkpt>
      <trkpt lat="43.74286" lon="7.00852">
        <ele>640</ele>
        <time>2021-03-04T10:40:32.000Z</time>
      </trkpt>
      <trkpt lat="43.7428" lon="7.00855">
        <ele>639.79998779297</ele>
        <time>2021-03-04T10:40:39.000Z</time>
      </trkpt>
      <trkpt lat="43.74278" lon="7.00858">
        <ele>639.59997558594</ele>
        <time>2021-03-04T10:40:48.000Z</time>
      </trkpt>
      <trkpt lat="43.74278" lon="7.0086">
        <ele>639.79998779297</ele>
        <time>2021-03-04T10:41:01.000Z</time>
      </trkpt>
      <trkpt lat="43.74279" lon="7.00861">
        <ele>639.79998779297</ele>
        <time>2021-03-04T10:41:09.000Z</time>
      </trkpt>
      <trkpt lat="43.74278" lon="7.00859">
        <ele>640</ele>
        <time>2021-03-04T10:41:14.000Z</time>
      </trkpt>
      <trkpt lat="43.74275" lon="7.00858">
        <ele>640</ele>
        <time>2021-03-04T10:41:16.000Z</time>
      </trkpt>
      <trkpt lat="43.74273" lon="7.00858">
        <ele>639.79998779297</ele>
        <time>2021-03-04T10:41:21.000Z</time>
      </trkpt>
      <trkpt lat="43.74272" lon="7.00857">
        <ele>640</ele>
        <time>2021-03-04T10:41:26.000Z</time>
      </trkpt>
      <trkpt lat="43.74277" lon="7.00858">
        <ele>640</ele>
        <time>2021-03-04T10:41:30.000Z</time>
      </trkpt>
      <trkpt lat="43.74275" lon="7.00857">
        <ele>639.79998779297</ele>
        <time>2021-03-04T10:41:37.000Z</time>
      </trkpt>
      <trkpt lat="43.74276" lon="7.00858">
        <ele>639.59997558594</ele>
        <time>2021-03-04T10:41:42.000Z</time>
      </trkpt>
      <trkpt lat="43.74275" lon="7.00858">
        <ele>640</ele>
        <time>2021-03-04T10:41:54.000Z</time>
      </trkpt>
      <trkpt lat="43.74276" lon="7.00857">
        <ele>640</ele>
        <time>2021-03-04T10:42:10.000Z</time>
      </trkpt>
      <trkpt lat="43.74276" lon="7.00856">
        <ele>639.79998779297</ele>
        <time>2021-03-04T10:42:28.000Z</time>
      </trkpt>
      <trkpt lat="43.74276" lon="7.00856">
        <ele>640</ele>
        <time>2021-03-04T10:42:40.000Z</time>
      </trkpt>
      <trkpt lat="43.74275" lon="7.0086">
        <ele>640</ele>
        <time>2021-03-04T10:42:54.000Z</time>
      </trkpt>
      <trkpt lat="43.74275" lon="7.00862">
        <ele>640</ele>
        <time>2021-03-04T10:43:08.000Z</time>
      </trkpt>
      <trkpt lat="43.74275" lon="7.00862">
        <ele>640</ele>
        <time>2021-03-04T10:43:15.000Z</time>
      </trkpt>
      <trkpt lat="43.74275" lon="7.00862">
        <ele>639.79998779297</ele>
        <time>2021-03-04T10:43:22.000Z</time>
      </trkpt>
      <trkpt lat="43.74276" lon="7.00862">
        <ele>640</ele>
        <time>2021-03-04T10:43:33.000Z</time>
      </trkpt>
      <trkpt lat="43.74277" lon="7.0086">
        <ele>640</ele>
        <time>2021-03-04T10:43:46.000Z</time>
      </trkpt>
      <trkpt lat="43.74277" lon="7.0086">
        <ele>639.79998779297</ele>
        <time>2021-03-04T10:43:51.000Z</time>
      </trkpt>
      <trkpt lat="43.74277" lon="7.00859">
        <ele>639.59997558594</ele>
        <time>2021-03-04T10:43:58.000Z</time>
      </trkpt>
      <trkpt lat="43.74278" lon="7.00859">
        <ele>640</ele>
        <time>2021-03-04T10:44:05.000Z</time>
      </trkpt>
      <trkpt lat="43.74278" lon="7.00858">
        <ele>640</ele>
        <time>2021-03-04T10:44:19.000Z</time>
      </trkpt>
      <trkpt lat="43.74278" lon="7.00858">
        <ele>640</ele>
        <time>2021-03-04T10:44:28.000Z</time>
      </trkpt>
      <trkpt lat="43.74277" lon="7.00857">
        <ele>640</ele>
        <time>2021-03-04T10:44:39.000Z</time>
      </trkpt>
      <trkpt lat="43.74278" lon="7.00856">
        <ele>640</ele>
        <time>2021-03-04T10:44:46.000Z</time>
      </trkpt>
      <trkpt lat="43.74279" lon="7.00856">
        <ele>640</ele>
        <time>2021-03-04T10:44:51.000Z</time>
      </trkpt>
      <trkpt lat="43.74278" lon="7.00858">
        <ele>640</ele>
        <time>2021-03-04T10:44:58.000Z</time>
      </trkpt>
      <trkpt lat="43.74276" lon="7.00857">
        <ele>639.59997558594</ele>
        <time>2021-03-04T10:45:07.000Z</time>
      </trkpt>
      <trkpt lat="43.74276" lon="7.00858">
        <ele>639.79998779297</ele>
        <time>2021-03-04T10:45:13.000Z</time>
      </trkpt>
      <trkpt lat="43.74277" lon="7.00857">
        <ele>639.59997558594</ele>
        <time>2021-03-04T10:45:30.000Z</time>
      </trkpt>
      <trkpt lat="43.74277" lon="7.00856">
        <ele>639.59997558594</ele>
        <time>2021-03-04T10:45:34.000Z</time>
      </trkpt>
      <trkpt lat="43.74277" lon="7.00856">
        <ele>639.79998779297</ele>
        <time>2021-03-04T10:45:35.000Z</time>
      </trkpt>
      <trkpt lat="43.74276" lon="7.00855">
        <ele>640</ele>
        <time>2021-03-04T10:45:41.000Z</time>
      </trkpt>
      <trkpt lat="43.74276" lon="7.00855">
        <ele>640.20001220703</ele>
        <time>2021-03-04T10:45:44.000Z</time>
      </trkpt>
      <trkpt lat="43.74276" lon="7.00854">
        <ele>640.40002441406</ele>
        <time>2021-03-04T10:45:49.000Z</time>
      </trkpt>
      <trkpt lat="43.74276" lon="7.00854">
        <ele>640.40002441406</ele>
        <time>2021-03-04T10:45:59.000Z</time>
      </trkpt>
      <trkpt lat="43.74277" lon="7.00853">
        <ele>640.40002441406</ele>
        <time>2021-03-04T10:46:09.000Z</time>
      </trkpt>
      <trkpt lat="43.74277" lon="7.00852">
        <ele>640.40002441406</ele>
        <time>2021-03-04T10:46:11.000Z</time>
      </trkpt>
      <trkpt lat="43.74277" lon="7.00853">
        <ele>640.20001220703</ele>
        <time>2021-03-04T10:46:14.000Z</time>
      </trkpt>
      <trkpt lat="43.74277" lon="7.00852">
        <ele>640.59997558594</ele>
        <time>2021-03-04T10:46:24.000Z</time>
      </trkpt>
      <trkpt lat="43.74277" lon="7.00852">
        <ele>640.20001220703</ele>
        <time>2021-03-04T10:46:31.000Z</time>
      </trkpt>
      <trkpt lat="43.74278" lon="7.00853">
        <ele>640.20001220703</ele>
        <time>2021-03-04T10:46:36.000Z</time>
      </trkpt>
      <trkpt lat="43.74277" lon="7.00853">
        <ele>640</ele>
        <time>2021-03-04T10:46:41.000Z</time>
      </trkpt>
      <trkpt lat="43.74277" lon="7.00852">
        <ele>640.20001220703</ele>
        <time>2021-03-04T10:46:47.000Z</time>
      </trkpt>
      <trkpt lat="43.74274" lon="7.00852">
        <ele>640.40002441406</ele>
        <time>2021-03-04T10:46:53.000Z</time>
      </trkpt>
      <trkpt lat="43.74273" lon="7.00852">
        <ele>640.20001220703</ele>
        <time>2021-03-04T10:46:54.000Z</time>
      </trkpt>
      <trkpt lat="43.74268" lon="7.00848">
        <ele>640.20001220703</ele>
        <time>2021-03-04T10:46:59.000Z</time>
      </trkpt>
      <trkpt lat="43.74265" lon="7.00848">
        <ele>640.40002441406</ele>
        <time>2021-03-04T10:47:01.000Z</time>
      </trkpt>
      <trkpt lat="43.74267" lon="7.0085">
        <ele>640.59997558594</ele>
        <time>2021-03-04T10:47:03.000Z</time>
      </trkpt>
      <trkpt lat="43.74276" lon="7.00855">
        <ele>641.40002441406</ele>
        <time>2021-03-04T10:47:08.000Z</time>
      </trkpt>
      <trkpt lat="43.74273" lon="7.00861">
        <ele>641.59997558594</ele>
        <time>2021-03-04T10:47:11.000Z</time>
      </trkpt>
      <trkpt lat="43.7427" lon="7.00864">
        <ele>642</ele>
        <time>2021-03-04T10:47:13.000Z</time>
      </trkpt>
      <trkpt lat="43.74269" lon="7.00868">
        <ele>642.40002441406</ele>
        <time>2021-03-04T10:47:15.000Z</time>
      </trkpt>
      <trkpt lat="43.74269" lon="7.00871">
        <ele>642.59997558594</ele>
        <time>2021-03-04T10:47:16.000Z</time>
      </trkpt>
      <trkpt lat="43.7427" lon="7.00881">
        <ele>643.59997558594</ele>
        <time>2021-03-04T10:47:20.000Z</time>
      </trkpt>
      <trkpt lat="43.7427" lon="7.00884">
        <ele>644</ele>
        <time>2021-03-04T10:47:21.000Z</time>
      </trkpt>
      <trkpt lat="43.7427" lon="7.0089">
        <ele>644.79998779297</ele>
        <time>2021-03-04T10:47:23.000Z</time>
      </trkpt>
      <trkpt lat="43.74267" lon="7.009">
        <ele>645.79998779297</ele>
        <time>2021-03-04T10:47:27.000Z</time>
      </trkpt>
      <trkpt lat="43.74267" lon="7.00903">
        <ele>645.79998779297</ele>
        <time>2021-03-04T10:47:28.000Z</time>
      </trkpt>
      <trkpt lat="43.74271" lon="7.00916">
        <ele>646.59997558594</ele>
        <time>2021-03-04T10:47:33.000Z</time>
      </trkpt>
      <trkpt lat="43.74278" lon="7.00924">
        <ele>646.79998779297</ele>
        <time>2021-03-04T10:47:37.000Z</time>
      </trkpt>
      <trkpt lat="43.74285" lon="7.00935">
        <ele>647.59997558594</ele>
        <time>2021-03-04T10:47:42.000Z</time>
      </trkpt>
      <trkpt lat="43.74289" lon="7.00938">
        <ele>648</ele>
        <time>2021-03-04T10:47:44.000Z</time>
      </trkpt>
      <trkpt lat="43.74296" lon="7.00947">
        <ele>649.20001220703</ele>
        <time>2021-03-04T10:47:49.000Z</time>
      </trkpt>
      <trkpt lat="43.74307" lon="7.00953">
        <ele>650.40002441406</ele>
        <time>2021-03-04T10:47:56.000Z</time>
      </trkpt>
      <trkpt lat="43.74308" lon="7.00953">
        <ele>650.59997558594</ele>
        <time>2021-03-04T10:47:57.000Z</time>
      </trkpt>
      <trkpt lat="43.74311" lon="7.00954">
        <ele>651.40002441406</ele>
        <time>2021-03-04T10:47:59.000Z</time>
      </trkpt>
      <trkpt lat="43.74312" lon="7.00956">
        <ele>651.79998779297</ele>
        <time>2021-03-04T10:48:00.000Z</time>
      </trkpt>
      <trkpt lat="43.74313" lon="7.00957">
        <ele>652.40002441406</ele>
        <time>2021-03-04T10:48:02.000Z</time>
      </trkpt>
      <trkpt lat="43.74313" lon="7.00958">
        <ele>652.59997558594</ele>
        <time>2021-03-04T10:48:03.000Z</time>
      </trkpt>
      <trkpt lat="43.74313" lon="7.00958">
        <ele>653.20001220703</ele>
        <time>2021-03-04T10:48:09.000Z</time>
      </trkpt>
      <trkpt lat="43.74312" lon="7.00961">
        <ele>653</ele>
        <time>2021-03-04T10:48:12.000Z</time>
      </trkpt>
      <trkpt lat="43.74311" lon="7.00962">
        <ele>653.20001220703</ele>
        <time>2021-03-04T10:48:13.000Z</time>
      </trkpt>
      <trkpt lat="43.74307" lon="7.00966">
        <ele>653.59997558594</ele>
        <time>2021-03-04T10:48:17.000Z</time>
      </trkpt>
      <trkpt lat="43.74305" lon="7.00967">
        <ele>653.79998779297</ele>
        <time>2021-03-04T10:48:18.000Z</time>
      </trkpt>
      <trkpt lat="43.74303" lon="7.00971">
        <ele>654.79998779297</ele>
        <time>2021-03-04T10:48:21.000Z</time>
      </trkpt>
      <trkpt lat="43.743" lon="7.00973">
        <ele>655.59997558594</ele>
        <time>2021-03-04T10:48:23.000Z</time>
      </trkpt>
      <trkpt lat="43.74299" lon="7.00974">
        <ele>655.79998779297</ele>
        <time>2021-03-04T10:48:24.000Z</time>
      </trkpt>
      <trkpt lat="43.74297" lon="7.00977">
        <ele>656.59997558594</ele>
        <time>2021-03-04T10:48:28.000Z</time>
      </trkpt>
      <trkpt lat="43.74296" lon="7.00978">
        <ele>657.20001220703</ele>
        <time>2021-03-04T10:48:30.000Z</time>
      </trkpt>
      <trkpt lat="43.74296" lon="7.00978">
        <ele>658.40002441406</ele>
        <time>2021-03-04T10:48:33.000Z</time>
      </trkpt>
      <trkpt lat="43.74296" lon="7.00978">
        <ele>658.20001220703</ele>
        <time>2021-03-04T10:48:35.000Z</time>
      </trkpt>
      <trkpt lat="43.74294" lon="7.00981">
        <ele>658.40002441406</ele>
        <time>2021-03-04T10:48:42.000Z</time>
      </trkpt>
      <trkpt lat="43.74293" lon="7.00983">
        <ele>658.79998779297</ele>
        <time>2021-03-04T10:48:49.000Z</time>
      </trkpt>
      <trkpt lat="43.74291" lon="7.00984">
        <ele>659.40002441406</ele>
        <time>2021-03-04T10:48:53.000Z</time>
      </trkpt>
      <trkpt lat="43.74289" lon="7.00986">
        <ele>659.59997558594</ele>
        <time>2021-03-04T10:48:55.000Z</time>
      </trkpt>
      <trkpt lat="43.74288" lon="7.00988">
        <ele>659.79998779297</ele>
        <time>2021-03-04T10:48:56.000Z</time>
      </trkpt>
      <trkpt lat="43.74285" lon="7.00991">
        <ele>660.20001220703</ele>
        <time>2021-03-04T10:48:59.000Z</time>
      </trkpt>
      <trkpt lat="43.74283" lon="7.00992">
        <ele>660.59997558594</ele>
        <time>2021-03-04T10:49:00.000Z</time>
      </trkpt>
      <trkpt lat="43.74277" lon="7.00996">
        <ele>661.59997558594</ele>
        <time>2021-03-04T10:49:05.000Z</time>
      </trkpt>
      <trkpt lat="43.74274" lon="7.00998">
        <ele>662.40002441406</ele>
        <time>2021-03-04T10:49:07.000Z</time>
      </trkpt>
      <trkpt lat="43.7427" lon="7.01001">
        <ele>662.79998779297</ele>
        <time>2021-03-04T10:49:09.000Z</time>
      </trkpt>
      <trkpt lat="43.74269" lon="7.01002">
        <ele>663</ele>
        <time>2021-03-04T10:49:10.000Z</time>
      </trkpt>
      <trkpt lat="43.7426" lon="7.01013">
        <ele>663.59997558594</ele>
        <time>2021-03-04T10:49:15.000Z</time>
      </trkpt>
      <trkpt lat="43.74256" lon="7.01019">
        <ele>664</ele>
        <time>2021-03-04T10:49:17.000Z</time>
      </trkpt>
      <trkpt lat="43.74252" lon="7.01025">
        <ele>665.20001220703</ele>
        <time>2021-03-04T10:49:20.000Z</time>
      </trkpt>
      <trkpt lat="43.7425" lon="7.01028">
        <ele>665.59997558594</ele>
        <time>2021-03-04T10:49:21.000Z</time>
      </trkpt>
      <trkpt lat="43.74248" lon="7.01034">
        <ele>666.20001220703</ele>
        <time>2021-03-04T10:49:23.000Z</time>
      </trkpt>
      <trkpt lat="43.74247" lon="7.01043">
        <ele>667.59997558594</ele>
        <time>2021-03-04T10:49:26.000Z</time>
      </trkpt>
      <trkpt lat="43.74247" lon="7.01054">
        <ele>668.79998779297</ele>
        <time>2021-03-04T10:49:30.000Z</time>
      </trkpt>
      <trkpt lat="43.74246" lon="7.0106">
        <ele>669.40002441406</ele>
        <time>2021-03-04T10:49:32.000Z</time>
      </trkpt>
      <trkpt lat="43.74246" lon="7.01069">
        <ele>670.20001220703</ele>
        <time>2021-03-04T10:49:35.000Z</time>
      </trkpt>
      <trkpt lat="43.74244" lon="7.01081">
        <ele>671.20001220703</ele>
        <time>2021-03-04T10:49:38.000Z</time>
      </trkpt>
      <trkpt lat="43.74243" lon="7.01083">
        <ele>671.40002441406</ele>
        <time>2021-03-04T10:49:39.000Z</time>
      </trkpt>
      <trkpt lat="43.74237" lon="7.01087">
        <ele>672.59997558594</ele>
        <time>2021-03-04T10:49:42.000Z</time>
      </trkpt>
      <trkpt lat="43.74232" lon="7.0109">
        <ele>673.79998779297</ele>
        <time>2021-03-04T10:49:45.000Z</time>
      </trkpt>
      <trkpt lat="43.74227" lon="7.01092">
        <ele>675</ele>
        <time>2021-03-04T10:49:48.000Z</time>
      </trkpt>
      <trkpt lat="43.74226" lon="7.01093">
        <ele>675.40002441406</ele>
        <time>2021-03-04T10:49:49.000Z</time>
      </trkpt>
      <trkpt lat="43.74222" lon="7.01095">
        <ele>676.20001220703</ele>
        <time>2021-03-04T10:49:51.000Z</time>
      </trkpt>
      <trkpt lat="43.74219" lon="7.01098">
        <ele>676.59997558594</ele>
        <time>2021-03-04T10:49:53.000Z</time>
      </trkpt>
      <trkpt lat="43.74214" lon="7.01101">
        <ele>677.20001220703</ele>
        <time>2021-03-04T10:49:56.000Z</time>
      </trkpt>
      <trkpt lat="43.74209" lon="7.01102">
        <ele>677.59997558594</ele>
        <time>2021-03-04T10:49:59.000Z</time>
      </trkpt>
      <trkpt lat="43.74204" lon="7.01104">
        <ele>678.40002441406</ele>
        <time>2021-03-04T10:50:02.000Z</time>
      </trkpt>
      <trkpt lat="43.74199" lon="7.01105">
        <ele>679.40002441406</ele>
        <time>2021-03-04T10:50:05.000Z</time>
      </trkpt>
      <trkpt lat="43.74197" lon="7.01106">
        <ele>679.59997558594</ele>
        <time>2021-03-04T10:50:06.000Z</time>
      </trkpt>
      <trkpt lat="43.7419" lon="7.01112">
        <ele>680.59997558594</ele>
        <time>2021-03-04T10:50:11.000Z</time>
      </trkpt>
      <trkpt lat="43.74189" lon="7.01113">
        <ele>681</ele>
        <time>2021-03-04T10:50:12.000Z</time>
      </trkpt>
      <trkpt lat="43.74183" lon="7.01116">
        <ele>682</ele>
        <time>2021-03-04T10:50:17.000Z</time>
      </trkpt>
      <trkpt lat="43.74184" lon="7.01116">
        <ele>682.20001220703</ele>
        <time>2021-03-04T10:50:18.000Z</time>
      </trkpt>
      <trkpt lat="43.74181" lon="7.01119">
        <ele>683</ele>
        <time>2021-03-04T10:50:23.000Z</time>
      </trkpt>
      <trkpt lat="43.7418" lon="7.0112">
        <ele>683.20001220703</ele>
        <time>2021-03-04T10:50:24.000Z</time>
      </trkpt>
      <trkpt lat="43.74175" lon="7.01128">
        <ele>684.20001220703</ele>
        <time>2021-03-04T10:50:29.000Z</time>
      </trkpt>
      <trkpt lat="43.74174" lon="7.01129">
        <ele>684.40002441406</ele>
        <time>2021-03-04T10:50:30.000Z</time>
      </trkpt>
      <trkpt lat="43.74171" lon="7.0113">
        <ele>685</ele>
        <time>2021-03-04T10:50:32.000Z</time>
      </trkpt>
      <trkpt lat="43.7417" lon="7.01131">
        <ele>685.20001220703</ele>
        <time>2021-03-04T10:50:33.000Z</time>
      </trkpt>
      <trkpt lat="43.74168" lon="7.01132">
        <ele>686.20001220703</ele>
        <time>2021-03-04T10:50:36.000Z</time>
      </trkpt>
      <trkpt lat="43.74168" lon="7.01132">
        <ele>686.59997558594</ele>
        <time>2021-03-04T10:50:37.000Z</time>
      </trkpt>
      <trkpt lat="43.74167" lon="7.01133">
        <ele>687</ele>
        <time>2021-03-04T10:50:43.000Z</time>
      </trkpt>
      <trkpt lat="43.74165" lon="7.01137">
        <ele>687.59997558594</ele>
        <time>2021-03-04T10:50:49.000Z</time>
      </trkpt>
      <trkpt lat="43.74165" lon="7.01138">
        <ele>687.59997558594</ele>
        <time>2021-03-04T10:50:50.000Z</time>
      </trkpt>
      <trkpt lat="43.74164" lon="7.01142">
        <ele>688.59997558594</ele>
        <time>2021-03-04T10:50:56.000Z</time>
      </trkpt>
      <trkpt lat="43.74163" lon="7.01143">
        <ele>688.79998779297</ele>
        <time>2021-03-04T10:51:00.000Z</time>
      </trkpt>
      <trkpt lat="43.74162" lon="7.01145">
        <ele>689</ele>
        <time>2021-03-04T10:51:03.000Z</time>
      </trkpt>
      <trkpt lat="43.7416" lon="7.01149">
        <ele>689.40002441406</ele>
        <time>2021-03-04T10:51:09.000Z</time>
      </trkpt>
      <trkpt lat="43.74159" lon="7.01151">
        <ele>689.79998779297</ele>
        <time>2021-03-04T10:51:11.000Z</time>
      </trkpt>
      <trkpt lat="43.74157" lon="7.01155">
        <ele>690.79998779297</ele>
        <time>2021-03-04T10:51:17.000Z</time>
      </trkpt>
      <trkpt lat="43.74156" lon="7.01155">
        <ele>691</ele>
        <time>2021-03-04T10:51:18.000Z</time>
      </trkpt>
      <trkpt lat="43.74155" lon="7.01159">
        <ele>691.79998779297</ele>
        <time>2021-03-04T10:51:23.000Z</time>
      </trkpt>
      <trkpt lat="43.74151" lon="7.01161">
        <ele>691.79998779297</ele>
        <time>2021-03-04T10:51:28.000Z</time>
      </trkpt>
      <trkpt lat="43.74146" lon="7.01162">
        <ele>692.20001220703</ele>
        <time>2021-03-04T10:51:31.000Z</time>
      </trkpt>
      <trkpt lat="43.74144" lon="7.0116">
        <ele>692.59997558594</ele>
        <time>2021-03-04T10:51:33.000Z</time>
      </trkpt>
      <trkpt lat="43.74142" lon="7.01158">
        <ele>693</ele>
        <time>2021-03-04T10:51:34.000Z</time>
      </trkpt>
      <trkpt lat="43.74139" lon="7.01156">
        <ele>694</ele>
        <time>2021-03-04T10:51:37.000Z</time>
      </trkpt>
      <trkpt lat="43.74138" lon="7.01155">
        <ele>694.40002441406</ele>
        <time>2021-03-04T10:51:38.000Z</time>
      </trkpt>
      <trkpt lat="43.74136" lon="7.01153">
        <ele>695.20001220703</ele>
        <time>2021-03-04T10:51:40.000Z</time>
      </trkpt>
      <trkpt lat="43.74134" lon="7.01149">
        <ele>696</ele>
        <time>2021-03-04T10:51:43.000Z</time>
      </trkpt>
      <trkpt lat="43.74132" lon="7.01148">
        <ele>696.40002441406</ele>
        <time>2021-03-04T10:51:44.000Z</time>
      </trkpt>
      <trkpt lat="43.7413" lon="7.01144">
        <ele>697.59997558594</ele>
        <time>2021-03-04T10:51:47.000Z</time>
      </trkpt>
      <trkpt lat="43.74129" lon="7.01143">
        <ele>697.79998779297</ele>
        <time>2021-03-04T10:51:48.000Z</time>
      </trkpt>
      <trkpt lat="43.74127" lon="7.01142">
        <ele>698.59997558594</ele>
        <time>2021-03-04T10:51:50.000Z</time>
      </trkpt>
      <trkpt lat="43.74126" lon="7.01144">
        <ele>699.79998779297</ele>
        <time>2021-03-04T10:51:53.000Z</time>
      </trkpt>
      <trkpt lat="43.74127" lon="7.0115">
        <ele>700.79998779297</ele>
        <time>2021-03-04T10:51:57.000Z</time>
      </trkpt>
      <trkpt lat="43.74121" lon="7.01151">
        <ele>701.79998779297</ele>
        <time>2021-03-04T10:52:01.000Z</time>
      </trkpt>
      <trkpt lat="43.7412" lon="7.01149">
        <ele>702</ele>
        <time>2021-03-04T10:52:02.000Z</time>
      </trkpt>
      <trkpt lat="43.74119" lon="7.01145">
        <ele>702.79998779297</ele>
        <time>2021-03-04T10:52:05.000Z</time>
      </trkpt>
      <trkpt lat="43.74119" lon="7.01145">
        <ele>703.20001220703</ele>
        <time>2021-03-04T10:52:06.000Z</time>
      </trkpt>
      <trkpt lat="43.74118" lon="7.01143">
        <ele>704.20001220703</ele>
        <time>2021-03-04T10:52:10.000Z</time>
      </trkpt>
      <trkpt lat="43.74114" lon="7.0114">
        <ele>705</ele>
        <time>2021-03-04T10:52:17.000Z</time>
      </trkpt>
      <trkpt lat="43.74112" lon="7.0114">
        <ele>705.20001220703</ele>
        <time>2021-03-04T10:52:20.000Z</time>
      </trkpt>
      <trkpt lat="43.74112" lon="7.01142">
        <ele>705.59997558594</ele>
        <time>2021-03-04T10:52:23.000Z</time>
      </trkpt>
      <trkpt lat="43.74113" lon="7.01144">
        <ele>706.20001220703</ele>
        <time>2021-03-04T10:52:26.000Z</time>
      </trkpt>
      <trkpt lat="43.74112" lon="7.01147">
        <ele>707</ele>
        <time>2021-03-04T10:52:31.000Z</time>
      </trkpt>
      <trkpt lat="43.7411" lon="7.01148">
        <ele>707.20001220703</ele>
        <time>2021-03-04T10:52:34.000Z</time>
      </trkpt>
      <trkpt lat="43.74108" lon="7.01147">
        <ele>707.40002441406</ele>
        <time>2021-03-04T10:52:38.000Z</time>
      </trkpt>
      <trkpt lat="43.74107" lon="7.01143">
        <ele>708.20001220703</ele>
        <time>2021-03-04T10:52:43.000Z</time>
      </trkpt>
      <trkpt lat="43.74106" lon="7.01143">
        <ele>708.40002441406</ele>
        <time>2021-03-04T10:52:44.000Z</time>
      </trkpt>
      <trkpt lat="43.74106" lon="7.01142">
        <ele>709.20001220703</ele>
        <time>2021-03-04T10:52:49.000Z</time>
      </trkpt>
      <trkpt lat="43.74105" lon="7.01142">
        <ele>709.20001220703</ele>
        <time>2021-03-04T10:52:52.000Z</time>
      </trkpt>
      <trkpt lat="43.74101" lon="7.01142">
        <ele>709.20001220703</ele>
        <time>2021-03-04T10:52:56.000Z</time>
      </trkpt>
      <trkpt lat="43.74096" lon="7.01143">
        <ele>710</ele>
        <time>2021-03-04T10:53:00.000Z</time>
      </trkpt>
      <trkpt lat="43.74094" lon="7.01142">
        <ele>710.40002441406</ele>
        <time>2021-03-04T10:53:01.000Z</time>
      </trkpt>
      <trkpt lat="43.74092" lon="7.01141">
        <ele>710.79998779297</ele>
        <time>2021-03-04T10:53:02.000Z</time>
      </trkpt>
      <trkpt lat="43.7409" lon="7.0114">
        <ele>711.40002441406</ele>
        <time>2021-03-04T10:53:04.000Z</time>
      </trkpt>
      <trkpt lat="43.74088" lon="7.0114">
        <ele>711.40002441406</ele>
        <time>2021-03-04T10:53:05.000Z</time>
      </trkpt>
      <trkpt lat="43.74086" lon="7.01142">
        <ele>711.79998779297</ele>
        <time>2021-03-04T10:53:07.000Z</time>
      </trkpt>
      <trkpt lat="43.74083" lon="7.01144">
        <ele>712.40002441406</ele>
        <time>2021-03-04T10:53:09.000Z</time>
      </trkpt>
      <trkpt lat="43.74082" lon="7.01145">
        <ele>713</ele>
        <time>2021-03-04T10:53:12.000Z</time>
      </trkpt>
      <trkpt lat="43.74081" lon="7.01146">
        <ele>713.59997558594</ele>
        <time>2021-03-04T10:53:15.000Z</time>
      </trkpt>
      <trkpt lat="43.74079" lon="7.01147">
        <ele>714.20001220703</ele>
        <time>2021-03-04T10:53:18.000Z</time>
      </trkpt>
      <trkpt lat="43.74077" lon="7.01148">
        <ele>714.59997558594</ele>
        <time>2021-03-04T10:53:21.000Z</time>
      </trkpt>
      <trkpt lat="43.74074" lon="7.0115">
        <ele>715.40002441406</ele>
        <time>2021-03-04T10:53:27.000Z</time>
      </trkpt>
      <trkpt lat="43.74074" lon="7.0115">
        <ele>715.79998779297</ele>
        <time>2021-03-04T10:53:29.000Z</time>
      </trkpt>
      <trkpt lat="43.74072" lon="7.0115">
        <ele>716.40002441406</ele>
        <time>2021-03-04T10:53:33.000Z</time>
      </trkpt>
      <trkpt lat="43.74069" lon="7.01151">
        <ele>717</ele>
        <time>2021-03-04T10:53:37.000Z</time>
      </trkpt>
      <trkpt lat="43.74067" lon="7.01152">
        <ele>717.20001220703</ele>
        <time>2021-03-04T10:53:40.000Z</time>
      </trkpt>
      <trkpt lat="43.74064" lon="7.01154">
        <ele>718</ele>
        <time>2021-03-04T10:53:46.000Z</time>
      </trkpt>
      <trkpt lat="43.7406" lon="7.01158">
        <ele>719</ele>
        <time>2021-03-04T10:53:54.000Z</time>
      </trkpt>
      <trkpt lat="43.74058" lon="7.01159">
        <ele>720.20001220703</ele>
        <time>2021-03-04T10:53:59.000Z</time>
      </trkpt>
      <trkpt lat="43.74058" lon="7.01159">
        <ele>720.40002441406</ele>
        <time>2021-03-04T10:54:01.000Z</time>
      </trkpt>
      <trkpt lat="43.74055" lon="7.0116">
        <ele>720.79998779297</ele>
        <time>2021-03-04T10:54:08.000Z</time>
      </trkpt>
      <trkpt lat="43.7405" lon="7.01165">
        <ele>721</ele>
        <time>2021-03-04T10:54:13.000Z</time>
      </trkpt>
      <trkpt lat="43.74047" lon="7.01168">
        <ele>721.40002441406</ele>
        <time>2021-03-04T10:54:15.000Z</time>
      </trkpt>
      <trkpt lat="43.74042" lon="7.01173">
        <ele>722.20001220703</ele>
        <time>2021-03-04T10:54:19.000Z</time>
      </trkpt>
      <trkpt lat="43.74042" lon="7.01174">
        <ele>722.59997558594</ele>
        <time>2021-03-04T10:54:20.000Z</time>
      </trkpt>
      <trkpt lat="43.74035" lon="7.0118">
        <ele>722.79998779297</ele>
        <time>2021-03-04T10:54:24.000Z</time>
      </trkpt>
      <trkpt lat="43.74029" lon="7.01186">
        <ele>723.59997558594</ele>
        <time>2021-03-04T10:54:27.000Z</time>
      </trkpt>
      <trkpt lat="43.74023" lon="7.01194">
        <ele>724.40002441406</ele>
        <time>2021-03-04T10:54:30.000Z</time>
      </trkpt>
      <trkpt lat="43.74022" lon="7.01196">
        <ele>724.59997558594</ele>
        <time>2021-03-04T10:54:31.000Z</time>
      </trkpt>
      <trkpt lat="43.74016" lon="7.01201">
        <ele>725.40002441406</ele>
        <time>2021-03-04T10:54:35.000Z</time>
      </trkpt>
      <trkpt lat="43.74013" lon="7.01207">
        <ele>725.79998779297</ele>
        <time>2021-03-04T10:54:37.000Z</time>
      </trkpt>
      <trkpt lat="43.74009" lon="7.01215">
        <ele>726.40002441406</ele>
        <time>2021-03-04T10:54:39.000Z</time>
      </trkpt>
      <trkpt lat="43.74006" lon="7.01225">
        <ele>727</ele>
        <time>2021-03-04T10:54:42.000Z</time>
      </trkpt>
      <trkpt lat="43.74004" lon="7.01233">
        <ele>727.20001220703</ele>
        <time>2021-03-04T10:54:44.000Z</time>
      </trkpt>
      <trkpt lat="43.73999" lon="7.01251">
        <ele>728.20001220703</ele>
        <time>2021-03-04T10:54:48.000Z</time>
      </trkpt>
      <trkpt lat="43.73996" lon="7.01256">
        <ele>728.59997558594</ele>
        <time>2021-03-04T10:54:50.000Z</time>
      </trkpt>
      <trkpt lat="43.73989" lon="7.01264">
        <ele>729.40002441406</ele>
        <time>2021-03-04T10:54:54.000Z</time>
      </trkpt>
      <trkpt lat="43.73988" lon="7.01267">
        <ele>729.59997558594</ele>
        <time>2021-03-04T10:54:56.000Z</time>
      </trkpt>
      <trkpt lat="43.73986" lon="7.01276">
        <ele>730.79998779297</ele>
        <time>2021-03-04T10:55:01.000Z</time>
      </trkpt>
      <trkpt lat="43.73986" lon="7.01276">
        <ele>731.79998779297</ele>
        <time>2021-03-04T10:55:03.000Z</time>
      </trkpt>
      <trkpt lat="43.73984" lon="7.01278">
        <ele>732.59997558594</ele>
        <time>2021-03-04T10:55:05.000Z</time>
      </trkpt>
      <trkpt lat="43.73982" lon="7.01281">
        <ele>732.79998779297</ele>
        <time>2021-03-04T10:55:10.000Z</time>
      </trkpt>
      <trkpt lat="43.73982" lon="7.01281">
        <ele>733.20001220703</ele>
        <time>2021-03-04T10:55:12.000Z</time>
      </trkpt>
      <trkpt lat="43.73983" lon="7.01284">
        <ele>733.79998779297</ele>
        <time>2021-03-04T10:55:17.000Z</time>
      </trkpt>
      <trkpt lat="43.73982" lon="7.01285">
        <ele>733.79998779297</ele>
        <time>2021-03-04T10:55:18.000Z</time>
      </trkpt>
      <trkpt lat="43.73981" lon="7.01285">
        <ele>734</ele>
        <time>2021-03-04T10:55:21.000Z</time>
      </trkpt>
      <trkpt lat="43.7398" lon="7.01288">
        <ele>733.79998779297</ele>
        <time>2021-03-04T10:55:27.000Z</time>
      </trkpt>
      <trkpt lat="43.7398" lon="7.01289">
        <ele>734</ele>
        <time>2021-03-04T10:55:34.000Z</time>
      </trkpt>
      <trkpt lat="43.7398" lon="7.01293">
        <ele>734</ele>
        <time>2021-03-04T10:55:49.000Z</time>
      </trkpt>
      <trkpt lat="43.73982" lon="7.01293">
        <ele>734</ele>
        <time>2021-03-04T10:56:00.000Z</time>
      </trkpt>
      <trkpt lat="43.73982" lon="7.01292">
        <ele>734</ele>
        <time>2021-03-04T10:56:05.000Z</time>
      </trkpt>
      <trkpt lat="43.73983" lon="7.01291">
        <ele>733.79998779297</ele>
        <time>2021-03-04T10:56:13.000Z</time>
      </trkpt>
      <trkpt lat="43.73984" lon="7.01289">
        <ele>733.79998779297</ele>
        <time>2021-03-04T10:56:14.000Z</time>
      </trkpt>
      <trkpt lat="43.73987" lon="7.01287">
        <ele>733.79998779297</ele>
        <time>2021-03-04T10:56:18.000Z</time>
      </trkpt>
      <trkpt lat="43.73989" lon="7.01287">
        <ele>733.79998779297</ele>
        <time>2021-03-04T10:56:20.000Z</time>
      </trkpt>
      <trkpt lat="43.7399" lon="7.01288">
        <ele>733.59997558594</ele>
        <time>2021-03-04T10:56:23.000Z</time>
      </trkpt>
      <trkpt lat="43.73989" lon="7.01287">
        <ele>733.59997558594</ele>
        <time>2021-03-04T10:56:31.000Z</time>
      </trkpt>
      <trkpt lat="43.7399" lon="7.0129">
        <ele>734</ele>
        <time>2021-03-04T10:56:41.000Z</time>
      </trkpt>
      <trkpt lat="43.73992" lon="7.01292">
        <ele>734.59997558594</ele>
        <time>2021-03-04T10:56:44.000Z</time>
      </trkpt>
      <trkpt lat="43.73993" lon="7.01292">
        <ele>734.79998779297</ele>
        <time>2021-03-04T10:56:45.000Z</time>
      </trkpt>
      <trkpt lat="43.73993" lon="7.01292">
        <ele>735</ele>
        <time>2021-03-04T10:56:47.000Z</time>
      </trkpt>
      <trkpt lat="43.73998" lon="7.01296">
        <ele>735.40002441406</ele>
        <time>2021-03-04T10:56:51.000Z</time>
      </trkpt>
      <trkpt lat="43.74001" lon="7.01298">
        <ele>735.40002441406</ele>
        <time>2021-03-04T10:56:53.000Z</time>
      </trkpt>
      <trkpt lat="43.74008" lon="7.013">
        <ele>735.79998779297</ele>
        <time>2021-03-04T10:56:56.000Z</time>
      </trkpt>
      <trkpt lat="43.74011" lon="7.01302">
        <ele>736</ele>
        <time>2021-03-04T10:56:58.000Z</time>
      </trkpt>
      <trkpt lat="43.74018" lon="7.01303">
        <ele>736.59997558594</ele>
        <time>2021-03-04T10:57:01.000Z</time>
      </trkpt>
      <trkpt lat="43.7402" lon="7.01304">
        <ele>737</ele>
        <time>2021-03-04T10:57:02.000Z</time>
      </trkpt>
      <trkpt lat="43.74022" lon="7.01305">
        <ele>737.20001220703</ele>
        <time>2021-03-04T10:57:03.000Z</time>
      </trkpt>
      <trkpt lat="43.74026" lon="7.01309">
        <ele>738</ele>
        <time>2021-03-04T10:57:06.000Z</time>
      </trkpt>
      <trkpt lat="43.74027" lon="7.0131">
        <ele>738.20001220703</ele>
        <time>2021-03-04T10:57:07.000Z</time>
      </trkpt>
      <trkpt lat="43.74032" lon="7.01314">
        <ele>739.20001220703</ele>
        <time>2021-03-04T10:57:10.000Z</time>
      </trkpt>
      <trkpt lat="43.74033" lon="7.01315">
        <ele>739.59997558594</ele>
        <time>2021-03-04T10:57:11.000Z</time>
      </trkpt>
      <trkpt lat="43.74037" lon="7.01318">
        <ele>740.59997558594</ele>
        <time>2021-03-04T10:57:14.000Z</time>
      </trkpt>
      <trkpt lat="43.74042" lon="7.01322">
        <ele>741.20001220703</ele>
        <time>2021-03-04T10:57:17.000Z</time>
      </trkpt>
      <trkpt lat="43.74045" lon="7.01327">
        <ele>741.79998779297</ele>
        <time>2021-03-04T10:57:20.000Z</time>
      </trkpt>
      <trkpt lat="43.74046" lon="7.01331">
        <ele>743</ele>
        <time>2021-03-04T10:57:22.000Z</time>
      </trkpt>
      <trkpt lat="43.74048" lon="7.01335">
        <ele>744.20001220703</ele>
        <time>2021-03-04T10:57:24.000Z</time>
      </trkpt>
      <trkpt lat="43.7405" lon="7.01338">
        <ele>745.40002441406</ele>
        <time>2021-03-04T10:57:26.000Z</time>
      </trkpt>
      <trkpt lat="43.74051" lon="7.01342">
        <ele>746.20001220703</ele>
        <time>2021-03-04T10:57:28.000Z</time>
      </trkpt>
      <trkpt lat="43.74052" lon="7.01344">
        <ele>746.40002441406</ele>
        <time>2021-03-04T10:57:29.000Z</time>
      </trkpt>
      <trkpt lat="43.74053" lon="7.01349">
        <ele>747.59997558594</ele>
        <time>2021-03-04T10:57:32.000Z</time>
      </trkpt>
      <trkpt lat="43.74054" lon="7.01352">
        <ele>747.79998779297</ele>
        <time>2021-03-04T10:57:33.000Z</time>
      </trkpt>
      <trkpt lat="43.74056" lon="7.01355">
        <ele>748.59997558594</ele>
        <time>2021-03-04T10:57:35.000Z</time>
      </trkpt>
      <trkpt lat="43.74058" lon="7.01362">
        <ele>749.59997558594</ele>
        <time>2021-03-04T10:57:38.000Z</time>
      </trkpt>
      <trkpt lat="43.74059" lon="7.01364">
        <ele>750.20001220703</ele>
        <time>2021-03-04T10:57:39.000Z</time>
      </trkpt>
      <trkpt lat="43.74061" lon="7.01368">
        <ele>751.20001220703</ele>
        <time>2021-03-04T10:57:41.000Z</time>
      </trkpt>
      <trkpt lat="43.74064" lon="7.01371">
        <ele>752.20001220703</ele>
        <time>2021-03-04T10:57:43.000Z</time>
      </trkpt>
      <trkpt lat="43.74065" lon="7.01373">
        <ele>752.59997558594</ele>
        <time>2021-03-04T10:57:44.000Z</time>
      </trkpt>
      <trkpt lat="43.74068" lon="7.01383">
        <ele>753.40002441406</ele>
        <time>2021-03-04T10:57:49.000Z</time>
      </trkpt>
      <trkpt lat="43.74069" lon="7.01385">
        <ele>753.59997558594</ele>
        <time>2021-03-04T10:57:50.000Z</time>
      </trkpt>
      <trkpt lat="43.74074" lon="7.01397">
        <ele>754.79998779297</ele>
        <time>2021-03-04T10:57:55.000Z</time>
      </trkpt>
      <trkpt lat="43.74082" lon="7.01409">
        <ele>756.20001220703</ele>
        <time>2021-03-04T10:57:59.000Z</time>
      </trkpt>
      <trkpt lat="43.74083" lon="7.0141">
        <ele>756.59997558594</ele>
        <time>2021-03-04T10:58:00.000Z</time>
      </trkpt>
      <trkpt lat="43.74087" lon="7.01415">
        <ele>757.79998779297</ele>
        <time>2021-03-04T10:58:02.000Z</time>
      </trkpt>
      <trkpt lat="43.7409" lon="7.01418">
        <ele>758.20001220703</ele>
        <time>2021-03-04T10:58:03.000Z</time>
      </trkpt>
      <trkpt lat="43.74093" lon="7.01423">
        <ele>759.20001220703</ele>
        <time>2021-03-04T10:58:05.000Z</time>
      </trkpt>
      <trkpt lat="43.74096" lon="7.01424">
        <ele>759.59997558594</ele>
        <time>2021-03-04T10:58:06.000Z</time>
      </trkpt>
      <trkpt lat="43.74097" lon="7.01425">
        <ele>760</ele>
        <time>2021-03-04T10:58:07.000Z</time>
      </trkpt>
      <trkpt lat="43.741" lon="7.01427">
        <ele>760.59997558594</ele>
        <time>2021-03-04T10:58:08.000Z</time>
      </trkpt>
      <trkpt lat="43.74109" lon="7.01434">
        <ele>761.40002441406</ele>
        <time>2021-03-04T10:58:12.000Z</time>
      </trkpt>
      <trkpt lat="43.74111" lon="7.01436">
        <ele>761.59997558594</ele>
        <time>2021-03-04T10:58:13.000Z</time>
      </trkpt>
      <trkpt lat="43.74114" lon="7.01438">
        <ele>762.79998779297</ele>
        <time>2021-03-04T10:58:15.000Z</time>
      </trkpt>
      <trkpt lat="43.74116" lon="7.01439">
        <ele>763.40002441406</ele>
        <time>2021-03-04T10:58:16.000Z</time>
      </trkpt>
      <trkpt lat="43.74118" lon="7.0144">
        <ele>764</ele>
        <time>2021-03-04T10:58:17.000Z</time>
      </trkpt>
      <trkpt lat="43.74121" lon="7.01442">
        <ele>765</ele>
        <time>2021-03-04T10:58:19.000Z</time>
      </trkpt>
      <trkpt lat="43.74128" lon="7.01445">
        <ele>766</ele>
        <time>2021-03-04T10:58:23.000Z</time>
      </trkpt>
      <trkpt lat="43.74129" lon="7.01447">
        <ele>766</ele>
        <time>2021-03-04T10:58:24.000Z</time>
      </trkpt>
      <trkpt lat="43.74134" lon="7.01449">
        <ele>766.40002441406</ele>
        <time>2021-03-04T10:58:28.000Z</time>
      </trkpt>
      <trkpt lat="43.74145" lon="7.01451">
        <ele>767.20001220703</ele>
        <time>2021-03-04T10:58:34.000Z</time>
      </trkpt>
      <trkpt lat="43.74147" lon="7.01452">
        <ele>767.59997558594</ele>
        <time>2021-03-04T10:58:35.000Z</time>
      </trkpt>
      <trkpt lat="43.7415" lon="7.01452">
        <ele>768.20001220703</ele>
        <time>2021-03-04T10:58:37.000Z</time>
      </trkpt>
      <trkpt lat="43.74157" lon="7.01453">
        <ele>769.40002441406</ele>
        <time>2021-03-04T10:58:41.000Z</time>
      </trkpt>
      <trkpt lat="43.74162" lon="7.01454">
        <ele>770.40002441406</ele>
        <time>2021-03-04T10:58:44.000Z</time>
      </trkpt>
      <trkpt lat="43.74168" lon="7.01455">
        <ele>771.59997558594</ele>
        <time>2021-03-04T10:58:47.000Z</time>
      </trkpt>
      <trkpt lat="43.7417" lon="7.01456">
        <ele>771.79998779297</ele>
        <time>2021-03-04T10:58:48.000Z</time>
      </trkpt>
      <trkpt lat="43.74173" lon="7.01457">
        <ele>772.59997558594</ele>
        <time>2021-03-04T10:58:50.000Z</time>
      </trkpt>
      <trkpt lat="43.74178" lon="7.01458">
        <ele>774</ele>
        <time>2021-03-04T10:58:53.000Z</time>
      </trkpt>
      <trkpt lat="43.74183" lon="7.01458">
        <ele>775</ele>
        <time>2021-03-04T10:58:57.000Z</time>
      </trkpt>
      <trkpt lat="43.74188" lon="7.01459">
        <ele>775.59997558594</ele>
        <time>2021-03-04T10:58:59.000Z</time>
      </trkpt>
      <trkpt lat="43.74196" lon="7.0146">
        <ele>776.20001220703</ele>
        <time>2021-03-04T10:59:02.000Z</time>
      </trkpt>
      <trkpt lat="43.74201" lon="7.01461">
        <ele>776.59997558594</ele>
        <time>2021-03-04T10:59:04.000Z</time>
      </trkpt>
      <trkpt lat="43.74216" lon="7.01468">
        <ele>777</ele>
        <time>2021-03-04T10:59:09.000Z</time>
      </trkpt>
      <trkpt lat="43.74221" lon="7.01473">
        <ele>777.59997558594</ele>
        <time>2021-03-04T10:59:11.000Z</time>
      </trkpt>
      <trkpt lat="43.7423" lon="7.01481">
        <ele>778.59997558594</ele>
        <time>2021-03-04T10:59:14.000Z</time>
      </trkpt>
      <trkpt lat="43.74234" lon="7.01482">
        <ele>778.79998779297</ele>
        <time>2021-03-04T10:59:15.000Z</time>
      </trkpt>
      <trkpt lat="43.74243" lon="7.01481">
        <ele>779</ele>
        <time>2021-03-04T10:59:17.000Z</time>
      </trkpt>
      <trkpt lat="43.74251" lon="7.0148">
        <ele>779.79998779297</ele>
        <time>2021-03-04T10:59:19.000Z</time>
      </trkpt>
      <trkpt lat="43.74259" lon="7.01481">
        <ele>781</ele>
        <time>2021-03-04T10:59:21.000Z</time>
      </trkpt>
      <trkpt lat="43.74268" lon="7.01482">
        <ele>781.79998779297</ele>
        <time>2021-03-04T10:59:23.000Z</time>
      </trkpt>
      <trkpt lat="43.74272" lon="7.01482">
        <ele>782.20001220703</ele>
        <time>2021-03-04T10:59:24.000Z</time>
      </trkpt>
      <trkpt lat="43.74287" lon="7.01484">
        <ele>783.59997558594</ele>
        <time>2021-03-04T10:59:28.000Z</time>
      </trkpt>
      <trkpt lat="43.74295" lon="7.01483">
        <ele>784</ele>
        <time>2021-03-04T10:59:30.000Z</time>
      </trkpt>
      <trkpt lat="43.7431" lon="7.01482">
        <ele>784.79998779297</ele>
        <time>2021-03-04T10:59:34.000Z</time>
      </trkpt>
      <trkpt lat="43.74318" lon="7.01485">
        <ele>785.59997558594</ele>
        <time>2021-03-04T10:59:36.000Z</time>
      </trkpt>
      <trkpt lat="43.74321" lon="7.01486">
        <ele>786.20001220703</ele>
        <time>2021-03-04T10:59:37.000Z</time>
      </trkpt>
      <trkpt lat="43.74326" lon="7.01491">
        <ele>787.59997558594</ele>
        <time>2021-03-04T10:59:39.000Z</time>
      </trkpt>
      <trkpt lat="43.7433" lon="7.01495">
        <ele>789</ele>
        <time>2021-03-04T10:59:41.000Z</time>
      </trkpt>
      <trkpt lat="43.74339" lon="7.0149">
        <ele>789.79998779297</ele>
        <time>2021-03-04T10:59:45.000Z</time>
      </trkpt>
      <trkpt lat="43.74346" lon="7.01489">
        <ele>790.40002441406</ele>
        <time>2021-03-04T10:59:48.000Z</time>
      </trkpt>
      <trkpt lat="43.74347" lon="7.0149">
        <ele>790.79998779297</ele>
        <time>2021-03-04T10:59:49.000Z</time>
      </trkpt>
      <trkpt lat="43.74348" lon="7.01494">
        <ele>791.59997558594</ele>
        <time>2021-03-04T10:59:51.000Z</time>
      </trkpt>
      <trkpt lat="43.74348" lon="7.01496">
        <ele>792</ele>
        <time>2021-03-04T10:59:52.000Z</time>
      </trkpt>
      <trkpt lat="43.74347" lon="7.01499">
        <ele>792.40002441406</ele>
        <time>2021-03-04T10:59:53.000Z</time>
      </trkpt>
      <trkpt lat="43.74346" lon="7.01501">
        <ele>792.79998779297</ele>
        <time>2021-03-04T10:59:54.000Z</time>
      </trkpt>
      <trkpt lat="43.74344" lon="7.01505">
        <ele>793.79998779297</ele>
        <time>2021-03-04T10:59:56.000Z</time>
      </trkpt>
      <trkpt lat="43.74343" lon="7.01507">
        <ele>794</ele>
        <time>2021-03-04T10:59:57.000Z</time>
      </trkpt>
      <trkpt lat="43.7434" lon="7.01514">
        <ele>795.20001220703</ele>
        <time>2021-03-04T11:00:00.000Z</time>
      </trkpt>
      <trkpt lat="43.74342" lon="7.01516">
        <ele>796.20001220703</ele>
        <time>2021-03-04T11:00:02.000Z</time>
      </trkpt>
      <trkpt lat="43.74343" lon="7.01515">
        <ele>796.40002441406</ele>
        <time>2021-03-04T11:00:03.000Z</time>
      </trkpt>
      <trkpt lat="43.74345" lon="7.01515">
        <ele>796.59997558594</ele>
        <time>2021-03-04T11:00:04.000Z</time>
      </trkpt>
      <trkpt lat="43.74352" lon="7.01513">
        <ele>797.59997558594</ele>
        <time>2021-03-04T11:00:07.000Z</time>
      </trkpt>
      <trkpt lat="43.74358" lon="7.0151">
        <ele>798.79998779297</ele>
        <time>2021-03-04T11:00:10.000Z</time>
      </trkpt>
      <trkpt lat="43.74365" lon="7.01512">
        <ele>799.40002441406</ele>
        <time>2021-03-04T11:00:13.000Z</time>
      </trkpt>
      <trkpt lat="43.74366" lon="7.01512">
        <ele>800</ele>
        <time>2021-03-04T11:00:14.000Z</time>
      </trkpt>
      <trkpt lat="43.74372" lon="7.01513">
        <ele>801.20001220703</ele>
        <time>2021-03-04T11:00:17.000Z</time>
      </trkpt>
      <trkpt lat="43.74373" lon="7.01515">
        <ele>801.59997558594</ele>
        <time>2021-03-04T11:00:18.000Z</time>
      </trkpt>
      <trkpt lat="43.74372" lon="7.01517">
        <ele>802</ele>
        <time>2021-03-04T11:00:19.000Z</time>
      </trkpt>
      <trkpt lat="43.74371" lon="7.01518">
        <ele>802.40002441406</ele>
        <time>2021-03-04T11:00:20.000Z</time>
      </trkpt>
      <trkpt lat="43.74365" lon="7.01522">
        <ele>803.59997558594</ele>
        <time>2021-03-04T11:00:23.000Z</time>
      </trkpt>
      <trkpt lat="43.74363" lon="7.01524">
        <ele>803.79998779297</ele>
        <time>2021-03-04T11:00:24.000Z</time>
      </trkpt>
      <trkpt lat="43.74357" lon="7.01537">
        <ele>804.40002441406</ele>
        <time>2021-03-04T11:00:29.000Z</time>
      </trkpt>
      <trkpt lat="43.74356" lon="7.0154">
        <ele>804.59997558594</ele>
        <time>2021-03-04T11:00:30.000Z</time>
      </trkpt>
      <trkpt lat="43.74351" lon="7.01546">
        <ele>805.59997558594</ele>
        <time>2021-03-04T11:00:33.000Z</time>
      </trkpt>
      <trkpt lat="43.74348" lon="7.01548">
        <ele>805.79998779297</ele>
        <time>2021-03-04T11:00:34.000Z</time>
      </trkpt>
      <trkpt lat="43.74346" lon="7.0155">
        <ele>806</ele>
        <time>2021-03-04T11:00:35.000Z</time>
      </trkpt>
      <trkpt lat="43.74342" lon="7.01556">
        <ele>806.59997558594</ele>
        <time>2021-03-04T11:00:38.000Z</time>
      </trkpt>
      <trkpt lat="43.74341" lon="7.01558">
        <ele>806.79998779297</ele>
        <time>2021-03-04T11:00:39.000Z</time>
      </trkpt>
      <trkpt lat="43.74342" lon="7.01559">
        <ele>807.20001220703</ele>
        <time>2021-03-04T11:00:40.000Z</time>
      </trkpt>
      <trkpt lat="43.74342" lon="7.01559">
        <ele>807.79998779297</ele>
        <time>2021-03-04T11:00:42.000Z</time>
      </trkpt>
      <trkpt lat="43.74343" lon="7.01559">
        <ele>808.59997558594</ele>
        <time>2021-03-04T11:00:44.000Z</time>
      </trkpt>
      <trkpt lat="43.74343" lon="7.01559">
        <ele>809</ele>
        <time>2021-03-04T11:00:46.000Z</time>
      </trkpt>
      <trkpt lat="43.74345" lon="7.01559">
        <ele>809.20001220703</ele>
        <time>2021-03-04T11:00:50.000Z</time>
      </trkpt>
      <trkpt lat="43.74351" lon="7.01558">
        <ele>809.59997558594</ele>
        <time>2021-03-04T11:00:56.000Z</time>
      </trkpt>
      <trkpt lat="43.74359" lon="7.01556">
        <ele>810</ele>
        <time>2021-03-04T11:01:00.000Z</time>
      </trkpt>
      <trkpt lat="43.74363" lon="7.01553">
        <ele>810.20001220703</ele>
        <time>2021-03-04T11:01:02.000Z</time>
      </trkpt>
      <trkpt lat="43.7437" lon="7.0155">
        <ele>811.20001220703</ele>
        <time>2021-03-04T11:01:05.000Z</time>
      </trkpt>
      <trkpt lat="43.74371" lon="7.01548">
        <ele>811.79998779297</ele>
        <time>2021-03-04T11:01:06.000Z</time>
      </trkpt>
      <trkpt lat="43.74374" lon="7.01545">
        <ele>812.59997558594</ele>
        <time>2021-03-04T11:01:08.000Z</time>
      </trkpt>
      <trkpt lat="43.74378" lon="7.01543">
        <ele>813.20001220703</ele>
        <time>2021-03-04T11:01:10.000Z</time>
      </trkpt>
      <trkpt lat="43.74384" lon="7.01543">
        <ele>813.79998779297</ele>
        <time>2021-03-04T11:01:13.000Z</time>
      </trkpt>
      <trkpt lat="43.74388" lon="7.01541">
        <ele>814.79998779297</ele>
        <time>2021-03-04T11:01:16.000Z</time>
      </trkpt>
      <trkpt lat="43.74397" lon="7.01537">
        <ele>816.20001220703</ele>
        <time>2021-03-04T11:01:21.000Z</time>
      </trkpt>
      <trkpt lat="43.74402" lon="7.01533">
        <ele>817.40002441406</ele>
        <time>2021-03-04T11:01:24.000Z</time>
      </trkpt>
      <trkpt lat="43.74407" lon="7.0153">
        <ele>818</ele>
        <time>2021-03-04T11:01:26.000Z</time>
      </trkpt>
      <trkpt lat="43.74408" lon="7.01528">
        <ele>818.59997558594</ele>
        <time>2021-03-04T11:01:27.000Z</time>
      </trkpt>
      <trkpt lat="43.74414" lon="7.01524">
        <ele>820</ele>
        <time>2021-03-04T11:01:30.000Z</time>
      </trkpt>
      <trkpt lat="43.74417" lon="7.0152">
        <ele>820.79998779297</ele>
        <time>2021-03-04T11:01:32.000Z</time>
      </trkpt>
      <trkpt lat="43.7442" lon="7.01517">
        <ele>821.20001220703</ele>
        <time>2021-03-04T11:01:34.000Z</time>
      </trkpt>
      <trkpt lat="43.74427" lon="7.01512">
        <ele>822.40002441406</ele>
        <time>2021-03-04T11:01:38.000Z</time>
      </trkpt>
      <trkpt lat="43.74429" lon="7.0151">
        <ele>822.79998779297</ele>
        <time>2021-03-04T11:01:39.000Z</time>
      </trkpt>
      <trkpt lat="43.74433" lon="7.01508">
        <ele>823.40002441406</ele>
        <time>2021-03-04T11:01:41.000Z</time>
      </trkpt>
      <trkpt lat="43.74435" lon="7.01508">
        <ele>823.59997558594</ele>
        <time>2021-03-04T11:01:42.000Z</time>
      </trkpt>
      <trkpt lat="43.74439" lon="7.01506">
        <ele>824.59997558594</ele>
        <time>2021-03-04T11:01:44.000Z</time>
      </trkpt>
      <trkpt lat="43.74441" lon="7.01505">
        <ele>825</ele>
        <time>2021-03-04T11:01:45.000Z</time>
      </trkpt>
      <trkpt lat="43.74446" lon="7.01501">
        <ele>826</ele>
        <time>2021-03-04T11:01:48.000Z</time>
      </trkpt>
      <trkpt lat="43.74451" lon="7.01497">
        <ele>827</ele>
        <time>2021-03-04T11:01:51.000Z</time>
      </trkpt>
      <trkpt lat="43.74454" lon="7.01496">
        <ele>827.20001220703</ele>
        <time>2021-03-04T11:01:52.000Z</time>
      </trkpt>
      <trkpt lat="43.74462" lon="7.01491">
        <ele>828.40002441406</ele>
        <time>2021-03-04T11:01:56.000Z</time>
      </trkpt>
      <trkpt lat="43.7447" lon="7.01488">
        <ele>829.40002441406</ele>
        <time>2021-03-04T11:02:00.000Z</time>
      </trkpt>
      <trkpt lat="43.74474" lon="7.01486">
        <ele>830</ele>
        <time>2021-03-04T11:02:02.000Z</time>
      </trkpt>
      <trkpt lat="43.74476" lon="7.01485">
        <ele>830.40002441406</ele>
        <time>2021-03-04T11:02:03.000Z</time>
      </trkpt>
      <trkpt lat="43.74485" lon="7.0148">
        <ele>831.59997558594</ele>
        <time>2021-03-04T11:02:08.000Z</time>
      </trkpt>
      <trkpt lat="43.74489" lon="7.01478">
        <ele>832</ele>
        <time>2021-03-04T11:02:10.000Z</time>
      </trkpt>
      <trkpt lat="43.74494" lon="7.01474">
        <ele>832.59997558594</ele>
        <time>2021-03-04T11:02:13.000Z</time>
      </trkpt>
      <trkpt lat="43.74503" lon="7.01468">
        <ele>833.59997558594</ele>
        <time>2021-03-04T11:02:18.000Z</time>
      </trkpt>
      <trkpt lat="43.74505" lon="7.01466">
        <ele>833.79998779297</ele>
        <time>2021-03-04T11:02:19.000Z</time>
      </trkpt>
      <trkpt lat="43.74512" lon="7.01461">
        <ele>834.79998779297</ele>
        <time>2021-03-04T11:02:23.000Z</time>
      </trkpt>
      <trkpt lat="43.74514" lon="7.01461">
        <ele>835.20001220703</ele>
        <time>2021-03-04T11:02:24.000Z</time>
      </trkpt>
      <trkpt lat="43.74521" lon="7.01456">
        <ele>836.20001220703</ele>
        <time>2021-03-04T11:02:28.000Z</time>
      </trkpt>
      <trkpt lat="43.74527" lon="7.01452">
        <ele>837.20001220703</ele>
        <time>2021-03-04T11:02:31.000Z</time>
      </trkpt>
      <trkpt lat="43.74529" lon="7.01451">
        <ele>837.40002441406</ele>
        <time>2021-03-04T11:02:32.000Z</time>
      </trkpt>
      <trkpt lat="43.74539" lon="7.01445">
        <ele>837.79998779297</ele>
        <time>2021-03-04T11:02:37.000Z</time>
      </trkpt>
      <trkpt lat="43.74548" lon="7.0144">
        <ele>838.40002441406</ele>
        <time>2021-03-04T11:02:41.000Z</time>
      </trkpt>
      <trkpt lat="43.74556" lon="7.01436">
        <ele>839.40002441406</ele>
        <time>2021-03-04T11:02:45.000Z</time>
      </trkpt>
      <trkpt lat="43.74558" lon="7.01435">
        <ele>839.59997558594</ele>
        <time>2021-03-04T11:02:46.000Z</time>
      </trkpt>
      <trkpt lat="43.74567" lon="7.01435">
        <ele>840.79998779297</ele>
        <time>2021-03-04T11:02:50.000Z</time>
      </trkpt>
      <trkpt lat="43.74569" lon="7.01435">
        <ele>841.20001220703</ele>
        <time>2021-03-04T11:02:51.000Z</time>
      </trkpt>
      <trkpt lat="43.74574" lon="7.01435">
        <ele>842</ele>
        <time>2021-03-04T11:02:53.000Z</time>
      </trkpt>
      <trkpt lat="43.74582" lon="7.01434">
        <ele>843.20001220703</ele>
        <time>2021-03-04T11:02:57.000Z</time>
      </trkpt>
      <trkpt lat="43.74587" lon="7.01434">
        <ele>844.40002441406</ele>
        <time>2021-03-04T11:02:59.000Z</time>
      </trkpt>
      <trkpt lat="43.74594" lon="7.01433">
        <ele>845.59997558594</ele>
        <time>2021-03-04T11:03:02.000Z</time>
      </trkpt>
      <trkpt lat="43.74597" lon="7.01432">
        <ele>846.40002441406</ele>
        <time>2021-03-04T11:03:04.000Z</time>
      </trkpt>
      <trkpt lat="43.74599" lon="7.01431">
        <ele>847</ele>
        <time>2021-03-04T11:03:05.000Z</time>
      </trkpt>
      <trkpt lat="43.74605" lon="7.0143">
        <ele>848.40002441406</ele>
        <time>2021-03-04T11:03:08.000Z</time>
      </trkpt>
      <trkpt lat="43.74606" lon="7.01429">
        <ele>848.59997558594</ele>
        <time>2021-03-04T11:03:09.000Z</time>
      </trkpt>
      <trkpt lat="43.74611" lon="7.01423">
        <ele>849.59997558594</ele>
        <time>2021-03-04T11:03:12.000Z</time>
      </trkpt>
      <trkpt lat="43.74616" lon="7.01418">
        <ele>850.20001220703</ele>
        <time>2021-03-04T11:03:15.000Z</time>
      </trkpt>
      <trkpt lat="43.74619" lon="7.01415">
        <ele>850.79998779297</ele>
        <time>2021-03-04T11:03:17.000Z</time>
      </trkpt>
      <trkpt lat="43.74623" lon="7.01411">
        <ele>851.59997558594</ele>
        <time>2021-03-04T11:03:20.000Z</time>
      </trkpt>
      <trkpt lat="43.74625" lon="7.01409">
        <ele>852</ele>
        <time>2021-03-04T11:03:21.000Z</time>
      </trkpt>
      <trkpt lat="43.74628" lon="7.01403">
        <ele>853.40002441406</ele>
        <time>2021-03-04T11:03:24.000Z</time>
      </trkpt>
      <trkpt lat="43.74631" lon="7.01399">
        <ele>854.40002441406</ele>
        <time>2021-03-04T11:03:26.000Z</time>
      </trkpt>
      <trkpt lat="43.74632" lon="7.01398">
        <ele>854.59997558594</ele>
        <time>2021-03-04T11:03:27.000Z</time>
      </trkpt>
      <trkpt lat="43.74633" lon="7.01398">
        <ele>856</ele>
        <time>2021-03-04T11:03:30.000Z</time>
      </trkpt>
      <trkpt lat="43.74635" lon="7.01404">
        <ele>857</ele>
        <time>2021-03-04T11:03:37.000Z</time>
      </trkpt>
      <trkpt lat="43.74635" lon="7.01406">
        <ele>857</ele>
        <time>2021-03-04T11:03:38.000Z</time>
      </trkpt>
      <trkpt lat="43.74633" lon="7.01416">
        <ele>857.79998779297</ele>
        <time>2021-03-04T11:03:43.000Z</time>
      </trkpt>
      <trkpt lat="43.74633" lon="7.01419">
        <ele>858</ele>
        <time>2021-03-04T11:03:44.000Z</time>
      </trkpt>
      <trkpt lat="43.74632" lon="7.01428">
        <ele>859.20001220703</ele>
        <time>2021-03-04T11:03:48.000Z</time>
      </trkpt>
      <trkpt lat="43.74632" lon="7.0143">
        <ele>859.40002441406</ele>
        <time>2021-03-04T11:03:49.000Z</time>
      </trkpt>
      <trkpt lat="43.74631" lon="7.01436">
        <ele>860.40002441406</ele>
        <time>2021-03-04T11:03:52.000Z</time>
      </trkpt>
      <trkpt lat="43.74629" lon="7.01443">
        <ele>861.59997558594</ele>
        <time>2021-03-04T11:03:55.000Z</time>
      </trkpt>
      <trkpt lat="43.74629" lon="7.01444">
        <ele>862</ele>
        <time>2021-03-04T11:03:56.000Z</time>
      </trkpt>
      <trkpt lat="43.74629" lon="7.01446">
        <ele>862.40002441406</ele>
        <time>2021-03-04T11:03:57.000Z</time>
      </trkpt>
      <trkpt lat="43.74629" lon="7.01447">
        <ele>862.59997558594</ele>
        <time>2021-03-04T11:03:58.000Z</time>
      </trkpt>
      <trkpt lat="43.74631" lon="7.01445">
        <ele>863.20001220703</ele>
        <time>2021-03-04T11:04:00.000Z</time>
      </trkpt>
      <trkpt lat="43.74634" lon="7.01441">
        <ele>863.79998779297</ele>
        <time>2021-03-04T11:04:02.000Z</time>
      </trkpt>
      <trkpt lat="43.74639" lon="7.01437">
        <ele>864.79998779297</ele>
        <time>2021-03-04T11:04:05.000Z</time>
      </trkpt>
      <trkpt lat="43.7464" lon="7.01435">
        <ele>865.20001220703</ele>
        <time>2021-03-04T11:04:06.000Z</time>
      </trkpt>
      <trkpt lat="43.74645" lon="7.01431">
        <ele>866</ele>
        <time>2021-03-04T11:04:09.000Z</time>
      </trkpt>
      <trkpt lat="43.74648" lon="7.01426">
        <ele>866.79998779297</ele>
        <time>2021-03-04T11:04:11.000Z</time>
      </trkpt>
      <trkpt lat="43.7465" lon="7.01421">
        <ele>867.20001220703</ele>
        <time>2021-03-04T11:04:13.000Z</time>
      </trkpt>
      <trkpt lat="43.74656" lon="7.01413">
        <ele>868.20001220703</ele>
        <time>2021-03-04T11:04:17.000Z</time>
      </trkpt>
      <trkpt lat="43.74657" lon="7.01411">
        <ele>868.40002441406</ele>
        <time>2021-03-04T11:04:18.000Z</time>
      </trkpt>
      <trkpt lat="43.7466" lon="7.01405">
        <ele>869.59997558594</ele>
        <time>2021-03-04T11:04:21.000Z</time>
      </trkpt>
      <trkpt lat="43.74661" lon="7.01402">
        <ele>870.20001220703</ele>
        <time>2021-03-04T11:04:22.000Z</time>
      </trkpt>
      <trkpt lat="43.74663" lon="7.01398">
        <ele>870.79998779297</ele>
        <time>2021-03-04T11:04:24.000Z</time>
      </trkpt>
      <trkpt lat="43.74664" lon="7.01398">
        <ele>871.40002441406</ele>
        <time>2021-03-04T11:04:26.000Z</time>
      </trkpt>
      <trkpt lat="43.74664" lon="7.01397">
        <ele>871.59997558594</ele>
        <time>2021-03-04T11:04:27.000Z</time>
      </trkpt>
      <trkpt lat="43.74664" lon="7.01397">
        <ele>871.79998779297</ele>
        <time>2021-03-04T11:04:29.000Z</time>
      </trkpt>
      <trkpt lat="43.74665" lon="7.01396">
        <ele>872.20001220703</ele>
        <time>2021-03-04T11:04:39.000Z</time>
      </trkpt>
      <trkpt lat="43.74665" lon="7.01396">
        <ele>871.59997558594</ele>
        <time>2021-03-04T11:04:51.000Z</time>
      </trkpt>
      <trkpt lat="43.74664" lon="7.01395">
        <ele>871.59997558594</ele>
        <time>2021-03-04T11:05:02.000Z</time>
      </trkpt>
      <trkpt lat="43.74667" lon="7.01394">
        <ele>871.59997558594</ele>
        <time>2021-03-04T11:05:08.000Z</time>
      </trkpt>
      <trkpt lat="43.74669" lon="7.01392">
        <ele>872</ele>
        <time>2021-03-04T11:05:13.000Z</time>
      </trkpt>
      <trkpt lat="43.74677" lon="7.01391">
        <ele>872.79998779297</ele>
        <time>2021-03-04T11:05:19.000Z</time>
      </trkpt>
      <trkpt lat="43.74677" lon="7.01392">
        <ele>873</ele>
        <time>2021-03-04T11:05:20.000Z</time>
      </trkpt>
      <trkpt lat="43.74676" lon="7.01394">
        <ele>873.40002441406</ele>
        <time>2021-03-04T11:05:22.000Z</time>
      </trkpt>
      <trkpt lat="43.74673" lon="7.01398">
        <ele>874</ele>
        <time>2021-03-04T11:05:26.000Z</time>
      </trkpt>
      <trkpt lat="43.74672" lon="7.01399">
        <ele>874.20001220703</ele>
        <time>2021-03-04T11:05:27.000Z</time>
      </trkpt>
      <trkpt lat="43.74672" lon="7.01401">
        <ele>874.40002441406</ele>
        <time>2021-03-04T11:05:28.000Z</time>
      </trkpt>
      <trkpt lat="43.74671" lon="7.01409">
        <ele>875.20001220703</ele>
        <time>2021-03-04T11:05:31.000Z</time>
      </trkpt>
      <trkpt lat="43.74671" lon="7.01412">
        <ele>875.40002441406</ele>
        <time>2021-03-04T11:05:32.000Z</time>
      </trkpt>
      <trkpt lat="43.7467" lon="7.01419">
        <ele>876.40002441406</ele>
        <time>2021-03-04T11:05:35.000Z</time>
      </trkpt>
      <trkpt lat="43.74669" lon="7.01426">
        <ele>877.40002441406</ele>
        <time>2021-03-04T11:05:38.000Z</time>
      </trkpt>
      <trkpt lat="43.74669" lon="7.01434">
        <ele>878.79998779297</ele>
        <time>2021-03-04T11:05:41.000Z</time>
      </trkpt>
      <trkpt lat="43.74668" lon="7.01442">
        <ele>880.20001220703</ele>
        <time>2021-03-04T11:05:44.000Z</time>
      </trkpt>
      <trkpt lat="43.74666" lon="7.0145">
        <ele>881.20001220703</ele>
        <time>2021-03-04T11:05:47.000Z</time>
      </trkpt>
      <trkpt lat="43.74664" lon="7.01459">
        <ele>882.40002441406</ele>
        <time>2021-03-04T11:05:50.000Z</time>
      </trkpt>
      <trkpt lat="43.74663" lon="7.01464">
        <ele>883.40002441406</ele>
        <time>2021-03-04T11:05:52.000Z</time>
      </trkpt>
      <trkpt lat="43.74662" lon="7.01469">
        <ele>884.40002441406</ele>
        <time>2021-03-04T11:05:54.000Z</time>
      </trkpt>
      <trkpt lat="43.7466" lon="7.01474">
        <ele>885.40002441406</ele>
        <time>2021-03-04T11:05:56.000Z</time>
      </trkpt>
      <trkpt lat="43.74659" lon="7.01477">
        <ele>885.79998779297</ele>
        <time>2021-03-04T11:05:57.000Z</time>
      </trkpt>
      <trkpt lat="43.74657" lon="7.01482">
        <ele>887</ele>
        <time>2021-03-04T11:05:59.000Z</time>
      </trkpt>
      <trkpt lat="43.74654" lon="7.01489">
        <ele>888</ele>
        <time>2021-03-04T11:06:02.000Z</time>
      </trkpt>
      <trkpt lat="43.74653" lon="7.01491">
        <ele>888.40002441406</ele>
        <time>2021-03-04T11:06:03.000Z</time>
      </trkpt>
      <trkpt lat="43.74649" lon="7.01496">
        <ele>889.20001220703</ele>
        <time>2021-03-04T11:06:06.000Z</time>
      </trkpt>
      <trkpt lat="43.74647" lon="7.01501">
        <ele>889.59997558594</ele>
        <time>2021-03-04T11:06:08.000Z</time>
      </trkpt>
      <trkpt lat="43.74644" lon="7.01505">
        <ele>890.40002441406</ele>
        <time>2021-03-04T11:06:10.000Z</time>
      </trkpt>
      <trkpt lat="43.7464" lon="7.01511">
        <ele>891.40002441406</ele>
        <time>2021-03-04T11:06:13.000Z</time>
      </trkpt>
      <trkpt lat="43.74634" lon="7.01518">
        <ele>892.40002441406</ele>
        <time>2021-03-04T11:06:17.000Z</time>
      </trkpt>
      <trkpt lat="43.7463" lon="7.01521">
        <ele>893.20001220703</ele>
        <time>2021-03-04T11:06:20.000Z</time>
      </trkpt>
      <trkpt lat="43.74629" lon="7.01522">
        <ele>893.59997558594</ele>
        <time>2021-03-04T11:06:21.000Z</time>
      </trkpt>
      <trkpt lat="43.74629" lon="7.01523">
        <ele>893.79998779297</ele>
        <time>2021-03-04T11:06:22.000Z</time>
      </trkpt>
      <trkpt lat="43.74629" lon="7.01524">
        <ele>894.40002441406</ele>
        <time>2021-03-04T11:06:24.000Z</time>
      </trkpt>
      <trkpt lat="43.74629" lon="7.01524">
        <ele>894.59997558594</ele>
        <time>2021-03-04T11:06:25.000Z</time>
      </trkpt>
      <trkpt lat="43.74632" lon="7.01524">
        <ele>895.40002441406</ele>
        <time>2021-03-04T11:06:31.000Z</time>
      </trkpt>
      <trkpt lat="43.74632" lon="7.01524">
        <ele>895.59997558594</ele>
        <time>2021-03-04T11:06:35.000Z</time>
      </trkpt>
      <trkpt lat="43.74632" lon="7.01524">
        <ele>896</ele>
        <time>2021-03-04T11:06:39.000Z</time>
      </trkpt>
      <trkpt lat="43.74632" lon="7.01525">
        <ele>895.59997558594</ele>
        <time>2021-03-04T11:06:48.000Z</time>
      </trkpt>
      <trkpt lat="43.74632" lon="7.01525">
        <ele>895.40002441406</ele>
        <time>2021-03-04T11:06:58.000Z</time>
      </trkpt>
      <trkpt lat="43.74634" lon="7.01524">
        <ele>895.20001220703</ele>
        <time>2021-03-04T11:07:04.000Z</time>
      </trkpt>
      <trkpt lat="43.74634" lon="7.01525">
        <ele>895.40002441406</ele>
        <time>2021-03-04T11:07:10.000Z</time>
      </trkpt>
      <trkpt lat="43.74635" lon="7.01525">
        <ele>895.59997558594</ele>
        <time>2021-03-04T11:07:15.000Z</time>
      </trkpt>
      <trkpt lat="43.74639" lon="7.01523">
        <ele>895.59997558594</ele>
        <time>2021-03-04T11:07:19.000Z</time>
      </trkpt>
      <trkpt lat="43.74654" lon="7.01514">
        <ele>896.20001220703</ele>
        <time>2021-03-04T11:07:27.000Z</time>
      </trkpt>
      <trkpt lat="43.74659" lon="7.0151">
        <ele>897</ele>
        <time>2021-03-04T11:07:30.000Z</time>
      </trkpt>
      <trkpt lat="43.74664" lon="7.01506">
        <ele>897.59997558594</ele>
        <time>2021-03-04T11:07:33.000Z</time>
      </trkpt>
      <trkpt lat="43.74668" lon="7.01503">
        <ele>898</ele>
        <time>2021-03-04T11:07:35.000Z</time>
      </trkpt>
      <trkpt lat="43.74673" lon="7.01495">
        <ele>898.79998779297</ele>
        <time>2021-03-04T11:07:39.000Z</time>
      </trkpt>
      <trkpt lat="43.74676" lon="7.01491">
        <ele>899.20001220703</ele>
        <time>2021-03-04T11:07:41.000Z</time>
      </trkpt>
      <trkpt lat="43.74684" lon="7.01482">
        <ele>900.20001220703</ele>
        <time>2021-03-04T11:07:46.000Z</time>
      </trkpt>
      <trkpt lat="43.74685" lon="7.01481">
        <ele>900.40002441406</ele>
        <time>2021-03-04T11:07:47.000Z</time>
      </trkpt>
      <trkpt lat="43.74693" lon="7.01469">
        <ele>900.79998779297</ele>
        <time>2021-03-04T11:07:52.000Z</time>
      </trkpt>
      <trkpt lat="43.74698" lon="7.01462">
        <ele>901.40002441406</ele>
        <time>2021-03-04T11:07:55.000Z</time>
      </trkpt>
      <trkpt lat="43.74703" lon="7.01453">
        <ele>902.20001220703</ele>
        <time>2021-03-04T11:07:59.000Z</time>
      </trkpt>
      <trkpt lat="43.74704" lon="7.0145">
        <ele>902.59997558594</ele>
        <time>2021-03-04T11:08:00.000Z</time>
      </trkpt>
      <trkpt lat="43.74711" lon="7.01438">
        <ele>903.79998779297</ele>
        <time>2021-03-04T11:08:05.000Z</time>
      </trkpt>
      <trkpt lat="43.74719" lon="7.0142">
        <ele>904.79998779297</ele>
        <time>2021-03-04T11:08:13.000Z</time>
      </trkpt>
      <trkpt lat="43.74723" lon="7.01415">
        <ele>905.79998779297</ele>
        <time>2021-03-04T11:08:18.000Z</time>
      </trkpt>
      <trkpt lat="43.74723" lon="7.01415">
        <ele>905.79998779297</ele>
        <time>2021-03-04T11:08:19.000Z</time>
      </trkpt>
      <trkpt lat="43.74725" lon="7.0141">
        <ele>905.59997558594</ele>
        <time>2021-03-04T11:08:29.000Z</time>
      </trkpt>
      <trkpt lat="43.74732" lon="7.01405">
        <ele>905.40002441406</ele>
        <time>2021-03-04T11:08:37.000Z</time>
      </trkpt>
      <trkpt lat="43.74732" lon="7.01403">
        <ele>905.20001220703</ele>
        <time>2021-03-04T11:08:42.000Z</time>
      </trkpt>
      <trkpt lat="43.74732" lon="7.01402">
        <ele>904.79998779297</ele>
        <time>2021-03-04T11:08:48.000Z</time>
      </trkpt>
      <trkpt lat="43.74732" lon="7.01402">
        <ele>904.59997558594</ele>
        <time>2021-03-04T11:08:50.000Z</time>
      </trkpt>
      <trkpt lat="43.74732" lon="7.01402">
        <ele>904.79998779297</ele>
        <time>2021-03-04T11:08:56.000Z</time>
      </trkpt>
      <trkpt lat="43.74732" lon="7.01402">
        <ele>905.40002441406</ele>
        <time>2021-03-04T11:09:00.000Z</time>
      </trkpt>
      <trkpt lat="43.74733" lon="7.01401">
        <ele>905.79998779297</ele>
        <time>2021-03-04T11:09:07.000Z</time>
      </trkpt>
      <trkpt lat="43.74734" lon="7.01401">
        <ele>905.79998779297</ele>
        <time>2021-03-04T11:09:08.000Z</time>
      </trkpt>
      <trkpt lat="43.74732" lon="7.01403">
        <ele>905.59997558594</ele>
        <time>2021-03-04T11:09:10.000Z</time>
      </trkpt>
      <trkpt lat="43.74732" lon="7.01403">
        <ele>905.40002441406</ele>
        <time>2021-03-04T11:09:12.000Z</time>
      </trkpt>
      <trkpt lat="43.74733" lon="7.014">
        <ele>906</ele>
        <time>2021-03-04T11:09:18.000Z</time>
      </trkpt>
      <trkpt lat="43.74734" lon="7.01399">
        <ele>906</ele>
        <time>2021-03-04T11:09:27.000Z</time>
      </trkpt>
      <trkpt lat="43.74734" lon="7.01399">
        <ele>906</ele>
        <time>2021-03-04T11:09:38.000Z</time>
      </trkpt>
      <trkpt lat="43.74736" lon="7.01399">
        <ele>905.59997558594</ele>
        <time>2021-03-04T11:09:42.000Z</time>
      </trkpt>
      <trkpt lat="43.74738" lon="7.014">
        <ele>905.79998779297</ele>
        <time>2021-03-04T11:09:44.000Z</time>
      </trkpt>
      <trkpt lat="43.74747" lon="7.01403">
        <ele>905.40002441406</ele>
        <time>2021-03-04T11:09:49.000Z</time>
      </trkpt>
      <trkpt lat="43.74749" lon="7.01405">
        <ele>905.20001220703</ele>
        <time>2021-03-04T11:09:55.000Z</time>
      </trkpt>
      <trkpt lat="43.7475" lon="7.01407">
        <ele>905</ele>
        <time>2021-03-04T11:10:11.000Z</time>
      </trkpt>
      <trkpt lat="43.74758" lon="7.01415">
        <ele>905</ele>
        <time>2021-03-04T11:10:16.000Z</time>
      </trkpt>
      <trkpt lat="43.74763" lon="7.01422">
        <ele>904.79998779297</ele>
        <time>2021-03-04T11:10:19.000Z</time>
      </trkpt>
      <trkpt lat="43.74771" lon="7.01433">
        <ele>905</ele>
        <time>2021-03-04T11:10:24.000Z</time>
      </trkpt>
      <trkpt lat="43.74782" lon="7.01449">
        <ele>905.20001220703</ele>
        <time>2021-03-04T11:10:31.000Z</time>
      </trkpt>
      <trkpt lat="43.74789" lon="7.01456">
        <ele>906</ele>
        <time>2021-03-04T11:10:35.000Z</time>
      </trkpt>
      <trkpt lat="43.74794" lon="7.01461">
        <ele>906.59997558594</ele>
        <time>2021-03-04T11:10:39.000Z</time>
      </trkpt>
      <trkpt lat="43.74797" lon="7.01464">
        <ele>907.20001220703</ele>
        <time>2021-03-04T11:10:41.000Z</time>
      </trkpt>
      <trkpt lat="43.74803" lon="7.01468">
        <ele>907.59997558594</ele>
        <time>2021-03-04T11:10:45.000Z</time>
      </trkpt>
      <trkpt lat="43.74811" lon="7.01483">
        <ele>907.79998779297</ele>
        <time>2021-03-04T11:10:51.000Z</time>
      </trkpt>
      <trkpt lat="43.74827" lon="7.01506">
        <ele>907</ele>
        <time>2021-03-04T11:10:59.000Z</time>
      </trkpt>
      <trkpt lat="43.74843" lon="7.01534">
        <ele>907.40002441406</ele>
        <time>2021-03-04T11:11:06.000Z</time>
      </trkpt>
      <trkpt lat="43.74848" lon="7.01545">
        <ele>908.40002441406</ele>
        <time>2021-03-04T11:11:09.000Z</time>
      </trkpt>
      <trkpt lat="43.74853" lon="7.01551">
        <ele>909.40002441406</ele>
        <time>2021-03-04T11:11:11.000Z</time>
      </trkpt>
      <trkpt lat="43.74856" lon="7.01555">
        <ele>909.40002441406</ele>
        <time>2021-03-04T11:11:12.000Z</time>
      </trkpt>
      <trkpt lat="43.74865" lon="7.01562">
        <ele>910.59997558594</ele>
        <time>2021-03-04T11:11:15.000Z</time>
      </trkpt>
      <trkpt lat="43.74872" lon="7.01567">
        <ele>911.20001220703</ele>
        <time>2021-03-04T11:11:17.000Z</time>
      </trkpt>
      <trkpt lat="43.74878" lon="7.01571">
        <ele>912</ele>
        <time>2021-03-04T11:11:19.000Z</time>
      </trkpt>
      <trkpt lat="43.74883" lon="7.01575">
        <ele>913</ele>
        <time>2021-03-04T11:11:21.000Z</time>
      </trkpt>
      <trkpt lat="43.74891" lon="7.01578">
        <ele>913.79998779297</ele>
        <time>2021-03-04T11:11:23.000Z</time>
      </trkpt>
      <trkpt lat="43.74898" lon="7.01581">
        <ele>914.40002441406</ele>
        <time>2021-03-04T11:11:25.000Z</time>
      </trkpt>
      <trkpt lat="43.74911" lon="7.01586">
        <ele>915.40002441406</ele>
        <time>2021-03-04T11:11:29.000Z</time>
      </trkpt>
      <trkpt lat="43.74922" lon="7.01589">
        <ele>917</ele>
        <time>2021-03-04T11:11:33.000Z</time>
      </trkpt>
      <trkpt lat="43.74926" lon="7.01591">
        <ele>918.20001220703</ele>
        <time>2021-03-04T11:11:35.000Z</time>
      </trkpt>
      <trkpt lat="43.74931" lon="7.01594">
        <ele>919.20001220703</ele>
        <time>2021-03-04T11:11:37.000Z</time>
      </trkpt>
      <trkpt lat="43.74937" lon="7.01597">
        <ele>920.40002441406</ele>
        <time>2021-03-04T11:11:40.000Z</time>
      </trkpt>
      <trkpt lat="43.74939" lon="7.01597">
        <ele>920.79998779297</ele>
        <time>2021-03-04T11:11:41.000Z</time>
      </trkpt>
      <trkpt lat="43.74943" lon="7.01599">
        <ele>921.59997558594</ele>
        <time>2021-03-04T11:11:43.000Z</time>
      </trkpt>
      <trkpt lat="43.74954" lon="7.01604">
        <ele>922.59997558594</ele>
        <time>2021-03-04T11:11:48.000Z</time>
      </trkpt>
      <trkpt lat="43.74956" lon="7.01605">
        <ele>922.79998779297</ele>
        <time>2021-03-04T11:11:49.000Z</time>
      </trkpt>
      <trkpt lat="43.7496" lon="7.01608">
        <ele>924.40002441406</ele>
        <time>2021-03-04T11:11:52.000Z</time>
      </trkpt>
      <trkpt lat="43.74962" lon="7.01609">
        <ele>925.20001220703</ele>
        <time>2021-03-04T11:11:53.000Z</time>
      </trkpt>
      <trkpt lat="43.74963" lon="7.0161">
        <ele>925.59997558594</ele>
        <time>2021-03-04T11:11:54.000Z</time>
      </trkpt>
      <trkpt lat="43.74968" lon="7.01612">
        <ele>926.79998779297</ele>
        <time>2021-03-04T11:11:57.000Z</time>
      </trkpt>
      <trkpt lat="43.7497" lon="7.01611">
        <ele>926.79998779297</ele>
        <time>2021-03-04T11:11:58.000Z</time>
      </trkpt>
      <trkpt lat="43.74971" lon="7.01611">
        <ele>927.20001220703</ele>
        <time>2021-03-04T11:11:59.000Z</time>
      </trkpt>
      <trkpt lat="43.74973" lon="7.01613">
        <ele>928</ele>
        <time>2021-03-04T11:12:01.000Z</time>
      </trkpt>
      <trkpt lat="43.74973" lon="7.01613">
        <ele>928</ele>
        <time>2021-03-04T11:12:02.000Z</time>
      </trkpt>
      <trkpt lat="43.74978" lon="7.01613">
        <ele>929</ele>
        <time>2021-03-04T11:12:07.000Z</time>
      </trkpt>
      <trkpt lat="43.7499" lon="7.01615">
        <ele>930.20001220703</ele>
        <time>2021-03-04T11:12:13.000Z</time>
      </trkpt>
      <trkpt lat="43.74999" lon="7.01617">
        <ele>931.20001220703</ele>
        <time>2021-03-04T11:12:18.000Z</time>
      </trkpt>
      <trkpt lat="43.75005" lon="7.01618">
        <ele>932.20001220703</ele>
        <time>2021-03-04T11:12:21.000Z</time>
      </trkpt>
      <trkpt lat="43.75007" lon="7.01618">
        <ele>932.59997558594</ele>
        <time>2021-03-04T11:12:22.000Z</time>
      </trkpt>
      <trkpt lat="43.7501" lon="7.01619">
        <ele>933.40002441406</ele>
        <time>2021-03-04T11:12:24.000Z</time>
      </trkpt>
      <trkpt lat="43.75015" lon="7.01621">
        <ele>934.59997558594</ele>
        <time>2021-03-04T11:12:27.000Z</time>
      </trkpt>
      <trkpt lat="43.75023" lon="7.01621">
        <ele>935.59997558594</ele>
        <time>2021-03-04T11:12:31.000Z</time>
      </trkpt>
      <trkpt lat="43.75025" lon="7.01622">
        <ele>935.59997558594</ele>
        <time>2021-03-04T11:12:32.000Z</time>
      </trkpt>
      <trkpt lat="43.75039" lon="7.01624">
        <ele>936.59997558594</ele>
        <time>2021-03-04T11:12:39.000Z</time>
      </trkpt>
      <trkpt lat="43.75041" lon="7.01624">
        <ele>936.79998779297</ele>
        <time>2021-03-04T11:12:40.000Z</time>
      </trkpt>
      <trkpt lat="43.75046" lon="7.01625">
        <ele>937.59997558594</ele>
        <time>2021-03-04T11:12:43.000Z</time>
      </trkpt>
      <trkpt lat="43.75052" lon="7.01625">
        <ele>938.40002441406</ele>
        <time>2021-03-04T11:12:46.000Z</time>
      </trkpt>
      <trkpt lat="43.75053" lon="7.01626">
        <ele>938.79998779297</ele>
        <time>2021-03-04T11:12:47.000Z</time>
      </trkpt>
      <trkpt lat="43.75061" lon="7.01627">
        <ele>940</ele>
        <time>2021-03-04T11:12:51.000Z</time>
      </trkpt>
      <trkpt lat="43.75065" lon="7.01629">
        <ele>940.40002441406</ele>
        <time>2021-03-04T11:12:53.000Z</time>
      </trkpt>
      <trkpt lat="43.7507" lon="7.01629">
        <ele>941.40002441406</ele>
        <time>2021-03-04T11:12:55.000Z</time>
      </trkpt>
      <trkpt lat="43.75076" lon="7.01631">
        <ele>942.20001220703</ele>
        <time>2021-03-04T11:12:58.000Z</time>
      </trkpt>
      <trkpt lat="43.75078" lon="7.01631">
        <ele>942.59997558594</ele>
        <time>2021-03-04T11:12:59.000Z</time>
      </trkpt>
      <trkpt lat="43.75082" lon="7.0163">
        <ele>943.79998779297</ele>
        <time>2021-03-04T11:13:01.000Z</time>
      </trkpt>
      <trkpt lat="43.75086" lon="7.0163">
        <ele>945</ele>
        <time>2021-03-04T11:13:03.000Z</time>
      </trkpt>
      <trkpt lat="43.75088" lon="7.01629">
        <ele>946.40002441406</ele>
        <time>2021-03-04T11:13:05.000Z</time>
      </trkpt>
      <trkpt lat="43.75092" lon="7.01625">
        <ele>947.20001220703</ele>
        <time>2021-03-04T11:13:08.000Z</time>
      </trkpt>
      <trkpt lat="43.75093" lon="7.01623">
        <ele>947.40002441406</ele>
        <time>2021-03-04T11:13:09.000Z</time>
      </trkpt>
      <trkpt lat="43.75097" lon="7.01616">
        <ele>948.59997558594</ele>
        <time>2021-03-04T11:13:12.000Z</time>
      </trkpt>
      <trkpt lat="43.75099" lon="7.01614">
        <ele>949.40002441406</ele>
        <time>2021-03-04T11:13:14.000Z</time>
      </trkpt>
      <trkpt lat="43.751" lon="7.01613">
        <ele>949.59997558594</ele>
        <time>2021-03-04T11:13:15.000Z</time>
      </trkpt>
      <trkpt lat="43.75102" lon="7.01609">
        <ele>950.59997558594</ele>
        <time>2021-03-04T11:13:17.000Z</time>
      </trkpt>
      <trkpt lat="43.75103" lon="7.01608">
        <ele>951</ele>
        <time>2021-03-04T11:13:18.000Z</time>
      </trkpt>
      <trkpt lat="43.75104" lon="7.01608">
        <ele>951.20001220703</ele>
        <time>2021-03-04T11:13:19.000Z</time>
      </trkpt>
      <trkpt lat="43.75107" lon="7.01608">
        <ele>951.79998779297</ele>
        <time>2021-03-04T11:13:24.000Z</time>
      </trkpt>
      <trkpt lat="43.75107" lon="7.01608">
        <ele>951.79998779297</ele>
        <time>2021-03-04T11:13:31.000Z</time>
      </trkpt>
      <trkpt lat="43.75106" lon="7.01608">
        <ele>951.79998779297</ele>
        <time>2021-03-04T11:13:37.000Z</time>
      </trkpt>
      <trkpt lat="43.75105" lon="7.01607">
        <ele>951.40002441406</ele>
        <time>2021-03-04T11:13:43.000Z</time>
      </trkpt>
      <trkpt lat="43.75105" lon="7.01607">
        <ele>952</ele>
        <time>2021-03-04T11:13:47.000Z</time>
      </trkpt>
      <trkpt lat="43.75105" lon="7.01607">
        <ele>952</ele>
        <time>2021-03-04T11:13:48.000Z</time>
      </trkpt>
      <trkpt lat="43.75104" lon="7.01606">
        <ele>951.59997558594</ele>
        <time>2021-03-04T11:13:50.000Z</time>
      </trkpt>
      <trkpt lat="43.75104" lon="7.01606">
        <ele>951.59997558594</ele>
        <time>2021-03-04T11:13:52.000Z</time>
      </trkpt>
      <trkpt lat="43.75104" lon="7.01606">
        <ele>951.59997558594</ele>
        <time>2021-03-04T11:13:54.000Z</time>
      </trkpt>
      <trkpt lat="43.75106" lon="7.01607">
        <ele>951.40002441406</ele>
        <time>2021-03-04T11:13:58.000Z</time>
      </trkpt>
      <trkpt lat="43.75106" lon="7.01608">
        <ele>951.20001220703</ele>
        <time>2021-03-04T11:14:00.000Z</time>
      </trkpt>
      <trkpt lat="43.75106" lon="7.01608">
        <ele>951.59997558594</ele>
        <time>2021-03-04T11:14:05.000Z</time>
      </trkpt>
      <trkpt lat="43.75108" lon="7.01607">
        <ele>951.59997558594</ele>
        <time>2021-03-04T11:14:07.000Z</time>
      </trkpt>
      <trkpt lat="43.75109" lon="7.01611">
        <ele>951.59997558594</ele>
        <time>2021-03-04T11:14:13.000Z</time>
      </trkpt>
      <trkpt lat="43.75108" lon="7.01612">
        <ele>952</ele>
        <time>2021-03-04T11:14:19.000Z</time>
      </trkpt>
      <trkpt lat="43.75108" lon="7.01611">
        <ele>952.20001220703</ele>
        <time>2021-03-04T11:14:27.000Z</time>
      </trkpt>
      <trkpt lat="43.75108" lon="7.01611">
        <ele>952</ele>
        <time>2021-03-04T11:14:36.000Z</time>
      </trkpt>
      <trkpt lat="43.75108" lon="7.01611">
        <ele>952</ele>
        <time>2021-03-04T11:14:46.000Z</time>
      </trkpt>
      <trkpt lat="43.75108" lon="7.01611">
        <ele>952</ele>
        <time>2021-03-04T11:15:02.000Z</time>
      </trkpt>
      <trkpt lat="43.75108" lon="7.01611">
        <ele>952</ele>
        <time>2021-03-04T11:15:13.000Z</time>
      </trkpt>
      <trkpt lat="43.75108" lon="7.0161">
        <ele>952.59997558594</ele>
        <time>2021-03-04T11:15:22.000Z</time>
      </trkpt>
      <trkpt lat="43.75108" lon="7.01611">
        <ele>952.59997558594</ele>
        <time>2021-03-04T11:15:30.000Z</time>
      </trkpt>
      <trkpt lat="43.75108" lon="7.01611">
        <ele>952.20001220703</ele>
        <time>2021-03-04T11:15:48.000Z</time>
      </trkpt>
      <trkpt lat="43.75108" lon="7.01611">
        <ele>952.59997558594</ele>
        <time>2021-03-04T11:16:04.000Z</time>
      </trkpt>
      <trkpt lat="43.75107" lon="7.01611">
        <ele>952.20001220703</ele>
        <time>2021-03-04T11:16:18.000Z</time>
      </trkpt>
      <trkpt lat="43.75108" lon="7.01611">
        <ele>952.40002441406</ele>
        <time>2021-03-04T11:16:22.000Z</time>
      </trkpt>
      <trkpt lat="43.75107" lon="7.0161">
        <ele>952.20001220703</ele>
        <time>2021-03-04T11:16:30.000Z</time>
      </trkpt>
      <trkpt lat="43.75108" lon="7.0161">
        <ele>952.40002441406</ele>
        <time>2021-03-04T11:16:38.000Z</time>
      </trkpt>
      <trkpt lat="43.75108" lon="7.0161">
        <ele>952.59997558594</ele>
        <time>2021-03-04T11:16:55.000Z</time>
      </trkpt>
      <trkpt lat="43.75108" lon="7.01611">
        <ele>953</ele>
        <time>2021-03-04T11:17:05.000Z</time>
      </trkpt>
      <trkpt lat="43.75107" lon="7.01611">
        <ele>953.20001220703</ele>
        <time>2021-03-04T11:17:17.000Z</time>
      </trkpt>
      <trkpt lat="43.75107" lon="7.0161">
        <ele>953</ele>
        <time>2021-03-04T11:17:28.000Z</time>
      </trkpt>
      <trkpt lat="43.75107" lon="7.0161">
        <ele>953.20001220703</ele>
        <time>2021-03-04T11:17:44.000Z</time>
      </trkpt>
      <trkpt lat="43.75107" lon="7.0161">
        <ele>952.59997558594</ele>
        <time>2021-03-04T11:18:00.000Z</time>
      </trkpt>
      <trkpt lat="43.75107" lon="7.0161">
        <ele>952.79998779297</ele>
        <time>2021-03-04T11:18:17.000Z</time>
      </trkpt>
      <trkpt lat="43.75107" lon="7.0161">
        <ele>953.20001220703</ele>
        <time>2021-03-04T11:18:31.000Z</time>
      </trkpt>
      <trkpt lat="43.75107" lon="7.01609">
        <ele>953.40002441406</ele>
        <time>2021-03-04T11:18:49.000Z</time>
      </trkpt>
      <trkpt lat="43.75107" lon="7.01609">
        <ele>953.20001220703</ele>
        <time>2021-03-04T11:19:02.000Z</time>
      </trkpt>
      <trkpt lat="43.75107" lon="7.0161">
        <ele>953.40002441406</ele>
        <time>2021-03-04T11:19:18.000Z</time>
      </trkpt>
      <trkpt lat="43.75107" lon="7.01609">
        <ele>953.59997558594</ele>
        <time>2021-03-04T11:19:37.000Z</time>
      </trkpt>
      <trkpt lat="43.75107" lon="7.0161">
        <ele>953.79998779297</ele>
        <time>2021-03-04T11:19:51.000Z</time>
      </trkpt>
      <trkpt lat="43.75107" lon="7.01609">
        <ele>954</ele>
        <time>2021-03-04T11:20:10.000Z</time>
      </trkpt>
      <trkpt lat="43.75107" lon="7.0161">
        <ele>953.79998779297</ele>
        <time>2021-03-04T11:20:30.000Z</time>
      </trkpt>
      <trkpt lat="43.75107" lon="7.0161">
        <ele>954</ele>
        <time>2021-03-04T11:20:36.000Z</time>
      </trkpt>
      <trkpt lat="43.75107" lon="7.0161">
        <ele>954</ele>
        <time>2021-03-04T11:20:54.000Z</time>
      </trkpt>
      <trkpt lat="43.75107" lon="7.0161">
        <ele>953.79998779297</ele>
        <time>2021-03-04T11:21:01.000Z</time>
      </trkpt>
      <trkpt lat="43.75108" lon="7.01609">
        <ele>954</ele>
        <time>2021-03-04T11:21:15.000Z</time>
      </trkpt>
      <trkpt lat="43.75108" lon="7.01609">
        <ele>954.40002441406</ele>
        <time>2021-03-04T11:21:31.000Z</time>
      </trkpt>
      <trkpt lat="43.75108" lon="7.0161">
        <ele>954.59997558594</ele>
        <time>2021-03-04T11:21:43.000Z</time>
      </trkpt>
      <trkpt lat="43.75108" lon="7.0161">
        <ele>954.79998779297</ele>
        <time>2021-03-04T11:21:58.000Z</time>
      </trkpt>
      <trkpt lat="43.75108" lon="7.0161">
        <ele>954.20001220703</ele>
        <time>2021-03-04T11:22:15.000Z</time>
      </trkpt>
      <trkpt lat="43.75108" lon="7.0161">
        <ele>954.20001220703</ele>
        <time>2021-03-04T11:22:26.000Z</time>
      </trkpt>
      <trkpt lat="43.75107" lon="7.0161">
        <ele>954.59997558594</ele>
        <time>2021-03-04T11:22:38.000Z</time>
      </trkpt>
      <trkpt lat="43.75108" lon="7.0161">
        <ele>954.59997558594</ele>
        <time>2021-03-04T11:22:47.000Z</time>
      </trkpt>
      <trkpt lat="43.75108" lon="7.01611">
        <ele>954.40002441406</ele>
        <time>2021-03-04T11:23:02.000Z</time>
      </trkpt>
      <trkpt lat="43.75108" lon="7.01611">
        <ele>954.40002441406</ele>
        <time>2021-03-04T11:23:16.000Z</time>
      </trkpt>
      <trkpt lat="43.75108" lon="7.0161">
        <ele>954.40002441406</ele>
        <time>2021-03-04T11:23:27.000Z</time>
      </trkpt>
      <trkpt lat="43.75108" lon="7.0161">
        <ele>954.20001220703</ele>
        <time>2021-03-04T11:23:39.000Z</time>
      </trkpt>
      <trkpt lat="43.75107" lon="7.01609">
        <ele>954.59997558594</ele>
        <time>2021-03-04T11:23:46.000Z</time>
      </trkpt>
      <trkpt lat="43.75108" lon="7.01609">
        <ele>954.79998779297</ele>
        <time>2021-03-04T11:23:54.000Z</time>
      </trkpt>
      <trkpt lat="43.75108" lon="7.0161">
        <ele>954.59997558594</ele>
        <time>2021-03-04T11:23:59.000Z</time>
      </trkpt>
      <trkpt lat="43.75108" lon="7.01609">
        <ele>955</ele>
        <time>2021-03-04T11:24:11.000Z</time>
      </trkpt>
      <trkpt lat="43.75108" lon="7.0161">
        <ele>955</ele>
        <time>2021-03-04T11:24:14.000Z</time>
      </trkpt>
      <trkpt lat="43.75107" lon="7.0161">
        <ele>954.79998779297</ele>
        <time>2021-03-04T11:24:24.000Z</time>
      </trkpt>
      <trkpt lat="43.75108" lon="7.0161">
        <ele>954.40002441406</ele>
        <time>2021-03-04T11:24:32.000Z</time>
      </trkpt>
      <trkpt lat="43.75108" lon="7.0161">
        <ele>954.40002441406</ele>
        <time>2021-03-04T11:24:55.000Z</time>
      </trkpt>
      <trkpt lat="43.75108" lon="7.01609">
        <ele>955</ele>
        <time>2021-03-04T11:25:06.000Z</time>
      </trkpt>
      <trkpt lat="43.75108" lon="7.01609">
        <ele>955</ele>
        <time>2021-03-04T11:25:15.000Z</time>
      </trkpt>
      <trkpt lat="43.75108" lon="7.01609">
        <ele>955</ele>
        <time>2021-03-04T11:25:22.000Z</time>
      </trkpt>
      <trkpt lat="43.75108" lon="7.0161">
        <ele>954.79998779297</ele>
        <time>2021-03-04T11:25:34.000Z</time>
      </trkpt>
      <trkpt lat="43.75108" lon="7.0161">
        <ele>955</ele>
        <time>2021-03-04T11:25:44.000Z</time>
      </trkpt>
      <trkpt lat="43.75108" lon="7.01611">
        <ele>954.79998779297</ele>
        <time>2021-03-04T11:26:02.000Z</time>
      </trkpt>
      <trkpt lat="43.75108" lon="7.01612">
        <ele>954.79998779297</ele>
        <time>2021-03-04T11:26:22.000Z</time>
      </trkpt>
      <trkpt lat="43.75108" lon="7.01612">
        <ele>954.79998779297</ele>
        <time>2021-03-04T11:26:33.000Z</time>
      </trkpt>
      <trkpt lat="43.75108" lon="7.01611">
        <ele>954.79998779297</ele>
        <time>2021-03-04T11:26:51.000Z</time>
      </trkpt>
      <trkpt lat="43.75108" lon="7.01611">
        <ele>954.59997558594</ele>
        <time>2021-03-04T11:27:03.000Z</time>
      </trkpt>
      <trkpt lat="43.75108" lon="7.01611">
        <ele>954.79998779297</ele>
        <time>2021-03-04T11:27:18.000Z</time>
      </trkpt>
      <trkpt lat="43.75108" lon="7.0161">
        <ele>954.79998779297</ele>
        <time>2021-03-04T11:27:32.000Z</time>
      </trkpt>
      <trkpt lat="43.75108" lon="7.01609">
        <ele>955</ele>
        <time>2021-03-04T11:27:44.000Z</time>
      </trkpt>
      <trkpt lat="43.75108" lon="7.0161">
        <ele>955</ele>
        <time>2021-03-04T11:28:04.000Z</time>
      </trkpt>
      <trkpt lat="43.75107" lon="7.0161">
        <ele>955.20001220703</ele>
        <time>2021-03-04T11:28:16.000Z</time>
      </trkpt>
      <trkpt lat="43.75107" lon="7.0161">
        <ele>955.20001220703</ele>
        <time>2021-03-04T11:28:28.000Z</time>
      </trkpt>
      <trkpt lat="43.75107" lon="7.0161">
        <ele>955.20001220703</ele>
        <time>2021-03-04T11:28:39.000Z</time>
      </trkpt>
      <trkpt lat="43.75107" lon="7.0161">
        <ele>955.40002441406</ele>
        <time>2021-03-04T11:29:01.000Z</time>
      </trkpt>
      <trkpt lat="43.75107" lon="7.0161">
        <ele>955.40002441406</ele>
        <time>2021-03-04T11:29:18.000Z</time>
      </trkpt>
      <trkpt lat="43.75107" lon="7.01611">
        <ele>955.40002441406</ele>
        <time>2021-03-04T11:29:24.000Z</time>
      </trkpt>
      <trkpt lat="43.7511" lon="7.01608">
        <ele>954.79998779297</ele>
        <time>2021-03-04T11:29:29.000Z</time>
      </trkpt>
      <trkpt lat="43.7511" lon="7.01607">
        <ele>955</ele>
        <time>2021-03-04T11:29:30.000Z</time>
      </trkpt>
      <trkpt lat="43.75109" lon="7.01605">
        <ele>955</ele>
        <time>2021-03-04T11:29:34.000Z</time>
      </trkpt>
      <trkpt lat="43.7511" lon="7.01606">
        <ele>955</ele>
        <time>2021-03-04T11:29:40.000Z</time>
      </trkpt>
      <trkpt lat="43.75109" lon="7.01606">
        <ele>955.79998779297</ele>
        <time>2021-03-04T11:29:51.000Z</time>
      </trkpt>
      <trkpt lat="43.7511" lon="7.01607">
        <ele>955.20001220703</ele>
        <time>2021-03-04T11:29:58.000Z</time>
      </trkpt>
      <trkpt lat="43.7511" lon="7.01607">
        <ele>955.20001220703</ele>
        <time>2021-03-04T11:30:06.000Z</time>
      </trkpt>
      <trkpt lat="43.7511" lon="7.01607">
        <ele>955.59997558594</ele>
        <time>2021-03-04T11:30:16.000Z</time>
      </trkpt>
      <trkpt lat="43.7511" lon="7.01608">
        <ele>956</ele>
        <time>2021-03-04T11:30:29.000Z</time>
      </trkpt>
      <trkpt lat="43.7511" lon="7.01608">
        <ele>955.79998779297</ele>
        <time>2021-03-04T11:30:47.000Z</time>
      </trkpt>
      <trkpt lat="43.7511" lon="7.01609">
        <ele>955.79998779297</ele>
        <time>2021-03-04T11:31:01.000Z</time>
      </trkpt>
      <trkpt lat="43.7511" lon="7.01608">
        <ele>955.59997558594</ele>
        <time>2021-03-04T11:31:15.000Z</time>
      </trkpt>
      <trkpt lat="43.7511" lon="7.01608">
        <ele>955.40002441406</ele>
        <time>2021-03-04T11:31:37.000Z</time>
      </trkpt>
      <trkpt lat="43.7511" lon="7.01608">
        <ele>955.40002441406</ele>
        <time>2021-03-04T11:31:52.000Z</time>
      </trkpt>
      <trkpt lat="43.75109" lon="7.01608">
        <ele>955.40002441406</ele>
        <time>2021-03-04T11:32:12.000Z</time>
      </trkpt>
      <trkpt lat="43.75109" lon="7.01607">
        <ele>955.40002441406</ele>
        <time>2021-03-04T11:32:21.000Z</time>
      </trkpt>
      <trkpt lat="43.75109" lon="7.01608">
        <ele>955.40002441406</ele>
        <time>2021-03-04T11:32:33.000Z</time>
      </trkpt>
      <trkpt lat="43.75109" lon="7.01608">
        <ele>955.40002441406</ele>
        <time>2021-03-04T11:32:41.000Z</time>
      </trkpt>
      <trkpt lat="43.75109" lon="7.01609">
        <ele>955</ele>
        <time>2021-03-04T11:32:58.000Z</time>
      </trkpt>
      <trkpt lat="43.75109" lon="7.01608">
        <ele>955.20001220703</ele>
        <time>2021-03-04T11:33:06.000Z</time>
      </trkpt>
      <trkpt lat="43.75108" lon="7.01608">
        <ele>955.40002441406</ele>
        <time>2021-03-04T11:33:12.000Z</time>
      </trkpt>
      <trkpt lat="43.75109" lon="7.01607">
        <ele>955.40002441406</ele>
        <time>2021-03-04T11:33:18.000Z</time>
      </trkpt>
      <trkpt lat="43.75109" lon="7.01607">
        <ele>954.79998779297</ele>
        <time>2021-03-04T11:33:25.000Z</time>
      </trkpt>
      <trkpt lat="43.75108" lon="7.01607">
        <ele>954.79998779297</ele>
        <time>2021-03-04T11:33:37.000Z</time>
      </trkpt>
      <trkpt lat="43.75108" lon="7.01608">
        <ele>954.79998779297</ele>
        <time>2021-03-04T11:33:46.000Z</time>
      </trkpt>
      <trkpt lat="43.75108" lon="7.01609">
        <ele>955.40002441406</ele>
        <time>2021-03-04T11:33:51.000Z</time>
      </trkpt>
      <trkpt lat="43.75108" lon="7.01608">
        <ele>955.40002441406</ele>
        <time>2021-03-04T11:34:05.000Z</time>
      </trkpt>
      <trkpt lat="43.75108" lon="7.01609">
        <ele>955.59997558594</ele>
        <time>2021-03-04T11:34:14.000Z</time>
      </trkpt>
      <trkpt lat="43.75108" lon="7.01609">
        <ele>955.59997558594</ele>
        <time>2021-03-04T11:34:33.000Z</time>
      </trkpt>
      <trkpt lat="43.75108" lon="7.01608">
        <ele>955.79998779297</ele>
        <time>2021-03-04T11:34:43.000Z</time>
      </trkpt>
      <trkpt lat="43.75108" lon="7.01608">
        <ele>956</ele>
        <time>2021-03-04T11:34:56.000Z</time>
      </trkpt>
      <trkpt lat="43.75108" lon="7.01608">
        <ele>956.20001220703</ele>
        <time>2021-03-04T11:34:57.000Z</time>
      </trkpt>
      <trkpt lat="43.75108" lon="7.01608">
        <ele>956</ele>
        <time>2021-03-04T11:35:03.000Z</time>
      </trkpt>
      <trkpt lat="43.75108" lon="7.01608">
        <ele>956.40002441406</ele>
        <time>2021-03-04T11:35:11.000Z</time>
      </trkpt>
      <trkpt lat="43.75106" lon="7.01608">
        <ele>956.20001220703</ele>
        <time>2021-03-04T11:35:23.000Z</time>
      </trkpt>
      <trkpt lat="43.75107" lon="7.01607">
        <ele>956</ele>
        <time>2021-03-04T11:35:26.000Z</time>
      </trkpt>
      <trkpt lat="43.75108" lon="7.01608">
        <ele>956</ele>
        <time>2021-03-04T11:35:27.000Z</time>
      </trkpt>
      <trkpt lat="43.75109" lon="7.01608">
        <ele>956.40002441406</ele>
        <time>2021-03-04T11:35:34.000Z</time>
      </trkpt>
      <trkpt lat="43.75111" lon="7.01609">
        <ele>956.20001220703</ele>
        <time>2021-03-04T11:35:40.000Z</time>
      </trkpt>
      <trkpt lat="43.75113" lon="7.0161">
        <ele>956.79998779297</ele>
        <time>2021-03-04T11:35:53.000Z</time>
      </trkpt>
      <trkpt lat="43.75116" lon="7.0161">
        <ele>956.79998779297</ele>
        <time>2021-03-04T11:35:57.000Z</time>
      </trkpt>
      <trkpt lat="43.75127" lon="7.01613">
        <ele>956.59997558594</ele>
        <time>2021-03-04T11:36:02.000Z</time>
      </trkpt>
      <trkpt lat="43.75151" lon="7.01625">
        <ele>956</ele>
        <time>2021-03-04T11:36:09.000Z</time>
      </trkpt>
      <trkpt lat="43.7518" lon="7.01644">
        <ele>955.59997558594</ele>
        <time>2021-03-04T11:36:17.000Z</time>
      </trkpt>
      <trkpt lat="43.75207" lon="7.01674">
        <ele>955.79998779297</ele>
        <time>2021-03-04T11:36:25.000Z</time>
      </trkpt>
      <trkpt lat="43.75211" lon="7.01678">
        <ele>955.79998779297</ele>
        <time>2021-03-04T11:36:26.000Z</time>
      </trkpt>
      <trkpt lat="43.7523" lon="7.01694">
        <ele>955.79998779297</ele>
        <time>2021-03-04T11:36:31.000Z</time>
      </trkpt>
      <trkpt lat="43.75262" lon="7.01721">
        <ele>956.59997558594</ele>
        <time>2021-03-04T11:36:40.000Z</time>
      </trkpt>
      <trkpt lat="43.75276" lon="7.01735">
        <ele>957.20001220703</ele>
        <time>2021-03-04T11:36:46.000Z</time>
      </trkpt>
      <trkpt lat="43.753" lon="7.01754">
        <ele>958</ele>
        <time>2021-03-04T11:36:53.000Z</time>
      </trkpt>
      <trkpt lat="43.75303" lon="7.01757">
        <ele>958.20001220703</ele>
        <time>2021-03-04T11:36:54.000Z</time>
      </trkpt>
      <trkpt lat="43.75312" lon="7.01765">
        <ele>959.40002441406</ele>
        <time>2021-03-04T11:36:57.000Z</time>
      </trkpt>
      <trkpt lat="43.75318" lon="7.01769">
        <ele>960.20001220703</ele>
        <time>2021-03-04T11:36:59.000Z</time>
      </trkpt>
      <trkpt lat="43.75321" lon="7.01772">
        <ele>960.79998779297</ele>
        <time>2021-03-04T11:37:00.000Z</time>
      </trkpt>
      <trkpt lat="43.75332" lon="7.01781">
        <ele>962</ele>
        <time>2021-03-04T11:37:04.000Z</time>
      </trkpt>
      <trkpt lat="43.75338" lon="7.01791">
        <ele>963.20001220703</ele>
        <time>2021-03-04T11:37:07.000Z</time>
      </trkpt>
      <trkpt lat="43.75338" lon="7.01795">
        <ele>963.59997558594</ele>
        <time>2021-03-04T11:37:08.000Z</time>
      </trkpt>
      <trkpt lat="43.75337" lon="7.01799">
        <ele>964.20001220703</ele>
        <time>2021-03-04T11:37:09.000Z</time>
      </trkpt>
      <trkpt lat="43.75333" lon="7.01808">
        <ele>965.20001220703</ele>
        <time>2021-03-04T11:37:12.000Z</time>
      </trkpt>
      <trkpt lat="43.75333" lon="7.01811">
        <ele>966</ele>
        <time>2021-03-04T11:37:13.000Z</time>
      </trkpt>
      <trkpt lat="43.75331" lon="7.01813">
        <ele>966.59997558594</ele>
        <time>2021-03-04T11:37:14.000Z</time>
      </trkpt>
      <trkpt lat="43.75329" lon="7.01817">
        <ele>967.79998779297</ele>
        <time>2021-03-04T11:37:16.000Z</time>
      </trkpt>
      <trkpt lat="43.75327" lon="7.01822">
        <ele>969</ele>
        <time>2021-03-04T11:37:18.000Z</time>
      </trkpt>
      <trkpt lat="43.75324" lon="7.01826">
        <ele>970</ele>
        <time>2021-03-04T11:37:20.000Z</time>
      </trkpt>
      <trkpt lat="43.75319" lon="7.01831">
        <ele>971.40002441406</ele>
        <time>2021-03-04T11:37:23.000Z</time>
      </trkpt>
      <trkpt lat="43.75315" lon="7.01837">
        <ele>972.40002441406</ele>
        <time>2021-03-04T11:37:26.000Z</time>
      </trkpt>
      <trkpt lat="43.75309" lon="7.01843">
        <ele>973.20001220703</ele>
        <time>2021-03-04T11:37:29.000Z</time>
      </trkpt>
      <trkpt lat="43.75306" lon="7.01845">
        <ele>973.59997558594</ele>
        <time>2021-03-04T11:37:31.000Z</time>
      </trkpt>
      <trkpt lat="43.75304" lon="7.01846">
        <ele>973.79998779297</ele>
        <time>2021-03-04T11:37:32.000Z</time>
      </trkpt>
      <trkpt lat="43.75299" lon="7.01844">
        <ele>974.20001220703</ele>
        <time>2021-03-04T11:37:34.000Z</time>
      </trkpt>
      <trkpt lat="43.75295" lon="7.01843">
        <ele>974.20001220703</ele>
        <time>2021-03-04T11:37:36.000Z</time>
      </trkpt>
      <trkpt lat="43.75287" lon="7.0184">
        <ele>974.59997558594</ele>
        <time>2021-03-04T11:37:40.000Z</time>
      </trkpt>
      <trkpt lat="43.75282" lon="7.01839">
        <ele>974.79998779297</ele>
        <time>2021-03-04T11:37:42.000Z</time>
      </trkpt>
      <trkpt lat="43.7527" lon="7.01838">
        <ele>975.79998779297</ele>
        <time>2021-03-04T11:37:47.000Z</time>
      </trkpt>
      <trkpt lat="43.75266" lon="7.01837">
        <ele>976.59997558594</ele>
        <time>2021-03-04T11:37:49.000Z</time>
      </trkpt>
      <trkpt lat="43.75264" lon="7.01837">
        <ele>976.79998779297</ele>
        <time>2021-03-04T11:37:50.000Z</time>
      </trkpt>
      <trkpt lat="43.75256" lon="7.01838">
        <ele>978</ele>
        <time>2021-03-04T11:37:53.000Z</time>
      </trkpt>
      <trkpt lat="43.75251" lon="7.01837">
        <ele>978.79998779297</ele>
        <time>2021-03-04T11:37:55.000Z</time>
      </trkpt>
      <trkpt lat="43.75249" lon="7.01835">
        <ele>979.20001220703</ele>
        <time>2021-03-04T11:37:56.000Z</time>
      </trkpt>
      <trkpt lat="43.75242" lon="7.01833">
        <ele>980.59997558594</ele>
        <time>2021-03-04T11:37:59.000Z</time>
      </trkpt>
      <trkpt lat="43.75237" lon="7.01831">
        <ele>981.20001220703</ele>
        <time>2021-03-04T11:38:01.000Z</time>
      </trkpt>
      <trkpt lat="43.75235" lon="7.0183">
        <ele>981.79998779297</ele>
        <time>2021-03-04T11:38:02.000Z</time>
      </trkpt>
      <trkpt lat="43.75231" lon="7.01829">
        <ele>983</ele>
        <time>2021-03-04T11:38:04.000Z</time>
      </trkpt>
      <trkpt lat="43.75228" lon="7.01827">
        <ele>984.20001220703</ele>
        <time>2021-03-04T11:38:06.000Z</time>
      </trkpt>
      <trkpt lat="43.75226" lon="7.01827">
        <ele>985.20001220703</ele>
        <time>2021-03-04T11:38:07.000Z</time>
      </trkpt>
      <trkpt lat="43.75224" lon="7.01826">
        <ele>985.79998779297</ele>
        <time>2021-03-04T11:38:08.000Z</time>
      </trkpt>
      <trkpt lat="43.75219" lon="7.01825">
        <ele>987.40002441406</ele>
        <time>2021-03-04T11:38:11.000Z</time>
      </trkpt>
      <trkpt lat="43.75213" lon="7.01823">
        <ele>988.79998779297</ele>
        <time>2021-03-04T11:38:14.000Z</time>
      </trkpt>
      <trkpt lat="43.75211" lon="7.01823">
        <ele>989.20001220703</ele>
        <time>2021-03-04T11:38:15.000Z</time>
      </trkpt>
      <trkpt lat="43.75208" lon="7.0182">
        <ele>990</ele>
        <time>2021-03-04T11:38:17.000Z</time>
      </trkpt>
      <trkpt lat="43.75204" lon="7.01817">
        <ele>991.20001220703</ele>
        <time>2021-03-04T11:38:20.000Z</time>
      </trkpt>
      <trkpt lat="43.75203" lon="7.01816">
        <ele>991.59997558594</ele>
        <time>2021-03-04T11:38:21.000Z</time>
      </trkpt>
      <trkpt lat="43.752" lon="7.01814">
        <ele>992.40002441406</ele>
        <time>2021-03-04T11:38:23.000Z</time>
      </trkpt>
      <trkpt lat="43.75198" lon="7.01812">
        <ele>993</ele>
        <time>2021-03-04T11:38:25.000Z</time>
      </trkpt>
      <trkpt lat="43.75196" lon="7.01812">
        <ele>993</ele>
        <time>2021-03-04T11:38:26.000Z</time>
      </trkpt>
      <trkpt lat="43.75193" lon="7.0181">
        <ele>993.40002441406</ele>
        <time>2021-03-04T11:38:28.000Z</time>
      </trkpt>
      <trkpt lat="43.75186" lon="7.01805">
        <ele>994.20001220703</ele>
        <time>2021-03-04T11:38:33.000Z</time>
      </trkpt>
      <trkpt lat="43.75181" lon="7.01804">
        <ele>994.40002441406</ele>
        <time>2021-03-04T11:38:36.000Z</time>
      </trkpt>
      <trkpt lat="43.75173" lon="7.01802">
        <ele>995.40002441406</ele>
        <time>2021-03-04T11:38:41.000Z</time>
      </trkpt>
      <trkpt lat="43.75171" lon="7.01802">
        <ele>995.79998779297</ele>
        <time>2021-03-04T11:38:42.000Z</time>
      </trkpt>
      <trkpt lat="43.75161" lon="7.01802">
        <ele>996.79998779297</ele>
        <time>2021-03-04T11:38:49.000Z</time>
      </trkpt>
      <trkpt lat="43.7515" lon="7.01799">
        <ele>997.40002441406</ele>
        <time>2021-03-04T11:38:56.000Z</time>
      </trkpt>
      <trkpt lat="43.75144" lon="7.01797">
        <ele>998</ele>
        <time>2021-03-04T11:39:00.000Z</time>
      </trkpt>
      <trkpt lat="43.75136" lon="7.01794">
        <ele>998.79998779297</ele>
        <time>2021-03-04T11:39:05.000Z</time>
      </trkpt>
      <trkpt lat="43.75135" lon="7.01793">
        <ele>999.20001220703</ele>
        <time>2021-03-04T11:39:06.000Z</time>
      </trkpt>
      <trkpt lat="43.7513" lon="7.01791">
        <ele>1000.200012207</ele>
        <time>2021-03-04T11:39:10.000Z</time>
      </trkpt>
      <trkpt lat="43.75128" lon="7.0179">
        <ele>1001</ele>
        <time>2021-03-04T11:39:13.000Z</time>
      </trkpt>
      <trkpt lat="43.75126" lon="7.01791">
        <ele>1001.4000244141</ele>
        <time>2021-03-04T11:39:16.000Z</time>
      </trkpt>
      <trkpt lat="43.75123" lon="7.01792">
        <ele>1001.5999755859</ele>
        <time>2021-03-04T11:39:18.000Z</time>
      </trkpt>
      <trkpt lat="43.75117" lon="7.01793">
        <ele>1002</ele>
        <time>2021-03-04T11:39:23.000Z</time>
      </trkpt>
      <trkpt lat="43.7511" lon="7.01795">
        <ele>1002.5999755859</ele>
        <time>2021-03-04T11:39:29.000Z</time>
      </trkpt>
      <trkpt lat="43.75101" lon="7.01797">
        <ele>1003</ele>
        <time>2021-03-04T11:39:35.000Z</time>
      </trkpt>
      <trkpt lat="43.75092" lon="7.01804">
        <ele>1003.4000244141</ele>
        <time>2021-03-04T11:39:41.000Z</time>
      </trkpt>
      <trkpt lat="43.75091" lon="7.01806">
        <ele>1003.5999755859</ele>
        <time>2021-03-04T11:39:42.000Z</time>
      </trkpt>
      <trkpt lat="43.75083" lon="7.0182">
        <ele>1004.4000244141</ele>
        <time>2021-03-04T11:39:48.000Z</time>
      </trkpt>
      <trkpt lat="43.75081" lon="7.01822">
        <ele>1004.799987793</ele>
        <time>2021-03-04T11:39:49.000Z</time>
      </trkpt>
      <trkpt lat="43.75077" lon="7.01827">
        <ele>1006</ele>
        <time>2021-03-04T11:39:52.000Z</time>
      </trkpt>
      <trkpt lat="43.75073" lon="7.01832">
        <ele>1007.4000244141</ele>
        <time>2021-03-04T11:39:55.000Z</time>
      </trkpt>
      <trkpt lat="43.75071" lon="7.01833">
        <ele>1007.799987793</ele>
        <time>2021-03-04T11:39:56.000Z</time>
      </trkpt>
      <trkpt lat="43.75068" lon="7.01834">
        <ele>1008.4000244141</ele>
        <time>2021-03-04T11:39:58.000Z</time>
      </trkpt>
      <trkpt lat="43.75063" lon="7.01835">
        <ele>1009.4000244141</ele>
        <time>2021-03-04T11:40:01.000Z</time>
      </trkpt>
      <trkpt lat="43.75061" lon="7.01836">
        <ele>1009.799987793</ele>
        <time>2021-03-04T11:40:02.000Z</time>
      </trkpt>
      <trkpt lat="43.7506" lon="7.01837">
        <ele>1010</ele>
        <time>2021-03-04T11:40:03.000Z</time>
      </trkpt>
      <trkpt lat="43.75059" lon="7.01842">
        <ele>1010.5999755859</ele>
        <time>2021-03-04T11:40:06.000Z</time>
      </trkpt>
      <trkpt lat="43.75059" lon="7.01845">
        <ele>1011</ele>
        <time>2021-03-04T11:40:07.000Z</time>
      </trkpt>
      <trkpt lat="43.75054" lon="7.01852">
        <ele>1012.200012207</ele>
        <time>2021-03-04T11:40:11.000Z</time>
      </trkpt>
      <trkpt lat="43.75048" lon="7.01852">
        <ele>1013.5999755859</ele>
        <time>2021-03-04T11:40:14.000Z</time>
      </trkpt>
      <trkpt lat="43.75045" lon="7.01852">
        <ele>1014.5999755859</ele>
        <time>2021-03-04T11:40:16.000Z</time>
      </trkpt>
      <trkpt lat="43.75042" lon="7.01853">
        <ele>1015</ele>
        <time>2021-03-04T11:40:17.000Z</time>
      </trkpt>
      <trkpt lat="43.7504" lon="7.01853">
        <ele>1015.4000244141</ele>
        <time>2021-03-04T11:40:18.000Z</time>
      </trkpt>
      <trkpt lat="43.75036" lon="7.01853">
        <ele>1016.5999755859</ele>
        <time>2021-03-04T11:40:20.000Z</time>
      </trkpt>
      <trkpt lat="43.75034" lon="7.01855">
        <ele>1017.200012207</ele>
        <time>2021-03-04T11:40:22.000Z</time>
      </trkpt>
      <trkpt lat="43.75034" lon="7.01854">
        <ele>1018</ele>
        <time>2021-03-04T11:40:23.000Z</time>
      </trkpt>
      <trkpt lat="43.75033" lon="7.01857">
        <ele>1019</ele>
        <time>2021-03-04T11:40:26.000Z</time>
      </trkpt>
      <trkpt lat="43.75032" lon="7.01858">
        <ele>1019.799987793</ele>
        <time>2021-03-04T11:40:29.000Z</time>
      </trkpt>
      <trkpt lat="43.75032" lon="7.01858">
        <ele>1020.4000244141</ele>
        <time>2021-03-04T11:40:31.000Z</time>
      </trkpt>
      <trkpt lat="43.75031" lon="7.01858">
        <ele>1020.799987793</ele>
        <time>2021-03-04T11:40:35.000Z</time>
      </trkpt>
      <trkpt lat="43.75028" lon="7.01858">
        <ele>1020.799987793</ele>
        <time>2021-03-04T11:40:37.000Z</time>
      </trkpt>
      <trkpt lat="43.75021" lon="7.01859">
        <ele>1021.5999755859</ele>
        <time>2021-03-04T11:40:41.000Z</time>
      </trkpt>
      <trkpt lat="43.7502" lon="7.0186">
        <ele>1021.799987793</ele>
        <time>2021-03-04T11:40:42.000Z</time>
      </trkpt>
      <trkpt lat="43.75016" lon="7.01861">
        <ele>1022.5999755859</ele>
        <time>2021-03-04T11:40:44.000Z</time>
      </trkpt>
      <trkpt lat="43.75012" lon="7.01863">
        <ele>1024</ele>
        <time>2021-03-04T11:40:47.000Z</time>
      </trkpt>
      <trkpt lat="43.75011" lon="7.01864">
        <ele>1024.4000244141</ele>
        <time>2021-03-04T11:40:48.000Z</time>
      </trkpt>
      <trkpt lat="43.75009" lon="7.01865">
        <ele>1025.5999755859</ele>
        <time>2021-03-04T11:40:50.000Z</time>
      </trkpt>
      <trkpt lat="43.75005" lon="7.01869">
        <ele>1027</ele>
        <time>2021-03-04T11:40:53.000Z</time>
      </trkpt>
      <trkpt lat="43.75002" lon="7.0187">
        <ele>1027.5999755859</ele>
        <time>2021-03-04T11:40:55.000Z</time>
      </trkpt>
      <trkpt lat="43.75" lon="7.01869">
        <ele>1028</ele>
        <time>2021-03-04T11:40:56.000Z</time>
      </trkpt>
      <trkpt lat="43.74998" lon="7.01869">
        <ele>1028.1999511719</ele>
        <time>2021-03-04T11:40:57.000Z</time>
      </trkpt>
      <trkpt lat="43.74993" lon="7.01868">
        <ele>1029</ele>
        <time>2021-03-04T11:41:00.000Z</time>
      </trkpt>
      <trkpt lat="43.74986" lon="7.01866">
        <ele>1030.1999511719</ele>
        <time>2021-03-04T11:41:04.000Z</time>
      </trkpt>
      <trkpt lat="43.74979" lon="7.01866">
        <ele>1031.1999511719</ele>
        <time>2021-03-04T11:41:08.000Z</time>
      </trkpt>
      <trkpt lat="43.74975" lon="7.01869">
        <ele>1031.8000488281</ele>
        <time>2021-03-04T11:41:11.000Z</time>
      </trkpt>
      <trkpt lat="43.74972" lon="7.01871">
        <ele>1032.4000244141</ele>
        <time>2021-03-04T11:41:13.000Z</time>
      </trkpt>
      <trkpt lat="43.74966" lon="7.01872">
        <ele>1033.4000244141</ele>
        <time>2021-03-04T11:41:17.000Z</time>
      </trkpt>
      <trkpt lat="43.74964" lon="7.01872">
        <ele>1033.8000488281</ele>
        <time>2021-03-04T11:41:18.000Z</time>
      </trkpt>
      <trkpt lat="43.7496" lon="7.01872">
        <ele>1034.4000244141</ele>
        <time>2021-03-04T11:41:21.000Z</time>
      </trkpt>
      <trkpt lat="43.74957" lon="7.01873">
        <ele>1035</ele>
        <time>2021-03-04T11:41:23.000Z</time>
      </trkpt>
      <trkpt lat="43.74955" lon="7.01872">
        <ele>1035.1999511719</ele>
        <time>2021-03-04T11:41:24.000Z</time>
      </trkpt>
      <trkpt lat="43.74952" lon="7.01873">
        <ele>1035.5999755859</ele>
        <time>2021-03-04T11:41:26.000Z</time>
      </trkpt>
      <trkpt lat="43.74947" lon="7.01874">
        <ele>1036</ele>
        <time>2021-03-04T11:41:29.000Z</time>
      </trkpt>
      <trkpt lat="43.74942" lon="7.01876">
        <ele>1036.5999755859</ele>
        <time>2021-03-04T11:41:32.000Z</time>
      </trkpt>
      <trkpt lat="43.74936" lon="7.01878">
        <ele>1037.1999511719</ele>
        <time>2021-03-04T11:41:35.000Z</time>
      </trkpt>
      <trkpt lat="43.7493" lon="7.01879">
        <ele>1037.8000488281</ele>
        <time>2021-03-04T11:41:38.000Z</time>
      </trkpt>
      <trkpt lat="43.74926" lon="7.01878">
        <ele>1039</ele>
        <time>2021-03-04T11:41:40.000Z</time>
      </trkpt>
      <trkpt lat="43.74923" lon="7.01878">
        <ele>1039.5999755859</ele>
        <time>2021-03-04T11:41:42.000Z</time>
      </trkpt>
      <trkpt lat="43.74921" lon="7.0188">
        <ele>1040.1999511719</ele>
        <time>2021-03-04T11:41:43.000Z</time>
      </trkpt>
      <trkpt lat="43.74914" lon="7.01881">
        <ele>1041.4000244141</ele>
        <time>2021-03-04T11:41:47.000Z</time>
      </trkpt>
      <trkpt lat="43.74909" lon="7.01882">
        <ele>1042.4000244141</ele>
        <time>2021-03-04T11:41:51.000Z</time>
      </trkpt>
      <trkpt lat="43.74906" lon="7.01882">
        <ele>1042.8000488281</ele>
        <time>2021-03-04T11:41:53.000Z</time>
      </trkpt>
      <trkpt lat="43.74903" lon="7.01883">
        <ele>1043</ele>
        <time>2021-03-04T11:41:55.000Z</time>
      </trkpt>
      <trkpt lat="43.74897" lon="7.01882">
        <ele>1043.5999755859</ele>
        <time>2021-03-04T11:41:59.000Z</time>
      </trkpt>
      <trkpt lat="43.74894" lon="7.01882">
        <ele>1044.4000244141</ele>
        <time>2021-03-04T11:42:01.000Z</time>
      </trkpt>
      <trkpt lat="43.74892" lon="7.01883">
        <ele>1044.8000488281</ele>
        <time>2021-03-04T11:42:03.000Z</time>
      </trkpt>
      <trkpt lat="43.74892" lon="7.01883">
        <ele>1045.5999755859</ele>
        <time>2021-03-04T11:42:06.000Z</time>
      </trkpt>
      <trkpt lat="43.74891" lon="7.01883">
        <ele>1045.4000244141</ele>
        <time>2021-03-04T11:42:19.000Z</time>
      </trkpt>
      <trkpt lat="43.74888" lon="7.01881">
        <ele>1045.8000488281</ele>
        <time>2021-03-04T11:42:26.000Z</time>
      </trkpt>
      <trkpt lat="43.74888" lon="7.01881">
        <ele>1046</ele>
        <time>2021-03-04T11:42:27.000Z</time>
      </trkpt>
      <trkpt lat="43.74883" lon="7.01878">
        <ele>1046.1999511719</ele>
        <time>2021-03-04T11:42:33.000Z</time>
      </trkpt>
      <trkpt lat="43.7488" lon="7.01879">
        <ele>1047</ele>
        <time>2021-03-04T11:42:38.000Z</time>
      </trkpt>
      <trkpt lat="43.7488" lon="7.01879">
        <ele>1047.1999511719</ele>
        <time>2021-03-04T11:42:40.000Z</time>
      </trkpt>
      <trkpt lat="43.7488" lon="7.01881">
        <ele>1047.4000244141</ele>
        <time>2021-03-04T11:42:43.000Z</time>
      </trkpt>
      <trkpt lat="43.74879" lon="7.01885">
        <ele>1047.5999755859</ele>
        <time>2021-03-04T11:42:45.000Z</time>
      </trkpt>
      <trkpt lat="43.74873" lon="7.01885">
        <ele>1047.8000488281</ele>
        <time>2021-03-04T11:42:49.000Z</time>
      </trkpt>
      <trkpt lat="43.74869" lon="7.01882">
        <ele>1047.8000488281</ele>
        <time>2021-03-04T11:42:52.000Z</time>
      </trkpt>
      <trkpt lat="43.74865" lon="7.0188">
        <ele>1046.5999755859</ele>
        <time>2021-03-04T11:42:55.000Z</time>
      </trkpt>
      <trkpt lat="43.7486" lon="7.01881">
        <ele>1045.8000488281</ele>
        <time>2021-03-04T11:42:58.000Z</time>
      </trkpt>
      <trkpt lat="43.74855" lon="7.01879">
        <ele>1045.5999755859</ele>
        <time>2021-03-04T11:43:01.000Z</time>
      </trkpt>
      <trkpt lat="43.74848" lon="7.01875">
        <ele>1045.1999511719</ele>
        <time>2021-03-04T11:43:06.000Z</time>
      </trkpt>
      <trkpt lat="43.74847" lon="7.01875">
        <ele>1045.1999511719</ele>
        <time>2021-03-04T11:43:07.000Z</time>
      </trkpt>
      <trkpt lat="43.74845" lon="7.01873">
        <ele>1044.4000244141</ele>
        <time>2021-03-04T11:43:10.000Z</time>
      </trkpt>
      <trkpt lat="43.74844" lon="7.01872">
        <ele>1044.1999511719</ele>
        <time>2021-03-04T11:43:11.000Z</time>
      </trkpt>
      <trkpt lat="43.74845" lon="7.01874">
        <ele>1043.8000488281</ele>
        <time>2021-03-04T11:43:26.000Z</time>
      </trkpt>
      <trkpt lat="43.74848" lon="7.01875">
        <ele>1044.8000488281</ele>
        <time>2021-03-04T11:43:32.000Z</time>
      </trkpt>
      <trkpt lat="43.7485" lon="7.01876">
        <ele>1045.1999511719</ele>
        <time>2021-03-04T11:43:36.000Z</time>
      </trkpt>
      <trkpt lat="43.74851" lon="7.01877">
        <ele>1045.1999511719</ele>
        <time>2021-03-04T11:43:37.000Z</time>
      </trkpt>
      <trkpt lat="43.74855" lon="7.0188">
        <ele>1045.1999511719</ele>
        <time>2021-03-04T11:43:40.000Z</time>
      </trkpt>
      <trkpt lat="43.74859" lon="7.01882">
        <ele>1045.1999511719</ele>
        <time>2021-03-04T11:43:42.000Z</time>
      </trkpt>
      <trkpt lat="43.74862" lon="7.01884">
        <ele>1045.5999755859</ele>
        <time>2021-03-04T11:43:44.000Z</time>
      </trkpt>
      <trkpt lat="43.74864" lon="7.01885">
        <ele>1045.5999755859</ele>
        <time>2021-03-04T11:43:45.000Z</time>
      </trkpt>
      <trkpt lat="43.74865" lon="7.0189">
        <ele>1046</ele>
        <time>2021-03-04T11:43:47.000Z</time>
      </trkpt>
      <trkpt lat="43.74865" lon="7.01898">
        <ele>1046.8000488281</ele>
        <time>2021-03-04T11:43:50.000Z</time>
      </trkpt>
      <trkpt lat="43.74865" lon="7.019">
        <ele>1047</ele>
        <time>2021-03-04T11:43:51.000Z</time>
      </trkpt>
      <trkpt lat="43.74865" lon="7.01904">
        <ele>1047.5999755859</ele>
        <time>2021-03-04T11:43:53.000Z</time>
      </trkpt>
      <trkpt lat="43.74865" lon="7.01905">
        <ele>1047.8000488281</ele>
        <time>2021-03-04T11:43:54.000Z</time>
      </trkpt>
      <trkpt lat="43.74863" lon="7.0191">
        <ele>1048.1999511719</ele>
        <time>2021-03-04T11:43:57.000Z</time>
      </trkpt>
      <trkpt lat="43.74861" lon="7.01911">
        <ele>1048.4000244141</ele>
        <time>2021-03-04T11:43:59.000Z</time>
      </trkpt>
      <trkpt lat="43.74855" lon="7.01916">
        <ele>1049</ele>
        <time>2021-03-04T11:44:03.000Z</time>
      </trkpt>
      <trkpt lat="43.74851" lon="7.01921">
        <ele>1050.5999755859</ele>
        <time>2021-03-04T11:44:06.000Z</time>
      </trkpt>
      <trkpt lat="43.74847" lon="7.01922">
        <ele>1051.5999755859</ele>
        <time>2021-03-04T11:44:09.000Z</time>
      </trkpt>
      <trkpt lat="43.74845" lon="7.01923">
        <ele>1052</ele>
        <time>2021-03-04T11:44:11.000Z</time>
      </trkpt>
      <trkpt lat="43.74841" lon="7.01923">
        <ele>1052.5999755859</ele>
        <time>2021-03-04T11:44:13.000Z</time>
      </trkpt>
      <trkpt lat="43.74839" lon="7.01924">
        <ele>1053.5999755859</ele>
        <time>2021-03-04T11:44:16.000Z</time>
      </trkpt>
      <trkpt lat="43.74838" lon="7.01924">
        <ele>1053.8000488281</ele>
        <time>2021-03-04T11:44:17.000Z</time>
      </trkpt>
      <trkpt lat="43.74838" lon="7.01924">
        <ele>1055</ele>
        <time>2021-03-04T11:44:21.000Z</time>
      </trkpt>
      <trkpt lat="43.74838" lon="7.01924">
        <ele>1055.5999755859</ele>
        <time>2021-03-04T11:44:27.000Z</time>
      </trkpt>
      <trkpt lat="43.74838" lon="7.01924">
        <ele>1055.4000244141</ele>
        <time>2021-03-04T11:44:38.000Z</time>
      </trkpt>
      <trkpt lat="43.74834" lon="7.01924">
        <ele>1055</ele>
        <time>2021-03-04T11:44:47.000Z</time>
      </trkpt>
      <trkpt lat="43.7483" lon="7.01925">
        <ele>1055.8000488281</ele>
        <time>2021-03-04T11:44:54.000Z</time>
      </trkpt>
      <trkpt lat="43.74827" lon="7.01924">
        <ele>1056.1999511719</ele>
        <time>2021-03-04T11:44:57.000Z</time>
      </trkpt>
      <trkpt lat="43.74826" lon="7.01924">
        <ele>1057</ele>
        <time>2021-03-04T11:45:02.000Z</time>
      </trkpt>
      <trkpt lat="43.74821" lon="7.01922">
        <ele>1057</ele>
        <time>2021-03-04T11:45:05.000Z</time>
      </trkpt>
      <trkpt lat="43.74814" lon="7.0192">
        <ele>1057.1999511719</ele>
        <time>2021-03-04T11:45:08.000Z</time>
      </trkpt>
      <trkpt lat="43.74809" lon="7.01919">
        <ele>1058.1999511719</ele>
        <time>2021-03-04T11:45:11.000Z</time>
      </trkpt>
      <trkpt lat="43.74806" lon="7.01919">
        <ele>1058.5999755859</ele>
        <time>2021-03-04T11:45:12.000Z</time>
      </trkpt>
      <trkpt lat="43.748" lon="7.01919">
        <ele>1059.8000488281</ele>
        <time>2021-03-04T11:45:15.000Z</time>
      </trkpt>
      <trkpt lat="43.74796" lon="7.0192">
        <ele>1061.1999511719</ele>
        <time>2021-03-04T11:45:18.000Z</time>
      </trkpt>
      <trkpt lat="43.74794" lon="7.0192">
        <ele>1062</ele>
        <time>2021-03-04T11:45:20.000Z</time>
      </trkpt>
      <trkpt lat="43.74793" lon="7.0192">
        <ele>1062.4000244141</ele>
        <time>2021-03-04T11:45:21.000Z</time>
      </trkpt>
      <trkpt lat="43.74792" lon="7.0192">
        <ele>1062.8000488281</ele>
        <time>2021-03-04T11:45:22.000Z</time>
      </trkpt>
      <trkpt lat="43.74789" lon="7.01919">
        <ele>1063.4000244141</ele>
        <time>2021-03-04T11:45:24.000Z</time>
      </trkpt>
      <trkpt lat="43.74784" lon="7.01919">
        <ele>1064.1999511719</ele>
        <time>2021-03-04T11:45:27.000Z</time>
      </trkpt>
      <trkpt lat="43.74784" lon="7.01919">
        <ele>1064.4000244141</ele>
        <time>2021-03-04T11:45:29.000Z</time>
      </trkpt>
      <trkpt lat="43.74784" lon="7.01919">
        <ele>1064.8000488281</ele>
        <time>2021-03-04T11:45:31.000Z</time>
      </trkpt>
      <trkpt lat="43.74783" lon="7.01919">
        <ele>1065.1999511719</ele>
        <time>2021-03-04T11:45:34.000Z</time>
      </trkpt>
      <trkpt lat="43.7478" lon="7.0192">
        <ele>1065</ele>
        <time>2021-03-04T11:45:36.000Z</time>
      </trkpt>
      <trkpt lat="43.74775" lon="7.01923">
        <ele>1065.4000244141</ele>
        <time>2021-03-04T11:45:40.000Z</time>
      </trkpt>
      <trkpt lat="43.74773" lon="7.01923">
        <ele>1065.5999755859</ele>
        <time>2021-03-04T11:45:41.000Z</time>
      </trkpt>
      <trkpt lat="43.7477" lon="7.01923">
        <ele>1066.1999511719</ele>
        <time>2021-03-04T11:45:43.000Z</time>
      </trkpt>
      <trkpt lat="43.74767" lon="7.01924">
        <ele>1066.8000488281</ele>
        <time>2021-03-04T11:45:45.000Z</time>
      </trkpt>
      <trkpt lat="43.74763" lon="7.01926">
        <ele>1067.1999511719</ele>
        <time>2021-03-04T11:45:47.000Z</time>
      </trkpt>
      <trkpt lat="43.74759" lon="7.01925">
        <ele>1067.8000488281</ele>
        <time>2021-03-04T11:45:49.000Z</time>
      </trkpt>
      <trkpt lat="43.74757" lon="7.01924">
        <ele>1068.4000244141</ele>
        <time>2021-03-04T11:45:50.000Z</time>
      </trkpt>
      <trkpt lat="43.74755" lon="7.01924">
        <ele>1069</ele>
        <time>2021-03-04T11:45:51.000Z</time>
      </trkpt>
      <trkpt lat="43.74749" lon="7.01922">
        <ele>1070</ele>
        <time>2021-03-04T11:45:54.000Z</time>
      </trkpt>
      <trkpt lat="43.74745" lon="7.01919">
        <ele>1070.1999511719</ele>
        <time>2021-03-04T11:45:56.000Z</time>
      </trkpt>
      <trkpt lat="43.74741" lon="7.01919">
        <ele>1070.5999755859</ele>
        <time>2021-03-04T11:45:58.000Z</time>
      </trkpt>
      <trkpt lat="43.74738" lon="7.01922">
        <ele>1071.1999511719</ele>
        <time>2021-03-04T11:46:00.000Z</time>
      </trkpt>
      <trkpt lat="43.74731" lon="7.01923">
        <ele>1072.5999755859</ele>
        <time>2021-03-04T11:46:03.000Z</time>
      </trkpt>
      <trkpt lat="43.74727" lon="7.01925">
        <ele>1073</ele>
        <time>2021-03-04T11:46:05.000Z</time>
      </trkpt>
      <trkpt lat="43.74717" lon="7.01926">
        <ele>1073.8000488281</ele>
        <time>2021-03-04T11:46:10.000Z</time>
      </trkpt>
      <trkpt lat="43.74715" lon="7.01926">
        <ele>1074.1999511719</ele>
        <time>2021-03-04T11:46:11.000Z</time>
      </trkpt>
      <trkpt lat="43.74712" lon="7.01922">
        <ele>1075</ele>
        <time>2021-03-04T11:46:13.000Z</time>
      </trkpt>
      <trkpt lat="43.7471" lon="7.01921">
        <ele>1076</ele>
        <time>2021-03-04T11:46:15.000Z</time>
      </trkpt>
      <trkpt lat="43.7471" lon="7.01921">
        <ele>1076.1999511719</ele>
        <time>2021-03-04T11:46:16.000Z</time>
      </trkpt>
      <trkpt lat="43.74708" lon="7.01921">
        <ele>1077</ele>
        <time>2021-03-04T11:46:19.000Z</time>
      </trkpt>
      <trkpt lat="43.74706" lon="7.01922">
        <ele>1077.1999511719</ele>
        <time>2021-03-04T11:46:22.000Z</time>
      </trkpt>
      <trkpt lat="43.74706" lon="7.01922">
        <ele>1077.4000244141</ele>
        <time>2021-03-04T11:46:24.000Z</time>
      </trkpt>
      <trkpt lat="43.74706" lon="7.01924">
        <ele>1077.4000244141</ele>
        <time>2021-03-04T11:46:25.000Z</time>
      </trkpt>
      <trkpt lat="43.74705" lon="7.01932">
        <ele>1077.8000488281</ele>
        <time>2021-03-04T11:46:29.000Z</time>
      </trkpt>
      <trkpt lat="43.74705" lon="7.01935">
        <ele>1077.8000488281</ele>
        <time>2021-03-04T11:46:30.000Z</time>
      </trkpt>
      <trkpt lat="43.74705" lon="7.0194">
        <ele>1078</ele>
        <time>2021-03-04T11:46:32.000Z</time>
      </trkpt>
      <trkpt lat="43.74706" lon="7.01945">
        <ele>1078</ele>
        <time>2021-03-04T11:46:34.000Z</time>
      </trkpt>
      <trkpt lat="43.74701" lon="7.01953">
        <ele>1078.1999511719</ele>
        <time>2021-03-04T11:46:38.000Z</time>
      </trkpt>
      <trkpt lat="43.747" lon="7.01953">
        <ele>1078.5999755859</ele>
        <time>2021-03-04T11:46:39.000Z</time>
      </trkpt>
      <trkpt lat="43.74698" lon="7.01953">
        <ele>1079</ele>
        <time>2021-03-04T11:46:40.000Z</time>
      </trkpt>
      <trkpt lat="43.74696" lon="7.01952">
        <ele>1079.8000488281</ele>
        <time>2021-03-04T11:46:42.000Z</time>
      </trkpt>
      <trkpt lat="43.74696" lon="7.01952">
        <ele>1080.4000244141</ele>
        <time>2021-03-04T11:46:43.000Z</time>
      </trkpt>
      <trkpt lat="43.74696" lon="7.01952">
        <ele>1081</ele>
        <time>2021-03-04T11:46:45.000Z</time>
      </trkpt>
      <trkpt lat="43.74694" lon="7.01954">
        <ele>1081.5999755859</ele>
        <time>2021-03-04T11:46:50.000Z</time>
      </trkpt>
      <trkpt lat="43.74693" lon="7.01955">
        <ele>1082.1999511719</ele>
        <time>2021-03-04T11:46:53.000Z</time>
      </trkpt>
      <trkpt lat="43.74692" lon="7.01956">
        <ele>1082.4000244141</ele>
        <time>2021-03-04T11:46:56.000Z</time>
      </trkpt>
      <trkpt lat="43.74691" lon="7.01957">
        <ele>1082.4000244141</ele>
        <time>2021-03-04T11:46:57.000Z</time>
      </trkpt>
      <trkpt lat="43.74688" lon="7.01961">
        <ele>1082.4000244141</ele>
        <time>2021-03-04T11:47:00.000Z</time>
      </trkpt>
      <trkpt lat="43.74688" lon="7.01963">
        <ele>1083.1999511719</ele>
        <time>2021-03-04T11:47:04.000Z</time>
      </trkpt>
      <trkpt lat="43.74688" lon="7.01963">
        <ele>1083.4000244141</ele>
        <time>2021-03-04T11:47:05.000Z</time>
      </trkpt>
      <trkpt lat="43.74688" lon="7.01965">
        <ele>1083.8000488281</ele>
        <time>2021-03-04T11:47:09.000Z</time>
      </trkpt>
      <trkpt lat="43.74688" lon="7.0197">
        <ele>1084.4000244141</ele>
        <time>2021-03-04T11:47:14.000Z</time>
      </trkpt>
      <trkpt lat="43.74688" lon="7.01971">
        <ele>1084.5999755859</ele>
        <time>2021-03-04T11:47:15.000Z</time>
      </trkpt>
      <trkpt lat="43.74686" lon="7.01972">
        <ele>1085.1999511719</ele>
        <time>2021-03-04T11:47:21.000Z</time>
      </trkpt>
      <trkpt lat="43.74684" lon="7.01972">
        <ele>1085.1999511719</ele>
        <time>2021-03-04T11:47:24.000Z</time>
      </trkpt>
      <trkpt lat="43.74681" lon="7.01974">
        <ele>1085.4000244141</ele>
        <time>2021-03-04T11:47:26.000Z</time>
      </trkpt>
      <trkpt lat="43.74679" lon="7.01975">
        <ele>1085.4000244141</ele>
        <time>2021-03-04T11:47:27.000Z</time>
      </trkpt>
      <trkpt lat="43.74675" lon="7.01977">
        <ele>1086.4000244141</ele>
        <time>2021-03-04T11:47:31.000Z</time>
      </trkpt>
      <trkpt lat="43.74675" lon="7.01977">
        <ele>1086.8000488281</ele>
        <time>2021-03-04T11:47:32.000Z</time>
      </trkpt>
      <trkpt lat="43.74671" lon="7.01979">
        <ele>1087.5999755859</ele>
        <time>2021-03-04T11:47:35.000Z</time>
      </trkpt>
      <trkpt lat="43.74669" lon="7.01979">
        <ele>1088</ele>
        <time>2021-03-04T11:47:36.000Z</time>
      </trkpt>
      <trkpt lat="43.74662" lon="7.0198">
        <ele>1088.5999755859</ele>
        <time>2021-03-04T11:47:39.000Z</time>
      </trkpt>
      <trkpt lat="43.7466" lon="7.01981">
        <ele>1089</ele>
        <time>2021-03-04T11:47:40.000Z</time>
      </trkpt>
      <trkpt lat="43.74654" lon="7.01987">
        <ele>1090</ele>
        <time>2021-03-04T11:47:43.000Z</time>
      </trkpt>
      <trkpt lat="43.74652" lon="7.01987">
        <ele>1090.4000244141</ele>
        <time>2021-03-04T11:47:44.000Z</time>
      </trkpt>
      <trkpt lat="43.74649" lon="7.01985">
        <ele>1091.1999511719</ele>
        <time>2021-03-04T11:47:46.000Z</time>
      </trkpt>
      <trkpt lat="43.74643" lon="7.01986">
        <ele>1092</ele>
        <time>2021-03-04T11:47:48.000Z</time>
      </trkpt>
      <trkpt lat="43.74641" lon="7.01987">
        <ele>1092.1999511719</ele>
        <time>2021-03-04T11:47:49.000Z</time>
      </trkpt>
      <trkpt lat="43.74639" lon="7.01987">
        <ele>1092.4000244141</ele>
        <time>2021-03-04T11:47:50.000Z</time>
      </trkpt>
      <trkpt lat="43.74638" lon="7.01988">
        <ele>1092.4000244141</ele>
        <time>2021-03-04T11:47:51.000Z</time>
      </trkpt>
      <trkpt lat="43.74638" lon="7.01989">
        <ele>1092.8000488281</ele>
        <time>2021-03-04T11:47:52.000Z</time>
      </trkpt>
      <trkpt lat="43.74637" lon="7.01989">
        <ele>1093.5999755859</ele>
        <time>2021-03-04T11:47:57.000Z</time>
      </trkpt>
      <trkpt lat="43.74638" lon="7.01991">
        <ele>1093.8000488281</ele>
        <time>2021-03-04T11:47:58.000Z</time>
      </trkpt>
      <trkpt lat="43.74638" lon="7.01995">
        <ele>1094.1999511719</ele>
        <time>2021-03-04T11:48:05.000Z</time>
      </trkpt>
      <trkpt lat="43.74639" lon="7.01997">
        <ele>1094.8000488281</ele>
        <time>2021-03-04T11:48:10.000Z</time>
      </trkpt>
      <trkpt lat="43.74639" lon="7.01999">
        <ele>1095.1999511719</ele>
        <time>2021-03-04T11:48:13.000Z</time>
      </trkpt>
      <trkpt lat="43.74639" lon="7.01999">
        <ele>1095.4000244141</ele>
        <time>2021-03-04T11:48:21.000Z</time>
      </trkpt>
      <trkpt lat="43.74639" lon="7.02">
        <ele>1095.1999511719</ele>
        <time>2021-03-04T11:48:39.000Z</time>
      </trkpt>
      <trkpt lat="43.74638" lon="7.02003">
        <ele>1095.5999755859</ele>
        <time>2021-03-04T11:48:45.000Z</time>
      </trkpt>
      <trkpt lat="43.74638" lon="7.02004">
        <ele>1095.8000488281</ele>
        <time>2021-03-04T11:48:48.000Z</time>
      </trkpt>
      <trkpt lat="43.74637" lon="7.02005">
        <ele>1096.4000244141</ele>
        <time>2021-03-04T11:48:53.000Z</time>
      </trkpt>
      <trkpt lat="43.74637" lon="7.02005">
        <ele>1097</ele>
        <time>2021-03-04T11:48:56.000Z</time>
      </trkpt>
      <trkpt lat="43.74637" lon="7.02005">
        <ele>1097.1999511719</ele>
        <time>2021-03-04T11:49:05.000Z</time>
      </trkpt>
      <trkpt lat="43.74637" lon="7.02006">
        <ele>1097</ele>
        <time>2021-03-04T11:49:12.000Z</time>
      </trkpt>
      <trkpt lat="43.74636" lon="7.02008">
        <ele>1097.8000488281</ele>
        <time>2021-03-04T11:49:19.000Z</time>
      </trkpt>
      <trkpt lat="43.74636" lon="7.02009">
        <ele>1098</ele>
        <time>2021-03-04T11:49:23.000Z</time>
      </trkpt>
      <trkpt lat="43.74636" lon="7.02009">
        <ele>1098.4000244141</ele>
        <time>2021-03-04T11:49:25.000Z</time>
      </trkpt>
      <trkpt lat="43.74636" lon="7.0201">
        <ele>1098.5999755859</ele>
        <time>2021-03-04T11:49:32.000Z</time>
      </trkpt>
      <trkpt lat="43.74635" lon="7.02012">
        <ele>1098.5999755859</ele>
        <time>2021-03-04T11:49:38.000Z</time>
      </trkpt>
      <trkpt lat="43.74635" lon="7.02013">
        <ele>1099</ele>
        <time>2021-03-04T11:49:40.000Z</time>
      </trkpt>
      <trkpt lat="43.74633" lon="7.02015">
        <ele>1100.1999511719</ele>
        <time>2021-03-04T11:49:45.000Z</time>
      </trkpt>
      <trkpt lat="43.74631" lon="7.02017">
        <ele>1101.4000244141</ele>
        <time>2021-03-04T11:49:51.000Z</time>
      </trkpt>
      <trkpt lat="43.74631" lon="7.02018">
        <ele>1101.8000488281</ele>
        <time>2021-03-04T11:49:53.000Z</time>
      </trkpt>
      <trkpt lat="43.74631" lon="7.0202">
        <ele>1102.4000244141</ele>
        <time>2021-03-04T11:49:57.000Z</time>
      </trkpt>
      <trkpt lat="43.74631" lon="7.02021">
        <ele>1102.8000488281</ele>
        <time>2021-03-04T11:49:59.000Z</time>
      </trkpt>
      <trkpt lat="43.74631" lon="7.02022">
        <ele>1103.4000244141</ele>
        <time>2021-03-04T11:50:03.000Z</time>
      </trkpt>
      <trkpt lat="43.74631" lon="7.02021">
        <ele>1103.8000488281</ele>
        <time>2021-03-04T11:50:06.000Z</time>
      </trkpt>
      <trkpt lat="43.74633" lon="7.02024">
        <ele>1104</ele>
        <time>2021-03-04T11:50:13.000Z</time>
      </trkpt>
      <trkpt lat="43.74631" lon="7.02027">
        <ele>1104.5999755859</ele>
        <time>2021-03-04T11:50:19.000Z</time>
      </trkpt>
      <trkpt lat="43.7463" lon="7.02029">
        <ele>1105.5999755859</ele>
        <time>2021-03-04T11:50:24.000Z</time>
      </trkpt>
      <trkpt lat="43.7463" lon="7.02029">
        <ele>1105.8000488281</ele>
        <time>2021-03-04T11:50:25.000Z</time>
      </trkpt>
      <trkpt lat="43.74629" lon="7.02031">
        <ele>1106.4000244141</ele>
        <time>2021-03-04T11:50:30.000Z</time>
      </trkpt>
      <trkpt lat="43.74629" lon="7.02031">
        <ele>1106.5999755859</ele>
        <time>2021-03-04T11:50:33.000Z</time>
      </trkpt>
      <trkpt lat="43.74628" lon="7.02032">
        <ele>1106.5999755859</ele>
        <time>2021-03-04T11:50:39.000Z</time>
      </trkpt>
      <trkpt lat="43.74626" lon="7.02036">
        <ele>1106.8000488281</ele>
        <time>2021-03-04T11:50:42.000Z</time>
      </trkpt>
      <trkpt lat="43.74626" lon="7.02036">
        <ele>1107.4000244141</ele>
        <time>2021-03-04T11:50:44.000Z</time>
      </trkpt>
      <trkpt lat="43.74626" lon="7.02036">
        <ele>1107.8000488281</ele>
        <time>2021-03-04T11:50:46.000Z</time>
      </trkpt>
      <trkpt lat="43.74626" lon="7.02036">
        <ele>1107.5999755859</ele>
        <time>2021-03-04T11:50:54.000Z</time>
      </trkpt>
      <trkpt lat="43.74624" lon="7.02042">
        <ele>1108.1999511719</ele>
        <time>2021-03-04T11:51:01.000Z</time>
      </trkpt>
      <trkpt lat="43.74623" lon="7.02044">
        <ele>1108.8000488281</ele>
        <time>2021-03-04T11:51:04.000Z</time>
      </trkpt>
      <trkpt lat="43.74622" lon="7.02047">
        <ele>1109.4000244141</ele>
        <time>2021-03-04T11:51:07.000Z</time>
      </trkpt>
      <trkpt lat="43.74622" lon="7.02048">
        <ele>1109.8000488281</ele>
        <time>2021-03-04T11:51:08.000Z</time>
      </trkpt>
      <trkpt lat="43.74621" lon="7.02049">
        <ele>1110</ele>
        <time>2021-03-04T11:51:09.000Z</time>
      </trkpt>
      <trkpt lat="43.74622" lon="7.0205">
        <ele>1110.4000244141</ele>
        <time>2021-03-04T11:51:12.000Z</time>
      </trkpt>
      <trkpt lat="43.74622" lon="7.02062">
        <ele>1110</ele>
        <time>2021-03-04T11:51:17.000Z</time>
      </trkpt>
      <trkpt lat="43.74621" lon="7.02073">
        <ele>1110.1999511719</ele>
        <time>2021-03-04T11:51:21.000Z</time>
      </trkpt>
      <trkpt lat="43.74619" lon="7.02075">
        <ele>1110.1999511719</ele>
        <time>2021-03-04T11:51:22.000Z</time>
      </trkpt>
      <trkpt lat="43.74605" lon="7.02077">
        <ele>1110.5999755859</ele>
        <time>2021-03-04T11:51:29.000Z</time>
      </trkpt>
      <trkpt lat="43.74602" lon="7.02079">
        <ele>1111</ele>
        <time>2021-03-04T11:51:31.000Z</time>
      </trkpt>
      <trkpt lat="43.74599" lon="7.0208">
        <ele>1112.1999511719</ele>
        <time>2021-03-04T11:51:34.000Z</time>
      </trkpt>
      <trkpt lat="43.74599" lon="7.0208">
        <ele>1113.1999511719</ele>
        <time>2021-03-04T11:51:36.000Z</time>
      </trkpt>
      <trkpt lat="43.74597" lon="7.02082">
        <ele>1114</ele>
        <time>2021-03-04T11:51:39.000Z</time>
      </trkpt>
      <trkpt lat="43.74597" lon="7.02083">
        <ele>1114.1999511719</ele>
        <time>2021-03-04T11:51:41.000Z</time>
      </trkpt>
      <trkpt lat="43.74596" lon="7.02083">
        <ele>1114.4000244141</ele>
        <time>2021-03-04T11:51:43.000Z</time>
      </trkpt>
      <trkpt lat="43.74593" lon="7.02082">
        <ele>1115.4000244141</ele>
        <time>2021-03-04T11:51:48.000Z</time>
      </trkpt>
      <trkpt lat="43.74592" lon="7.02082">
        <ele>1115.4000244141</ele>
        <time>2021-03-04T11:51:49.000Z</time>
      </trkpt>
      <trkpt lat="43.74589" lon="7.02086">
        <ele>1116.4000244141</ele>
        <time>2021-03-04T11:51:57.000Z</time>
      </trkpt>
      <trkpt lat="43.74588" lon="7.02087">
        <ele>1116.5999755859</ele>
        <time>2021-03-04T11:51:58.000Z</time>
      </trkpt>
      <trkpt lat="43.74585" lon="7.02091">
        <ele>1117.5999755859</ele>
        <time>2021-03-04T11:52:06.000Z</time>
      </trkpt>
      <trkpt lat="43.74583" lon="7.02094">
        <ele>1118.8000488281</ele>
        <time>2021-03-04T11:52:11.000Z</time>
      </trkpt>
      <trkpt lat="43.74582" lon="7.02095">
        <ele>1119</ele>
        <time>2021-03-04T11:52:12.000Z</time>
      </trkpt>
      <trkpt lat="43.7458" lon="7.02098">
        <ele>1119.8000488281</ele>
        <time>2021-03-04T11:52:19.000Z</time>
      </trkpt>
      <trkpt lat="43.74579" lon="7.02102">
        <ele>1121</ele>
        <time>2021-03-04T11:52:24.000Z</time>
      </trkpt>
      <trkpt lat="43.74579" lon="7.02102">
        <ele>1121.1999511719</ele>
        <time>2021-03-04T11:52:25.000Z</time>
      </trkpt>
      <trkpt lat="43.74578" lon="7.02103">
        <ele>1121.5999755859</ele>
        <time>2021-03-04T11:52:32.000Z</time>
      </trkpt>
      <trkpt lat="43.74576" lon="7.02104">
        <ele>1122</ele>
        <time>2021-03-04T11:52:38.000Z</time>
      </trkpt>
      <trkpt lat="43.74576" lon="7.02104">
        <ele>1122</ele>
        <time>2021-03-04T11:52:39.000Z</time>
      </trkpt>
      <trkpt lat="43.74574" lon="7.02106">
        <ele>1122.5999755859</ele>
        <time>2021-03-04T11:52:47.000Z</time>
      </trkpt>
      <trkpt lat="43.74574" lon="7.02107">
        <ele>1123</ele>
        <time>2021-03-04T11:52:49.000Z</time>
      </trkpt>
      <trkpt lat="43.74572" lon="7.0211">
        <ele>1123.4000244141</ele>
        <time>2021-03-04T11:52:54.000Z</time>
      </trkpt>
      <trkpt lat="43.7457" lon="7.02113">
        <ele>1124.4000244141</ele>
        <time>2021-03-04T11:52:58.000Z</time>
      </trkpt>
      <trkpt lat="43.74569" lon="7.02116">
        <ele>1125</ele>
        <time>2021-03-04T11:53:02.000Z</time>
      </trkpt>
      <trkpt lat="43.74568" lon="7.02118">
        <ele>1125.4000244141</ele>
        <time>2021-03-04T11:53:04.000Z</time>
      </trkpt>
      <trkpt lat="43.74567" lon="7.02118">
        <ele>1125.8000488281</ele>
        <time>2021-03-04T11:53:05.000Z</time>
      </trkpt>
      <trkpt lat="43.74567" lon="7.02119">
        <ele>1126.4000244141</ele>
        <time>2021-03-04T11:53:08.000Z</time>
      </trkpt>
      <trkpt lat="43.74565" lon="7.0212">
        <ele>1126.4000244141</ele>
        <time>2021-03-04T11:53:17.000Z</time>
      </trkpt>
      <trkpt lat="43.74564" lon="7.02123">
        <ele>1127.1999511719</ele>
        <time>2021-03-04T11:53:23.000Z</time>
      </trkpt>
      <trkpt lat="43.74563" lon="7.02124">
        <ele>1127.5999755859</ele>
        <time>2021-03-04T11:53:26.000Z</time>
      </trkpt>
      <trkpt lat="43.74564" lon="7.02124">
        <ele>1128</ele>
        <time>2021-03-04T11:53:29.000Z</time>
      </trkpt>
      <trkpt lat="43.74563" lon="7.02127">
        <ele>1128</ele>
        <time>2021-03-04T11:53:37.000Z</time>
      </trkpt>
      <trkpt lat="43.74563" lon="7.02135">
        <ele>1128.8000488281</ele>
        <time>2021-03-04T11:53:42.000Z</time>
      </trkpt>
      <trkpt lat="43.74561" lon="7.02142">
        <ele>1129.8000488281</ele>
        <time>2021-03-04T11:53:47.000Z</time>
      </trkpt>
      <trkpt lat="43.74561" lon="7.02143">
        <ele>1130</ele>
        <time>2021-03-04T11:53:48.000Z</time>
      </trkpt>
      <trkpt lat="43.74557" lon="7.02149">
        <ele>1131</ele>
        <time>2021-03-04T11:53:52.000Z</time>
      </trkpt>
      <trkpt lat="43.74556" lon="7.02151">
        <ele>1131.4000244141</ele>
        <time>2021-03-04T11:53:53.000Z</time>
      </trkpt>
      <trkpt lat="43.74555" lon="7.02156">
        <ele>1132.1999511719</ele>
        <time>2021-03-04T11:53:55.000Z</time>
      </trkpt>
      <trkpt lat="43.74551" lon="7.02162">
        <ele>1133.1999511719</ele>
        <time>2021-03-04T11:53:59.000Z</time>
      </trkpt>
      <trkpt lat="43.74548" lon="7.02172">
        <ele>1134.1999511719</ele>
        <time>2021-03-04T11:54:03.000Z</time>
      </trkpt>
      <trkpt lat="43.74548" lon="7.02174">
        <ele>1134.5999755859</ele>
        <time>2021-03-04T11:54:04.000Z</time>
      </trkpt>
      <trkpt lat="43.74546" lon="7.02176">
        <ele>1134.8000488281</ele>
        <time>2021-03-04T11:54:05.000Z</time>
      </trkpt>
      <trkpt lat="43.74543" lon="7.02182">
        <ele>1136</ele>
        <time>2021-03-04T11:54:08.000Z</time>
      </trkpt>
      <trkpt lat="43.7454" lon="7.02186">
        <ele>1137</ele>
        <time>2021-03-04T11:54:10.000Z</time>
      </trkpt>
      <trkpt lat="43.74538" lon="7.02188">
        <ele>1137.5999755859</ele>
        <time>2021-03-04T11:54:11.000Z</time>
      </trkpt>
      <trkpt lat="43.74537" lon="7.0219">
        <ele>1138.4000244141</ele>
        <time>2021-03-04T11:54:12.000Z</time>
      </trkpt>
      <trkpt lat="43.74535" lon="7.02194">
        <ele>1139.5999755859</ele>
        <time>2021-03-04T11:54:14.000Z</time>
      </trkpt>
      <trkpt lat="43.74533" lon="7.02196">
        <ele>1139.8000488281</ele>
        <time>2021-03-04T11:54:15.000Z</time>
      </trkpt>
      <trkpt lat="43.74531" lon="7.022">
        <ele>1140.8000488281</ele>
        <time>2021-03-04T11:54:17.000Z</time>
      </trkpt>
      <trkpt lat="43.74529" lon="7.02202">
        <ele>1141.1999511719</ele>
        <time>2021-03-04T11:54:18.000Z</time>
      </trkpt>
      <trkpt lat="43.74526" lon="7.02204">
        <ele>1142</ele>
        <time>2021-03-04T11:54:20.000Z</time>
      </trkpt>
      <trkpt lat="43.74522" lon="7.02209">
        <ele>1143.1999511719</ele>
        <time>2021-03-04T11:54:23.000Z</time>
      </trkpt>
      <trkpt lat="43.74518" lon="7.02212">
        <ele>1144.4000244141</ele>
        <time>2021-03-04T11:54:26.000Z</time>
      </trkpt>
      <trkpt lat="43.74514" lon="7.02218">
        <ele>1145.5999755859</ele>
        <time>2021-03-04T11:54:29.000Z</time>
      </trkpt>
      <trkpt lat="43.74512" lon="7.02222">
        <ele>1146.8000488281</ele>
        <time>2021-03-04T11:54:31.000Z</time>
      </trkpt>
      <trkpt lat="43.74511" lon="7.02224">
        <ele>1147.4000244141</ele>
        <time>2021-03-04T11:54:32.000Z</time>
      </trkpt>
      <trkpt lat="43.74511" lon="7.02226">
        <ele>1148</ele>
        <time>2021-03-04T11:54:33.000Z</time>
      </trkpt>
      <trkpt lat="43.74509" lon="7.0223">
        <ele>1149</ele>
        <time>2021-03-04T11:54:35.000Z</time>
      </trkpt>
      <trkpt lat="43.74506" lon="7.02238">
        <ele>1150.1999511719</ele>
        <time>2021-03-04T11:54:38.000Z</time>
      </trkpt>
      <trkpt lat="43.74504" lon="7.02244">
        <ele>1151.5999755859</ele>
        <time>2021-03-04T11:54:41.000Z</time>
      </trkpt>
      <trkpt lat="43.74502" lon="7.02249">
        <ele>1152.4000244141</ele>
        <time>2021-03-04T11:54:43.000Z</time>
      </trkpt>
      <trkpt lat="43.74502" lon="7.02252">
        <ele>1152.8000488281</ele>
        <time>2021-03-04T11:54:44.000Z</time>
      </trkpt>
      <trkpt lat="43.745" lon="7.02256">
        <ele>1153.8000488281</ele>
        <time>2021-03-04T11:54:46.000Z</time>
      </trkpt>
      <trkpt lat="43.74498" lon="7.0226">
        <ele>1155</ele>
        <time>2021-03-04T11:54:48.000Z</time>
      </trkpt>
      <trkpt lat="43.74497" lon="7.02262">
        <ele>1155.1999511719</ele>
        <time>2021-03-04T11:54:49.000Z</time>
      </trkpt>
      <trkpt lat="43.74497" lon="7.02266">
        <ele>1156.1999511719</ele>
        <time>2021-03-04T11:54:51.000Z</time>
      </trkpt>
      <trkpt lat="43.74497" lon="7.02268">
        <ele>1156.5999755859</ele>
        <time>2021-03-04T11:54:52.000Z</time>
      </trkpt>
      <trkpt lat="43.74496" lon="7.02272">
        <ele>1157.1999511719</ele>
        <time>2021-03-04T11:54:54.000Z</time>
      </trkpt>
      <trkpt lat="43.74493" lon="7.02278">
        <ele>1158.1999511719</ele>
        <time>2021-03-04T11:54:57.000Z</time>
      </trkpt>
      <trkpt lat="43.7449" lon="7.02282">
        <ele>1159.4000244141</ele>
        <time>2021-03-04T11:55:00.000Z</time>
      </trkpt>
      <trkpt lat="43.74487" lon="7.02285">
        <ele>1160.1999511719</ele>
        <time>2021-03-04T11:55:02.000Z</time>
      </trkpt>
      <trkpt lat="43.74486" lon="7.02286">
        <ele>1160.5999755859</ele>
        <time>2021-03-04T11:55:03.000Z</time>
      </trkpt>
      <trkpt lat="43.74486" lon="7.02285">
        <ele>1161.8000488281</ele>
        <time>2021-03-04T11:55:05.000Z</time>
      </trkpt>
      <trkpt lat="43.74485" lon="7.02285">
        <ele>1162</ele>
        <time>2021-03-04T11:55:06.000Z</time>
      </trkpt>
      <trkpt lat="43.74484" lon="7.02287">
        <ele>1161.8000488281</ele>
        <time>2021-03-04T11:55:13.000Z</time>
      </trkpt>
      <trkpt lat="43.74482" lon="7.0229">
        <ele>1162.1999511719</ele>
        <time>2021-03-04T11:55:20.000Z</time>
      </trkpt>
      <trkpt lat="43.7448" lon="7.02292">
        <ele>1162.4000244141</ele>
        <time>2021-03-04T11:55:29.000Z</time>
      </trkpt>
      <trkpt lat="43.7448" lon="7.02293">
        <ele>1162.8000488281</ele>
        <time>2021-03-04T11:55:34.000Z</time>
      </trkpt>
      <trkpt lat="43.7448" lon="7.02295">
        <ele>1163.1999511719</ele>
        <time>2021-03-04T11:55:38.000Z</time>
      </trkpt>
      <trkpt lat="43.74479" lon="7.02298">
        <ele>1163.4000244141</ele>
        <time>2021-03-04T11:55:45.000Z</time>
      </trkpt>
      <trkpt lat="43.74477" lon="7.023">
        <ele>1163.8000488281</ele>
        <time>2021-03-04T11:55:48.000Z</time>
      </trkpt>
      <trkpt lat="43.74477" lon="7.02301">
        <ele>1164.1999511719</ele>
        <time>2021-03-04T11:55:52.000Z</time>
      </trkpt>
      <trkpt lat="43.74476" lon="7.02301">
        <ele>1164.1999511719</ele>
        <time>2021-03-04T11:55:55.000Z</time>
      </trkpt>
      <trkpt lat="43.74474" lon="7.02302">
        <ele>1164.4000244141</ele>
        <time>2021-03-04T11:55:58.000Z</time>
      </trkpt>
      <trkpt lat="43.74473" lon="7.02304">
        <ele>1164.5999755859</ele>
        <time>2021-03-04T11:56:02.000Z</time>
      </trkpt>
      <trkpt lat="43.74472" lon="7.02305">
        <ele>1164.5999755859</ele>
        <time>2021-03-04T11:56:03.000Z</time>
      </trkpt>
      <trkpt lat="43.74466" lon="7.02314">
        <ele>1165</ele>
        <time>2021-03-04T11:56:08.000Z</time>
      </trkpt>
      <trkpt lat="43.74462" lon="7.02319">
        <ele>1166.4000244141</ele>
        <time>2021-03-04T11:56:11.000Z</time>
      </trkpt>
      <trkpt lat="43.74459" lon="7.02323">
        <ele>1167.8000488281</ele>
        <time>2021-03-04T11:56:13.000Z</time>
      </trkpt>
      <trkpt lat="43.74458" lon="7.02324">
        <ele>1168.4000244141</ele>
        <time>2021-03-04T11:56:14.000Z</time>
      </trkpt>
      <trkpt lat="43.74455" lon="7.02326">
        <ele>1169.1999511719</ele>
        <time>2021-03-04T11:56:16.000Z</time>
      </trkpt>
      <trkpt lat="43.74449" lon="7.02331">
        <ele>1170.4000244141</ele>
        <time>2021-03-04T11:56:19.000Z</time>
      </trkpt>
      <trkpt lat="43.74448" lon="7.02333">
        <ele>1171</ele>
        <time>2021-03-04T11:56:20.000Z</time>
      </trkpt>
      <trkpt lat="43.74447" lon="7.02334">
        <ele>1171.5999755859</ele>
        <time>2021-03-04T11:56:21.000Z</time>
      </trkpt>
      <trkpt lat="43.74445" lon="7.0234">
        <ele>1173.1999511719</ele>
        <time>2021-03-04T11:56:24.000Z</time>
      </trkpt>
      <trkpt lat="43.74445" lon="7.02345">
        <ele>1173.8000488281</ele>
        <time>2021-03-04T11:56:26.000Z</time>
      </trkpt>
      <trkpt lat="43.74443" lon="7.02346">
        <ele>1174</ele>
        <time>2021-03-04T11:56:27.000Z</time>
      </trkpt>
      <trkpt lat="43.74442" lon="7.02347">
        <ele>1174.5999755859</ele>
        <time>2021-03-04T11:56:28.000Z</time>
      </trkpt>
      <trkpt lat="43.74439" lon="7.02351">
        <ele>1175.5999755859</ele>
        <time>2021-03-04T11:56:30.000Z</time>
      </trkpt>
      <trkpt lat="43.74436" lon="7.02357">
        <ele>1177.1999511719</ele>
        <time>2021-03-04T11:56:33.000Z</time>
      </trkpt>
      <trkpt lat="43.74436" lon="7.02358">
        <ele>1178.1999511719</ele>
        <time>2021-03-04T11:56:35.000Z</time>
      </trkpt>
      <trkpt lat="43.74435" lon="7.02358">
        <ele>1179.4000244141</ele>
        <time>2021-03-04T11:56:38.000Z</time>
      </trkpt>
      <trkpt lat="43.74435" lon="7.02359">
        <ele>1180.1999511719</ele>
        <time>2021-03-04T11:56:42.000Z</time>
      </trkpt>
      <trkpt lat="43.74435" lon="7.02359">
        <ele>1180.1999511719</ele>
        <time>2021-03-04T11:56:46.000Z</time>
      </trkpt>
      <trkpt lat="43.74432" lon="7.02361">
        <ele>1180.1999511719</ele>
        <time>2021-03-04T11:56:48.000Z</time>
      </trkpt>
      <trkpt lat="43.74431" lon="7.02364">
        <ele>1180.4000244141</ele>
        <time>2021-03-04T11:56:50.000Z</time>
      </trkpt>
      <trkpt lat="43.7443" lon="7.02366">
        <ele>1180.5999755859</ele>
        <time>2021-03-04T11:56:51.000Z</time>
      </trkpt>
      <trkpt lat="43.74428" lon="7.0237">
        <ele>1181</ele>
        <time>2021-03-04T11:56:53.000Z</time>
      </trkpt>
      <trkpt lat="43.74425" lon="7.02374">
        <ele>1181.8000488281</ele>
        <time>2021-03-04T11:56:55.000Z</time>
      </trkpt>
      <trkpt lat="43.74424" lon="7.02377">
        <ele>1183</ele>
        <time>2021-03-04T11:56:57.000Z</time>
      </trkpt>
      <trkpt lat="43.74423" lon="7.02382">
        <ele>1184.1999511719</ele>
        <time>2021-03-04T11:56:59.000Z</time>
      </trkpt>
      <trkpt lat="43.74422" lon="7.02384">
        <ele>1184.5999755859</ele>
        <time>2021-03-04T11:57:00.000Z</time>
      </trkpt>
      <trkpt lat="43.7442" lon="7.02388">
        <ele>1185.1999511719</ele>
        <time>2021-03-04T11:57:02.000Z</time>
      </trkpt>
      <trkpt lat="43.74419" lon="7.02392">
        <ele>1186.4000244141</ele>
        <time>2021-03-04T11:57:04.000Z</time>
      </trkpt>
      <trkpt lat="43.74418" lon="7.02397">
        <ele>1187.5999755859</ele>
        <time>2021-03-04T11:57:06.000Z</time>
      </trkpt>
      <trkpt lat="43.74416" lon="7.02402">
        <ele>1188.5999755859</ele>
        <time>2021-03-04T11:57:08.000Z</time>
      </trkpt>
      <trkpt lat="43.74414" lon="7.02405">
        <ele>1189.8000488281</ele>
        <time>2021-03-04T11:57:10.000Z</time>
      </trkpt>
      <trkpt lat="43.74412" lon="7.02409">
        <ele>1191.1999511719</ele>
        <time>2021-03-04T11:57:12.000Z</time>
      </trkpt>
      <trkpt lat="43.74409" lon="7.02412">
        <ele>1192.1999511719</ele>
        <time>2021-03-04T11:57:14.000Z</time>
      </trkpt>
      <trkpt lat="43.74407" lon="7.02419">
        <ele>1193.1999511719</ele>
        <time>2021-03-04T11:57:17.000Z</time>
      </trkpt>
      <trkpt lat="43.74406" lon="7.02421">
        <ele>1193.5999755859</ele>
        <time>2021-03-04T11:57:18.000Z</time>
      </trkpt>
      <trkpt lat="43.74405" lon="7.02426">
        <ele>1194.5999755859</ele>
        <time>2021-03-04T11:57:20.000Z</time>
      </trkpt>
      <trkpt lat="43.74404" lon="7.02433">
        <ele>1196.1999511719</ele>
        <time>2021-03-04T11:57:23.000Z</time>
      </trkpt>
      <trkpt lat="43.74402" lon="7.02436">
        <ele>1197.4000244141</ele>
        <time>2021-03-04T11:57:25.000Z</time>
      </trkpt>
      <trkpt lat="43.744" lon="7.0244">
        <ele>1198.5999755859</ele>
        <time>2021-03-04T11:57:27.000Z</time>
      </trkpt>
      <trkpt lat="43.74398" lon="7.02443">
        <ele>1199.8000488281</ele>
        <time>2021-03-04T11:57:29.000Z</time>
      </trkpt>
      <trkpt lat="43.74396" lon="7.02446">
        <ele>1201</ele>
        <time>2021-03-04T11:57:31.000Z</time>
      </trkpt>
      <trkpt lat="43.74395" lon="7.02453">
        <ele>1202.1999511719</ele>
        <time>2021-03-04T11:57:34.000Z</time>
      </trkpt>
      <trkpt lat="43.74394" lon="7.02454">
        <ele>1202.5999755859</ele>
        <time>2021-03-04T11:57:35.000Z</time>
      </trkpt>
      <trkpt lat="43.74392" lon="7.0246">
        <ele>1203.4000244141</ele>
        <time>2021-03-04T11:57:38.000Z</time>
      </trkpt>
      <trkpt lat="43.7439" lon="7.02464">
        <ele>1204.8000488281</ele>
        <time>2021-03-04T11:57:41.000Z</time>
      </trkpt>
      <trkpt lat="43.74388" lon="7.02466">
        <ele>1206.1999511719</ele>
        <time>2021-03-04T11:57:43.000Z</time>
      </trkpt>
      <trkpt lat="43.74387" lon="7.02465">
        <ele>1207.4000244141</ele>
        <time>2021-03-04T11:57:46.000Z</time>
      </trkpt>
      <trkpt lat="43.74387" lon="7.02465">
        <ele>1208</ele>
        <time>2021-03-04T11:57:54.000Z</time>
      </trkpt>
      <trkpt lat="43.74385" lon="7.02466">
        <ele>1208</ele>
        <time>2021-03-04T11:58:00.000Z</time>
      </trkpt>
      <trkpt lat="43.74385" lon="7.02466">
        <ele>1208.1999511719</ele>
        <time>2021-03-04T11:58:07.000Z</time>
      </trkpt>
      <trkpt lat="43.74381" lon="7.02467">
        <ele>1208.4000244141</ele>
        <time>2021-03-04T11:58:15.000Z</time>
      </trkpt>
      <trkpt lat="43.74381" lon="7.02467">
        <ele>1208.5999755859</ele>
        <time>2021-03-04T11:58:16.000Z</time>
      </trkpt>
      <trkpt lat="43.7438" lon="7.02466">
        <ele>1209.1999511719</ele>
        <time>2021-03-04T11:58:20.000Z</time>
      </trkpt>
      <trkpt lat="43.7438" lon="7.02467">
        <ele>1209.4000244141</ele>
        <time>2021-03-04T11:58:25.000Z</time>
      </trkpt>
      <trkpt lat="43.7438" lon="7.02469">
        <ele>1209.4000244141</ele>
        <time>2021-03-04T11:58:32.000Z</time>
      </trkpt>
      <trkpt lat="43.74379" lon="7.02472">
        <ele>1209.1999511719</ele>
        <time>2021-03-04T11:58:34.000Z</time>
      </trkpt>
      <trkpt lat="43.74377" lon="7.02475">
        <ele>1209.5999755859</ele>
        <time>2021-03-04T11:58:36.000Z</time>
      </trkpt>
      <trkpt lat="43.74375" lon="7.02476">
        <ele>1210.5999755859</ele>
        <time>2021-03-04T11:58:39.000Z</time>
      </trkpt>
      <trkpt lat="43.74374" lon="7.02478">
        <ele>1211.8000488281</ele>
        <time>2021-03-04T11:58:44.000Z</time>
      </trkpt>
      <trkpt lat="43.7437" lon="7.0248">
        <ele>1211.8000488281</ele>
        <time>2021-03-04T11:58:46.000Z</time>
      </trkpt>
      <trkpt lat="43.74367" lon="7.0248">
        <ele>1212.1999511719</ele>
        <time>2021-03-04T11:58:48.000Z</time>
      </trkpt>
      <trkpt lat="43.74363" lon="7.02486">
        <ele>1212.8000488281</ele>
        <time>2021-03-04T11:58:51.000Z</time>
      </trkpt>
      <trkpt lat="43.74362" lon="7.02487">
        <ele>1213.1999511719</ele>
        <time>2021-03-04T11:58:52.000Z</time>
      </trkpt>
      <trkpt lat="43.74361" lon="7.02489">
        <ele>1213.5999755859</ele>
        <time>2021-03-04T11:58:53.000Z</time>
      </trkpt>
      <trkpt lat="43.74361" lon="7.02491">
        <ele>1214</ele>
        <time>2021-03-04T11:58:54.000Z</time>
      </trkpt>
      <trkpt lat="43.74359" lon="7.02495">
        <ele>1215.1999511719</ele>
        <time>2021-03-04T11:58:56.000Z</time>
      </trkpt>
      <trkpt lat="43.74356" lon="7.025">
        <ele>1216.1999511719</ele>
        <time>2021-03-04T11:58:58.000Z</time>
      </trkpt>
      <trkpt lat="43.74352" lon="7.02506">
        <ele>1217.5999755859</ele>
        <time>2021-03-04T11:59:01.000Z</time>
      </trkpt>
      <trkpt lat="43.74351" lon="7.0251">
        <ele>1218.5999755859</ele>
        <time>2021-03-04T11:59:03.000Z</time>
      </trkpt>
      <trkpt lat="43.7435" lon="7.02513">
        <ele>1219.1999511719</ele>
        <time>2021-03-04T11:59:04.000Z</time>
      </trkpt>
      <trkpt lat="43.7435" lon="7.02515">
        <ele>1219.5999755859</ele>
        <time>2021-03-04T11:59:05.000Z</time>
      </trkpt>
      <trkpt lat="43.74347" lon="7.02523">
        <ele>1221</ele>
        <time>2021-03-04T11:59:08.000Z</time>
      </trkpt>
      <trkpt lat="43.74345" lon="7.02527">
        <ele>1221.8000488281</ele>
        <time>2021-03-04T11:59:10.000Z</time>
      </trkpt>
      <trkpt lat="43.74344" lon="7.02529">
        <ele>1222.1999511719</ele>
        <time>2021-03-04T11:59:11.000Z</time>
      </trkpt>
      <trkpt lat="43.74342" lon="7.02534">
        <ele>1223.5999755859</ele>
        <time>2021-03-04T11:59:13.000Z</time>
      </trkpt>
      <trkpt lat="43.7434" lon="7.02538">
        <ele>1224.8000488281</ele>
        <time>2021-03-04T11:59:15.000Z</time>
      </trkpt>
      <trkpt lat="43.74339" lon="7.0254">
        <ele>1225.4000244141</ele>
        <time>2021-03-04T11:59:16.000Z</time>
      </trkpt>
      <trkpt lat="43.74339" lon="7.02542">
        <ele>1225.8000488281</ele>
        <time>2021-03-04T11:59:17.000Z</time>
      </trkpt>
      <trkpt lat="43.74337" lon="7.02548">
        <ele>1227.1999511719</ele>
        <time>2021-03-04T11:59:20.000Z</time>
      </trkpt>
      <trkpt lat="43.74336" lon="7.0255">
        <ele>1227.5999755859</ele>
        <time>2021-03-04T11:59:21.000Z</time>
      </trkpt>
      <trkpt lat="43.74329" lon="7.02555">
        <ele>1228.5999755859</ele>
        <time>2021-03-04T11:59:25.000Z</time>
      </trkpt>
      <trkpt lat="43.74325" lon="7.02557">
        <ele>1229.5999755859</ele>
        <time>2021-03-04T11:59:27.000Z</time>
      </trkpt>
      <trkpt lat="43.74324" lon="7.02559">
        <ele>1230.1999511719</ele>
        <time>2021-03-04T11:59:28.000Z</time>
      </trkpt>
      <trkpt lat="43.74321" lon="7.02563">
        <ele>1231.8000488281</ele>
        <time>2021-03-04T11:59:30.000Z</time>
      </trkpt>
      <trkpt lat="43.74319" lon="7.02567">
        <ele>1233.1999511719</ele>
        <time>2021-03-04T11:59:32.000Z</time>
      </trkpt>
      <trkpt lat="43.74318" lon="7.02569">
        <ele>1233.8000488281</ele>
        <time>2021-03-04T11:59:33.000Z</time>
      </trkpt>
      <trkpt lat="43.74317" lon="7.02571">
        <ele>1234.4000244141</ele>
        <time>2021-03-04T11:59:34.000Z</time>
      </trkpt>
      <trkpt lat="43.74314" lon="7.02575">
        <ele>1235.5999755859</ele>
        <time>2021-03-04T11:59:36.000Z</time>
      </trkpt>
      <trkpt lat="43.74311" lon="7.02578">
        <ele>1236.5999755859</ele>
        <time>2021-03-04T11:59:38.000Z</time>
      </trkpt>
      <trkpt lat="43.7431" lon="7.02582">
        <ele>1237.4000244141</ele>
        <time>2021-03-04T11:59:40.000Z</time>
      </trkpt>
      <trkpt lat="43.74308" lon="7.02585">
        <ele>1237.5999755859</ele>
        <time>2021-03-04T11:59:41.000Z</time>
      </trkpt>
      <trkpt lat="43.74306" lon="7.02592">
        <ele>1238.8000488281</ele>
        <time>2021-03-04T11:59:44.000Z</time>
      </trkpt>
      <trkpt lat="43.74304" lon="7.02597">
        <ele>1239.8000488281</ele>
        <time>2021-03-04T11:59:46.000Z</time>
      </trkpt>
      <trkpt lat="43.74303" lon="7.02599">
        <ele>1240.5999755859</ele>
        <time>2021-03-04T11:59:47.000Z</time>
      </trkpt>
      <trkpt lat="43.74301" lon="7.02601">
        <ele>1241.4000244141</ele>
        <time>2021-03-04T11:59:48.000Z</time>
      </trkpt>
      <trkpt lat="43.74298" lon="7.02604">
        <ele>1243.1999511719</ele>
        <time>2021-03-04T11:59:50.000Z</time>
      </trkpt>
      <trkpt lat="43.74296" lon="7.02609">
        <ele>1244.8000488281</ele>
        <time>2021-03-04T11:59:52.000Z</time>
      </trkpt>
      <trkpt lat="43.74293" lon="7.02613">
        <ele>1245.8000488281</ele>
        <time>2021-03-04T11:59:54.000Z</time>
      </trkpt>
      <trkpt lat="43.7429" lon="7.0262">
        <ele>1247</ele>
        <time>2021-03-04T11:59:57.000Z</time>
      </trkpt>
      <trkpt lat="43.74283" lon="7.02627">
        <ele>1248.5999755859</ele>
        <time>2021-03-04T12:00:01.000Z</time>
      </trkpt>
      <trkpt lat="43.7428" lon="7.02629">
        <ele>1249.8000488281</ele>
        <time>2021-03-04T12:00:03.000Z</time>
      </trkpt>
      <trkpt lat="43.74276" lon="7.02631">
        <ele>1251</ele>
        <time>2021-03-04T12:00:05.000Z</time>
      </trkpt>
      <trkpt lat="43.74274" lon="7.02635">
        <ele>1252</ele>
        <time>2021-03-04T12:00:07.000Z</time>
      </trkpt>
      <trkpt lat="43.7427" lon="7.02641">
        <ele>1253</ele>
        <time>2021-03-04T12:00:10.000Z</time>
      </trkpt>
      <trkpt lat="43.74268" lon="7.02642">
        <ele>1253.4000244141</ele>
        <time>2021-03-04T12:00:11.000Z</time>
      </trkpt>
      <trkpt lat="43.74264" lon="7.02648">
        <ele>1254.5999755859</ele>
        <time>2021-03-04T12:00:14.000Z</time>
      </trkpt>
      <trkpt lat="43.74261" lon="7.02652">
        <ele>1255.4000244141</ele>
        <time>2021-03-04T12:00:16.000Z</time>
      </trkpt>
      <trkpt lat="43.7426" lon="7.02654">
        <ele>1255.8000488281</ele>
        <time>2021-03-04T12:00:17.000Z</time>
      </trkpt>
      <trkpt lat="43.74258" lon="7.02662">
        <ele>1257</ele>
        <time>2021-03-04T12:00:20.000Z</time>
      </trkpt>
      <trkpt lat="43.74257" lon="7.02667">
        <ele>1257.8000488281</ele>
        <time>2021-03-04T12:00:22.000Z</time>
      </trkpt>
      <trkpt lat="43.74257" lon="7.02669">
        <ele>1258.1999511719</ele>
        <time>2021-03-04T12:00:23.000Z</time>
      </trkpt>
      <trkpt lat="43.74257" lon="7.02674">
        <ele>1259.4000244141</ele>
        <time>2021-03-04T12:00:25.000Z</time>
      </trkpt>
      <trkpt lat="43.74257" lon="7.02681">
        <ele>1260.4000244141</ele>
        <time>2021-03-04T12:00:28.000Z</time>
      </trkpt>
      <trkpt lat="43.74256" lon="7.02695">
        <ele>1261.4000244141</ele>
        <time>2021-03-04T12:00:33.000Z</time>
      </trkpt>
      <trkpt lat="43.74254" lon="7.02702">
        <ele>1262</ele>
        <time>2021-03-04T12:00:37.000Z</time>
      </trkpt>
      <trkpt lat="43.74252" lon="7.02709">
        <ele>1263</ele>
        <time>2021-03-04T12:00:39.000Z</time>
      </trkpt>
      <trkpt lat="43.7425" lon="7.02712">
        <ele>1264.4000244141</ele>
        <time>2021-03-04T12:00:41.000Z</time>
      </trkpt>
      <trkpt lat="43.74248" lon="7.02716">
        <ele>1266</ele>
        <time>2021-03-04T12:00:43.000Z</time>
      </trkpt>
      <trkpt lat="43.74247" lon="7.02721">
        <ele>1267.1999511719</ele>
        <time>2021-03-04T12:00:45.000Z</time>
      </trkpt>
      <trkpt lat="43.74244" lon="7.02726">
        <ele>1268.1999511719</ele>
        <time>2021-03-04T12:00:48.000Z</time>
      </trkpt>
      <trkpt lat="43.74244" lon="7.02726">
        <ele>1268.5999755859</ele>
        <time>2021-03-04T12:00:49.000Z</time>
      </trkpt>
      <trkpt lat="43.74244" lon="7.02726">
        <ele>1268.8000488281</ele>
        <time>2021-03-04T12:00:50.000Z</time>
      </trkpt>
      <trkpt lat="43.74243" lon="7.02726">
        <ele>1269.4000244141</ele>
        <time>2021-03-04T12:00:54.000Z</time>
      </trkpt>
      <trkpt lat="43.74244" lon="7.02726">
        <ele>1269.8000488281</ele>
        <time>2021-03-04T12:00:58.000Z</time>
      </trkpt>
      <trkpt lat="43.74244" lon="7.02726">
        <ele>1269.1999511719</ele>
        <time>2021-03-04T12:01:19.000Z</time>
      </trkpt>
      <trkpt lat="43.74244" lon="7.02727">
        <ele>1269</ele>
        <time>2021-03-04T12:01:35.000Z</time>
      </trkpt>
      <trkpt lat="43.74244" lon="7.02727">
        <ele>1268.8000488281</ele>
        <time>2021-03-04T12:01:47.000Z</time>
      </trkpt>
      <trkpt lat="43.74244" lon="7.02727">
        <ele>1268.8000488281</ele>
        <time>2021-03-04T12:02:04.000Z</time>
      </trkpt>
      <trkpt lat="43.74244" lon="7.02726">
        <ele>1268.4000244141</ele>
        <time>2021-03-04T12:02:28.000Z</time>
      </trkpt>
      <trkpt lat="43.74244" lon="7.02726">
        <ele>1268.4000244141</ele>
        <time>2021-03-04T12:02:31.000Z</time>
      </trkpt>
      <trkpt lat="43.74245" lon="7.02731">
        <ele>1268.4000244141</ele>
        <time>2021-03-04T12:02:43.000Z</time>
      </trkpt>
      <trkpt lat="43.74247" lon="7.0274">
        <ele>1268.8000488281</ele>
        <time>2021-03-04T12:02:47.000Z</time>
      </trkpt>
      <trkpt lat="43.74246" lon="7.02743">
        <ele>1268.8000488281</ele>
        <time>2021-03-04T12:02:48.000Z</time>
      </trkpt>
      <trkpt lat="43.74245" lon="7.02748">
        <ele>1269.5999755859</ele>
        <time>2021-03-04T12:02:50.000Z</time>
      </trkpt>
      <trkpt lat="43.74241" lon="7.02754">
        <ele>1271</ele>
        <time>2021-03-04T12:02:53.000Z</time>
      </trkpt>
      <trkpt lat="43.7424" lon="7.02756">
        <ele>1271.4000244141</ele>
        <time>2021-03-04T12:02:54.000Z</time>
      </trkpt>
      <trkpt lat="43.74236" lon="7.02763">
        <ele>1272</ele>
        <time>2021-03-04T12:02:57.000Z</time>
      </trkpt>
      <trkpt lat="43.74231" lon="7.02769">
        <ele>1273.4000244141</ele>
        <time>2021-03-04T12:03:00.000Z</time>
      </trkpt>
      <trkpt lat="43.7423" lon="7.0277">
        <ele>1273.8000488281</ele>
        <time>2021-03-04T12:03:01.000Z</time>
      </trkpt>
      <trkpt lat="43.74227" lon="7.02774">
        <ele>1274.5999755859</ele>
        <time>2021-03-04T12:03:03.000Z</time>
      </trkpt>
      <trkpt lat="43.74222" lon="7.02778">
        <ele>1275.5999755859</ele>
        <time>2021-03-04T12:03:06.000Z</time>
      </trkpt>
      <trkpt lat="43.7422" lon="7.02782">
        <ele>1276</ele>
        <time>2021-03-04T12:03:08.000Z</time>
      </trkpt>
      <trkpt lat="43.74217" lon="7.02786">
        <ele>1276.5999755859</ele>
        <time>2021-03-04T12:03:10.000Z</time>
      </trkpt>
      <trkpt lat="43.74213" lon="7.02793">
        <ele>1277.8000488281</ele>
        <time>2021-03-04T12:03:13.000Z</time>
      </trkpt>
      <trkpt lat="43.7421" lon="7.02798">
        <ele>1278.4000244141</ele>
        <time>2021-03-04T12:03:15.000Z</time>
      </trkpt>
      <trkpt lat="43.74209" lon="7.028">
        <ele>1279</ele>
        <time>2021-03-04T12:03:16.000Z</time>
      </trkpt>
      <trkpt lat="43.74206" lon="7.02804">
        <ele>1280</ele>
        <time>2021-03-04T12:03:18.000Z</time>
      </trkpt>
      <trkpt lat="43.74204" lon="7.02809">
        <ele>1281</ele>
        <time>2021-03-04T12:03:20.000Z</time>
      </trkpt>
      <trkpt lat="43.74203" lon="7.02812">
        <ele>1281.4000244141</ele>
        <time>2021-03-04T12:03:21.000Z</time>
      </trkpt>
      <trkpt lat="43.74201" lon="7.02817">
        <ele>1282.1999511719</ele>
        <time>2021-03-04T12:03:23.000Z</time>
      </trkpt>
      <trkpt lat="43.74199" lon="7.02824">
        <ele>1283.1999511719</ele>
        <time>2021-03-04T12:03:26.000Z</time>
      </trkpt>
      <trkpt lat="43.74197" lon="7.02826">
        <ele>1283.5999755859</ele>
        <time>2021-03-04T12:03:27.000Z</time>
      </trkpt>
      <trkpt lat="43.74195" lon="7.02831">
        <ele>1284.4000244141</ele>
        <time>2021-03-04T12:03:29.000Z</time>
      </trkpt>
      <trkpt lat="43.74191" lon="7.02841">
        <ele>1285.5999755859</ele>
        <time>2021-03-04T12:03:33.000Z</time>
      </trkpt>
      <trkpt lat="43.7419" lon="7.02842">
        <ele>1286</ele>
        <time>2021-03-04T12:03:34.000Z</time>
      </trkpt>
      <trkpt lat="43.74189" lon="7.02845">
        <ele>1286.5999755859</ele>
        <time>2021-03-04T12:03:35.000Z</time>
      </trkpt>
      <trkpt lat="43.74187" lon="7.02852">
        <ele>1287.8000488281</ele>
        <time>2021-03-04T12:03:38.000Z</time>
      </trkpt>
      <trkpt lat="43.74185" lon="7.02857">
        <ele>1288.4000244141</ele>
        <time>2021-03-04T12:03:40.000Z</time>
      </trkpt>
      <trkpt lat="43.74184" lon="7.02859">
        <ele>1288.8000488281</ele>
        <time>2021-03-04T12:03:41.000Z</time>
      </trkpt>
      <trkpt lat="43.74182" lon="7.02869">
        <ele>1290</ele>
        <time>2021-03-04T12:03:45.000Z</time>
      </trkpt>
      <trkpt lat="43.74182" lon="7.02874">
        <ele>1290.1999511719</ele>
        <time>2021-03-04T12:03:47.000Z</time>
      </trkpt>
      <trkpt lat="43.74179" lon="7.02883">
        <ele>1291</ele>
        <time>2021-03-04T12:03:51.000Z</time>
      </trkpt>
      <trkpt lat="43.74177" lon="7.02888">
        <ele>1291.5999755859</ele>
        <time>2021-03-04T12:03:53.000Z</time>
      </trkpt>
      <trkpt lat="43.74174" lon="7.02895">
        <ele>1292</ele>
        <time>2021-03-04T12:03:56.000Z</time>
      </trkpt>
      <trkpt lat="43.7417" lon="7.02908">
        <ele>1292.5999755859</ele>
        <time>2021-03-04T12:04:01.000Z</time>
      </trkpt>
      <trkpt lat="43.74163" lon="7.02927">
        <ele>1292.4000244141</ele>
        <time>2021-03-04T12:04:08.000Z</time>
      </trkpt>
      <trkpt lat="43.74159" lon="7.02948">
        <ele>1291.5999755859</ele>
        <time>2021-03-04T12:04:13.000Z</time>
      </trkpt>
      <trkpt lat="43.74153" lon="7.02975">
        <ele>1290.8000488281</ele>
        <time>2021-03-04T12:04:19.000Z</time>
      </trkpt>
      <trkpt lat="43.74154" lon="7.02994">
        <ele>1290.1999511719</ele>
        <time>2021-03-04T12:04:23.000Z</time>
      </trkpt>
      <trkpt lat="43.74154" lon="7.03005">
        <ele>1289.8000488281</ele>
        <time>2021-03-04T12:04:26.000Z</time>
      </trkpt>
      <trkpt lat="43.74154" lon="7.03012">
        <ele>1289.4000244141</ele>
        <time>2021-03-04T12:04:28.000Z</time>
      </trkpt>
      <trkpt lat="43.74153" lon="7.03013">
        <ele>1289.1999511719</ele>
        <time>2021-03-04T12:04:29.000Z</time>
      </trkpt>
      <trkpt lat="43.7415" lon="7.03014">
        <ele>1288.5999755859</ele>
        <time>2021-03-04T12:04:32.000Z</time>
      </trkpt>
      <trkpt lat="43.74146" lon="7.03013">
        <ele>1288.4000244141</ele>
        <time>2021-03-04T12:04:34.000Z</time>
      </trkpt>
      <trkpt lat="43.74139" lon="7.0301">
        <ele>1287.5999755859</ele>
        <time>2021-03-04T12:04:37.000Z</time>
      </trkpt>
      <trkpt lat="43.74132" lon="7.03003">
        <ele>1287</ele>
        <time>2021-03-04T12:04:42.000Z</time>
      </trkpt>
      <trkpt lat="43.74127" lon="7.02998">
        <ele>1286.5999755859</ele>
        <time>2021-03-04T12:04:45.000Z</time>
      </trkpt>
      <trkpt lat="43.74121" lon="7.02991">
        <ele>1286.1999511719</ele>
        <time>2021-03-04T12:04:49.000Z</time>
      </trkpt>
      <trkpt lat="43.74108" lon="7.02978">
        <ele>1286.1999511719</ele>
        <time>2021-03-04T12:04:56.000Z</time>
      </trkpt>
      <trkpt lat="43.74094" lon="7.02966">
        <ele>1286.1999511719</ele>
        <time>2021-03-04T12:05:03.000Z</time>
      </trkpt>
      <trkpt lat="43.74081" lon="7.02955">
        <ele>1286</ele>
        <time>2021-03-04T12:05:09.000Z</time>
      </trkpt>
      <trkpt lat="43.74069" lon="7.02942">
        <ele>1285.8000488281</ele>
        <time>2021-03-04T12:05:15.000Z</time>
      </trkpt>
      <trkpt lat="43.74059" lon="7.02934">
        <ele>1285.4000244141</ele>
        <time>2021-03-04T12:05:20.000Z</time>
      </trkpt>
      <trkpt lat="43.74044" lon="7.02931">
        <ele>1285.4000244141</ele>
        <time>2021-03-04T12:05:26.000Z</time>
      </trkpt>
      <trkpt lat="43.74041" lon="7.02931">
        <ele>1285.1999511719</ele>
        <time>2021-03-04T12:05:27.000Z</time>
      </trkpt>
      <trkpt lat="43.74037" lon="7.02931">
        <ele>1285</ele>
        <time>2021-03-04T12:05:29.000Z</time>
      </trkpt>
      <trkpt lat="43.74029" lon="7.02934">
        <ele>1284.1999511719</ele>
        <time>2021-03-04T12:05:32.000Z</time>
      </trkpt>
      <trkpt lat="43.74027" lon="7.02936">
        <ele>1283.8000488281</ele>
        <time>2021-03-04T12:05:33.000Z</time>
      </trkpt>
      <trkpt lat="43.74024" lon="7.02938">
        <ele>1283.8000488281</ele>
        <time>2021-03-04T12:05:34.000Z</time>
      </trkpt>
      <trkpt lat="43.74018" lon="7.02944">
        <ele>1283</ele>
        <time>2021-03-04T12:05:36.000Z</time>
      </trkpt>
      <trkpt lat="43.74014" lon="7.02947">
        <ele>1282.8000488281</ele>
        <time>2021-03-04T12:05:37.000Z</time>
      </trkpt>
      <trkpt lat="43.7401" lon="7.02948">
        <ele>1282.4000244141</ele>
        <time>2021-03-04T12:05:38.000Z</time>
      </trkpt>
      <trkpt lat="43.74001" lon="7.02948">
        <ele>1282</ele>
        <time>2021-03-04T12:05:40.000Z</time>
      </trkpt>
      <trkpt lat="43.73996" lon="7.02947">
        <ele>1281.1999511719</ele>
        <time>2021-03-04T12:05:41.000Z</time>
      </trkpt>
      <trkpt lat="43.73992" lon="7.02947">
        <ele>1280.8000488281</ele>
        <time>2021-03-04T12:05:42.000Z</time>
      </trkpt>
      <trkpt lat="43.73988" lon="7.02948">
        <ele>1280.5999755859</ele>
        <time>2021-03-04T12:05:43.000Z</time>
      </trkpt>
      <trkpt lat="43.73985" lon="7.02949">
        <ele>1279.5999755859</ele>
        <time>2021-03-04T12:05:44.000Z</time>
      </trkpt>
      <trkpt lat="43.73981" lon="7.0295">
        <ele>1278.4000244141</ele>
        <time>2021-03-04T12:05:45.000Z</time>
      </trkpt>
      <trkpt lat="43.73978" lon="7.02951">
        <ele>1277.4000244141</ele>
        <time>2021-03-04T12:05:46.000Z</time>
      </trkpt>
      <trkpt lat="43.73975" lon="7.02952">
        <ele>1276</ele>
        <time>2021-03-04T12:05:47.000Z</time>
      </trkpt>
      <trkpt lat="43.73971" lon="7.02952">
        <ele>1274.5999755859</ele>
        <time>2021-03-04T12:05:48.000Z</time>
      </trkpt>
      <trkpt lat="43.73968" lon="7.02952">
        <ele>1273.4000244141</ele>
        <time>2021-03-04T12:05:49.000Z</time>
      </trkpt>
      <trkpt lat="43.73963" lon="7.02951">
        <ele>1272</ele>
        <time>2021-03-04T12:05:51.000Z</time>
      </trkpt>
      <trkpt lat="43.73964" lon="7.02951">
        <ele>1271.8000488281</ele>
        <time>2021-03-04T12:05:52.000Z</time>
      </trkpt>
      <trkpt lat="43.73963" lon="7.0295">
        <ele>1270.8000488281</ele>
        <time>2021-03-04T12:05:55.000Z</time>
      </trkpt>
      <trkpt lat="43.73964" lon="7.0295">
        <ele>1270</ele>
        <time>2021-03-04T12:06:00.000Z</time>
      </trkpt>
      <trkpt lat="43.73964" lon="7.0295">
        <ele>1269.8000488281</ele>
        <time>2021-03-04T12:06:02.000Z</time>
      </trkpt>
      <trkpt lat="43.73964" lon="7.0295">
        <ele>1268.8000488281</ele>
        <time>2021-03-04T12:06:10.000Z</time>
      </trkpt>
      <trkpt lat="43.73964" lon="7.0295">
        <ele>1269</ele>
        <time>2021-03-04T12:06:18.000Z</time>
      </trkpt>
      <trkpt lat="43.73964" lon="7.0295">
        <ele>1268.4000244141</ele>
        <time>2021-03-04T12:06:28.000Z</time>
      </trkpt>
      <trkpt lat="43.73964" lon="7.0295">
        <ele>1268.8000488281</ele>
        <time>2021-03-04T12:06:38.000Z</time>
      </trkpt>
      <trkpt lat="43.73964" lon="7.0295">
        <ele>1268.4000244141</ele>
        <time>2021-03-04T12:06:46.000Z</time>
      </trkpt>
      <trkpt lat="43.73964" lon="7.0295">
        <ele>1267.8000488281</ele>
        <time>2021-03-04T12:06:50.000Z</time>
      </trkpt>
      <trkpt lat="43.73964" lon="7.02949">
        <ele>1267.8000488281</ele>
        <time>2021-03-04T12:06:56.000Z</time>
      </trkpt>
      <trkpt lat="43.73964" lon="7.02949">
        <ele>1267.8000488281</ele>
        <time>2021-03-04T12:07:00.000Z</time>
      </trkpt>
      <trkpt lat="43.73964" lon="7.02948">
        <ele>1267.8000488281</ele>
        <time>2021-03-04T12:07:06.000Z</time>
      </trkpt>
      <trkpt lat="43.73964" lon="7.02948">
        <ele>1267.5999755859</ele>
        <time>2021-03-04T12:07:13.000Z</time>
      </trkpt>
      <trkpt lat="43.73964" lon="7.02948">
        <ele>1267.8000488281</ele>
        <time>2021-03-04T12:07:29.000Z</time>
      </trkpt>
      <trkpt lat="43.73963" lon="7.02948">
        <ele>1267.5999755859</ele>
        <time>2021-03-04T12:07:42.000Z</time>
      </trkpt>
      <trkpt lat="43.73956" lon="7.02943">
        <ele>1267.1999511719</ele>
        <time>2021-03-04T12:07:46.000Z</time>
      </trkpt>
      <trkpt lat="43.73954" lon="7.02941">
        <ele>1266.5999755859</ele>
        <time>2021-03-04T12:07:47.000Z</time>
      </trkpt>
      <trkpt lat="43.73949" lon="7.02934">
        <ele>1265.5999755859</ele>
        <time>2021-03-04T12:07:49.000Z</time>
      </trkpt>
      <trkpt lat="43.73945" lon="7.02929">
        <ele>1264</ele>
        <time>2021-03-04T12:07:52.000Z</time>
      </trkpt>
      <trkpt lat="43.73945" lon="7.02928">
        <ele>1263</ele>
        <time>2021-03-04T12:07:55.000Z</time>
      </trkpt>
      <trkpt lat="43.73945" lon="7.02928">
        <ele>1262.5999755859</ele>
        <time>2021-03-04T12:07:56.000Z</time>
      </trkpt>
      <trkpt lat="43.73945" lon="7.02928">
        <ele>1261.5999755859</ele>
        <time>2021-03-04T12:08:00.000Z</time>
      </trkpt>
      <trkpt lat="43.73945" lon="7.02928">
        <ele>1261.4000244141</ele>
        <time>2021-03-04T12:08:13.000Z</time>
      </trkpt>
      <trkpt lat="43.73944" lon="7.02928">
        <ele>1262</ele>
        <time>2021-03-04T12:08:31.000Z</time>
      </trkpt>
      <trkpt lat="43.7394" lon="7.02924">
        <ele>1261.8000488281</ele>
        <time>2021-03-04T12:08:39.000Z</time>
      </trkpt>
      <trkpt lat="43.73938" lon="7.02923">
        <ele>1261.5999755859</ele>
        <time>2021-03-04T12:08:40.000Z</time>
      </trkpt>
      <trkpt lat="43.73933" lon="7.02921">
        <ele>1260.8000488281</ele>
        <time>2021-03-04T12:08:42.000Z</time>
      </trkpt>
      <trkpt lat="43.73933" lon="7.0292">
        <ele>1260.4000244141</ele>
        <time>2021-03-04T12:08:43.000Z</time>
      </trkpt>
      <trkpt lat="43.73932" lon="7.0292">
        <ele>1259.5999755859</ele>
        <time>2021-03-04T12:08:44.000Z</time>
      </trkpt>
      <trkpt lat="43.73931" lon="7.0292">
        <ele>1258.8000488281</ele>
        <time>2021-03-04T12:08:45.000Z</time>
      </trkpt>
      <trkpt lat="43.73927" lon="7.02919">
        <ele>1257.5999755859</ele>
        <time>2021-03-04T12:08:47.000Z</time>
      </trkpt>
      <trkpt lat="43.73925" lon="7.02918">
        <ele>1256.8000488281</ele>
        <time>2021-03-04T12:08:48.000Z</time>
      </trkpt>
      <trkpt lat="43.73924" lon="7.02918">
        <ele>1256.4000244141</ele>
        <time>2021-03-04T12:08:49.000Z</time>
      </trkpt>
      <trkpt lat="43.73921" lon="7.02916">
        <ele>1255.1999511719</ele>
        <time>2021-03-04T12:08:51.000Z</time>
      </trkpt>
      <trkpt lat="43.7392" lon="7.02915">
        <ele>1254.5999755859</ele>
        <time>2021-03-04T12:08:52.000Z</time>
      </trkpt>
      <trkpt lat="43.73919" lon="7.02914">
        <ele>1254</ele>
        <time>2021-03-04T12:08:53.000Z</time>
      </trkpt>
      <trkpt lat="43.73918" lon="7.02913">
        <ele>1253.5999755859</ele>
        <time>2021-03-04T12:08:54.000Z</time>
      </trkpt>
      <trkpt lat="43.73916" lon="7.02911">
        <ele>1253</ele>
        <time>2021-03-04T12:08:55.000Z</time>
      </trkpt>
      <trkpt lat="43.73912" lon="7.02907">
        <ele>1251.5999755859</ele>
        <time>2021-03-04T12:08:57.000Z</time>
      </trkpt>
      <trkpt lat="43.73907" lon="7.02903">
        <ele>1250.1999511719</ele>
        <time>2021-03-04T12:08:59.000Z</time>
      </trkpt>
      <trkpt lat="43.73903" lon="7.02901">
        <ele>1248</ele>
        <time>2021-03-04T12:09:01.000Z</time>
      </trkpt>
      <trkpt lat="43.73899" lon="7.02897">
        <ele>1246.5999755859</ele>
        <time>2021-03-04T12:09:03.000Z</time>
      </trkpt>
      <trkpt lat="43.73895" lon="7.02894">
        <ele>1245.1999511719</ele>
        <time>2021-03-04T12:09:05.000Z</time>
      </trkpt>
      <trkpt lat="43.7389" lon="7.02892">
        <ele>1243.8000488281</ele>
        <time>2021-03-04T12:09:07.000Z</time>
      </trkpt>
      <trkpt lat="43.73887" lon="7.02889">
        <ele>1242.8000488281</ele>
        <time>2021-03-04T12:09:08.000Z</time>
      </trkpt>
      <trkpt lat="43.73884" lon="7.02886">
        <ele>1242.1999511719</ele>
        <time>2021-03-04T12:09:09.000Z</time>
      </trkpt>
      <trkpt lat="43.73876" lon="7.02877">
        <ele>1240.5999755859</ele>
        <time>2021-03-04T12:09:12.000Z</time>
      </trkpt>
      <trkpt lat="43.73874" lon="7.02874">
        <ele>1240</ele>
        <time>2021-03-04T12:09:13.000Z</time>
      </trkpt>
      <trkpt lat="43.73872" lon="7.02871">
        <ele>1239.4000244141</ele>
        <time>2021-03-04T12:09:14.000Z</time>
      </trkpt>
      <trkpt lat="43.73869" lon="7.02868">
        <ele>1238</ele>
        <time>2021-03-04T12:09:15.000Z</time>
      </trkpt>
      <trkpt lat="43.73866" lon="7.02864">
        <ele>1236.8000488281</ele>
        <time>2021-03-04T12:09:16.000Z</time>
      </trkpt>
      <trkpt lat="43.73862" lon="7.02861">
        <ele>1235.8000488281</ele>
        <time>2021-03-04T12:09:17.000Z</time>
      </trkpt>
      <trkpt lat="43.73859" lon="7.02857">
        <ele>1234.4000244141</ele>
        <time>2021-03-04T12:09:18.000Z</time>
      </trkpt>
      <trkpt lat="43.73856" lon="7.02853">
        <ele>1233.1999511719</ele>
        <time>2021-03-04T12:09:19.000Z</time>
      </trkpt>
      <trkpt lat="43.73853" lon="7.02848">
        <ele>1231.8000488281</ele>
        <time>2021-03-04T12:09:20.000Z</time>
      </trkpt>
      <trkpt lat="43.7385" lon="7.02843">
        <ele>1230</ele>
        <time>2021-03-04T12:09:21.000Z</time>
      </trkpt>
      <trkpt lat="43.73849" lon="7.02839">
        <ele>1228.5999755859</ele>
        <time>2021-03-04T12:09:22.000Z</time>
      </trkpt>
      <trkpt lat="43.73845" lon="7.02835">
        <ele>1227.1999511719</ele>
        <time>2021-03-04T12:09:24.000Z</time>
      </trkpt>
      <trkpt lat="43.73842" lon="7.02833">
        <ele>1226.5999755859</ele>
        <time>2021-03-04T12:09:25.000Z</time>
      </trkpt>
      <trkpt lat="43.73838" lon="7.02829">
        <ele>1226.1999511719</ele>
        <time>2021-03-04T12:09:27.000Z</time>
      </trkpt>
      <trkpt lat="43.73833" lon="7.02826">
        <ele>1224.5999755859</ele>
        <time>2021-03-04T12:09:29.000Z</time>
      </trkpt>
      <trkpt lat="43.73831" lon="7.02824">
        <ele>1224</ele>
        <time>2021-03-04T12:09:30.000Z</time>
      </trkpt>
      <trkpt lat="43.73829" lon="7.02822">
        <ele>1223</ele>
        <time>2021-03-04T12:09:31.000Z</time>
      </trkpt>
      <trkpt lat="43.73824" lon="7.02817">
        <ele>1221.4000244141</ele>
        <time>2021-03-04T12:09:33.000Z</time>
      </trkpt>
      <trkpt lat="43.73822" lon="7.02815">
        <ele>1220</ele>
        <time>2021-03-04T12:09:34.000Z</time>
      </trkpt>
      <trkpt lat="43.73819" lon="7.02813">
        <ele>1219.4000244141</ele>
        <time>2021-03-04T12:09:35.000Z</time>
      </trkpt>
      <trkpt lat="43.73816" lon="7.02811">
        <ele>1218.5999755859</ele>
        <time>2021-03-04T12:09:36.000Z</time>
      </trkpt>
      <trkpt lat="43.73814" lon="7.0281">
        <ele>1217.4000244141</ele>
        <time>2021-03-04T12:09:37.000Z</time>
      </trkpt>
      <trkpt lat="43.73812" lon="7.02808">
        <ele>1216.1999511719</ele>
        <time>2021-03-04T12:09:38.000Z</time>
      </trkpt>
      <trkpt lat="43.7381" lon="7.02807">
        <ele>1214.8000488281</ele>
        <time>2021-03-04T12:09:39.000Z</time>
      </trkpt>
      <trkpt lat="43.73808" lon="7.02805">
        <ele>1213.8000488281</ele>
        <time>2021-03-04T12:09:40.000Z</time>
      </trkpt>
      <trkpt lat="43.73807" lon="7.02802">
        <ele>1212.8000488281</ele>
        <time>2021-03-04T12:09:41.000Z</time>
      </trkpt>
      <trkpt lat="43.73805" lon="7.028">
        <ele>1211.8000488281</ele>
        <time>2021-03-04T12:09:42.000Z</time>
      </trkpt>
      <trkpt lat="43.73805" lon="7.02799">
        <ele>1210.4000244141</ele>
        <time>2021-03-04T12:09:44.000Z</time>
      </trkpt>
      <trkpt lat="43.73805" lon="7.02799">
        <ele>1209.8000488281</ele>
        <time>2021-03-04T12:09:45.000Z</time>
      </trkpt>
      <trkpt lat="43.73805" lon="7.02799">
        <ele>1209.1999511719</ele>
        <time>2021-03-04T12:09:46.000Z</time>
      </trkpt>
      <trkpt lat="43.73801" lon="7.02795">
        <ele>1208.8000488281</ele>
        <time>2021-03-04T12:09:49.000Z</time>
      </trkpt>
      <trkpt lat="43.73797" lon="7.0279">
        <ele>1208.1999511719</ele>
        <time>2021-03-04T12:09:51.000Z</time>
      </trkpt>
      <trkpt lat="43.73794" lon="7.02787">
        <ele>1207.4000244141</ele>
        <time>2021-03-04T12:09:53.000Z</time>
      </trkpt>
      <trkpt lat="43.73792" lon="7.02786">
        <ele>1207</ele>
        <time>2021-03-04T12:09:54.000Z</time>
      </trkpt>
      <trkpt lat="43.73788" lon="7.02782">
        <ele>1205.5999755859</ele>
        <time>2021-03-04T12:09:56.000Z</time>
      </trkpt>
      <trkpt lat="43.73786" lon="7.0278">
        <ele>1204.4000244141</ele>
        <time>2021-03-04T12:09:57.000Z</time>
      </trkpt>
      <trkpt lat="43.73785" lon="7.02778">
        <ele>1203.1999511719</ele>
        <time>2021-03-04T12:09:58.000Z</time>
      </trkpt>
      <trkpt lat="43.73782" lon="7.02776">
        <ele>1201.8000488281</ele>
        <time>2021-03-04T12:09:59.000Z</time>
      </trkpt>
      <trkpt lat="43.73777" lon="7.02772">
        <ele>1199.4000244141</ele>
        <time>2021-03-04T12:10:01.000Z</time>
      </trkpt>
      <trkpt lat="43.73775" lon="7.0277">
        <ele>1198.5999755859</ele>
        <time>2021-03-04T12:10:02.000Z</time>
      </trkpt>
      <trkpt lat="43.73773" lon="7.02768">
        <ele>1198.1999511719</ele>
        <time>2021-03-04T12:10:03.000Z</time>
      </trkpt>
      <trkpt lat="43.7377" lon="7.02762">
        <ele>1196</ele>
        <time>2021-03-04T12:10:05.000Z</time>
      </trkpt>
      <trkpt lat="43.73765" lon="7.02756">
        <ele>1194.4000244141</ele>
        <time>2021-03-04T12:10:07.000Z</time>
      </trkpt>
      <trkpt lat="43.73763" lon="7.02753">
        <ele>1193.1999511719</ele>
        <time>2021-03-04T12:10:08.000Z</time>
      </trkpt>
      <trkpt lat="43.73761" lon="7.02751">
        <ele>1192</ele>
        <time>2021-03-04T12:10:09.000Z</time>
      </trkpt>
      <trkpt lat="43.73759" lon="7.02751">
        <ele>1191.5999755859</ele>
        <time>2021-03-04T12:10:10.000Z</time>
      </trkpt>
      <trkpt lat="43.73757" lon="7.02751">
        <ele>1190.8000488281</ele>
        <time>2021-03-04T12:10:11.000Z</time>
      </trkpt>
      <trkpt lat="43.73755" lon="7.02751">
        <ele>1190.1999511719</ele>
        <time>2021-03-04T12:10:12.000Z</time>
      </trkpt>
      <trkpt lat="43.73754" lon="7.02749">
        <ele>1189.5999755859</ele>
        <time>2021-03-04T12:10:13.000Z</time>
      </trkpt>
      <trkpt lat="43.7375" lon="7.02745">
        <ele>1188.1999511719</ele>
        <time>2021-03-04T12:10:15.000Z</time>
      </trkpt>
      <trkpt lat="43.73747" lon="7.02743">
        <ele>1186.1999511719</ele>
        <time>2021-03-04T12:10:17.000Z</time>
      </trkpt>
      <trkpt lat="43.73744" lon="7.02742">
        <ele>1185.1999511719</ele>
        <time>2021-03-04T12:10:18.000Z</time>
      </trkpt>
      <trkpt lat="43.73741" lon="7.0274">
        <ele>1184.1999511719</ele>
        <time>2021-03-04T12:10:19.000Z</time>
      </trkpt>
      <trkpt lat="43.73736" lon="7.02736">
        <ele>1182.1999511719</ele>
        <time>2021-03-04T12:10:21.000Z</time>
      </trkpt>
      <trkpt lat="43.73733" lon="7.02734">
        <ele>1181</ele>
        <time>2021-03-04T12:10:22.000Z</time>
      </trkpt>
      <trkpt lat="43.73727" lon="7.02729">
        <ele>1179.5999755859</ele>
        <time>2021-03-04T12:10:24.000Z</time>
      </trkpt>
      <trkpt lat="43.73725" lon="7.02728">
        <ele>1178.1999511719</ele>
        <time>2021-03-04T12:10:25.000Z</time>
      </trkpt>
      <trkpt lat="43.73722" lon="7.02727">
        <ele>1177.4000244141</ele>
        <time>2021-03-04T12:10:26.000Z</time>
      </trkpt>
      <trkpt lat="43.73719" lon="7.02726">
        <ele>1176.8000488281</ele>
        <time>2021-03-04T12:10:27.000Z</time>
      </trkpt>
      <trkpt lat="43.73711" lon="7.02726">
        <ele>1175.5999755859</ele>
        <time>2021-03-04T12:10:29.000Z</time>
      </trkpt>
      <trkpt lat="43.73708" lon="7.02726">
        <ele>1174.8000488281</ele>
        <time>2021-03-04T12:10:30.000Z</time>
      </trkpt>
      <trkpt lat="43.73704" lon="7.02726">
        <ele>1174</ele>
        <time>2021-03-04T12:10:31.000Z</time>
      </trkpt>
      <trkpt lat="43.73697" lon="7.02726">
        <ele>1173</ele>
        <time>2021-03-04T12:10:33.000Z</time>
      </trkpt>
      <trkpt lat="43.73694" lon="7.02725">
        <ele>1172</ele>
        <time>2021-03-04T12:10:34.000Z</time>
      </trkpt>
      <trkpt lat="43.7369" lon="7.02724">
        <ele>1170.4000244141</ele>
        <time>2021-03-04T12:10:35.000Z</time>
      </trkpt>
      <trkpt lat="43.73686" lon="7.02722">
        <ele>1169.1999511719</ele>
        <time>2021-03-04T12:10:36.000Z</time>
      </trkpt>
      <trkpt lat="43.73682" lon="7.02721">
        <ele>1167.5999755859</ele>
        <time>2021-03-04T12:10:37.000Z</time>
      </trkpt>
      <trkpt lat="43.73678" lon="7.02721">
        <ele>1166.4000244141</ele>
        <time>2021-03-04T12:10:38.000Z</time>
      </trkpt>
      <trkpt lat="43.73668" lon="7.02724">
        <ele>1164.5999755859</ele>
        <time>2021-03-04T12:10:40.000Z</time>
      </trkpt>
      <trkpt lat="43.73655" lon="7.02728">
        <ele>1163</ele>
        <time>2021-03-04T12:10:42.000Z</time>
      </trkpt>
      <trkpt lat="43.73642" lon="7.02733">
        <ele>1160.8000488281</ele>
        <time>2021-03-04T12:10:44.000Z</time>
      </trkpt>
      <trkpt lat="43.73636" lon="7.02736">
        <ele>1160.1999511719</ele>
        <time>2021-03-04T12:10:45.000Z</time>
      </trkpt>
      <trkpt lat="43.7363" lon="7.02737">
        <ele>1159.5999755859</ele>
        <time>2021-03-04T12:10:46.000Z</time>
      </trkpt>
      <trkpt lat="43.73625" lon="7.02737">
        <ele>1159.1999511719</ele>
        <time>2021-03-04T12:10:47.000Z</time>
      </trkpt>
      <trkpt lat="43.7362" lon="7.02736">
        <ele>1158.5999755859</ele>
        <time>2021-03-04T12:10:48.000Z</time>
      </trkpt>
      <trkpt lat="43.73614" lon="7.02737">
        <ele>1157.5999755859</ele>
        <time>2021-03-04T12:10:50.000Z</time>
      </trkpt>
      <trkpt lat="43.7361" lon="7.02736">
        <ele>1157.8000488281</ele>
        <time>2021-03-04T12:10:51.000Z</time>
      </trkpt>
      <trkpt lat="43.73588" lon="7.0273">
        <ele>1158.4000244141</ele>
        <time>2021-03-04T12:10:57.000Z</time>
      </trkpt>
      <trkpt lat="43.73577" lon="7.02726">
        <ele>1157.4000244141</ele>
        <time>2021-03-04T12:11:00.000Z</time>
      </trkpt>
      <trkpt lat="43.73566" lon="7.02721">
        <ele>1155.1999511719</ele>
        <time>2021-03-04T12:11:03.000Z</time>
      </trkpt>
      <trkpt lat="43.73558" lon="7.02719">
        <ele>1153.8000488281</ele>
        <time>2021-03-04T12:11:05.000Z</time>
      </trkpt>
      <trkpt lat="43.73547" lon="7.02718">
        <ele>1152.8000488281</ele>
        <time>2021-03-04T12:11:07.000Z</time>
      </trkpt>
      <trkpt lat="43.73535" lon="7.02718">
        <ele>1151.5999755859</ele>
        <time>2021-03-04T12:11:09.000Z</time>
      </trkpt>
      <trkpt lat="43.73524" lon="7.02715">
        <ele>1149.5999755859</ele>
        <time>2021-03-04T12:11:11.000Z</time>
      </trkpt>
      <trkpt lat="43.73518" lon="7.02713">
        <ele>1149.1999511719</ele>
        <time>2021-03-04T12:11:12.000Z</time>
      </trkpt>
      <trkpt lat="43.73506" lon="7.02709">
        <ele>1147.4000244141</ele>
        <time>2021-03-04T12:11:14.000Z</time>
      </trkpt>
      <trkpt lat="43.735" lon="7.02706">
        <ele>1145.8000488281</ele>
        <time>2021-03-04T12:11:15.000Z</time>
      </trkpt>
      <trkpt lat="43.73486" lon="7.02699">
        <ele>1143</ele>
        <time>2021-03-04T12:11:17.000Z</time>
      </trkpt>
      <trkpt lat="43.7348" lon="7.02694">
        <ele>1141.5999755859</ele>
        <time>2021-03-04T12:11:18.000Z</time>
      </trkpt>
      <trkpt lat="43.73473" lon="7.02691">
        <ele>1141</ele>
        <time>2021-03-04T12:11:19.000Z</time>
      </trkpt>
      <trkpt lat="43.73467" lon="7.02689">
        <ele>1140.4000244141</ele>
        <time>2021-03-04T12:11:20.000Z</time>
      </trkpt>
      <trkpt lat="43.73461" lon="7.02686">
        <ele>1139.8000488281</ele>
        <time>2021-03-04T12:11:21.000Z</time>
      </trkpt>
      <trkpt lat="43.73451" lon="7.02683">
        <ele>1139.1999511719</ele>
        <time>2021-03-04T12:11:23.000Z</time>
      </trkpt>
      <trkpt lat="43.73442" lon="7.02681">
        <ele>1139.4000244141</ele>
        <time>2021-03-04T12:11:25.000Z</time>
      </trkpt>
      <trkpt lat="43.73426" lon="7.02677">
        <ele>1140.1999511719</ele>
        <time>2021-03-04T12:11:30.000Z</time>
      </trkpt>
      <trkpt lat="43.73402" lon="7.02669">
        <ele>1141.5999755859</ele>
        <time>2021-03-04T12:11:37.000Z</time>
      </trkpt>
      <trkpt lat="43.73399" lon="7.02669">
        <ele>1142</ele>
        <time>2021-03-04T12:11:38.000Z</time>
      </trkpt>
      <trkpt lat="43.7339" lon="7.0267">
        <ele>1143</ele>
        <time>2021-03-04T12:11:41.000Z</time>
      </trkpt>
      <trkpt lat="43.73384" lon="7.02671">
        <ele>1143.4000244141</ele>
        <time>2021-03-04T12:11:43.000Z</time>
      </trkpt>
      <trkpt lat="43.73381" lon="7.0267">
        <ele>1144.1999511719</ele>
        <time>2021-03-04T12:11:45.000Z</time>
      </trkpt>
      <trkpt lat="43.73374" lon="7.02671">
        <ele>1145.4000244141</ele>
        <time>2021-03-04T12:11:48.000Z</time>
      </trkpt>
      <trkpt lat="43.73369" lon="7.02672">
        <ele>1147</ele>
        <time>2021-03-04T12:11:51.000Z</time>
      </trkpt>
      <trkpt lat="43.73367" lon="7.02673">
        <ele>1148.4000244141</ele>
        <time>2021-03-04T12:11:53.000Z</time>
      </trkpt>
      <trkpt lat="43.73364" lon="7.02673">
        <ele>1150.1999511719</ele>
        <time>2021-03-04T12:11:55.000Z</time>
      </trkpt>
      <trkpt lat="43.73363" lon="7.02673">
        <ele>1151.1999511719</ele>
        <time>2021-03-04T12:11:58.000Z</time>
      </trkpt>
      <trkpt lat="43.73362" lon="7.02673">
        <ele>1151</ele>
        <time>2021-03-04T12:12:05.000Z</time>
      </trkpt>
      <trkpt lat="43.73357" lon="7.02675">
        <ele>1152.1999511719</ele>
        <time>2021-03-04T12:12:12.000Z</time>
      </trkpt>
      <trkpt lat="43.73354" lon="7.02676">
        <ele>1153.4000244141</ele>
        <time>2021-03-04T12:12:18.000Z</time>
      </trkpt>
      <trkpt lat="43.73354" lon="7.02676">
        <ele>1153.5999755859</ele>
        <time>2021-03-04T12:12:20.000Z</time>
      </trkpt>
      <trkpt lat="43.73354" lon="7.02677">
        <ele>1153.5999755859</ele>
        <time>2021-03-04T12:12:26.000Z</time>
      </trkpt>
      <trkpt lat="43.73348" lon="7.02679">
        <ele>1153.5999755859</ele>
        <time>2021-03-04T12:12:30.000Z</time>
      </trkpt>
      <trkpt lat="43.73341" lon="7.02682">
        <ele>1154.4000244141</ele>
        <time>2021-03-04T12:12:34.000Z</time>
      </trkpt>
      <trkpt lat="43.7334" lon="7.02684">
        <ele>1154.8000488281</ele>
        <time>2021-03-04T12:12:35.000Z</time>
      </trkpt>
      <trkpt lat="43.73334" lon="7.02686">
        <ele>1155.4000244141</ele>
        <time>2021-03-04T12:12:38.000Z</time>
      </trkpt>
      <trkpt lat="43.73327" lon="7.02689">
        <ele>1156.4000244141</ele>
        <time>2021-03-04T12:12:42.000Z</time>
      </trkpt>
      <trkpt lat="43.73326" lon="7.02689">
        <ele>1156.5999755859</ele>
        <time>2021-03-04T12:12:43.000Z</time>
      </trkpt>
      <trkpt lat="43.7332" lon="7.02693">
        <ele>1157.5999755859</ele>
        <time>2021-03-04T12:12:48.000Z</time>
      </trkpt>
      <trkpt lat="43.73318" lon="7.02694">
        <ele>1157.5999755859</ele>
        <time>2021-03-04T12:12:49.000Z</time>
      </trkpt>
      <trkpt lat="43.73309" lon="7.02697">
        <ele>1157.8000488281</ele>
        <time>2021-03-04T12:12:54.000Z</time>
      </trkpt>
      <trkpt lat="43.73308" lon="7.02696">
        <ele>1158</ele>
        <time>2021-03-04T12:12:59.000Z</time>
      </trkpt>
      <trkpt lat="43.73306" lon="7.02698">
        <ele>1157.8000488281</ele>
        <time>2021-03-04T12:13:08.000Z</time>
      </trkpt>
      <trkpt lat="43.73305" lon="7.02699">
        <ele>1157.8000488281</ele>
        <time>2021-03-04T12:13:09.000Z</time>
      </trkpt>
      <trkpt lat="43.73305" lon="7.02698">
        <ele>1157.4000244141</ele>
        <time>2021-03-04T12:13:12.000Z</time>
      </trkpt>
      <trkpt lat="43.73308" lon="7.02697">
        <ele>1157.8000488281</ele>
        <time>2021-03-04T12:13:17.000Z</time>
      </trkpt>
      <trkpt lat="43.73308" lon="7.02696">
        <ele>1157.4000244141</ele>
        <time>2021-03-04T12:13:22.000Z</time>
      </trkpt>
      <trkpt lat="43.7331" lon="7.02695">
        <ele>1157.4000244141</ele>
        <time>2021-03-04T12:13:27.000Z</time>
      </trkpt>
      <trkpt lat="43.7331" lon="7.02695">
        <ele>1157.1999511719</ele>
        <time>2021-03-04T12:13:33.000Z</time>
      </trkpt>
      <trkpt lat="43.73314" lon="7.02694">
        <ele>1157.4000244141</ele>
        <time>2021-03-04T12:13:39.000Z</time>
      </trkpt>
      <trkpt lat="43.73316" lon="7.02694">
        <ele>1157.4000244141</ele>
        <time>2021-03-04T12:13:46.000Z</time>
      </trkpt>
      <trkpt lat="43.73316" lon="7.02695">
        <ele>1157.1999511719</ele>
        <time>2021-03-04T12:14:09.000Z</time>
      </trkpt>
      <trkpt lat="43.7332" lon="7.02692">
        <ele>1156.8000488281</ele>
        <time>2021-03-04T12:14:14.000Z</time>
      </trkpt>
      <trkpt lat="43.73321" lon="7.02692">
        <ele>1156.5999755859</ele>
        <time>2021-03-04T12:14:15.000Z</time>
      </trkpt>
      <trkpt lat="43.73323" lon="7.02691">
        <ele>1156.4000244141</ele>
        <time>2021-03-04T12:14:20.000Z</time>
      </trkpt>
      <trkpt lat="43.73327" lon="7.0269">
        <ele>1157.1999511719</ele>
        <time>2021-03-04T12:14:28.000Z</time>
      </trkpt>
      <trkpt lat="43.73329" lon="7.02689">
        <ele>1157</ele>
        <time>2021-03-04T12:14:40.000Z</time>
      </trkpt>
      <trkpt lat="43.73333" lon="7.02687">
        <ele>1157</ele>
        <time>2021-03-04T12:14:43.000Z</time>
      </trkpt>
      <trkpt lat="43.73336" lon="7.02685">
        <ele>1156.8000488281</ele>
        <time>2021-03-04T12:14:46.000Z</time>
      </trkpt>
      <trkpt lat="43.73345" lon="7.0268">
        <ele>1156.1999511719</ele>
        <time>2021-03-04T12:14:54.000Z</time>
      </trkpt>
      <trkpt lat="43.73348" lon="7.02679">
        <ele>1155.5999755859</ele>
        <time>2021-03-04T12:14:57.000Z</time>
      </trkpt>
      <trkpt lat="43.73354" lon="7.02678">
        <ele>1154.8000488281</ele>
        <time>2021-03-04T12:15:02.000Z</time>
      </trkpt>
      <trkpt lat="43.73355" lon="7.02678">
        <ele>1154.5999755859</ele>
        <time>2021-03-04T12:15:03.000Z</time>
      </trkpt>
      <trkpt lat="43.73359" lon="7.02676">
        <ele>1153.5999755859</ele>
        <time>2021-03-04T12:15:07.000Z</time>
      </trkpt>
      <trkpt lat="43.7336" lon="7.02676">
        <ele>1153.1999511719</ele>
        <time>2021-03-04T12:15:08.000Z</time>
      </trkpt>
      <trkpt lat="43.73361" lon="7.02678">
        <ele>1152.1999511719</ele>
        <time>2021-03-04T12:15:11.000Z</time>
      </trkpt>
      <trkpt lat="43.73361" lon="7.02677">
        <ele>1152</ele>
        <time>2021-03-04T12:15:12.000Z</time>
      </trkpt>
      <trkpt lat="43.73363" lon="7.02675">
        <ele>1151.1999511719</ele>
        <time>2021-03-04T12:15:15.000Z</time>
      </trkpt>
      <trkpt lat="43.73364" lon="7.02675">
        <ele>1151</ele>
        <time>2021-03-04T12:15:17.000Z</time>
      </trkpt>
      <trkpt lat="43.73365" lon="7.02673">
        <ele>1150.1999511719</ele>
        <time>2021-03-04T12:15:27.000Z</time>
      </trkpt>
      <trkpt lat="43.73366" lon="7.02671">
        <ele>1150.1999511719</ele>
        <time>2021-03-04T12:15:35.000Z</time>
      </trkpt>
      <trkpt lat="43.73366" lon="7.02672">
        <ele>1150.1999511719</ele>
        <time>2021-03-04T12:15:40.000Z</time>
      </trkpt>
      <trkpt lat="43.73368" lon="7.02671">
        <ele>1149.4000244141</ele>
        <time>2021-03-04T12:15:54.000Z</time>
      </trkpt>
      <trkpt lat="43.73366" lon="7.02673">
        <ele>1149.8000488281</ele>
        <time>2021-03-04T12:16:01.000Z</time>
      </trkpt>
      <trkpt lat="43.73366" lon="7.02676">
        <ele>1149.8000488281</ele>
        <time>2021-03-04T12:16:03.000Z</time>
      </trkpt>
      <trkpt lat="43.73364" lon="7.02677">
        <ele>1149.8000488281</ele>
        <time>2021-03-04T12:16:05.000Z</time>
      </trkpt>
      <trkpt lat="43.73363" lon="7.02676">
        <ele>1149.5999755859</ele>
        <time>2021-03-04T12:16:06.000Z</time>
      </trkpt>
      <trkpt lat="43.73359" lon="7.02676">
        <ele>1151.1999511719</ele>
        <time>2021-03-04T12:16:12.000Z</time>
      </trkpt>
      <trkpt lat="43.73358" lon="7.02677">
        <ele>1151.4000244141</ele>
        <time>2021-03-04T12:16:13.000Z</time>
      </trkpt>
      <trkpt lat="43.73356" lon="7.02677">
        <ele>1152</ele>
        <time>2021-03-04T12:16:15.000Z</time>
      </trkpt>
      <trkpt lat="43.73353" lon="7.02677">
        <ele>1152.4000244141</ele>
        <time>2021-03-04T12:16:18.000Z</time>
      </trkpt>
      <trkpt lat="43.73351" lon="7.02677">
        <ele>1152.5999755859</ele>
        <time>2021-03-04T12:16:20.000Z</time>
      </trkpt>
      <trkpt lat="43.7335" lon="7.02677">
        <ele>1153.5999755859</ele>
        <time>2021-03-04T12:16:23.000Z</time>
      </trkpt>
      <trkpt lat="43.7335" lon="7.02677">
        <ele>1154.4000244141</ele>
        <time>2021-03-04T12:16:25.000Z</time>
      </trkpt>
      <trkpt lat="43.7335" lon="7.02677">
        <ele>1154.8000488281</ele>
        <time>2021-03-04T12:16:27.000Z</time>
      </trkpt>
      <trkpt lat="43.7335" lon="7.02677">
        <ele>1154.5999755859</ele>
        <time>2021-03-04T12:16:34.000Z</time>
      </trkpt>
      <trkpt lat="43.7335" lon="7.02678">
        <ele>1154.4000244141</ele>
        <time>2021-03-04T12:16:43.000Z</time>
      </trkpt>
      <trkpt lat="43.7335" lon="7.02678">
        <ele>1154</ele>
        <time>2021-03-04T12:16:55.000Z</time>
      </trkpt>
      <trkpt lat="43.73351" lon="7.02679">
        <ele>1153.8000488281</ele>
        <time>2021-03-04T12:17:12.000Z</time>
      </trkpt>
      <trkpt lat="43.73351" lon="7.02679">
        <ele>1153.8000488281</ele>
        <time>2021-03-04T12:17:16.000Z</time>
      </trkpt>
      <trkpt lat="43.73349" lon="7.0268">
        <ele>1153.5999755859</ele>
        <time>2021-03-04T12:17:19.000Z</time>
      </trkpt>
      <trkpt lat="43.73348" lon="7.02679">
        <ele>1153.5999755859</ele>
        <time>2021-03-04T12:17:20.000Z</time>
      </trkpt>
      <trkpt lat="43.73343" lon="7.02682">
        <ele>1154.4000244141</ele>
        <time>2021-03-04T12:17:26.000Z</time>
      </trkpt>
      <trkpt lat="43.7334" lon="7.02683">
        <ele>1154.8000488281</ele>
        <time>2021-03-04T12:17:29.000Z</time>
      </trkpt>
      <trkpt lat="43.73334" lon="7.02686">
        <ele>1156</ele>
        <time>2021-03-04T12:17:34.000Z</time>
      </trkpt>
      <trkpt lat="43.73331" lon="7.02687">
        <ele>1157.1999511719</ele>
        <time>2021-03-04T12:17:39.000Z</time>
      </trkpt>
      <trkpt lat="43.73329" lon="7.02688">
        <ele>1157.1999511719</ele>
        <time>2021-03-04T12:17:40.000Z</time>
      </trkpt>
      <trkpt lat="43.73324" lon="7.0269">
        <ele>1157.5999755859</ele>
        <time>2021-03-04T12:17:44.000Z</time>
      </trkpt>
      <trkpt lat="43.73323" lon="7.02691">
        <ele>1157.5999755859</ele>
        <time>2021-03-04T12:17:45.000Z</time>
      </trkpt>
      <trkpt lat="43.73318" lon="7.02694">
        <ele>1158.1999511719</ele>
        <time>2021-03-04T12:17:49.000Z</time>
      </trkpt>
      <trkpt lat="43.73312" lon="7.02695">
        <ele>1158</ele>
        <time>2021-03-04T12:17:53.000Z</time>
      </trkpt>
      <trkpt lat="43.73309" lon="7.02697">
        <ele>1158</ele>
        <time>2021-03-04T12:17:58.000Z</time>
      </trkpt>
      <trkpt lat="43.73308" lon="7.02697">
        <ele>1158</ele>
        <time>2021-03-04T12:17:59.000Z</time>
      </trkpt>
      <trkpt lat="43.73304" lon="7.02696">
        <ele>1157.8000488281</ele>
        <time>2021-03-04T12:18:03.000Z</time>
      </trkpt>
      <trkpt lat="43.73303" lon="7.02695">
        <ele>1158</ele>
        <time>2021-03-04T12:18:04.000Z</time>
      </trkpt>
      <trkpt lat="43.73299" lon="7.02695">
        <ele>1158.8000488281</ele>
        <time>2021-03-04T12:18:10.000Z</time>
      </trkpt>
      <trkpt lat="43.73297" lon="7.02694">
        <ele>1159.4000244141</ele>
        <time>2021-03-04T12:18:12.000Z</time>
      </trkpt>
      <trkpt lat="43.73294" lon="7.02694">
        <ele>1160</ele>
        <time>2021-03-04T12:18:19.000Z</time>
      </trkpt>
      <trkpt lat="43.73289" lon="7.02695">
        <ele>1160.4000244141</ele>
        <time>2021-03-04T12:18:24.000Z</time>
      </trkpt>
      <trkpt lat="43.73274" lon="7.02694">
        <ele>1160.5999755859</ele>
        <time>2021-03-04T12:18:32.000Z</time>
      </trkpt>
      <trkpt lat="43.73262" lon="7.02691">
        <ele>1161.1999511719</ele>
        <time>2021-03-04T12:18:38.000Z</time>
      </trkpt>
      <trkpt lat="43.73261" lon="7.0269">
        <ele>1161.5999755859</ele>
        <time>2021-03-04T12:18:39.000Z</time>
      </trkpt>
      <trkpt lat="43.73255" lon="7.02688">
        <ele>1162.8000488281</ele>
        <time>2021-03-04T12:18:42.000Z</time>
      </trkpt>
      <trkpt lat="43.7325" lon="7.02687">
        <ele>1163.8000488281</ele>
        <time>2021-03-04T12:18:45.000Z</time>
      </trkpt>
      <trkpt lat="43.73243" lon="7.02687">
        <ele>1164.1999511719</ele>
        <time>2021-03-04T12:18:48.000Z</time>
      </trkpt>
      <trkpt lat="43.73232" lon="7.02688">
        <ele>1164.1999511719</ele>
        <time>2021-03-04T12:18:53.000Z</time>
      </trkpt>
      <trkpt lat="43.73219" lon="7.02688">
        <ele>1165</ele>
        <time>2021-03-04T12:19:00.000Z</time>
      </trkpt>
      <trkpt lat="43.73208" lon="7.02691">
        <ele>1165</ele>
        <time>2021-03-04T12:19:06.000Z</time>
      </trkpt>
      <trkpt lat="43.73199" lon="7.02693">
        <ele>1165.1999511719</ele>
        <time>2021-03-04T12:19:11.000Z</time>
      </trkpt>
      <trkpt lat="43.73195" lon="7.02694">
        <ele>1165</ele>
        <time>2021-03-04T12:19:14.000Z</time>
      </trkpt>
      <trkpt lat="43.73195" lon="7.02694">
        <ele>1164.8000488281</ele>
        <time>2021-03-04T12:19:16.000Z</time>
      </trkpt>
      <trkpt lat="43.73195" lon="7.02693">
        <ele>1164.8000488281</ele>
        <time>2021-03-04T12:19:21.000Z</time>
      </trkpt>
      <trkpt lat="43.7319" lon="7.02689">
        <ele>1166.1999511719</ele>
        <time>2021-03-04T12:19:29.000Z</time>
      </trkpt>
      <trkpt lat="43.73187" lon="7.02687">
        <ele>1166.5999755859</ele>
        <time>2021-03-04T12:19:37.000Z</time>
      </trkpt>
      <trkpt lat="43.73185" lon="7.02685">
        <ele>1167</ele>
        <time>2021-03-04T12:19:40.000Z</time>
      </trkpt>
      <trkpt lat="43.73185" lon="7.02686">
        <ele>1167</ele>
        <time>2021-03-04T12:19:41.000Z</time>
      </trkpt>
      <trkpt lat="43.73184" lon="7.02684">
        <ele>1167.1999511719</ele>
        <time>2021-03-04T12:19:43.000Z</time>
      </trkpt>
      <trkpt lat="43.73182" lon="7.02683">
        <ele>1168</ele>
        <time>2021-03-04T12:19:47.000Z</time>
      </trkpt>
      <trkpt lat="43.7318" lon="7.02684">
        <ele>1168.4000244141</ele>
        <time>2021-03-04T12:19:49.000Z</time>
      </trkpt>
      <trkpt lat="43.73178" lon="7.02683">
        <ele>1168.4000244141</ele>
        <time>2021-03-04T12:19:52.000Z</time>
      </trkpt>
      <trkpt lat="43.73171" lon="7.0268">
        <ele>1169.1999511719</ele>
        <time>2021-03-04T12:20:01.000Z</time>
      </trkpt>
      <trkpt lat="43.73171" lon="7.0268">
        <ele>1169.4000244141</ele>
        <time>2021-03-04T12:20:03.000Z</time>
      </trkpt>
      <trkpt lat="43.73169" lon="7.0268">
        <ele>1169.5999755859</ele>
        <time>2021-03-04T12:20:07.000Z</time>
      </trkpt>
      <trkpt lat="43.73169" lon="7.0268">
        <ele>1169.8000488281</ele>
        <time>2021-03-04T12:20:19.000Z</time>
      </trkpt>
      <trkpt lat="43.7317" lon="7.02679">
        <ele>1169.8000488281</ele>
        <time>2021-03-04T12:20:23.000Z</time>
      </trkpt>
      <trkpt lat="43.7317" lon="7.02679">
        <ele>1169.8000488281</ele>
        <time>2021-03-04T12:20:24.000Z</time>
      </trkpt>
      <trkpt lat="43.7317" lon="7.02677">
        <ele>1169.5999755859</ele>
        <time>2021-03-04T12:20:25.000Z</time>
      </trkpt>
      <trkpt lat="43.7317" lon="7.02675">
        <ele>1169.5999755859</ele>
        <time>2021-03-04T12:20:28.000Z</time>
      </trkpt>
      <trkpt lat="43.73168" lon="7.02671">
        <ele>1170.4000244141</ele>
        <time>2021-03-04T12:20:32.000Z</time>
      </trkpt>
      <trkpt lat="43.73168" lon="7.0267">
        <ele>1171.5999755859</ele>
        <time>2021-03-04T12:20:36.000Z</time>
      </trkpt>
      <trkpt lat="43.73168" lon="7.02669">
        <ele>1171.8000488281</ele>
        <time>2021-03-04T12:20:37.000Z</time>
      </trkpt>
      <trkpt lat="43.73167" lon="7.02668">
        <ele>1172.5999755859</ele>
        <time>2021-03-04T12:20:42.000Z</time>
      </trkpt>
      <trkpt lat="43.73166" lon="7.02668">
        <ele>1172.8000488281</ele>
        <time>2021-03-04T12:20:43.000Z</time>
      </trkpt>
      <trkpt lat="43.73163" lon="7.02667">
        <ele>1173.1999511719</ele>
        <time>2021-03-04T12:20:48.000Z</time>
      </trkpt>
      <trkpt lat="43.73161" lon="7.02667">
        <ele>1173.5999755859</ele>
        <time>2021-03-04T12:20:52.000Z</time>
      </trkpt>
      <trkpt lat="43.7316" lon="7.02666">
        <ele>1173.8000488281</ele>
        <time>2021-03-04T12:20:54.000Z</time>
      </trkpt>
      <trkpt lat="43.7316" lon="7.02664">
        <ele>1174.4000244141</ele>
        <time>2021-03-04T12:20:57.000Z</time>
      </trkpt>
      <trkpt lat="43.7316" lon="7.02664">
        <ele>1175</ele>
        <time>2021-03-04T12:21:00.000Z</time>
      </trkpt>
      <trkpt lat="43.7316" lon="7.02664">
        <ele>1175</ele>
        <time>2021-03-04T12:21:02.000Z</time>
      </trkpt>
      <trkpt lat="43.73161" lon="7.02663">
        <ele>1175</ele>
        <time>2021-03-04T12:21:03.000Z</time>
      </trkpt>
      <trkpt lat="43.73164" lon="7.02663">
        <ele>1175</ele>
        <time>2021-03-04T12:21:07.000Z</time>
      </trkpt>
      <trkpt lat="43.73165" lon="7.02662">
        <ele>1175</ele>
        <time>2021-03-04T12:21:08.000Z</time>
      </trkpt>
      <trkpt lat="43.73166" lon="7.02662">
        <ele>1175.1999511719</ele>
        <time>2021-03-04T12:21:11.000Z</time>
      </trkpt>
      <trkpt lat="43.73167" lon="7.02668">
        <ele>1175.1999511719</ele>
        <time>2021-03-04T12:21:15.000Z</time>
      </trkpt>
      <trkpt lat="43.73169" lon="7.02676">
        <ele>1173.8000488281</ele>
        <time>2021-03-04T12:21:20.000Z</time>
      </trkpt>
      <trkpt lat="43.7317" lon="7.02678">
        <ele>1173.1999511719</ele>
        <time>2021-03-04T12:21:22.000Z</time>
      </trkpt>
      <trkpt lat="43.7317" lon="7.02681">
        <ele>1172.5999755859</ele>
        <time>2021-03-04T12:21:24.000Z</time>
      </trkpt>
      <trkpt lat="43.73169" lon="7.02679">
        <ele>1171.8000488281</ele>
        <time>2021-03-04T12:21:26.000Z</time>
      </trkpt>
      <trkpt lat="43.73169" lon="7.02681">
        <ele>1171.4000244141</ele>
        <time>2021-03-04T12:21:27.000Z</time>
      </trkpt>
      <trkpt lat="43.7317" lon="7.0268">
        <ele>1171</ele>
        <time>2021-03-04T12:21:29.000Z</time>
      </trkpt>
      <trkpt lat="43.73173" lon="7.02677">
        <ele>1171.1999511719</ele>
        <time>2021-03-04T12:21:34.000Z</time>
      </trkpt>
      <trkpt lat="43.73176" lon="7.02671">
        <ele>1171.8000488281</ele>
        <time>2021-03-04T12:21:41.000Z</time>
      </trkpt>
      <trkpt lat="43.73178" lon="7.02668">
        <ele>1172.5999755859</ele>
        <time>2021-03-04T12:21:45.000Z</time>
      </trkpt>
      <trkpt lat="43.73179" lon="7.02665">
        <ele>1173.4000244141</ele>
        <time>2021-03-04T12:21:48.000Z</time>
      </trkpt>
      <trkpt lat="43.7318" lon="7.02664">
        <ele>1173.8000488281</ele>
        <time>2021-03-04T12:21:50.000Z</time>
      </trkpt>
      <trkpt lat="43.73181" lon="7.02662">
        <ele>1174.8000488281</ele>
        <time>2021-03-04T12:21:55.000Z</time>
      </trkpt>
      <trkpt lat="43.7318" lon="7.02661">
        <ele>1175</ele>
        <time>2021-03-04T12:21:56.000Z</time>
      </trkpt>
      <trkpt lat="43.73175" lon="7.02662">
        <ele>1175.8000488281</ele>
        <time>2021-03-04T12:22:02.000Z</time>
      </trkpt>
      <trkpt lat="43.73174" lon="7.02661">
        <ele>1175.8000488281</ele>
        <time>2021-03-04T12:22:04.000Z</time>
      </trkpt>
      <trkpt lat="43.73173" lon="7.02661">
        <ele>1175.8000488281</ele>
        <time>2021-03-04T12:22:08.000Z</time>
      </trkpt>
      <trkpt lat="43.73171" lon="7.02662">
        <ele>1175.5999755859</ele>
        <time>2021-03-04T12:22:16.000Z</time>
      </trkpt>
      <trkpt lat="43.73163" lon="7.02661">
        <ele>1175.5999755859</ele>
        <time>2021-03-04T12:22:22.000Z</time>
      </trkpt>
      <trkpt lat="43.7316" lon="7.02659">
        <ele>1176.1999511719</ele>
        <time>2021-03-04T12:22:26.000Z</time>
      </trkpt>
      <trkpt lat="43.7316" lon="7.02658">
        <ele>1176.8000488281</ele>
        <time>2021-03-04T12:22:28.000Z</time>
      </trkpt>
      <trkpt lat="43.73158" lon="7.02658">
        <ele>1177.4000244141</ele>
        <time>2021-03-04T12:22:32.000Z</time>
      </trkpt>
      <trkpt lat="43.73158" lon="7.02658">
        <ele>1177.8000488281</ele>
        <time>2021-03-04T12:22:39.000Z</time>
      </trkpt>
      <trkpt lat="43.73157" lon="7.02657">
        <ele>1177.5999755859</ele>
        <time>2021-03-04T12:22:40.000Z</time>
      </trkpt>
      <trkpt lat="43.73156" lon="7.02655">
        <ele>1178</ele>
        <time>2021-03-04T12:22:42.000Z</time>
      </trkpt>
      <trkpt lat="43.73155" lon="7.02654">
        <ele>1178.1999511719</ele>
        <time>2021-03-04T12:22:44.000Z</time>
      </trkpt>
      <trkpt lat="43.73151" lon="7.02655">
        <ele>1179</ele>
        <time>2021-03-04T12:22:49.000Z</time>
      </trkpt>
      <trkpt lat="43.73152" lon="7.02654">
        <ele>1179.1999511719</ele>
        <time>2021-03-04T12:22:50.000Z</time>
      </trkpt>
      <trkpt lat="43.73149" lon="7.02653">
        <ele>1179</ele>
        <time>2021-03-04T12:22:57.000Z</time>
      </trkpt>
      <trkpt lat="43.73146" lon="7.02652">
        <ele>1179.1999511719</ele>
        <time>2021-03-04T12:22:59.000Z</time>
      </trkpt>
      <trkpt lat="43.73141" lon="7.02652">
        <ele>1179.5999755859</ele>
        <time>2021-03-04T12:23:02.000Z</time>
      </trkpt>
      <trkpt lat="43.73134" lon="7.02649">
        <ele>1180.1999511719</ele>
        <time>2021-03-04T12:23:06.000Z</time>
      </trkpt>
      <trkpt lat="43.73131" lon="7.02647">
        <ele>1180.4000244141</ele>
        <time>2021-03-04T12:23:08.000Z</time>
      </trkpt>
      <trkpt lat="43.73126" lon="7.02644">
        <ele>1181.4000244141</ele>
        <time>2021-03-04T12:23:11.000Z</time>
      </trkpt>
      <trkpt lat="43.73122" lon="7.0264">
        <ele>1182.5999755859</ele>
        <time>2021-03-04T12:23:13.000Z</time>
      </trkpt>
      <trkpt lat="43.73119" lon="7.02636">
        <ele>1183.8000488281</ele>
        <time>2021-03-04T12:23:15.000Z</time>
      </trkpt>
      <trkpt lat="43.73116" lon="7.02631">
        <ele>1184.8000488281</ele>
        <time>2021-03-04T12:23:18.000Z</time>
      </trkpt>
      <trkpt lat="43.73115" lon="7.02631">
        <ele>1185.8000488281</ele>
        <time>2021-03-04T12:23:20.000Z</time>
      </trkpt>
      <trkpt lat="43.73115" lon="7.02631">
        <ele>1186.4000244141</ele>
        <time>2021-03-04T12:23:23.000Z</time>
      </trkpt>
      <trkpt lat="43.73113" lon="7.0263">
        <ele>1187.4000244141</ele>
        <time>2021-03-04T12:23:26.000Z</time>
      </trkpt>
      <trkpt lat="43.73113" lon="7.0263">
        <ele>1187.4000244141</ele>
        <time>2021-03-04T12:23:27.000Z</time>
      </trkpt>
      <trkpt lat="43.73111" lon="7.02629">
        <ele>1187.5999755859</ele>
        <time>2021-03-04T12:23:33.000Z</time>
      </trkpt>
      <trkpt lat="43.73104" lon="7.02619">
        <ele>1188.4000244141</ele>
        <time>2021-03-04T12:23:38.000Z</time>
      </trkpt>
      <trkpt lat="43.73102" lon="7.02614">
        <ele>1189.5999755859</ele>
        <time>2021-03-04T12:23:41.000Z</time>
      </trkpt>
      <trkpt lat="43.731" lon="7.02612">
        <ele>1190.1999511719</ele>
        <time>2021-03-04T12:23:43.000Z</time>
      </trkpt>
      <trkpt lat="43.731" lon="7.02612">
        <ele>1190.8000488281</ele>
        <time>2021-03-04T12:23:44.000Z</time>
      </trkpt>
      <trkpt lat="43.73099" lon="7.02612">
        <ele>1191.8000488281</ele>
        <time>2021-03-04T12:23:46.000Z</time>
      </trkpt>
      <trkpt lat="43.73099" lon="7.02612">
        <ele>1192.1999511719</ele>
        <time>2021-03-04T12:23:47.000Z</time>
      </trkpt>
      <trkpt lat="43.73099" lon="7.02612">
        <ele>1192.1999511719</ele>
        <time>2021-03-04T12:23:48.000Z</time>
      </trkpt>
      <trkpt lat="43.73098" lon="7.02612">
        <ele>1192.1999511719</ele>
        <time>2021-03-04T12:23:54.000Z</time>
      </trkpt>
      <trkpt lat="43.73095" lon="7.02611">
        <ele>1192.5999755859</ele>
        <time>2021-03-04T12:24:01.000Z</time>
      </trkpt>
      <trkpt lat="43.73093" lon="7.02611">
        <ele>1192.8000488281</ele>
        <time>2021-03-04T12:24:07.000Z</time>
      </trkpt>
      <trkpt lat="43.73092" lon="7.02611">
        <ele>1193</ele>
        <time>2021-03-04T12:24:08.000Z</time>
      </trkpt>
      <trkpt lat="43.73089" lon="7.02607">
        <ele>1193.4000244141</ele>
        <time>2021-03-04T12:24:14.000Z</time>
      </trkpt>
      <trkpt lat="43.73089" lon="7.02606">
        <ele>1194</ele>
        <time>2021-03-04T12:24:18.000Z</time>
      </trkpt>
      <trkpt lat="43.73088" lon="7.02605">
        <ele>1194.1999511719</ele>
        <time>2021-03-04T12:24:20.000Z</time>
      </trkpt>
      <trkpt lat="43.73087" lon="7.02603">
        <ele>1194.8000488281</ele>
        <time>2021-03-04T12:24:26.000Z</time>
      </trkpt>
      <trkpt lat="43.73086" lon="7.02602">
        <ele>1195</ele>
        <time>2021-03-04T12:24:29.000Z</time>
      </trkpt>
      <trkpt lat="43.73084" lon="7.02603">
        <ele>1195.4000244141</ele>
        <time>2021-03-04T12:24:32.000Z</time>
      </trkpt>
      <trkpt lat="43.7308" lon="7.02604">
        <ele>1195.8000488281</ele>
        <time>2021-03-04T12:24:38.000Z</time>
      </trkpt>
      <trkpt lat="43.7308" lon="7.02604">
        <ele>1196.1999511719</ele>
        <time>2021-03-04T12:24:40.000Z</time>
      </trkpt>
      <trkpt lat="43.73077" lon="7.02603">
        <ele>1196.5999755859</ele>
        <time>2021-03-04T12:24:45.000Z</time>
      </trkpt>
      <trkpt lat="43.73072" lon="7.02603">
        <ele>1197.1999511719</ele>
        <time>2021-03-04T12:24:52.000Z</time>
      </trkpt>
      <trkpt lat="43.73067" lon="7.02603">
        <ele>1197.5999755859</ele>
        <time>2021-03-04T12:24:59.000Z</time>
      </trkpt>
      <trkpt lat="43.73062" lon="7.02604">
        <ele>1197.8000488281</ele>
        <time>2021-03-04T12:25:05.000Z</time>
      </trkpt>
      <trkpt lat="43.7306" lon="7.02605">
        <ele>1198.1999511719</ele>
        <time>2021-03-04T12:25:07.000Z</time>
      </trkpt>
      <trkpt lat="43.73057" lon="7.02606">
        <ele>1198.4000244141</ele>
        <time>2021-03-04T12:25:11.000Z</time>
      </trkpt>
      <trkpt lat="43.73055" lon="7.02604">
        <ele>1199</ele>
        <time>2021-03-04T12:25:15.000Z</time>
      </trkpt>
      <trkpt lat="43.73053" lon="7.02603">
        <ele>1199.4000244141</ele>
        <time>2021-03-04T12:25:19.000Z</time>
      </trkpt>
      <trkpt lat="43.73051" lon="7.02603">
        <ele>1199.5999755859</ele>
        <time>2021-03-04T12:25:22.000Z</time>
      </trkpt>
      <trkpt lat="43.73051" lon="7.02603">
        <ele>1200</ele>
        <time>2021-03-04T12:25:31.000Z</time>
      </trkpt>
      <trkpt lat="43.73051" lon="7.02603">
        <ele>1199.8000488281</ele>
        <time>2021-03-04T12:25:47.000Z</time>
      </trkpt>
      <trkpt lat="43.73049" lon="7.02604">
        <ele>1199.5999755859</ele>
        <time>2021-03-04T12:25:50.000Z</time>
      </trkpt>
      <trkpt lat="43.73044" lon="7.02603">
        <ele>1200</ele>
        <time>2021-03-04T12:25:55.000Z</time>
      </trkpt>
      <trkpt lat="43.73043" lon="7.02603">
        <ele>1200.4000244141</ele>
        <time>2021-03-04T12:25:57.000Z</time>
      </trkpt>
      <trkpt lat="43.73041" lon="7.02603">
        <ele>1200.8000488281</ele>
        <time>2021-03-04T12:26:01.000Z</time>
      </trkpt>
      <trkpt lat="43.73038" lon="7.02604">
        <ele>1201.4000244141</ele>
        <time>2021-03-04T12:26:05.000Z</time>
      </trkpt>
      <trkpt lat="43.73037" lon="7.02604">
        <ele>1201.5999755859</ele>
        <time>2021-03-04T12:26:06.000Z</time>
      </trkpt>
      <trkpt lat="43.73036" lon="7.02605">
        <ele>1201.8000488281</ele>
        <time>2021-03-04T12:26:08.000Z</time>
      </trkpt>
      <trkpt lat="43.73035" lon="7.02605">
        <ele>1202.1999511719</ele>
        <time>2021-03-04T12:26:10.000Z</time>
      </trkpt>
      <trkpt lat="43.73034" lon="7.02605">
        <ele>1202.5999755859</ele>
        <time>2021-03-04T12:26:12.000Z</time>
      </trkpt>
      <trkpt lat="43.73033" lon="7.02602">
        <ele>1202.8000488281</ele>
        <time>2021-03-04T12:26:15.000Z</time>
      </trkpt>
      <trkpt lat="43.73033" lon="7.02602">
        <ele>1203.5999755859</ele>
        <time>2021-03-04T12:26:21.000Z</time>
      </trkpt>
      <trkpt lat="43.73036" lon="7.02601">
        <ele>1203.5999755859</ele>
        <time>2021-03-04T12:26:26.000Z</time>
      </trkpt>
      <trkpt lat="43.73036" lon="7.02603">
        <ele>1203.4000244141</ele>
        <time>2021-03-04T12:26:28.000Z</time>
      </trkpt>
      <trkpt lat="43.73036" lon="7.02605">
        <ele>1203</ele>
        <time>2021-03-04T12:26:31.000Z</time>
      </trkpt>
      <trkpt lat="43.73038" lon="7.02607">
        <ele>1202.5999755859</ele>
        <time>2021-03-04T12:26:34.000Z</time>
      </trkpt>
      <trkpt lat="43.73039" lon="7.02608">
        <ele>1202.5999755859</ele>
        <time>2021-03-04T12:26:35.000Z</time>
      </trkpt>
      <trkpt lat="43.73039" lon="7.02608">
        <ele>1202.4000244141</ele>
        <time>2021-03-04T12:26:36.000Z</time>
      </trkpt>
      <trkpt lat="43.73041" lon="7.0261">
        <ele>1201.1999511719</ele>
        <time>2021-03-04T12:26:41.000Z</time>
      </trkpt>
      <trkpt lat="43.73044" lon="7.02611">
        <ele>1200.5999755859</ele>
        <time>2021-03-04T12:26:45.000Z</time>
      </trkpt>
      <trkpt lat="43.73044" lon="7.02611">
        <ele>1200.4000244141</ele>
        <time>2021-03-04T12:26:46.000Z</time>
      </trkpt>
      <trkpt lat="43.73044" lon="7.02611">
        <ele>1200.1999511719</ele>
        <time>2021-03-04T12:26:48.000Z</time>
      </trkpt>
      <trkpt lat="43.73046" lon="7.02608">
        <ele>1199.8000488281</ele>
        <time>2021-03-04T12:26:54.000Z</time>
      </trkpt>
      <trkpt lat="43.73048" lon="7.02605">
        <ele>1200.1999511719</ele>
        <time>2021-03-04T12:26:57.000Z</time>
      </trkpt>
      <trkpt lat="43.73049" lon="7.02603">
        <ele>1200</ele>
        <time>2021-03-04T12:26:59.000Z</time>
      </trkpt>
      <trkpt lat="43.7305" lon="7.02604">
        <ele>1200.1999511719</ele>
        <time>2021-03-04T12:27:04.000Z</time>
      </trkpt>
      <trkpt lat="43.7305" lon="7.02604">
        <ele>1200.1999511719</ele>
        <time>2021-03-04T12:27:13.000Z</time>
      </trkpt>
      <trkpt lat="43.73048" lon="7.02604">
        <ele>1200.1999511719</ele>
        <time>2021-03-04T12:27:15.000Z</time>
      </trkpt>
      <trkpt lat="43.73046" lon="7.02604">
        <ele>1200.4000244141</ele>
        <time>2021-03-04T12:27:18.000Z</time>
      </trkpt>
      <trkpt lat="43.73044" lon="7.02603">
        <ele>1201.1999511719</ele>
        <time>2021-03-04T12:27:23.000Z</time>
      </trkpt>
      <trkpt lat="43.73043" lon="7.02603">
        <ele>1201.4000244141</ele>
        <time>2021-03-04T12:27:25.000Z</time>
      </trkpt>
      <trkpt lat="43.73041" lon="7.02604">
        <ele>1202.1999511719</ele>
        <time>2021-03-04T12:27:30.000Z</time>
      </trkpt>
      <trkpt lat="43.73039" lon="7.02605">
        <ele>1202.8000488281</ele>
        <time>2021-03-04T12:27:34.000Z</time>
      </trkpt>
      <trkpt lat="43.73038" lon="7.02605">
        <ele>1202.8000488281</ele>
        <time>2021-03-04T12:27:36.000Z</time>
      </trkpt>
      <trkpt lat="43.73035" lon="7.02605">
        <ele>1203.4000244141</ele>
        <time>2021-03-04T12:27:40.000Z</time>
      </trkpt>
      <trkpt lat="43.73034" lon="7.02603">
        <ele>1203.8000488281</ele>
        <time>2021-03-04T12:27:43.000Z</time>
      </trkpt>
      <trkpt lat="43.73033" lon="7.026">
        <ele>1204.4000244141</ele>
        <time>2021-03-04T12:27:47.000Z</time>
      </trkpt>
      <trkpt lat="43.73031" lon="7.026">
        <ele>1205.1999511719</ele>
        <time>2021-03-04T12:27:51.000Z</time>
      </trkpt>
      <trkpt lat="43.73031" lon="7.026">
        <ele>1205.4000244141</ele>
        <time>2021-03-04T12:27:53.000Z</time>
      </trkpt>
      <trkpt lat="43.73029" lon="7.02601">
        <ele>1206</ele>
        <time>2021-03-04T12:27:59.000Z</time>
      </trkpt>
      <trkpt lat="43.73025" lon="7.02602">
        <ele>1206.4000244141</ele>
        <time>2021-03-04T12:28:05.000Z</time>
      </trkpt>
      <trkpt lat="43.73025" lon="7.02603">
        <ele>1206.5999755859</ele>
        <time>2021-03-04T12:28:06.000Z</time>
      </trkpt>
      <trkpt lat="43.73021" lon="7.02603">
        <ele>1207.1999511719</ele>
        <time>2021-03-04T12:28:12.000Z</time>
      </trkpt>
      <trkpt lat="43.73021" lon="7.02602">
        <ele>1207.4000244141</ele>
        <time>2021-03-04T12:28:15.000Z</time>
      </trkpt>
      <trkpt lat="43.73021" lon="7.02602">
        <ele>1207.5999755859</ele>
        <time>2021-03-04T12:28:18.000Z</time>
      </trkpt>
      <trkpt lat="43.73018" lon="7.02601">
        <ele>1207.8000488281</ele>
        <time>2021-03-04T12:28:24.000Z</time>
      </trkpt>
      <trkpt lat="43.73017" lon="7.02601">
        <ele>1208.5999755859</ele>
        <time>2021-03-04T12:28:28.000Z</time>
      </trkpt>
      <trkpt lat="43.73017" lon="7.026">
        <ele>1209</ele>
        <time>2021-03-04T12:28:30.000Z</time>
      </trkpt>
      <trkpt lat="43.73013" lon="7.02599">
        <ele>1209</ele>
        <time>2021-03-04T12:28:35.000Z</time>
      </trkpt>
      <trkpt lat="43.73012" lon="7.02596">
        <ele>1209.5999755859</ele>
        <time>2021-03-04T12:28:40.000Z</time>
      </trkpt>
      <trkpt lat="43.73012" lon="7.02595">
        <ele>1209.4000244141</ele>
        <time>2021-03-04T12:28:43.000Z</time>
      </trkpt>
      <trkpt lat="43.73011" lon="7.02595">
        <ele>1209</ele>
        <time>2021-03-04T12:28:49.000Z</time>
      </trkpt>
      <trkpt lat="43.73006" lon="7.02593">
        <ele>1209.1999511719</ele>
        <time>2021-03-04T12:28:53.000Z</time>
      </trkpt>
      <trkpt lat="43.73005" lon="7.02593">
        <ele>1209.4000244141</ele>
        <time>2021-03-04T12:28:54.000Z</time>
      </trkpt>
      <trkpt lat="43.73002" lon="7.02594">
        <ele>1209.8000488281</ele>
        <time>2021-03-04T12:28:56.000Z</time>
      </trkpt>
      <trkpt lat="43.73002" lon="7.02595">
        <ele>1210</ele>
        <time>2021-03-04T12:28:57.000Z</time>
      </trkpt>
      <trkpt lat="43.72998" lon="7.02598">
        <ele>1210.5999755859</ele>
        <time>2021-03-04T12:29:00.000Z</time>
      </trkpt>
      <trkpt lat="43.72997" lon="7.02599">
        <ele>1210.8000488281</ele>
        <time>2021-03-04T12:29:01.000Z</time>
      </trkpt>
      <trkpt lat="43.72994" lon="7.02601">
        <ele>1211.1999511719</ele>
        <time>2021-03-04T12:29:03.000Z</time>
      </trkpt>
      <trkpt lat="43.7299" lon="7.02601">
        <ele>1211.4000244141</ele>
        <time>2021-03-04T12:29:05.000Z</time>
      </trkpt>
      <trkpt lat="43.72987" lon="7.02598">
        <ele>1211.5999755859</ele>
        <time>2021-03-04T12:29:07.000Z</time>
      </trkpt>
      <trkpt lat="43.72987" lon="7.02593">
        <ele>1213</ele>
        <time>2021-03-04T12:29:11.000Z</time>
      </trkpt>
      <trkpt lat="43.72987" lon="7.02592">
        <ele>1213.1999511719</ele>
        <time>2021-03-04T12:29:12.000Z</time>
      </trkpt>
      <trkpt lat="43.72986" lon="7.02591">
        <ele>1214</ele>
        <time>2021-03-04T12:29:16.000Z</time>
      </trkpt>
      <trkpt lat="43.72985" lon="7.02589">
        <ele>1214.1999511719</ele>
        <time>2021-03-04T12:29:18.000Z</time>
      </trkpt>
      <trkpt lat="43.72982" lon="7.02586">
        <ele>1214.5999755859</ele>
        <time>2021-03-04T12:29:23.000Z</time>
      </trkpt>
      <trkpt lat="43.72983" lon="7.02584">
        <ele>1214.5999755859</ele>
        <time>2021-03-04T12:29:24.000Z</time>
      </trkpt>
      <trkpt lat="43.72982" lon="7.02583">
        <ele>1214.5999755859</ele>
        <time>2021-03-04T12:29:26.000Z</time>
      </trkpt>
      <trkpt lat="43.72981" lon="7.0258">
        <ele>1214.8000488281</ele>
        <time>2021-03-04T12:29:28.000Z</time>
      </trkpt>
      <trkpt lat="43.72981" lon="7.0258">
        <ele>1215</ele>
        <time>2021-03-04T12:29:30.000Z</time>
      </trkpt>
      <trkpt lat="43.7298" lon="7.0258">
        <ele>1215.8000488281</ele>
        <time>2021-03-04T12:29:35.000Z</time>
      </trkpt>
      <trkpt lat="43.72979" lon="7.02579">
        <ele>1215.8000488281</ele>
        <time>2021-03-04T12:29:41.000Z</time>
      </trkpt>
      <trkpt lat="43.72977" lon="7.02577">
        <ele>1216.1999511719</ele>
        <time>2021-03-04T12:29:46.000Z</time>
      </trkpt>
      <trkpt lat="43.72975" lon="7.02577">
        <ele>1216.5999755859</ele>
        <time>2021-03-04T12:29:48.000Z</time>
      </trkpt>
      <trkpt lat="43.72973" lon="7.02574">
        <ele>1217.4000244141</ele>
        <time>2021-03-04T12:29:53.000Z</time>
      </trkpt>
      <trkpt lat="43.72971" lon="7.02573">
        <ele>1218.4000244141</ele>
        <time>2021-03-04T12:29:57.000Z</time>
      </trkpt>
      <trkpt lat="43.7297" lon="7.02573">
        <ele>1218.5999755859</ele>
        <time>2021-03-04T12:29:58.000Z</time>
      </trkpt>
      <trkpt lat="43.72968" lon="7.0257">
        <ele>1219</ele>
        <time>2021-03-04T12:30:02.000Z</time>
      </trkpt>
      <trkpt lat="43.72964" lon="7.02566">
        <ele>1219.4000244141</ele>
        <time>2021-03-04T12:30:10.000Z</time>
      </trkpt>
      <trkpt lat="43.72963" lon="7.02565">
        <ele>1219.5999755859</ele>
        <time>2021-03-04T12:30:14.000Z</time>
      </trkpt>
      <trkpt lat="43.72963" lon="7.02565">
        <ele>1219.5999755859</ele>
        <time>2021-03-04T12:30:17.000Z</time>
      </trkpt>
      <trkpt lat="43.72965" lon="7.02565">
        <ele>1219.5999755859</ele>
        <time>2021-03-04T12:30:19.000Z</time>
      </trkpt>
      <trkpt lat="43.72966" lon="7.02565">
        <ele>1219.4000244141</ele>
        <time>2021-03-04T12:30:21.000Z</time>
      </trkpt>
      <trkpt lat="43.7297" lon="7.02564">
        <ele>1219.1999511719</ele>
        <time>2021-03-04T12:30:27.000Z</time>
      </trkpt>
      <trkpt lat="43.72971" lon="7.02565">
        <ele>1219.4000244141</ele>
        <time>2021-03-04T12:30:28.000Z</time>
      </trkpt>
      <trkpt lat="43.7297" lon="7.02564">
        <ele>1219.5999755859</ele>
        <time>2021-03-04T12:30:32.000Z</time>
      </trkpt>
      <trkpt lat="43.72965" lon="7.02561">
        <ele>1219.8000488281</ele>
        <time>2021-03-04T12:30:38.000Z</time>
      </trkpt>
      <trkpt lat="43.72962" lon="7.02559">
        <ele>1220</ele>
        <time>2021-03-04T12:30:41.000Z</time>
      </trkpt>
      <trkpt lat="43.7296" lon="7.02556">
        <ele>1220.4000244141</ele>
        <time>2021-03-04T12:30:44.000Z</time>
      </trkpt>
      <trkpt lat="43.7296" lon="7.02555">
        <ele>1220.5999755859</ele>
        <time>2021-03-04T12:30:47.000Z</time>
      </trkpt>
      <trkpt lat="43.7296" lon="7.02554">
        <ele>1220.8000488281</ele>
        <time>2021-03-04T12:30:49.000Z</time>
      </trkpt>
      <trkpt lat="43.72962" lon="7.02559">
        <ele>1221</ele>
        <time>2021-03-04T12:30:53.000Z</time>
      </trkpt>
      <trkpt lat="43.72963" lon="7.0256">
        <ele>1220.8000488281</ele>
        <time>2021-03-04T12:30:55.000Z</time>
      </trkpt>
      <trkpt lat="43.72962" lon="7.02563">
        <ele>1220.8000488281</ele>
        <time>2021-03-04T12:30:57.000Z</time>
      </trkpt>
      <trkpt lat="43.72962" lon="7.02565">
        <ele>1220.4000244141</ele>
        <time>2021-03-04T12:31:00.000Z</time>
      </trkpt>
      <trkpt lat="43.72962" lon="7.02566">
        <ele>1219.8000488281</ele>
        <time>2021-03-04T12:31:04.000Z</time>
      </trkpt>
      <trkpt lat="43.72964" lon="7.02566">
        <ele>1219.5999755859</ele>
        <time>2021-03-04T12:31:09.000Z</time>
      </trkpt>
      <trkpt lat="43.72967" lon="7.02563">
        <ele>1220.4000244141</ele>
        <time>2021-03-04T12:31:16.000Z</time>
      </trkpt>
      <trkpt lat="43.72967" lon="7.02563">
        <ele>1220.5999755859</ele>
        <time>2021-03-04T12:31:21.000Z</time>
      </trkpt>
      <trkpt lat="43.72964" lon="7.0256">
        <ele>1221</ele>
        <time>2021-03-04T12:31:29.000Z</time>
      </trkpt>
      <trkpt lat="43.72962" lon="7.02558">
        <ele>1221.1999511719</ele>
        <time>2021-03-04T12:31:34.000Z</time>
      </trkpt>
      <trkpt lat="43.72959" lon="7.02556">
        <ele>1221.4000244141</ele>
        <time>2021-03-04T12:31:36.000Z</time>
      </trkpt>
      <trkpt lat="43.72957" lon="7.02552">
        <ele>1221.4000244141</ele>
        <time>2021-03-04T12:31:39.000Z</time>
      </trkpt>
      <trkpt lat="43.72952" lon="7.02545">
        <ele>1221.5999755859</ele>
        <time>2021-03-04T12:31:43.000Z</time>
      </trkpt>
      <trkpt lat="43.72952" lon="7.02541">
        <ele>1221.8000488281</ele>
        <time>2021-03-04T12:31:45.000Z</time>
      </trkpt>
      <trkpt lat="43.72951" lon="7.02538">
        <ele>1222.5999755859</ele>
        <time>2021-03-04T12:31:47.000Z</time>
      </trkpt>
      <trkpt lat="43.72952" lon="7.02539">
        <ele>1223</ele>
        <time>2021-03-04T12:31:48.000Z</time>
      </trkpt>
      <trkpt lat="43.72951" lon="7.02537">
        <ele>1224</ele>
        <time>2021-03-04T12:31:50.000Z</time>
      </trkpt>
      <trkpt lat="43.72951" lon="7.02537">
        <ele>1224.1999511719</ele>
        <time>2021-03-04T12:31:51.000Z</time>
      </trkpt>
      <trkpt lat="43.7295" lon="7.02534">
        <ele>1225</ele>
        <time>2021-03-04T12:31:58.000Z</time>
      </trkpt>
      <trkpt lat="43.72949" lon="7.02527">
        <ele>1225.1999511719</ele>
        <time>2021-03-04T12:32:02.000Z</time>
      </trkpt>
      <trkpt lat="43.72951" lon="7.02522">
        <ele>1225.4000244141</ele>
        <time>2021-03-04T12:32:04.000Z</time>
      </trkpt>
      <trkpt lat="43.72952" lon="7.02518">
        <ele>1225.8000488281</ele>
        <time>2021-03-04T12:32:06.000Z</time>
      </trkpt>
      <trkpt lat="43.72953" lon="7.02513">
        <ele>1227</ele>
        <time>2021-03-04T12:32:08.000Z</time>
      </trkpt>
      <trkpt lat="43.72953" lon="7.02508">
        <ele>1228.1999511719</ele>
        <time>2021-03-04T12:32:10.000Z</time>
      </trkpt>
      <trkpt lat="43.72953" lon="7.02503">
        <ele>1229.1999511719</ele>
        <time>2021-03-04T12:32:12.000Z</time>
      </trkpt>
      <trkpt lat="43.72954" lon="7.025">
        <ele>1229.5999755859</ele>
        <time>2021-03-04T12:32:13.000Z</time>
      </trkpt>
      <trkpt lat="43.72953" lon="7.02495">
        <ele>1230.4000244141</ele>
        <time>2021-03-04T12:32:15.000Z</time>
      </trkpt>
      <trkpt lat="43.72951" lon="7.02488">
        <ele>1231.8000488281</ele>
        <time>2021-03-04T12:32:18.000Z</time>
      </trkpt>
      <trkpt lat="43.7295" lon="7.0248">
        <ele>1232.8000488281</ele>
        <time>2021-03-04T12:32:21.000Z</time>
      </trkpt>
      <trkpt lat="43.7295" lon="7.0247">
        <ele>1234</ele>
        <time>2021-03-04T12:32:25.000Z</time>
      </trkpt>
      <trkpt lat="43.72951" lon="7.02466">
        <ele>1235.1999511719</ele>
        <time>2021-03-04T12:32:27.000Z</time>
      </trkpt>
      <trkpt lat="43.7295" lon="7.02459">
        <ele>1236.5999755859</ele>
        <time>2021-03-04T12:32:30.000Z</time>
      </trkpt>
      <trkpt lat="43.72949" lon="7.02458">
        <ele>1237</ele>
        <time>2021-03-04T12:32:31.000Z</time>
      </trkpt>
      <trkpt lat="43.72948" lon="7.02457">
        <ele>1237.8000488281</ele>
        <time>2021-03-04T12:32:33.000Z</time>
      </trkpt>
      <trkpt lat="43.72948" lon="7.02456">
        <ele>1238.4000244141</ele>
        <time>2021-03-04T12:32:34.000Z</time>
      </trkpt>
      <trkpt lat="43.72948" lon="7.02456">
        <ele>1238.8000488281</ele>
        <time>2021-03-04T12:32:37.000Z</time>
      </trkpt>
      <trkpt lat="43.72948" lon="7.02455">
        <ele>1238.8000488281</ele>
        <time>2021-03-04T12:32:43.000Z</time>
      </trkpt>
      <trkpt lat="43.72947" lon="7.02449">
        <ele>1239.8000488281</ele>
        <time>2021-03-04T12:32:50.000Z</time>
      </trkpt>
      <trkpt lat="43.72947" lon="7.02448">
        <ele>1240</ele>
        <time>2021-03-04T12:32:51.000Z</time>
      </trkpt>
      <trkpt lat="43.72946" lon="7.02444">
        <ele>1241</ele>
        <time>2021-03-04T12:32:58.000Z</time>
      </trkpt>
      <trkpt lat="43.72947" lon="7.02444">
        <ele>1241.1999511719</ele>
        <time>2021-03-04T12:33:13.000Z</time>
      </trkpt>
      <trkpt lat="43.72947" lon="7.02444">
        <ele>1241.4000244141</ele>
        <time>2021-03-04T12:33:25.000Z</time>
      </trkpt>
      <trkpt lat="43.72947" lon="7.02444">
        <ele>1241.5999755859</ele>
        <time>2021-03-04T12:33:34.000Z</time>
      </trkpt>
      <trkpt lat="43.72947" lon="7.02444">
        <ele>1241.4000244141</ele>
        <time>2021-03-04T12:33:39.000Z</time>
      </trkpt>
      <trkpt lat="43.72946" lon="7.02444">
        <ele>1241</ele>
        <time>2021-03-04T12:33:51.000Z</time>
      </trkpt>
      <trkpt lat="43.72947" lon="7.02443">
        <ele>1241.5999755859</ele>
        <time>2021-03-04T12:33:58.000Z</time>
      </trkpt>
      <trkpt lat="43.72946" lon="7.02442">
        <ele>1241.5999755859</ele>
        <time>2021-03-04T12:34:04.000Z</time>
      </trkpt>
      <trkpt lat="43.72946" lon="7.02443">
        <ele>1241.4000244141</ele>
        <time>2021-03-04T12:34:19.000Z</time>
      </trkpt>
      <trkpt lat="43.72946" lon="7.02443">
        <ele>1241.4000244141</ele>
        <time>2021-03-04T12:34:31.000Z</time>
      </trkpt>
      <trkpt lat="43.72946" lon="7.02444">
        <ele>1241.1999511719</ele>
        <time>2021-03-04T12:34:49.000Z</time>
      </trkpt>
      <trkpt lat="43.72946" lon="7.02443">
        <ele>1241</ele>
        <time>2021-03-04T12:35:05.000Z</time>
      </trkpt>
      <trkpt lat="43.72946" lon="7.02444">
        <ele>1241.1999511719</ele>
        <time>2021-03-04T12:35:26.000Z</time>
      </trkpt>
      <trkpt lat="43.72945" lon="7.02444">
        <ele>1241.1999511719</ele>
        <time>2021-03-04T12:35:32.000Z</time>
      </trkpt>
      <trkpt lat="43.72942" lon="7.02448">
        <ele>1241.5999755859</ele>
        <time>2021-03-04T12:35:37.000Z</time>
      </trkpt>
      <trkpt lat="43.72941" lon="7.02449">
        <ele>1241.5999755859</ele>
        <time>2021-03-04T12:35:38.000Z</time>
      </trkpt>
      <trkpt lat="43.72937" lon="7.02453">
        <ele>1241.4000244141</ele>
        <time>2021-03-04T12:35:44.000Z</time>
      </trkpt>
      <trkpt lat="43.72936" lon="7.02454">
        <ele>1241.4000244141</ele>
        <time>2021-03-04T12:35:49.000Z</time>
      </trkpt>
      <trkpt lat="43.72933" lon="7.02455">
        <ele>1241.4000244141</ele>
        <time>2021-03-04T12:35:54.000Z</time>
      </trkpt>
      <trkpt lat="43.72928" lon="7.02456">
        <ele>1242</ele>
        <time>2021-03-04T12:36:01.000Z</time>
      </trkpt>
      <trkpt lat="43.72926" lon="7.02457">
        <ele>1242.1999511719</ele>
        <time>2021-03-04T12:36:04.000Z</time>
      </trkpt>
      <trkpt lat="43.72925" lon="7.02458">
        <ele>1242.4000244141</ele>
        <time>2021-03-04T12:36:08.000Z</time>
      </trkpt>
      <trkpt lat="43.72923" lon="7.02458">
        <ele>1242.4000244141</ele>
        <time>2021-03-04T12:36:13.000Z</time>
      </trkpt>
      <trkpt lat="43.7292" lon="7.02457">
        <ele>1243</ele>
        <time>2021-03-04T12:36:19.000Z</time>
      </trkpt>
      <trkpt lat="43.72919" lon="7.02456">
        <ele>1243.1999511719</ele>
        <time>2021-03-04T12:36:20.000Z</time>
      </trkpt>
      <trkpt lat="43.72919" lon="7.02452">
        <ele>1244</ele>
        <time>2021-03-04T12:36:26.000Z</time>
      </trkpt>
      <trkpt lat="43.72918" lon="7.0245">
        <ele>1244.1999511719</ele>
        <time>2021-03-04T12:36:28.000Z</time>
      </trkpt>
      <trkpt lat="43.72917" lon="7.02446">
        <ele>1245.1999511719</ele>
        <time>2021-03-04T12:36:33.000Z</time>
      </trkpt>
      <trkpt lat="43.72917" lon="7.02445">
        <ele>1245.4000244141</ele>
        <time>2021-03-04T12:36:34.000Z</time>
      </trkpt>
      <trkpt lat="43.72918" lon="7.02441">
        <ele>1246.4000244141</ele>
        <time>2021-03-04T12:36:40.000Z</time>
      </trkpt>
      <trkpt lat="43.7292" lon="7.02434">
        <ele>1247.5999755859</ele>
        <time>2021-03-04T12:36:47.000Z</time>
      </trkpt>
      <trkpt lat="43.7292" lon="7.02433">
        <ele>1247.5999755859</ele>
        <time>2021-03-04T12:36:48.000Z</time>
      </trkpt>
      <trkpt lat="43.72919" lon="7.02429">
        <ele>1249</ele>
        <time>2021-03-04T12:36:53.000Z</time>
      </trkpt>
      <trkpt lat="43.72919" lon="7.02429">
        <ele>1249.4000244141</ele>
        <time>2021-03-04T12:36:55.000Z</time>
      </trkpt>
      <trkpt lat="43.72916" lon="7.02428">
        <ele>1250</ele>
        <time>2021-03-04T12:37:04.000Z</time>
      </trkpt>
      <trkpt lat="43.72911" lon="7.02427">
        <ele>1251.1999511719</ele>
        <time>2021-03-04T12:37:11.000Z</time>
      </trkpt>
      <trkpt lat="43.7291" lon="7.02428">
        <ele>1251.1999511719</ele>
        <time>2021-03-04T12:37:12.000Z</time>
      </trkpt>
      <trkpt lat="43.72907" lon="7.02424">
        <ele>1252</ele>
        <time>2021-03-04T12:37:18.000Z</time>
      </trkpt>
      <trkpt lat="43.72907" lon="7.02423">
        <ele>1252.4000244141</ele>
        <time>2021-03-04T12:37:19.000Z</time>
      </trkpt>
      <trkpt lat="43.72909" lon="7.0242">
        <ele>1253</ele>
        <time>2021-03-04T12:37:22.000Z</time>
      </trkpt>
      <trkpt lat="43.72909" lon="7.02418">
        <ele>1253.4000244141</ele>
        <time>2021-03-04T12:37:24.000Z</time>
      </trkpt>
      <trkpt lat="43.72911" lon="7.02415">
        <ele>1254</ele>
        <time>2021-03-04T12:37:28.000Z</time>
      </trkpt>
      <trkpt lat="43.72912" lon="7.02413">
        <ele>1254.4000244141</ele>
        <time>2021-03-04T12:37:30.000Z</time>
      </trkpt>
      <trkpt lat="43.72911" lon="7.0241">
        <ele>1255.5999755859</ele>
        <time>2021-03-04T12:37:35.000Z</time>
      </trkpt>
      <trkpt lat="43.7291" lon="7.02409">
        <ele>1255.5999755859</ele>
        <time>2021-03-04T12:37:36.000Z</time>
      </trkpt>
      <trkpt lat="43.72909" lon="7.02409">
        <ele>1256</ele>
        <time>2021-03-04T12:37:44.000Z</time>
      </trkpt>
      <trkpt lat="43.72909" lon="7.0241">
        <ele>1256</ele>
        <time>2021-03-04T12:37:49.000Z</time>
      </trkpt>
      <trkpt lat="43.72908" lon="7.02411">
        <ele>1256</ele>
        <time>2021-03-04T12:37:51.000Z</time>
      </trkpt>
      <trkpt lat="43.72903" lon="7.02413">
        <ele>1255.5999755859</ele>
        <time>2021-03-04T12:37:54.000Z</time>
      </trkpt>
      <trkpt lat="43.72892" lon="7.0242">
        <ele>1255</ele>
        <time>2021-03-04T12:37:59.000Z</time>
      </trkpt>
      <trkpt lat="43.72886" lon="7.02421">
        <ele>1254.5999755859</ele>
        <time>2021-03-04T12:38:02.000Z</time>
      </trkpt>
      <trkpt lat="43.72885" lon="7.02422">
        <ele>1254.4000244141</ele>
        <time>2021-03-04T12:38:03.000Z</time>
      </trkpt>
      <trkpt lat="43.7287" lon="7.02426">
        <ele>1254.5999755859</ele>
        <time>2021-03-04T12:38:09.000Z</time>
      </trkpt>
      <trkpt lat="43.72858" lon="7.02428">
        <ele>1254.8000488281</ele>
        <time>2021-03-04T12:38:15.000Z</time>
      </trkpt>
      <trkpt lat="43.72847" lon="7.02432">
        <ele>1254.8000488281</ele>
        <time>2021-03-04T12:38:20.000Z</time>
      </trkpt>
      <trkpt lat="43.72841" lon="7.02432">
        <ele>1255</ele>
        <time>2021-03-04T12:38:23.000Z</time>
      </trkpt>
      <trkpt lat="43.72837" lon="7.02434">
        <ele>1255.1999511719</ele>
        <time>2021-03-04T12:38:25.000Z</time>
      </trkpt>
      <trkpt lat="43.72826" lon="7.02435">
        <ele>1255</ele>
        <time>2021-03-04T12:38:31.000Z</time>
      </trkpt>
      <trkpt lat="43.72824" lon="7.02433">
        <ele>1255.4000244141</ele>
        <time>2021-03-04T12:38:36.000Z</time>
      </trkpt>
      <trkpt lat="43.72824" lon="7.02434">
        <ele>1255.4000244141</ele>
        <time>2021-03-04T12:38:40.000Z</time>
      </trkpt>
      <trkpt lat="43.72824" lon="7.02434">
        <ele>1255.4000244141</ele>
        <time>2021-03-04T12:38:41.000Z</time>
      </trkpt>
      <trkpt lat="43.72825" lon="7.02434">
        <ele>1255.4000244141</ele>
        <time>2021-03-04T12:38:44.000Z</time>
      </trkpt>
      <trkpt lat="43.72825" lon="7.02435">
        <ele>1255.4000244141</ele>
        <time>2021-03-04T12:38:46.000Z</time>
      </trkpt>
      <trkpt lat="43.72826" lon="7.02435">
        <ele>1255</ele>
        <time>2021-03-04T12:38:49.000Z</time>
      </trkpt>
      <trkpt lat="43.7283" lon="7.02435">
        <ele>1255</ele>
        <time>2021-03-04T12:38:51.000Z</time>
      </trkpt>
      <trkpt lat="43.7283" lon="7.02444">
        <ele>1254.8000488281</ele>
        <time>2021-03-04T12:38:54.000Z</time>
      </trkpt>
      <trkpt lat="43.72822" lon="7.02458">
        <ele>1253.4000244141</ele>
        <time>2021-03-04T12:38:58.000Z</time>
      </trkpt>
      <trkpt lat="43.72819" lon="7.02463">
        <ele>1252.8000488281</ele>
        <time>2021-03-04T12:38:59.000Z</time>
      </trkpt>
      <trkpt lat="43.72816" lon="7.02468">
        <ele>1252.1999511719</ele>
        <time>2021-03-04T12:39:00.000Z</time>
      </trkpt>
      <trkpt lat="43.7281" lon="7.02477">
        <ele>1251</ele>
        <time>2021-03-04T12:39:02.000Z</time>
      </trkpt>
      <trkpt lat="43.72808" lon="7.0248">
        <ele>1251</ele>
        <time>2021-03-04T12:39:03.000Z</time>
      </trkpt>
      <trkpt lat="43.72802" lon="7.02487">
        <ele>1249.8000488281</ele>
        <time>2021-03-04T12:39:07.000Z</time>
      </trkpt>
      <trkpt lat="43.72802" lon="7.02487">
        <ele>1248.8000488281</ele>
        <time>2021-03-04T12:39:09.000Z</time>
      </trkpt>
      <trkpt lat="43.72802" lon="7.02487">
        <ele>1247.5999755859</ele>
        <time>2021-03-04T12:39:12.000Z</time>
      </trkpt>
      <trkpt lat="43.72802" lon="7.02487">
        <ele>1247.5999755859</ele>
        <time>2021-03-04T12:39:16.000Z</time>
      </trkpt>
      <trkpt lat="43.72803" lon="7.02487">
        <ele>1247</ele>
        <time>2021-03-04T12:39:47.000Z</time>
      </trkpt>
      <trkpt lat="43.72803" lon="7.02486">
        <ele>1247</ele>
        <time>2021-03-04T12:40:03.000Z</time>
      </trkpt>
      <trkpt lat="43.72803" lon="7.02486">
        <ele>1247</ele>
        <time>2021-03-04T12:40:08.000Z</time>
      </trkpt>
      <trkpt lat="43.72802" lon="7.02487">
        <ele>1246.8000488281</ele>
        <time>2021-03-04T12:40:15.000Z</time>
      </trkpt>
      <trkpt lat="43.72801" lon="7.02489">
        <ele>1246.5999755859</ele>
        <time>2021-03-04T12:40:17.000Z</time>
      </trkpt>
      <trkpt lat="43.72799" lon="7.02492">
        <ele>1246.5999755859</ele>
        <time>2021-03-04T12:40:19.000Z</time>
      </trkpt>
      <trkpt lat="43.72798" lon="7.02492">
        <ele>1246.5999755859</ele>
        <time>2021-03-04T12:40:21.000Z</time>
      </trkpt>
      <trkpt lat="43.72796" lon="7.02493">
        <ele>1246.1999511719</ele>
        <time>2021-03-04T12:40:23.000Z</time>
      </trkpt>
      <trkpt lat="43.72791" lon="7.02498">
        <ele>1245.8000488281</ele>
        <time>2021-03-04T12:40:27.000Z</time>
      </trkpt>
      <trkpt lat="43.72787" lon="7.02503">
        <ele>1245.5999755859</ele>
        <time>2021-03-04T12:40:29.000Z</time>
      </trkpt>
      <trkpt lat="43.72781" lon="7.02511">
        <ele>1245</ele>
        <time>2021-03-04T12:40:32.000Z</time>
      </trkpt>
      <trkpt lat="43.72774" lon="7.02521">
        <ele>1243.8000488281</ele>
        <time>2021-03-04T12:40:36.000Z</time>
      </trkpt>
      <trkpt lat="43.72766" lon="7.02531">
        <ele>1242</ele>
        <time>2021-03-04T12:40:39.000Z</time>
      </trkpt>
      <trkpt lat="43.72764" lon="7.02534">
        <ele>1241.8000488281</ele>
        <time>2021-03-04T12:40:40.000Z</time>
      </trkpt>
      <trkpt lat="43.72762" lon="7.02536">
        <ele>1242.1999511719</ele>
        <time>2021-03-04T12:40:41.000Z</time>
      </trkpt>
      <trkpt lat="43.72756" lon="7.02539">
        <ele>1241</ele>
        <time>2021-03-04T12:40:43.000Z</time>
      </trkpt>
      <trkpt lat="43.72753" lon="7.02541">
        <ele>1241</ele>
        <time>2021-03-04T12:40:44.000Z</time>
      </trkpt>
      <trkpt lat="43.72738" lon="7.0255">
        <ele>1240</ele>
        <time>2021-03-04T12:40:49.000Z</time>
      </trkpt>
      <trkpt lat="43.72735" lon="7.02553">
        <ele>1239.5999755859</ele>
        <time>2021-03-04T12:40:50.000Z</time>
      </trkpt>
      <trkpt lat="43.72719" lon="7.02562">
        <ele>1239.1999511719</ele>
        <time>2021-03-04T12:40:54.000Z</time>
      </trkpt>
      <trkpt lat="43.72714" lon="7.02564">
        <ele>1239</ele>
        <time>2021-03-04T12:40:55.000Z</time>
      </trkpt>
      <trkpt lat="43.7271" lon="7.02566">
        <ele>1238.4000244141</ele>
        <time>2021-03-04T12:40:56.000Z</time>
      </trkpt>
      <trkpt lat="43.72702" lon="7.02569">
        <ele>1237.1999511719</ele>
        <time>2021-03-04T12:40:58.000Z</time>
      </trkpt>
      <trkpt lat="43.727" lon="7.02572">
        <ele>1236.5999755859</ele>
        <time>2021-03-04T12:40:59.000Z</time>
      </trkpt>
      <trkpt lat="43.72697" lon="7.02577">
        <ele>1236.4000244141</ele>
        <time>2021-03-04T12:41:00.000Z</time>
      </trkpt>
      <trkpt lat="43.72685" lon="7.02594">
        <ele>1235.8000488281</ele>
        <time>2021-03-04T12:41:04.000Z</time>
      </trkpt>
      <trkpt lat="43.72679" lon="7.02604">
        <ele>1233.5999755859</ele>
        <time>2021-03-04T12:41:06.000Z</time>
      </trkpt>
      <trkpt lat="43.72674" lon="7.02613">
        <ele>1232</ele>
        <time>2021-03-04T12:41:08.000Z</time>
      </trkpt>
      <trkpt lat="43.7267" lon="7.0262">
        <ele>1231.1999511719</ele>
        <time>2021-03-04T12:41:10.000Z</time>
      </trkpt>
      <trkpt lat="43.7267" lon="7.02634">
        <ele>1230.4000244141</ele>
        <time>2021-03-04T12:41:13.000Z</time>
      </trkpt>
      <trkpt lat="43.72666" lon="7.02644">
        <ele>1228.8000488281</ele>
        <time>2021-03-04T12:41:16.000Z</time>
      </trkpt>
      <trkpt lat="43.72665" lon="7.02647">
        <ele>1228.1999511719</ele>
        <time>2021-03-04T12:41:17.000Z</time>
      </trkpt>
      <trkpt lat="43.72663" lon="7.0265">
        <ele>1227.8000488281</ele>
        <time>2021-03-04T12:41:18.000Z</time>
      </trkpt>
      <trkpt lat="43.72659" lon="7.02657">
        <ele>1226.5999755859</ele>
        <time>2021-03-04T12:41:20.000Z</time>
      </trkpt>
      <trkpt lat="43.72657" lon="7.02661">
        <ele>1226</ele>
        <time>2021-03-04T12:41:21.000Z</time>
      </trkpt>
      <trkpt lat="43.72654" lon="7.02671">
        <ele>1225</ele>
        <time>2021-03-04T12:41:23.000Z</time>
      </trkpt>
      <trkpt lat="43.72653" lon="7.02682">
        <ele>1223.1999511719</ele>
        <time>2021-03-04T12:41:25.000Z</time>
      </trkpt>
      <trkpt lat="43.72651" lon="7.02687">
        <ele>1222.5999755859</ele>
        <time>2021-03-04T12:41:26.000Z</time>
      </trkpt>
      <trkpt lat="43.7265" lon="7.0269">
        <ele>1221.5999755859</ele>
        <time>2021-03-04T12:41:27.000Z</time>
      </trkpt>
      <trkpt lat="43.72648" lon="7.02693">
        <ele>1220.4000244141</ele>
        <time>2021-03-04T12:41:29.000Z</time>
      </trkpt>
      <trkpt lat="43.72647" lon="7.02696">
        <ele>1219.8000488281</ele>
        <time>2021-03-04T12:41:30.000Z</time>
      </trkpt>
      <trkpt lat="43.72644" lon="7.02703">
        <ele>1218.8000488281</ele>
        <time>2021-03-04T12:41:32.000Z</time>
      </trkpt>
      <trkpt lat="43.7264" lon="7.02711">
        <ele>1217.1999511719</ele>
        <time>2021-03-04T12:41:34.000Z</time>
      </trkpt>
      <trkpt lat="43.72635" lon="7.02716">
        <ele>1215.4000244141</ele>
        <time>2021-03-04T12:41:36.000Z</time>
      </trkpt>
      <trkpt lat="43.7263" lon="7.02719">
        <ele>1213.5999755859</ele>
        <time>2021-03-04T12:41:38.000Z</time>
      </trkpt>
      <trkpt lat="43.72625" lon="7.02721">
        <ele>1212.1999511719</ele>
        <time>2021-03-04T12:41:40.000Z</time>
      </trkpt>
      <trkpt lat="43.72624" lon="7.02722">
        <ele>1211</ele>
        <time>2021-03-04T12:41:42.000Z</time>
      </trkpt>
      <trkpt lat="43.72624" lon="7.02723">
        <ele>1209.5999755859</ele>
        <time>2021-03-04T12:41:44.000Z</time>
      </trkpt>
      <trkpt lat="43.72622" lon="7.02727">
        <ele>1209.1999511719</ele>
        <time>2021-03-04T12:41:46.000Z</time>
      </trkpt>
      <trkpt lat="43.72618" lon="7.02731">
        <ele>1208.4000244141</ele>
        <time>2021-03-04T12:41:48.000Z</time>
      </trkpt>
      <trkpt lat="43.72615" lon="7.02733">
        <ele>1207</ele>
        <time>2021-03-04T12:41:50.000Z</time>
      </trkpt>
      <trkpt lat="43.72614" lon="7.02733">
        <ele>1206.1999511719</ele>
        <time>2021-03-04T12:41:51.000Z</time>
      </trkpt>
      <trkpt lat="43.72613" lon="7.02735">
        <ele>1205.4000244141</ele>
        <time>2021-03-04T12:41:52.000Z</time>
      </trkpt>
      <trkpt lat="43.72612" lon="7.02739">
        <ele>1203.5999755859</ele>
        <time>2021-03-04T12:41:54.000Z</time>
      </trkpt>
      <trkpt lat="43.72612" lon="7.02743">
        <ele>1202.8000488281</ele>
        <time>2021-03-04T12:41:55.000Z</time>
      </trkpt>
      <trkpt lat="43.72611" lon="7.02745">
        <ele>1202</ele>
        <time>2021-03-04T12:41:56.000Z</time>
      </trkpt>
      <trkpt lat="43.7261" lon="7.02746">
        <ele>1200.4000244141</ele>
        <time>2021-03-04T12:41:58.000Z</time>
      </trkpt>
      <trkpt lat="43.72609" lon="7.02745">
        <ele>1198.8000488281</ele>
        <time>2021-03-04T12:42:00.000Z</time>
      </trkpt>
      <trkpt lat="43.72609" lon="7.02745">
        <ele>1197.4000244141</ele>
        <time>2021-03-04T12:42:02.000Z</time>
      </trkpt>
      <trkpt lat="43.72609" lon="7.02744">
        <ele>1196.8000488281</ele>
        <time>2021-03-04T12:42:04.000Z</time>
      </trkpt>
      <trkpt lat="43.72609" lon="7.02744">
        <ele>1196.4000244141</ele>
        <time>2021-03-04T12:42:07.000Z</time>
      </trkpt>
      <trkpt lat="43.72609" lon="7.02745">
        <ele>1195.1999511719</ele>
        <time>2021-03-04T12:42:12.000Z</time>
      </trkpt>
      <trkpt lat="43.72609" lon="7.02745">
        <ele>1194</ele>
        <time>2021-03-04T12:42:16.000Z</time>
      </trkpt>
      <trkpt lat="43.72609" lon="7.02745">
        <ele>1192.8000488281</ele>
        <time>2021-03-04T12:42:22.000Z</time>
      </trkpt>
      <trkpt lat="43.72609" lon="7.02745">
        <ele>1192.5999755859</ele>
        <time>2021-03-04T12:42:23.000Z</time>
      </trkpt>
      <trkpt lat="43.72609" lon="7.02745">
        <ele>1193.5999755859</ele>
        <time>2021-03-04T12:42:31.000Z</time>
      </trkpt>
      <trkpt lat="43.72609" lon="7.02745">
        <ele>1193</ele>
        <time>2021-03-04T12:42:37.000Z</time>
      </trkpt>
      <trkpt lat="43.7261" lon="7.02746">
        <ele>1193.4000244141</ele>
        <time>2021-03-04T12:42:42.000Z</time>
      </trkpt>
      <trkpt lat="43.7261" lon="7.02746">
        <ele>1193.1999511719</ele>
        <time>2021-03-04T12:42:53.000Z</time>
      </trkpt>
      <trkpt lat="43.7261" lon="7.02747">
        <ele>1193</ele>
        <time>2021-03-04T12:43:01.000Z</time>
      </trkpt>
      <trkpt lat="43.72609" lon="7.02751">
        <ele>1192.8000488281</ele>
        <time>2021-03-04T12:43:13.000Z</time>
      </trkpt>
      <trkpt lat="43.72608" lon="7.02759">
        <ele>1192.4000244141</ele>
        <time>2021-03-04T12:43:16.000Z</time>
      </trkpt>
      <trkpt lat="43.72606" lon="7.0276">
        <ele>1192</ele>
        <time>2021-03-04T12:43:17.000Z</time>
      </trkpt>
      <trkpt lat="43.72605" lon="7.02762">
        <ele>1191.5999755859</ele>
        <time>2021-03-04T12:43:18.000Z</time>
      </trkpt>
      <trkpt lat="43.72601" lon="7.02768">
        <ele>1190.4000244141</ele>
        <time>2021-03-04T12:43:21.000Z</time>
      </trkpt>
      <trkpt lat="43.726" lon="7.02771">
        <ele>1189.1999511719</ele>
        <time>2021-03-04T12:43:23.000Z</time>
      </trkpt>
      <trkpt lat="43.72599" lon="7.02775">
        <ele>1187.8000488281</ele>
        <time>2021-03-04T12:43:25.000Z</time>
      </trkpt>
      <trkpt lat="43.72596" lon="7.02778">
        <ele>1186.5999755859</ele>
        <time>2021-03-04T12:43:28.000Z</time>
      </trkpt>
      <trkpt lat="43.72595" lon="7.02779">
        <ele>1186</ele>
        <time>2021-03-04T12:43:29.000Z</time>
      </trkpt>
      <trkpt lat="43.72592" lon="7.02781">
        <ele>1185</ele>
        <time>2021-03-04T12:43:31.000Z</time>
      </trkpt>
      <trkpt lat="43.7259" lon="7.02782">
        <ele>1183.5999755859</ele>
        <time>2021-03-04T12:43:33.000Z</time>
      </trkpt>
      <trkpt lat="43.72589" lon="7.02784">
        <ele>1182.4000244141</ele>
        <time>2021-03-04T12:43:35.000Z</time>
      </trkpt>
      <trkpt lat="43.72588" lon="7.0279">
        <ele>1180.8000488281</ele>
        <time>2021-03-04T12:43:38.000Z</time>
      </trkpt>
      <trkpt lat="43.72587" lon="7.02796">
        <ele>1179.5999755859</ele>
        <time>2021-03-04T12:43:40.000Z</time>
      </trkpt>
      <trkpt lat="43.72587" lon="7.02799">
        <ele>1178.8000488281</ele>
        <time>2021-03-04T12:43:41.000Z</time>
      </trkpt>
      <trkpt lat="43.72587" lon="7.02801">
        <ele>1178.1999511719</ele>
        <time>2021-03-04T12:43:42.000Z</time>
      </trkpt>
      <trkpt lat="43.72585" lon="7.02811">
        <ele>1177.8000488281</ele>
        <time>2021-03-04T12:43:45.000Z</time>
      </trkpt>
      <trkpt lat="43.72585" lon="7.02825">
        <ele>1177</ele>
        <time>2021-03-04T12:43:48.000Z</time>
      </trkpt>
      <trkpt lat="43.72585" lon="7.02827">
        <ele>1176.1999511719</ele>
        <time>2021-03-04T12:43:49.000Z</time>
      </trkpt>
      <trkpt lat="43.72585" lon="7.02827">
        <ele>1175.4000244141</ele>
        <time>2021-03-04T12:43:50.000Z</time>
      </trkpt>
      <trkpt lat="43.72585" lon="7.02827">
        <ele>1174.5999755859</ele>
        <time>2021-03-04T12:43:53.000Z</time>
      </trkpt>
      <trkpt lat="43.72585" lon="7.02828">
        <ele>1174.5999755859</ele>
        <time>2021-03-04T12:44:00.000Z</time>
      </trkpt>
      <trkpt lat="43.72581" lon="7.02829">
        <ele>1174.5999755859</ele>
        <time>2021-03-04T12:44:04.000Z</time>
      </trkpt>
      <trkpt lat="43.72581" lon="7.02829">
        <ele>1174.1999511719</ele>
        <time>2021-03-04T12:44:05.000Z</time>
      </trkpt>
      <trkpt lat="43.7258" lon="7.02829">
        <ele>1173.8000488281</ele>
        <time>2021-03-04T12:44:09.000Z</time>
      </trkpt>
      <trkpt lat="43.72577" lon="7.0283">
        <ele>1173.8000488281</ele>
        <time>2021-03-04T12:44:11.000Z</time>
      </trkpt>
      <trkpt lat="43.72572" lon="7.02833">
        <ele>1173</ele>
        <time>2021-03-04T12:44:14.000Z</time>
      </trkpt>
      <trkpt lat="43.72567" lon="7.02836">
        <ele>1171.8000488281</ele>
        <time>2021-03-04T12:44:17.000Z</time>
      </trkpt>
      <trkpt lat="43.72565" lon="7.0284">
        <ele>1170.1999511719</ele>
        <time>2021-03-04T12:44:19.000Z</time>
      </trkpt>
      <trkpt lat="43.72563" lon="7.02843">
        <ele>1169</ele>
        <time>2021-03-04T12:44:21.000Z</time>
      </trkpt>
      <trkpt lat="43.72561" lon="7.02844">
        <ele>1168.1999511719</ele>
        <time>2021-03-04T12:44:22.000Z</time>
      </trkpt>
      <trkpt lat="43.7256" lon="7.02844">
        <ele>1167.8000488281</ele>
        <time>2021-03-04T12:44:23.000Z</time>
      </trkpt>
      <trkpt lat="43.72558" lon="7.02844">
        <ele>1167.4000244141</ele>
        <time>2021-03-04T12:44:24.000Z</time>
      </trkpt>
      <trkpt lat="43.72556" lon="7.02844">
        <ele>1166.4000244141</ele>
        <time>2021-03-04T12:44:25.000Z</time>
      </trkpt>
      <trkpt lat="43.72552" lon="7.02845">
        <ele>1165</ele>
        <time>2021-03-04T12:44:27.000Z</time>
      </trkpt>
      <trkpt lat="43.72546" lon="7.02845">
        <ele>1163.4000244141</ele>
        <time>2021-03-04T12:44:30.000Z</time>
      </trkpt>
      <trkpt lat="43.72544" lon="7.02846">
        <ele>1162.8000488281</ele>
        <time>2021-03-04T12:44:31.000Z</time>
      </trkpt>
      <trkpt lat="43.72542" lon="7.02847">
        <ele>1162.4000244141</ele>
        <time>2021-03-04T12:44:32.000Z</time>
      </trkpt>
      <trkpt lat="43.72539" lon="7.02848">
        <ele>1161.5999755859</ele>
        <time>2021-03-04T12:44:33.000Z</time>
      </trkpt>
      <trkpt lat="43.72537" lon="7.02849">
        <ele>1160.8000488281</ele>
        <time>2021-03-04T12:44:34.000Z</time>
      </trkpt>
      <trkpt lat="43.72533" lon="7.0285">
        <ele>1159</ele>
        <time>2021-03-04T12:44:36.000Z</time>
      </trkpt>
      <trkpt lat="43.72529" lon="7.0285">
        <ele>1157.1999511719</ele>
        <time>2021-03-04T12:44:38.000Z</time>
      </trkpt>
      <trkpt lat="43.72526" lon="7.0285">
        <ele>1155.5999755859</ele>
        <time>2021-03-04T12:44:40.000Z</time>
      </trkpt>
      <trkpt lat="43.72522" lon="7.0285">
        <ele>1154.1999511719</ele>
        <time>2021-03-04T12:44:42.000Z</time>
      </trkpt>
      <trkpt lat="43.7252" lon="7.0285">
        <ele>1152.8000488281</ele>
        <time>2021-03-04T12:44:44.000Z</time>
      </trkpt>
      <trkpt lat="43.72517" lon="7.02855">
        <ele>1151.8000488281</ele>
        <time>2021-03-04T12:44:46.000Z</time>
      </trkpt>
      <trkpt lat="43.72516" lon="7.02857">
        <ele>1150.5999755859</ele>
        <time>2021-03-04T12:44:47.000Z</time>
      </trkpt>
      <trkpt lat="43.72514" lon="7.0286">
        <ele>1149.8000488281</ele>
        <time>2021-03-04T12:44:48.000Z</time>
      </trkpt>
      <trkpt lat="43.72512" lon="7.02862">
        <ele>1149.1999511719</ele>
        <time>2021-03-04T12:44:49.000Z</time>
      </trkpt>
      <trkpt lat="43.72509" lon="7.02865">
        <ele>1147.5999755859</ele>
        <time>2021-03-04T12:44:51.000Z</time>
      </trkpt>
      <trkpt lat="43.72505" lon="7.02867">
        <ele>1146.1999511719</ele>
        <time>2021-03-04T12:44:53.000Z</time>
      </trkpt>
      <trkpt lat="43.72504" lon="7.02868">
        <ele>1145.4000244141</ele>
        <time>2021-03-04T12:44:54.000Z</time>
      </trkpt>
      <trkpt lat="43.72503" lon="7.02869">
        <ele>1145</ele>
        <time>2021-03-04T12:44:55.000Z</time>
      </trkpt>
      <trkpt lat="43.725" lon="7.02873">
        <ele>1143.5999755859</ele>
        <time>2021-03-04T12:44:57.000Z</time>
      </trkpt>
      <trkpt lat="43.72496" lon="7.02875">
        <ele>1142.4000244141</ele>
        <time>2021-03-04T12:44:59.000Z</time>
      </trkpt>
      <trkpt lat="43.72492" lon="7.02877">
        <ele>1141.5999755859</ele>
        <time>2021-03-04T12:45:01.000Z</time>
      </trkpt>
      <trkpt lat="43.72489" lon="7.02877">
        <ele>1141.1999511719</ele>
        <time>2021-03-04T12:45:02.000Z</time>
      </trkpt>
      <trkpt lat="43.72486" lon="7.02877">
        <ele>1140.4000244141</ele>
        <time>2021-03-04T12:45:03.000Z</time>
      </trkpt>
      <trkpt lat="43.72484" lon="7.02875">
        <ele>1139.8000488281</ele>
        <time>2021-03-04T12:45:04.000Z</time>
      </trkpt>
      <trkpt lat="43.72482" lon="7.02872">
        <ele>1138.4000244141</ele>
        <time>2021-03-04T12:45:05.000Z</time>
      </trkpt>
      <trkpt lat="43.72479" lon="7.0287">
        <ele>1137.4000244141</ele>
        <time>2021-03-04T12:45:06.000Z</time>
      </trkpt>
      <trkpt lat="43.72477" lon="7.02867">
        <ele>1136</ele>
        <time>2021-03-04T12:45:07.000Z</time>
      </trkpt>
      <trkpt lat="43.72474" lon="7.02866">
        <ele>1134.1999511719</ele>
        <time>2021-03-04T12:45:08.000Z</time>
      </trkpt>
      <trkpt lat="43.72472" lon="7.02866">
        <ele>1133.5999755859</ele>
        <time>2021-03-04T12:45:09.000Z</time>
      </trkpt>
      <trkpt lat="43.7247" lon="7.02867">
        <ele>1133</ele>
        <time>2021-03-04T12:45:10.000Z</time>
      </trkpt>
      <trkpt lat="43.72466" lon="7.02868">
        <ele>1131.4000244141</ele>
        <time>2021-03-04T12:45:12.000Z</time>
      </trkpt>
      <trkpt lat="43.72464" lon="7.02869">
        <ele>1131</ele>
        <time>2021-03-04T12:45:13.000Z</time>
      </trkpt>
      <trkpt lat="43.72463" lon="7.02869">
        <ele>1130.4000244141</ele>
        <time>2021-03-04T12:45:14.000Z</time>
      </trkpt>
      <trkpt lat="43.72462" lon="7.0287">
        <ele>1129.8000488281</ele>
        <time>2021-03-04T12:45:15.000Z</time>
      </trkpt>
      <trkpt lat="43.72458" lon="7.02873">
        <ele>1128.4000244141</ele>
        <time>2021-03-04T12:45:17.000Z</time>
      </trkpt>
      <trkpt lat="43.72457" lon="7.02874">
        <ele>1127.4000244141</ele>
        <time>2021-03-04T12:45:18.000Z</time>
      </trkpt>
      <trkpt lat="43.72455" lon="7.02875">
        <ele>1126.5999755859</ele>
        <time>2021-03-04T12:45:19.000Z</time>
      </trkpt>
      <trkpt lat="43.72454" lon="7.02875">
        <ele>1126</ele>
        <time>2021-03-04T12:45:20.000Z</time>
      </trkpt>
      <trkpt lat="43.72452" lon="7.02875">
        <ele>1125.4000244141</ele>
        <time>2021-03-04T12:45:21.000Z</time>
      </trkpt>
      <trkpt lat="43.72448" lon="7.02875">
        <ele>1124.4000244141</ele>
        <time>2021-03-04T12:45:23.000Z</time>
      </trkpt>
      <trkpt lat="43.72445" lon="7.02877">
        <ele>1123</ele>
        <time>2021-03-04T12:45:25.000Z</time>
      </trkpt>
      <trkpt lat="43.72442" lon="7.0288">
        <ele>1121.4000244141</ele>
        <time>2021-03-04T12:45:27.000Z</time>
      </trkpt>
      <trkpt lat="43.72438" lon="7.02881">
        <ele>1119.8000488281</ele>
        <time>2021-03-04T12:45:29.000Z</time>
      </trkpt>
      <trkpt lat="43.72432" lon="7.02889">
        <ele>1118.4000244141</ele>
        <time>2021-03-04T12:45:32.000Z</time>
      </trkpt>
      <trkpt lat="43.72428" lon="7.02895">
        <ele>1117</ele>
        <time>2021-03-04T12:45:34.000Z</time>
      </trkpt>
      <trkpt lat="43.72426" lon="7.02899">
        <ele>1116</ele>
        <time>2021-03-04T12:45:35.000Z</time>
      </trkpt>
      <trkpt lat="43.72424" lon="7.02902">
        <ele>1115</ele>
        <time>2021-03-04T12:45:36.000Z</time>
      </trkpt>
      <trkpt lat="43.72422" lon="7.02906">
        <ele>1113.5999755859</ele>
        <time>2021-03-04T12:45:37.000Z</time>
      </trkpt>
      <trkpt lat="43.72418" lon="7.02912">
        <ele>1112.4000244141</ele>
        <time>2021-03-04T12:45:39.000Z</time>
      </trkpt>
      <trkpt lat="43.72413" lon="7.02916">
        <ele>1110.4000244141</ele>
        <time>2021-03-04T12:45:41.000Z</time>
      </trkpt>
      <trkpt lat="43.72411" lon="7.02917">
        <ele>1109.4000244141</ele>
        <time>2021-03-04T12:45:42.000Z</time>
      </trkpt>
      <trkpt lat="43.72409" lon="7.02915">
        <ele>1108.4000244141</ele>
        <time>2021-03-04T12:45:43.000Z</time>
      </trkpt>
      <trkpt lat="43.72408" lon="7.02914">
        <ele>1107.1999511719</ele>
        <time>2021-03-04T12:45:44.000Z</time>
      </trkpt>
      <trkpt lat="43.72405" lon="7.02909">
        <ele>1105.8000488281</ele>
        <time>2021-03-04T12:45:46.000Z</time>
      </trkpt>
      <trkpt lat="43.72401" lon="7.02903">
        <ele>1104.8000488281</ele>
        <time>2021-03-04T12:45:48.000Z</time>
      </trkpt>
      <trkpt lat="43.724" lon="7.02902">
        <ele>1104</ele>
        <time>2021-03-04T12:45:49.000Z</time>
      </trkpt>
      <trkpt lat="43.72398" lon="7.029">
        <ele>1103.4000244141</ele>
        <time>2021-03-04T12:45:50.000Z</time>
      </trkpt>
      <trkpt lat="43.72396" lon="7.02899">
        <ele>1102.8000488281</ele>
        <time>2021-03-04T12:45:51.000Z</time>
      </trkpt>
      <trkpt lat="43.72394" lon="7.02895">
        <ele>1102.4000244141</ele>
        <time>2021-03-04T12:45:52.000Z</time>
      </trkpt>
      <trkpt lat="43.72391" lon="7.02888">
        <ele>1100.8000488281</ele>
        <time>2021-03-04T12:45:54.000Z</time>
      </trkpt>
      <trkpt lat="43.72385" lon="7.02878">
        <ele>1099.1999511719</ele>
        <time>2021-03-04T12:45:56.000Z</time>
      </trkpt>
      <trkpt lat="43.72381" lon="7.02876">
        <ele>1097.5999755859</ele>
        <time>2021-03-04T12:45:58.000Z</time>
      </trkpt>
      <trkpt lat="43.72379" lon="7.02882">
        <ele>1096.4000244141</ele>
        <time>2021-03-04T12:46:00.000Z</time>
      </trkpt>
      <trkpt lat="43.72377" lon="7.02886">
        <ele>1095.8000488281</ele>
        <time>2021-03-04T12:46:01.000Z</time>
      </trkpt>
      <trkpt lat="43.72375" lon="7.0289">
        <ele>1095</ele>
        <time>2021-03-04T12:46:02.000Z</time>
      </trkpt>
      <trkpt lat="43.72371" lon="7.02895">
        <ele>1093.5999755859</ele>
        <time>2021-03-04T12:46:04.000Z</time>
      </trkpt>
      <trkpt lat="43.72369" lon="7.02898">
        <ele>1092.8000488281</ele>
        <time>2021-03-04T12:46:06.000Z</time>
      </trkpt>
      <trkpt lat="43.72367" lon="7.02899">
        <ele>1092</ele>
        <time>2021-03-04T12:46:07.000Z</time>
      </trkpt>
      <trkpt lat="43.72363" lon="7.02901">
        <ele>1090.8000488281</ele>
        <time>2021-03-04T12:46:09.000Z</time>
      </trkpt>
      <trkpt lat="43.72361" lon="7.029">
        <ele>1089.8000488281</ele>
        <time>2021-03-04T12:46:10.000Z</time>
      </trkpt>
      <trkpt lat="43.7236" lon="7.02899">
        <ele>1089.4000244141</ele>
        <time>2021-03-04T12:46:11.000Z</time>
      </trkpt>
      <trkpt lat="43.72357" lon="7.02893">
        <ele>1088</ele>
        <time>2021-03-04T12:46:13.000Z</time>
      </trkpt>
      <trkpt lat="43.72356" lon="7.0289">
        <ele>1087.4000244141</ele>
        <time>2021-03-04T12:46:14.000Z</time>
      </trkpt>
      <trkpt lat="43.72354" lon="7.02886">
        <ele>1086.8000488281</ele>
        <time>2021-03-04T12:46:15.000Z</time>
      </trkpt>
      <trkpt lat="43.7235" lon="7.02877">
        <ele>1085.8000488281</ele>
        <time>2021-03-04T12:46:17.000Z</time>
      </trkpt>
      <trkpt lat="43.72344" lon="7.02881">
        <ele>1084.8000488281</ele>
        <time>2021-03-04T12:46:20.000Z</time>
      </trkpt>
      <trkpt lat="43.7234" lon="7.02887">
        <ele>1083.1999511719</ele>
        <time>2021-03-04T12:46:22.000Z</time>
      </trkpt>
      <trkpt lat="43.72335" lon="7.02888">
        <ele>1081.8000488281</ele>
        <time>2021-03-04T12:46:24.000Z</time>
      </trkpt>
      <trkpt lat="43.72331" lon="7.02881">
        <ele>1080.5999755859</ele>
        <time>2021-03-04T12:46:27.000Z</time>
      </trkpt>
      <trkpt lat="43.72324" lon="7.02876">
        <ele>1079.1999511719</ele>
        <time>2021-03-04T12:46:30.000Z</time>
      </trkpt>
      <trkpt lat="43.72325" lon="7.02865">
        <ele>1078</ele>
        <time>2021-03-04T12:46:33.000Z</time>
      </trkpt>
      <trkpt lat="43.72325" lon="7.02861">
        <ele>1077.4000244141</ele>
        <time>2021-03-04T12:46:34.000Z</time>
      </trkpt>
      <trkpt lat="43.72324" lon="7.02858">
        <ele>1076.8000488281</ele>
        <time>2021-03-04T12:46:35.000Z</time>
      </trkpt>
      <trkpt lat="43.72322" lon="7.02854">
        <ele>1076.4000244141</ele>
        <time>2021-03-04T12:46:36.000Z</time>
      </trkpt>
      <trkpt lat="43.72321" lon="7.02852">
        <ele>1075.8000488281</ele>
        <time>2021-03-04T12:46:37.000Z</time>
      </trkpt>
      <trkpt lat="43.72319" lon="7.02851">
        <ele>1075</ele>
        <time>2021-03-04T12:46:38.000Z</time>
      </trkpt>
      <trkpt lat="43.72318" lon="7.02852">
        <ele>1074</ele>
        <time>2021-03-04T12:46:39.000Z</time>
      </trkpt>
      <trkpt lat="43.72316" lon="7.02853">
        <ele>1073.1999511719</ele>
        <time>2021-03-04T12:46:40.000Z</time>
      </trkpt>
      <trkpt lat="43.72314" lon="7.02853">
        <ele>1072</ele>
        <time>2021-03-04T12:46:41.000Z</time>
      </trkpt>
      <trkpt lat="43.72314" lon="7.02848">
        <ele>1070.8000488281</ele>
        <time>2021-03-04T12:46:43.000Z</time>
      </trkpt>
      <trkpt lat="43.72316" lon="7.02839">
        <ele>1069.5999755859</ele>
        <time>2021-03-04T12:46:46.000Z</time>
      </trkpt>
      <trkpt lat="43.72316" lon="7.02833">
        <ele>1068.4000244141</ele>
        <time>2021-03-04T12:46:49.000Z</time>
      </trkpt>
      <trkpt lat="43.72315" lon="7.02834">
        <ele>1068</ele>
        <time>2021-03-04T12:46:50.000Z</time>
      </trkpt>
      <trkpt lat="43.72314" lon="7.02835">
        <ele>1067.5999755859</ele>
        <time>2021-03-04T12:46:51.000Z</time>
      </trkpt>
      <trkpt lat="43.72313" lon="7.02836">
        <ele>1067.4000244141</ele>
        <time>2021-03-04T12:46:52.000Z</time>
      </trkpt>
      <trkpt lat="43.72309" lon="7.02839">
        <ele>1066.4000244141</ele>
        <time>2021-03-04T12:46:54.000Z</time>
      </trkpt>
      <trkpt lat="43.72306" lon="7.0284">
        <ele>1066</ele>
        <time>2021-03-04T12:46:55.000Z</time>
      </trkpt>
      <trkpt lat="43.723" lon="7.02842">
        <ele>1064.5999755859</ele>
        <time>2021-03-04T12:46:57.000Z</time>
      </trkpt>
      <trkpt lat="43.72299" lon="7.02843">
        <ele>1063.8000488281</ele>
        <time>2021-03-04T12:46:58.000Z</time>
      </trkpt>
      <trkpt lat="43.72298" lon="7.02844">
        <ele>1063.1999511719</ele>
        <time>2021-03-04T12:46:59.000Z</time>
      </trkpt>
      <trkpt lat="43.72296" lon="7.02842">
        <ele>1062.1999511719</ele>
        <time>2021-03-04T12:47:01.000Z</time>
      </trkpt>
      <trkpt lat="43.72296" lon="7.02839">
        <ele>1061.5999755859</ele>
        <time>2021-03-04T12:47:03.000Z</time>
      </trkpt>
      <trkpt lat="43.72298" lon="7.02837">
        <ele>1060.8000488281</ele>
        <time>2021-03-04T12:47:05.000Z</time>
      </trkpt>
      <trkpt lat="43.72298" lon="7.02835">
        <ele>1060.1999511719</ele>
        <time>2021-03-04T12:47:07.000Z</time>
      </trkpt>
      <trkpt lat="43.72298" lon="7.02834">
        <ele>1059.5999755859</ele>
        <time>2021-03-04T12:47:09.000Z</time>
      </trkpt>
      <trkpt lat="43.72297" lon="7.02832">
        <ele>1058.5999755859</ele>
        <time>2021-03-04T12:47:12.000Z</time>
      </trkpt>
      <trkpt lat="43.72296" lon="7.02832">
        <ele>1058.1999511719</ele>
        <time>2021-03-04T12:47:13.000Z</time>
      </trkpt>
      <trkpt lat="43.72296" lon="7.02833">
        <ele>1057.5999755859</ele>
        <time>2021-03-04T12:47:14.000Z</time>
      </trkpt>
      <trkpt lat="43.72292" lon="7.02835">
        <ele>1056.5999755859</ele>
        <time>2021-03-04T12:47:17.000Z</time>
      </trkpt>
      <trkpt lat="43.72291" lon="7.02834">
        <ele>1056.1999511719</ele>
        <time>2021-03-04T12:47:18.000Z</time>
      </trkpt>
      <trkpt lat="43.72291" lon="7.02832">
        <ele>1055.1999511719</ele>
        <time>2021-03-04T12:47:20.000Z</time>
      </trkpt>
      <trkpt lat="43.72292" lon="7.02831">
        <ele>1054</ele>
        <time>2021-03-04T12:47:23.000Z</time>
      </trkpt>
      <trkpt lat="43.7229" lon="7.02829">
        <ele>1053</ele>
        <time>2021-03-04T12:47:27.000Z</time>
      </trkpt>
      <trkpt lat="43.72289" lon="7.02829">
        <ele>1052.8000488281</ele>
        <time>2021-03-04T12:47:28.000Z</time>
      </trkpt>
      <trkpt lat="43.72288" lon="7.02829">
        <ele>1052.4000244141</ele>
        <time>2021-03-04T12:47:29.000Z</time>
      </trkpt>
      <trkpt lat="43.72285" lon="7.02832">
        <ele>1051.5999755859</ele>
        <time>2021-03-04T12:47:31.000Z</time>
      </trkpt>
      <trkpt lat="43.72282" lon="7.02833">
        <ele>1050.4000244141</ele>
        <time>2021-03-04T12:47:33.000Z</time>
      </trkpt>
      <trkpt lat="43.7228" lon="7.02834">
        <ele>1049</ele>
        <time>2021-03-04T12:47:35.000Z</time>
      </trkpt>
      <trkpt lat="43.7228" lon="7.02835">
        <ele>1048</ele>
        <time>2021-03-04T12:47:37.000Z</time>
      </trkpt>
      <trkpt lat="43.72279" lon="7.02835">
        <ele>1047.1999511719</ele>
        <time>2021-03-04T12:47:39.000Z</time>
      </trkpt>
      <trkpt lat="43.72279" lon="7.02834">
        <ele>1046.8000488281</ele>
        <time>2021-03-04T12:47:41.000Z</time>
      </trkpt>
      <trkpt lat="43.72279" lon="7.02832">
        <ele>1046.8000488281</ele>
        <time>2021-03-04T12:47:47.000Z</time>
      </trkpt>
      <trkpt lat="43.72278" lon="7.02828">
        <ele>1046</ele>
        <time>2021-03-04T12:47:54.000Z</time>
      </trkpt>
      <trkpt lat="43.72277" lon="7.02828">
        <ele>1045.8000488281</ele>
        <time>2021-03-04T12:47:55.000Z</time>
      </trkpt>
      <trkpt lat="43.72277" lon="7.02828">
        <ele>1044.8000488281</ele>
        <time>2021-03-04T12:47:59.000Z</time>
      </trkpt>
      <trkpt lat="43.72277" lon="7.02828">
        <ele>1044.5999755859</ele>
        <time>2021-03-04T12:48:00.000Z</time>
      </trkpt>
      <trkpt lat="43.72272" lon="7.02831">
        <ele>1044</ele>
        <time>2021-03-04T12:48:04.000Z</time>
      </trkpt>
      <trkpt lat="43.72268" lon="7.02835">
        <ele>1043.5999755859</ele>
        <time>2021-03-04T12:48:06.000Z</time>
      </trkpt>
      <trkpt lat="43.72266" lon="7.02837">
        <ele>1042</ele>
        <time>2021-03-04T12:48:08.000Z</time>
      </trkpt>
      <trkpt lat="43.72265" lon="7.02837">
        <ele>1040.8000488281</ele>
        <time>2021-03-04T12:48:10.000Z</time>
      </trkpt>
      <trkpt lat="43.72265" lon="7.02837">
        <ele>1039.5999755859</ele>
        <time>2021-03-04T12:48:12.000Z</time>
      </trkpt>
      <trkpt lat="43.72264" lon="7.02837">
        <ele>1039.4000244141</ele>
        <time>2021-03-04T12:48:14.000Z</time>
      </trkpt>
      <trkpt lat="43.72264" lon="7.02836">
        <ele>1039</ele>
        <time>2021-03-04T12:48:20.000Z</time>
      </trkpt>
      <trkpt lat="43.72264" lon="7.02836">
        <ele>1038.8000488281</ele>
        <time>2021-03-04T12:48:29.000Z</time>
      </trkpt>
      <trkpt lat="43.72264" lon="7.02836">
        <ele>1038.5999755859</ele>
        <time>2021-03-04T12:48:30.000Z</time>
      </trkpt>
      <trkpt lat="43.72263" lon="7.02829">
        <ele>1038.4000244141</ele>
        <time>2021-03-04T12:48:35.000Z</time>
      </trkpt>
      <trkpt lat="43.72262" lon="7.02824">
        <ele>1037.4000244141</ele>
        <time>2021-03-04T12:48:37.000Z</time>
      </trkpt>
      <trkpt lat="43.7226" lon="7.02822">
        <ele>1036.1999511719</ele>
        <time>2021-03-04T12:48:39.000Z</time>
      </trkpt>
      <trkpt lat="43.72258" lon="7.02823">
        <ele>1034.8000488281</ele>
        <time>2021-03-04T12:48:41.000Z</time>
      </trkpt>
      <trkpt lat="43.72254" lon="7.02827">
        <ele>1033.4000244141</ele>
        <time>2021-03-04T12:48:44.000Z</time>
      </trkpt>
      <trkpt lat="43.72252" lon="7.02826">
        <ele>1032</ele>
        <time>2021-03-04T12:48:47.000Z</time>
      </trkpt>
      <trkpt lat="43.72252" lon="7.02824">
        <ele>1031.4000244141</ele>
        <time>2021-03-04T12:48:48.000Z</time>
      </trkpt>
      <trkpt lat="43.72252" lon="7.0282">
        <ele>1030.5999755859</ele>
        <time>2021-03-04T12:48:50.000Z</time>
      </trkpt>
      <trkpt lat="43.72252" lon="7.02818">
        <ele>1029.8000488281</ele>
        <time>2021-03-04T12:48:53.000Z</time>
      </trkpt>
      <trkpt lat="43.72252" lon="7.02818">
        <ele>1029.1999511719</ele>
        <time>2021-03-04T12:48:54.000Z</time>
      </trkpt>
      <trkpt lat="43.72252" lon="7.02818">
        <ele>1028.1999511719</ele>
        <time>2021-03-04T12:49:00.000Z</time>
      </trkpt>
      <trkpt lat="43.72252" lon="7.02819">
        <ele>1028.4000244141</ele>
        <time>2021-03-04T12:49:06.000Z</time>
      </trkpt>
      <trkpt lat="43.72249" lon="7.0282">
        <ele>1028.1999511719</ele>
        <time>2021-03-04T12:49:11.000Z</time>
      </trkpt>
      <trkpt lat="43.72248" lon="7.02819">
        <ele>1028.1999511719</ele>
        <time>2021-03-04T12:49:13.000Z</time>
      </trkpt>
      <trkpt lat="43.72247" lon="7.02818">
        <ele>1027.8000488281</ele>
        <time>2021-03-04T12:49:14.000Z</time>
      </trkpt>
      <trkpt lat="43.72247" lon="7.02815">
        <ele>1026.8000488281</ele>
        <time>2021-03-04T12:49:16.000Z</time>
      </trkpt>
      <trkpt lat="43.72247" lon="7.02814">
        <ele>1025.5999755859</ele>
        <time>2021-03-04T12:49:18.000Z</time>
      </trkpt>
      <trkpt lat="43.72247" lon="7.02814">
        <ele>1024.8000488281</ele>
        <time>2021-03-04T12:49:21.000Z</time>
      </trkpt>
      <trkpt lat="43.72248" lon="7.02813">
        <ele>1024.5999755859</ele>
        <time>2021-03-04T12:49:24.000Z</time>
      </trkpt>
      <trkpt lat="43.72248" lon="7.02812">
        <ele>1024.4000244141</ele>
        <time>2021-03-04T12:49:25.000Z</time>
      </trkpt>
      <trkpt lat="43.72248" lon="7.02809">
        <ele>1023.5999755859</ele>
        <time>2021-03-04T12:49:31.000Z</time>
      </trkpt>
      <trkpt lat="43.72247" lon="7.0281">
        <ele>1022.799987793</ele>
        <time>2021-03-04T12:49:36.000Z</time>
      </trkpt>
      <trkpt lat="43.7224" lon="7.02815">
        <ele>1022.799987793</ele>
        <time>2021-03-04T12:49:40.000Z</time>
      </trkpt>
      <trkpt lat="43.72237" lon="7.02818">
        <ele>1022.200012207</ele>
        <time>2021-03-04T12:49:42.000Z</time>
      </trkpt>
      <trkpt lat="43.72235" lon="7.02821">
        <ele>1021</ele>
        <time>2021-03-04T12:49:44.000Z</time>
      </trkpt>
      <trkpt lat="43.72234" lon="7.02822">
        <ele>1020.4000244141</ele>
        <time>2021-03-04T12:49:45.000Z</time>
      </trkpt>
      <trkpt lat="43.72232" lon="7.02822">
        <ele>1019.799987793</ele>
        <time>2021-03-04T12:49:46.000Z</time>
      </trkpt>
      <trkpt lat="43.72228" lon="7.02823">
        <ele>1018.799987793</ele>
        <time>2021-03-04T12:49:48.000Z</time>
      </trkpt>
      <trkpt lat="43.72227" lon="7.0282">
        <ele>1017.799987793</ele>
        <time>2021-03-04T12:49:49.000Z</time>
      </trkpt>
      <trkpt lat="43.72227" lon="7.02818">
        <ele>1017.200012207</ele>
        <time>2021-03-04T12:49:50.000Z</time>
      </trkpt>
      <trkpt lat="43.72228" lon="7.02809">
        <ele>1015.5999755859</ele>
        <time>2021-03-04T12:49:52.000Z</time>
      </trkpt>
      <trkpt lat="43.72228" lon="7.02805">
        <ele>1015</ele>
        <time>2021-03-04T12:49:53.000Z</time>
      </trkpt>
      <trkpt lat="43.72228" lon="7.02799">
        <ele>1014.200012207</ele>
        <time>2021-03-04T12:49:55.000Z</time>
      </trkpt>
      <trkpt lat="43.72227" lon="7.02797">
        <ele>1012.799987793</ele>
        <time>2021-03-04T12:49:57.000Z</time>
      </trkpt>
      <trkpt lat="43.72226" lon="7.02799">
        <ele>1011.4000244141</ele>
        <time>2021-03-04T12:49:59.000Z</time>
      </trkpt>
      <trkpt lat="43.72226" lon="7.02799">
        <ele>1010.799987793</ele>
        <time>2021-03-04T12:50:01.000Z</time>
      </trkpt>
      <trkpt lat="43.72225" lon="7.02802">
        <ele>1010.5999755859</ele>
        <time>2021-03-04T12:50:02.000Z</time>
      </trkpt>
      <trkpt lat="43.72223" lon="7.02805">
        <ele>1010</ele>
        <time>2021-03-04T12:50:04.000Z</time>
      </trkpt>
      <trkpt lat="43.72218" lon="7.02802">
        <ele>1009.200012207</ele>
        <time>2021-03-04T12:50:08.000Z</time>
      </trkpt>
      <trkpt lat="43.72217" lon="7.02801">
        <ele>1008.799987793</ele>
        <time>2021-03-04T12:50:09.000Z</time>
      </trkpt>
      <trkpt lat="43.72215" lon="7.02802">
        <ele>1007.4000244141</ele>
        <time>2021-03-04T12:50:12.000Z</time>
      </trkpt>
      <trkpt lat="43.72216" lon="7.02802">
        <ele>1007</ele>
        <time>2021-03-04T12:50:13.000Z</time>
      </trkpt>
      <trkpt lat="43.72215" lon="7.02802">
        <ele>1005.799987793</ele>
        <time>2021-03-04T12:50:15.000Z</time>
      </trkpt>
      <trkpt lat="43.72215" lon="7.02802">
        <ele>1004.5999755859</ele>
        <time>2021-03-04T12:50:18.000Z</time>
      </trkpt>
      <trkpt lat="43.72215" lon="7.02803">
        <ele>1005</ele>
        <time>2021-03-04T12:50:21.000Z</time>
      </trkpt>
      <trkpt lat="43.72214" lon="7.02806">
        <ele>1005.5999755859</ele>
        <time>2021-03-04T12:50:24.000Z</time>
      </trkpt>
      <trkpt lat="43.72213" lon="7.02806">
        <ele>1005.799987793</ele>
        <time>2021-03-04T12:50:26.000Z</time>
      </trkpt>
      <trkpt lat="43.72212" lon="7.02806">
        <ele>1004.5999755859</ele>
        <time>2021-03-04T12:50:32.000Z</time>
      </trkpt>
      <trkpt lat="43.72212" lon="7.02804">
        <ele>1004.4000244141</ele>
        <time>2021-03-04T12:50:38.000Z</time>
      </trkpt>
      <trkpt lat="43.72212" lon="7.02803">
        <ele>1004.4000244141</ele>
        <time>2021-03-04T12:50:39.000Z</time>
      </trkpt>
      <trkpt lat="43.72213" lon="7.02795">
        <ele>1003.5999755859</ele>
        <time>2021-03-04T12:50:43.000Z</time>
      </trkpt>
      <trkpt lat="43.72212" lon="7.02794">
        <ele>1003.200012207</ele>
        <time>2021-03-04T12:50:44.000Z</time>
      </trkpt>
      <trkpt lat="43.72211" lon="7.02795">
        <ele>1002.200012207</ele>
        <time>2021-03-04T12:50:47.000Z</time>
      </trkpt>
      <trkpt lat="43.7221" lon="7.02796">
        <ele>1001.4000244141</ele>
        <time>2021-03-04T12:50:49.000Z</time>
      </trkpt>
      <trkpt lat="43.7221" lon="7.02797">
        <ele>1001</ele>
        <time>2021-03-04T12:50:50.000Z</time>
      </trkpt>
      <trkpt lat="43.72209" lon="7.02798">
        <ele>1000.799987793</ele>
        <time>2021-03-04T12:50:51.000Z</time>
      </trkpt>
      <trkpt lat="43.72203" lon="7.02803">
        <ele>1000.5999755859</ele>
        <time>2021-03-04T12:50:54.000Z</time>
      </trkpt>
      <trkpt lat="43.72201" lon="7.02802">
        <ele>1000.200012207</ele>
        <time>2021-03-04T12:50:56.000Z</time>
      </trkpt>
      <trkpt lat="43.72201" lon="7.02802">
        <ele>999.59997558594</ele>
        <time>2021-03-04T12:50:57.000Z</time>
      </trkpt>
      <trkpt lat="43.72201" lon="7.02802">
        <ele>999.20001220703</ele>
        <time>2021-03-04T12:50:58.000Z</time>
      </trkpt>
      <trkpt lat="43.72201" lon="7.02801">
        <ele>998.59997558594</ele>
        <time>2021-03-04T12:50:59.000Z</time>
      </trkpt>
      <trkpt lat="43.72201" lon="7.02798">
        <ele>997.59997558594</ele>
        <time>2021-03-04T12:51:05.000Z</time>
      </trkpt>
      <trkpt lat="43.72201" lon="7.02799">
        <ele>997.40002441406</ele>
        <time>2021-03-04T12:51:06.000Z</time>
      </trkpt>
      <trkpt lat="43.722" lon="7.02799">
        <ele>996.40002441406</ele>
        <time>2021-03-04T12:51:11.000Z</time>
      </trkpt>
      <trkpt lat="43.72199" lon="7.02796">
        <ele>995.20001220703</ele>
        <time>2021-03-04T12:51:16.000Z</time>
      </trkpt>
      <trkpt lat="43.722" lon="7.02796">
        <ele>995</ele>
        <time>2021-03-04T12:51:17.000Z</time>
      </trkpt>
      <trkpt lat="43.722" lon="7.02794">
        <ele>994.59997558594</ele>
        <time>2021-03-04T12:51:23.000Z</time>
      </trkpt>
      <trkpt lat="43.722" lon="7.02791">
        <ele>994.20001220703</ele>
        <time>2021-03-04T12:51:27.000Z</time>
      </trkpt>
      <trkpt lat="43.72201" lon="7.02789">
        <ele>994.20001220703</ele>
        <time>2021-03-04T12:51:28.000Z</time>
      </trkpt>
      <trkpt lat="43.72198" lon="7.02786">
        <ele>993.79998779297</ele>
        <time>2021-03-04T12:51:32.000Z</time>
      </trkpt>
      <trkpt lat="43.72197" lon="7.02787">
        <ele>992.79998779297</ele>
        <time>2021-03-04T12:51:34.000Z</time>
      </trkpt>
      <trkpt lat="43.72196" lon="7.02788">
        <ele>991</ele>
        <time>2021-03-04T12:51:36.000Z</time>
      </trkpt>
      <trkpt lat="43.72196" lon="7.02788">
        <ele>990.40002441406</ele>
        <time>2021-03-04T12:51:37.000Z</time>
      </trkpt>
      <trkpt lat="43.72196" lon="7.02788">
        <ele>989.79998779297</ele>
        <time>2021-03-04T12:51:38.000Z</time>
      </trkpt>
      <trkpt lat="43.72192" lon="7.0279">
        <ele>988.59997558594</ele>
        <time>2021-03-04T12:51:40.000Z</time>
      </trkpt>
      <trkpt lat="43.72191" lon="7.0279">
        <ele>988.20001220703</ele>
        <time>2021-03-04T12:51:41.000Z</time>
      </trkpt>
      <trkpt lat="43.72189" lon="7.02791">
        <ele>987.59997558594</ele>
        <time>2021-03-04T12:51:42.000Z</time>
      </trkpt>
      <trkpt lat="43.72186" lon="7.02793">
        <ele>986.40002441406</ele>
        <time>2021-03-04T12:51:44.000Z</time>
      </trkpt>
      <trkpt lat="43.72179" lon="7.02798">
        <ele>985.79998779297</ele>
        <time>2021-03-04T12:51:46.000Z</time>
      </trkpt>
      <trkpt lat="43.72177" lon="7.02803">
        <ele>985.20001220703</ele>
        <time>2021-03-04T12:51:47.000Z</time>
      </trkpt>
      <trkpt lat="43.72175" lon="7.02807">
        <ele>984.79998779297</ele>
        <time>2021-03-04T12:51:48.000Z</time>
      </trkpt>
      <trkpt lat="43.72175" lon="7.0281">
        <ele>984.40002441406</ele>
        <time>2021-03-04T12:51:49.000Z</time>
      </trkpt>
      <trkpt lat="43.72175" lon="7.02812">
        <ele>983.79998779297</ele>
        <time>2021-03-04T12:51:50.000Z</time>
      </trkpt>
      <trkpt lat="43.72172" lon="7.02814">
        <ele>982.59997558594</ele>
        <time>2021-03-04T12:51:52.000Z</time>
      </trkpt>
      <trkpt lat="43.7217" lon="7.02813">
        <ele>982.40002441406</ele>
        <time>2021-03-04T12:51:53.000Z</time>
      </trkpt>
      <trkpt lat="43.72167" lon="7.02809">
        <ele>981.79998779297</ele>
        <time>2021-03-04T12:51:55.000Z</time>
      </trkpt>
      <trkpt lat="43.72166" lon="7.02808">
        <ele>981.40002441406</ele>
        <time>2021-03-04T12:51:56.000Z</time>
      </trkpt>
      <trkpt lat="43.72165" lon="7.02809">
        <ele>981</ele>
        <time>2021-03-04T12:51:57.000Z</time>
      </trkpt>
      <trkpt lat="43.72164" lon="7.0281">
        <ele>980.40002441406</ele>
        <time>2021-03-04T12:51:58.000Z</time>
      </trkpt>
      <trkpt lat="43.72161" lon="7.02812">
        <ele>979.20001220703</ele>
        <time>2021-03-04T12:52:00.000Z</time>
      </trkpt>
      <trkpt lat="43.72158" lon="7.02812">
        <ele>978.59997558594</ele>
        <time>2021-03-04T12:52:01.000Z</time>
      </trkpt>
      <trkpt lat="43.72158" lon="7.02815">
        <ele>978.20001220703</ele>
        <time>2021-03-04T12:52:02.000Z</time>
      </trkpt>
      <trkpt lat="43.72158" lon="7.02817">
        <ele>976.59997558594</ele>
        <time>2021-03-04T12:52:04.000Z</time>
      </trkpt>
      <trkpt lat="43.72157" lon="7.02819">
        <ele>975.59997558594</ele>
        <time>2021-03-04T12:52:06.000Z</time>
      </trkpt>
      <trkpt lat="43.72156" lon="7.02819">
        <ele>975.20001220703</ele>
        <time>2021-03-04T12:52:07.000Z</time>
      </trkpt>
      <trkpt lat="43.72156" lon="7.02819">
        <ele>975.20001220703</ele>
        <time>2021-03-04T12:52:09.000Z</time>
      </trkpt>
      <trkpt lat="43.72156" lon="7.02826">
        <ele>975</ele>
        <time>2021-03-04T12:52:15.000Z</time>
      </trkpt>
      <trkpt lat="43.72154" lon="7.02833">
        <ele>974.40002441406</ele>
        <time>2021-03-04T12:52:22.000Z</time>
      </trkpt>
      <trkpt lat="43.72152" lon="7.02837">
        <ele>974.20001220703</ele>
        <time>2021-03-04T12:52:23.000Z</time>
      </trkpt>
      <trkpt lat="43.72152" lon="7.02836">
        <ele>973.40002441406</ele>
        <time>2021-03-04T12:52:25.000Z</time>
      </trkpt>
      <trkpt lat="43.72152" lon="7.02837">
        <ele>973</ele>
        <time>2021-03-04T12:52:26.000Z</time>
      </trkpt>
      <trkpt lat="43.7215" lon="7.0284">
        <ele>973</ele>
        <time>2021-03-04T12:52:33.000Z</time>
      </trkpt>
      <trkpt lat="43.72148" lon="7.02844">
        <ele>973.20001220703</ele>
        <time>2021-03-04T12:52:40.000Z</time>
      </trkpt>
      <trkpt lat="43.72147" lon="7.02849">
        <ele>973.59997558594</ele>
        <time>2021-03-04T12:52:46.000Z</time>
      </trkpt>
      <trkpt lat="43.72146" lon="7.02849">
        <ele>973.59997558594</ele>
        <time>2021-03-04T12:52:53.000Z</time>
      </trkpt>
      <trkpt lat="43.72145" lon="7.02855">
        <ele>973.59997558594</ele>
        <time>2021-03-04T12:53:02.000Z</time>
      </trkpt>
      <trkpt lat="43.72143" lon="7.02856">
        <ele>973</ele>
        <time>2021-03-04T12:53:07.000Z</time>
      </trkpt>
      <trkpt lat="43.72142" lon="7.02855">
        <ele>972.20001220703</ele>
        <time>2021-03-04T12:53:13.000Z</time>
      </trkpt>
      <trkpt lat="43.72142" lon="7.02855">
        <ele>972</ele>
        <time>2021-03-04T12:53:14.000Z</time>
      </trkpt>
      <trkpt lat="43.72141" lon="7.02847">
        <ele>971.59997558594</ele>
        <time>2021-03-04T12:53:19.000Z</time>
      </trkpt>
      <trkpt lat="43.7214" lon="7.02844">
        <ele>971.20001220703</ele>
        <time>2021-03-04T12:53:21.000Z</time>
      </trkpt>
      <trkpt lat="43.7214" lon="7.02844">
        <ele>971</ele>
        <time>2021-03-04T12:53:22.000Z</time>
      </trkpt>
      <trkpt lat="43.72139" lon="7.02845">
        <ele>970.59997558594</ele>
        <time>2021-03-04T12:53:23.000Z</time>
      </trkpt>
      <trkpt lat="43.72136" lon="7.02843">
        <ele>969.59997558594</ele>
        <time>2021-03-04T12:53:26.000Z</time>
      </trkpt>
      <trkpt lat="43.72133" lon="7.02841">
        <ele>968.79998779297</ele>
        <time>2021-03-04T12:53:28.000Z</time>
      </trkpt>
      <trkpt lat="43.72132" lon="7.0284">
        <ele>968.40002441406</ele>
        <time>2021-03-04T12:53:29.000Z</time>
      </trkpt>
      <trkpt lat="43.72131" lon="7.02842">
        <ele>967.20001220703</ele>
        <time>2021-03-04T12:53:31.000Z</time>
      </trkpt>
      <trkpt lat="43.72131" lon="7.02842">
        <ele>966</ele>
        <time>2021-03-04T12:53:33.000Z</time>
      </trkpt>
      <trkpt lat="43.72131" lon="7.02845">
        <ele>964.79998779297</ele>
        <time>2021-03-04T12:53:35.000Z</time>
      </trkpt>
      <trkpt lat="43.7213" lon="7.02852">
        <ele>964.20001220703</ele>
        <time>2021-03-04T12:53:37.000Z</time>
      </trkpt>
      <trkpt lat="43.72127" lon="7.02857">
        <ele>963.59997558594</ele>
        <time>2021-03-04T12:53:39.000Z</time>
      </trkpt>
      <trkpt lat="43.72124" lon="7.02861">
        <ele>963</ele>
        <time>2021-03-04T12:53:41.000Z</time>
      </trkpt>
      <trkpt lat="43.72123" lon="7.02863">
        <ele>962.40002441406</ele>
        <time>2021-03-04T12:53:42.000Z</time>
      </trkpt>
      <trkpt lat="43.7212" lon="7.02866">
        <ele>960.79998779297</ele>
        <time>2021-03-04T12:53:44.000Z</time>
      </trkpt>
      <trkpt lat="43.72119" lon="7.02865">
        <ele>960.20001220703</ele>
        <time>2021-03-04T12:53:45.000Z</time>
      </trkpt>
      <trkpt lat="43.72118" lon="7.02864">
        <ele>959.59997558594</ele>
        <time>2021-03-04T12:53:46.000Z</time>
      </trkpt>
      <trkpt lat="43.72114" lon="7.02852">
        <ele>958.59997558594</ele>
        <time>2021-03-04T12:53:49.000Z</time>
      </trkpt>
      <trkpt lat="43.72106" lon="7.02841">
        <ele>957.20001220703</ele>
        <time>2021-03-04T12:53:51.000Z</time>
      </trkpt>
      <trkpt lat="43.72104" lon="7.02838">
        <ele>957</ele>
        <time>2021-03-04T12:53:52.000Z</time>
      </trkpt>
      <trkpt lat="43.72101" lon="7.02837">
        <ele>955.79998779297</ele>
        <time>2021-03-04T12:53:54.000Z</time>
      </trkpt>
      <trkpt lat="43.72099" lon="7.02837">
        <ele>955</ele>
        <time>2021-03-04T12:53:55.000Z</time>
      </trkpt>
      <trkpt lat="43.72097" lon="7.02836">
        <ele>954.20001220703</ele>
        <time>2021-03-04T12:53:56.000Z</time>
      </trkpt>
      <trkpt lat="43.72094" lon="7.02833">
        <ele>951.59997558594</ele>
        <time>2021-03-04T12:53:58.000Z</time>
      </trkpt>
      <trkpt lat="43.72091" lon="7.02837">
        <ele>950</ele>
        <time>2021-03-04T12:54:00.000Z</time>
      </trkpt>
      <trkpt lat="43.72087" lon="7.0284">
        <ele>949.40002441406</ele>
        <time>2021-03-04T12:54:01.000Z</time>
      </trkpt>
      <trkpt lat="43.72085" lon="7.02842">
        <ele>948.79998779297</ele>
        <time>2021-03-04T12:54:02.000Z</time>
      </trkpt>
      <trkpt lat="43.72085" lon="7.02844">
        <ele>948.40002441406</ele>
        <time>2021-03-04T12:54:03.000Z</time>
      </trkpt>
      <trkpt lat="43.72085" lon="7.02844">
        <ele>947.59997558594</ele>
        <time>2021-03-04T12:54:04.000Z</time>
      </trkpt>
      <trkpt lat="43.72085" lon="7.02844">
        <ele>947</ele>
        <time>2021-03-04T12:54:05.000Z</time>
      </trkpt>
      <trkpt lat="43.72085" lon="7.02844">
        <ele>946.40002441406</ele>
        <time>2021-03-04T12:54:06.000Z</time>
      </trkpt>
      <trkpt lat="43.72084" lon="7.02846">
        <ele>945.79998779297</ele>
        <time>2021-03-04T12:54:11.000Z</time>
      </trkpt>
      <trkpt lat="43.72083" lon="7.02846">
        <ele>945.59997558594</ele>
        <time>2021-03-04T12:54:17.000Z</time>
      </trkpt>
      <trkpt lat="43.72082" lon="7.02845">
        <ele>945.59997558594</ele>
        <time>2021-03-04T12:54:23.000Z</time>
      </trkpt>
      <trkpt lat="43.72082" lon="7.02845">
        <ele>945.40002441406</ele>
        <time>2021-03-04T12:54:24.000Z</time>
      </trkpt>
      <trkpt lat="43.7208" lon="7.02843">
        <ele>945</ele>
        <time>2021-03-04T12:54:32.000Z</time>
      </trkpt>
      <trkpt lat="43.72077" lon="7.02829">
        <ele>944.79998779297</ele>
        <time>2021-03-04T12:54:36.000Z</time>
      </trkpt>
      <trkpt lat="43.72075" lon="7.02825">
        <ele>944.20001220703</ele>
        <time>2021-03-04T12:54:38.000Z</time>
      </trkpt>
      <trkpt lat="43.7207" lon="7.02823">
        <ele>943.40002441406</ele>
        <time>2021-03-04T12:54:40.000Z</time>
      </trkpt>
      <trkpt lat="43.72067" lon="7.02823">
        <ele>942.79998779297</ele>
        <time>2021-03-04T12:54:41.000Z</time>
      </trkpt>
      <trkpt lat="43.72064" lon="7.02819">
        <ele>942</ele>
        <time>2021-03-04T12:54:42.000Z</time>
      </trkpt>
      <trkpt lat="43.72062" lon="7.02816">
        <ele>941.20001220703</ele>
        <time>2021-03-04T12:54:43.000Z</time>
      </trkpt>
      <trkpt lat="43.72058" lon="7.02813">
        <ele>940.59997558594</ele>
        <time>2021-03-04T12:54:44.000Z</time>
      </trkpt>
      <trkpt lat="43.72054" lon="7.02808">
        <ele>940.20001220703</ele>
        <time>2021-03-04T12:54:45.000Z</time>
      </trkpt>
      <trkpt lat="43.72044" lon="7.02798">
        <ele>938.59997558594</ele>
        <time>2021-03-04T12:54:47.000Z</time>
      </trkpt>
      <trkpt lat="43.7204" lon="7.02792">
        <ele>937.59997558594</ele>
        <time>2021-03-04T12:54:48.000Z</time>
      </trkpt>
      <trkpt lat="43.72036" lon="7.02786">
        <ele>936.59997558594</ele>
        <time>2021-03-04T12:54:49.000Z</time>
      </trkpt>
      <trkpt lat="43.72031" lon="7.02783">
        <ele>935.20001220703</ele>
        <time>2021-03-04T12:54:50.000Z</time>
      </trkpt>
      <trkpt lat="43.72027" lon="7.02781">
        <ele>933.79998779297</ele>
        <time>2021-03-04T12:54:51.000Z</time>
      </trkpt>
      <trkpt lat="43.72016" lon="7.02778">
        <ele>932.20001220703</ele>
        <time>2021-03-04T12:54:53.000Z</time>
      </trkpt>
      <trkpt lat="43.7201" lon="7.02778">
        <ele>931</ele>
        <time>2021-03-04T12:54:54.000Z</time>
      </trkpt>
      <trkpt lat="43.72005" lon="7.02781">
        <ele>930.79998779297</ele>
        <time>2021-03-04T12:54:55.000Z</time>
      </trkpt>
      <trkpt lat="43.72001" lon="7.02785">
        <ele>929.79998779297</ele>
        <time>2021-03-04T12:54:56.000Z</time>
      </trkpt>
      <trkpt lat="43.71997" lon="7.02788">
        <ele>928.79998779297</ele>
        <time>2021-03-04T12:54:57.000Z</time>
      </trkpt>
      <trkpt lat="43.71993" lon="7.0279">
        <ele>927.40002441406</ele>
        <time>2021-03-04T12:54:58.000Z</time>
      </trkpt>
      <trkpt lat="43.71988" lon="7.02788">
        <ele>926.20001220703</ele>
        <time>2021-03-04T12:54:59.000Z</time>
      </trkpt>
      <trkpt lat="43.71984" lon="7.0279">
        <ele>925</ele>
        <time>2021-03-04T12:55:00.000Z</time>
      </trkpt>
      <trkpt lat="43.71972" lon="7.02793">
        <ele>922.79998779297</ele>
        <time>2021-03-04T12:55:02.000Z</time>
      </trkpt>
      <trkpt lat="43.7196" lon="7.02788">
        <ele>921.20001220703</ele>
        <time>2021-03-04T12:55:04.000Z</time>
      </trkpt>
      <trkpt lat="43.71956" lon="7.02789">
        <ele>920.40002441406</ele>
        <time>2021-03-04T12:55:05.000Z</time>
      </trkpt>
      <trkpt lat="43.71951" lon="7.02794">
        <ele>919</ele>
        <time>2021-03-04T12:55:06.000Z</time>
      </trkpt>
      <trkpt lat="43.71948" lon="7.02799">
        <ele>918.20001220703</ele>
        <time>2021-03-04T12:55:07.000Z</time>
      </trkpt>
      <trkpt lat="43.71945" lon="7.02801">
        <ele>917.40002441406</ele>
        <time>2021-03-04T12:55:08.000Z</time>
      </trkpt>
      <trkpt lat="43.71939" lon="7.02796">
        <ele>915.59997558594</ele>
        <time>2021-03-04T12:55:10.000Z</time>
      </trkpt>
      <trkpt lat="43.71926" lon="7.02799">
        <ele>914</ele>
        <time>2021-03-04T12:55:13.000Z</time>
      </trkpt>
      <trkpt lat="43.7192" lon="7.02812">
        <ele>912.20001220703</ele>
        <time>2021-03-04T12:55:15.000Z</time>
      </trkpt>
      <trkpt lat="43.71918" lon="7.02819">
        <ele>911</ele>
        <time>2021-03-04T12:55:16.000Z</time>
      </trkpt>
      <trkpt lat="43.7191" lon="7.02831">
        <ele>909</ele>
        <time>2021-03-04T12:55:18.000Z</time>
      </trkpt>
      <trkpt lat="43.71905" lon="7.02833">
        <ele>907.59997558594</ele>
        <time>2021-03-04T12:55:19.000Z</time>
      </trkpt>
      <trkpt lat="43.719" lon="7.02835">
        <ele>906.40002441406</ele>
        <time>2021-03-04T12:55:20.000Z</time>
      </trkpt>
      <trkpt lat="43.71888" lon="7.0284">
        <ele>905</ele>
        <time>2021-03-04T12:55:23.000Z</time>
      </trkpt>
      <trkpt lat="43.71884" lon="7.02847">
        <ele>903.40002441406</ele>
        <time>2021-03-04T12:55:25.000Z</time>
      </trkpt>
      <trkpt lat="43.71884" lon="7.02851">
        <ele>902.20001220703</ele>
        <time>2021-03-04T12:55:26.000Z</time>
      </trkpt>
      <trkpt lat="43.71884" lon="7.02856">
        <ele>901.59997558594</ele>
        <time>2021-03-04T12:55:27.000Z</time>
      </trkpt>
      <trkpt lat="43.71882" lon="7.02857">
        <ele>901.20001220703</ele>
        <time>2021-03-04T12:55:28.000Z</time>
      </trkpt>
      <trkpt lat="43.71879" lon="7.02857">
        <ele>900.40002441406</ele>
        <time>2021-03-04T12:55:29.000Z</time>
      </trkpt>
      <trkpt lat="43.71877" lon="7.02854">
        <ele>899.40002441406</ele>
        <time>2021-03-04T12:55:30.000Z</time>
      </trkpt>
      <trkpt lat="43.71876" lon="7.0285">
        <ele>898.20001220703</ele>
        <time>2021-03-04T12:55:31.000Z</time>
      </trkpt>
      <trkpt lat="43.71875" lon="7.02847">
        <ele>897.40002441406</ele>
        <time>2021-03-04T12:55:32.000Z</time>
      </trkpt>
      <trkpt lat="43.71874" lon="7.02843">
        <ele>897</ele>
        <time>2021-03-04T12:55:33.000Z</time>
      </trkpt>
      <trkpt lat="43.7187" lon="7.0283">
        <ele>895.59997558594</ele>
        <time>2021-03-04T12:55:36.000Z</time>
      </trkpt>
      <trkpt lat="43.71868" lon="7.02827">
        <ele>895.20001220703</ele>
        <time>2021-03-04T12:55:37.000Z</time>
      </trkpt>
      <trkpt lat="43.71862" lon="7.02817">
        <ele>894.40002441406</ele>
        <time>2021-03-04T12:55:40.000Z</time>
      </trkpt>
      <trkpt lat="43.71855" lon="7.02809">
        <ele>893.40002441406</ele>
        <time>2021-03-04T12:55:42.000Z</time>
      </trkpt>
      <trkpt lat="43.71851" lon="7.02805">
        <ele>893</ele>
        <time>2021-03-04T12:55:43.000Z</time>
      </trkpt>
      <trkpt lat="43.71843" lon="7.02789">
        <ele>891.79998779297</ele>
        <time>2021-03-04T12:55:46.000Z</time>
      </trkpt>
      <trkpt lat="43.71841" lon="7.02782">
        <ele>891.40002441406</ele>
        <time>2021-03-04T12:55:47.000Z</time>
      </trkpt>
      <trkpt lat="43.71838" lon="7.0277">
        <ele>890.59997558594</ele>
        <time>2021-03-04T12:55:49.000Z</time>
      </trkpt>
      <trkpt lat="43.71833" lon="7.02754">
        <ele>890</ele>
        <time>2021-03-04T12:55:52.000Z</time>
      </trkpt>
      <trkpt lat="43.71831" lon="7.0275">
        <ele>889.59997558594</ele>
        <time>2021-03-04T12:55:53.000Z</time>
      </trkpt>
      <trkpt lat="43.71826" lon="7.02747">
        <ele>889.40002441406</ele>
        <time>2021-03-04T12:55:54.000Z</time>
      </trkpt>
      <trkpt lat="43.71821" lon="7.02747">
        <ele>889</ele>
        <time>2021-03-04T12:55:55.000Z</time>
      </trkpt>
      <trkpt lat="43.71815" lon="7.02747">
        <ele>888.20001220703</ele>
        <time>2021-03-04T12:55:56.000Z</time>
      </trkpt>
      <trkpt lat="43.71803" lon="7.02747">
        <ele>886.79998779297</ele>
        <time>2021-03-04T12:55:58.000Z</time>
      </trkpt>
      <trkpt lat="43.71796" lon="7.02747">
        <ele>886.40002441406</ele>
        <time>2021-03-04T12:55:59.000Z</time>
      </trkpt>
      <trkpt lat="43.71782" lon="7.02746">
        <ele>885.40002441406</ele>
        <time>2021-03-04T12:56:01.000Z</time>
      </trkpt>
      <trkpt lat="43.71772" lon="7.02744">
        <ele>883.59997558594</ele>
        <time>2021-03-04T12:56:03.000Z</time>
      </trkpt>
      <trkpt lat="43.71766" lon="7.02744">
        <ele>883.20001220703</ele>
        <time>2021-03-04T12:56:04.000Z</time>
      </trkpt>
      <trkpt lat="43.71755" lon="7.02745">
        <ele>882.40002441406</ele>
        <time>2021-03-04T12:56:06.000Z</time>
      </trkpt>
      <trkpt lat="43.71751" lon="7.02747">
        <ele>882.20001220703</ele>
        <time>2021-03-04T12:56:07.000Z</time>
      </trkpt>
      <trkpt lat="43.71746" lon="7.0275">
        <ele>882.40002441406</ele>
        <time>2021-03-04T12:56:08.000Z</time>
      </trkpt>
      <trkpt lat="43.7173" lon="7.02758">
        <ele>881</ele>
        <time>2021-03-04T12:56:11.000Z</time>
      </trkpt>
      <trkpt lat="43.71719" lon="7.02761">
        <ele>879.20001220703</ele>
        <time>2021-03-04T12:56:13.000Z</time>
      </trkpt>
      <trkpt lat="43.71711" lon="7.02762">
        <ele>877.79998779297</ele>
        <time>2021-03-04T12:56:15.000Z</time>
      </trkpt>
      <trkpt lat="43.71703" lon="7.02761">
        <ele>877.20001220703</ele>
        <time>2021-03-04T12:56:17.000Z</time>
      </trkpt>
      <trkpt lat="43.71698" lon="7.02759">
        <ele>876.59997558594</ele>
        <time>2021-03-04T12:56:19.000Z</time>
      </trkpt>
      <trkpt lat="43.71697" lon="7.02758">
        <ele>876.20001220703</ele>
        <time>2021-03-04T12:56:21.000Z</time>
      </trkpt>
      <trkpt lat="43.71697" lon="7.02758">
        <ele>875.40002441406</ele>
        <time>2021-03-04T12:56:23.000Z</time>
      </trkpt>
      <trkpt lat="43.71697" lon="7.02758">
        <ele>874.79998779297</ele>
        <time>2021-03-04T12:56:26.000Z</time>
      </trkpt>
      <trkpt lat="43.71698" lon="7.02759">
        <ele>874.59997558594</ele>
        <time>2021-03-04T12:56:33.000Z</time>
      </trkpt>
      <trkpt lat="43.71698" lon="7.0276">
        <ele>874.40002441406</ele>
        <time>2021-03-04T12:56:35.000Z</time>
      </trkpt>
      <trkpt lat="43.71697" lon="7.02762">
        <ele>874.20001220703</ele>
        <time>2021-03-04T12:56:38.000Z</time>
      </trkpt>
      <trkpt lat="43.71698" lon="7.02762">
        <ele>873.59997558594</ele>
        <time>2021-03-04T12:56:43.000Z</time>
      </trkpt>
      <trkpt lat="43.71698" lon="7.02761">
        <ele>873.59997558594</ele>
        <time>2021-03-04T12:56:48.000Z</time>
      </trkpt>
      <trkpt lat="43.71698" lon="7.02761">
        <ele>874</ele>
        <time>2021-03-04T12:56:54.000Z</time>
      </trkpt>
      <trkpt lat="43.71697" lon="7.0276">
        <ele>873.79998779297</ele>
        <time>2021-03-04T12:56:59.000Z</time>
      </trkpt>
      <trkpt lat="43.71698" lon="7.0276">
        <ele>873.40002441406</ele>
        <time>2021-03-04T12:57:05.000Z</time>
      </trkpt>
      <trkpt lat="43.71698" lon="7.0276">
        <ele>873.20001220703</ele>
        <time>2021-03-04T12:57:07.000Z</time>
      </trkpt>
      <trkpt lat="43.71699" lon="7.02762">
        <ele>873.40002441406</ele>
        <time>2021-03-04T12:57:11.000Z</time>
      </trkpt>
      <trkpt lat="43.71703" lon="7.02771">
        <ele>873.20001220703</ele>
        <time>2021-03-04T12:57:17.000Z</time>
      </trkpt>
      <trkpt lat="43.71713" lon="7.02783">
        <ele>873.40002441406</ele>
        <time>2021-03-04T12:57:22.000Z</time>
      </trkpt>
      <trkpt lat="43.71725" lon="7.028">
        <ele>873.79998779297</ele>
        <time>2021-03-04T12:57:28.000Z</time>
      </trkpt>
      <trkpt lat="43.71741" lon="7.02821">
        <ele>874</ele>
        <time>2021-03-04T12:57:35.000Z</time>
      </trkpt>
      <trkpt lat="43.71745" lon="7.02827">
        <ele>874.20001220703</ele>
        <time>2021-03-04T12:57:37.000Z</time>
      </trkpt>
      <trkpt lat="43.71757" lon="7.02843">
        <ele>874.79998779297</ele>
        <time>2021-03-04T12:57:42.000Z</time>
      </trkpt>
      <trkpt lat="43.71777" lon="7.02873">
        <ele>874.59997558594</ele>
        <time>2021-03-04T12:57:50.000Z</time>
      </trkpt>
      <trkpt lat="43.71796" lon="7.02902">
        <ele>874.59997558594</ele>
        <time>2021-03-04T12:57:57.000Z</time>
      </trkpt>
      <trkpt lat="43.71802" lon="7.02911">
        <ele>874.59997558594</ele>
        <time>2021-03-04T12:57:59.000Z</time>
      </trkpt>
      <trkpt lat="43.7182" lon="7.02935">
        <ele>873.79998779297</ele>
        <time>2021-03-04T12:58:04.000Z</time>
      </trkpt>
      <trkpt lat="43.71832" lon="7.02952">
        <ele>873.20001220703</ele>
        <time>2021-03-04T12:58:07.000Z</time>
      </trkpt>
      <trkpt lat="43.71842" lon="7.02964">
        <ele>872.40002441406</ele>
        <time>2021-03-04T12:58:09.000Z</time>
      </trkpt>
      <trkpt lat="43.71848" lon="7.02973">
        <ele>871.79998779297</ele>
        <time>2021-03-04T12:58:10.000Z</time>
      </trkpt>
      <trkpt lat="43.71861" lon="7.02989">
        <ele>870.20001220703</ele>
        <time>2021-03-04T12:58:12.000Z</time>
      </trkpt>
      <trkpt lat="43.71866" lon="7.02998">
        <ele>869</ele>
        <time>2021-03-04T12:58:13.000Z</time>
      </trkpt>
      <trkpt lat="43.71872" lon="7.03006">
        <ele>868</ele>
        <time>2021-03-04T12:58:14.000Z</time>
      </trkpt>
      <trkpt lat="43.71877" lon="7.03015">
        <ele>866.59997558594</ele>
        <time>2021-03-04T12:58:15.000Z</time>
      </trkpt>
      <trkpt lat="43.71882" lon="7.03025">
        <ele>865.59997558594</ele>
        <time>2021-03-04T12:58:16.000Z</time>
      </trkpt>
      <trkpt lat="43.71886" lon="7.03034">
        <ele>864.40002441406</ele>
        <time>2021-03-04T12:58:17.000Z</time>
      </trkpt>
      <trkpt lat="43.71892" lon="7.03045">
        <ele>863.59997558594</ele>
        <time>2021-03-04T12:58:18.000Z</time>
      </trkpt>
      <trkpt lat="43.71897" lon="7.03054">
        <ele>862.79998779297</ele>
        <time>2021-03-04T12:58:19.000Z</time>
      </trkpt>
      <trkpt lat="43.71906" lon="7.03077">
        <ele>861.59997558594</ele>
        <time>2021-03-04T12:58:21.000Z</time>
      </trkpt>
      <trkpt lat="43.7191" lon="7.03088">
        <ele>861.20001220703</ele>
        <time>2021-03-04T12:58:22.000Z</time>
      </trkpt>
      <trkpt lat="43.71912" lon="7.03099">
        <ele>860.40002441406</ele>
        <time>2021-03-04T12:58:23.000Z</time>
      </trkpt>
      <trkpt lat="43.71918" lon="7.03129">
        <ele>859.20001220703</ele>
        <time>2021-03-04T12:58:26.000Z</time>
      </trkpt>
      <trkpt lat="43.71919" lon="7.03139">
        <ele>858.79998779297</ele>
        <time>2021-03-04T12:58:27.000Z</time>
      </trkpt>
      <trkpt lat="43.71919" lon="7.03156">
        <ele>858</ele>
        <time>2021-03-04T12:58:29.000Z</time>
      </trkpt>
      <trkpt lat="43.71919" lon="7.03164">
        <ele>858</ele>
        <time>2021-03-04T12:58:30.000Z</time>
      </trkpt>
      <trkpt lat="43.71918" lon="7.03171">
        <ele>858.20001220703</ele>
        <time>2021-03-04T12:58:31.000Z</time>
      </trkpt>
      <trkpt lat="43.71917" lon="7.03194">
        <ele>859</ele>
        <time>2021-03-04T12:58:34.000Z</time>
      </trkpt>
      <trkpt lat="43.71917" lon="7.03201">
        <ele>859</ele>
        <time>2021-03-04T12:58:35.000Z</time>
      </trkpt>
      <trkpt lat="43.71918" lon="7.03208">
        <ele>859.20001220703</ele>
        <time>2021-03-04T12:58:36.000Z</time>
      </trkpt>
      <trkpt lat="43.71923" lon="7.03227">
        <ele>859</ele>
        <time>2021-03-04T12:58:39.000Z</time>
      </trkpt>
      <trkpt lat="43.71925" lon="7.03232">
        <ele>859.20001220703</ele>
        <time>2021-03-04T12:58:40.000Z</time>
      </trkpt>
      <trkpt lat="43.71928" lon="7.03236">
        <ele>859.59997558594</ele>
        <time>2021-03-04T12:58:41.000Z</time>
      </trkpt>
      <trkpt lat="43.71934" lon="7.03243">
        <ele>860.20001220703</ele>
        <time>2021-03-04T12:58:43.000Z</time>
      </trkpt>
      <trkpt lat="43.71944" lon="7.03253">
        <ele>861</ele>
        <time>2021-03-04T12:58:46.000Z</time>
      </trkpt>
      <trkpt lat="43.71947" lon="7.03257">
        <ele>861.40002441406</ele>
        <time>2021-03-04T12:58:47.000Z</time>
      </trkpt>
      <trkpt lat="43.71958" lon="7.03272">
        <ele>862.40002441406</ele>
        <time>2021-03-04T12:58:51.000Z</time>
      </trkpt>
      <trkpt lat="43.71961" lon="7.03276">
        <ele>862.59997558594</ele>
        <time>2021-03-04T12:58:52.000Z</time>
      </trkpt>
      <trkpt lat="43.71976" lon="7.03298">
        <ele>863.20001220703</ele>
        <time>2021-03-04T12:58:57.000Z</time>
      </trkpt>
      <trkpt lat="43.71991" lon="7.03329">
        <ele>861.79998779297</ele>
        <time>2021-03-04T12:59:01.000Z</time>
      </trkpt>
      <trkpt lat="43.71995" lon="7.03339">
        <ele>861</ele>
        <time>2021-03-04T12:59:02.000Z</time>
      </trkpt>
      <trkpt lat="43.71999" lon="7.03348">
        <ele>860</ele>
        <time>2021-03-04T12:59:03.000Z</time>
      </trkpt>
      <trkpt lat="43.72004" lon="7.03359">
        <ele>859</ele>
        <time>2021-03-04T12:59:04.000Z</time>
      </trkpt>
      <trkpt lat="43.72011" lon="7.03371">
        <ele>858</ele>
        <time>2021-03-04T12:59:05.000Z</time>
      </trkpt>
      <trkpt lat="43.72017" lon="7.03382">
        <ele>856.79998779297</ele>
        <time>2021-03-04T12:59:06.000Z</time>
      </trkpt>
      <trkpt lat="43.72023" lon="7.03393">
        <ele>855.59997558594</ele>
        <time>2021-03-04T12:59:07.000Z</time>
      </trkpt>
      <trkpt lat="43.72028" lon="7.03405">
        <ele>853.79998779297</ele>
        <time>2021-03-04T12:59:08.000Z</time>
      </trkpt>
      <trkpt lat="43.72032" lon="7.03417">
        <ele>853.40002441406</ele>
        <time>2021-03-04T12:59:09.000Z</time>
      </trkpt>
      <trkpt lat="43.72036" lon="7.03428">
        <ele>851.40002441406</ele>
        <time>2021-03-04T12:59:10.000Z</time>
      </trkpt>
      <trkpt lat="43.72037" lon="7.0344">
        <ele>850.20001220703</ele>
        <time>2021-03-04T12:59:11.000Z</time>
      </trkpt>
      <trkpt lat="43.72038" lon="7.03452">
        <ele>849.20001220703</ele>
        <time>2021-03-04T12:59:12.000Z</time>
      </trkpt>
      <trkpt lat="43.72039" lon="7.03464">
        <ele>848.59997558594</ele>
        <time>2021-03-04T12:59:13.000Z</time>
      </trkpt>
      <trkpt lat="43.72042" lon="7.03485">
        <ele>847.59997558594</ele>
        <time>2021-03-04T12:59:15.000Z</time>
      </trkpt>
      <trkpt lat="43.72044" lon="7.03495">
        <ele>847</ele>
        <time>2021-03-04T12:59:16.000Z</time>
      </trkpt>
      <trkpt lat="43.72058" lon="7.03517">
        <ele>845.79998779297</ele>
        <time>2021-03-04T12:59:19.000Z</time>
      </trkpt>
      <trkpt lat="43.72064" lon="7.03524">
        <ele>845.59997558594</ele>
        <time>2021-03-04T12:59:20.000Z</time>
      </trkpt>
      <trkpt lat="43.72079" lon="7.03541">
        <ele>844.79998779297</ele>
        <time>2021-03-04T12:59:23.000Z</time>
      </trkpt>
      <trkpt lat="43.72088" lon="7.03553">
        <ele>844.79998779297</ele>
        <time>2021-03-04T12:59:25.000Z</time>
      </trkpt>
      <trkpt lat="43.72114" lon="7.03587">
        <ele>844.79998779297</ele>
        <time>2021-03-04T12:59:31.000Z</time>
      </trkpt>
      <trkpt lat="43.72127" lon="7.03606">
        <ele>843.59997558594</ele>
        <time>2021-03-04T12:59:34.000Z</time>
      </trkpt>
      <trkpt lat="43.72131" lon="7.03612">
        <ele>842.40002441406</ele>
        <time>2021-03-04T12:59:35.000Z</time>
      </trkpt>
      <trkpt lat="43.72134" lon="7.03616">
        <ele>841.59997558594</ele>
        <time>2021-03-04T12:59:36.000Z</time>
      </trkpt>
      <trkpt lat="43.72137" lon="7.03621">
        <ele>840.79998779297</ele>
        <time>2021-03-04T12:59:37.000Z</time>
      </trkpt>
      <trkpt lat="43.72143" lon="7.0363">
        <ele>839.79998779297</ele>
        <time>2021-03-04T12:59:39.000Z</time>
      </trkpt>
      <trkpt lat="43.72147" lon="7.03637">
        <ele>839.40002441406</ele>
        <time>2021-03-04T12:59:40.000Z</time>
      </trkpt>
      <trkpt lat="43.72151" lon="7.03644">
        <ele>839</ele>
        <time>2021-03-04T12:59:41.000Z</time>
      </trkpt>
      <trkpt lat="43.72153" lon="7.03652">
        <ele>838.59997558594</ele>
        <time>2021-03-04T12:59:42.000Z</time>
      </trkpt>
      <trkpt lat="43.72155" lon="7.03668">
        <ele>837</ele>
        <time>2021-03-04T12:59:44.000Z</time>
      </trkpt>
      <trkpt lat="43.72152" lon="7.03683">
        <ele>836</ele>
        <time>2021-03-04T12:59:46.000Z</time>
      </trkpt>
      <trkpt lat="43.7215" lon="7.0369">
        <ele>835.79998779297</ele>
        <time>2021-03-04T12:59:47.000Z</time>
      </trkpt>
      <trkpt lat="43.72145" lon="7.03703">
        <ele>835.79998779297</ele>
        <time>2021-03-04T12:59:49.000Z</time>
      </trkpt>
      <trkpt lat="43.72142" lon="7.0371">
        <ele>835.79998779297</ele>
        <time>2021-03-04T12:59:50.000Z</time>
      </trkpt>
      <trkpt lat="43.72136" lon="7.03724">
        <ele>835.79998779297</ele>
        <time>2021-03-04T12:59:52.000Z</time>
      </trkpt>
      <trkpt lat="43.72134" lon="7.03732">
        <ele>835.59997558594</ele>
        <time>2021-03-04T12:59:53.000Z</time>
      </trkpt>
      <trkpt lat="43.7213" lon="7.0376">
        <ele>834.59997558594</ele>
        <time>2021-03-04T12:59:56.000Z</time>
      </trkpt>
      <trkpt lat="43.72128" lon="7.03779">
        <ele>834</ele>
        <time>2021-03-04T12:59:58.000Z</time>
      </trkpt>
      <trkpt lat="43.72127" lon="7.03787">
        <ele>833.59997558594</ele>
        <time>2021-03-04T12:59:59.000Z</time>
      </trkpt>
      <trkpt lat="43.72125" lon="7.03802">
        <ele>833.79998779297</ele>
        <time>2021-03-04T13:00:01.000Z</time>
      </trkpt>
      <trkpt lat="43.72125" lon="7.03808">
        <ele>834</ele>
        <time>2021-03-04T13:00:02.000Z</time>
      </trkpt>
      <trkpt lat="43.72125" lon="7.0382">
        <ele>835.20001220703</ele>
        <time>2021-03-04T13:00:04.000Z</time>
      </trkpt>
      <trkpt lat="43.72127" lon="7.03832">
        <ele>836.20001220703</ele>
        <time>2021-03-04T13:00:06.000Z</time>
      </trkpt>
      <trkpt lat="43.72128" lon="7.03838">
        <ele>836.79998779297</ele>
        <time>2021-03-04T13:00:07.000Z</time>
      </trkpt>
      <trkpt lat="43.72129" lon="7.03844">
        <ele>837.40002441406</ele>
        <time>2021-03-04T13:00:08.000Z</time>
      </trkpt>
      <trkpt lat="43.72134" lon="7.03863">
        <ele>837.79998779297</ele>
        <time>2021-03-04T13:00:11.000Z</time>
      </trkpt>
      <trkpt lat="43.72136" lon="7.03869">
        <ele>838</ele>
        <time>2021-03-04T13:00:12.000Z</time>
      </trkpt>
      <trkpt lat="43.72148" lon="7.03897">
        <ele>838.40002441406</ele>
        <time>2021-03-04T13:00:17.000Z</time>
      </trkpt>
      <trkpt lat="43.72153" lon="7.03907">
        <ele>838.59997558594</ele>
        <time>2021-03-04T13:00:19.000Z</time>
      </trkpt>
      <trkpt lat="43.72167" lon="7.03928">
        <ele>839.20001220703</ele>
        <time>2021-03-04T13:00:23.000Z</time>
      </trkpt>
      <trkpt lat="43.72174" lon="7.03935">
        <ele>839.40002441406</ele>
        <time>2021-03-04T13:00:25.000Z</time>
      </trkpt>
      <trkpt lat="43.72178" lon="7.03939">
        <ele>839.59997558594</ele>
        <time>2021-03-04T13:00:26.000Z</time>
      </trkpt>
      <trkpt lat="43.72198" lon="7.03955">
        <ele>840.79998779297</ele>
        <time>2021-03-04T13:00:31.000Z</time>
      </trkpt>
      <trkpt lat="43.72206" lon="7.0396">
        <ele>841.20001220703</ele>
        <time>2021-03-04T13:00:33.000Z</time>
      </trkpt>
      <trkpt lat="43.72235" lon="7.03976">
        <ele>841.59997558594</ele>
        <time>2021-03-04T13:00:40.000Z</time>
      </trkpt>
      <trkpt lat="43.72238" lon="7.03977">
        <ele>841.79998779297</ele>
        <time>2021-03-04T13:00:41.000Z</time>
      </trkpt>
      <trkpt lat="43.72264" lon="7.03985">
        <ele>842.59997558594</ele>
        <time>2021-03-04T13:00:47.000Z</time>
      </trkpt>
      <trkpt lat="43.72296" lon="7.03994">
        <ele>842.20001220703</ele>
        <time>2021-03-04T13:00:54.000Z</time>
      </trkpt>
      <trkpt lat="43.72326" lon="7.03997">
        <ele>842.79998779297</ele>
        <time>2021-03-04T13:01:00.000Z</time>
      </trkpt>
      <trkpt lat="43.72332" lon="7.03997">
        <ele>843</ele>
        <time>2021-03-04T13:01:01.000Z</time>
      </trkpt>
      <trkpt lat="43.72343" lon="7.03994">
        <ele>842.59997558594</ele>
        <time>2021-03-04T13:01:03.000Z</time>
      </trkpt>
      <trkpt lat="43.72353" lon="7.03988">
        <ele>841.79998779297</ele>
        <time>2021-03-04T13:01:05.000Z</time>
      </trkpt>
      <trkpt lat="43.72374" lon="7.0397">
        <ele>840.79998779297</ele>
        <time>2021-03-04T13:01:09.000Z</time>
      </trkpt>
      <trkpt lat="43.72379" lon="7.03965">
        <ele>840.40002441406</ele>
        <time>2021-03-04T13:01:10.000Z</time>
      </trkpt>
      <trkpt lat="43.72389" lon="7.03956">
        <ele>839.40002441406</ele>
        <time>2021-03-04T13:01:12.000Z</time>
      </trkpt>
      <trkpt lat="43.72401" lon="7.03945">
        <ele>838.59997558594</ele>
        <time>2021-03-04T13:01:15.000Z</time>
      </trkpt>
      <trkpt lat="43.72406" lon="7.03944">
        <ele>838.40002441406</ele>
        <time>2021-03-04T13:01:16.000Z</time>
      </trkpt>
      <trkpt lat="43.72416" lon="7.0395">
        <ele>838</ele>
        <time>2021-03-04T13:01:18.000Z</time>
      </trkpt>
      <trkpt lat="43.7242" lon="7.03962">
        <ele>838</ele>
        <time>2021-03-04T13:01:20.000Z</time>
      </trkpt>
      <trkpt lat="43.72422" lon="7.03969">
        <ele>838</ele>
        <time>2021-03-04T13:01:21.000Z</time>
      </trkpt>
      <trkpt lat="43.72426" lon="7.03978">
        <ele>838.20001220703</ele>
        <time>2021-03-04T13:01:22.000Z</time>
      </trkpt>
      <trkpt lat="43.72436" lon="7.03996">
        <ele>837.40002441406</ele>
        <time>2021-03-04T13:01:25.000Z</time>
      </trkpt>
      <trkpt lat="43.72456" lon="7.04022">
        <ele>837.59997558594</ele>
        <time>2021-03-04T13:01:30.000Z</time>
      </trkpt>
      <trkpt lat="43.72461" lon="7.04026">
        <ele>837.79998779297</ele>
        <time>2021-03-04T13:01:31.000Z</time>
      </trkpt>
      <trkpt lat="43.72474" lon="7.04032">
        <ele>838.20001220703</ele>
        <time>2021-03-04T13:01:34.000Z</time>
      </trkpt>
      <trkpt lat="43.72479" lon="7.04033">
        <ele>838.59997558594</ele>
        <time>2021-03-04T13:01:35.000Z</time>
      </trkpt>
      <trkpt lat="43.72482" lon="7.04034">
        <ele>839</ele>
        <time>2021-03-04T13:01:36.000Z</time>
      </trkpt>
      <trkpt lat="43.72489" lon="7.04036">
        <ele>840</ele>
        <time>2021-03-04T13:01:38.000Z</time>
      </trkpt>
      <trkpt lat="43.72497" lon="7.04039">
        <ele>841</ele>
        <time>2021-03-04T13:01:40.000Z</time>
      </trkpt>
      <trkpt lat="43.72505" lon="7.04042">
        <ele>841.59997558594</ele>
        <time>2021-03-04T13:01:42.000Z</time>
      </trkpt>
      <trkpt lat="43.7251" lon="7.04044">
        <ele>841.79998779297</ele>
        <time>2021-03-04T13:01:43.000Z</time>
      </trkpt>
      <trkpt lat="43.7254" lon="7.04065">
        <ele>841.40002441406</ele>
        <time>2021-03-04T13:01:50.000Z</time>
      </trkpt>
      <trkpt lat="43.72567" lon="7.04074">
        <ele>841.20001220703</ele>
        <time>2021-03-04T13:01:55.000Z</time>
      </trkpt>
      <trkpt lat="43.72573" lon="7.04075">
        <ele>841</ele>
        <time>2021-03-04T13:01:56.000Z</time>
      </trkpt>
      <trkpt lat="43.72589" lon="7.04079">
        <ele>839.79998779297</ele>
        <time>2021-03-04T13:01:59.000Z</time>
      </trkpt>
      <trkpt lat="43.72594" lon="7.04083">
        <ele>839.20001220703</ele>
        <time>2021-03-04T13:02:00.000Z</time>
      </trkpt>
      <trkpt lat="43.72598" lon="7.04088">
        <ele>838.59997558594</ele>
        <time>2021-03-04T13:02:01.000Z</time>
      </trkpt>
      <trkpt lat="43.72602" lon="7.04092">
        <ele>838.20001220703</ele>
        <time>2021-03-04T13:02:02.000Z</time>
      </trkpt>
      <trkpt lat="43.72616" lon="7.04099">
        <ele>838.20001220703</ele>
        <time>2021-03-04T13:02:05.000Z</time>
      </trkpt>
      <trkpt lat="43.72634" lon="7.04101">
        <ele>839.59997558594</ele>
        <time>2021-03-04T13:02:09.000Z</time>
      </trkpt>
      <trkpt lat="43.72638" lon="7.04102">
        <ele>840.20001220703</ele>
        <time>2021-03-04T13:02:10.000Z</time>
      </trkpt>
      <trkpt lat="43.72651" lon="7.04108">
        <ele>841.40002441406</ele>
        <time>2021-03-04T13:02:13.000Z</time>
      </trkpt>
      <trkpt lat="43.72661" lon="7.04114">
        <ele>841.20001220703</ele>
        <time>2021-03-04T13:02:15.000Z</time>
      </trkpt>
      <trkpt lat="43.72691" lon="7.04134">
        <ele>841.20001220703</ele>
        <time>2021-03-04T13:02:22.000Z</time>
      </trkpt>
      <trkpt lat="43.72703" lon="7.0414">
        <ele>842.40002441406</ele>
        <time>2021-03-04T13:02:25.000Z</time>
      </trkpt>
      <trkpt lat="43.72714" lon="7.04141">
        <ele>843.59997558594</ele>
        <time>2021-03-04T13:02:28.000Z</time>
      </trkpt>
      <trkpt lat="43.72742" lon="7.04141">
        <ele>844.79998779297</ele>
        <time>2021-03-04T13:02:35.000Z</time>
      </trkpt>
      <trkpt lat="43.72766" lon="7.04136">
        <ele>845.40002441406</ele>
        <time>2021-03-04T13:02:41.000Z</time>
      </trkpt>
      <trkpt lat="43.72773" lon="7.04133">
        <ele>846.20001220703</ele>
        <time>2021-03-04T13:02:43.000Z</time>
      </trkpt>
      <trkpt lat="43.7279" lon="7.04124">
        <ele>847.40002441406</ele>
        <time>2021-03-04T13:02:48.000Z</time>
      </trkpt>
      <trkpt lat="43.72812" lon="7.04118">
        <ele>848.20001220703</ele>
        <time>2021-03-04T13:02:54.000Z</time>
      </trkpt>
      <trkpt lat="43.72816" lon="7.04119">
        <ele>848.40002441406</ele>
        <time>2021-03-04T13:02:55.000Z</time>
      </trkpt>
      <trkpt lat="43.72831" lon="7.04125">
        <ele>849</ele>
        <time>2021-03-04T13:02:59.000Z</time>
      </trkpt>
      <trkpt lat="43.72839" lon="7.04127">
        <ele>849.79998779297</ele>
        <time>2021-03-04T13:03:01.000Z</time>
      </trkpt>
      <trkpt lat="43.72849" lon="7.0413">
        <ele>851.20001220703</ele>
        <time>2021-03-04T13:03:04.000Z</time>
      </trkpt>
      <trkpt lat="43.72855" lon="7.04132">
        <ele>852.20001220703</ele>
        <time>2021-03-04T13:03:06.000Z</time>
      </trkpt>
      <trkpt lat="43.72862" lon="7.04133">
        <ele>853.40002441406</ele>
        <time>2021-03-04T13:03:08.000Z</time>
      </trkpt>
      <trkpt lat="43.72873" lon="7.04134">
        <ele>854.79998779297</ele>
        <time>2021-03-04T13:03:11.000Z</time>
      </trkpt>
      <trkpt lat="43.72888" lon="7.04133">
        <ele>855.79998779297</ele>
        <time>2021-03-04T13:03:15.000Z</time>
      </trkpt>
      <trkpt lat="43.72892" lon="7.04133">
        <ele>856</ele>
        <time>2021-03-04T13:03:16.000Z</time>
      </trkpt>
      <trkpt lat="43.72917" lon="7.04134">
        <ele>855.59997558594</ele>
        <time>2021-03-04T13:03:21.000Z</time>
      </trkpt>
      <trkpt lat="43.7293" lon="7.04135">
        <ele>854.59997558594</ele>
        <time>2021-03-04T13:03:23.000Z</time>
      </trkpt>
      <trkpt lat="43.72943" lon="7.04139">
        <ele>853.59997558594</ele>
        <time>2021-03-04T13:03:25.000Z</time>
      </trkpt>
      <trkpt lat="43.72948" lon="7.04142">
        <ele>853.20001220703</ele>
        <time>2021-03-04T13:03:26.000Z</time>
      </trkpt>
      <trkpt lat="43.72954" lon="7.04152">
        <ele>852.40002441406</ele>
        <time>2021-03-04T13:03:28.000Z</time>
      </trkpt>
      <trkpt lat="43.72955" lon="7.04157">
        <ele>852.40002441406</ele>
        <time>2021-03-04T13:03:29.000Z</time>
      </trkpt>
      <trkpt lat="43.72955" lon="7.0417">
        <ele>853.59997558594</ele>
        <time>2021-03-04T13:03:32.000Z</time>
      </trkpt>
      <trkpt lat="43.72955" lon="7.04174">
        <ele>854.59997558594</ele>
        <time>2021-03-04T13:03:33.000Z</time>
      </trkpt>
      <trkpt lat="43.72954" lon="7.04177">
        <ele>855.20001220703</ele>
        <time>2021-03-04T13:03:34.000Z</time>
      </trkpt>
      <trkpt lat="43.72952" lon="7.04183">
        <ele>856.20001220703</ele>
        <time>2021-03-04T13:03:36.000Z</time>
      </trkpt>
      <trkpt lat="43.7295" lon="7.04191">
        <ele>857.20001220703</ele>
        <time>2021-03-04T13:03:38.000Z</time>
      </trkpt>
      <trkpt lat="43.72947" lon="7.04203">
        <ele>858.59997558594</ele>
        <time>2021-03-04T13:03:41.000Z</time>
      </trkpt>
      <trkpt lat="43.72947" lon="7.04212">
        <ele>859.59997558594</ele>
        <time>2021-03-04T13:03:43.000Z</time>
      </trkpt>
      <trkpt lat="43.72946" lon="7.04227">
        <ele>861</ele>
        <time>2021-03-04T13:03:46.000Z</time>
      </trkpt>
      <trkpt lat="43.72947" lon="7.04234">
        <ele>861.20001220703</ele>
        <time>2021-03-04T13:03:47.000Z</time>
      </trkpt>
      <trkpt lat="43.72945" lon="7.04282">
        <ele>861</ele>
        <time>2021-03-04T13:03:54.000Z</time>
      </trkpt>
      <trkpt lat="43.72943" lon="7.0433">
        <ele>862</ele>
        <time>2021-03-04T13:04:01.000Z</time>
      </trkpt>
      <trkpt lat="43.72943" lon="7.04356">
        <ele>863.40002441406</ele>
        <time>2021-03-04T13:04:05.000Z</time>
      </trkpt>
      <trkpt lat="43.72944" lon="7.04375">
        <ele>864.20001220703</ele>
        <time>2021-03-04T13:04:08.000Z</time>
      </trkpt>
      <trkpt lat="43.72943" lon="7.0438">
        <ele>864.59997558594</ele>
        <time>2021-03-04T13:04:09.000Z</time>
      </trkpt>
      <trkpt lat="43.72943" lon="7.044">
        <ele>865.79998779297</ele>
        <time>2021-03-04T13:04:12.000Z</time>
      </trkpt>
      <trkpt lat="43.72942" lon="7.04418">
        <ele>866.59997558594</ele>
        <time>2021-03-04T13:04:15.000Z</time>
      </trkpt>
      <trkpt lat="43.72943" lon="7.04423">
        <ele>866.79998779297</ele>
        <time>2021-03-04T13:04:16.000Z</time>
      </trkpt>
      <trkpt lat="43.72943" lon="7.04433">
        <ele>867.79998779297</ele>
        <time>2021-03-04T13:04:18.000Z</time>
      </trkpt>
      <trkpt lat="43.72943" lon="7.04443">
        <ele>868.59997558594</ele>
        <time>2021-03-04T13:04:20.000Z</time>
      </trkpt>
      <trkpt lat="43.72942" lon="7.04449">
        <ele>869</ele>
        <time>2021-03-04T13:04:21.000Z</time>
      </trkpt>
      <trkpt lat="43.72934" lon="7.04488">
        <ele>868.59997558594</ele>
        <time>2021-03-04T13:04:27.000Z</time>
      </trkpt>
      <trkpt lat="43.72934" lon="7.04494">
        <ele>868.59997558594</ele>
        <time>2021-03-04T13:04:28.000Z</time>
      </trkpt>
      <trkpt lat="43.72933" lon="7.04517">
        <ele>869.40002441406</ele>
        <time>2021-03-04T13:04:32.000Z</time>
      </trkpt>
      <trkpt lat="43.72934" lon="7.04521">
        <ele>869.59997558594</ele>
        <time>2021-03-04T13:04:33.000Z</time>
      </trkpt>
      <trkpt lat="43.72939" lon="7.04529">
        <ele>870.20001220703</ele>
        <time>2021-03-04T13:04:35.000Z</time>
      </trkpt>
      <trkpt lat="43.72944" lon="7.04536">
        <ele>870.59997558594</ele>
        <time>2021-03-04T13:04:37.000Z</time>
      </trkpt>
      <trkpt lat="43.72948" lon="7.04538">
        <ele>870.79998779297</ele>
        <time>2021-03-04T13:04:38.000Z</time>
      </trkpt>
      <trkpt lat="43.72954" lon="7.04545">
        <ele>871</ele>
        <time>2021-03-04T13:04:40.000Z</time>
      </trkpt>
      <trkpt lat="43.72961" lon="7.04551">
        <ele>871</ele>
        <time>2021-03-04T13:04:42.000Z</time>
      </trkpt>
      <trkpt lat="43.72979" lon="7.04569">
        <ele>870.40002441406</ele>
        <time>2021-03-04T13:04:46.000Z</time>
      </trkpt>
      <trkpt lat="43.72996" lon="7.04584">
        <ele>868.79998779297</ele>
        <time>2021-03-04T13:04:49.000Z</time>
      </trkpt>
      <trkpt lat="43.73008" lon="7.04595">
        <ele>867.59997558594</ele>
        <time>2021-03-04T13:04:51.000Z</time>
      </trkpt>
      <trkpt lat="43.73014" lon="7.04601">
        <ele>867</ele>
        <time>2021-03-04T13:04:52.000Z</time>
      </trkpt>
      <trkpt lat="43.73026" lon="7.04613">
        <ele>866</ele>
        <time>2021-03-04T13:04:54.000Z</time>
      </trkpt>
      <trkpt lat="43.73042" lon="7.04632">
        <ele>864.59997558594</ele>
        <time>2021-03-04T13:04:57.000Z</time>
      </trkpt>
      <trkpt lat="43.73052" lon="7.04645">
        <ele>863.40002441406</ele>
        <time>2021-03-04T13:04:59.000Z</time>
      </trkpt>
      <trkpt lat="43.73077" lon="7.04678">
        <ele>862.59997558594</ele>
        <time>2021-03-04T13:05:05.000Z</time>
      </trkpt>
      <trkpt lat="43.73085" lon="7.04689">
        <ele>862.40002441406</ele>
        <time>2021-03-04T13:05:07.000Z</time>
      </trkpt>
      <trkpt lat="43.73109" lon="7.04719">
        <ele>861.40002441406</ele>
        <time>2021-03-04T13:05:12.000Z</time>
      </trkpt>
      <trkpt lat="43.73118" lon="7.04729">
        <ele>860.40002441406</ele>
        <time>2021-03-04T13:05:14.000Z</time>
      </trkpt>
      <trkpt lat="43.73122" lon="7.04734">
        <ele>860</ele>
        <time>2021-03-04T13:05:15.000Z</time>
      </trkpt>
      <trkpt lat="43.73131" lon="7.0474">
        <ele>859.20001220703</ele>
        <time>2021-03-04T13:05:17.000Z</time>
      </trkpt>
      <trkpt lat="43.7316" lon="7.0475">
        <ele>858.59997558594</ele>
        <time>2021-03-04T13:05:24.000Z</time>
      </trkpt>
      <trkpt lat="43.73186" lon="7.04754">
        <ele>857.79998779297</ele>
        <time>2021-03-04T13:05:30.000Z</time>
      </trkpt>
      <trkpt lat="43.73191" lon="7.04756">
        <ele>857.79998779297</ele>
        <time>2021-03-04T13:05:31.000Z</time>
      </trkpt>
      <trkpt lat="43.73201" lon="7.04761">
        <ele>857.40002441406</ele>
        <time>2021-03-04T13:05:33.000Z</time>
      </trkpt>
      <trkpt lat="43.73216" lon="7.04769">
        <ele>856.79998779297</ele>
        <time>2021-03-04T13:05:36.000Z</time>
      </trkpt>
      <trkpt lat="43.73226" lon="7.04773">
        <ele>856.59997558594</ele>
        <time>2021-03-04T13:05:38.000Z</time>
      </trkpt>
      <trkpt lat="43.73248" lon="7.04788">
        <ele>856.79998779297</ele>
        <time>2021-03-04T13:05:43.000Z</time>
      </trkpt>
      <trkpt lat="43.73251" lon="7.04792">
        <ele>856.79998779297</ele>
        <time>2021-03-04T13:05:44.000Z</time>
      </trkpt>
      <trkpt lat="43.73258" lon="7.04815">
        <ele>857.79998779297</ele>
        <time>2021-03-04T13:05:48.000Z</time>
      </trkpt>
      <trkpt lat="43.73259" lon="7.04821">
        <ele>858</ele>
        <time>2021-03-04T13:05:49.000Z</time>
      </trkpt>
      <trkpt lat="43.73272" lon="7.04861">
        <ele>857.59997558594</ele>
        <time>2021-03-04T13:05:55.000Z</time>
      </trkpt>
      <trkpt lat="43.73289" lon="7.04909">
        <ele>857</ele>
        <time>2021-03-04T13:06:02.000Z</time>
      </trkpt>
      <trkpt lat="43.73291" lon="7.04916">
        <ele>856.79998779297</ele>
        <time>2021-03-04T13:06:03.000Z</time>
      </trkpt>
      <trkpt lat="43.73307" lon="7.04947">
        <ele>856.40002441406</ele>
        <time>2021-03-04T13:06:08.000Z</time>
      </trkpt>
      <trkpt lat="43.73321" lon="7.04959">
        <ele>855.59997558594</ele>
        <time>2021-03-04T13:06:11.000Z</time>
      </trkpt>
      <trkpt lat="43.73332" lon="7.04968">
        <ele>855.40002441406</ele>
        <time>2021-03-04T13:06:14.000Z</time>
      </trkpt>
      <trkpt lat="43.73346" lon="7.04984">
        <ele>854.79998779297</ele>
        <time>2021-03-04T13:06:19.000Z</time>
      </trkpt>
      <trkpt lat="43.73351" lon="7.04989">
        <ele>854.20001220703</ele>
        <time>2021-03-04T13:06:21.000Z</time>
      </trkpt>
      <trkpt lat="43.73359" lon="7.04994">
        <ele>853.40002441406</ele>
        <time>2021-03-04T13:06:24.000Z</time>
      </trkpt>
      <trkpt lat="43.73363" lon="7.04997">
        <ele>853</ele>
        <time>2021-03-04T13:06:25.000Z</time>
      </trkpt>
      <trkpt lat="43.7337" lon="7.05003">
        <ele>852.40002441406</ele>
        <time>2021-03-04T13:06:27.000Z</time>
      </trkpt>
      <trkpt lat="43.73375" lon="7.05006">
        <ele>851.79998779297</ele>
        <time>2021-03-04T13:06:28.000Z</time>
      </trkpt>
      <trkpt lat="43.73387" lon="7.05014">
        <ele>850.20001220703</ele>
        <time>2021-03-04T13:06:30.000Z</time>
      </trkpt>
      <trkpt lat="43.73398" lon="7.05026">
        <ele>848.79998779297</ele>
        <time>2021-03-04T13:06:32.000Z</time>
      </trkpt>
      <trkpt lat="43.73403" lon="7.05032">
        <ele>847.40002441406</ele>
        <time>2021-03-04T13:06:33.000Z</time>
      </trkpt>
      <trkpt lat="43.73407" lon="7.05038">
        <ele>846</ele>
        <time>2021-03-04T13:06:34.000Z</time>
      </trkpt>
      <trkpt lat="43.73415" lon="7.05051">
        <ele>844.20001220703</ele>
        <time>2021-03-04T13:06:36.000Z</time>
      </trkpt>
      <trkpt lat="43.73416" lon="7.05063">
        <ele>843.20001220703</ele>
        <time>2021-03-04T13:06:38.000Z</time>
      </trkpt>
      <trkpt lat="43.7342" lon="7.05101">
        <ele>843</ele>
        <time>2021-03-04T13:06:43.000Z</time>
      </trkpt>
      <trkpt lat="43.73426" lon="7.05143">
        <ele>842</ele>
        <time>2021-03-04T13:06:48.000Z</time>
      </trkpt>
      <trkpt lat="43.73427" lon="7.0515">
        <ele>842</ele>
        <time>2021-03-04T13:06:49.000Z</time>
      </trkpt>
      <trkpt lat="43.73433" lon="7.05192">
        <ele>843.20001220703</ele>
        <time>2021-03-04T13:06:55.000Z</time>
      </trkpt>
      <trkpt lat="43.73435" lon="7.05204">
        <ele>844.20001220703</ele>
        <time>2021-03-04T13:06:57.000Z</time>
      </trkpt>
      <trkpt lat="43.7344" lon="7.05235">
        <ele>845</ele>
        <time>2021-03-04T13:07:01.000Z</time>
      </trkpt>
      <trkpt lat="43.73442" lon="7.05242">
        <ele>844.79998779297</ele>
        <time>2021-03-04T13:07:02.000Z</time>
      </trkpt>
      <trkpt lat="43.73448" lon="7.0526">
        <ele>844</ele>
        <time>2021-03-04T13:07:05.000Z</time>
      </trkpt>
      <trkpt lat="43.7345" lon="7.05267">
        <ele>844</ele>
        <time>2021-03-04T13:07:06.000Z</time>
      </trkpt>
      <trkpt lat="43.73457" lon="7.05294">
        <ele>844.40002441406</ele>
        <time>2021-03-04T13:07:10.000Z</time>
      </trkpt>
      <trkpt lat="43.73461" lon="7.05323">
        <ele>845.59997558594</ele>
        <time>2021-03-04T13:07:15.000Z</time>
      </trkpt>
      <trkpt lat="43.73461" lon="7.05328">
        <ele>846.20001220703</ele>
        <time>2021-03-04T13:07:16.000Z</time>
      </trkpt>
      <trkpt lat="43.73462" lon="7.05333">
        <ele>846.79998779297</ele>
        <time>2021-03-04T13:07:17.000Z</time>
      </trkpt>
      <trkpt lat="43.73463" lon="7.05343">
        <ele>848.40002441406</ele>
        <time>2021-03-04T13:07:19.000Z</time>
      </trkpt>
      <trkpt lat="43.73466" lon="7.0536">
        <ele>849.59997558594</ele>
        <time>2021-03-04T13:07:22.000Z</time>
      </trkpt>
      <trkpt lat="43.73467" lon="7.05366">
        <ele>849.79998779297</ele>
        <time>2021-03-04T13:07:23.000Z</time>
      </trkpt>
      <trkpt lat="43.73469" lon="7.05392">
        <ele>849.20001220703</ele>
        <time>2021-03-04T13:07:27.000Z</time>
      </trkpt>
      <trkpt lat="43.73471" lon="7.05398">
        <ele>848.79998779297</ele>
        <time>2021-03-04T13:07:28.000Z</time>
      </trkpt>
      <trkpt lat="43.73474" lon="7.05409">
        <ele>848</ele>
        <time>2021-03-04T13:07:30.000Z</time>
      </trkpt>
      <trkpt lat="43.73477" lon="7.05424">
        <ele>846.79998779297</ele>
        <time>2021-03-04T13:07:33.000Z</time>
      </trkpt>
      <trkpt lat="43.73479" lon="7.0543">
        <ele>845.59997558594</ele>
        <time>2021-03-04T13:07:35.000Z</time>
      </trkpt>
      <trkpt lat="43.73479" lon="7.05431">
        <ele>844.59997558594</ele>
        <time>2021-03-04T13:07:37.000Z</time>
      </trkpt>
      <trkpt lat="43.73479" lon="7.05432">
        <ele>844.40002441406</ele>
        <time>2021-03-04T13:07:38.000Z</time>
      </trkpt>
      <trkpt lat="43.73479" lon="7.05435">
        <ele>844.20001220703</ele>
        <time>2021-03-04T13:07:43.000Z</time>
      </trkpt>
      <trkpt lat="43.73479" lon="7.05439">
        <ele>844.20001220703</ele>
        <time>2021-03-04T13:07:46.000Z</time>
      </trkpt>
      <trkpt lat="43.73481" lon="7.05442">
        <ele>843.79998779297</ele>
        <time>2021-03-04T13:07:49.000Z</time>
      </trkpt>
      <trkpt lat="43.73485" lon="7.05443">
        <ele>844</ele>
        <time>2021-03-04T13:07:55.000Z</time>
      </trkpt>
      <trkpt lat="43.73484" lon="7.05442">
        <ele>844.40002441406</ele>
        <time>2021-03-04T13:08:02.000Z</time>
      </trkpt>
      <trkpt lat="43.73484" lon="7.05439">
        <ele>844.20001220703</ele>
        <time>2021-03-04T13:08:07.000Z</time>
      </trkpt>
      <trkpt lat="43.73484" lon="7.05438">
        <ele>844.20001220703</ele>
        <time>2021-03-04T13:08:08.000Z</time>
      </trkpt>
      <trkpt lat="43.73487" lon="7.05441">
        <ele>844.20001220703</ele>
        <time>2021-03-04T13:08:14.000Z</time>
      </trkpt>
      <trkpt lat="43.73486" lon="7.05441">
        <ele>843.79998779297</ele>
        <time>2021-03-04T13:08:25.000Z</time>
      </trkpt>
      <trkpt lat="43.73486" lon="7.05441">
        <ele>843.40002441406</ele>
        <time>2021-03-04T13:08:35.000Z</time>
      </trkpt>
      <trkpt lat="43.73486" lon="7.05441">
        <ele>843.40002441406</ele>
        <time>2021-03-04T13:08:38.000Z</time>
      </trkpt>
      <trkpt lat="43.73486" lon="7.05442">
        <ele>843.20001220703</ele>
        <time>2021-03-04T13:09:16.000Z</time>
      </trkpt>
      <trkpt lat="43.73485" lon="7.05442">
        <ele>843.20001220703</ele>
        <time>2021-03-04T13:09:49.000Z</time>
      </trkpt>
      <trkpt lat="43.73485" lon="7.05442">
        <ele>843.20001220703</ele>
        <time>2021-03-04T13:10:22.000Z</time>
      </trkpt>
      <trkpt lat="43.73484" lon="7.05441">
        <ele>843.20001220703</ele>
        <time>2021-03-04T13:10:48.000Z</time>
      </trkpt>
      <trkpt lat="43.73486" lon="7.05441">
        <ele>843.59997558594</ele>
        <time>2021-03-04T13:10:58.000Z</time>
      </trkpt>
      <trkpt lat="43.73487" lon="7.0544">
        <ele>843.59997558594</ele>
        <time>2021-03-04T13:11:11.000Z</time>
      </trkpt>
      <trkpt lat="43.73487" lon="7.0544">
        <ele>843.59997558594</ele>
        <time>2021-03-04T13:11:23.000Z</time>
      </trkpt>
      <trkpt lat="43.73489" lon="7.05441">
        <ele>843.40002441406</ele>
        <time>2021-03-04T13:11:40.000Z</time>
      </trkpt>
      <trkpt lat="43.73489" lon="7.05441">
        <ele>843.40002441406</ele>
        <time>2021-03-04T13:11:52.000Z</time>
      </trkpt>
      <trkpt lat="43.73489" lon="7.05441">
        <ele>843.40002441406</ele>
        <time>2021-03-04T13:12:06.000Z</time>
      </trkpt>
      <trkpt lat="43.73489" lon="7.05441">
        <ele>843.40002441406</ele>
        <time>2021-03-04T13:12:21.000Z</time>
      </trkpt>
      <trkpt lat="43.73495" lon="7.0544">
        <ele>843.40002441406</ele>
        <time>2021-03-04T13:12:36.000Z</time>
      </trkpt>
      <trkpt lat="43.73495" lon="7.05439">
        <ele>843.40002441406</ele>
        <time>2021-03-04T13:12:49.000Z</time>
      </trkpt>
      <trkpt lat="43.73496" lon="7.05439">
        <ele>843.40002441406</ele>
        <time>2021-03-04T13:13:01.000Z</time>
      </trkpt>
      <trkpt lat="43.73498" lon="7.05439">
        <ele>843.40002441406</ele>
        <time>2021-03-04T13:13:24.000Z</time>
      </trkpt>
      <trkpt lat="43.73497" lon="7.05439">
        <ele>843.40002441406</ele>
        <time>2021-03-04T13:13:48.000Z</time>
      </trkpt>
      <trkpt lat="43.73495" lon="7.05439">
        <ele>843.40002441406</ele>
        <time>2021-03-04T13:14:02.000Z</time>
      </trkpt>
      <trkpt lat="43.73494" lon="7.05438">
        <ele>843.79998779297</ele>
        <time>2021-03-04T13:14:13.000Z</time>
      </trkpt>
      <trkpt lat="43.73494" lon="7.05438">
        <ele>843.79998779297</ele>
        <time>2021-03-04T13:14:14.000Z</time>
      </trkpt>
      <trkpt lat="43.73494" lon="7.05438">
        <ele>844.20001220703</ele>
        <time>2021-03-04T13:14:22.000Z</time>
      </trkpt>
      <trkpt lat="43.73492" lon="7.05439">
        <ele>843.59997558594</ele>
        <time>2021-03-04T13:14:28.000Z</time>
      </trkpt>
      <trkpt lat="43.7349" lon="7.05441">
        <ele>843.79998779297</ele>
        <time>2021-03-04T13:14:36.000Z</time>
      </trkpt>
      <trkpt lat="43.73488" lon="7.05442">
        <ele>843.59997558594</ele>
        <time>2021-03-04T13:14:42.000Z</time>
      </trkpt>
      <trkpt lat="43.73484" lon="7.05449">
        <ele>843.20001220703</ele>
        <time>2021-03-04T13:14:47.000Z</time>
      </trkpt>
      <trkpt lat="43.73485" lon="7.05451">
        <ele>843.59997558594</ele>
        <time>2021-03-04T13:14:53.000Z</time>
      </trkpt>
      <trkpt lat="43.73485" lon="7.05452">
        <ele>843.59997558594</ele>
        <time>2021-03-04T13:14:54.000Z</time>
      </trkpt>
      <trkpt lat="43.73486" lon="7.05459">
        <ele>843.59997558594</ele>
        <time>2021-03-04T13:14:57.000Z</time>
      </trkpt>
      <trkpt lat="43.73486" lon="7.05466">
        <ele>844</ele>
        <time>2021-03-04T13:15:00.000Z</time>
      </trkpt>
      <trkpt lat="43.73485" lon="7.05473">
        <ele>844.20001220703</ele>
        <time>2021-03-04T13:15:02.000Z</time>
      </trkpt>
      <trkpt lat="43.73484" lon="7.05482">
        <ele>844.40002441406</ele>
        <time>2021-03-04T13:15:04.000Z</time>
      </trkpt>
      <trkpt lat="43.73482" lon="7.05503">
        <ele>844.59997558594</ele>
        <time>2021-03-04T13:15:08.000Z</time>
      </trkpt>
      <trkpt lat="43.73479" lon="7.05544">
        <ele>845.79998779297</ele>
        <time>2021-03-04T13:15:16.000Z</time>
      </trkpt>
      <trkpt lat="43.73478" lon="7.05548">
        <ele>846.20001220703</ele>
        <time>2021-03-04T13:15:17.000Z</time>
      </trkpt>
      <trkpt lat="43.73476" lon="7.05557">
        <ele>847</ele>
        <time>2021-03-04T13:15:19.000Z</time>
      </trkpt>
      <trkpt lat="43.73472" lon="7.05572">
        <ele>848</ele>
        <time>2021-03-04T13:15:22.000Z</time>
      </trkpt>
      <trkpt lat="43.73461" lon="7.05616">
        <ele>846.59997558594</ele>
        <time>2021-03-04T13:15:29.000Z</time>
      </trkpt>
      <trkpt lat="43.73449" lon="7.05667">
        <ele>846.59997558594</ele>
        <time>2021-03-04T13:15:37.000Z</time>
      </trkpt>
      <trkpt lat="43.73435" lon="7.05687">
        <ele>847</ele>
        <time>2021-03-04T13:15:41.000Z</time>
      </trkpt>
      <trkpt lat="43.73416" lon="7.05707">
        <ele>846.40002441406</ele>
        <time>2021-03-04T13:15:45.000Z</time>
      </trkpt>
      <trkpt lat="43.73412" lon="7.05715">
        <ele>845.79998779297</ele>
        <time>2021-03-04T13:15:46.000Z</time>
      </trkpt>
      <trkpt lat="43.73403" lon="7.05729">
        <ele>844.79998779297</ele>
        <time>2021-03-04T13:15:48.000Z</time>
      </trkpt>
      <trkpt lat="43.7339" lon="7.05751">
        <ele>843.59997558594</ele>
        <time>2021-03-04T13:15:51.000Z</time>
      </trkpt>
      <trkpt lat="43.73378" lon="7.05774">
        <ele>842</ele>
        <time>2021-03-04T13:15:54.000Z</time>
      </trkpt>
      <trkpt lat="43.73374" lon="7.0578">
        <ele>841.79998779297</ele>
        <time>2021-03-04T13:15:55.000Z</time>
      </trkpt>
      <trkpt lat="43.73371" lon="7.05783">
        <ele>841.40002441406</ele>
        <time>2021-03-04T13:15:56.000Z</time>
      </trkpt>
      <trkpt lat="43.7337" lon="7.05784">
        <ele>841</ele>
        <time>2021-03-04T13:15:58.000Z</time>
      </trkpt>
      <trkpt lat="43.7337" lon="7.05784">
        <ele>841</ele>
        <time>2021-03-04T13:15:59.000Z</time>
      </trkpt>
      <trkpt lat="43.73369" lon="7.05785">
        <ele>841.40002441406</ele>
        <time>2021-03-04T13:16:04.000Z</time>
      </trkpt>
      <trkpt lat="43.73368" lon="7.05787">
        <ele>841.40002441406</ele>
        <time>2021-03-04T13:16:05.000Z</time>
      </trkpt>
      <trkpt lat="43.7336" lon="7.05799">
        <ele>841.59997558594</ele>
        <time>2021-03-04T13:16:08.000Z</time>
      </trkpt>
      <trkpt lat="43.73342" lon="7.05821">
        <ele>840.59997558594</ele>
        <time>2021-03-04T13:16:12.000Z</time>
      </trkpt>
      <trkpt lat="43.73337" lon="7.05827">
        <ele>839.79998779297</ele>
        <time>2021-03-04T13:16:13.000Z</time>
      </trkpt>
      <trkpt lat="43.73327" lon="7.05842">
        <ele>838.20001220703</ele>
        <time>2021-03-04T13:16:15.000Z</time>
      </trkpt>
      <trkpt lat="43.73317" lon="7.05858">
        <ele>836.40002441406</ele>
        <time>2021-03-04T13:16:17.000Z</time>
      </trkpt>
      <trkpt lat="43.73313" lon="7.05866">
        <ele>835.20001220703</ele>
        <time>2021-03-04T13:16:18.000Z</time>
      </trkpt>
      <trkpt lat="43.73306" lon="7.05881">
        <ele>833.59997558594</ele>
        <time>2021-03-04T13:16:20.000Z</time>
      </trkpt>
      <trkpt lat="43.73305" lon="7.05888">
        <ele>833</ele>
        <time>2021-03-04T13:16:21.000Z</time>
      </trkpt>
      <trkpt lat="43.73304" lon="7.05897">
        <ele>832.20001220703</ele>
        <time>2021-03-04T13:16:22.000Z</time>
      </trkpt>
      <trkpt lat="43.73305" lon="7.05927">
        <ele>831.79998779297</ele>
        <time>2021-03-04T13:16:25.000Z</time>
      </trkpt>
      <trkpt lat="43.73307" lon="7.0595">
        <ele>830.79998779297</ele>
        <time>2021-03-04T13:16:27.000Z</time>
      </trkpt>
      <trkpt lat="43.73308" lon="7.05963">
        <ele>829.59997558594</ele>
        <time>2021-03-04T13:16:28.000Z</time>
      </trkpt>
      <trkpt lat="43.73309" lon="7.05974">
        <ele>828.79998779297</ele>
        <time>2021-03-04T13:16:29.000Z</time>
      </trkpt>
      <trkpt lat="43.73309" lon="7.05987">
        <ele>827.59997558594</ele>
        <time>2021-03-04T13:16:30.000Z</time>
      </trkpt>
      <trkpt lat="43.7331" lon="7.06009">
        <ele>825.79998779297</ele>
        <time>2021-03-04T13:16:32.000Z</time>
      </trkpt>
      <trkpt lat="43.73311" lon="7.06028">
        <ele>825.20001220703</ele>
        <time>2021-03-04T13:16:34.000Z</time>
      </trkpt>
      <trkpt lat="43.73305" lon="7.06054">
        <ele>827.20001220703</ele>
        <time>2021-03-04T13:16:38.000Z</time>
      </trkpt>
      <trkpt lat="43.73302" lon="7.06064">
        <ele>828.79998779297</ele>
        <time>2021-03-04T13:16:40.000Z</time>
      </trkpt>
      <trkpt lat="43.733" lon="7.06075">
        <ele>830.20001220703</ele>
        <time>2021-03-04T13:16:42.000Z</time>
      </trkpt>
      <trkpt lat="43.73297" lon="7.06086">
        <ele>831.40002441406</ele>
        <time>2021-03-04T13:16:44.000Z</time>
      </trkpt>
      <trkpt lat="43.73295" lon="7.06105">
        <ele>832.20001220703</ele>
        <time>2021-03-04T13:16:47.000Z</time>
      </trkpt>
      <trkpt lat="43.73295" lon="7.0612">
        <ele>832.20001220703</ele>
        <time>2021-03-04T13:16:49.000Z</time>
      </trkpt>
      <trkpt lat="43.73303" lon="7.0615">
        <ele>830.79998779297</ele>
        <time>2021-03-04T13:16:53.000Z</time>
      </trkpt>
      <trkpt lat="43.73308" lon="7.06162">
        <ele>830.59997558594</ele>
        <time>2021-03-04T13:16:55.000Z</time>
      </trkpt>
      <trkpt lat="43.7331" lon="7.06167">
        <ele>830.79998779297</ele>
        <time>2021-03-04T13:16:56.000Z</time>
      </trkpt>
      <trkpt lat="43.73313" lon="7.06179">
        <ele>831.59997558594</ele>
        <time>2021-03-04T13:16:58.000Z</time>
      </trkpt>
      <trkpt lat="43.73315" lon="7.06191">
        <ele>832.59997558594</ele>
        <time>2021-03-04T13:17:00.000Z</time>
      </trkpt>
      <trkpt lat="43.73316" lon="7.06209">
        <ele>833.59997558594</ele>
        <time>2021-03-04T13:17:03.000Z</time>
      </trkpt>
      <trkpt lat="43.73316" lon="7.06215">
        <ele>833.59997558594</ele>
        <time>2021-03-04T13:17:04.000Z</time>
      </trkpt>
      <trkpt lat="43.73317" lon="7.06255">
        <ele>833</ele>
        <time>2021-03-04T13:17:09.000Z</time>
      </trkpt>
      <trkpt lat="43.73317" lon="7.06263">
        <ele>832.59997558594</ele>
        <time>2021-03-04T13:17:10.000Z</time>
      </trkpt>
      <trkpt lat="43.73318" lon="7.06288">
        <ele>832.40002441406</ele>
        <time>2021-03-04T13:17:14.000Z</time>
      </trkpt>
      <trkpt lat="43.73317" lon="7.06305">
        <ele>833.79998779297</ele>
        <time>2021-03-04T13:17:17.000Z</time>
      </trkpt>
      <trkpt lat="43.73317" lon="7.06327">
        <ele>835</ele>
        <time>2021-03-04T13:17:21.000Z</time>
      </trkpt>
      <trkpt lat="43.73318" lon="7.06333">
        <ele>835.40002441406</ele>
        <time>2021-03-04T13:17:22.000Z</time>
      </trkpt>
      <trkpt lat="43.73319" lon="7.06344">
        <ele>836.20001220703</ele>
        <time>2021-03-04T13:17:24.000Z</time>
      </trkpt>
      <trkpt lat="43.73322" lon="7.06354">
        <ele>837.59997558594</ele>
        <time>2021-03-04T13:17:26.000Z</time>
      </trkpt>
      <trkpt lat="43.73324" lon="7.06358">
        <ele>838.20001220703</ele>
        <time>2021-03-04T13:17:27.000Z</time>
      </trkpt>
      <trkpt lat="43.73326" lon="7.06363">
        <ele>838.79998779297</ele>
        <time>2021-03-04T13:17:28.000Z</time>
      </trkpt>
      <trkpt lat="43.73329" lon="7.06372">
        <ele>840.20001220703</ele>
        <time>2021-03-04T13:17:30.000Z</time>
      </trkpt>
      <trkpt lat="43.73333" lon="7.06382">
        <ele>841.40002441406</ele>
        <time>2021-03-04T13:17:32.000Z</time>
      </trkpt>
      <trkpt lat="43.73338" lon="7.06395">
        <ele>842.59997558594</ele>
        <time>2021-03-04T13:17:35.000Z</time>
      </trkpt>
      <trkpt lat="43.73344" lon="7.06406">
        <ele>844.20001220703</ele>
        <time>2021-03-04T13:17:38.000Z</time>
      </trkpt>
      <trkpt lat="43.73351" lon="7.06422">
        <ele>845.20001220703</ele>
        <time>2021-03-04T13:17:41.000Z</time>
      </trkpt>
      <trkpt lat="43.7336" lon="7.06444">
        <ele>844.40002441406</ele>
        <time>2021-03-04T13:17:45.000Z</time>
      </trkpt>
      <trkpt lat="43.73367" lon="7.06467">
        <ele>844.20001220703</ele>
        <time>2021-03-04T13:17:49.000Z</time>
      </trkpt>
      <trkpt lat="43.7338" lon="7.06514">
        <ele>844.79998779297</ele>
        <time>2021-03-04T13:17:57.000Z</time>
      </trkpt>
      <trkpt lat="43.73381" lon="7.06535">
        <ele>845.20001220703</ele>
        <time>2021-03-04T13:18:00.000Z</time>
      </trkpt>
      <trkpt lat="43.73379" lon="7.06549">
        <ele>845</ele>
        <time>2021-03-04T13:18:02.000Z</time>
      </trkpt>
      <trkpt lat="43.73377" lon="7.06572">
        <ele>844.59997558594</ele>
        <time>2021-03-04T13:18:05.000Z</time>
      </trkpt>
      <trkpt lat="43.73378" lon="7.06596">
        <ele>844</ele>
        <time>2021-03-04T13:18:08.000Z</time>
      </trkpt>
      <trkpt lat="43.73386" lon="7.06626">
        <ele>842.79998779297</ele>
        <time>2021-03-04T13:18:12.000Z</time>
      </trkpt>
      <trkpt lat="43.73389" lon="7.06633">
        <ele>842.59997558594</ele>
        <time>2021-03-04T13:18:13.000Z</time>
      </trkpt>
      <trkpt lat="43.734" lon="7.06649">
        <ele>842.20001220703</ele>
        <time>2021-03-04T13:18:16.000Z</time>
      </trkpt>
      <trkpt lat="43.73407" lon="7.0666">
        <ele>842.40002441406</ele>
        <time>2021-03-04T13:18:18.000Z</time>
      </trkpt>
      <trkpt lat="43.73418" lon="7.06683">
        <ele>844</ele>
        <time>2021-03-04T13:18:23.000Z</time>
      </trkpt>
      <trkpt lat="43.7342" lon="7.06694">
        <ele>845.40002441406</ele>
        <time>2021-03-04T13:18:26.000Z</time>
      </trkpt>
      <trkpt lat="43.73424" lon="7.06702">
        <ele>845.40002441406</ele>
        <time>2021-03-04T13:18:28.000Z</time>
      </trkpt>
      <trkpt lat="43.73439" lon="7.06716">
        <ele>845.20001220703</ele>
        <time>2021-03-04T13:18:33.000Z</time>
      </trkpt>
      <trkpt lat="43.73449" lon="7.06727">
        <ele>846.40002441406</ele>
        <time>2021-03-04T13:18:37.000Z</time>
      </trkpt>
      <trkpt lat="43.7345" lon="7.0673">
        <ele>846.79998779297</ele>
        <time>2021-03-04T13:18:38.000Z</time>
      </trkpt>
      <trkpt lat="43.73454" lon="7.06738">
        <ele>847.79998779297</ele>
        <time>2021-03-04T13:18:40.000Z</time>
      </trkpt>
      <trkpt lat="43.7346" lon="7.0675">
        <ele>848.40002441406</ele>
        <time>2021-03-04T13:18:43.000Z</time>
      </trkpt>
      <trkpt lat="43.73466" lon="7.06762">
        <ele>849</ele>
        <time>2021-03-04T13:18:47.000Z</time>
      </trkpt>
      <trkpt lat="43.73472" lon="7.06785">
        <ele>849.59997558594</ele>
        <time>2021-03-04T13:18:51.000Z</time>
      </trkpt>
      <trkpt lat="43.73481" lon="7.06805">
        <ele>848</ele>
        <time>2021-03-04T13:18:55.000Z</time>
      </trkpt>
      <trkpt lat="43.73483" lon="7.06807">
        <ele>847.79998779297</ele>
        <time>2021-03-04T13:18:56.000Z</time>
      </trkpt>
      <trkpt lat="43.73496" lon="7.06822">
        <ele>848.20001220703</ele>
        <time>2021-03-04T13:19:01.000Z</time>
      </trkpt>
      <trkpt lat="43.73507" lon="7.06836">
        <ele>849</ele>
        <time>2021-03-04T13:19:05.000Z</time>
      </trkpt>
      <trkpt lat="43.73511" lon="7.06838">
        <ele>849.20001220703</ele>
        <time>2021-03-04T13:19:06.000Z</time>
      </trkpt>
      <trkpt lat="43.73527" lon="7.06853">
        <ele>849</ele>
        <time>2021-03-04T13:19:11.000Z</time>
      </trkpt>
      <trkpt lat="43.73538" lon="7.06858">
        <ele>849.59997558594</ele>
        <time>2021-03-04T13:19:15.000Z</time>
      </trkpt>
      <trkpt lat="43.7354" lon="7.0686">
        <ele>850</ele>
        <time>2021-03-04T13:19:16.000Z</time>
      </trkpt>
      <trkpt lat="43.73541" lon="7.06863">
        <ele>850.20001220703</ele>
        <time>2021-03-04T13:19:17.000Z</time>
      </trkpt>
      <trkpt lat="43.73544" lon="7.06869">
        <ele>851.20001220703</ele>
        <time>2021-03-04T13:19:19.000Z</time>
      </trkpt>
      <trkpt lat="43.73547" lon="7.06877">
        <ele>852.40002441406</ele>
        <time>2021-03-04T13:19:22.000Z</time>
      </trkpt>
      <trkpt lat="43.73548" lon="7.06884">
        <ele>852.59997558594</ele>
        <time>2021-03-04T13:19:24.000Z</time>
      </trkpt>
      <trkpt lat="43.73551" lon="7.06899">
        <ele>852.40002441406</ele>
        <time>2021-03-04T13:19:27.000Z</time>
      </trkpt>
      <trkpt lat="43.73553" lon="7.06907">
        <ele>852.20001220703</ele>
        <time>2021-03-04T13:19:28.000Z</time>
      </trkpt>
      <trkpt lat="43.73556" lon="7.0692">
        <ele>851.20001220703</ele>
        <time>2021-03-04T13:19:30.000Z</time>
      </trkpt>
      <trkpt lat="43.73557" lon="7.06924">
        <ele>850</ele>
        <time>2021-03-04T13:19:31.000Z</time>
      </trkpt>
      <trkpt lat="43.73559" lon="7.06928">
        <ele>849.20001220703</ele>
        <time>2021-03-04T13:19:32.000Z</time>
      </trkpt>
      <trkpt lat="43.7356" lon="7.06932">
        <ele>848.59997558594</ele>
        <time>2021-03-04T13:19:33.000Z</time>
      </trkpt>
      <trkpt lat="43.73561" lon="7.06936">
        <ele>848.20001220703</ele>
        <time>2021-03-04T13:19:34.000Z</time>
      </trkpt>
      <trkpt lat="43.73564" lon="7.06948">
        <ele>848.40002441406</ele>
        <time>2021-03-04T13:19:36.000Z</time>
      </trkpt>
      <trkpt lat="43.73566" lon="7.06954">
        <ele>848.40002441406</ele>
        <time>2021-03-04T13:19:37.000Z</time>
      </trkpt>
      <trkpt lat="43.73571" lon="7.06968">
        <ele>847.40002441406</ele>
        <time>2021-03-04T13:19:40.000Z</time>
      </trkpt>
      <trkpt lat="43.73573" lon="7.06969">
        <ele>847</ele>
        <time>2021-03-04T13:19:41.000Z</time>
      </trkpt>
      <trkpt lat="43.73578" lon="7.06971">
        <ele>846.79998779297</ele>
        <time>2021-03-04T13:19:43.000Z</time>
      </trkpt>
      <trkpt lat="43.73587" lon="7.06981">
        <ele>847.59997558594</ele>
        <time>2021-03-04T13:19:46.000Z</time>
      </trkpt>
      <trkpt lat="43.73591" lon="7.06983">
        <ele>847.79998779297</ele>
        <time>2021-03-04T13:19:47.000Z</time>
      </trkpt>
      <trkpt lat="43.73598" lon="7.06985">
        <ele>847.79998779297</ele>
        <time>2021-03-04T13:19:49.000Z</time>
      </trkpt>
      <trkpt lat="43.73606" lon="7.06989">
        <ele>847.79998779297</ele>
        <time>2021-03-04T13:19:51.000Z</time>
      </trkpt>
      <trkpt lat="43.73625" lon="7.06993">
        <ele>847</ele>
        <time>2021-03-04T13:19:56.000Z</time>
      </trkpt>
      <trkpt lat="43.73628" lon="7.06994">
        <ele>847</ele>
        <time>2021-03-04T13:19:57.000Z</time>
      </trkpt>
      <trkpt lat="43.7364" lon="7.06993">
        <ele>848.59997558594</ele>
        <time>2021-03-04T13:20:01.000Z</time>
      </trkpt>
      <trkpt lat="43.73654" lon="7.06994">
        <ele>849.59997558594</ele>
        <time>2021-03-04T13:20:05.000Z</time>
      </trkpt>
      <trkpt lat="43.73672" lon="7.07">
        <ele>850.20001220703</ele>
        <time>2021-03-04T13:20:11.000Z</time>
      </trkpt>
      <trkpt lat="43.73679" lon="7.07004">
        <ele>850.59997558594</ele>
        <time>2021-03-04T13:20:15.000Z</time>
      </trkpt>
      <trkpt lat="43.73681" lon="7.07004">
        <ele>851.20001220703</ele>
        <time>2021-03-04T13:20:17.000Z</time>
      </trkpt>
      <trkpt lat="43.73681" lon="7.07003">
        <ele>851.59997558594</ele>
        <time>2021-03-04T13:20:18.000Z</time>
      </trkpt>
      <trkpt lat="43.73682" lon="7.07004">
        <ele>852.59997558594</ele>
        <time>2021-03-04T13:20:26.000Z</time>
      </trkpt>
      <trkpt lat="43.73684" lon="7.07004">
        <ele>852.59997558594</ele>
        <time>2021-03-04T13:20:30.000Z</time>
      </trkpt>
      <trkpt lat="43.73685" lon="7.07004">
        <ele>853</ele>
        <time>2021-03-04T13:20:33.000Z</time>
      </trkpt>
      <trkpt lat="43.73687" lon="7.07005">
        <ele>853.79998779297</ele>
        <time>2021-03-04T13:20:38.000Z</time>
      </trkpt>
      <trkpt lat="43.73687" lon="7.07005">
        <ele>854.40002441406</ele>
        <time>2021-03-04T13:20:40.000Z</time>
      </trkpt>
      <trkpt lat="43.73688" lon="7.07005">
        <ele>855</ele>
        <time>2021-03-04T13:20:46.000Z</time>
      </trkpt>
      <trkpt lat="43.73688" lon="7.07005">
        <ele>855</ele>
        <time>2021-03-04T13:20:47.000Z</time>
      </trkpt>
      <trkpt lat="43.7369" lon="7.07004">
        <ele>855.20001220703</ele>
        <time>2021-03-04T13:20:55.000Z</time>
      </trkpt>
      <trkpt lat="43.73692" lon="7.07002">
        <ele>855.40002441406</ele>
        <time>2021-03-04T13:21:03.000Z</time>
      </trkpt>
      <trkpt lat="43.73694" lon="7.07003">
        <ele>855.59997558594</ele>
        <time>2021-03-04T13:21:09.000Z</time>
      </trkpt>
      <trkpt lat="43.73696" lon="7.07004">
        <ele>855.59997558594</ele>
        <time>2021-03-04T13:21:14.000Z</time>
      </trkpt>
      <trkpt lat="43.73697" lon="7.07004">
        <ele>855.79998779297</ele>
        <time>2021-03-04T13:21:15.000Z</time>
      </trkpt>
      <trkpt lat="43.73698" lon="7.07008">
        <ele>855.79998779297</ele>
        <time>2021-03-04T13:21:20.000Z</time>
      </trkpt>
      <trkpt lat="43.73698" lon="7.0701">
        <ele>855.20001220703</ele>
        <time>2021-03-04T13:21:27.000Z</time>
      </trkpt>
      <trkpt lat="43.73697" lon="7.07018">
        <ele>855.20001220703</ele>
        <time>2021-03-04T13:21:33.000Z</time>
      </trkpt>
      <trkpt lat="43.73698" lon="7.07019">
        <ele>855</ele>
        <time>2021-03-04T13:21:35.000Z</time>
      </trkpt>
      <trkpt lat="43.737" lon="7.07022">
        <ele>854</ele>
        <time>2021-03-04T13:21:42.000Z</time>
      </trkpt>
      <trkpt lat="43.7371" lon="7.07025">
        <ele>854</ele>
        <time>2021-03-04T13:21:46.000Z</time>
      </trkpt>
      <trkpt lat="43.73715" lon="7.07025">
        <ele>853.79998779297</ele>
        <time>2021-03-04T13:21:48.000Z</time>
      </trkpt>
      <trkpt lat="43.73722" lon="7.07023">
        <ele>853</ele>
        <time>2021-03-04T13:21:51.000Z</time>
      </trkpt>
      <trkpt lat="43.73724" lon="7.07023">
        <ele>852.59997558594</ele>
        <time>2021-03-04T13:21:52.000Z</time>
      </trkpt>
      <trkpt lat="43.73724" lon="7.07023">
        <ele>851.79998779297</ele>
        <time>2021-03-04T13:21:54.000Z</time>
      </trkpt>
      <trkpt lat="43.73724" lon="7.07023">
        <ele>851.40002441406</ele>
        <time>2021-03-04T13:21:56.000Z</time>
      </trkpt>
      <trkpt lat="43.73727" lon="7.07023">
        <ele>851.20001220703</ele>
        <time>2021-03-04T13:22:05.000Z</time>
      </trkpt>
      <trkpt lat="43.73736" lon="7.07023">
        <ele>851</ele>
        <time>2021-03-04T13:22:08.000Z</time>
      </trkpt>
      <trkpt lat="43.7374" lon="7.07022">
        <ele>850.79998779297</ele>
        <time>2021-03-04T13:22:09.000Z</time>
      </trkpt>
      <trkpt lat="43.73749" lon="7.07019">
        <ele>850</ele>
        <time>2021-03-04T13:22:11.000Z</time>
      </trkpt>
      <trkpt lat="43.73754" lon="7.07018">
        <ele>849.59997558594</ele>
        <time>2021-03-04T13:22:12.000Z</time>
      </trkpt>
      <trkpt lat="43.73764" lon="7.07021">
        <ele>849</ele>
        <time>2021-03-04T13:22:14.000Z</time>
      </trkpt>
      <trkpt lat="43.73789" lon="7.07034">
        <ele>847.40002441406</ele>
        <time>2021-03-04T13:22:18.000Z</time>
      </trkpt>
      <trkpt lat="43.73801" lon="7.0704">
        <ele>845.79998779297</ele>
        <time>2021-03-04T13:22:20.000Z</time>
      </trkpt>
      <trkpt lat="43.73811" lon="7.07046">
        <ele>844.59997558594</ele>
        <time>2021-03-04T13:22:22.000Z</time>
      </trkpt>
      <trkpt lat="43.7382" lon="7.07049">
        <ele>844</ele>
        <time>2021-03-04T13:22:24.000Z</time>
      </trkpt>
      <trkpt lat="43.73831" lon="7.0705">
        <ele>843.40002441406</ele>
        <time>2021-03-04T13:22:26.000Z</time>
      </trkpt>
      <trkpt lat="43.73836" lon="7.0705">
        <ele>843</ele>
        <time>2021-03-04T13:22:27.000Z</time>
      </trkpt>
      <trkpt lat="43.73848" lon="7.07048">
        <ele>841.79998779297</ele>
        <time>2021-03-04T13:22:29.000Z</time>
      </trkpt>
      <trkpt lat="43.73854" lon="7.07048">
        <ele>841</ele>
        <time>2021-03-04T13:22:30.000Z</time>
      </trkpt>
      <trkpt lat="43.7386" lon="7.07047">
        <ele>840.20001220703</ele>
        <time>2021-03-04T13:22:31.000Z</time>
      </trkpt>
      <trkpt lat="43.73869" lon="7.07046">
        <ele>838.79998779297</ele>
        <time>2021-03-04T13:22:33.000Z</time>
      </trkpt>
      <trkpt lat="43.73873" lon="7.07047">
        <ele>837.79998779297</ele>
        <time>2021-03-04T13:22:34.000Z</time>
      </trkpt>
      <trkpt lat="43.73877" lon="7.07051">
        <ele>837</ele>
        <time>2021-03-04T13:22:35.000Z</time>
      </trkpt>
      <trkpt lat="43.73885" lon="7.07059">
        <ele>836</ele>
        <time>2021-03-04T13:22:37.000Z</time>
      </trkpt>
      <trkpt lat="43.73889" lon="7.0706">
        <ele>835</ele>
        <time>2021-03-04T13:22:38.000Z</time>
      </trkpt>
      <trkpt lat="43.73893" lon="7.07061">
        <ele>834.20001220703</ele>
        <time>2021-03-04T13:22:39.000Z</time>
      </trkpt>
      <trkpt lat="43.73898" lon="7.07062">
        <ele>833</ele>
        <time>2021-03-04T13:22:40.000Z</time>
      </trkpt>
      <trkpt lat="43.73903" lon="7.07064">
        <ele>832.20001220703</ele>
        <time>2021-03-04T13:22:41.000Z</time>
      </trkpt>
      <trkpt lat="43.73908" lon="7.07066">
        <ele>831</ele>
        <time>2021-03-04T13:22:42.000Z</time>
      </trkpt>
      <trkpt lat="43.73913" lon="7.07068">
        <ele>830.40002441406</ele>
        <time>2021-03-04T13:22:43.000Z</time>
      </trkpt>
      <trkpt lat="43.73918" lon="7.07068">
        <ele>829.40002441406</ele>
        <time>2021-03-04T13:22:44.000Z</time>
      </trkpt>
      <trkpt lat="43.73923" lon="7.07069">
        <ele>828.20001220703</ele>
        <time>2021-03-04T13:22:45.000Z</time>
      </trkpt>
      <trkpt lat="43.73926" lon="7.07069">
        <ele>827</ele>
        <time>2021-03-04T13:22:46.000Z</time>
      </trkpt>
      <trkpt lat="43.73929" lon="7.07069">
        <ele>826</ele>
        <time>2021-03-04T13:22:47.000Z</time>
      </trkpt>
      <trkpt lat="43.73936" lon="7.07068">
        <ele>824.59997558594</ele>
        <time>2021-03-04T13:22:49.000Z</time>
      </trkpt>
      <trkpt lat="43.7394" lon="7.07068">
        <ele>824.40002441406</ele>
        <time>2021-03-04T13:22:50.000Z</time>
      </trkpt>
      <trkpt lat="43.73945" lon="7.07069">
        <ele>824.20001220703</ele>
        <time>2021-03-04T13:22:51.000Z</time>
      </trkpt>
      <trkpt lat="43.73965" lon="7.07077">
        <ele>823.59997558594</ele>
        <time>2021-03-04T13:22:55.000Z</time>
      </trkpt>
      <trkpt lat="43.7397" lon="7.07078">
        <ele>823.20001220703</ele>
        <time>2021-03-04T13:22:56.000Z</time>
      </trkpt>
      <trkpt lat="43.73983" lon="7.07079">
        <ele>822.40002441406</ele>
        <time>2021-03-04T13:22:59.000Z</time>
      </trkpt>
      <trkpt lat="43.73991" lon="7.07077">
        <ele>822.79998779297</ele>
        <time>2021-03-04T13:23:01.000Z</time>
      </trkpt>
      <trkpt lat="43.74002" lon="7.07072">
        <ele>823.59997558594</ele>
        <time>2021-03-04T13:23:04.000Z</time>
      </trkpt>
      <trkpt lat="43.7401" lon="7.07069">
        <ele>824.20001220703</ele>
        <time>2021-03-04T13:23:06.000Z</time>
      </trkpt>
      <trkpt lat="43.74013" lon="7.07067">
        <ele>824.59997558594</ele>
        <time>2021-03-04T13:23:07.000Z</time>
      </trkpt>
      <trkpt lat="43.74022" lon="7.0706">
        <ele>825</ele>
        <time>2021-03-04T13:23:10.000Z</time>
      </trkpt>
      <trkpt lat="43.74033" lon="7.07059">
        <ele>825</ele>
        <time>2021-03-04T13:23:14.000Z</time>
      </trkpt>
      <trkpt lat="43.74045" lon="7.07056">
        <ele>824.40002441406</ele>
        <time>2021-03-04T13:23:19.000Z</time>
      </trkpt>
      <trkpt lat="43.74054" lon="7.0705">
        <ele>825</ele>
        <time>2021-03-04T13:23:24.000Z</time>
      </trkpt>
      <trkpt lat="43.74063" lon="7.0704">
        <ele>825</ele>
        <time>2021-03-04T13:23:29.000Z</time>
      </trkpt>
      <trkpt lat="43.74067" lon="7.07034">
        <ele>824.20001220703</ele>
        <time>2021-03-04T13:23:33.000Z</time>
      </trkpt>
      <trkpt lat="43.74077" lon="7.07016">
        <ele>824</ele>
        <time>2021-03-04T13:23:38.000Z</time>
      </trkpt>
      <trkpt lat="43.74095" lon="7.07">
        <ele>825.59997558594</ele>
        <time>2021-03-04T13:23:44.000Z</time>
      </trkpt>
      <trkpt lat="43.74097" lon="7.06998">
        <ele>826.20001220703</ele>
        <time>2021-03-04T13:23:45.000Z</time>
      </trkpt>
      <trkpt lat="43.74101" lon="7.06993">
        <ele>827.40002441406</ele>
        <time>2021-03-04T13:23:47.000Z</time>
      </trkpt>
      <trkpt lat="43.74104" lon="7.06991">
        <ele>828.20001220703</ele>
        <time>2021-03-04T13:23:49.000Z</time>
      </trkpt>
      <trkpt lat="43.74105" lon="7.06992">
        <ele>828.59997558594</ele>
        <time>2021-03-04T13:23:50.000Z</time>
      </trkpt>
      <trkpt lat="43.74106" lon="7.06993">
        <ele>828.79998779297</ele>
        <time>2021-03-04T13:23:55.000Z</time>
      </trkpt>
      <trkpt lat="43.74107" lon="7.06992">
        <ele>828.79998779297</ele>
        <time>2021-03-04T13:24:06.000Z</time>
      </trkpt>
      <trkpt lat="43.74108" lon="7.06993">
        <ele>829</ele>
        <time>2021-03-04T13:24:26.000Z</time>
      </trkpt>
      <trkpt lat="43.74107" lon="7.06993">
        <ele>829</ele>
        <time>2021-03-04T13:24:31.000Z</time>
      </trkpt>
      <trkpt lat="43.74106" lon="7.0699">
        <ele>829</ele>
        <time>2021-03-04T13:24:39.000Z</time>
      </trkpt>
      <trkpt lat="43.74108" lon="7.06986">
        <ele>829</ele>
        <time>2021-03-04T13:24:43.000Z</time>
      </trkpt>
      <trkpt lat="43.74109" lon="7.06985">
        <ele>829</ele>
        <time>2021-03-04T13:24:44.000Z</time>
      </trkpt>
      <trkpt lat="43.74122" lon="7.0697">
        <ele>828.40002441406</ele>
        <time>2021-03-04T13:24:49.000Z</time>
      </trkpt>
      <trkpt lat="43.7414" lon="7.06949">
        <ele>827.40002441406</ele>
        <time>2021-03-04T13:24:54.000Z</time>
      </trkpt>
      <trkpt lat="43.74145" lon="7.06945">
        <ele>827</ele>
        <time>2021-03-04T13:24:55.000Z</time>
      </trkpt>
      <trkpt lat="43.74153" lon="7.06942">
        <ele>825.59997558594</ele>
        <time>2021-03-04T13:24:57.000Z</time>
      </trkpt>
      <trkpt lat="43.7416" lon="7.06943">
        <ele>824.59997558594</ele>
        <time>2021-03-04T13:24:59.000Z</time>
      </trkpt>
      <trkpt lat="43.74162" lon="7.06941">
        <ele>823.79998779297</ele>
        <time>2021-03-04T13:25:00.000Z</time>
      </trkpt>
      <trkpt lat="43.74165" lon="7.06938">
        <ele>823</ele>
        <time>2021-03-04T13:25:01.000Z</time>
      </trkpt>
      <trkpt lat="43.7417" lon="7.06931">
        <ele>821.79998779297</ele>
        <time>2021-03-04T13:25:03.000Z</time>
      </trkpt>
      <trkpt lat="43.74173" lon="7.06929">
        <ele>821.20001220703</ele>
        <time>2021-03-04T13:25:04.000Z</time>
      </trkpt>
      <trkpt lat="43.74175" lon="7.06927">
        <ele>820.59997558594</ele>
        <time>2021-03-04T13:25:05.000Z</time>
      </trkpt>
      <trkpt lat="43.7418" lon="7.06921">
        <ele>819.79998779297</ele>
        <time>2021-03-04T13:25:08.000Z</time>
      </trkpt>
      <trkpt lat="43.74181" lon="7.06918">
        <ele>819.59997558594</ele>
        <time>2021-03-04T13:25:09.000Z</time>
      </trkpt>
      <trkpt lat="43.74183" lon="7.06916">
        <ele>819.20001220703</ele>
        <time>2021-03-04T13:25:10.000Z</time>
      </trkpt>
      <trkpt lat="43.74188" lon="7.06908">
        <ele>819.20001220703</ele>
        <time>2021-03-04T13:25:13.000Z</time>
      </trkpt>
      <trkpt lat="43.74191" lon="7.06903">
        <ele>819.40002441406</ele>
        <time>2021-03-04T13:25:15.000Z</time>
      </trkpt>
      <trkpt lat="43.74195" lon="7.069">
        <ele>820</ele>
        <time>2021-03-04T13:25:18.000Z</time>
      </trkpt>
      <trkpt lat="43.74195" lon="7.06899">
        <ele>820</ele>
        <time>2021-03-04T13:25:19.000Z</time>
      </trkpt>
      <trkpt lat="43.74197" lon="7.06894">
        <ele>820.59997558594</ele>
        <time>2021-03-04T13:25:21.000Z</time>
      </trkpt>
      <trkpt lat="43.74198" lon="7.0689">
        <ele>821</ele>
        <time>2021-03-04T13:25:22.000Z</time>
      </trkpt>
      <trkpt lat="43.742" lon="7.06886">
        <ele>821.20001220703</ele>
        <time>2021-03-04T13:25:23.000Z</time>
      </trkpt>
      <trkpt lat="43.74205" lon="7.06873">
        <ele>821.59997558594</ele>
        <time>2021-03-04T13:25:27.000Z</time>
      </trkpt>
      <trkpt lat="43.74207" lon="7.0687">
        <ele>821.79998779297</ele>
        <time>2021-03-04T13:25:28.000Z</time>
      </trkpt>
      <trkpt lat="43.74213" lon="7.06858">
        <ele>822.59997558594</ele>
        <time>2021-03-04T13:25:33.000Z</time>
      </trkpt>
      <trkpt lat="43.74214" lon="7.06856">
        <ele>822.79998779297</ele>
        <time>2021-03-04T13:25:34.000Z</time>
      </trkpt>
      <trkpt lat="43.74215" lon="7.06851">
        <ele>823.59997558594</ele>
        <time>2021-03-04T13:25:36.000Z</time>
      </trkpt>
      <trkpt lat="43.74215" lon="7.06846">
        <ele>824</ele>
        <time>2021-03-04T13:25:38.000Z</time>
      </trkpt>
      <trkpt lat="43.74216" lon="7.06823">
        <ele>824.59997558594</ele>
        <time>2021-03-04T13:25:44.000Z</time>
      </trkpt>
      <trkpt lat="43.74223" lon="7.06806">
        <ele>824.40002441406</ele>
        <time>2021-03-04T13:25:49.000Z</time>
      </trkpt>
      <trkpt lat="43.74229" lon="7.06795">
        <ele>825.20001220703</ele>
        <time>2021-03-04T13:25:53.000Z</time>
      </trkpt>
      <trkpt lat="43.7423" lon="7.06792">
        <ele>825.20001220703</ele>
        <time>2021-03-04T13:25:54.000Z</time>
      </trkpt>
      <trkpt lat="43.74233" lon="7.06764">
        <ele>825.59997558594</ele>
        <time>2021-03-04T13:26:00.000Z</time>
      </trkpt>
      <trkpt lat="43.74232" lon="7.06723">
        <ele>825.59997558594</ele>
        <time>2021-03-04T13:26:09.000Z</time>
      </trkpt>
      <trkpt lat="43.74226" lon="7.06691">
        <ele>825.79998779297</ele>
        <time>2021-03-04T13:26:16.000Z</time>
      </trkpt>
      <trkpt lat="43.74219" lon="7.06672">
        <ele>825.79998779297</ele>
        <time>2021-03-04T13:26:21.000Z</time>
      </trkpt>
      <trkpt lat="43.74218" lon="7.06653">
        <ele>825.40002441406</ele>
        <time>2021-03-04T13:26:25.000Z</time>
      </trkpt>
      <trkpt lat="43.74218" lon="7.06635">
        <ele>825.20001220703</ele>
        <time>2021-03-04T13:26:31.000Z</time>
      </trkpt>
      <trkpt lat="43.74218" lon="7.06634">
        <ele>825.59997558594</ele>
        <time>2021-03-04T13:26:43.000Z</time>
      </trkpt>
      <trkpt lat="43.74218" lon="7.06629">
        <ele>825</ele>
        <time>2021-03-04T13:26:50.000Z</time>
      </trkpt>
      <trkpt lat="43.74216" lon="7.06608">
        <ele>826</ele>
        <time>2021-03-04T13:26:55.000Z</time>
      </trkpt>
      <trkpt lat="43.74216" lon="7.06604">
        <ele>826.20001220703</ele>
        <time>2021-03-04T13:26:56.000Z</time>
      </trkpt>
      <trkpt lat="43.74217" lon="7.06584">
        <ele>827.20001220703</ele>
        <time>2021-03-04T13:27:00.000Z</time>
      </trkpt>
      <trkpt lat="43.74217" lon="7.06578">
        <ele>827.40002441406</ele>
        <time>2021-03-04T13:27:01.000Z</time>
      </trkpt>
      <trkpt lat="43.74218" lon="7.06548">
        <ele>827.40002441406</ele>
        <time>2021-03-04T13:27:07.000Z</time>
      </trkpt>
      <trkpt lat="43.74217" lon="7.06535">
        <ele>828</ele>
        <time>2021-03-04T13:27:12.000Z</time>
      </trkpt>
      <trkpt lat="43.74217" lon="7.06535">
        <ele>828.79998779297</ele>
        <time>2021-03-04T13:27:14.000Z</time>
      </trkpt>
      <trkpt lat="43.74218" lon="7.06536">
        <ele>829.20001220703</ele>
        <time>2021-03-04T13:27:17.000Z</time>
      </trkpt>
      <trkpt lat="43.7422" lon="7.06535">
        <ele>829.20001220703</ele>
        <time>2021-03-04T13:27:19.000Z</time>
      </trkpt>
      <trkpt lat="43.74224" lon="7.06534">
        <ele>827.59997558594</ele>
        <time>2021-03-04T13:27:24.000Z</time>
      </trkpt>
      <trkpt lat="43.74225" lon="7.06534">
        <ele>827</ele>
        <time>2021-03-04T13:27:25.000Z</time>
      </trkpt>
      <trkpt lat="43.74226" lon="7.06534">
        <ele>826.20001220703</ele>
        <time>2021-03-04T13:27:27.000Z</time>
      </trkpt>
      <trkpt lat="43.74226" lon="7.06534">
        <ele>825.40002441406</ele>
        <time>2021-03-04T13:27:30.000Z</time>
      </trkpt>
      <trkpt lat="43.74226" lon="7.06534">
        <ele>825.20001220703</ele>
        <time>2021-03-04T13:27:32.000Z</time>
      </trkpt>
      <trkpt lat="43.74226" lon="7.06535">
        <ele>825</ele>
        <time>2021-03-04T13:27:36.000Z</time>
      </trkpt>
      <trkpt lat="43.74228" lon="7.06538">
        <ele>825</ele>
        <time>2021-03-04T13:27:38.000Z</time>
      </trkpt>
      <trkpt lat="43.74232" lon="7.06549">
        <ele>824</ele>
        <time>2021-03-04T13:27:41.000Z</time>
      </trkpt>
      <trkpt lat="43.74233" lon="7.06553">
        <ele>823.40002441406</ele>
        <time>2021-03-04T13:27:42.000Z</time>
      </trkpt>
      <trkpt lat="43.74235" lon="7.06556">
        <ele>822.40002441406</ele>
        <time>2021-03-04T13:27:43.000Z</time>
      </trkpt>
      <trkpt lat="43.74238" lon="7.06563">
        <ele>820.79998779297</ele>
        <time>2021-03-04T13:27:45.000Z</time>
      </trkpt>
      <trkpt lat="43.74244" lon="7.06569">
        <ele>819.40002441406</ele>
        <time>2021-03-04T13:27:47.000Z</time>
      </trkpt>
      <trkpt lat="43.74249" lon="7.06574">
        <ele>817.59997558594</ele>
        <time>2021-03-04T13:27:49.000Z</time>
      </trkpt>
      <trkpt lat="43.74252" lon="7.06577">
        <ele>816.40002441406</ele>
        <time>2021-03-04T13:27:50.000Z</time>
      </trkpt>
      <trkpt lat="43.74255" lon="7.06581">
        <ele>815</ele>
        <time>2021-03-04T13:27:51.000Z</time>
      </trkpt>
      <trkpt lat="43.74257" lon="7.06586">
        <ele>814.20001220703</ele>
        <time>2021-03-04T13:27:52.000Z</time>
      </trkpt>
      <trkpt lat="43.7426" lon="7.06592">
        <ele>813.20001220703</ele>
        <time>2021-03-04T13:27:53.000Z</time>
      </trkpt>
      <trkpt lat="43.74263" lon="7.06599">
        <ele>812.40002441406</ele>
        <time>2021-03-04T13:27:54.000Z</time>
      </trkpt>
      <trkpt lat="43.74265" lon="7.06608">
        <ele>811.20001220703</ele>
        <time>2021-03-04T13:27:55.000Z</time>
      </trkpt>
      <trkpt lat="43.74267" lon="7.06617">
        <ele>810.20001220703</ele>
        <time>2021-03-04T13:27:56.000Z</time>
      </trkpt>
      <trkpt lat="43.74269" lon="7.06626">
        <ele>808.79998779297</ele>
        <time>2021-03-04T13:27:57.000Z</time>
      </trkpt>
      <trkpt lat="43.74276" lon="7.06644">
        <ele>807</ele>
        <time>2021-03-04T13:27:59.000Z</time>
      </trkpt>
      <trkpt lat="43.74283" lon="7.06662">
        <ele>805.59997558594</ele>
        <time>2021-03-04T13:28:01.000Z</time>
      </trkpt>
      <trkpt lat="43.74291" lon="7.06679">
        <ele>803.59997558594</ele>
        <time>2021-03-04T13:28:03.000Z</time>
      </trkpt>
      <trkpt lat="43.74294" lon="7.06686">
        <ele>802.59997558594</ele>
        <time>2021-03-04T13:28:04.000Z</time>
      </trkpt>
      <trkpt lat="43.74296" lon="7.06693">
        <ele>801.40002441406</ele>
        <time>2021-03-04T13:28:05.000Z</time>
      </trkpt>
      <trkpt lat="43.74298" lon="7.06697">
        <ele>800.20001220703</ele>
        <time>2021-03-04T13:28:06.000Z</time>
      </trkpt>
      <trkpt lat="43.74303" lon="7.06702">
        <ele>798</ele>
        <time>2021-03-04T13:28:08.000Z</time>
      </trkpt>
      <trkpt lat="43.74306" lon="7.06708">
        <ele>796.59997558594</ele>
        <time>2021-03-04T13:28:10.000Z</time>
      </trkpt>
      <trkpt lat="43.74308" lon="7.0671">
        <ele>795.79998779297</ele>
        <time>2021-03-04T13:28:11.000Z</time>
      </trkpt>
      <trkpt lat="43.74311" lon="7.06712">
        <ele>794.79998779297</ele>
        <time>2021-03-04T13:28:12.000Z</time>
      </trkpt>
      <trkpt lat="43.74317" lon="7.06717">
        <ele>793.40002441406</ele>
        <time>2021-03-04T13:28:14.000Z</time>
      </trkpt>
      <trkpt lat="43.7432" lon="7.06723">
        <ele>792.20001220703</ele>
        <time>2021-03-04T13:28:16.000Z</time>
      </trkpt>
      <trkpt lat="43.74321" lon="7.06731">
        <ele>791.59997558594</ele>
        <time>2021-03-04T13:28:18.000Z</time>
      </trkpt>
      <trkpt lat="43.74322" lon="7.06735">
        <ele>791.59997558594</ele>
        <time>2021-03-04T13:28:19.000Z</time>
      </trkpt>
      <trkpt lat="43.74328" lon="7.06742">
        <ele>790.79998779297</ele>
        <time>2021-03-04T13:28:21.000Z</time>
      </trkpt>
      <trkpt lat="43.74336" lon="7.06746">
        <ele>789.79998779297</ele>
        <time>2021-03-04T13:28:23.000Z</time>
      </trkpt>
      <trkpt lat="43.74345" lon="7.06752">
        <ele>789.20001220703</ele>
        <time>2021-03-04T13:28:25.000Z</time>
      </trkpt>
      <trkpt lat="43.7435" lon="7.06762">
        <ele>788.79998779297</ele>
        <time>2021-03-04T13:28:27.000Z</time>
      </trkpt>
      <trkpt lat="43.74352" lon="7.06766">
        <ele>788.59997558594</ele>
        <time>2021-03-04T13:28:28.000Z</time>
      </trkpt>
      <trkpt lat="43.74363" lon="7.06774">
        <ele>787.40002441406</ele>
        <time>2021-03-04T13:28:31.000Z</time>
      </trkpt>
      <trkpt lat="43.74366" lon="7.06775">
        <ele>786.79998779297</ele>
        <time>2021-03-04T13:28:32.000Z</time>
      </trkpt>
      <trkpt lat="43.74369" lon="7.06775">
        <ele>786.20001220703</ele>
        <time>2021-03-04T13:28:33.000Z</time>
      </trkpt>
      <trkpt lat="43.74371" lon="7.06775">
        <ele>786.20001220703</ele>
        <time>2021-03-04T13:28:34.000Z</time>
      </trkpt>
      <trkpt lat="43.74372" lon="7.06775">
        <ele>785.20001220703</ele>
        <time>2021-03-04T13:28:35.000Z</time>
      </trkpt>
      <trkpt lat="43.74372" lon="7.06775">
        <ele>784.79998779297</ele>
        <time>2021-03-04T13:28:38.000Z</time>
      </trkpt>
      <trkpt lat="43.74377" lon="7.06775">
        <ele>784.59997558594</ele>
        <time>2021-03-04T13:28:43.000Z</time>
      </trkpt>
      <trkpt lat="43.74377" lon="7.06775">
        <ele>784.40002441406</ele>
        <time>2021-03-04T13:28:44.000Z</time>
      </trkpt>
      <trkpt lat="43.74378" lon="7.06775">
        <ele>784</ele>
        <time>2021-03-04T13:28:45.000Z</time>
      </trkpt>
      <trkpt lat="43.74379" lon="7.06779">
        <ele>783.40002441406</ele>
        <time>2021-03-04T13:28:48.000Z</time>
      </trkpt>
      <trkpt lat="43.74381" lon="7.06794">
        <ele>783</ele>
        <time>2021-03-04T13:28:52.000Z</time>
      </trkpt>
      <trkpt lat="43.74382" lon="7.06799">
        <ele>782.79998779297</ele>
        <time>2021-03-04T13:28:53.000Z</time>
      </trkpt>
      <trkpt lat="43.74385" lon="7.06815">
        <ele>784.20001220703</ele>
        <time>2021-03-04T13:28:58.000Z</time>
      </trkpt>
      <trkpt lat="43.74385" lon="7.06817">
        <ele>785.40002441406</ele>
        <time>2021-03-04T13:29:00.000Z</time>
      </trkpt>
      <trkpt lat="43.74385" lon="7.06818">
        <ele>785.59997558594</ele>
        <time>2021-03-04T13:29:01.000Z</time>
      </trkpt>
      <trkpt lat="43.74386" lon="7.06818">
        <ele>785.59997558594</ele>
        <time>2021-03-04T13:29:08.000Z</time>
      </trkpt>
      <trkpt lat="43.74385" lon="7.06828">
        <ele>785.59997558594</ele>
        <time>2021-03-04T13:29:13.000Z</time>
      </trkpt>
      <trkpt lat="43.74382" lon="7.06842">
        <ele>785</ele>
        <time>2021-03-04T13:29:16.000Z</time>
      </trkpt>
      <trkpt lat="43.74381" lon="7.06849">
        <ele>784.59997558594</ele>
        <time>2021-03-04T13:29:17.000Z</time>
      </trkpt>
      <trkpt lat="43.74381" lon="7.06856">
        <ele>784</ele>
        <time>2021-03-04T13:29:18.000Z</time>
      </trkpt>
      <trkpt lat="43.7438" lon="7.06872">
        <ele>782.59997558594</ele>
        <time>2021-03-04T13:29:20.000Z</time>
      </trkpt>
      <trkpt lat="43.7438" lon="7.06879">
        <ele>781.59997558594</ele>
        <time>2021-03-04T13:29:21.000Z</time>
      </trkpt>
      <trkpt lat="43.74378" lon="7.06887">
        <ele>780.59997558594</ele>
        <time>2021-03-04T13:29:22.000Z</time>
      </trkpt>
      <trkpt lat="43.74376" lon="7.06894">
        <ele>779.79998779297</ele>
        <time>2021-03-04T13:29:23.000Z</time>
      </trkpt>
      <trkpt lat="43.74376" lon="7.06915">
        <ele>778.79998779297</ele>
        <time>2021-03-04T13:29:26.000Z</time>
      </trkpt>
      <trkpt lat="43.74377" lon="7.06923">
        <ele>778.40002441406</ele>
        <time>2021-03-04T13:29:27.000Z</time>
      </trkpt>
      <trkpt lat="43.7438" lon="7.06942">
        <ele>777.20001220703</ele>
        <time>2021-03-04T13:29:30.000Z</time>
      </trkpt>
      <trkpt lat="43.7438" lon="7.06946">
        <ele>777</ele>
        <time>2021-03-04T13:29:31.000Z</time>
      </trkpt>
      <trkpt lat="43.74381" lon="7.06957">
        <ele>776.79998779297</ele>
        <time>2021-03-04T13:29:34.000Z</time>
      </trkpt>
      <trkpt lat="43.74379" lon="7.06961">
        <ele>776.59997558594</ele>
        <time>2021-03-04T13:29:35.000Z</time>
      </trkpt>
      <trkpt lat="43.74377" lon="7.06971">
        <ele>776</ele>
        <time>2021-03-04T13:29:37.000Z</time>
      </trkpt>
      <trkpt lat="43.74377" lon="7.06976">
        <ele>775.40002441406</ele>
        <time>2021-03-04T13:29:38.000Z</time>
      </trkpt>
      <trkpt lat="43.74377" lon="7.06981">
        <ele>775</ele>
        <time>2021-03-04T13:29:39.000Z</time>
      </trkpt>
      <trkpt lat="43.74377" lon="7.06986">
        <ele>774.20001220703</ele>
        <time>2021-03-04T13:29:40.000Z</time>
      </trkpt>
      <trkpt lat="43.74379" lon="7.06996">
        <ele>772.40002441406</ele>
        <time>2021-03-04T13:29:42.000Z</time>
      </trkpt>
      <trkpt lat="43.7438" lon="7.07001">
        <ele>771</ele>
        <time>2021-03-04T13:29:43.000Z</time>
      </trkpt>
      <trkpt lat="43.74381" lon="7.07012">
        <ele>769.59997558594</ele>
        <time>2021-03-04T13:29:45.000Z</time>
      </trkpt>
      <trkpt lat="43.74382" lon="7.07018">
        <ele>769</ele>
        <time>2021-03-04T13:29:46.000Z</time>
      </trkpt>
      <trkpt lat="43.74383" lon="7.07025">
        <ele>768.59997558594</ele>
        <time>2021-03-04T13:29:47.000Z</time>
      </trkpt>
      <trkpt lat="43.74384" lon="7.07037">
        <ele>767.40002441406</ele>
        <time>2021-03-04T13:29:49.000Z</time>
      </trkpt>
      <trkpt lat="43.74383" lon="7.07044">
        <ele>767.20001220703</ele>
        <time>2021-03-04T13:29:50.000Z</time>
      </trkpt>
      <trkpt lat="43.74385" lon="7.07055">
        <ele>765.79998779297</ele>
        <time>2021-03-04T13:29:52.000Z</time>
      </trkpt>
      <trkpt lat="43.74386" lon="7.0706">
        <ele>764.79998779297</ele>
        <time>2021-03-04T13:29:53.000Z</time>
      </trkpt>
      <trkpt lat="43.74387" lon="7.07066">
        <ele>764.40002441406</ele>
        <time>2021-03-04T13:29:54.000Z</time>
      </trkpt>
      <trkpt lat="43.7439" lon="7.07078">
        <ele>762.40002441406</ele>
        <time>2021-03-04T13:29:56.000Z</time>
      </trkpt>
      <trkpt lat="43.74392" lon="7.07084">
        <ele>762</ele>
        <time>2021-03-04T13:29:57.000Z</time>
      </trkpt>
      <trkpt lat="43.74393" lon="7.07092">
        <ele>761.20001220703</ele>
        <time>2021-03-04T13:29:59.000Z</time>
      </trkpt>
      <trkpt lat="43.74394" lon="7.07096">
        <ele>760.59997558594</ele>
        <time>2021-03-04T13:30:00.000Z</time>
      </trkpt>
      <trkpt lat="43.74393" lon="7.07101">
        <ele>760.20001220703</ele>
        <time>2021-03-04T13:30:01.000Z</time>
      </trkpt>
      <trkpt lat="43.74394" lon="7.0711">
        <ele>759</ele>
        <time>2021-03-04T13:30:03.000Z</time>
      </trkpt>
      <trkpt lat="43.74393" lon="7.07114">
        <ele>758</ele>
        <time>2021-03-04T13:30:04.000Z</time>
      </trkpt>
      <trkpt lat="43.74391" lon="7.07122">
        <ele>756.59997558594</ele>
        <time>2021-03-04T13:30:06.000Z</time>
      </trkpt>
      <trkpt lat="43.74392" lon="7.07129">
        <ele>755.20001220703</ele>
        <time>2021-03-04T13:30:08.000Z</time>
      </trkpt>
      <trkpt lat="43.74393" lon="7.07142">
        <ele>754</ele>
        <time>2021-03-04T13:30:11.000Z</time>
      </trkpt>
      <trkpt lat="43.74393" lon="7.07147">
        <ele>753.40002441406</ele>
        <time>2021-03-04T13:30:12.000Z</time>
      </trkpt>
      <trkpt lat="43.74393" lon="7.07159">
        <ele>752.40002441406</ele>
        <time>2021-03-04T13:30:14.000Z</time>
      </trkpt>
      <trkpt lat="43.74393" lon="7.07164">
        <ele>751.79998779297</ele>
        <time>2021-03-04T13:30:15.000Z</time>
      </trkpt>
      <trkpt lat="43.74395" lon="7.07168">
        <ele>751</ele>
        <time>2021-03-04T13:30:16.000Z</time>
      </trkpt>
      <trkpt lat="43.74398" lon="7.07176">
        <ele>749.79998779297</ele>
        <time>2021-03-04T13:30:18.000Z</time>
      </trkpt>
      <trkpt lat="43.74398" lon="7.07179">
        <ele>749.40002441406</ele>
        <time>2021-03-04T13:30:19.000Z</time>
      </trkpt>
      <trkpt lat="43.74398" lon="7.07183">
        <ele>748.59997558594</ele>
        <time>2021-03-04T13:30:21.000Z</time>
      </trkpt>
      <trkpt lat="43.74397" lon="7.07186">
        <ele>747.79998779297</ele>
        <time>2021-03-04T13:30:23.000Z</time>
      </trkpt>
      <trkpt lat="43.74398" lon="7.07191">
        <ele>747.20001220703</ele>
        <time>2021-03-04T13:30:25.000Z</time>
      </trkpt>
      <trkpt lat="43.74399" lon="7.07197">
        <ele>746.40002441406</ele>
        <time>2021-03-04T13:30:27.000Z</time>
      </trkpt>
      <trkpt lat="43.74397" lon="7.07205">
        <ele>746</ele>
        <time>2021-03-04T13:30:29.000Z</time>
      </trkpt>
      <trkpt lat="43.74397" lon="7.07209">
        <ele>746</ele>
        <time>2021-03-04T13:30:30.000Z</time>
      </trkpt>
      <trkpt lat="43.74397" lon="7.07213">
        <ele>745.79998779297</ele>
        <time>2021-03-04T13:30:31.000Z</time>
      </trkpt>
      <trkpt lat="43.74395" lon="7.07231">
        <ele>745</ele>
        <time>2021-03-04T13:30:35.000Z</time>
      </trkpt>
      <trkpt lat="43.74394" lon="7.07237">
        <ele>745.20001220703</ele>
        <time>2021-03-04T13:30:36.000Z</time>
      </trkpt>
      <trkpt lat="43.74393" lon="7.07251">
        <ele>744</ele>
        <time>2021-03-04T13:30:38.000Z</time>
      </trkpt>
      <trkpt lat="43.74392" lon="7.07256">
        <ele>743.59997558594</ele>
        <time>2021-03-04T13:30:39.000Z</time>
      </trkpt>
      <trkpt lat="43.74387" lon="7.07266">
        <ele>742.20001220703</ele>
        <time>2021-03-04T13:30:41.000Z</time>
      </trkpt>
      <trkpt lat="43.74385" lon="7.07273">
        <ele>741.40002441406</ele>
        <time>2021-03-04T13:30:43.000Z</time>
      </trkpt>
      <trkpt lat="43.74384" lon="7.07276">
        <ele>740.79998779297</ele>
        <time>2021-03-04T13:30:44.000Z</time>
      </trkpt>
      <trkpt lat="43.74381" lon="7.07288">
        <ele>739.79998779297</ele>
        <time>2021-03-04T13:30:47.000Z</time>
      </trkpt>
      <trkpt lat="43.7438" lon="7.07293">
        <ele>739.59997558594</ele>
        <time>2021-03-04T13:30:48.000Z</time>
      </trkpt>
      <trkpt lat="43.74379" lon="7.07306">
        <ele>738.59997558594</ele>
        <time>2021-03-04T13:30:51.000Z</time>
      </trkpt>
      <trkpt lat="43.74375" lon="7.07317">
        <ele>737.20001220703</ele>
        <time>2021-03-04T13:30:54.000Z</time>
      </trkpt>
      <trkpt lat="43.74376" lon="7.07329">
        <ele>736</ele>
        <time>2021-03-04T13:30:56.000Z</time>
      </trkpt>
      <trkpt lat="43.74376" lon="7.07337">
        <ele>735</ele>
        <time>2021-03-04T13:30:58.000Z</time>
      </trkpt>
      <trkpt lat="43.74373" lon="7.07347">
        <ele>734.59997558594</ele>
        <time>2021-03-04T13:31:00.000Z</time>
      </trkpt>
      <trkpt lat="43.74372" lon="7.07357">
        <ele>734.20001220703</ele>
        <time>2021-03-04T13:31:02.000Z</time>
      </trkpt>
      <trkpt lat="43.7437" lon="7.07366">
        <ele>733.79998779297</ele>
        <time>2021-03-04T13:31:04.000Z</time>
      </trkpt>
      <trkpt lat="43.74368" lon="7.07376">
        <ele>733.59997558594</ele>
        <time>2021-03-04T13:31:06.000Z</time>
      </trkpt>
      <trkpt lat="43.74368" lon="7.07382">
        <ele>733.79998779297</ele>
        <time>2021-03-04T13:31:07.000Z</time>
      </trkpt>
      <trkpt lat="43.74365" lon="7.07404">
        <ele>733.79998779297</ele>
        <time>2021-03-04T13:31:11.000Z</time>
      </trkpt>
      <trkpt lat="43.74363" lon="7.07416">
        <ele>733.79998779297</ele>
        <time>2021-03-04T13:31:13.000Z</time>
      </trkpt>
      <trkpt lat="43.7436" lon="7.07427">
        <ele>734</ele>
        <time>2021-03-04T13:31:15.000Z</time>
      </trkpt>
      <trkpt lat="43.74358" lon="7.07432">
        <ele>733.79998779297</ele>
        <time>2021-03-04T13:31:16.000Z</time>
      </trkpt>
      <trkpt lat="43.74357" lon="7.07436">
        <ele>733.59997558594</ele>
        <time>2021-03-04T13:31:17.000Z</time>
      </trkpt>
      <trkpt lat="43.74355" lon="7.07442">
        <ele>732.79998779297</ele>
        <time>2021-03-04T13:31:19.000Z</time>
      </trkpt>
      <trkpt lat="43.74355" lon="7.07448">
        <ele>732</ele>
        <time>2021-03-04T13:31:21.000Z</time>
      </trkpt>
      <trkpt lat="43.74355" lon="7.0745">
        <ele>731.79998779297</ele>
        <time>2021-03-04T13:31:22.000Z</time>
      </trkpt>
      <trkpt lat="43.74355" lon="7.07452">
        <ele>731</ele>
        <time>2021-03-04T13:31:25.000Z</time>
      </trkpt>
      <trkpt lat="43.74355" lon="7.07452">
        <ele>730.59997558594</ele>
        <time>2021-03-04T13:31:27.000Z</time>
      </trkpt>
      <trkpt lat="43.74355" lon="7.07454">
        <ele>730.59997558594</ele>
        <time>2021-03-04T13:31:30.000Z</time>
      </trkpt>
      <trkpt lat="43.74355" lon="7.07462">
        <ele>729.40002441406</ele>
        <time>2021-03-04T13:31:35.000Z</time>
      </trkpt>
      <trkpt lat="43.74353" lon="7.07479">
        <ele>728.40002441406</ele>
        <time>2021-03-04T13:31:39.000Z</time>
      </trkpt>
      <trkpt lat="43.74353" lon="7.0749">
        <ele>727</ele>
        <time>2021-03-04T13:31:41.000Z</time>
      </trkpt>
      <trkpt lat="43.74352" lon="7.07497">
        <ele>724.79998779297</ele>
        <time>2021-03-04T13:31:43.000Z</time>
      </trkpt>
      <trkpt lat="43.7435" lon="7.07508">
        <ele>723.59997558594</ele>
        <time>2021-03-04T13:31:46.000Z</time>
      </trkpt>
      <trkpt lat="43.74347" lon="7.07517">
        <ele>723.40002441406</ele>
        <time>2021-03-04T13:31:48.000Z</time>
      </trkpt>
      <trkpt lat="43.74344" lon="7.07526">
        <ele>722.20001220703</ele>
        <time>2021-03-04T13:31:50.000Z</time>
      </trkpt>
      <trkpt lat="43.7434" lon="7.07539">
        <ele>719.59997558594</ele>
        <time>2021-03-04T13:31:53.000Z</time>
      </trkpt>
      <trkpt lat="43.7434" lon="7.07544">
        <ele>718.59997558594</ele>
        <time>2021-03-04T13:31:54.000Z</time>
      </trkpt>
      <trkpt lat="43.74341" lon="7.07554">
        <ele>716.79998779297</ele>
        <time>2021-03-04T13:31:56.000Z</time>
      </trkpt>
      <trkpt lat="43.74341" lon="7.07559">
        <ele>715.79998779297</ele>
        <time>2021-03-04T13:31:57.000Z</time>
      </trkpt>
      <trkpt lat="43.74343" lon="7.07567">
        <ele>715.40002441406</ele>
        <time>2021-03-04T13:31:59.000Z</time>
      </trkpt>
      <trkpt lat="43.74345" lon="7.07575">
        <ele>714.59997558594</ele>
        <time>2021-03-04T13:32:01.000Z</time>
      </trkpt>
      <trkpt lat="43.74347" lon="7.07582">
        <ele>714.59997558594</ele>
        <time>2021-03-04T13:32:03.000Z</time>
      </trkpt>
      <trkpt lat="43.74349" lon="7.07598">
        <ele>713.40002441406</ele>
        <time>2021-03-04T13:32:07.000Z</time>
      </trkpt>
      <trkpt lat="43.74349" lon="7.07602">
        <ele>713</ele>
        <time>2021-03-04T13:32:08.000Z</time>
      </trkpt>
      <trkpt lat="43.7435" lon="7.07611">
        <ele>712.40002441406</ele>
        <time>2021-03-04T13:32:10.000Z</time>
      </trkpt>
      <trkpt lat="43.74349" lon="7.07616">
        <ele>712.20001220703</ele>
        <time>2021-03-04T13:32:11.000Z</time>
      </trkpt>
      <trkpt lat="43.74349" lon="7.07627">
        <ele>712</ele>
        <time>2021-03-04T13:32:13.000Z</time>
      </trkpt>
      <trkpt lat="43.74349" lon="7.0764">
        <ele>711.20001220703</ele>
        <time>2021-03-04T13:32:15.000Z</time>
      </trkpt>
      <trkpt lat="43.74349" lon="7.07646">
        <ele>710.40002441406</ele>
        <time>2021-03-04T13:32:16.000Z</time>
      </trkpt>
      <trkpt lat="43.7435" lon="7.07653">
        <ele>709.79998779297</ele>
        <time>2021-03-04T13:32:17.000Z</time>
      </trkpt>
      <trkpt lat="43.74351" lon="7.07665">
        <ele>708.40002441406</ele>
        <time>2021-03-04T13:32:19.000Z</time>
      </trkpt>
      <trkpt lat="43.74352" lon="7.07677">
        <ele>707.79998779297</ele>
        <time>2021-03-04T13:32:21.000Z</time>
      </trkpt>
      <trkpt lat="43.74354" lon="7.07685">
        <ele>707.59997558594</ele>
        <time>2021-03-04T13:32:22.000Z</time>
      </trkpt>
      <trkpt lat="43.74357" lon="7.07692">
        <ele>706.79998779297</ele>
        <time>2021-03-04T13:32:23.000Z</time>
      </trkpt>
      <trkpt lat="43.74364" lon="7.077">
        <ele>706</ele>
        <time>2021-03-04T13:32:25.000Z</time>
      </trkpt>
      <trkpt lat="43.74368" lon="7.07701">
        <ele>705</ele>
        <time>2021-03-04T13:32:26.000Z</time>
      </trkpt>
      <trkpt lat="43.74373" lon="7.07707">
        <ele>704.20001220703</ele>
        <time>2021-03-04T13:32:28.000Z</time>
      </trkpt>
      <trkpt lat="43.74375" lon="7.0771">
        <ele>704.40002441406</ele>
        <time>2021-03-04T13:32:29.000Z</time>
      </trkpt>
      <trkpt lat="43.7438" lon="7.07725">
        <ele>705.20001220703</ele>
        <time>2021-03-04T13:32:32.000Z</time>
      </trkpt>
      <trkpt lat="43.74382" lon="7.07731">
        <ele>705</ele>
        <time>2021-03-04T13:32:33.000Z</time>
      </trkpt>
      <trkpt lat="43.74389" lon="7.07753">
        <ele>703.40002441406</ele>
        <time>2021-03-04T13:32:37.000Z</time>
      </trkpt>
      <trkpt lat="43.7439" lon="7.07757">
        <ele>702.79998779297</ele>
        <time>2021-03-04T13:32:38.000Z</time>
      </trkpt>
      <trkpt lat="43.74393" lon="7.07766">
        <ele>701.79998779297</ele>
        <time>2021-03-04T13:32:40.000Z</time>
      </trkpt>
      <trkpt lat="43.74394" lon="7.0778">
        <ele>701.20001220703</ele>
        <time>2021-03-04T13:32:43.000Z</time>
      </trkpt>
      <trkpt lat="43.74394" lon="7.07784">
        <ele>700.79998779297</ele>
        <time>2021-03-04T13:32:44.000Z</time>
      </trkpt>
      <trkpt lat="43.74394" lon="7.07792">
        <ele>699.59997558594</ele>
        <time>2021-03-04T13:32:47.000Z</time>
      </trkpt>
      <trkpt lat="43.74391" lon="7.07795">
        <ele>698.20001220703</ele>
        <time>2021-03-04T13:32:49.000Z</time>
      </trkpt>
      <trkpt lat="43.74387" lon="7.07798">
        <ele>697</ele>
        <time>2021-03-04T13:32:51.000Z</time>
      </trkpt>
      <trkpt lat="43.74383" lon="7.07797">
        <ele>695.40002441406</ele>
        <time>2021-03-04T13:32:53.000Z</time>
      </trkpt>
      <trkpt lat="43.74379" lon="7.07795">
        <ele>693.59997558594</ele>
        <time>2021-03-04T13:32:55.000Z</time>
      </trkpt>
      <trkpt lat="43.74375" lon="7.07796">
        <ele>692.20001220703</ele>
        <time>2021-03-04T13:32:57.000Z</time>
      </trkpt>
      <trkpt lat="43.74371" lon="7.07797">
        <ele>690.79998779297</ele>
        <time>2021-03-04T13:32:59.000Z</time>
      </trkpt>
      <trkpt lat="43.74366" lon="7.07798">
        <ele>689.40002441406</ele>
        <time>2021-03-04T13:33:01.000Z</time>
      </trkpt>
      <trkpt lat="43.74363" lon="7.07799">
        <ele>688.59997558594</ele>
        <time>2021-03-04T13:33:02.000Z</time>
      </trkpt>
      <trkpt lat="43.74361" lon="7.078">
        <ele>688.20001220703</ele>
        <time>2021-03-04T13:33:03.000Z</time>
      </trkpt>
      <trkpt lat="43.74359" lon="7.078">
        <ele>687.20001220703</ele>
        <time>2021-03-04T13:33:04.000Z</time>
      </trkpt>
      <trkpt lat="43.74353" lon="7.07798">
        <ele>685.79998779297</ele>
        <time>2021-03-04T13:33:06.000Z</time>
      </trkpt>
      <trkpt lat="43.74349" lon="7.07793">
        <ele>684.40002441406</ele>
        <time>2021-03-04T13:33:08.000Z</time>
      </trkpt>
      <trkpt lat="43.74346" lon="7.0779">
        <ele>683.79998779297</ele>
        <time>2021-03-04T13:33:09.000Z</time>
      </trkpt>
      <trkpt lat="43.74344" lon="7.07788">
        <ele>683</ele>
        <time>2021-03-04T13:33:10.000Z</time>
      </trkpt>
      <trkpt lat="43.74341" lon="7.07786">
        <ele>682</ele>
        <time>2021-03-04T13:33:11.000Z</time>
      </trkpt>
      <trkpt lat="43.74336" lon="7.0778">
        <ele>680.59997558594</ele>
        <time>2021-03-04T13:33:13.000Z</time>
      </trkpt>
      <trkpt lat="43.74332" lon="7.07778">
        <ele>679.59997558594</ele>
        <time>2021-03-04T13:33:14.000Z</time>
      </trkpt>
      <trkpt lat="43.74328" lon="7.07775">
        <ele>678.79998779297</ele>
        <time>2021-03-04T13:33:15.000Z</time>
      </trkpt>
      <trkpt lat="43.74322" lon="7.07771">
        <ele>677.20001220703</ele>
        <time>2021-03-04T13:33:17.000Z</time>
      </trkpt>
      <trkpt lat="43.74317" lon="7.07765">
        <ele>675.59997558594</ele>
        <time>2021-03-04T13:33:19.000Z</time>
      </trkpt>
      <trkpt lat="43.74312" lon="7.07761">
        <ele>674.40002441406</ele>
        <time>2021-03-04T13:33:21.000Z</time>
      </trkpt>
      <trkpt lat="43.74306" lon="7.07759">
        <ele>673.40002441406</ele>
        <time>2021-03-04T13:33:23.000Z</time>
      </trkpt>
      <trkpt lat="43.743" lon="7.07759">
        <ele>672.20001220703</ele>
        <time>2021-03-04T13:33:25.000Z</time>
      </trkpt>
      <trkpt lat="43.74293" lon="7.07759">
        <ele>671</ele>
        <time>2021-03-04T13:33:27.000Z</time>
      </trkpt>
      <trkpt lat="43.74287" lon="7.07759">
        <ele>669.40002441406</ele>
        <time>2021-03-04T13:33:29.000Z</time>
      </trkpt>
      <trkpt lat="43.74287" lon="7.07764">
        <ele>667.79998779297</ele>
        <time>2021-03-04T13:33:31.000Z</time>
      </trkpt>
      <trkpt lat="43.74288" lon="7.07767">
        <ele>667.40002441406</ele>
        <time>2021-03-04T13:33:32.000Z</time>
      </trkpt>
      <trkpt lat="43.74292" lon="7.07773">
        <ele>666.59997558594</ele>
        <time>2021-03-04T13:33:34.000Z</time>
      </trkpt>
      <trkpt lat="43.74294" lon="7.07786">
        <ele>665.40002441406</ele>
        <time>2021-03-04T13:33:37.000Z</time>
      </trkpt>
      <trkpt lat="43.7429" lon="7.07796">
        <ele>664</ele>
        <time>2021-03-04T13:33:40.000Z</time>
      </trkpt>
      <trkpt lat="43.74287" lon="7.07792">
        <ele>662.79998779297</ele>
        <time>2021-03-04T13:33:42.000Z</time>
      </trkpt>
      <trkpt lat="43.74286" lon="7.0779">
        <ele>662</ele>
        <time>2021-03-04T13:33:43.000Z</time>
      </trkpt>
      <trkpt lat="43.74284" lon="7.0779">
        <ele>661.20001220703</ele>
        <time>2021-03-04T13:33:44.000Z</time>
      </trkpt>
      <trkpt lat="43.74284" lon="7.07793">
        <ele>660.79998779297</ele>
        <time>2021-03-04T13:33:46.000Z</time>
      </trkpt>
      <trkpt lat="43.74284" lon="7.07796">
        <ele>660.20001220703</ele>
        <time>2021-03-04T13:33:47.000Z</time>
      </trkpt>
      <trkpt lat="43.74286" lon="7.07804">
        <ele>659.40002441406</ele>
        <time>2021-03-04T13:33:50.000Z</time>
      </trkpt>
      <trkpt lat="43.74286" lon="7.07806">
        <ele>659.20001220703</ele>
        <time>2021-03-04T13:33:51.000Z</time>
      </trkpt>
      <trkpt lat="43.74283" lon="7.07808">
        <ele>659.20001220703</ele>
        <time>2021-03-04T13:33:53.000Z</time>
      </trkpt>
      <trkpt lat="43.74282" lon="7.07807">
        <ele>658.79998779297</ele>
        <time>2021-03-04T13:33:54.000Z</time>
      </trkpt>
      <trkpt lat="43.74282" lon="7.07806">
        <ele>657.59997558594</ele>
        <time>2021-03-04T13:33:57.000Z</time>
      </trkpt>
      <trkpt lat="43.74282" lon="7.07806">
        <ele>657.20001220703</ele>
        <time>2021-03-04T13:33:58.000Z</time>
      </trkpt>
      <trkpt lat="43.74281" lon="7.07805">
        <ele>656.40002441406</ele>
        <time>2021-03-04T13:34:04.000Z</time>
      </trkpt>
      <trkpt lat="43.74281" lon="7.07804">
        <ele>656.40002441406</ele>
        <time>2021-03-04T13:34:05.000Z</time>
      </trkpt>
      <trkpt lat="43.74281" lon="7.07803">
        <ele>655.79998779297</ele>
        <time>2021-03-04T13:34:10.000Z</time>
      </trkpt>
      <trkpt lat="43.74277" lon="7.07799">
        <ele>655.59997558594</ele>
        <time>2021-03-04T13:34:16.000Z</time>
      </trkpt>
      <trkpt lat="43.74276" lon="7.07795">
        <ele>655.40002441406</ele>
        <time>2021-03-04T13:34:20.000Z</time>
      </trkpt>
      <trkpt lat="43.74274" lon="7.07794">
        <ele>654.79998779297</ele>
        <time>2021-03-04T13:34:23.000Z</time>
      </trkpt>
      <trkpt lat="43.74273" lon="7.07795">
        <ele>654.40002441406</ele>
        <time>2021-03-04T13:34:26.000Z</time>
      </trkpt>
      <trkpt lat="43.74273" lon="7.07796">
        <ele>654</ele>
        <time>2021-03-04T13:34:28.000Z</time>
      </trkpt>
      <trkpt lat="43.74272" lon="7.07798">
        <ele>653</ele>
        <time>2021-03-04T13:34:32.000Z</time>
      </trkpt>
      <trkpt lat="43.74271" lon="7.07799">
        <ele>653</ele>
        <time>2021-03-04T13:34:34.000Z</time>
      </trkpt>
      <trkpt lat="43.74268" lon="7.078">
        <ele>653.40002441406</ele>
        <time>2021-03-04T13:34:42.000Z</time>
      </trkpt>
      <trkpt lat="43.74263" lon="7.078">
        <ele>652.79998779297</ele>
        <time>2021-03-04T13:34:50.000Z</time>
      </trkpt>
      <trkpt lat="43.7426" lon="7.07801">
        <ele>652</ele>
        <time>2021-03-04T13:34:53.000Z</time>
      </trkpt>
      <trkpt lat="43.74258" lon="7.07801">
        <ele>651.59997558594</ele>
        <time>2021-03-04T13:34:56.000Z</time>
      </trkpt>
      <trkpt lat="43.74256" lon="7.07803">
        <ele>651.59997558594</ele>
        <time>2021-03-04T13:35:01.000Z</time>
      </trkpt>
      <trkpt lat="43.74256" lon="7.07804">
        <ele>651.79998779297</ele>
        <time>2021-03-04T13:35:05.000Z</time>
      </trkpt>
      <trkpt lat="43.74253" lon="7.07806">
        <ele>651.79998779297</ele>
        <time>2021-03-04T13:35:07.000Z</time>
      </trkpt>
      <trkpt lat="43.74242" lon="7.07817">
        <ele>651.59997558594</ele>
        <time>2021-03-04T13:35:12.000Z</time>
      </trkpt>
      <trkpt lat="43.74239" lon="7.07824">
        <ele>651.79998779297</ele>
        <time>2021-03-04T13:35:14.000Z</time>
      </trkpt>
      <trkpt lat="43.74239" lon="7.07831">
        <ele>651.79998779297</ele>
        <time>2021-03-04T13:35:16.000Z</time>
      </trkpt>
      <trkpt lat="43.74236" lon="7.07838">
        <ele>652</ele>
        <time>2021-03-04T13:35:18.000Z</time>
      </trkpt>
      <trkpt lat="43.74231" lon="7.07853">
        <ele>652.40002441406</ele>
        <time>2021-03-04T13:35:22.000Z</time>
      </trkpt>
      <trkpt lat="43.74229" lon="7.07874">
        <ele>652.59997558594</ele>
        <time>2021-03-04T13:35:27.000Z</time>
      </trkpt>
      <trkpt lat="43.74228" lon="7.0788">
        <ele>653</ele>
        <time>2021-03-04T13:35:29.000Z</time>
      </trkpt>
      <trkpt lat="43.74227" lon="7.07886">
        <ele>653.40002441406</ele>
        <time>2021-03-04T13:35:31.000Z</time>
      </trkpt>
      <trkpt lat="43.74228" lon="7.07897">
        <ele>652.40002441406</ele>
        <time>2021-03-04T13:35:34.000Z</time>
      </trkpt>
      <trkpt lat="43.74228" lon="7.07902">
        <ele>651.59997558594</ele>
        <time>2021-03-04T13:35:35.000Z</time>
      </trkpt>
      <trkpt lat="43.74229" lon="7.07906">
        <ele>650.79998779297</ele>
        <time>2021-03-04T13:35:36.000Z</time>
      </trkpt>
      <trkpt lat="43.7423" lon="7.07911">
        <ele>649.79998779297</ele>
        <time>2021-03-04T13:35:37.000Z</time>
      </trkpt>
      <trkpt lat="43.74232" lon="7.07917">
        <ele>649.20001220703</ele>
        <time>2021-03-04T13:35:38.000Z</time>
      </trkpt>
      <trkpt lat="43.74233" lon="7.07923">
        <ele>648.59997558594</ele>
        <time>2021-03-04T13:35:39.000Z</time>
      </trkpt>
      <trkpt lat="43.74233" lon="7.07931">
        <ele>648</ele>
        <time>2021-03-04T13:35:40.000Z</time>
      </trkpt>
      <trkpt lat="43.74233" lon="7.07938">
        <ele>647.59997558594</ele>
        <time>2021-03-04T13:35:41.000Z</time>
      </trkpt>
      <trkpt lat="43.74232" lon="7.07943">
        <ele>647.20001220703</ele>
        <time>2021-03-04T13:35:42.000Z</time>
      </trkpt>
      <trkpt lat="43.74235" lon="7.07952">
        <ele>646.79998779297</ele>
        <time>2021-03-04T13:35:44.000Z</time>
      </trkpt>
      <trkpt lat="43.74236" lon="7.07958">
        <ele>648</ele>
        <time>2021-03-04T13:35:46.000Z</time>
      </trkpt>
      <trkpt lat="43.74237" lon="7.0796">
        <ele>649.40002441406</ele>
        <time>2021-03-04T13:35:48.000Z</time>
      </trkpt>
      <trkpt lat="43.74238" lon="7.07961">
        <ele>650.59997558594</ele>
        <time>2021-03-04T13:35:50.000Z</time>
      </trkpt>
      <trkpt lat="43.74238" lon="7.0797">
        <ele>651.59997558594</ele>
        <time>2021-03-04T13:35:54.000Z</time>
      </trkpt>
      <trkpt lat="43.74237" lon="7.07972">
        <ele>652</ele>
        <time>2021-03-04T13:35:55.000Z</time>
      </trkpt>
      <trkpt lat="43.74235" lon="7.0798">
        <ele>653</ele>
        <time>2021-03-04T13:35:58.000Z</time>
      </trkpt>
      <trkpt lat="43.74234" lon="7.07982">
        <ele>653.20001220703</ele>
        <time>2021-03-04T13:35:59.000Z</time>
      </trkpt>
      <trkpt lat="43.74228" lon="7.07995">
        <ele>654.20001220703</ele>
        <time>2021-03-04T13:36:03.000Z</time>
      </trkpt>
      <trkpt lat="43.74227" lon="7.07997">
        <ele>654.59997558594</ele>
        <time>2021-03-04T13:36:04.000Z</time>
      </trkpt>
      <trkpt lat="43.74223" lon="7.08005">
        <ele>655.59997558594</ele>
        <time>2021-03-04T13:36:07.000Z</time>
      </trkpt>
      <trkpt lat="43.74218" lon="7.08012">
        <ele>656</ele>
        <time>2021-03-04T13:36:09.000Z</time>
      </trkpt>
      <trkpt lat="43.74214" lon="7.08029">
        <ele>656</ele>
        <time>2021-03-04T13:36:13.000Z</time>
      </trkpt>
      <trkpt lat="43.74209" lon="7.0804">
        <ele>657</ele>
        <time>2021-03-04T13:36:16.000Z</time>
      </trkpt>
      <trkpt lat="43.74208" lon="7.08049">
        <ele>657.79998779297</ele>
        <time>2021-03-04T13:36:18.000Z</time>
      </trkpt>
      <trkpt lat="43.74205" lon="7.08059">
        <ele>658.20001220703</ele>
        <time>2021-03-04T13:36:20.000Z</time>
      </trkpt>
      <trkpt lat="43.74203" lon="7.08064">
        <ele>658</ele>
        <time>2021-03-04T13:36:21.000Z</time>
      </trkpt>
      <trkpt lat="43.742" lon="7.08069">
        <ele>657.79998779297</ele>
        <time>2021-03-04T13:36:22.000Z</time>
      </trkpt>
      <trkpt lat="43.74193" lon="7.08081">
        <ele>657</ele>
        <time>2021-03-04T13:36:25.000Z</time>
      </trkpt>
      <trkpt lat="43.74189" lon="7.08092">
        <ele>657.40002441406</ele>
        <time>2021-03-04T13:36:28.000Z</time>
      </trkpt>
      <trkpt lat="43.74187" lon="7.08095">
        <ele>657.79998779297</ele>
        <time>2021-03-04T13:36:29.000Z</time>
      </trkpt>
      <trkpt lat="43.74181" lon="7.08099">
        <ele>658.20001220703</ele>
        <time>2021-03-04T13:36:31.000Z</time>
      </trkpt>
      <trkpt lat="43.74177" lon="7.0811">
        <ele>658</ele>
        <time>2021-03-04T13:36:34.000Z</time>
      </trkpt>
      <trkpt lat="43.74176" lon="7.08113">
        <ele>658</ele>
        <time>2021-03-04T13:36:35.000Z</time>
      </trkpt>
      <trkpt lat="43.74173" lon="7.08117">
        <ele>658</ele>
        <time>2021-03-04T13:36:37.000Z</time>
      </trkpt>
      <trkpt lat="43.74167" lon="7.08125">
        <ele>659.40002441406</ele>
        <time>2021-03-04T13:36:40.000Z</time>
      </trkpt>
      <trkpt lat="43.74161" lon="7.08134">
        <ele>659.59997558594</ele>
        <time>2021-03-04T13:36:42.000Z</time>
      </trkpt>
      <trkpt lat="43.7415" lon="7.08145">
        <ele>657.79998779297</ele>
        <time>2021-03-04T13:36:45.000Z</time>
      </trkpt>
      <trkpt lat="43.74146" lon="7.08145">
        <ele>657</ele>
        <time>2021-03-04T13:36:46.000Z</time>
      </trkpt>
      <trkpt lat="43.74141" lon="7.08145">
        <ele>656.40002441406</ele>
        <time>2021-03-04T13:36:47.000Z</time>
      </trkpt>
      <trkpt lat="43.74132" lon="7.08147">
        <ele>655.79998779297</ele>
        <time>2021-03-04T13:36:49.000Z</time>
      </trkpt>
      <trkpt lat="43.74127" lon="7.08149">
        <ele>655.79998779297</ele>
        <time>2021-03-04T13:36:50.000Z</time>
      </trkpt>
      <trkpt lat="43.74115" lon="7.08165">
        <ele>655.20001220703</ele>
        <time>2021-03-04T13:36:53.000Z</time>
      </trkpt>
      <trkpt lat="43.74108" lon="7.08176">
        <ele>654.20001220703</ele>
        <time>2021-03-04T13:36:55.000Z</time>
      </trkpt>
      <trkpt lat="43.74105" lon="7.08182">
        <ele>653.40002441406</ele>
        <time>2021-03-04T13:36:56.000Z</time>
      </trkpt>
      <trkpt lat="43.741" lon="7.08188">
        <ele>653</ele>
        <time>2021-03-04T13:36:57.000Z</time>
      </trkpt>
      <trkpt lat="43.74096" lon="7.08193">
        <ele>652.59997558594</ele>
        <time>2021-03-04T13:36:58.000Z</time>
      </trkpt>
      <trkpt lat="43.74092" lon="7.08199">
        <ele>652.40002441406</ele>
        <time>2021-03-04T13:36:59.000Z</time>
      </trkpt>
      <trkpt lat="43.74088" lon="7.08206">
        <ele>652</ele>
        <time>2021-03-04T13:37:00.000Z</time>
      </trkpt>
      <trkpt lat="43.74078" lon="7.08216">
        <ele>651.20001220703</ele>
        <time>2021-03-04T13:37:02.000Z</time>
      </trkpt>
      <trkpt lat="43.74072" lon="7.08219">
        <ele>650.79998779297</ele>
        <time>2021-03-04T13:37:03.000Z</time>
      </trkpt>
      <trkpt lat="43.74067" lon="7.08222">
        <ele>650.40002441406</ele>
        <time>2021-03-04T13:37:04.000Z</time>
      </trkpt>
      <trkpt lat="43.74062" lon="7.08226">
        <ele>650.20001220703</ele>
        <time>2021-03-04T13:37:05.000Z</time>
      </trkpt>
      <trkpt lat="43.74059" lon="7.08231">
        <ele>649.59997558594</ele>
        <time>2021-03-04T13:37:06.000Z</time>
      </trkpt>
      <trkpt lat="43.74055" lon="7.08236">
        <ele>648.59997558594</ele>
        <time>2021-03-04T13:37:08.000Z</time>
      </trkpt>
      <trkpt lat="43.74054" lon="7.08237">
        <ele>648.59997558594</ele>
        <time>2021-03-04T13:37:09.000Z</time>
      </trkpt>
      <trkpt lat="43.74053" lon="7.08237">
        <ele>647.59997558594</ele>
        <time>2021-03-04T13:37:10.000Z</time>
      </trkpt>
      <trkpt lat="43.74049" lon="7.08241">
        <ele>647.20001220703</ele>
        <time>2021-03-04T13:37:13.000Z</time>
      </trkpt>
      <trkpt lat="43.74042" lon="7.08247">
        <ele>646.59997558594</ele>
        <time>2021-03-04T13:37:17.000Z</time>
      </trkpt>
      <trkpt lat="43.74042" lon="7.08248">
        <ele>645.59997558594</ele>
        <time>2021-03-04T13:37:22.000Z</time>
      </trkpt>
      <trkpt lat="43.74042" lon="7.08248">
        <ele>645.40002441406</ele>
        <time>2021-03-04T13:37:23.000Z</time>
      </trkpt>
      <trkpt lat="43.74043" lon="7.08249">
        <ele>645.20001220703</ele>
        <time>2021-03-04T13:37:33.000Z</time>
      </trkpt>
      <trkpt lat="43.74043" lon="7.08251">
        <ele>645.40002441406</ele>
        <time>2021-03-04T13:37:54.000Z</time>
      </trkpt>
      <trkpt lat="43.74043" lon="7.08251">
        <ele>645.20001220703</ele>
        <time>2021-03-04T13:38:00.000Z</time>
      </trkpt>
      <trkpt lat="43.74042" lon="7.08252">
        <ele>645.59997558594</ele>
        <time>2021-03-04T13:38:03.000Z</time>
      </trkpt>
      <trkpt lat="43.74038" lon="7.08256">
        <ele>645.59997558594</ele>
        <time>2021-03-04T13:38:05.000Z</time>
      </trkpt>
      <trkpt lat="43.74023" lon="7.08273">
        <ele>644.40002441406</ele>
        <time>2021-03-04T13:38:10.000Z</time>
      </trkpt>
      <trkpt lat="43.74019" lon="7.08276">
        <ele>643.79998779297</ele>
        <time>2021-03-04T13:38:11.000Z</time>
      </trkpt>
      <trkpt lat="43.74012" lon="7.08283">
        <ele>642.79998779297</ele>
        <time>2021-03-04T13:38:13.000Z</time>
      </trkpt>
      <trkpt lat="43.74008" lon="7.08287">
        <ele>642.20001220703</ele>
        <time>2021-03-04T13:38:14.000Z</time>
      </trkpt>
      <trkpt lat="43.74003" lon="7.08291">
        <ele>641.59997558594</ele>
        <time>2021-03-04T13:38:15.000Z</time>
      </trkpt>
      <trkpt lat="43.73993" lon="7.08299">
        <ele>640.59997558594</ele>
        <time>2021-03-04T13:38:17.000Z</time>
      </trkpt>
      <trkpt lat="43.73989" lon="7.08304">
        <ele>639.79998779297</ele>
        <time>2021-03-04T13:38:18.000Z</time>
      </trkpt>
      <trkpt lat="43.73984" lon="7.08309">
        <ele>639.20001220703</ele>
        <time>2021-03-04T13:38:19.000Z</time>
      </trkpt>
      <trkpt lat="43.73984" lon="7.08314">
        <ele>638.20001220703</ele>
        <time>2021-03-04T13:38:20.000Z</time>
      </trkpt>
      <trkpt lat="43.73978" lon="7.08325">
        <ele>637.20001220703</ele>
        <time>2021-03-04T13:38:22.000Z</time>
      </trkpt>
      <trkpt lat="43.73968" lon="7.0834">
        <ele>638</ele>
        <time>2021-03-04T13:38:26.000Z</time>
      </trkpt>
      <trkpt lat="43.73957" lon="7.08344">
        <ele>638.40002441406</ele>
        <time>2021-03-04T13:38:30.000Z</time>
      </trkpt>
      <trkpt lat="43.73947" lon="7.08354">
        <ele>637.59997558594</ele>
        <time>2021-03-04T13:38:34.000Z</time>
      </trkpt>
      <trkpt lat="43.73945" lon="7.08353">
        <ele>637.79998779297</ele>
        <time>2021-03-04T13:38:35.000Z</time>
      </trkpt>
      <trkpt lat="43.73939" lon="7.08356">
        <ele>638.79998779297</ele>
        <time>2021-03-04T13:38:37.000Z</time>
      </trkpt>
      <trkpt lat="43.73934" lon="7.08357">
        <ele>639</ele>
        <time>2021-03-04T13:38:39.000Z</time>
      </trkpt>
      <trkpt lat="43.73929" lon="7.08355">
        <ele>638.59997558594</ele>
        <time>2021-03-04T13:38:41.000Z</time>
      </trkpt>
      <trkpt lat="43.73926" lon="7.08355">
        <ele>637.79998779297</ele>
        <time>2021-03-04T13:38:42.000Z</time>
      </trkpt>
      <trkpt lat="43.73918" lon="7.08358">
        <ele>636.79998779297</ele>
        <time>2021-03-04T13:38:44.000Z</time>
      </trkpt>
      <trkpt lat="43.7391" lon="7.08365">
        <ele>635.59997558594</ele>
        <time>2021-03-04T13:38:46.000Z</time>
      </trkpt>
      <trkpt lat="43.73906" lon="7.08368">
        <ele>635.20001220703</ele>
        <time>2021-03-04T13:38:47.000Z</time>
      </trkpt>
      <trkpt lat="43.73903" lon="7.08371">
        <ele>635</ele>
        <time>2021-03-04T13:38:48.000Z</time>
      </trkpt>
      <trkpt lat="43.73895" lon="7.08375">
        <ele>634.59997558594</ele>
        <time>2021-03-04T13:38:50.000Z</time>
      </trkpt>
      <trkpt lat="43.73891" lon="7.08376">
        <ele>634</ele>
        <time>2021-03-04T13:38:51.000Z</time>
      </trkpt>
      <trkpt lat="43.73887" lon="7.08378">
        <ele>633.79998779297</ele>
        <time>2021-03-04T13:38:52.000Z</time>
      </trkpt>
      <trkpt lat="43.73878" lon="7.08381">
        <ele>632.79998779297</ele>
        <time>2021-03-04T13:38:54.000Z</time>
      </trkpt>
      <trkpt lat="43.73873" lon="7.08381">
        <ele>632.20001220703</ele>
        <time>2021-03-04T13:38:55.000Z</time>
      </trkpt>
      <trkpt lat="43.73864" lon="7.08383">
        <ele>631.40002441406</ele>
        <time>2021-03-04T13:38:57.000Z</time>
      </trkpt>
      <trkpt lat="43.73852" lon="7.08384">
        <ele>630</ele>
        <time>2021-03-04T13:39:00.000Z</time>
      </trkpt>
      <trkpt lat="43.73844" lon="7.08383">
        <ele>629</ele>
        <time>2021-03-04T13:39:02.000Z</time>
      </trkpt>
      <trkpt lat="43.7384" lon="7.08383">
        <ele>628.79998779297</ele>
        <time>2021-03-04T13:39:03.000Z</time>
      </trkpt>
      <trkpt lat="43.73834" lon="7.08386">
        <ele>627.79998779297</ele>
        <time>2021-03-04T13:39:05.000Z</time>
      </trkpt>
      <trkpt lat="43.73832" lon="7.08388">
        <ele>626.79998779297</ele>
        <time>2021-03-04T13:39:06.000Z</time>
      </trkpt>
      <trkpt lat="43.73829" lon="7.08391">
        <ele>625.59997558594</ele>
        <time>2021-03-04T13:39:08.000Z</time>
      </trkpt>
      <trkpt lat="43.73827" lon="7.08393">
        <ele>625.79998779297</ele>
        <time>2021-03-04T13:39:09.000Z</time>
      </trkpt>
      <trkpt lat="43.73826" lon="7.08395">
        <ele>625.59997558594</ele>
        <time>2021-03-04T13:39:10.000Z</time>
      </trkpt>
      <trkpt lat="43.73825" lon="7.08399">
        <ele>625.59997558594</ele>
        <time>2021-03-04T13:39:11.000Z</time>
      </trkpt>
      <trkpt lat="43.73818" lon="7.08411">
        <ele>625.20001220703</ele>
        <time>2021-03-04T13:39:15.000Z</time>
      </trkpt>
      <trkpt lat="43.73801" lon="7.08416">
        <ele>624.59997558594</ele>
        <time>2021-03-04T13:39:20.000Z</time>
      </trkpt>
      <trkpt lat="43.73797" lon="7.08417">
        <ele>624.20001220703</ele>
        <time>2021-03-04T13:39:21.000Z</time>
      </trkpt>
      <trkpt lat="43.73791" lon="7.08421">
        <ele>623</ele>
        <time>2021-03-04T13:39:23.000Z</time>
      </trkpt>
      <trkpt lat="43.7379" lon="7.08422">
        <ele>622.79998779297</ele>
        <time>2021-03-04T13:39:24.000Z</time>
      </trkpt>
      <trkpt lat="43.73789" lon="7.08423">
        <ele>622.79998779297</ele>
        <time>2021-03-04T13:39:25.000Z</time>
      </trkpt>
      <trkpt lat="43.73784" lon="7.08426">
        <ele>624.40002441406</ele>
        <time>2021-03-04T13:39:28.000Z</time>
      </trkpt>
      <trkpt lat="43.73782" lon="7.08427">
        <ele>624.40002441406</ele>
        <time>2021-03-04T13:39:29.000Z</time>
      </trkpt>
      <trkpt lat="43.7377" lon="7.08434">
        <ele>625.40002441406</ele>
        <time>2021-03-04T13:39:34.000Z</time>
      </trkpt>
      <trkpt lat="43.73767" lon="7.08437">
        <ele>625.59997558594</ele>
        <time>2021-03-04T13:39:35.000Z</time>
      </trkpt>
      <trkpt lat="43.73757" lon="7.08443">
        <ele>626.40002441406</ele>
        <time>2021-03-04T13:39:39.000Z</time>
      </trkpt>
      <trkpt lat="43.73755" lon="7.08447">
        <ele>626.79998779297</ele>
        <time>2021-03-04T13:39:40.000Z</time>
      </trkpt>
      <trkpt lat="43.7375" lon="7.08456">
        <ele>627</ele>
        <time>2021-03-04T13:39:42.000Z</time>
      </trkpt>
      <trkpt lat="43.73743" lon="7.08462">
        <ele>626.79998779297</ele>
        <time>2021-03-04T13:39:44.000Z</time>
      </trkpt>
      <trkpt lat="43.73725" lon="7.08466">
        <ele>626</ele>
        <time>2021-03-04T13:39:48.000Z</time>
      </trkpt>
      <trkpt lat="43.73714" lon="7.08477">
        <ele>625.79998779297</ele>
        <time>2021-03-04T13:39:52.000Z</time>
      </trkpt>
      <trkpt lat="43.73712" lon="7.08485">
        <ele>626</ele>
        <time>2021-03-04T13:39:54.000Z</time>
      </trkpt>
      <trkpt lat="43.73707" lon="7.08504">
        <ele>627.20001220703</ele>
        <time>2021-03-04T13:39:58.000Z</time>
      </trkpt>
      <trkpt lat="43.73701" lon="7.08528">
        <ele>625.20001220703</ele>
        <time>2021-03-04T13:40:02.000Z</time>
      </trkpt>
      <trkpt lat="43.737" lon="7.08533">
        <ele>624.20001220703</ele>
        <time>2021-03-04T13:40:03.000Z</time>
      </trkpt>
      <trkpt lat="43.73699" lon="7.08539">
        <ele>624</ele>
        <time>2021-03-04T13:40:04.000Z</time>
      </trkpt>
      <trkpt lat="43.73697" lon="7.08544">
        <ele>622.59997558594</ele>
        <time>2021-03-04T13:40:05.000Z</time>
      </trkpt>
      <trkpt lat="43.73692" lon="7.08562">
        <ele>621.40002441406</ele>
        <time>2021-03-04T13:40:08.000Z</time>
      </trkpt>
      <trkpt lat="43.73684" lon="7.08577">
        <ele>621.20001220703</ele>
        <time>2021-03-04T13:40:12.000Z</time>
      </trkpt>
      <trkpt lat="43.73671" lon="7.086">
        <ele>619.59997558594</ele>
        <time>2021-03-04T13:40:17.000Z</time>
      </trkpt>
      <trkpt lat="43.73668" lon="7.08605">
        <ele>618.59997558594</ele>
        <time>2021-03-04T13:40:18.000Z</time>
      </trkpt>
      <trkpt lat="43.73664" lon="7.08609">
        <ele>618.20001220703</ele>
        <time>2021-03-04T13:40:19.000Z</time>
      </trkpt>
      <trkpt lat="43.73657" lon="7.08614">
        <ele>617.40002441406</ele>
        <time>2021-03-04T13:40:20.000Z</time>
      </trkpt>
      <trkpt lat="43.73652" lon="7.08619">
        <ele>616</ele>
        <time>2021-03-04T13:40:21.000Z</time>
      </trkpt>
      <trkpt lat="43.73645" lon="7.0863">
        <ele>614</ele>
        <time>2021-03-04T13:40:23.000Z</time>
      </trkpt>
      <trkpt lat="43.73643" lon="7.08637">
        <ele>612.20001220703</ele>
        <time>2021-03-04T13:40:24.000Z</time>
      </trkpt>
      <trkpt lat="43.73641" lon="7.08644">
        <ele>611.59997558594</ele>
        <time>2021-03-04T13:40:25.000Z</time>
      </trkpt>
      <trkpt lat="43.7364" lon="7.08655">
        <ele>611</ele>
        <time>2021-03-04T13:40:27.000Z</time>
      </trkpt>
      <trkpt lat="43.73639" lon="7.0866">
        <ele>611.20001220703</ele>
        <time>2021-03-04T13:40:28.000Z</time>
      </trkpt>
      <trkpt lat="43.73636" lon="7.08673">
        <ele>612</ele>
        <time>2021-03-04T13:40:31.000Z</time>
      </trkpt>
      <trkpt lat="43.73635" lon="7.08678">
        <ele>612.40002441406</ele>
        <time>2021-03-04T13:40:32.000Z</time>
      </trkpt>
      <trkpt lat="43.73632" lon="7.08692">
        <ele>613.59997558594</ele>
        <time>2021-03-04T13:40:35.000Z</time>
      </trkpt>
      <trkpt lat="43.7363" lon="7.08698">
        <ele>613.79998779297</ele>
        <time>2021-03-04T13:40:36.000Z</time>
      </trkpt>
      <trkpt lat="43.73623" lon="7.08709">
        <ele>614.40002441406</ele>
        <time>2021-03-04T13:40:38.000Z</time>
      </trkpt>
      <trkpt lat="43.7362" lon="7.08714">
        <ele>614.59997558594</ele>
        <time>2021-03-04T13:40:39.000Z</time>
      </trkpt>
      <trkpt lat="43.73611" lon="7.08722">
        <ele>614.20001220703</ele>
        <time>2021-03-04T13:40:42.000Z</time>
      </trkpt>
      <trkpt lat="43.73607" lon="7.08725">
        <ele>613.40002441406</ele>
        <time>2021-03-04T13:40:43.000Z</time>
      </trkpt>
      <trkpt lat="43.73604" lon="7.0873">
        <ele>613.20001220703</ele>
        <time>2021-03-04T13:40:44.000Z</time>
      </trkpt>
      <trkpt lat="43.73602" lon="7.08735">
        <ele>612.20001220703</ele>
        <time>2021-03-04T13:40:45.000Z</time>
      </trkpt>
      <trkpt lat="43.73597" lon="7.08748">
        <ele>610.40002441406</ele>
        <time>2021-03-04T13:40:47.000Z</time>
      </trkpt>
      <trkpt lat="43.73591" lon="7.08764">
        <ele>608.59997558594</ele>
        <time>2021-03-04T13:40:49.000Z</time>
      </trkpt>
      <trkpt lat="43.73588" lon="7.08772">
        <ele>607.20001220703</ele>
        <time>2021-03-04T13:40:50.000Z</time>
      </trkpt>
      <trkpt lat="43.73584" lon="7.08779">
        <ele>606</ele>
        <time>2021-03-04T13:40:51.000Z</time>
      </trkpt>
      <trkpt lat="43.73575" lon="7.08793">
        <ele>603.59997558594</ele>
        <time>2021-03-04T13:40:53.000Z</time>
      </trkpt>
      <trkpt lat="43.73565" lon="7.08807">
        <ele>601.59997558594</ele>
        <time>2021-03-04T13:40:55.000Z</time>
      </trkpt>
      <trkpt lat="43.73555" lon="7.08821">
        <ele>599.40002441406</ele>
        <time>2021-03-04T13:40:57.000Z</time>
      </trkpt>
      <trkpt lat="43.73551" lon="7.08829">
        <ele>598</ele>
        <time>2021-03-04T13:40:58.000Z</time>
      </trkpt>
      <trkpt lat="43.73547" lon="7.08837">
        <ele>596.40002441406</ele>
        <time>2021-03-04T13:40:59.000Z</time>
      </trkpt>
      <trkpt lat="43.73542" lon="7.08845">
        <ele>594.59997558594</ele>
        <time>2021-03-04T13:41:00.000Z</time>
      </trkpt>
      <trkpt lat="43.73538" lon="7.08853">
        <ele>593</ele>
        <time>2021-03-04T13:41:01.000Z</time>
      </trkpt>
      <trkpt lat="43.73533" lon="7.0886">
        <ele>591.59997558594</ele>
        <time>2021-03-04T13:41:02.000Z</time>
      </trkpt>
      <trkpt lat="43.73525" lon="7.08874">
        <ele>591</ele>
        <time>2021-03-04T13:41:04.000Z</time>
      </trkpt>
      <trkpt lat="43.73523" lon="7.08878">
        <ele>590.20001220703</ele>
        <time>2021-03-04T13:41:05.000Z</time>
      </trkpt>
      <trkpt lat="43.73522" lon="7.0888">
        <ele>589.40002441406</ele>
        <time>2021-03-04T13:41:06.000Z</time>
      </trkpt>
      <trkpt lat="43.73522" lon="7.08881">
        <ele>589</ele>
        <time>2021-03-04T13:41:07.000Z</time>
      </trkpt>
      <trkpt lat="43.73517" lon="7.08887">
        <ele>588</ele>
        <time>2021-03-04T13:41:10.000Z</time>
      </trkpt>
      <trkpt lat="43.73515" lon="7.08886">
        <ele>587.79998779297</ele>
        <time>2021-03-04T13:41:13.000Z</time>
      </trkpt>
      <trkpt lat="43.73517" lon="7.08886">
        <ele>587.59997558594</ele>
        <time>2021-03-04T13:41:35.000Z</time>
      </trkpt>
      <trkpt lat="43.73516" lon="7.08885">
        <ele>587.20001220703</ele>
        <time>2021-03-04T13:41:43.000Z</time>
      </trkpt>
      <trkpt lat="43.73517" lon="7.08886">
        <ele>587.20001220703</ele>
        <time>2021-03-04T13:41:49.000Z</time>
      </trkpt>
      <trkpt lat="43.73518" lon="7.08886">
        <ele>587</ele>
        <time>2021-03-04T13:41:51.000Z</time>
      </trkpt>
      <trkpt lat="43.73519" lon="7.08886">
        <ele>587</ele>
        <time>2021-03-04T13:41:52.000Z</time>
      </trkpt>
      <trkpt lat="43.73518" lon="7.08893">
        <ele>587.40002441406</ele>
        <time>2021-03-04T13:48:57.000Z</time>
      </trkpt>
      <trkpt lat="43.73518" lon="7.08893">
        <ele>587.40002441406</ele>
        <time>2021-03-04T13:48:58.000Z</time>
      </trkpt>
    </trkseg>
  </trk>
</gpx>